<?xml version="1.0" encoding="UTF-8" standalone="no" ?>
<gpx xmlns="http://www.topografix.com/GPX/1/1" xmlns:xsi="http://www.w3.org/2001/XMLSchema-instance" xsi:schemaLocation="http://www.topografix.com/GPX/1/1 http://www.topografix.com/GPX/1/1/gpx.xsd" version="1.1" creator="VisuGPX - https://www.visugpx.com">
  <metadata>
    <name>15 mars 2020 14:46:02</name>
    <desc><![CDATA[
parcours du dimanche 15 mars 2020]]></desc>
  </metadata>
  <trk>
    <name><![CDATA[15 mars 2020 14:46:02]]></name>
    <trkseg>
      <trkpt lat="48.84909" lon="2.36651">
        <ele>98.41</ele>
        <time>2020-03-15T13:46:00.826Z</time>
      </trkpt>
      <trkpt lat="48.84893" lon="2.3667">
        <ele>94.84</ele>
        <time>2020-03-15T13:46:02.833Z</time>
      </trkpt>
      <trkpt lat="48.84893" lon="2.36666">
        <ele>92.53</ele>
        <time>2020-03-15T13:46:03.833Z</time>
      </trkpt>
      <trkpt lat="48.84892" lon="2.36664">
        <ele>91.43</ele>
        <time>2020-03-15T13:46:04.999Z</time>
      </trkpt>
      <trkpt lat="48.8489" lon="2.36663">
        <ele>91.24</ele>
        <time>2020-03-15T13:46:05.999Z</time>
      </trkpt>
      <trkpt lat="48.84889" lon="2.36662">
        <ele>91.02</ele>
        <time>2020-03-15T13:46:06.999Z</time>
      </trkpt>
      <trkpt lat="48.84887" lon="2.36661">
        <ele>90.07</ele>
        <time>2020-03-15T13:46:07.999Z</time>
      </trkpt>
      <trkpt lat="48.84886" lon="2.36659">
        <ele>88.92</ele>
        <time>2020-03-15T13:46:08.999Z</time>
      </trkpt>
      <trkpt lat="48.84885" lon="2.36658">
        <ele>88.54</ele>
        <time>2020-03-15T13:46:09.999Z</time>
      </trkpt>
      <trkpt lat="48.84883" lon="2.36656">
        <ele>88.76</ele>
        <time>2020-03-15T13:46:10.999Z</time>
      </trkpt>
      <trkpt lat="48.84882" lon="2.36656">
        <ele>88.64</ele>
        <time>2020-03-15T13:46:11.999Z</time>
      </trkpt>
      <trkpt lat="48.84881" lon="2.36654">
        <ele>88.9</ele>
        <time>2020-03-15T13:46:12.999Z</time>
      </trkpt>
      <trkpt lat="48.84879" lon="2.36653">
        <ele>89.06</ele>
        <time>2020-03-15T13:46:13.999Z</time>
      </trkpt>
      <trkpt lat="48.84877" lon="2.36652">
        <ele>89.51</ele>
        <time>2020-03-15T13:46:14.999Z</time>
      </trkpt>
      <trkpt lat="48.84875" lon="2.36651">
        <ele>89.69</ele>
        <time>2020-03-15T13:46:15.999Z</time>
      </trkpt>
      <trkpt lat="48.84872" lon="2.3665">
        <ele>89.7</ele>
        <time>2020-03-15T13:46:16.999Z</time>
      </trkpt>
      <trkpt lat="48.8487" lon="2.36649">
        <ele>89.94</ele>
        <time>2020-03-15T13:46:17.999Z</time>
      </trkpt>
      <trkpt lat="48.84868" lon="2.36647">
        <ele>90.08</ele>
        <time>2020-03-15T13:46:18.999Z</time>
      </trkpt>
      <trkpt lat="48.84866" lon="2.36646">
        <ele>90.84</ele>
        <time>2020-03-15T13:46:19.999Z</time>
      </trkpt>
      <trkpt lat="48.84863" lon="2.36645">
        <ele>90.7</ele>
        <time>2020-03-15T13:46:20.999Z</time>
      </trkpt>
      <trkpt lat="48.84861" lon="2.36644">
        <ele>91.06</ele>
        <time>2020-03-15T13:46:21.999Z</time>
      </trkpt>
      <trkpt lat="48.84859" lon="2.36643">
        <ele>91.34</ele>
        <time>2020-03-15T13:46:22.999Z</time>
      </trkpt>
      <trkpt lat="48.84856" lon="2.36641">
        <ele>91.59</ele>
        <time>2020-03-15T13:46:23.999Z</time>
      </trkpt>
      <trkpt lat="48.84854" lon="2.3664">
        <ele>91.74</ele>
        <time>2020-03-15T13:46:24.999Z</time>
      </trkpt>
      <trkpt lat="48.84852" lon="2.36638">
        <ele>91.84</ele>
        <time>2020-03-15T13:46:25.999Z</time>
      </trkpt>
      <trkpt lat="48.84849" lon="2.36636">
        <ele>91.97</ele>
        <time>2020-03-15T13:46:26.999Z</time>
      </trkpt>
      <trkpt lat="48.84847" lon="2.36634">
        <ele>92.08</ele>
        <time>2020-03-15T13:46:27.999Z</time>
      </trkpt>
      <trkpt lat="48.84845" lon="2.36632">
        <ele>92.35</ele>
        <time>2020-03-15T13:46:28.999Z</time>
      </trkpt>
      <trkpt lat="48.84842" lon="2.3663">
        <ele>92.58</ele>
        <time>2020-03-15T13:46:29.999Z</time>
      </trkpt>
      <trkpt lat="48.84838" lon="2.3663">
        <ele>92.83</ele>
        <time>2020-03-15T13:46:30.999Z</time>
      </trkpt>
      <trkpt lat="48.84835" lon="2.36629">
        <ele>92.83</ele>
        <time>2020-03-15T13:46:31.999Z</time>
      </trkpt>
      <trkpt lat="48.84832" lon="2.36627">
        <ele>92.83</ele>
        <time>2020-03-15T13:46:32.999Z</time>
      </trkpt>
      <trkpt lat="48.84829" lon="2.36625">
        <ele>92.82</ele>
        <time>2020-03-15T13:46:33.999Z</time>
      </trkpt>
      <trkpt lat="48.84827" lon="2.36624">
        <ele>92.82</ele>
        <time>2020-03-15T13:46:34.999Z</time>
      </trkpt>
      <trkpt lat="48.84824" lon="2.36622">
        <ele>92.83</ele>
        <time>2020-03-15T13:46:35.999Z</time>
      </trkpt>
      <trkpt lat="48.84821" lon="2.36621">
        <ele>92.82</ele>
        <time>2020-03-15T13:46:36.999Z</time>
      </trkpt>
      <trkpt lat="48.8482" lon="2.36619">
        <ele>92.81</ele>
        <time>2020-03-15T13:46:37.999Z</time>
      </trkpt>
      <trkpt lat="48.84818" lon="2.36617">
        <ele>92.8</ele>
        <time>2020-03-15T13:46:38.999Z</time>
      </trkpt>
      <trkpt lat="48.84815" lon="2.36615">
        <ele>92.79</ele>
        <time>2020-03-15T13:46:39.999Z</time>
      </trkpt>
      <trkpt lat="48.84813" lon="2.36614">
        <ele>92.77</ele>
        <time>2020-03-15T13:46:40.999Z</time>
      </trkpt>
      <trkpt lat="48.84811" lon="2.36614">
        <ele>92.74</ele>
        <time>2020-03-15T13:46:41.999Z</time>
      </trkpt>
      <trkpt lat="48.84809" lon="2.36613">
        <ele>92.72</ele>
        <time>2020-03-15T13:46:42.999Z</time>
      </trkpt>
      <trkpt lat="48.84807" lon="2.36612">
        <ele>92.7</ele>
        <time>2020-03-15T13:46:43.999Z</time>
      </trkpt>
      <trkpt lat="48.84804" lon="2.36611">
        <ele>92.68</ele>
        <time>2020-03-15T13:46:44.999Z</time>
      </trkpt>
      <trkpt lat="48.84802" lon="2.3661">
        <ele>92.66</ele>
        <time>2020-03-15T13:46:45.999Z</time>
      </trkpt>
      <trkpt lat="48.848" lon="2.36609">
        <ele>92.64</ele>
        <time>2020-03-15T13:46:46.999Z</time>
      </trkpt>
      <trkpt lat="48.84798" lon="2.36609">
        <ele>92.62</ele>
        <time>2020-03-15T13:46:47.999Z</time>
      </trkpt>
      <trkpt lat="48.84795" lon="2.36608">
        <ele>92.61</ele>
        <time>2020-03-15T13:46:48.999Z</time>
      </trkpt>
      <trkpt lat="48.84793" lon="2.36607">
        <ele>92.6</ele>
        <time>2020-03-15T13:46:49.999Z</time>
      </trkpt>
      <trkpt lat="48.84791" lon="2.36606">
        <ele>92.59</ele>
        <time>2020-03-15T13:46:50.999Z</time>
      </trkpt>
      <trkpt lat="48.84789" lon="2.36605">
        <ele>92.58</ele>
        <time>2020-03-15T13:46:51.999Z</time>
      </trkpt>
      <trkpt lat="48.84787" lon="2.36604">
        <ele>92.58</ele>
        <time>2020-03-15T13:46:52.999Z</time>
      </trkpt>
      <trkpt lat="48.84785" lon="2.36603">
        <ele>92.58</ele>
        <time>2020-03-15T13:46:53.999Z</time>
      </trkpt>
      <trkpt lat="48.84783" lon="2.36602">
        <ele>92.58</ele>
        <time>2020-03-15T13:46:54.999Z</time>
      </trkpt>
      <trkpt lat="48.8478" lon="2.36601">
        <ele>92.58</ele>
        <time>2020-03-15T13:46:55.999Z</time>
      </trkpt>
      <trkpt lat="48.84779" lon="2.366">
        <ele>92.58</ele>
        <time>2020-03-15T13:46:56.999Z</time>
      </trkpt>
      <trkpt lat="48.84776" lon="2.36599">
        <ele>92.59</ele>
        <time>2020-03-15T13:46:57.999Z</time>
      </trkpt>
      <trkpt lat="48.84774" lon="2.36598">
        <ele>92.59</ele>
        <time>2020-03-15T13:46:58.999Z</time>
      </trkpt>
      <trkpt lat="48.84772" lon="2.36597">
        <ele>92.6</ele>
        <time>2020-03-15T13:46:59.999Z</time>
      </trkpt>
      <trkpt lat="48.8477" lon="2.36596">
        <ele>92.61</ele>
        <time>2020-03-15T13:47:00.999Z</time>
      </trkpt>
      <trkpt lat="48.84767" lon="2.36596">
        <ele>92.61</ele>
        <time>2020-03-15T13:47:01.999Z</time>
      </trkpt>
      <trkpt lat="48.84765" lon="2.36595">
        <ele>92.62</ele>
        <time>2020-03-15T13:47:02.999Z</time>
      </trkpt>
      <trkpt lat="48.84762" lon="2.36594">
        <ele>92.63</ele>
        <time>2020-03-15T13:47:03.999Z</time>
      </trkpt>
      <trkpt lat="48.8476" lon="2.36592">
        <ele>92.64</ele>
        <time>2020-03-15T13:47:04.999Z</time>
      </trkpt>
      <trkpt lat="48.84758" lon="2.3659">
        <ele>92.65</ele>
        <time>2020-03-15T13:47:05.999Z</time>
      </trkpt>
      <trkpt lat="48.84755" lon="2.3659">
        <ele>92.65</ele>
        <time>2020-03-15T13:47:06.999Z</time>
      </trkpt>
      <trkpt lat="48.84752" lon="2.36589">
        <ele>92.66</ele>
        <time>2020-03-15T13:47:07.999Z</time>
      </trkpt>
      <trkpt lat="48.84749" lon="2.36588">
        <ele>92.67</ele>
        <time>2020-03-15T13:47:08.999Z</time>
      </trkpt>
      <trkpt lat="48.84747" lon="2.36587">
        <ele>92.68</ele>
        <time>2020-03-15T13:47:09.999Z</time>
      </trkpt>
      <trkpt lat="48.84744" lon="2.36586">
        <ele>92.68</ele>
        <time>2020-03-15T13:47:10.999Z</time>
      </trkpt>
      <trkpt lat="48.84742" lon="2.36585">
        <ele>92.69</ele>
        <time>2020-03-15T13:47:11.999Z</time>
      </trkpt>
      <trkpt lat="48.84739" lon="2.36584">
        <ele>92.69</ele>
        <time>2020-03-15T13:47:12.999Z</time>
      </trkpt>
      <trkpt lat="48.84737" lon="2.36584">
        <ele>92.7</ele>
        <time>2020-03-15T13:47:13.999Z</time>
      </trkpt>
      <trkpt lat="48.84735" lon="2.36584">
        <ele>92.7</ele>
        <time>2020-03-15T13:47:14.999Z</time>
      </trkpt>
      <trkpt lat="48.84733" lon="2.36585">
        <ele>92.7</ele>
        <time>2020-03-15T13:47:15.999Z</time>
      </trkpt>
      <trkpt lat="48.8473" lon="2.36586">
        <ele>92.69</ele>
        <time>2020-03-15T13:47:16.999Z</time>
      </trkpt>
      <trkpt lat="48.84728" lon="2.36588">
        <ele>92.69</ele>
        <time>2020-03-15T13:47:17.999Z</time>
      </trkpt>
      <trkpt lat="48.84726" lon="2.3659">
        <ele>92.68</ele>
        <time>2020-03-15T13:47:18.999Z</time>
      </trkpt>
      <trkpt lat="48.84723" lon="2.36592">
        <ele>92.67</ele>
        <time>2020-03-15T13:47:19.999Z</time>
      </trkpt>
      <trkpt lat="48.84721" lon="2.36594">
        <ele>92.66</ele>
        <time>2020-03-15T13:47:20.999Z</time>
      </trkpt>
      <trkpt lat="48.84719" lon="2.36596">
        <ele>92.65</ele>
        <time>2020-03-15T13:47:21.999Z</time>
      </trkpt>
      <trkpt lat="48.84717" lon="2.36598">
        <ele>92.64</ele>
        <time>2020-03-15T13:47:22.999Z</time>
      </trkpt>
      <trkpt lat="48.84715" lon="2.36601">
        <ele>92.62</ele>
        <time>2020-03-15T13:47:23.999Z</time>
      </trkpt>
      <trkpt lat="48.84713" lon="2.36603">
        <ele>92.6</ele>
        <time>2020-03-15T13:47:24.999Z</time>
      </trkpt>
      <trkpt lat="48.84711" lon="2.36605">
        <ele>92.58</ele>
        <time>2020-03-15T13:47:25.999Z</time>
      </trkpt>
      <trkpt lat="48.84709" lon="2.36607">
        <ele>92.56</ele>
        <time>2020-03-15T13:47:26.999Z</time>
      </trkpt>
      <trkpt lat="48.84707" lon="2.36609">
        <ele>92.54</ele>
        <time>2020-03-15T13:47:27.999Z</time>
      </trkpt>
      <trkpt lat="48.84705" lon="2.36612">
        <ele>92.5</ele>
        <time>2020-03-15T13:47:28.999Z</time>
      </trkpt>
      <trkpt lat="48.84702" lon="2.36614">
        <ele>92.47</ele>
        <time>2020-03-15T13:47:29.999Z</time>
      </trkpt>
      <trkpt lat="48.84699" lon="2.36616">
        <ele>92.43</ele>
        <time>2020-03-15T13:47:30.999Z</time>
      </trkpt>
      <trkpt lat="48.84697" lon="2.36618">
        <ele>92.39</ele>
        <time>2020-03-15T13:47:31.999Z</time>
      </trkpt>
      <trkpt lat="48.84694" lon="2.3662">
        <ele>92.35</ele>
        <time>2020-03-15T13:47:32.999Z</time>
      </trkpt>
      <trkpt lat="48.84691" lon="2.36622">
        <ele>92.3</ele>
        <time>2020-03-15T13:47:33.999Z</time>
      </trkpt>
      <trkpt lat="48.84688" lon="2.36625">
        <ele>92.26</ele>
        <time>2020-03-15T13:47:34.999Z</time>
      </trkpt>
      <trkpt lat="48.84684" lon="2.36626">
        <ele>92.21</ele>
        <time>2020-03-15T13:47:35.999Z</time>
      </trkpt>
      <trkpt lat="48.84681" lon="2.36628">
        <ele>92.16</ele>
        <time>2020-03-15T13:47:36.999Z</time>
      </trkpt>
      <trkpt lat="48.84677" lon="2.3663">
        <ele>92.12</ele>
        <time>2020-03-15T13:47:37.999Z</time>
      </trkpt>
      <trkpt lat="48.84672" lon="2.36631">
        <ele>91.64</ele>
        <time>2020-03-15T13:47:38.999Z</time>
      </trkpt>
      <trkpt lat="48.84668" lon="2.36633">
        <ele>91.6</ele>
        <time>2020-03-15T13:47:39.999Z</time>
      </trkpt>
      <trkpt lat="48.84664" lon="2.36633">
        <ele>91.56</ele>
        <time>2020-03-15T13:47:40.999Z</time>
      </trkpt>
      <trkpt lat="48.8466" lon="2.36632">
        <ele>91.17</ele>
        <time>2020-03-15T13:47:41.999Z</time>
      </trkpt>
      <trkpt lat="48.84656" lon="2.36632">
        <ele>91.13</ele>
        <time>2020-03-15T13:47:42.999Z</time>
      </trkpt>
      <trkpt lat="48.84653" lon="2.36632">
        <ele>91.1</ele>
        <time>2020-03-15T13:47:43.999Z</time>
      </trkpt>
      <trkpt lat="48.8465" lon="2.36632">
        <ele>91.06</ele>
        <time>2020-03-15T13:47:44.999Z</time>
      </trkpt>
      <trkpt lat="48.84647" lon="2.36632">
        <ele>91.03</ele>
        <time>2020-03-15T13:47:45.999Z</time>
      </trkpt>
      <trkpt lat="48.84644" lon="2.36633">
        <ele>90.99</ele>
        <time>2020-03-15T13:47:46.999Z</time>
      </trkpt>
      <trkpt lat="48.8464" lon="2.36635">
        <ele>90.95</ele>
        <time>2020-03-15T13:47:47.999Z</time>
      </trkpt>
      <trkpt lat="48.84637" lon="2.36636">
        <ele>90.92</ele>
        <time>2020-03-15T13:47:48.999Z</time>
      </trkpt>
      <trkpt lat="48.84633" lon="2.36638">
        <ele>90.55</ele>
        <time>2020-03-15T13:47:49.999Z</time>
      </trkpt>
      <trkpt lat="48.84629" lon="2.36639">
        <ele>90.25</ele>
        <time>2020-03-15T13:47:50.999Z</time>
      </trkpt>
      <trkpt lat="48.84625" lon="2.36642">
        <ele>89.99</ele>
        <time>2020-03-15T13:47:51.999Z</time>
      </trkpt>
      <trkpt lat="48.84621" lon="2.36645">
        <ele>89.76</ele>
        <time>2020-03-15T13:47:52.999Z</time>
      </trkpt>
      <trkpt lat="48.84617" lon="2.36649">
        <ele>89.59</ele>
        <time>2020-03-15T13:47:53.999Z</time>
      </trkpt>
      <trkpt lat="48.84612" lon="2.36652">
        <ele>89.43</ele>
        <time>2020-03-15T13:47:54.999Z</time>
      </trkpt>
      <trkpt lat="48.84608" lon="2.36656">
        <ele>89.29</ele>
        <time>2020-03-15T13:47:55.999Z</time>
      </trkpt>
      <trkpt lat="48.84604" lon="2.36659">
        <ele>89.17</ele>
        <time>2020-03-15T13:47:56.999Z</time>
      </trkpt>
      <trkpt lat="48.84601" lon="2.36662">
        <ele>89.16</ele>
        <time>2020-03-15T13:47:57.999Z</time>
      </trkpt>
      <trkpt lat="48.84598" lon="2.36664">
        <ele>89.14</ele>
        <time>2020-03-15T13:47:58.999Z</time>
      </trkpt>
      <trkpt lat="48.84594" lon="2.36666">
        <ele>89.01</ele>
        <time>2020-03-15T13:47:59.999Z</time>
      </trkpt>
      <trkpt lat="48.84591" lon="2.36668">
        <ele>89</ele>
        <time>2020-03-15T13:48:00.999Z</time>
      </trkpt>
      <trkpt lat="48.84587" lon="2.3667">
        <ele>88.98</ele>
        <time>2020-03-15T13:48:01.999Z</time>
      </trkpt>
      <trkpt lat="48.84583" lon="2.3667">
        <ele>88.97</ele>
        <time>2020-03-15T13:48:02.999Z</time>
      </trkpt>
      <trkpt lat="48.84579" lon="2.36672">
        <ele>88.96</ele>
        <time>2020-03-15T13:48:03.999Z</time>
      </trkpt>
      <trkpt lat="48.84576" lon="2.36675">
        <ele>88.95</ele>
        <time>2020-03-15T13:48:04.999Z</time>
      </trkpt>
      <trkpt lat="48.84571" lon="2.36677">
        <ele>88.94</ele>
        <time>2020-03-15T13:48:05.999Z</time>
      </trkpt>
      <trkpt lat="48.84567" lon="2.36677">
        <ele>88.93</ele>
        <time>2020-03-15T13:48:06.999Z</time>
      </trkpt>
      <trkpt lat="48.84563" lon="2.36676">
        <ele>88.93</ele>
        <time>2020-03-15T13:48:07.999Z</time>
      </trkpt>
      <trkpt lat="48.84559" lon="2.36674">
        <ele>88.92</ele>
        <time>2020-03-15T13:48:08.999Z</time>
      </trkpt>
      <trkpt lat="48.84556" lon="2.36673">
        <ele>88.91</ele>
        <time>2020-03-15T13:48:09.999Z</time>
      </trkpt>
      <trkpt lat="48.84553" lon="2.36671">
        <ele>88.9</ele>
        <time>2020-03-15T13:48:10.999Z</time>
      </trkpt>
      <trkpt lat="48.8455" lon="2.3667">
        <ele>88.89</ele>
        <time>2020-03-15T13:48:11.999Z</time>
      </trkpt>
      <trkpt lat="48.84549" lon="2.36667">
        <ele>88.89</ele>
        <time>2020-03-15T13:48:12.999Z</time>
      </trkpt>
      <trkpt lat="48.84547" lon="2.36663">
        <ele>88.88</ele>
        <time>2020-03-15T13:48:13.999Z</time>
      </trkpt>
      <trkpt lat="48.84545" lon="2.3666">
        <ele>88.87</ele>
        <time>2020-03-15T13:48:14.999Z</time>
      </trkpt>
      <trkpt lat="48.84544" lon="2.36657">
        <ele>88.86</ele>
        <time>2020-03-15T13:48:15.999Z</time>
      </trkpt>
      <trkpt lat="48.84541" lon="2.36656">
        <ele>88.86</ele>
        <time>2020-03-15T13:48:16.999Z</time>
      </trkpt>
      <trkpt lat="48.84539" lon="2.36653">
        <ele>88.87</ele>
        <time>2020-03-15T13:48:17.999Z</time>
      </trkpt>
      <trkpt lat="48.84537" lon="2.36651">
        <ele>88.87</ele>
        <time>2020-03-15T13:48:18.999Z</time>
      </trkpt>
      <trkpt lat="48.84535" lon="2.36648">
        <ele>88.88</ele>
        <time>2020-03-15T13:48:19.999Z</time>
      </trkpt>
      <trkpt lat="48.84533" lon="2.36645">
        <ele>88.89</ele>
        <time>2020-03-15T13:48:20.999Z</time>
      </trkpt>
      <trkpt lat="48.84531" lon="2.36642">
        <ele>88.9</ele>
        <time>2020-03-15T13:48:21.999Z</time>
      </trkpt>
      <trkpt lat="48.84529" lon="2.36639">
        <ele>88.9</ele>
        <time>2020-03-15T13:48:22.999Z</time>
      </trkpt>
      <trkpt lat="48.84528" lon="2.36635">
        <ele>88.92</ele>
        <time>2020-03-15T13:48:23.999Z</time>
      </trkpt>
      <trkpt lat="48.84525" lon="2.36632">
        <ele>88.93</ele>
        <time>2020-03-15T13:48:24.999Z</time>
      </trkpt>
      <trkpt lat="48.84522" lon="2.36628">
        <ele>88.94</ele>
        <time>2020-03-15T13:48:25.999Z</time>
      </trkpt>
      <trkpt lat="48.84519" lon="2.36625">
        <ele>88.96</ele>
        <time>2020-03-15T13:48:26.999Z</time>
      </trkpt>
      <trkpt lat="48.84517" lon="2.36623">
        <ele>88.97</ele>
        <time>2020-03-15T13:48:27.999Z</time>
      </trkpt>
      <trkpt lat="48.84514" lon="2.36619">
        <ele>88.98</ele>
        <time>2020-03-15T13:48:28.999Z</time>
      </trkpt>
      <trkpt lat="48.84511" lon="2.36615">
        <ele>89</ele>
        <time>2020-03-15T13:48:29.999Z</time>
      </trkpt>
      <trkpt lat="48.84509" lon="2.36611">
        <ele>89.01</ele>
        <time>2020-03-15T13:48:30.999Z</time>
      </trkpt>
      <trkpt lat="48.84507" lon="2.36607">
        <ele>89.02</ele>
        <time>2020-03-15T13:48:31.999Z</time>
      </trkpt>
      <trkpt lat="48.84505" lon="2.36604">
        <ele>89.03</ele>
        <time>2020-03-15T13:48:32.999Z</time>
      </trkpt>
      <trkpt lat="48.84503" lon="2.366">
        <ele>89.04</ele>
        <time>2020-03-15T13:48:33.999Z</time>
      </trkpt>
      <trkpt lat="48.84501" lon="2.36597">
        <ele>89.05</ele>
        <time>2020-03-15T13:48:34.999Z</time>
      </trkpt>
      <trkpt lat="48.84499" lon="2.36594">
        <ele>89.06</ele>
        <time>2020-03-15T13:48:35.999Z</time>
      </trkpt>
      <trkpt lat="48.84497" lon="2.3659">
        <ele>89.07</ele>
        <time>2020-03-15T13:48:36.999Z</time>
      </trkpt>
      <trkpt lat="48.84494" lon="2.36585">
        <ele>89.08</ele>
        <time>2020-03-15T13:48:37.999Z</time>
      </trkpt>
      <trkpt lat="48.84492" lon="2.36581">
        <ele>89.09</ele>
        <time>2020-03-15T13:48:38.999Z</time>
      </trkpt>
      <trkpt lat="48.84489" lon="2.36577">
        <ele>89.1</ele>
        <time>2020-03-15T13:48:39.999Z</time>
      </trkpt>
      <trkpt lat="48.84487" lon="2.36573">
        <ele>89.23</ele>
        <time>2020-03-15T13:48:40.999Z</time>
      </trkpt>
      <trkpt lat="48.84484" lon="2.36569">
        <ele>89.33</ele>
        <time>2020-03-15T13:48:41.999Z</time>
      </trkpt>
      <trkpt lat="48.84482" lon="2.36564">
        <ele>89.4</ele>
        <time>2020-03-15T13:48:42.999Z</time>
      </trkpt>
      <trkpt lat="48.84479" lon="2.36559">
        <ele>89.47</ele>
        <time>2020-03-15T13:48:43.999Z</time>
      </trkpt>
      <trkpt lat="48.84476" lon="2.36554">
        <ele>89.53</ele>
        <time>2020-03-15T13:48:44.999Z</time>
      </trkpt>
      <trkpt lat="48.84473" lon="2.36549">
        <ele>89.59</ele>
        <time>2020-03-15T13:48:45.999Z</time>
      </trkpt>
      <trkpt lat="48.8447" lon="2.36545">
        <ele>89.65</ele>
        <time>2020-03-15T13:48:46.999Z</time>
      </trkpt>
      <trkpt lat="48.84467" lon="2.3654">
        <ele>89.7</ele>
        <time>2020-03-15T13:48:47.999Z</time>
      </trkpt>
      <trkpt lat="48.84464" lon="2.36535">
        <ele>89.75</ele>
        <time>2020-03-15T13:48:48.999Z</time>
      </trkpt>
      <trkpt lat="48.84461" lon="2.36531">
        <ele>89.79</ele>
        <time>2020-03-15T13:48:49.999Z</time>
      </trkpt>
      <trkpt lat="48.84459" lon="2.36526">
        <ele>89.82</ele>
        <time>2020-03-15T13:48:50.999Z</time>
      </trkpt>
      <trkpt lat="48.84456" lon="2.36522">
        <ele>89.85</ele>
        <time>2020-03-15T13:48:51.999Z</time>
      </trkpt>
      <trkpt lat="48.84454" lon="2.36516">
        <ele>89.86</ele>
        <time>2020-03-15T13:48:52.999Z</time>
      </trkpt>
      <trkpt lat="48.84452" lon="2.36511">
        <ele>89.87</ele>
        <time>2020-03-15T13:48:53.999Z</time>
      </trkpt>
      <trkpt lat="48.8445" lon="2.36506">
        <ele>89.87</ele>
        <time>2020-03-15T13:48:54.999Z</time>
      </trkpt>
      <trkpt lat="48.84447" lon="2.36502">
        <ele>89.88</ele>
        <time>2020-03-15T13:48:55.999Z</time>
      </trkpt>
      <trkpt lat="48.84446" lon="2.36499">
        <ele>89.88</ele>
        <time>2020-03-15T13:48:56.999Z</time>
      </trkpt>
      <trkpt lat="48.84444" lon="2.36497">
        <ele>89.89</ele>
        <time>2020-03-15T13:48:57.999Z</time>
      </trkpt>
      <trkpt lat="48.84443" lon="2.36495">
        <ele>89.9</ele>
        <time>2020-03-15T13:48:58.999Z</time>
      </trkpt>
      <trkpt lat="48.84442" lon="2.36494">
        <ele>89.91</ele>
        <time>2020-03-15T13:48:59.999Z</time>
      </trkpt>
      <trkpt lat="48.8444" lon="2.36495">
        <ele>90.75</ele>
        <time>2020-03-15T13:49:21.999Z</time>
      </trkpt>
      <trkpt lat="48.8444" lon="2.36497">
        <ele>90.75</ele>
        <time>2020-03-15T13:49:24.999Z</time>
      </trkpt>
      <trkpt lat="48.8444" lon="2.36495">
        <ele>90.75</ele>
        <time>2020-03-15T13:49:25.999Z</time>
      </trkpt>
      <trkpt lat="48.84439" lon="2.36496">
        <ele>90.76</ele>
        <time>2020-03-15T13:49:26.999Z</time>
      </trkpt>
      <trkpt lat="48.8444" lon="2.36496">
        <ele>90.76</ele>
        <time>2020-03-15T13:49:31.999Z</time>
      </trkpt>
      <trkpt lat="48.8444" lon="2.36495">
        <ele>90.76</ele>
        <time>2020-03-15T13:49:35.999Z</time>
      </trkpt>
      <trkpt lat="48.84442" lon="2.36495">
        <ele>90.77</ele>
        <time>2020-03-15T13:49:38.999Z</time>
      </trkpt>
      <trkpt lat="48.84443" lon="2.36495">
        <ele>90.77</ele>
        <time>2020-03-15T13:49:45.999Z</time>
      </trkpt>
      <trkpt lat="48.84444" lon="2.36496">
        <ele>90.77</ele>
        <time>2020-03-15T13:49:55.999Z</time>
      </trkpt>
      <trkpt lat="48.84443" lon="2.36498">
        <ele>90.76</ele>
        <time>2020-03-15T13:49:58.999Z</time>
      </trkpt>
      <trkpt lat="48.84443" lon="2.365">
        <ele>90.76</ele>
        <time>2020-03-15T13:50:00.999Z</time>
      </trkpt>
      <trkpt lat="48.84443" lon="2.36501">
        <ele>90.74</ele>
        <time>2020-03-15T13:50:06.999Z</time>
      </trkpt>
      <trkpt lat="48.84442" lon="2.36498">
        <ele>90.72</ele>
        <time>2020-03-15T13:50:14.999Z</time>
      </trkpt>
      <trkpt lat="48.84441" lon="2.36497">
        <ele>90.71</ele>
        <time>2020-03-15T13:50:15.999Z</time>
      </trkpt>
      <trkpt lat="48.84441" lon="2.36494">
        <ele>90.7</ele>
        <time>2020-03-15T13:50:16.999Z</time>
      </trkpt>
      <trkpt lat="48.8444" lon="2.3649">
        <ele>90.7</ele>
        <time>2020-03-15T13:50:17.999Z</time>
      </trkpt>
      <trkpt lat="48.84439" lon="2.36487">
        <ele>90.69</ele>
        <time>2020-03-15T13:50:18.999Z</time>
      </trkpt>
      <trkpt lat="48.84437" lon="2.36485">
        <ele>90.68</ele>
        <time>2020-03-15T13:50:19.999Z</time>
      </trkpt>
      <trkpt lat="48.84436" lon="2.36483">
        <ele>90.68</ele>
        <time>2020-03-15T13:50:20.999Z</time>
      </trkpt>
      <trkpt lat="48.84434" lon="2.36481">
        <ele>90.67</ele>
        <time>2020-03-15T13:50:21.999Z</time>
      </trkpt>
      <trkpt lat="48.84432" lon="2.36479">
        <ele>90.67</ele>
        <time>2020-03-15T13:50:22.999Z</time>
      </trkpt>
      <trkpt lat="48.84431" lon="2.36478">
        <ele>90.67</ele>
        <time>2020-03-15T13:50:23.999Z</time>
      </trkpt>
      <trkpt lat="48.84429" lon="2.36476">
        <ele>90.66</ele>
        <time>2020-03-15T13:50:24.999Z</time>
      </trkpt>
      <trkpt lat="48.84427" lon="2.36473">
        <ele>90.66</ele>
        <time>2020-03-15T13:50:25.999Z</time>
      </trkpt>
      <trkpt lat="48.84425" lon="2.36471">
        <ele>90.66</ele>
        <time>2020-03-15T13:50:26.999Z</time>
      </trkpt>
      <trkpt lat="48.84424" lon="2.36467">
        <ele>90.65</ele>
        <time>2020-03-15T13:50:27.999Z</time>
      </trkpt>
      <trkpt lat="48.84423" lon="2.36464">
        <ele>90.65</ele>
        <time>2020-03-15T13:50:28.999Z</time>
      </trkpt>
      <trkpt lat="48.84423" lon="2.36461">
        <ele>90.65</ele>
        <time>2020-03-15T13:50:29.999Z</time>
      </trkpt>
      <trkpt lat="48.84421" lon="2.36457">
        <ele>90.64</ele>
        <time>2020-03-15T13:50:30.999Z</time>
      </trkpt>
      <trkpt lat="48.8442" lon="2.36453">
        <ele>90.64</ele>
        <time>2020-03-15T13:50:31.999Z</time>
      </trkpt>
      <trkpt lat="48.84419" lon="2.36448">
        <ele>90.63</ele>
        <time>2020-03-15T13:50:32.999Z</time>
      </trkpt>
      <trkpt lat="48.84418" lon="2.36443">
        <ele>90.63</ele>
        <time>2020-03-15T13:50:33.999Z</time>
      </trkpt>
      <trkpt lat="48.84416" lon="2.36438">
        <ele>90.63</ele>
        <time>2020-03-15T13:50:34.999Z</time>
      </trkpt>
      <trkpt lat="48.84415" lon="2.36433">
        <ele>90.63</ele>
        <time>2020-03-15T13:50:35.999Z</time>
      </trkpt>
      <trkpt lat="48.84413" lon="2.3643">
        <ele>90.62</ele>
        <time>2020-03-15T13:50:36.999Z</time>
      </trkpt>
      <trkpt lat="48.84411" lon="2.36428">
        <ele>90.62</ele>
        <time>2020-03-15T13:50:37.999Z</time>
      </trkpt>
      <trkpt lat="48.84408" lon="2.36428">
        <ele>90.62</ele>
        <time>2020-03-15T13:50:38.999Z</time>
      </trkpt>
      <trkpt lat="48.84405" lon="2.36427">
        <ele>90.61</ele>
        <time>2020-03-15T13:50:39.999Z</time>
      </trkpt>
      <trkpt lat="48.84401" lon="2.36427">
        <ele>90.61</ele>
        <time>2020-03-15T13:50:40.999Z</time>
      </trkpt>
      <trkpt lat="48.84398" lon="2.36426">
        <ele>90.61</ele>
        <time>2020-03-15T13:50:41.999Z</time>
      </trkpt>
      <trkpt lat="48.84394" lon="2.36425">
        <ele>90.61</ele>
        <time>2020-03-15T13:50:42.999Z</time>
      </trkpt>
      <trkpt lat="48.8439" lon="2.36424">
        <ele>90.61</ele>
        <time>2020-03-15T13:50:43.999Z</time>
      </trkpt>
      <trkpt lat="48.84386" lon="2.36423">
        <ele>90.6</ele>
        <time>2020-03-15T13:50:44.999Z</time>
      </trkpt>
      <trkpt lat="48.84382" lon="2.36423">
        <ele>90.6</ele>
        <time>2020-03-15T13:50:45.999Z</time>
      </trkpt>
      <trkpt lat="48.84378" lon="2.36424">
        <ele>90.6</ele>
        <time>2020-03-15T13:50:46.999Z</time>
      </trkpt>
      <trkpt lat="48.84374" lon="2.36425">
        <ele>90.59</ele>
        <time>2020-03-15T13:50:47.999Z</time>
      </trkpt>
      <trkpt lat="48.8437" lon="2.36425">
        <ele>90.59</ele>
        <time>2020-03-15T13:50:48.999Z</time>
      </trkpt>
      <trkpt lat="48.84366" lon="2.36425">
        <ele>90.58</ele>
        <time>2020-03-15T13:50:49.999Z</time>
      </trkpt>
      <trkpt lat="48.84363" lon="2.36425">
        <ele>90.52</ele>
        <time>2020-03-15T13:50:50.999Z</time>
      </trkpt>
      <trkpt lat="48.84359" lon="2.36424">
        <ele>90.46</ele>
        <time>2020-03-15T13:50:51.999Z</time>
      </trkpt>
      <trkpt lat="48.84355" lon="2.36424">
        <ele>90.42</ele>
        <time>2020-03-15T13:50:52.999Z</time>
      </trkpt>
      <trkpt lat="48.84351" lon="2.36423">
        <ele>90.39</ele>
        <time>2020-03-15T13:50:53.999Z</time>
      </trkpt>
      <trkpt lat="48.84347" lon="2.3642">
        <ele>90.36</ele>
        <time>2020-03-15T13:50:54.999Z</time>
      </trkpt>
      <trkpt lat="48.84344" lon="2.36419">
        <ele>90.34</ele>
        <time>2020-03-15T13:50:55.999Z</time>
      </trkpt>
      <trkpt lat="48.8434" lon="2.36417">
        <ele>90.32</ele>
        <time>2020-03-15T13:50:56.999Z</time>
      </trkpt>
      <trkpt lat="48.84335" lon="2.36414">
        <ele>90.3</ele>
        <time>2020-03-15T13:50:57.999Z</time>
      </trkpt>
      <trkpt lat="48.84332" lon="2.36412">
        <ele>90.29</ele>
        <time>2020-03-15T13:50:58.999Z</time>
      </trkpt>
      <trkpt lat="48.84328" lon="2.36409">
        <ele>90.29</ele>
        <time>2020-03-15T13:50:59.999Z</time>
      </trkpt>
      <trkpt lat="48.84325" lon="2.36407">
        <ele>90.29</ele>
        <time>2020-03-15T13:51:00.999Z</time>
      </trkpt>
      <trkpt lat="48.84323" lon="2.36404">
        <ele>90.29</ele>
        <time>2020-03-15T13:51:01.999Z</time>
      </trkpt>
      <trkpt lat="48.84324" lon="2.364">
        <ele>90.29</ele>
        <time>2020-03-15T13:51:02.999Z</time>
      </trkpt>
      <trkpt lat="48.84323" lon="2.36396">
        <ele>90.29</ele>
        <time>2020-03-15T13:51:03.999Z</time>
      </trkpt>
      <trkpt lat="48.84322" lon="2.36391">
        <ele>90.29</ele>
        <time>2020-03-15T13:51:04.999Z</time>
      </trkpt>
      <trkpt lat="48.84321" lon="2.36386">
        <ele>90.29</ele>
        <time>2020-03-15T13:51:05.999Z</time>
      </trkpt>
      <trkpt lat="48.8432" lon="2.36379">
        <ele>90.29</ele>
        <time>2020-03-15T13:51:06.999Z</time>
      </trkpt>
      <trkpt lat="48.84319" lon="2.36373">
        <ele>90.3</ele>
        <time>2020-03-15T13:51:07.999Z</time>
      </trkpt>
      <trkpt lat="48.84319" lon="2.36367">
        <ele>90.3</ele>
        <time>2020-03-15T13:51:08.999Z</time>
      </trkpt>
      <trkpt lat="48.84316" lon="2.36361">
        <ele>90.3</ele>
        <time>2020-03-15T13:51:09.999Z</time>
      </trkpt>
      <trkpt lat="48.84315" lon="2.36354">
        <ele>90.31</ele>
        <time>2020-03-15T13:51:10.999Z</time>
      </trkpt>
      <trkpt lat="48.84313" lon="2.36348">
        <ele>90.31</ele>
        <time>2020-03-15T13:51:11.999Z</time>
      </trkpt>
      <trkpt lat="48.84312" lon="2.36343">
        <ele>90.31</ele>
        <time>2020-03-15T13:51:12.999Z</time>
      </trkpt>
      <trkpt lat="48.84311" lon="2.36337">
        <ele>90.32</ele>
        <time>2020-03-15T13:51:13.999Z</time>
      </trkpt>
      <trkpt lat="48.84309" lon="2.36333">
        <ele>90.32</ele>
        <time>2020-03-15T13:51:14.999Z</time>
      </trkpt>
      <trkpt lat="48.84307" lon="2.36324">
        <ele>90.33</ele>
        <time>2020-03-15T13:51:15.999Z</time>
      </trkpt>
      <trkpt lat="48.84305" lon="2.36317">
        <ele>90.33</ele>
        <time>2020-03-15T13:51:16.999Z</time>
      </trkpt>
      <trkpt lat="48.84305" lon="2.36312">
        <ele>90.38</ele>
        <time>2020-03-15T13:51:17.999Z</time>
      </trkpt>
      <trkpt lat="48.84305" lon="2.36306">
        <ele>90.38</ele>
        <time>2020-03-15T13:51:18.999Z</time>
      </trkpt>
      <trkpt lat="48.84305" lon="2.36301">
        <ele>90.42</ele>
        <time>2020-03-15T13:51:19.999Z</time>
      </trkpt>
      <trkpt lat="48.84302" lon="2.36293">
        <ele>90.45</ele>
        <time>2020-03-15T13:51:20.999Z</time>
      </trkpt>
      <trkpt lat="48.84299" lon="2.36287">
        <ele>90.47</ele>
        <time>2020-03-15T13:51:21.999Z</time>
      </trkpt>
      <trkpt lat="48.84297" lon="2.36279">
        <ele>90.49</ele>
        <time>2020-03-15T13:51:22.999Z</time>
      </trkpt>
      <trkpt lat="48.84295" lon="2.36272">
        <ele>90.51</ele>
        <time>2020-03-15T13:51:23.999Z</time>
      </trkpt>
      <trkpt lat="48.84293" lon="2.36264">
        <ele>90.53</ele>
        <time>2020-03-15T13:51:24.999Z</time>
      </trkpt>
      <trkpt lat="48.84292" lon="2.36258">
        <ele>90.55</ele>
        <time>2020-03-15T13:51:25.999Z</time>
      </trkpt>
      <trkpt lat="48.84291" lon="2.36251">
        <ele>90.57</ele>
        <time>2020-03-15T13:51:26.999Z</time>
      </trkpt>
      <trkpt lat="48.8429" lon="2.36243">
        <ele>90.59</ele>
        <time>2020-03-15T13:51:27.999Z</time>
      </trkpt>
      <trkpt lat="48.84288" lon="2.36237">
        <ele>90.6</ele>
        <time>2020-03-15T13:51:28.999Z</time>
      </trkpt>
      <trkpt lat="48.84286" lon="2.3623">
        <ele>90.61</ele>
        <time>2020-03-15T13:51:29.999Z</time>
      </trkpt>
      <trkpt lat="48.84284" lon="2.36223">
        <ele>90.62</ele>
        <time>2020-03-15T13:51:30.999Z</time>
      </trkpt>
      <trkpt lat="48.84282" lon="2.36217">
        <ele>90.64</ele>
        <time>2020-03-15T13:51:31.999Z</time>
      </trkpt>
      <trkpt lat="48.84281" lon="2.3621">
        <ele>90.66</ele>
        <time>2020-03-15T13:51:32.999Z</time>
      </trkpt>
      <trkpt lat="48.84278" lon="2.36205">
        <ele>90.67</ele>
        <time>2020-03-15T13:51:33.999Z</time>
      </trkpt>
      <trkpt lat="48.84276" lon="2.362">
        <ele>90.69</ele>
        <time>2020-03-15T13:51:34.999Z</time>
      </trkpt>
      <trkpt lat="48.84274" lon="2.36193">
        <ele>90.69</ele>
        <time>2020-03-15T13:51:35.999Z</time>
      </trkpt>
      <trkpt lat="48.84272" lon="2.36186">
        <ele>90.7</ele>
        <time>2020-03-15T13:51:36.999Z</time>
      </trkpt>
      <trkpt lat="48.8427" lon="2.3618">
        <ele>90.7</ele>
        <time>2020-03-15T13:51:37.999Z</time>
      </trkpt>
      <trkpt lat="48.84267" lon="2.36173">
        <ele>90.71</ele>
        <time>2020-03-15T13:51:38.999Z</time>
      </trkpt>
      <trkpt lat="48.84265" lon="2.36166">
        <ele>90.71</ele>
        <time>2020-03-15T13:51:39.999Z</time>
      </trkpt>
      <trkpt lat="48.84262" lon="2.36159">
        <ele>90.73</ele>
        <time>2020-03-15T13:51:40.999Z</time>
      </trkpt>
      <trkpt lat="48.8426" lon="2.36151">
        <ele>90.75</ele>
        <time>2020-03-15T13:51:41.999Z</time>
      </trkpt>
      <trkpt lat="48.84258" lon="2.36144">
        <ele>90.78</ele>
        <time>2020-03-15T13:51:42.999Z</time>
      </trkpt>
      <trkpt lat="48.84257" lon="2.36137">
        <ele>90.8</ele>
        <time>2020-03-15T13:51:43.999Z</time>
      </trkpt>
      <trkpt lat="48.84256" lon="2.3613">
        <ele>90.83</ele>
        <time>2020-03-15T13:51:44.999Z</time>
      </trkpt>
      <trkpt lat="48.84254" lon="2.36123">
        <ele>90.85</ele>
        <time>2020-03-15T13:51:45.999Z</time>
      </trkpt>
      <trkpt lat="48.84252" lon="2.36115">
        <ele>90.87</ele>
        <time>2020-03-15T13:51:46.999Z</time>
      </trkpt>
      <trkpt lat="48.8425" lon="2.36108">
        <ele>90.89</ele>
        <time>2020-03-15T13:51:47.999Z</time>
      </trkpt>
      <trkpt lat="48.84248" lon="2.36101">
        <ele>90.91</ele>
        <time>2020-03-15T13:51:48.999Z</time>
      </trkpt>
      <trkpt lat="48.84247" lon="2.36095">
        <ele>90.92</ele>
        <time>2020-03-15T13:51:49.999Z</time>
      </trkpt>
      <trkpt lat="48.84246" lon="2.36087">
        <ele>90.93</ele>
        <time>2020-03-15T13:51:50.999Z</time>
      </trkpt>
      <trkpt lat="48.84244" lon="2.36081">
        <ele>90.94</ele>
        <time>2020-03-15T13:51:51.999Z</time>
      </trkpt>
      <trkpt lat="48.84242" lon="2.36074">
        <ele>90.95</ele>
        <time>2020-03-15T13:51:52.999Z</time>
      </trkpt>
      <trkpt lat="48.8424" lon="2.36067">
        <ele>90.96</ele>
        <time>2020-03-15T13:51:53.999Z</time>
      </trkpt>
      <trkpt lat="48.84239" lon="2.36061">
        <ele>90.97</ele>
        <time>2020-03-15T13:51:54.999Z</time>
      </trkpt>
      <trkpt lat="48.84237" lon="2.36054">
        <ele>90.98</ele>
        <time>2020-03-15T13:51:55.999Z</time>
      </trkpt>
      <trkpt lat="48.84235" lon="2.36047">
        <ele>90.99</ele>
        <time>2020-03-15T13:51:56.999Z</time>
      </trkpt>
      <trkpt lat="48.84234" lon="2.36041">
        <ele>90.99</ele>
        <time>2020-03-15T13:51:57.999Z</time>
      </trkpt>
      <trkpt lat="48.84232" lon="2.36034">
        <ele>91</ele>
        <time>2020-03-15T13:51:58.999Z</time>
      </trkpt>
      <trkpt lat="48.8423" lon="2.36028">
        <ele>91</ele>
        <time>2020-03-15T13:51:59.999Z</time>
      </trkpt>
      <trkpt lat="48.84229" lon="2.36021">
        <ele>91</ele>
        <time>2020-03-15T13:52:00.999Z</time>
      </trkpt>
      <trkpt lat="48.84228" lon="2.36014">
        <ele>91</ele>
        <time>2020-03-15T13:52:01.999Z</time>
      </trkpt>
      <trkpt lat="48.84226" lon="2.36008">
        <ele>91</ele>
        <time>2020-03-15T13:52:02.999Z</time>
      </trkpt>
      <trkpt lat="48.84224" lon="2.36001">
        <ele>90.99</ele>
        <time>2020-03-15T13:52:03.999Z</time>
      </trkpt>
      <trkpt lat="48.84222" lon="2.35995">
        <ele>90.99</ele>
        <time>2020-03-15T13:52:04.999Z</time>
      </trkpt>
      <trkpt lat="48.8422" lon="2.35988">
        <ele>90.98</ele>
        <time>2020-03-15T13:52:05.999Z</time>
      </trkpt>
      <trkpt lat="48.84218" lon="2.35981">
        <ele>90.98</ele>
        <time>2020-03-15T13:52:06.999Z</time>
      </trkpt>
      <trkpt lat="48.84216" lon="2.35974">
        <ele>90.98</ele>
        <time>2020-03-15T13:52:07.999Z</time>
      </trkpt>
      <trkpt lat="48.84214" lon="2.35967">
        <ele>90.97</ele>
        <time>2020-03-15T13:52:08.999Z</time>
      </trkpt>
      <trkpt lat="48.84212" lon="2.35961">
        <ele>90.97</ele>
        <time>2020-03-15T13:52:09.999Z</time>
      </trkpt>
      <trkpt lat="48.8421" lon="2.35955">
        <ele>90.97</ele>
        <time>2020-03-15T13:52:10.999Z</time>
      </trkpt>
      <trkpt lat="48.84208" lon="2.35949">
        <ele>90.98</ele>
        <time>2020-03-15T13:52:11.999Z</time>
      </trkpt>
      <trkpt lat="48.84206" lon="2.35943">
        <ele>90.99</ele>
        <time>2020-03-15T13:52:12.999Z</time>
      </trkpt>
      <trkpt lat="48.84204" lon="2.35938">
        <ele>90.99</ele>
        <time>2020-03-15T13:52:13.999Z</time>
      </trkpt>
      <trkpt lat="48.84202" lon="2.35932">
        <ele>90.98</ele>
        <time>2020-03-15T13:52:14.999Z</time>
      </trkpt>
      <trkpt lat="48.842" lon="2.35926">
        <ele>90.97</ele>
        <time>2020-03-15T13:52:15.999Z</time>
      </trkpt>
      <trkpt lat="48.84198" lon="2.35919">
        <ele>90.96</ele>
        <time>2020-03-15T13:52:16.999Z</time>
      </trkpt>
      <trkpt lat="48.84197" lon="2.35913">
        <ele>90.94</ele>
        <time>2020-03-15T13:52:17.999Z</time>
      </trkpt>
      <trkpt lat="48.84195" lon="2.35907">
        <ele>90.93</ele>
        <time>2020-03-15T13:52:18.999Z</time>
      </trkpt>
      <trkpt lat="48.84194" lon="2.359">
        <ele>90.92</ele>
        <time>2020-03-15T13:52:19.999Z</time>
      </trkpt>
      <trkpt lat="48.84193" lon="2.35893">
        <ele>90.9</ele>
        <time>2020-03-15T13:52:20.999Z</time>
      </trkpt>
      <trkpt lat="48.84192" lon="2.35887">
        <ele>90.89</ele>
        <time>2020-03-15T13:52:21.999Z</time>
      </trkpt>
      <trkpt lat="48.8419" lon="2.3588">
        <ele>90.89</ele>
        <time>2020-03-15T13:52:22.999Z</time>
      </trkpt>
      <trkpt lat="48.84188" lon="2.35873">
        <ele>90.88</ele>
        <time>2020-03-15T13:52:23.999Z</time>
      </trkpt>
      <trkpt lat="48.84187" lon="2.35867">
        <ele>90.88</ele>
        <time>2020-03-15T13:52:24.999Z</time>
      </trkpt>
      <trkpt lat="48.84185" lon="2.3586">
        <ele>90.89</ele>
        <time>2020-03-15T13:52:25.999Z</time>
      </trkpt>
      <trkpt lat="48.84183" lon="2.35853">
        <ele>90.89</ele>
        <time>2020-03-15T13:52:26.999Z</time>
      </trkpt>
      <trkpt lat="48.84181" lon="2.35848">
        <ele>90.89</ele>
        <time>2020-03-15T13:52:27.999Z</time>
      </trkpt>
      <trkpt lat="48.8418" lon="2.35841">
        <ele>90.88</ele>
        <time>2020-03-15T13:52:28.999Z</time>
      </trkpt>
      <trkpt lat="48.84179" lon="2.35835">
        <ele>90.87</ele>
        <time>2020-03-15T13:52:29.999Z</time>
      </trkpt>
      <trkpt lat="48.84178" lon="2.35828">
        <ele>90.87</ele>
        <time>2020-03-15T13:52:30.999Z</time>
      </trkpt>
      <trkpt lat="48.84176" lon="2.35822">
        <ele>90.87</ele>
        <time>2020-03-15T13:52:31.999Z</time>
      </trkpt>
      <trkpt lat="48.84175" lon="2.35815">
        <ele>90.87</ele>
        <time>2020-03-15T13:52:32.999Z</time>
      </trkpt>
      <trkpt lat="48.84173" lon="2.35808">
        <ele>90.87</ele>
        <time>2020-03-15T13:52:33.999Z</time>
      </trkpt>
      <trkpt lat="48.84171" lon="2.35801">
        <ele>90.87</ele>
        <time>2020-03-15T13:52:34.999Z</time>
      </trkpt>
      <trkpt lat="48.8417" lon="2.35793">
        <ele>90.87</ele>
        <time>2020-03-15T13:52:35.999Z</time>
      </trkpt>
      <trkpt lat="48.84169" lon="2.35787">
        <ele>90.88</ele>
        <time>2020-03-15T13:52:36.999Z</time>
      </trkpt>
      <trkpt lat="48.84167" lon="2.35781">
        <ele>90.88</ele>
        <time>2020-03-15T13:52:37.999Z</time>
      </trkpt>
      <trkpt lat="48.84166" lon="2.35774">
        <ele>90.89</ele>
        <time>2020-03-15T13:52:38.999Z</time>
      </trkpt>
      <trkpt lat="48.84163" lon="2.35768">
        <ele>90.9</ele>
        <time>2020-03-15T13:52:39.999Z</time>
      </trkpt>
      <trkpt lat="48.84161" lon="2.35762">
        <ele>90.9</ele>
        <time>2020-03-15T13:52:40.999Z</time>
      </trkpt>
      <trkpt lat="48.84159" lon="2.35755">
        <ele>90.9</ele>
        <time>2020-03-15T13:52:41.999Z</time>
      </trkpt>
      <trkpt lat="48.84157" lon="2.35749">
        <ele>90.9</ele>
        <time>2020-03-15T13:52:42.999Z</time>
      </trkpt>
      <trkpt lat="48.84155" lon="2.35742">
        <ele>90.89</ele>
        <time>2020-03-15T13:52:43.999Z</time>
      </trkpt>
      <trkpt lat="48.84153" lon="2.35736">
        <ele>90.89</ele>
        <time>2020-03-15T13:52:44.999Z</time>
      </trkpt>
      <trkpt lat="48.84152" lon="2.35729">
        <ele>90.89</ele>
        <time>2020-03-15T13:52:45.999Z</time>
      </trkpt>
      <trkpt lat="48.8415" lon="2.35722">
        <ele>90.89</ele>
        <time>2020-03-15T13:52:46.999Z</time>
      </trkpt>
      <trkpt lat="48.84148" lon="2.35715">
        <ele>90.89</ele>
        <time>2020-03-15T13:52:47.999Z</time>
      </trkpt>
      <trkpt lat="48.84146" lon="2.35708">
        <ele>90.89</ele>
        <time>2020-03-15T13:52:48.999Z</time>
      </trkpt>
      <trkpt lat="48.84145" lon="2.35701">
        <ele>90.9</ele>
        <time>2020-03-15T13:52:49.999Z</time>
      </trkpt>
      <trkpt lat="48.84143" lon="2.35694">
        <ele>90.9</ele>
        <time>2020-03-15T13:52:50.999Z</time>
      </trkpt>
      <trkpt lat="48.84141" lon="2.35689">
        <ele>90.9</ele>
        <time>2020-03-15T13:52:51.999Z</time>
      </trkpt>
      <trkpt lat="48.84139" lon="2.35683">
        <ele>90.91</ele>
        <time>2020-03-15T13:52:52.999Z</time>
      </trkpt>
      <trkpt lat="48.84137" lon="2.35677">
        <ele>90.92</ele>
        <time>2020-03-15T13:52:53.999Z</time>
      </trkpt>
      <trkpt lat="48.84135" lon="2.35671">
        <ele>90.92</ele>
        <time>2020-03-15T13:52:54.999Z</time>
      </trkpt>
      <trkpt lat="48.84134" lon="2.35665">
        <ele>90.92</ele>
        <time>2020-03-15T13:52:55.999Z</time>
      </trkpt>
      <trkpt lat="48.84132" lon="2.35659">
        <ele>90.92</ele>
        <time>2020-03-15T13:52:56.999Z</time>
      </trkpt>
      <trkpt lat="48.84131" lon="2.35654">
        <ele>90.93</ele>
        <time>2020-03-15T13:52:57.999Z</time>
      </trkpt>
      <trkpt lat="48.84129" lon="2.35648">
        <ele>90.93</ele>
        <time>2020-03-15T13:52:58.999Z</time>
      </trkpt>
      <trkpt lat="48.84127" lon="2.35643">
        <ele>90.93</ele>
        <time>2020-03-15T13:52:59.999Z</time>
      </trkpt>
      <trkpt lat="48.84126" lon="2.35638">
        <ele>90.93</ele>
        <time>2020-03-15T13:53:00.999Z</time>
      </trkpt>
      <trkpt lat="48.84124" lon="2.35633">
        <ele>90.93</ele>
        <time>2020-03-15T13:53:01.999Z</time>
      </trkpt>
      <trkpt lat="48.84123" lon="2.35628">
        <ele>90.93</ele>
        <time>2020-03-15T13:53:02.999Z</time>
      </trkpt>
      <trkpt lat="48.84121" lon="2.35623">
        <ele>90.94</ele>
        <time>2020-03-15T13:53:03.999Z</time>
      </trkpt>
      <trkpt lat="48.8412" lon="2.35619">
        <ele>90.94</ele>
        <time>2020-03-15T13:53:04.999Z</time>
      </trkpt>
      <trkpt lat="48.8412" lon="2.35615">
        <ele>90.94</ele>
        <time>2020-03-15T13:53:05.999Z</time>
      </trkpt>
      <trkpt lat="48.8412" lon="2.3561">
        <ele>90.94</ele>
        <time>2020-03-15T13:53:06.999Z</time>
      </trkpt>
      <trkpt lat="48.84119" lon="2.35607">
        <ele>90.94</ele>
        <time>2020-03-15T13:53:07.999Z</time>
      </trkpt>
      <trkpt lat="48.8412" lon="2.35605">
        <ele>90.95</ele>
        <time>2020-03-15T13:53:08.999Z</time>
      </trkpt>
      <trkpt lat="48.84121" lon="2.35604">
        <ele>90.95</ele>
        <time>2020-03-15T13:53:09.999Z</time>
      </trkpt>
      <trkpt lat="48.84122" lon="2.35605">
        <ele>90.95</ele>
        <time>2020-03-15T13:53:12.999Z</time>
      </trkpt>
      <trkpt lat="48.84123" lon="2.35606">
        <ele>90.95</ele>
        <time>2020-03-15T13:53:16.999Z</time>
      </trkpt>
      <trkpt lat="48.84124" lon="2.35605">
        <ele>90.94</ele>
        <time>2020-03-15T13:53:18.999Z</time>
      </trkpt>
      <trkpt lat="48.84124" lon="2.35607">
        <ele>90.93</ele>
        <time>2020-03-15T13:53:25.999Z</time>
      </trkpt>
      <trkpt lat="48.84123" lon="2.35607">
        <ele>90.91</ele>
        <time>2020-03-15T13:53:46.999Z</time>
      </trkpt>
      <trkpt lat="48.84123" lon="2.35605">
        <ele>90.9</ele>
        <time>2020-03-15T13:54:01.999Z</time>
      </trkpt>
      <trkpt lat="48.84123" lon="2.35604">
        <ele>90.89</ele>
        <time>2020-03-15T13:54:05.999Z</time>
      </trkpt>
      <trkpt lat="48.84122" lon="2.35602">
        <ele>90.89</ele>
        <time>2020-03-15T13:54:08.999Z</time>
      </trkpt>
      <trkpt lat="48.84121" lon="2.35601">
        <ele>90.89</ele>
        <time>2020-03-15T13:54:10.999Z</time>
      </trkpt>
      <trkpt lat="48.84121" lon="2.35599">
        <ele>90.9</ele>
        <time>2020-03-15T13:54:14.999Z</time>
      </trkpt>
      <trkpt lat="48.84121" lon="2.35599">
        <ele>90.91</ele>
        <time>2020-03-15T13:54:15.999Z</time>
      </trkpt>
      <trkpt lat="48.84124" lon="2.35598">
        <ele>90.92</ele>
        <time>2020-03-15T13:54:16.999Z</time>
      </trkpt>
      <trkpt lat="48.84126" lon="2.35597">
        <ele>90.92</ele>
        <time>2020-03-15T13:54:17.999Z</time>
      </trkpt>
      <trkpt lat="48.84128" lon="2.35596">
        <ele>90.93</ele>
        <time>2020-03-15T13:54:18.999Z</time>
      </trkpt>
      <trkpt lat="48.8413" lon="2.35595">
        <ele>90.93</ele>
        <time>2020-03-15T13:54:19.999Z</time>
      </trkpt>
      <trkpt lat="48.84133" lon="2.35593">
        <ele>90.94</ele>
        <time>2020-03-15T13:54:20.999Z</time>
      </trkpt>
      <trkpt lat="48.84136" lon="2.35592">
        <ele>90.94</ele>
        <time>2020-03-15T13:54:21.999Z</time>
      </trkpt>
      <trkpt lat="48.8414" lon="2.3559">
        <ele>90.95</ele>
        <time>2020-03-15T13:54:22.999Z</time>
      </trkpt>
      <trkpt lat="48.84143" lon="2.35589">
        <ele>90.95</ele>
        <time>2020-03-15T13:54:23.999Z</time>
      </trkpt>
      <trkpt lat="48.84146" lon="2.35588">
        <ele>90.96</ele>
        <time>2020-03-15T13:54:24.999Z</time>
      </trkpt>
      <trkpt lat="48.84149" lon="2.35586">
        <ele>90.96</ele>
        <time>2020-03-15T13:54:25.999Z</time>
      </trkpt>
      <trkpt lat="48.84152" lon="2.35584">
        <ele>90.96</ele>
        <time>2020-03-15T13:54:26.999Z</time>
      </trkpt>
      <trkpt lat="48.84155" lon="2.35583">
        <ele>90.96</ele>
        <time>2020-03-15T13:54:27.999Z</time>
      </trkpt>
      <trkpt lat="48.84159" lon="2.35582">
        <ele>90.96</ele>
        <time>2020-03-15T13:54:28.999Z</time>
      </trkpt>
      <trkpt lat="48.84162" lon="2.35581">
        <ele>90.96</ele>
        <time>2020-03-15T13:54:29.999Z</time>
      </trkpt>
      <trkpt lat="48.84165" lon="2.3558">
        <ele>90.97</ele>
        <time>2020-03-15T13:54:30.999Z</time>
      </trkpt>
      <trkpt lat="48.84168" lon="2.35579">
        <ele>90.97</ele>
        <time>2020-03-15T13:54:31.999Z</time>
      </trkpt>
      <trkpt lat="48.84171" lon="2.35578">
        <ele>90.97</ele>
        <time>2020-03-15T13:54:32.999Z</time>
      </trkpt>
      <trkpt lat="48.84174" lon="2.35576">
        <ele>90.97</ele>
        <time>2020-03-15T13:54:33.999Z</time>
      </trkpt>
      <trkpt lat="48.84177" lon="2.35575">
        <ele>90.97</ele>
        <time>2020-03-15T13:54:34.999Z</time>
      </trkpt>
      <trkpt lat="48.8418" lon="2.35575">
        <ele>90.97</ele>
        <time>2020-03-15T13:54:35.999Z</time>
      </trkpt>
      <trkpt lat="48.84183" lon="2.35574">
        <ele>90.97</ele>
        <time>2020-03-15T13:54:36.999Z</time>
      </trkpt>
      <trkpt lat="48.84187" lon="2.35572">
        <ele>90.97</ele>
        <time>2020-03-15T13:54:37.999Z</time>
      </trkpt>
      <trkpt lat="48.84189" lon="2.35571">
        <ele>90.97</ele>
        <time>2020-03-15T13:54:38.999Z</time>
      </trkpt>
      <trkpt lat="48.84192" lon="2.3557">
        <ele>90.97</ele>
        <time>2020-03-15T13:54:39.999Z</time>
      </trkpt>
      <trkpt lat="48.84195" lon="2.3557">
        <ele>90.97</ele>
        <time>2020-03-15T13:54:40.999Z</time>
      </trkpt>
      <trkpt lat="48.84198" lon="2.35569">
        <ele>90.97</ele>
        <time>2020-03-15T13:54:41.999Z</time>
      </trkpt>
      <trkpt lat="48.842" lon="2.35568">
        <ele>90.97</ele>
        <time>2020-03-15T13:54:42.999Z</time>
      </trkpt>
      <trkpt lat="48.84203" lon="2.35568">
        <ele>90.97</ele>
        <time>2020-03-15T13:54:43.999Z</time>
      </trkpt>
      <trkpt lat="48.84205" lon="2.35565">
        <ele>90.97</ele>
        <time>2020-03-15T13:54:44.999Z</time>
      </trkpt>
      <trkpt lat="48.84208" lon="2.35564">
        <ele>90.97</ele>
        <time>2020-03-15T13:54:45.999Z</time>
      </trkpt>
      <trkpt lat="48.84211" lon="2.35562">
        <ele>90.96</ele>
        <time>2020-03-15T13:54:46.999Z</time>
      </trkpt>
      <trkpt lat="48.84214" lon="2.35561">
        <ele>90.96</ele>
        <time>2020-03-15T13:54:47.999Z</time>
      </trkpt>
      <trkpt lat="48.84217" lon="2.3556">
        <ele>90.96</ele>
        <time>2020-03-15T13:54:48.999Z</time>
      </trkpt>
      <trkpt lat="48.84219" lon="2.35559">
        <ele>90.96</ele>
        <time>2020-03-15T13:54:49.999Z</time>
      </trkpt>
      <trkpt lat="48.84222" lon="2.35558">
        <ele>90.96</ele>
        <time>2020-03-15T13:54:50.999Z</time>
      </trkpt>
      <trkpt lat="48.84224" lon="2.35557">
        <ele>90.96</ele>
        <time>2020-03-15T13:54:51.999Z</time>
      </trkpt>
      <trkpt lat="48.84227" lon="2.35556">
        <ele>90.96</ele>
        <time>2020-03-15T13:54:52.999Z</time>
      </trkpt>
      <trkpt lat="48.8423" lon="2.35554">
        <ele>90.96</ele>
        <time>2020-03-15T13:54:53.999Z</time>
      </trkpt>
      <trkpt lat="48.84234" lon="2.35553">
        <ele>90.96</ele>
        <time>2020-03-15T13:54:54.999Z</time>
      </trkpt>
      <trkpt lat="48.84237" lon="2.35552">
        <ele>90.96</ele>
        <time>2020-03-15T13:54:55.999Z</time>
      </trkpt>
      <trkpt lat="48.84239" lon="2.3555">
        <ele>90.96</ele>
        <time>2020-03-15T13:54:56.999Z</time>
      </trkpt>
      <trkpt lat="48.84242" lon="2.35548">
        <ele>90.97</ele>
        <time>2020-03-15T13:54:57.999Z</time>
      </trkpt>
      <trkpt lat="48.84244" lon="2.35548">
        <ele>90.97</ele>
        <time>2020-03-15T13:54:58.999Z</time>
      </trkpt>
      <trkpt lat="48.84247" lon="2.35547">
        <ele>90.98</ele>
        <time>2020-03-15T13:54:59.999Z</time>
      </trkpt>
      <trkpt lat="48.84249" lon="2.35546">
        <ele>90.98</ele>
        <time>2020-03-15T13:55:00.999Z</time>
      </trkpt>
      <trkpt lat="48.84252" lon="2.35545">
        <ele>90.98</ele>
        <time>2020-03-15T13:55:01.999Z</time>
      </trkpt>
      <trkpt lat="48.84255" lon="2.35545">
        <ele>90.99</ele>
        <time>2020-03-15T13:55:02.999Z</time>
      </trkpt>
      <trkpt lat="48.84257" lon="2.35544">
        <ele>90.99</ele>
        <time>2020-03-15T13:55:03.999Z</time>
      </trkpt>
      <trkpt lat="48.84259" lon="2.35544">
        <ele>91</ele>
        <time>2020-03-15T13:55:04.999Z</time>
      </trkpt>
      <trkpt lat="48.84261" lon="2.35543">
        <ele>91.01</ele>
        <time>2020-03-15T13:55:05.999Z</time>
      </trkpt>
      <trkpt lat="48.84264" lon="2.35542">
        <ele>91.01</ele>
        <time>2020-03-15T13:55:06.999Z</time>
      </trkpt>
      <trkpt lat="48.84267" lon="2.35542">
        <ele>91.02</ele>
        <time>2020-03-15T13:55:07.999Z</time>
      </trkpt>
      <trkpt lat="48.84268" lon="2.35541">
        <ele>91.02</ele>
        <time>2020-03-15T13:55:08.999Z</time>
      </trkpt>
      <trkpt lat="48.8427" lon="2.3554">
        <ele>91.03</ele>
        <time>2020-03-15T13:55:09.999Z</time>
      </trkpt>
      <trkpt lat="48.84274" lon="2.35539">
        <ele>91.03</ele>
        <time>2020-03-15T13:55:10.999Z</time>
      </trkpt>
      <trkpt lat="48.84276" lon="2.35538">
        <ele>91.04</ele>
        <time>2020-03-15T13:55:11.999Z</time>
      </trkpt>
      <trkpt lat="48.84279" lon="2.35537">
        <ele>91.05</ele>
        <time>2020-03-15T13:55:12.999Z</time>
      </trkpt>
      <trkpt lat="48.84283" lon="2.35538">
        <ele>91.06</ele>
        <time>2020-03-15T13:55:13.999Z</time>
      </trkpt>
      <trkpt lat="48.84286" lon="2.35537">
        <ele>91.06</ele>
        <time>2020-03-15T13:55:14.999Z</time>
      </trkpt>
      <trkpt lat="48.84289" lon="2.35535">
        <ele>91.07</ele>
        <time>2020-03-15T13:55:15.999Z</time>
      </trkpt>
      <trkpt lat="48.84292" lon="2.35533">
        <ele>91.08</ele>
        <time>2020-03-15T13:55:16.999Z</time>
      </trkpt>
      <trkpt lat="48.84294" lon="2.35532">
        <ele>91.09</ele>
        <time>2020-03-15T13:55:17.999Z</time>
      </trkpt>
      <trkpt lat="48.84297" lon="2.35532">
        <ele>91.1</ele>
        <time>2020-03-15T13:55:18.999Z</time>
      </trkpt>
      <trkpt lat="48.84299" lon="2.35531">
        <ele>91.1</ele>
        <time>2020-03-15T13:55:19.999Z</time>
      </trkpt>
      <trkpt lat="48.84302" lon="2.35528">
        <ele>91.11</ele>
        <time>2020-03-15T13:55:20.999Z</time>
      </trkpt>
      <trkpt lat="48.84308" lon="2.35525">
        <ele>91.13</ele>
        <time>2020-03-15T13:55:21.999Z</time>
      </trkpt>
      <trkpt lat="48.84314" lon="2.35519">
        <ele>91.14</ele>
        <time>2020-03-15T13:55:22.999Z</time>
      </trkpt>
      <trkpt lat="48.84318" lon="2.35518">
        <ele>91.15</ele>
        <time>2020-03-15T13:55:23.999Z</time>
      </trkpt>
      <trkpt lat="48.84321" lon="2.35515">
        <ele>91.16</ele>
        <time>2020-03-15T13:55:24.999Z</time>
      </trkpt>
      <trkpt lat="48.84328" lon="2.35511">
        <ele>91.18</ele>
        <time>2020-03-15T13:55:25.999Z</time>
      </trkpt>
      <trkpt lat="48.84331" lon="2.3551">
        <ele>91.19</ele>
        <time>2020-03-15T13:55:26.999Z</time>
      </trkpt>
      <trkpt lat="48.84334" lon="2.35508">
        <ele>91.2</ele>
        <time>2020-03-15T13:55:27.999Z</time>
      </trkpt>
      <trkpt lat="48.84337" lon="2.35506">
        <ele>91.22</ele>
        <time>2020-03-15T13:55:28.999Z</time>
      </trkpt>
      <trkpt lat="48.8434" lon="2.35504">
        <ele>91.23</ele>
        <time>2020-03-15T13:55:29.999Z</time>
      </trkpt>
      <trkpt lat="48.84344" lon="2.35501">
        <ele>91.24</ele>
        <time>2020-03-15T13:55:30.999Z</time>
      </trkpt>
      <trkpt lat="48.84347" lon="2.355">
        <ele>91.25</ele>
        <time>2020-03-15T13:55:31.999Z</time>
      </trkpt>
      <trkpt lat="48.8435" lon="2.355">
        <ele>91.27</ele>
        <time>2020-03-15T13:55:32.999Z</time>
      </trkpt>
      <trkpt lat="48.84351" lon="2.35499">
        <ele>91.28</ele>
        <time>2020-03-15T13:55:33.999Z</time>
      </trkpt>
      <trkpt lat="48.84353" lon="2.35498">
        <ele>91.29</ele>
        <time>2020-03-15T13:55:34.999Z</time>
      </trkpt>
      <trkpt lat="48.84354" lon="2.35497">
        <ele>91.3</ele>
        <time>2020-03-15T13:55:35.999Z</time>
      </trkpt>
      <trkpt lat="48.84357" lon="2.35496">
        <ele>91.32</ele>
        <time>2020-03-15T13:55:36.999Z</time>
      </trkpt>
      <trkpt lat="48.8436" lon="2.35495">
        <ele>91.33</ele>
        <time>2020-03-15T13:55:37.999Z</time>
      </trkpt>
      <trkpt lat="48.84364" lon="2.35495">
        <ele>91.34</ele>
        <time>2020-03-15T13:55:38.999Z</time>
      </trkpt>
      <trkpt lat="48.84369" lon="2.35493">
        <ele>91.36</ele>
        <time>2020-03-15T13:55:39.999Z</time>
      </trkpt>
      <trkpt lat="48.84372" lon="2.35493">
        <ele>91.37</ele>
        <time>2020-03-15T13:55:40.999Z</time>
      </trkpt>
      <trkpt lat="48.84375" lon="2.3549">
        <ele>91.52</ele>
        <time>2020-03-15T13:55:41.999Z</time>
      </trkpt>
      <trkpt lat="48.8438" lon="2.35489">
        <ele>91.64</ele>
        <time>2020-03-15T13:55:42.999Z</time>
      </trkpt>
      <trkpt lat="48.84386" lon="2.35489">
        <ele>91.74</ele>
        <time>2020-03-15T13:55:43.999Z</time>
      </trkpt>
      <trkpt lat="48.84389" lon="2.35487">
        <ele>91.83</ele>
        <time>2020-03-15T13:55:44.999Z</time>
      </trkpt>
      <trkpt lat="48.84394" lon="2.35487">
        <ele>91.9</ele>
        <time>2020-03-15T13:55:45.999Z</time>
      </trkpt>
      <trkpt lat="48.844" lon="2.35487">
        <ele>91.96</ele>
        <time>2020-03-15T13:55:46.999Z</time>
      </trkpt>
      <trkpt lat="48.84404" lon="2.35487">
        <ele>92.02</ele>
        <time>2020-03-15T13:55:47.999Z</time>
      </trkpt>
      <trkpt lat="48.84409" lon="2.35487">
        <ele>92.07</ele>
        <time>2020-03-15T13:55:48.999Z</time>
      </trkpt>
      <trkpt lat="48.84414" lon="2.35487">
        <ele>92.12</ele>
        <time>2020-03-15T13:55:49.999Z</time>
      </trkpt>
      <trkpt lat="48.84419" lon="2.35487">
        <ele>92.16</ele>
        <time>2020-03-15T13:55:50.999Z</time>
      </trkpt>
      <trkpt lat="48.84425" lon="2.35487">
        <ele>92.2</ele>
        <time>2020-03-15T13:55:51.999Z</time>
      </trkpt>
      <trkpt lat="48.84431" lon="2.35486">
        <ele>92.24</ele>
        <time>2020-03-15T13:55:52.999Z</time>
      </trkpt>
      <trkpt lat="48.84436" lon="2.35485">
        <ele>92.29</ele>
        <time>2020-03-15T13:55:53.999Z</time>
      </trkpt>
      <trkpt lat="48.84441" lon="2.35484">
        <ele>92.33</ele>
        <time>2020-03-15T13:55:54.999Z</time>
      </trkpt>
      <trkpt lat="48.84445" lon="2.35482">
        <ele>92.38</ele>
        <time>2020-03-15T13:55:55.999Z</time>
      </trkpt>
      <trkpt lat="48.84451" lon="2.35482">
        <ele>92.41</ele>
        <time>2020-03-15T13:55:56.999Z</time>
      </trkpt>
      <trkpt lat="48.84457" lon="2.3548">
        <ele>92.46</ele>
        <time>2020-03-15T13:55:57.999Z</time>
      </trkpt>
      <trkpt lat="48.84463" lon="2.3548">
        <ele>92.5</ele>
        <time>2020-03-15T13:55:58.999Z</time>
      </trkpt>
      <trkpt lat="48.8447" lon="2.35477">
        <ele>92.55</ele>
        <time>2020-03-15T13:55:59.999Z</time>
      </trkpt>
      <trkpt lat="48.84476" lon="2.35475">
        <ele>92.59</ele>
        <time>2020-03-15T13:56:00.999Z</time>
      </trkpt>
      <trkpt lat="48.84481" lon="2.35474">
        <ele>92.63</ele>
        <time>2020-03-15T13:56:01.999Z</time>
      </trkpt>
      <trkpt lat="48.84486" lon="2.35473">
        <ele>92.66</ele>
        <time>2020-03-15T13:56:02.999Z</time>
      </trkpt>
      <trkpt lat="48.84492" lon="2.35472">
        <ele>92.68</ele>
        <time>2020-03-15T13:56:03.999Z</time>
      </trkpt>
      <trkpt lat="48.84498" lon="2.35471">
        <ele>92.7</ele>
        <time>2020-03-15T13:56:04.999Z</time>
      </trkpt>
      <trkpt lat="48.84504" lon="2.3547">
        <ele>92.72</ele>
        <time>2020-03-15T13:56:05.999Z</time>
      </trkpt>
      <trkpt lat="48.84509" lon="2.35469">
        <ele>92.74</ele>
        <time>2020-03-15T13:56:06.999Z</time>
      </trkpt>
      <trkpt lat="48.84514" lon="2.35469">
        <ele>92.75</ele>
        <time>2020-03-15T13:56:07.999Z</time>
      </trkpt>
      <trkpt lat="48.84519" lon="2.35469">
        <ele>92.77</ele>
        <time>2020-03-15T13:56:08.999Z</time>
      </trkpt>
      <trkpt lat="48.84524" lon="2.35469">
        <ele>92.79</ele>
        <time>2020-03-15T13:56:09.999Z</time>
      </trkpt>
      <trkpt lat="48.8453" lon="2.35468">
        <ele>92.8</ele>
        <time>2020-03-15T13:56:10.999Z</time>
      </trkpt>
      <trkpt lat="48.84535" lon="2.35467">
        <ele>92.82</ele>
        <time>2020-03-15T13:56:11.999Z</time>
      </trkpt>
      <trkpt lat="48.8454" lon="2.35465">
        <ele>92.83</ele>
        <time>2020-03-15T13:56:12.999Z</time>
      </trkpt>
      <trkpt lat="48.84546" lon="2.35464">
        <ele>92.84</ele>
        <time>2020-03-15T13:56:13.999Z</time>
      </trkpt>
      <trkpt lat="48.84551" lon="2.35462">
        <ele>92.85</ele>
        <time>2020-03-15T13:56:14.999Z</time>
      </trkpt>
      <trkpt lat="48.84555" lon="2.35461">
        <ele>92.85</ele>
        <time>2020-03-15T13:56:15.999Z</time>
      </trkpt>
      <trkpt lat="48.8456" lon="2.35458">
        <ele>92.86</ele>
        <time>2020-03-15T13:56:16.999Z</time>
      </trkpt>
      <trkpt lat="48.84564" lon="2.35457">
        <ele>92.86</ele>
        <time>2020-03-15T13:56:17.999Z</time>
      </trkpt>
      <trkpt lat="48.84569" lon="2.35456">
        <ele>92.88</ele>
        <time>2020-03-15T13:56:18.999Z</time>
      </trkpt>
      <trkpt lat="48.84575" lon="2.35454">
        <ele>92.9</ele>
        <time>2020-03-15T13:56:19.999Z</time>
      </trkpt>
      <trkpt lat="48.8458" lon="2.35451">
        <ele>92.92</ele>
        <time>2020-03-15T13:56:20.999Z</time>
      </trkpt>
      <trkpt lat="48.84586" lon="2.3545">
        <ele>92.94</ele>
        <time>2020-03-15T13:56:21.999Z</time>
      </trkpt>
      <trkpt lat="48.84591" lon="2.3545">
        <ele>92.94</ele>
        <time>2020-03-15T13:56:22.999Z</time>
      </trkpt>
      <trkpt lat="48.84595" lon="2.35449">
        <ele>92.96</ele>
        <time>2020-03-15T13:56:23.999Z</time>
      </trkpt>
      <trkpt lat="48.846" lon="2.35448">
        <ele>92.98</ele>
        <time>2020-03-15T13:56:24.999Z</time>
      </trkpt>
      <trkpt lat="48.84606" lon="2.35447">
        <ele>92.99</ele>
        <time>2020-03-15T13:56:25.999Z</time>
      </trkpt>
      <trkpt lat="48.84612" lon="2.35445">
        <ele>93</ele>
        <time>2020-03-15T13:56:26.999Z</time>
      </trkpt>
      <trkpt lat="48.84618" lon="2.35444">
        <ele>93.01</ele>
        <time>2020-03-15T13:56:27.999Z</time>
      </trkpt>
      <trkpt lat="48.84624" lon="2.35444">
        <ele>93.01</ele>
        <time>2020-03-15T13:56:28.999Z</time>
      </trkpt>
      <trkpt lat="48.8463" lon="2.35443">
        <ele>93.01</ele>
        <time>2020-03-15T13:56:29.999Z</time>
      </trkpt>
      <trkpt lat="48.84636" lon="2.35442">
        <ele>93.02</ele>
        <time>2020-03-15T13:56:30.999Z</time>
      </trkpt>
      <trkpt lat="48.84643" lon="2.35441">
        <ele>93.03</ele>
        <time>2020-03-15T13:56:31.999Z</time>
      </trkpt>
      <trkpt lat="48.84649" lon="2.35441">
        <ele>93.03</ele>
        <time>2020-03-15T13:56:32.999Z</time>
      </trkpt>
      <trkpt lat="48.84655" lon="2.35441">
        <ele>93.04</ele>
        <time>2020-03-15T13:56:33.999Z</time>
      </trkpt>
      <trkpt lat="48.84661" lon="2.35439">
        <ele>93.04</ele>
        <time>2020-03-15T13:56:34.999Z</time>
      </trkpt>
      <trkpt lat="48.84666" lon="2.35436">
        <ele>93.04</ele>
        <time>2020-03-15T13:56:35.999Z</time>
      </trkpt>
      <trkpt lat="48.84671" lon="2.35432">
        <ele>93.04</ele>
        <time>2020-03-15T13:56:36.999Z</time>
      </trkpt>
      <trkpt lat="48.84675" lon="2.35428">
        <ele>93.04</ele>
        <time>2020-03-15T13:56:37.999Z</time>
      </trkpt>
      <trkpt lat="48.84679" lon="2.35421">
        <ele>93.03</ele>
        <time>2020-03-15T13:56:38.999Z</time>
      </trkpt>
      <trkpt lat="48.84682" lon="2.35414">
        <ele>93.03</ele>
        <time>2020-03-15T13:56:39.999Z</time>
      </trkpt>
      <trkpt lat="48.84686" lon="2.35409">
        <ele>93.03</ele>
        <time>2020-03-15T13:56:40.999Z</time>
      </trkpt>
      <trkpt lat="48.8469" lon="2.35404">
        <ele>93.03</ele>
        <time>2020-03-15T13:56:41.999Z</time>
      </trkpt>
      <trkpt lat="48.84693" lon="2.35397">
        <ele>93.03</ele>
        <time>2020-03-15T13:56:42.999Z</time>
      </trkpt>
      <trkpt lat="48.84696" lon="2.35391">
        <ele>93.03</ele>
        <time>2020-03-15T13:56:43.999Z</time>
      </trkpt>
      <trkpt lat="48.84699" lon="2.35384">
        <ele>93.03</ele>
        <time>2020-03-15T13:56:44.999Z</time>
      </trkpt>
      <trkpt lat="48.84703" lon="2.35379">
        <ele>93.03</ele>
        <time>2020-03-15T13:56:45.999Z</time>
      </trkpt>
      <trkpt lat="48.84706" lon="2.35373">
        <ele>93.04</ele>
        <time>2020-03-15T13:56:46.999Z</time>
      </trkpt>
      <trkpt lat="48.8471" lon="2.35368">
        <ele>93.04</ele>
        <time>2020-03-15T13:56:47.999Z</time>
      </trkpt>
      <trkpt lat="48.84714" lon="2.35362">
        <ele>93.03</ele>
        <time>2020-03-15T13:56:48.999Z</time>
      </trkpt>
      <trkpt lat="48.84719" lon="2.35358">
        <ele>93.03</ele>
        <time>2020-03-15T13:56:49.999Z</time>
      </trkpt>
      <trkpt lat="48.84723" lon="2.35353">
        <ele>93.02</ele>
        <time>2020-03-15T13:56:50.999Z</time>
      </trkpt>
      <trkpt lat="48.84726" lon="2.35348">
        <ele>93.01</ele>
        <time>2020-03-15T13:56:51.999Z</time>
      </trkpt>
      <trkpt lat="48.84728" lon="2.35342">
        <ele>93.01</ele>
        <time>2020-03-15T13:56:52.999Z</time>
      </trkpt>
      <trkpt lat="48.8473" lon="2.35337">
        <ele>93.01</ele>
        <time>2020-03-15T13:56:53.999Z</time>
      </trkpt>
      <trkpt lat="48.84731" lon="2.35333">
        <ele>93.01</ele>
        <time>2020-03-15T13:56:54.999Z</time>
      </trkpt>
      <trkpt lat="48.84732" lon="2.35329">
        <ele>93.01</ele>
        <time>2020-03-15T13:56:55.999Z</time>
      </trkpt>
      <trkpt lat="48.84733" lon="2.35325">
        <ele>93.01</ele>
        <time>2020-03-15T13:56:56.999Z</time>
      </trkpt>
      <trkpt lat="48.84734" lon="2.35321">
        <ele>93.01</ele>
        <time>2020-03-15T13:56:57.999Z</time>
      </trkpt>
      <trkpt lat="48.84735" lon="2.35319">
        <ele>93.01</ele>
        <time>2020-03-15T13:56:58.999Z</time>
      </trkpt>
      <trkpt lat="48.84736" lon="2.35317">
        <ele>93.01</ele>
        <time>2020-03-15T13:56:59.999Z</time>
      </trkpt>
      <trkpt lat="48.84736" lon="2.35315">
        <ele>93.01</ele>
        <time>2020-03-15T13:57:00.999Z</time>
      </trkpt>
      <trkpt lat="48.84736" lon="2.35312">
        <ele>93.01</ele>
        <time>2020-03-15T13:57:01.999Z</time>
      </trkpt>
      <trkpt lat="48.84737" lon="2.35311">
        <ele>93.01</ele>
        <time>2020-03-15T13:57:02.999Z</time>
      </trkpt>
      <trkpt lat="48.84738" lon="2.35312">
        <ele>93</ele>
        <time>2020-03-15T13:57:03.999Z</time>
      </trkpt>
      <trkpt lat="48.84739" lon="2.35312">
        <ele>93</ele>
        <time>2020-03-15T13:57:05.999Z</time>
      </trkpt>
      <trkpt lat="48.8474" lon="2.35314">
        <ele>93</ele>
        <time>2020-03-15T13:57:06.999Z</time>
      </trkpt>
      <trkpt lat="48.84742" lon="2.35314">
        <ele>93</ele>
        <time>2020-03-15T13:57:07.999Z</time>
      </trkpt>
      <trkpt lat="48.84743" lon="2.35313">
        <ele>92.99</ele>
        <time>2020-03-15T13:57:08.999Z</time>
      </trkpt>
      <trkpt lat="48.84743" lon="2.35312">
        <ele>92.99</ele>
        <time>2020-03-15T13:57:11.999Z</time>
      </trkpt>
      <trkpt lat="48.84744" lon="2.35314">
        <ele>92.99</ele>
        <time>2020-03-15T13:57:17.999Z</time>
      </trkpt>
      <trkpt lat="48.84745" lon="2.35316">
        <ele>92.99</ele>
        <time>2020-03-15T13:57:18.999Z</time>
      </trkpt>
      <trkpt lat="48.84745" lon="2.35314">
        <ele>92.98</ele>
        <time>2020-03-15T13:57:21.999Z</time>
      </trkpt>
      <trkpt lat="48.84745" lon="2.35311">
        <ele>92.97</ele>
        <time>2020-03-15T13:57:22.999Z</time>
      </trkpt>
      <trkpt lat="48.84744" lon="2.35309">
        <ele>92.97</ele>
        <time>2020-03-15T13:57:23.999Z</time>
      </trkpt>
      <trkpt lat="48.84744" lon="2.35306">
        <ele>92.96</ele>
        <time>2020-03-15T13:57:24.999Z</time>
      </trkpt>
      <trkpt lat="48.84743" lon="2.35303">
        <ele>92.96</ele>
        <time>2020-03-15T13:57:25.999Z</time>
      </trkpt>
      <trkpt lat="48.84743" lon="2.353">
        <ele>92.96</ele>
        <time>2020-03-15T13:57:26.999Z</time>
      </trkpt>
      <trkpt lat="48.84744" lon="2.35295">
        <ele>92.95</ele>
        <time>2020-03-15T13:57:27.999Z</time>
      </trkpt>
      <trkpt lat="48.84745" lon="2.35293">
        <ele>92.94</ele>
        <time>2020-03-15T13:57:28.999Z</time>
      </trkpt>
      <trkpt lat="48.84746" lon="2.3529">
        <ele>92.93</ele>
        <time>2020-03-15T13:57:29.999Z</time>
      </trkpt>
      <trkpt lat="48.84748" lon="2.3529">
        <ele>92.92</ele>
        <time>2020-03-15T13:57:30.999Z</time>
      </trkpt>
      <trkpt lat="48.8475" lon="2.35288">
        <ele>92.91</ele>
        <time>2020-03-15T13:57:31.999Z</time>
      </trkpt>
      <trkpt lat="48.84754" lon="2.35285">
        <ele>92.89</ele>
        <time>2020-03-15T13:57:32.999Z</time>
      </trkpt>
      <trkpt lat="48.84756" lon="2.35279">
        <ele>92.88</ele>
        <time>2020-03-15T13:57:33.999Z</time>
      </trkpt>
      <trkpt lat="48.84759" lon="2.35272">
        <ele>92.73</ele>
        <time>2020-03-15T13:57:34.999Z</time>
      </trkpt>
      <trkpt lat="48.84761" lon="2.35264">
        <ele>92.6</ele>
        <time>2020-03-15T13:57:35.999Z</time>
      </trkpt>
      <trkpt lat="48.84763" lon="2.35256">
        <ele>92.5</ele>
        <time>2020-03-15T13:57:36.999Z</time>
      </trkpt>
      <trkpt lat="48.84765" lon="2.35249">
        <ele>92.4</ele>
        <time>2020-03-15T13:57:37.999Z</time>
      </trkpt>
      <trkpt lat="48.84767" lon="2.35241">
        <ele>92.32</ele>
        <time>2020-03-15T13:57:38.999Z</time>
      </trkpt>
      <trkpt lat="48.84769" lon="2.35232">
        <ele>92.26</ele>
        <time>2020-03-15T13:57:39.999Z</time>
      </trkpt>
      <trkpt lat="48.8477" lon="2.35224">
        <ele>92.2</ele>
        <time>2020-03-15T13:57:40.999Z</time>
      </trkpt>
      <trkpt lat="48.84773" lon="2.35216">
        <ele>92.16</ele>
        <time>2020-03-15T13:57:41.999Z</time>
      </trkpt>
      <trkpt lat="48.84776" lon="2.35208">
        <ele>92.12</ele>
        <time>2020-03-15T13:57:42.999Z</time>
      </trkpt>
      <trkpt lat="48.84778" lon="2.35201">
        <ele>92.09</ele>
        <time>2020-03-15T13:57:43.999Z</time>
      </trkpt>
      <trkpt lat="48.84781" lon="2.35192">
        <ele>92.06</ele>
        <time>2020-03-15T13:57:44.999Z</time>
      </trkpt>
      <trkpt lat="48.84783" lon="2.35184">
        <ele>92.04</ele>
        <time>2020-03-15T13:57:45.999Z</time>
      </trkpt>
      <trkpt lat="48.84785" lon="2.35174">
        <ele>92.02</ele>
        <time>2020-03-15T13:57:46.999Z</time>
      </trkpt>
      <trkpt lat="48.84787" lon="2.35165">
        <ele>92.01</ele>
        <time>2020-03-15T13:57:47.999Z</time>
      </trkpt>
      <trkpt lat="48.8479" lon="2.35156">
        <ele>92</ele>
        <time>2020-03-15T13:57:48.999Z</time>
      </trkpt>
      <trkpt lat="48.84792" lon="2.35147">
        <ele>92</ele>
        <time>2020-03-15T13:57:49.999Z</time>
      </trkpt>
      <trkpt lat="48.84795" lon="2.35138">
        <ele>91.99</ele>
        <time>2020-03-15T13:57:50.999Z</time>
      </trkpt>
      <trkpt lat="48.84796" lon="2.3513">
        <ele>91.97</ele>
        <time>2020-03-15T13:57:51.999Z</time>
      </trkpt>
      <trkpt lat="48.84798" lon="2.35122">
        <ele>91.96</ele>
        <time>2020-03-15T13:57:52.999Z</time>
      </trkpt>
      <trkpt lat="48.84798" lon="2.35114">
        <ele>91.95</ele>
        <time>2020-03-15T13:57:53.999Z</time>
      </trkpt>
      <trkpt lat="48.848" lon="2.35105">
        <ele>91.93</ele>
        <time>2020-03-15T13:57:54.999Z</time>
      </trkpt>
      <trkpt lat="48.84801" lon="2.35095">
        <ele>91.92</ele>
        <time>2020-03-15T13:57:55.999Z</time>
      </trkpt>
      <trkpt lat="48.84803" lon="2.35087">
        <ele>91.9</ele>
        <time>2020-03-15T13:57:56.999Z</time>
      </trkpt>
      <trkpt lat="48.84805" lon="2.3508">
        <ele>91.89</ele>
        <time>2020-03-15T13:57:57.999Z</time>
      </trkpt>
      <trkpt lat="48.84807" lon="2.35073">
        <ele>91.88</ele>
        <time>2020-03-15T13:57:58.999Z</time>
      </trkpt>
      <trkpt lat="48.84809" lon="2.35066">
        <ele>91.87</ele>
        <time>2020-03-15T13:57:59.999Z</time>
      </trkpt>
      <trkpt lat="48.84811" lon="2.3506">
        <ele>91.85</ele>
        <time>2020-03-15T13:58:00.999Z</time>
      </trkpt>
      <trkpt lat="48.84813" lon="2.35054">
        <ele>91.85</ele>
        <time>2020-03-15T13:58:01.999Z</time>
      </trkpt>
      <trkpt lat="48.84816" lon="2.35049">
        <ele>91.83</ele>
        <time>2020-03-15T13:58:02.999Z</time>
      </trkpt>
      <trkpt lat="48.84818" lon="2.35042">
        <ele>91.82</ele>
        <time>2020-03-15T13:58:03.999Z</time>
      </trkpt>
      <trkpt lat="48.84819" lon="2.35035">
        <ele>91.81</ele>
        <time>2020-03-15T13:58:04.999Z</time>
      </trkpt>
      <trkpt lat="48.84821" lon="2.35029">
        <ele>91.79</ele>
        <time>2020-03-15T13:58:05.999Z</time>
      </trkpt>
      <trkpt lat="48.84823" lon="2.35024">
        <ele>91.77</ele>
        <time>2020-03-15T13:58:06.999Z</time>
      </trkpt>
      <trkpt lat="48.84825" lon="2.35018">
        <ele>91.74</ele>
        <time>2020-03-15T13:58:07.999Z</time>
      </trkpt>
      <trkpt lat="48.84827" lon="2.35012">
        <ele>91.72</ele>
        <time>2020-03-15T13:58:08.999Z</time>
      </trkpt>
      <trkpt lat="48.8483" lon="2.35006">
        <ele>91.7</ele>
        <time>2020-03-15T13:58:09.999Z</time>
      </trkpt>
      <trkpt lat="48.84833" lon="2.35">
        <ele>91.67</ele>
        <time>2020-03-15T13:58:10.999Z</time>
      </trkpt>
      <trkpt lat="48.84834" lon="2.34993">
        <ele>91.64</ele>
        <time>2020-03-15T13:58:11.999Z</time>
      </trkpt>
      <trkpt lat="48.84836" lon="2.34986">
        <ele>91.61</ele>
        <time>2020-03-15T13:58:12.999Z</time>
      </trkpt>
      <trkpt lat="48.84838" lon="2.3498">
        <ele>91.59</ele>
        <time>2020-03-15T13:58:13.999Z</time>
      </trkpt>
      <trkpt lat="48.84841" lon="2.34973">
        <ele>91.59</ele>
        <time>2020-03-15T13:58:14.999Z</time>
      </trkpt>
      <trkpt lat="48.84842" lon="2.34967">
        <ele>91.59</ele>
        <time>2020-03-15T13:58:15.999Z</time>
      </trkpt>
      <trkpt lat="48.84843" lon="2.34962">
        <ele>91.58</ele>
        <time>2020-03-15T13:58:16.999Z</time>
      </trkpt>
      <trkpt lat="48.84846" lon="2.34957">
        <ele>91.58</ele>
        <time>2020-03-15T13:58:17.999Z</time>
      </trkpt>
      <trkpt lat="48.84849" lon="2.34952">
        <ele>91.58</ele>
        <time>2020-03-15T13:58:18.999Z</time>
      </trkpt>
      <trkpt lat="48.84851" lon="2.34946">
        <ele>91.57</ele>
        <time>2020-03-15T13:58:19.999Z</time>
      </trkpt>
      <trkpt lat="48.84852" lon="2.34939">
        <ele>91.57</ele>
        <time>2020-03-15T13:58:20.999Z</time>
      </trkpt>
      <trkpt lat="48.84852" lon="2.34931">
        <ele>91.57</ele>
        <time>2020-03-15T13:58:21.999Z</time>
      </trkpt>
      <trkpt lat="48.84852" lon="2.34925">
        <ele>91.56</ele>
        <time>2020-03-15T13:58:22.999Z</time>
      </trkpt>
      <trkpt lat="48.84853" lon="2.34918">
        <ele>91.53</ele>
        <time>2020-03-15T13:58:23.999Z</time>
      </trkpt>
      <trkpt lat="48.84854" lon="2.34911">
        <ele>91.5</ele>
        <time>2020-03-15T13:58:24.999Z</time>
      </trkpt>
      <trkpt lat="48.84856" lon="2.34904">
        <ele>91.47</ele>
        <time>2020-03-15T13:58:25.999Z</time>
      </trkpt>
      <trkpt lat="48.84857" lon="2.34897">
        <ele>91.44</ele>
        <time>2020-03-15T13:58:26.999Z</time>
      </trkpt>
      <trkpt lat="48.84859" lon="2.3489">
        <ele>91.41</ele>
        <time>2020-03-15T13:58:27.999Z</time>
      </trkpt>
      <trkpt lat="48.84861" lon="2.34883">
        <ele>91.39</ele>
        <time>2020-03-15T13:58:28.999Z</time>
      </trkpt>
      <trkpt lat="48.84863" lon="2.34875">
        <ele>91.37</ele>
        <time>2020-03-15T13:58:29.999Z</time>
      </trkpt>
      <trkpt lat="48.84865" lon="2.34867">
        <ele>91.35</ele>
        <time>2020-03-15T13:58:30.999Z</time>
      </trkpt>
      <trkpt lat="48.84866" lon="2.34861">
        <ele>91.35</ele>
        <time>2020-03-15T13:58:31.999Z</time>
      </trkpt>
      <trkpt lat="48.84869" lon="2.34855">
        <ele>91.34</ele>
        <time>2020-03-15T13:58:32.999Z</time>
      </trkpt>
      <trkpt lat="48.84871" lon="2.34849">
        <ele>91.34</ele>
        <time>2020-03-15T13:58:33.999Z</time>
      </trkpt>
      <trkpt lat="48.84873" lon="2.34843">
        <ele>91.33</ele>
        <time>2020-03-15T13:58:34.999Z</time>
      </trkpt>
      <trkpt lat="48.84875" lon="2.34838">
        <ele>91.33</ele>
        <time>2020-03-15T13:58:35.999Z</time>
      </trkpt>
      <trkpt lat="48.84877" lon="2.34832">
        <ele>91.32</ele>
        <time>2020-03-15T13:58:36.999Z</time>
      </trkpt>
      <trkpt lat="48.84879" lon="2.34827">
        <ele>91.32</ele>
        <time>2020-03-15T13:58:37.999Z</time>
      </trkpt>
      <trkpt lat="48.8488" lon="2.34821">
        <ele>91.32</ele>
        <time>2020-03-15T13:58:38.999Z</time>
      </trkpt>
      <trkpt lat="48.84882" lon="2.34816">
        <ele>91.32</ele>
        <time>2020-03-15T13:58:39.999Z</time>
      </trkpt>
      <trkpt lat="48.84884" lon="2.3481">
        <ele>91.32</ele>
        <time>2020-03-15T13:58:40.999Z</time>
      </trkpt>
      <trkpt lat="48.84885" lon="2.34804">
        <ele>91.32</ele>
        <time>2020-03-15T13:58:41.999Z</time>
      </trkpt>
      <trkpt lat="48.84887" lon="2.34798">
        <ele>91.32</ele>
        <time>2020-03-15T13:58:42.999Z</time>
      </trkpt>
      <trkpt lat="48.84889" lon="2.34791">
        <ele>91.32</ele>
        <time>2020-03-15T13:58:43.999Z</time>
      </trkpt>
      <trkpt lat="48.84891" lon="2.34785">
        <ele>91.32</ele>
        <time>2020-03-15T13:58:44.999Z</time>
      </trkpt>
      <trkpt lat="48.84893" lon="2.34778">
        <ele>91.31</ele>
        <time>2020-03-15T13:58:45.999Z</time>
      </trkpt>
      <trkpt lat="48.84895" lon="2.34772">
        <ele>91.3</ele>
        <time>2020-03-15T13:58:46.999Z</time>
      </trkpt>
      <trkpt lat="48.84896" lon="2.34766">
        <ele>91.3</ele>
        <time>2020-03-15T13:58:47.999Z</time>
      </trkpt>
      <trkpt lat="48.84898" lon="2.34761">
        <ele>91.3</ele>
        <time>2020-03-15T13:58:48.999Z</time>
      </trkpt>
      <trkpt lat="48.84898" lon="2.34754">
        <ele>91.29</ele>
        <time>2020-03-15T13:58:49.999Z</time>
      </trkpt>
      <trkpt lat="48.84901" lon="2.34749">
        <ele>91.29</ele>
        <time>2020-03-15T13:58:50.999Z</time>
      </trkpt>
      <trkpt lat="48.84902" lon="2.34743">
        <ele>91.28</ele>
        <time>2020-03-15T13:58:51.999Z</time>
      </trkpt>
      <trkpt lat="48.84904" lon="2.34738">
        <ele>91.27</ele>
        <time>2020-03-15T13:58:52.999Z</time>
      </trkpt>
      <trkpt lat="48.84906" lon="2.34732">
        <ele>91.26</ele>
        <time>2020-03-15T13:58:53.999Z</time>
      </trkpt>
      <trkpt lat="48.84908" lon="2.34726">
        <ele>91.25</ele>
        <time>2020-03-15T13:58:54.999Z</time>
      </trkpt>
      <trkpt lat="48.8491" lon="2.34719">
        <ele>91.24</ele>
        <time>2020-03-15T13:58:55.999Z</time>
      </trkpt>
      <trkpt lat="48.84912" lon="2.34713">
        <ele>91.23</ele>
        <time>2020-03-15T13:58:56.999Z</time>
      </trkpt>
      <trkpt lat="48.84913" lon="2.34707">
        <ele>91.23</ele>
        <time>2020-03-15T13:58:57.999Z</time>
      </trkpt>
      <trkpt lat="48.84914" lon="2.34701">
        <ele>91.2</ele>
        <time>2020-03-15T13:58:58.999Z</time>
      </trkpt>
      <trkpt lat="48.84916" lon="2.34694">
        <ele>91.2</ele>
        <time>2020-03-15T13:58:59.999Z</time>
      </trkpt>
      <trkpt lat="48.84917" lon="2.34687">
        <ele>91.17</ele>
        <time>2020-03-15T13:59:00.999Z</time>
      </trkpt>
      <trkpt lat="48.84918" lon="2.3468">
        <ele>91.12</ele>
        <time>2020-03-15T13:59:01.999Z</time>
      </trkpt>
      <trkpt lat="48.84919" lon="2.34673">
        <ele>90.66</ele>
        <time>2020-03-15T13:59:02.999Z</time>
      </trkpt>
      <trkpt lat="48.84921" lon="2.34666">
        <ele>90.03</ele>
        <time>2020-03-15T13:59:03.999Z</time>
      </trkpt>
      <trkpt lat="48.84923" lon="2.34658">
        <ele>89.48</ele>
        <time>2020-03-15T13:59:04.999Z</time>
      </trkpt>
      <trkpt lat="48.84925" lon="2.34651">
        <ele>88.9</ele>
        <time>2020-03-15T13:59:05.999Z</time>
      </trkpt>
      <trkpt lat="48.84927" lon="2.3464">
        <ele>88.16</ele>
        <time>2020-03-15T13:59:06.999Z</time>
      </trkpt>
      <trkpt lat="48.84928" lon="2.34633">
        <ele>87.31</ele>
        <time>2020-03-15T13:59:07.999Z</time>
      </trkpt>
      <trkpt lat="48.8493" lon="2.34627">
        <ele>86.68</ele>
        <time>2020-03-15T13:59:08.999Z</time>
      </trkpt>
      <trkpt lat="48.84931" lon="2.3462">
        <ele>86.24</ele>
        <time>2020-03-15T13:59:09.999Z</time>
      </trkpt>
      <trkpt lat="48.84933" lon="2.34613">
        <ele>85.9</ele>
        <time>2020-03-15T13:59:10.999Z</time>
      </trkpt>
      <trkpt lat="48.84935" lon="2.34605">
        <ele>85.51</ele>
        <time>2020-03-15T13:59:11.999Z</time>
      </trkpt>
      <trkpt lat="48.84937" lon="2.34598">
        <ele>85.34</ele>
        <time>2020-03-15T13:59:12.999Z</time>
      </trkpt>
      <trkpt lat="48.84939" lon="2.34591">
        <ele>85.66</ele>
        <time>2020-03-15T13:59:13.999Z</time>
      </trkpt>
      <trkpt lat="48.8494" lon="2.34585">
        <ele>85.36</ele>
        <time>2020-03-15T13:59:14.999Z</time>
      </trkpt>
      <trkpt lat="48.84942" lon="2.34579">
        <ele>85.09</ele>
        <time>2020-03-15T13:59:15.999Z</time>
      </trkpt>
      <trkpt lat="48.84944" lon="2.34574">
        <ele>84.79</ele>
        <time>2020-03-15T13:59:16.999Z</time>
      </trkpt>
      <trkpt lat="48.84946" lon="2.34569">
        <ele>84.29</ele>
        <time>2020-03-15T13:59:17.999Z</time>
      </trkpt>
      <trkpt lat="48.84948" lon="2.34564">
        <ele>84.13</ele>
        <time>2020-03-15T13:59:18.999Z</time>
      </trkpt>
      <trkpt lat="48.8495" lon="2.34559">
        <ele>83.79</ele>
        <time>2020-03-15T13:59:19.999Z</time>
      </trkpt>
      <trkpt lat="48.84951" lon="2.34553">
        <ele>83.73</ele>
        <time>2020-03-15T13:59:20.999Z</time>
      </trkpt>
      <trkpt lat="48.84952" lon="2.34548">
        <ele>83.67</ele>
        <time>2020-03-15T13:59:21.999Z</time>
      </trkpt>
      <trkpt lat="48.84954" lon="2.34543">
        <ele>83.6</ele>
        <time>2020-03-15T13:59:22.999Z</time>
      </trkpt>
      <trkpt lat="48.84956" lon="2.34538">
        <ele>83.51</ele>
        <time>2020-03-15T13:59:23.999Z</time>
      </trkpt>
      <trkpt lat="48.84957" lon="2.34532">
        <ele>83.42</ele>
        <time>2020-03-15T13:59:24.999Z</time>
      </trkpt>
      <trkpt lat="48.84959" lon="2.34528">
        <ele>83.33</ele>
        <time>2020-03-15T13:59:25.999Z</time>
      </trkpt>
      <trkpt lat="48.84961" lon="2.34523">
        <ele>83.24</ele>
        <time>2020-03-15T13:59:26.999Z</time>
      </trkpt>
      <trkpt lat="48.84961" lon="2.34519">
        <ele>82.4</ele>
        <time>2020-03-15T13:59:27.999Z</time>
      </trkpt>
      <trkpt lat="48.84963" lon="2.34513">
        <ele>81.6</ele>
        <time>2020-03-15T13:59:28.999Z</time>
      </trkpt>
      <trkpt lat="48.84965" lon="2.34507">
        <ele>81.54</ele>
        <time>2020-03-15T13:59:29.999Z</time>
      </trkpt>
      <trkpt lat="48.84966" lon="2.34503">
        <ele>81.48</ele>
        <time>2020-03-15T13:59:30.999Z</time>
      </trkpt>
      <trkpt lat="48.84967" lon="2.34499">
        <ele>81.44</ele>
        <time>2020-03-15T13:59:31.999Z</time>
      </trkpt>
      <trkpt lat="48.84968" lon="2.34497">
        <ele>81.41</ele>
        <time>2020-03-15T13:59:32.999Z</time>
      </trkpt>
      <trkpt lat="48.84968" lon="2.34496">
        <ele>81.4</ele>
        <time>2020-03-15T13:59:33.999Z</time>
      </trkpt>
      <trkpt lat="48.84969" lon="2.34492">
        <ele>81.46</ele>
        <time>2020-03-15T13:59:34.999Z</time>
      </trkpt>
      <trkpt lat="48.84969" lon="2.34491">
        <ele>81.51</ele>
        <time>2020-03-15T13:59:37.999Z</time>
      </trkpt>
      <trkpt lat="48.84968" lon="2.34489">
        <ele>82.26</ele>
        <time>2020-03-15T13:59:56.999Z</time>
      </trkpt>
      <trkpt lat="48.84968" lon="2.34485">
        <ele>82.79</ele>
        <time>2020-03-15T13:59:59.999Z</time>
      </trkpt>
      <trkpt lat="48.84968" lon="2.34479">
        <ele>83.03</ele>
        <time>2020-03-15T14:00:00.999Z</time>
      </trkpt>
      <trkpt lat="48.84969" lon="2.34474">
        <ele>83.25</ele>
        <time>2020-03-15T14:00:01.999Z</time>
      </trkpt>
      <trkpt lat="48.8497" lon="2.34468">
        <ele>85.42</ele>
        <time>2020-03-15T14:00:02.999Z</time>
      </trkpt>
      <trkpt lat="48.84971" lon="2.34461">
        <ele>87.15</ele>
        <time>2020-03-15T14:00:03.999Z</time>
      </trkpt>
      <trkpt lat="48.84973" lon="2.34454">
        <ele>88.46</ele>
        <time>2020-03-15T14:00:04.999Z</time>
      </trkpt>
      <trkpt lat="48.84974" lon="2.34446">
        <ele>89.47</ele>
        <time>2020-03-15T14:00:05.999Z</time>
      </trkpt>
      <trkpt lat="48.84975" lon="2.34439">
        <ele>90.28</ele>
        <time>2020-03-15T14:00:06.999Z</time>
      </trkpt>
      <trkpt lat="48.84976" lon="2.34432">
        <ele>90.94</ele>
        <time>2020-03-15T14:00:07.999Z</time>
      </trkpt>
      <trkpt lat="48.84978" lon="2.34425">
        <ele>91.48</ele>
        <time>2020-03-15T14:00:08.999Z</time>
      </trkpt>
      <trkpt lat="48.8498" lon="2.34418">
        <ele>91.9</ele>
        <time>2020-03-15T14:00:09.999Z</time>
      </trkpt>
      <trkpt lat="48.84981" lon="2.3441">
        <ele>92.22</ele>
        <time>2020-03-15T14:00:10.999Z</time>
      </trkpt>
      <trkpt lat="48.84983" lon="2.34403">
        <ele>92.42</ele>
        <time>2020-03-15T14:00:11.999Z</time>
      </trkpt>
      <trkpt lat="48.84985" lon="2.34395">
        <ele>92.63</ele>
        <time>2020-03-15T14:00:12.999Z</time>
      </trkpt>
      <trkpt lat="48.84987" lon="2.34387">
        <ele>92.82</ele>
        <time>2020-03-15T14:00:13.999Z</time>
      </trkpt>
      <trkpt lat="48.84992" lon="2.34371">
        <ele>93.16</ele>
        <time>2020-03-15T14:00:15.999Z</time>
      </trkpt>
      <trkpt lat="48.84995" lon="2.34364">
        <ele>93.26</ele>
        <time>2020-03-15T14:00:16.999Z</time>
      </trkpt>
      <trkpt lat="48.84998" lon="2.34356">
        <ele>93.31</ele>
        <time>2020-03-15T14:00:17.999Z</time>
      </trkpt>
      <trkpt lat="48.85001" lon="2.34348">
        <ele>93.34</ele>
        <time>2020-03-15T14:00:18.999Z</time>
      </trkpt>
      <trkpt lat="48.85003" lon="2.3434">
        <ele>93.38</ele>
        <time>2020-03-15T14:00:19.999Z</time>
      </trkpt>
      <trkpt lat="48.85006" lon="2.34332">
        <ele>93.42</ele>
        <time>2020-03-15T14:00:20.999Z</time>
      </trkpt>
      <trkpt lat="48.85009" lon="2.34324">
        <ele>93.45</ele>
        <time>2020-03-15T14:00:21.999Z</time>
      </trkpt>
      <trkpt lat="48.85012" lon="2.34316">
        <ele>93.47</ele>
        <time>2020-03-15T14:00:22.999Z</time>
      </trkpt>
      <trkpt lat="48.85016" lon="2.34309">
        <ele>93.49</ele>
        <time>2020-03-15T14:00:23.999Z</time>
      </trkpt>
      <trkpt lat="48.8502" lon="2.34302">
        <ele>93.46</ele>
        <time>2020-03-15T14:00:24.999Z</time>
      </trkpt>
      <trkpt lat="48.85022" lon="2.34295">
        <ele>93.42</ele>
        <time>2020-03-15T14:00:25.999Z</time>
      </trkpt>
      <trkpt lat="48.85024" lon="2.34287">
        <ele>93.43</ele>
        <time>2020-03-15T14:00:26.999Z</time>
      </trkpt>
      <trkpt lat="48.85026" lon="2.34282">
        <ele>93.43</ele>
        <time>2020-03-15T14:00:27.999Z</time>
      </trkpt>
      <trkpt lat="48.85028" lon="2.34278">
        <ele>93.43</ele>
        <time>2020-03-15T14:00:28.999Z</time>
      </trkpt>
      <trkpt lat="48.8503" lon="2.34273">
        <ele>93.43</ele>
        <time>2020-03-15T14:00:29.999Z</time>
      </trkpt>
      <trkpt lat="48.85032" lon="2.34268">
        <ele>93.43</ele>
        <time>2020-03-15T14:00:31.999Z</time>
      </trkpt>
      <trkpt lat="48.85032" lon="2.34266">
        <ele>93.43</ele>
        <time>2020-03-15T14:00:32.999Z</time>
      </trkpt>
      <trkpt lat="48.85031" lon="2.34265">
        <ele>93.43</ele>
        <time>2020-03-15T14:00:34.999Z</time>
      </trkpt>
      <trkpt lat="48.85031" lon="2.34263">
        <ele>93.43</ele>
        <time>2020-03-15T14:00:37.999Z</time>
      </trkpt>
      <trkpt lat="48.85032" lon="2.34261">
        <ele>93.42</ele>
        <time>2020-03-15T14:00:38.999Z</time>
      </trkpt>
      <trkpt lat="48.85033" lon="2.34258">
        <ele>93.42</ele>
        <time>2020-03-15T14:00:39.999Z</time>
      </trkpt>
      <trkpt lat="48.85033" lon="2.34253">
        <ele>93.42</ele>
        <time>2020-03-15T14:00:40.999Z</time>
      </trkpt>
      <trkpt lat="48.85034" lon="2.3425">
        <ele>93.42</ele>
        <time>2020-03-15T14:00:41.999Z</time>
      </trkpt>
      <trkpt lat="48.85035" lon="2.34246">
        <ele>93.42</ele>
        <time>2020-03-15T14:00:42.999Z</time>
      </trkpt>
      <trkpt lat="48.85036" lon="2.34243">
        <ele>93.43</ele>
        <time>2020-03-15T14:00:43.999Z</time>
      </trkpt>
      <trkpt lat="48.85037" lon="2.3424">
        <ele>93.44</ele>
        <time>2020-03-15T14:00:44.999Z</time>
      </trkpt>
      <trkpt lat="48.85038" lon="2.34235">
        <ele>93.45</ele>
        <time>2020-03-15T14:00:45.999Z</time>
      </trkpt>
      <trkpt lat="48.85038" lon="2.34231">
        <ele>93.46</ele>
        <time>2020-03-15T14:00:46.999Z</time>
      </trkpt>
      <trkpt lat="48.85039" lon="2.34228">
        <ele>93.47</ele>
        <time>2020-03-15T14:00:47.999Z</time>
      </trkpt>
      <trkpt lat="48.85039" lon="2.34223">
        <ele>93.47</ele>
        <time>2020-03-15T14:00:49.999Z</time>
      </trkpt>
      <trkpt lat="48.85039" lon="2.34219">
        <ele>93.47</ele>
        <time>2020-03-15T14:00:50.999Z</time>
      </trkpt>
      <trkpt lat="48.85039" lon="2.34212">
        <ele>93.45</ele>
        <time>2020-03-15T14:00:52.999Z</time>
      </trkpt>
      <trkpt lat="48.85038" lon="2.34209">
        <ele>93.44</ele>
        <time>2020-03-15T14:00:53.999Z</time>
      </trkpt>
      <trkpt lat="48.85038" lon="2.34206">
        <ele>93.42</ele>
        <time>2020-03-15T14:00:54.999Z</time>
      </trkpt>
      <trkpt lat="48.85037" lon="2.34203">
        <ele>93.41</ele>
        <time>2020-03-15T14:00:55.999Z</time>
      </trkpt>
      <trkpt lat="48.85035" lon="2.34196">
        <ele>93.38</ele>
        <time>2020-03-15T14:00:57.999Z</time>
      </trkpt>
      <trkpt lat="48.85034" lon="2.34191">
        <ele>93.36</ele>
        <time>2020-03-15T14:00:58.999Z</time>
      </trkpt>
      <trkpt lat="48.85032" lon="2.34188">
        <ele>93.34</ele>
        <time>2020-03-15T14:00:59.999Z</time>
      </trkpt>
      <trkpt lat="48.85031" lon="2.34184">
        <ele>93.32</ele>
        <time>2020-03-15T14:01:00.999Z</time>
      </trkpt>
      <trkpt lat="48.85029" lon="2.34179">
        <ele>93.3</ele>
        <time>2020-03-15T14:01:01.999Z</time>
      </trkpt>
      <trkpt lat="48.85027" lon="2.34174">
        <ele>93.27</ele>
        <time>2020-03-15T14:01:02.999Z</time>
      </trkpt>
      <trkpt lat="48.85025" lon="2.3417">
        <ele>93.25</ele>
        <time>2020-03-15T14:01:03.999Z</time>
      </trkpt>
      <trkpt lat="48.85022" lon="2.34167">
        <ele>93.22</ele>
        <time>2020-03-15T14:01:04.999Z</time>
      </trkpt>
      <trkpt lat="48.85019" lon="2.34163">
        <ele>93.19</ele>
        <time>2020-03-15T14:01:05.999Z</time>
      </trkpt>
      <trkpt lat="48.85016" lon="2.34159">
        <ele>93.16</ele>
        <time>2020-03-15T14:01:06.999Z</time>
      </trkpt>
      <trkpt lat="48.85013" lon="2.34147">
        <ele>93.09</ele>
        <time>2020-03-15T14:01:08.999Z</time>
      </trkpt>
      <trkpt lat="48.85011" lon="2.3414">
        <ele>92.82</ele>
        <time>2020-03-15T14:01:09.999Z</time>
      </trkpt>
      <trkpt lat="48.85009" lon="2.34127">
        <ele>92.77</ele>
        <time>2020-03-15T14:01:11.999Z</time>
      </trkpt>
      <trkpt lat="48.85008" lon="2.34122">
        <ele>92.75</ele>
        <time>2020-03-15T14:01:12.999Z</time>
      </trkpt>
      <trkpt lat="48.85007" lon="2.34115">
        <ele>92.74</ele>
        <time>2020-03-15T14:01:13.999Z</time>
      </trkpt>
      <trkpt lat="48.85007" lon="2.3411">
        <ele>92.72</ele>
        <time>2020-03-15T14:01:14.999Z</time>
      </trkpt>
      <trkpt lat="48.85004" lon="2.34099">
        <ele>92.68</ele>
        <time>2020-03-15T14:01:16.999Z</time>
      </trkpt>
      <trkpt lat="48.85003" lon="2.34088">
        <ele>92.65</ele>
        <time>2020-03-15T14:01:18.999Z</time>
      </trkpt>
      <trkpt lat="48.85002" lon="2.34083">
        <ele>92.63</ele>
        <time>2020-03-15T14:01:19.999Z</time>
      </trkpt>
      <trkpt lat="48.85" lon="2.34079">
        <ele>92.62</ele>
        <time>2020-03-15T14:01:20.999Z</time>
      </trkpt>
      <trkpt lat="48.84999" lon="2.34073">
        <ele>92.6</ele>
        <time>2020-03-15T14:01:21.999Z</time>
      </trkpt>
      <trkpt lat="48.84998" lon="2.34069">
        <ele>92.58</ele>
        <time>2020-03-15T14:01:22.999Z</time>
      </trkpt>
      <trkpt lat="48.84997" lon="2.34063">
        <ele>92.56</ele>
        <time>2020-03-15T14:01:23.999Z</time>
      </trkpt>
      <trkpt lat="48.84994" lon="2.34054">
        <ele>92.52</ele>
        <time>2020-03-15T14:01:25.999Z</time>
      </trkpt>
      <trkpt lat="48.84993" lon="2.3405">
        <ele>92.5</ele>
        <time>2020-03-15T14:01:26.999Z</time>
      </trkpt>
      <trkpt lat="48.84991" lon="2.34044">
        <ele>92.47</ele>
        <time>2020-03-15T14:01:27.999Z</time>
      </trkpt>
      <trkpt lat="48.8499" lon="2.34038">
        <ele>92.45</ele>
        <time>2020-03-15T14:01:28.999Z</time>
      </trkpt>
      <trkpt lat="48.84988" lon="2.34029">
        <ele>92.39</ele>
        <time>2020-03-15T14:01:30.999Z</time>
      </trkpt>
      <trkpt lat="48.84987" lon="2.34023">
        <ele>92.37</ele>
        <time>2020-03-15T14:01:31.999Z</time>
      </trkpt>
      <trkpt lat="48.84987" lon="2.34017">
        <ele>92.35</ele>
        <time>2020-03-15T14:01:32.999Z</time>
      </trkpt>
      <trkpt lat="48.84986" lon="2.34011">
        <ele>92.33</ele>
        <time>2020-03-15T14:01:33.999Z</time>
      </trkpt>
      <trkpt lat="48.84986" lon="2.34003">
        <ele>92.31</ele>
        <time>2020-03-15T14:01:34.999Z</time>
      </trkpt>
      <trkpt lat="48.84986" lon="2.33989">
        <ele>92.28</ele>
        <time>2020-03-15T14:01:36.999Z</time>
      </trkpt>
      <trkpt lat="48.84987" lon="2.33982">
        <ele>92.15</ele>
        <time>2020-03-15T14:01:37.999Z</time>
      </trkpt>
      <trkpt lat="48.84987" lon="2.33975">
        <ele>92.14</ele>
        <time>2020-03-15T14:01:38.999Z</time>
      </trkpt>
      <trkpt lat="48.84984" lon="2.33959">
        <ele>91.96</ele>
        <time>2020-03-15T14:01:40.999Z</time>
      </trkpt>
      <trkpt lat="48.84984" lon="2.33951">
        <ele>91.91</ele>
        <time>2020-03-15T14:01:41.999Z</time>
      </trkpt>
      <trkpt lat="48.84983" lon="2.33943">
        <ele>91.9</ele>
        <time>2020-03-15T14:01:42.999Z</time>
      </trkpt>
      <trkpt lat="48.84981" lon="2.33937">
        <ele>91.84</ele>
        <time>2020-03-15T14:01:43.999Z</time>
      </trkpt>
      <trkpt lat="48.84981" lon="2.33929">
        <ele>91.79</ele>
        <time>2020-03-15T14:01:44.999Z</time>
      </trkpt>
      <trkpt lat="48.84982" lon="2.3392">
        <ele>91.75</ele>
        <time>2020-03-15T14:01:45.999Z</time>
      </trkpt>
      <trkpt lat="48.84985" lon="2.33911">
        <ele>91.71</ele>
        <time>2020-03-15T14:01:46.999Z</time>
      </trkpt>
      <trkpt lat="48.84989" lon="2.33904">
        <ele>91.68</ele>
        <time>2020-03-15T14:01:47.999Z</time>
      </trkpt>
      <trkpt lat="48.84992" lon="2.33896">
        <ele>91.65</ele>
        <time>2020-03-15T14:01:48.999Z</time>
      </trkpt>
      <trkpt lat="48.84993" lon="2.33889">
        <ele>91.62</ele>
        <time>2020-03-15T14:01:49.999Z</time>
      </trkpt>
      <trkpt lat="48.84995" lon="2.33882">
        <ele>91.65</ele>
        <time>2020-03-15T14:01:50.999Z</time>
      </trkpt>
      <trkpt lat="48.84996" lon="2.33875">
        <ele>91.62</ele>
        <time>2020-03-15T14:01:51.999Z</time>
      </trkpt>
      <trkpt lat="48.84996" lon="2.33869">
        <ele>91.58</ele>
        <time>2020-03-15T14:01:52.999Z</time>
      </trkpt>
      <trkpt lat="48.84996" lon="2.33865">
        <ele>91.54</ele>
        <time>2020-03-15T14:01:53.999Z</time>
      </trkpt>
      <trkpt lat="48.84996" lon="2.33861">
        <ele>91.5</ele>
        <time>2020-03-15T14:01:54.999Z</time>
      </trkpt>
      <trkpt lat="48.84995" lon="2.33859">
        <ele>91.48</ele>
        <time>2020-03-15T14:01:55.999Z</time>
      </trkpt>
      <trkpt lat="48.84995" lon="2.33858">
        <ele>91.47</ele>
        <time>2020-03-15T14:01:56.999Z</time>
      </trkpt>
      <trkpt lat="48.84995" lon="2.33855">
        <ele>91.5</ele>
        <time>2020-03-15T14:01:58.999Z</time>
      </trkpt>
      <trkpt lat="48.84994" lon="2.33854">
        <ele>92.02</ele>
        <time>2020-03-15T14:02:15.999Z</time>
      </trkpt>
      <trkpt lat="48.84994" lon="2.33852">
        <ele>92.11</ele>
        <time>2020-03-15T14:02:16.999Z</time>
      </trkpt>
      <trkpt lat="48.84994" lon="2.3385">
        <ele>92.2</ele>
        <time>2020-03-15T14:02:17.999Z</time>
      </trkpt>
      <trkpt lat="48.84993" lon="2.33847">
        <ele>92.31</ele>
        <time>2020-03-15T14:02:18.999Z</time>
      </trkpt>
      <trkpt lat="48.84991" lon="2.33844">
        <ele>92.52</ele>
        <time>2020-03-15T14:02:20.999Z</time>
      </trkpt>
      <trkpt lat="48.84989" lon="2.33842">
        <ele>92.64</ele>
        <time>2020-03-15T14:02:21.999Z</time>
      </trkpt>
      <trkpt lat="48.84988" lon="2.3384">
        <ele>92.85</ele>
        <time>2020-03-15T14:02:23.999Z</time>
      </trkpt>
      <trkpt lat="48.84987" lon="2.33838">
        <ele>92.95</ele>
        <time>2020-03-15T14:02:24.999Z</time>
      </trkpt>
      <trkpt lat="48.84986" lon="2.33836">
        <ele>93.06</ele>
        <time>2020-03-15T14:02:25.999Z</time>
      </trkpt>
      <trkpt lat="48.84985" lon="2.33833">
        <ele>93.27</ele>
        <time>2020-03-15T14:02:27.999Z</time>
      </trkpt>
      <trkpt lat="48.84984" lon="2.33831">
        <ele>93.38</ele>
        <time>2020-03-15T14:02:28.999Z</time>
      </trkpt>
      <trkpt lat="48.84983" lon="2.33829">
        <ele>93.6</ele>
        <time>2020-03-15T14:02:30.999Z</time>
      </trkpt>
      <trkpt lat="48.84982" lon="2.33828">
        <ele>93.71</ele>
        <time>2020-03-15T14:02:31.999Z</time>
      </trkpt>
      <trkpt lat="48.84981" lon="2.33825">
        <ele>93.94</ele>
        <time>2020-03-15T14:02:33.999Z</time>
      </trkpt>
      <trkpt lat="48.84981" lon="2.33822">
        <ele>94.16</ele>
        <time>2020-03-15T14:02:35.999Z</time>
      </trkpt>
      <trkpt lat="48.84982" lon="2.33821">
        <ele>94.27</ele>
        <time>2020-03-15T14:02:36.999Z</time>
      </trkpt>
      <trkpt lat="48.84983" lon="2.33818">
        <ele>94.38</ele>
        <time>2020-03-15T14:02:37.999Z</time>
      </trkpt>
      <trkpt lat="48.84983" lon="2.33814">
        <ele>94.48</ele>
        <time>2020-03-15T14:02:38.999Z</time>
      </trkpt>
      <trkpt lat="48.84983" lon="2.3381">
        <ele>94.58</ele>
        <time>2020-03-15T14:02:39.999Z</time>
      </trkpt>
      <trkpt lat="48.84984" lon="2.33805">
        <ele>94.68</ele>
        <time>2020-03-15T14:02:40.999Z</time>
      </trkpt>
      <trkpt lat="48.84985" lon="2.33801">
        <ele>94.78</ele>
        <time>2020-03-15T14:02:41.999Z</time>
      </trkpt>
      <trkpt lat="48.84985" lon="2.33797">
        <ele>94.87</ele>
        <time>2020-03-15T14:02:42.999Z</time>
      </trkpt>
      <trkpt lat="48.84985" lon="2.33795">
        <ele>94.96</ele>
        <time>2020-03-15T14:02:43.999Z</time>
      </trkpt>
      <trkpt lat="48.84982" lon="2.33795">
        <ele>95.04</ele>
        <time>2020-03-15T14:02:44.999Z</time>
      </trkpt>
      <trkpt lat="48.84978" lon="2.33795">
        <ele>95.12</ele>
        <time>2020-03-15T14:02:45.999Z</time>
      </trkpt>
      <trkpt lat="48.84974" lon="2.33795">
        <ele>95.19</ele>
        <time>2020-03-15T14:02:46.999Z</time>
      </trkpt>
      <trkpt lat="48.84969" lon="2.33796">
        <ele>95.92</ele>
        <time>2020-03-15T14:02:47.999Z</time>
      </trkpt>
      <trkpt lat="48.84963" lon="2.33796">
        <ele>96.42</ele>
        <time>2020-03-15T14:02:48.999Z</time>
      </trkpt>
      <trkpt lat="48.84958" lon="2.33795">
        <ele>96.45</ele>
        <time>2020-03-15T14:02:49.999Z</time>
      </trkpt>
      <trkpt lat="48.84954" lon="2.33795">
        <ele>96.49</ele>
        <time>2020-03-15T14:02:50.999Z</time>
      </trkpt>
      <trkpt lat="48.8495" lon="2.33796">
        <ele>96.51</ele>
        <time>2020-03-15T14:02:51.999Z</time>
      </trkpt>
      <trkpt lat="48.84945" lon="2.33796">
        <ele>96.53</ele>
        <time>2020-03-15T14:02:52.999Z</time>
      </trkpt>
      <trkpt lat="48.84941" lon="2.33798">
        <ele>96.55</ele>
        <time>2020-03-15T14:02:53.999Z</time>
      </trkpt>
      <trkpt lat="48.84937" lon="2.33797">
        <ele>96.56</ele>
        <time>2020-03-15T14:02:54.999Z</time>
      </trkpt>
      <trkpt lat="48.84933" lon="2.33795">
        <ele>96.57</ele>
        <time>2020-03-15T14:02:55.999Z</time>
      </trkpt>
      <trkpt lat="48.84931" lon="2.33791">
        <ele>96.57</ele>
        <time>2020-03-15T14:02:56.999Z</time>
      </trkpt>
      <trkpt lat="48.84931" lon="2.33784">
        <ele>96.57</ele>
        <time>2020-03-15T14:02:57.999Z</time>
      </trkpt>
      <trkpt lat="48.84931" lon="2.33777">
        <ele>96.57</ele>
        <time>2020-03-15T14:02:58.999Z</time>
      </trkpt>
      <trkpt lat="48.84931" lon="2.3377">
        <ele>96.53</ele>
        <time>2020-03-15T14:02:59.999Z</time>
      </trkpt>
      <trkpt lat="48.8493" lon="2.33763">
        <ele>96.53</ele>
        <time>2020-03-15T14:03:00.999Z</time>
      </trkpt>
      <trkpt lat="48.8493" lon="2.33754">
        <ele>96.49</ele>
        <time>2020-03-15T14:03:01.999Z</time>
      </trkpt>
      <trkpt lat="48.8493" lon="2.33745">
        <ele>96.47</ele>
        <time>2020-03-15T14:03:02.999Z</time>
      </trkpt>
      <trkpt lat="48.8493" lon="2.33738">
        <ele>96.44</ele>
        <time>2020-03-15T14:03:03.999Z</time>
      </trkpt>
      <trkpt lat="48.84928" lon="2.33729">
        <ele>96.44</ele>
        <time>2020-03-15T14:03:04.999Z</time>
      </trkpt>
      <trkpt lat="48.84927" lon="2.33723">
        <ele>96.41</ele>
        <time>2020-03-15T14:03:05.999Z</time>
      </trkpt>
      <trkpt lat="48.84926" lon="2.33717">
        <ele>96.38</ele>
        <time>2020-03-15T14:03:06.999Z</time>
      </trkpt>
      <trkpt lat="48.84926" lon="2.3371">
        <ele>96.37</ele>
        <time>2020-03-15T14:03:07.999Z</time>
      </trkpt>
      <trkpt lat="48.84926" lon="2.33702">
        <ele>96.34</ele>
        <time>2020-03-15T14:03:08.999Z</time>
      </trkpt>
      <trkpt lat="48.84926" lon="2.33693">
        <ele>96.32</ele>
        <time>2020-03-15T14:03:09.999Z</time>
      </trkpt>
      <trkpt lat="48.84926" lon="2.33685">
        <ele>96.31</ele>
        <time>2020-03-15T14:03:10.999Z</time>
      </trkpt>
      <trkpt lat="48.84925" lon="2.33676">
        <ele>96.29</ele>
        <time>2020-03-15T14:03:11.999Z</time>
      </trkpt>
      <trkpt lat="48.84925" lon="2.33669">
        <ele>96.27</ele>
        <time>2020-03-15T14:03:12.999Z</time>
      </trkpt>
      <trkpt lat="48.84924" lon="2.33661">
        <ele>96.26</ele>
        <time>2020-03-15T14:03:13.999Z</time>
      </trkpt>
      <trkpt lat="48.84924" lon="2.33653">
        <ele>96.25</ele>
        <time>2020-03-15T14:03:14.999Z</time>
      </trkpt>
      <trkpt lat="48.84924" lon="2.33645">
        <ele>96.23</ele>
        <time>2020-03-15T14:03:15.999Z</time>
      </trkpt>
      <trkpt lat="48.84923" lon="2.33637">
        <ele>96.23</ele>
        <time>2020-03-15T14:03:16.999Z</time>
      </trkpt>
      <trkpt lat="48.84923" lon="2.33629">
        <ele>96.22</ele>
        <time>2020-03-15T14:03:17.999Z</time>
      </trkpt>
      <trkpt lat="48.84922" lon="2.33621">
        <ele>96.2</ele>
        <time>2020-03-15T14:03:18.999Z</time>
      </trkpt>
      <trkpt lat="48.84923" lon="2.33612">
        <ele>96.19</ele>
        <time>2020-03-15T14:03:19.999Z</time>
      </trkpt>
      <trkpt lat="48.84923" lon="2.33604">
        <ele>96.17</ele>
        <time>2020-03-15T14:03:20.999Z</time>
      </trkpt>
      <trkpt lat="48.84924" lon="2.33597">
        <ele>96.15</ele>
        <time>2020-03-15T14:03:21.999Z</time>
      </trkpt>
      <trkpt lat="48.84924" lon="2.33589">
        <ele>96.12</ele>
        <time>2020-03-15T14:03:22.999Z</time>
      </trkpt>
      <trkpt lat="48.84925" lon="2.3358">
        <ele>96.08</ele>
        <time>2020-03-15T14:03:23.999Z</time>
      </trkpt>
      <trkpt lat="48.84924" lon="2.33573">
        <ele>96.06</ele>
        <time>2020-03-15T14:03:24.999Z</time>
      </trkpt>
      <trkpt lat="48.84924" lon="2.33566">
        <ele>96.03</ele>
        <time>2020-03-15T14:03:25.999Z</time>
      </trkpt>
      <trkpt lat="48.84924" lon="2.33558">
        <ele>96.03</ele>
        <time>2020-03-15T14:03:26.999Z</time>
      </trkpt>
      <trkpt lat="48.84924" lon="2.3355">
        <ele>96.04</ele>
        <time>2020-03-15T14:03:27.999Z</time>
      </trkpt>
      <trkpt lat="48.84922" lon="2.33543">
        <ele>96.04</ele>
        <time>2020-03-15T14:03:28.999Z</time>
      </trkpt>
      <trkpt lat="48.84921" lon="2.33536">
        <ele>96.06</ele>
        <time>2020-03-15T14:03:29.999Z</time>
      </trkpt>
      <trkpt lat="48.84919" lon="2.33529">
        <ele>96.06</ele>
        <time>2020-03-15T14:03:30.999Z</time>
      </trkpt>
      <trkpt lat="48.84918" lon="2.33522">
        <ele>96.05</ele>
        <time>2020-03-15T14:03:31.999Z</time>
      </trkpt>
      <trkpt lat="48.84916" lon="2.33516">
        <ele>96.03</ele>
        <time>2020-03-15T14:03:32.999Z</time>
      </trkpt>
      <trkpt lat="48.84915" lon="2.33508">
        <ele>96.01</ele>
        <time>2020-03-15T14:03:33.999Z</time>
      </trkpt>
      <trkpt lat="48.84914" lon="2.335">
        <ele>96</ele>
        <time>2020-03-15T14:03:34.999Z</time>
      </trkpt>
      <trkpt lat="48.84913" lon="2.33494">
        <ele>95.98</ele>
        <time>2020-03-15T14:03:35.999Z</time>
      </trkpt>
      <trkpt lat="48.84912" lon="2.33488">
        <ele>95.95</ele>
        <time>2020-03-15T14:03:36.999Z</time>
      </trkpt>
      <trkpt lat="48.84909" lon="2.33482">
        <ele>95.94</ele>
        <time>2020-03-15T14:03:37.999Z</time>
      </trkpt>
      <trkpt lat="48.84908" lon="2.33476">
        <ele>95.93</ele>
        <time>2020-03-15T14:03:38.999Z</time>
      </trkpt>
      <trkpt lat="48.84908" lon="2.3347">
        <ele>95.92</ele>
        <time>2020-03-15T14:03:39.999Z</time>
      </trkpt>
      <trkpt lat="48.84907" lon="2.33463">
        <ele>95.92</ele>
        <time>2020-03-15T14:03:40.999Z</time>
      </trkpt>
      <trkpt lat="48.84906" lon="2.33457">
        <ele>95.92</ele>
        <time>2020-03-15T14:03:41.999Z</time>
      </trkpt>
      <trkpt lat="48.84906" lon="2.33451">
        <ele>95.92</ele>
        <time>2020-03-15T14:03:42.999Z</time>
      </trkpt>
      <trkpt lat="48.84904" lon="2.33445">
        <ele>95.91</ele>
        <time>2020-03-15T14:03:43.999Z</time>
      </trkpt>
      <trkpt lat="48.84903" lon="2.33438">
        <ele>95.9</ele>
        <time>2020-03-15T14:03:44.999Z</time>
      </trkpt>
      <trkpt lat="48.84902" lon="2.33431">
        <ele>95.87</ele>
        <time>2020-03-15T14:03:45.999Z</time>
      </trkpt>
      <trkpt lat="48.84901" lon="2.33424">
        <ele>95.85</ele>
        <time>2020-03-15T14:03:46.999Z</time>
      </trkpt>
      <trkpt lat="48.849" lon="2.33418">
        <ele>95.82</ele>
        <time>2020-03-15T14:03:47.999Z</time>
      </trkpt>
      <trkpt lat="48.849" lon="2.33411">
        <ele>95.79</ele>
        <time>2020-03-15T14:03:48.999Z</time>
      </trkpt>
      <trkpt lat="48.84899" lon="2.33405">
        <ele>95.75</ele>
        <time>2020-03-15T14:03:49.999Z</time>
      </trkpt>
      <trkpt lat="48.84898" lon="2.33398">
        <ele>95.72</ele>
        <time>2020-03-15T14:03:50.999Z</time>
      </trkpt>
      <trkpt lat="48.84897" lon="2.33391">
        <ele>95.69</ele>
        <time>2020-03-15T14:03:51.999Z</time>
      </trkpt>
      <trkpt lat="48.84896" lon="2.33385">
        <ele>95.68</ele>
        <time>2020-03-15T14:03:52.999Z</time>
      </trkpt>
      <trkpt lat="48.84895" lon="2.33378">
        <ele>95.64</ele>
        <time>2020-03-15T14:03:53.999Z</time>
      </trkpt>
      <trkpt lat="48.84894" lon="2.33372">
        <ele>95.64</ele>
        <time>2020-03-15T14:03:54.999Z</time>
      </trkpt>
      <trkpt lat="48.84895" lon="2.33367">
        <ele>95.63</ele>
        <time>2020-03-15T14:03:55.999Z</time>
      </trkpt>
      <trkpt lat="48.84894" lon="2.33361">
        <ele>95.63</ele>
        <time>2020-03-15T14:03:56.999Z</time>
      </trkpt>
      <trkpt lat="48.84894" lon="2.33354">
        <ele>95.62</ele>
        <time>2020-03-15T14:03:57.999Z</time>
      </trkpt>
      <trkpt lat="48.84894" lon="2.33348">
        <ele>95.61</ele>
        <time>2020-03-15T14:03:58.999Z</time>
      </trkpt>
      <trkpt lat="48.84894" lon="2.33343">
        <ele>95.6</ele>
        <time>2020-03-15T14:03:59.999Z</time>
      </trkpt>
      <trkpt lat="48.84893" lon="2.33336">
        <ele>95.51</ele>
        <time>2020-03-15T14:04:00.999Z</time>
      </trkpt>
      <trkpt lat="48.84891" lon="2.33331">
        <ele>95.44</ele>
        <time>2020-03-15T14:04:01.999Z</time>
      </trkpt>
      <trkpt lat="48.8489" lon="2.33325">
        <ele>95.43</ele>
        <time>2020-03-15T14:04:02.999Z</time>
      </trkpt>
      <trkpt lat="48.84889" lon="2.33318">
        <ele>95.4</ele>
        <time>2020-03-15T14:04:03.999Z</time>
      </trkpt>
      <trkpt lat="48.84887" lon="2.33312">
        <ele>95.38</ele>
        <time>2020-03-15T14:04:04.999Z</time>
      </trkpt>
      <trkpt lat="48.84886" lon="2.33305">
        <ele>95.38</ele>
        <time>2020-03-15T14:04:05.999Z</time>
      </trkpt>
      <trkpt lat="48.84885" lon="2.33299">
        <ele>95.37</ele>
        <time>2020-03-15T14:04:06.999Z</time>
      </trkpt>
      <trkpt lat="48.84884" lon="2.33293">
        <ele>95.37</ele>
        <time>2020-03-15T14:04:07.999Z</time>
      </trkpt>
      <trkpt lat="48.84884" lon="2.33287">
        <ele>95.37</ele>
        <time>2020-03-15T14:04:08.999Z</time>
      </trkpt>
      <trkpt lat="48.84884" lon="2.33281">
        <ele>95.36</ele>
        <time>2020-03-15T14:04:09.999Z</time>
      </trkpt>
      <trkpt lat="48.84885" lon="2.33276">
        <ele>95.36</ele>
        <time>2020-03-15T14:04:10.999Z</time>
      </trkpt>
      <trkpt lat="48.84888" lon="2.33274">
        <ele>95.32</ele>
        <time>2020-03-15T14:04:11.999Z</time>
      </trkpt>
      <trkpt lat="48.84892" lon="2.33274">
        <ele>95.28</ele>
        <time>2020-03-15T14:04:12.999Z</time>
      </trkpt>
      <trkpt lat="48.84896" lon="2.33273">
        <ele>95.24</ele>
        <time>2020-03-15T14:04:13.999Z</time>
      </trkpt>
      <trkpt lat="48.84899" lon="2.3327">
        <ele>95.24</ele>
        <time>2020-03-15T14:04:14.999Z</time>
      </trkpt>
      <trkpt lat="48.84902" lon="2.33272">
        <ele>95.2</ele>
        <time>2020-03-15T14:04:15.999Z</time>
      </trkpt>
      <trkpt lat="48.84906" lon="2.33273">
        <ele>95.17</ele>
        <time>2020-03-15T14:04:16.999Z</time>
      </trkpt>
      <trkpt lat="48.84911" lon="2.33273">
        <ele>95.13</ele>
        <time>2020-03-15T14:04:17.999Z</time>
      </trkpt>
      <trkpt lat="48.84915" lon="2.33272">
        <ele>95.1</ele>
        <time>2020-03-15T14:04:18.999Z</time>
      </trkpt>
      <trkpt lat="48.8492" lon="2.33271">
        <ele>95.06</ele>
        <time>2020-03-15T14:04:19.999Z</time>
      </trkpt>
      <trkpt lat="48.84925" lon="2.3327">
        <ele>95.03</ele>
        <time>2020-03-15T14:04:20.999Z</time>
      </trkpt>
      <trkpt lat="48.84931" lon="2.3327">
        <ele>95.01</ele>
        <time>2020-03-15T14:04:21.999Z</time>
      </trkpt>
      <trkpt lat="48.84937" lon="2.33269">
        <ele>94.99</ele>
        <time>2020-03-15T14:04:22.999Z</time>
      </trkpt>
      <trkpt lat="48.84943" lon="2.33269">
        <ele>94.96</ele>
        <time>2020-03-15T14:04:23.999Z</time>
      </trkpt>
      <trkpt lat="48.84949" lon="2.33268">
        <ele>94.91</ele>
        <time>2020-03-15T14:04:24.999Z</time>
      </trkpt>
      <trkpt lat="48.84954" lon="2.33268">
        <ele>94.88</ele>
        <time>2020-03-15T14:04:25.999Z</time>
      </trkpt>
      <trkpt lat="48.84959" lon="2.33268">
        <ele>94.84</ele>
        <time>2020-03-15T14:04:26.999Z</time>
      </trkpt>
      <trkpt lat="48.84965" lon="2.33269">
        <ele>94.8</ele>
        <time>2020-03-15T14:04:27.999Z</time>
      </trkpt>
      <trkpt lat="48.84972" lon="2.33269">
        <ele>94.78</ele>
        <time>2020-03-15T14:04:28.999Z</time>
      </trkpt>
      <trkpt lat="48.84978" lon="2.33269">
        <ele>94.74</ele>
        <time>2020-03-15T14:04:29.999Z</time>
      </trkpt>
      <trkpt lat="48.84984" lon="2.33269">
        <ele>94.74</ele>
        <time>2020-03-15T14:04:30.999Z</time>
      </trkpt>
      <trkpt lat="48.84991" lon="2.33267">
        <ele>94.75</ele>
        <time>2020-03-15T14:04:31.999Z</time>
      </trkpt>
      <trkpt lat="48.84996" lon="2.33267">
        <ele>94.75</ele>
        <time>2020-03-15T14:04:32.999Z</time>
      </trkpt>
      <trkpt lat="48.85001" lon="2.33267">
        <ele>94.76</ele>
        <time>2020-03-15T14:04:33.999Z</time>
      </trkpt>
      <trkpt lat="48.85006" lon="2.33267">
        <ele>94.77</ele>
        <time>2020-03-15T14:04:34.999Z</time>
      </trkpt>
      <trkpt lat="48.85011" lon="2.33266">
        <ele>94.77</ele>
        <time>2020-03-15T14:04:35.999Z</time>
      </trkpt>
      <trkpt lat="48.85016" lon="2.33265">
        <ele>94.76</ele>
        <time>2020-03-15T14:04:36.999Z</time>
      </trkpt>
      <trkpt lat="48.85021" lon="2.33263">
        <ele>94.77</ele>
        <time>2020-03-15T14:04:37.999Z</time>
      </trkpt>
      <trkpt lat="48.85026" lon="2.33262">
        <ele>94.77</ele>
        <time>2020-03-15T14:04:38.999Z</time>
      </trkpt>
      <trkpt lat="48.85031" lon="2.3326">
        <ele>94.78</ele>
        <time>2020-03-15T14:04:39.999Z</time>
      </trkpt>
      <trkpt lat="48.85035" lon="2.33256">
        <ele>94.77</ele>
        <time>2020-03-15T14:04:40.999Z</time>
      </trkpt>
      <trkpt lat="48.85037" lon="2.33249">
        <ele>94.77</ele>
        <time>2020-03-15T14:04:41.999Z</time>
      </trkpt>
      <trkpt lat="48.85037" lon="2.3324">
        <ele>94.77</ele>
        <time>2020-03-15T14:04:42.999Z</time>
      </trkpt>
      <trkpt lat="48.85037" lon="2.33231">
        <ele>94.77</ele>
        <time>2020-03-15T14:04:43.999Z</time>
      </trkpt>
      <trkpt lat="48.85038" lon="2.33221">
        <ele>94.76</ele>
        <time>2020-03-15T14:04:44.999Z</time>
      </trkpt>
      <trkpt lat="48.85038" lon="2.33212">
        <ele>94.74</ele>
        <time>2020-03-15T14:04:45.999Z</time>
      </trkpt>
      <trkpt lat="48.85038" lon="2.33204">
        <ele>94.72</ele>
        <time>2020-03-15T14:04:46.999Z</time>
      </trkpt>
      <trkpt lat="48.85038" lon="2.33195">
        <ele>94.71</ele>
        <time>2020-03-15T14:04:47.999Z</time>
      </trkpt>
      <trkpt lat="48.85038" lon="2.33189">
        <ele>94.7</ele>
        <time>2020-03-15T14:04:48.999Z</time>
      </trkpt>
      <trkpt lat="48.85039" lon="2.33182">
        <ele>94.7</ele>
        <time>2020-03-15T14:04:49.999Z</time>
      </trkpt>
      <trkpt lat="48.8504" lon="2.33175">
        <ele>94.7</ele>
        <time>2020-03-15T14:04:50.999Z</time>
      </trkpt>
      <trkpt lat="48.85041" lon="2.33169">
        <ele>94.7</ele>
        <time>2020-03-15T14:04:51.999Z</time>
      </trkpt>
      <trkpt lat="48.85042" lon="2.3316">
        <ele>94.7</ele>
        <time>2020-03-15T14:04:52.999Z</time>
      </trkpt>
      <trkpt lat="48.85042" lon="2.33153">
        <ele>94.7</ele>
        <time>2020-03-15T14:04:53.999Z</time>
      </trkpt>
      <trkpt lat="48.85044" lon="2.33146">
        <ele>94.7</ele>
        <time>2020-03-15T14:04:54.999Z</time>
      </trkpt>
      <trkpt lat="48.85045" lon="2.33139">
        <ele>94.7</ele>
        <time>2020-03-15T14:04:55.999Z</time>
      </trkpt>
      <trkpt lat="48.85045" lon="2.33133">
        <ele>94.7</ele>
        <time>2020-03-15T14:04:56.999Z</time>
      </trkpt>
      <trkpt lat="48.85044" lon="2.33126">
        <ele>94.7</ele>
        <time>2020-03-15T14:04:57.999Z</time>
      </trkpt>
      <trkpt lat="48.85044" lon="2.33119">
        <ele>94.7</ele>
        <time>2020-03-15T14:04:58.999Z</time>
      </trkpt>
      <trkpt lat="48.85044" lon="2.33112">
        <ele>94.7</ele>
        <time>2020-03-15T14:04:59.999Z</time>
      </trkpt>
      <trkpt lat="48.85043" lon="2.33105">
        <ele>94.71</ele>
        <time>2020-03-15T14:05:00.999Z</time>
      </trkpt>
      <trkpt lat="48.85044" lon="2.33098">
        <ele>94.71</ele>
        <time>2020-03-15T14:05:01.999Z</time>
      </trkpt>
      <trkpt lat="48.85042" lon="2.33091">
        <ele>94.71</ele>
        <time>2020-03-15T14:05:02.999Z</time>
      </trkpt>
      <trkpt lat="48.85043" lon="2.33086">
        <ele>94.71</ele>
        <time>2020-03-15T14:05:03.999Z</time>
      </trkpt>
      <trkpt lat="48.85045" lon="2.33082">
        <ele>94.7</ele>
        <time>2020-03-15T14:05:04.999Z</time>
      </trkpt>
      <trkpt lat="48.85046" lon="2.33076">
        <ele>94.69</ele>
        <time>2020-03-15T14:05:05.999Z</time>
      </trkpt>
      <trkpt lat="48.85047" lon="2.33068">
        <ele>94.69</ele>
        <time>2020-03-15T14:05:06.999Z</time>
      </trkpt>
      <trkpt lat="48.85048" lon="2.33059">
        <ele>94.69</ele>
        <time>2020-03-15T14:05:07.999Z</time>
      </trkpt>
      <trkpt lat="48.85049" lon="2.33052">
        <ele>94.69</ele>
        <time>2020-03-15T14:05:08.999Z</time>
      </trkpt>
      <trkpt lat="48.85049" lon="2.33045">
        <ele>94.69</ele>
        <time>2020-03-15T14:05:09.999Z</time>
      </trkpt>
      <trkpt lat="48.85049" lon="2.3304">
        <ele>94.69</ele>
        <time>2020-03-15T14:05:10.999Z</time>
      </trkpt>
      <trkpt lat="48.85048" lon="2.33033">
        <ele>94.68</ele>
        <time>2020-03-15T14:05:11.999Z</time>
      </trkpt>
      <trkpt lat="48.85048" lon="2.33025">
        <ele>94.68</ele>
        <time>2020-03-15T14:05:12.999Z</time>
      </trkpt>
      <trkpt lat="48.8505" lon="2.33021">
        <ele>94.67</ele>
        <time>2020-03-15T14:05:13.999Z</time>
      </trkpt>
      <trkpt lat="48.85052" lon="2.33016">
        <ele>94.66</ele>
        <time>2020-03-15T14:05:14.999Z</time>
      </trkpt>
      <trkpt lat="48.85053" lon="2.33011">
        <ele>94.65</ele>
        <time>2020-03-15T14:05:15.999Z</time>
      </trkpt>
      <trkpt lat="48.85053" lon="2.33006">
        <ele>94.64</ele>
        <time>2020-03-15T14:05:16.999Z</time>
      </trkpt>
      <trkpt lat="48.85053" lon="2.33003">
        <ele>94.63</ele>
        <time>2020-03-15T14:05:17.999Z</time>
      </trkpt>
      <trkpt lat="48.85053" lon="2.33">
        <ele>94.62</ele>
        <time>2020-03-15T14:05:18.999Z</time>
      </trkpt>
      <trkpt lat="48.85053" lon="2.32998">
        <ele>94.62</ele>
        <time>2020-03-15T14:05:19.999Z</time>
      </trkpt>
      <trkpt lat="48.85053" lon="2.32995">
        <ele>94.61</ele>
        <time>2020-03-15T14:05:20.999Z</time>
      </trkpt>
      <trkpt lat="48.85053" lon="2.32994">
        <ele>94.61</ele>
        <time>2020-03-15T14:05:23.999Z</time>
      </trkpt>
      <trkpt lat="48.85053" lon="2.32989">
        <ele>94.61</ele>
        <time>2020-03-15T14:05:26.999Z</time>
      </trkpt>
      <trkpt lat="48.85053" lon="2.32987">
        <ele>94.62</ele>
        <time>2020-03-15T14:05:27.999Z</time>
      </trkpt>
      <trkpt lat="48.85052" lon="2.32985">
        <ele>94.62</ele>
        <time>2020-03-15T14:05:28.999Z</time>
      </trkpt>
      <trkpt lat="48.85052" lon="2.32983">
        <ele>94.62</ele>
        <time>2020-03-15T14:05:29.999Z</time>
      </trkpt>
      <trkpt lat="48.85053" lon="2.32985">
        <ele>94.62</ele>
        <time>2020-03-15T14:05:30.999Z</time>
      </trkpt>
      <trkpt lat="48.85052" lon="2.32983">
        <ele>94.63</ele>
        <time>2020-03-15T14:05:35.999Z</time>
      </trkpt>
      <trkpt lat="48.85051" lon="2.32982">
        <ele>94.63</ele>
        <time>2020-03-15T14:05:36.999Z</time>
      </trkpt>
      <trkpt lat="48.8505" lon="2.3298">
        <ele>94.64</ele>
        <time>2020-03-15T14:05:37.999Z</time>
      </trkpt>
      <trkpt lat="48.85049" lon="2.3298">
        <ele>94.64</ele>
        <time>2020-03-15T14:05:38.999Z</time>
      </trkpt>
      <trkpt lat="48.85047" lon="2.3298">
        <ele>94.66</ele>
        <time>2020-03-15T14:05:40.999Z</time>
      </trkpt>
      <trkpt lat="48.85045" lon="2.32979">
        <ele>94.67</ele>
        <time>2020-03-15T14:05:41.999Z</time>
      </trkpt>
      <trkpt lat="48.85043" lon="2.32978">
        <ele>94.67</ele>
        <time>2020-03-15T14:05:42.999Z</time>
      </trkpt>
      <trkpt lat="48.8504" lon="2.32976">
        <ele>94.68</ele>
        <time>2020-03-15T14:05:43.999Z</time>
      </trkpt>
      <trkpt lat="48.85038" lon="2.32976">
        <ele>94.69</ele>
        <time>2020-03-15T14:05:44.999Z</time>
      </trkpt>
      <trkpt lat="48.85034" lon="2.32974">
        <ele>94.7</ele>
        <time>2020-03-15T14:05:45.999Z</time>
      </trkpt>
      <trkpt lat="48.8503" lon="2.32972">
        <ele>94.71</ele>
        <time>2020-03-15T14:05:46.999Z</time>
      </trkpt>
      <trkpt lat="48.85027" lon="2.3297">
        <ele>94.72</ele>
        <time>2020-03-15T14:05:47.999Z</time>
      </trkpt>
      <trkpt lat="48.85023" lon="2.32968">
        <ele>94.72</ele>
        <time>2020-03-15T14:05:48.999Z</time>
      </trkpt>
      <trkpt lat="48.85019" lon="2.32966">
        <ele>94.73</ele>
        <time>2020-03-15T14:05:49.999Z</time>
      </trkpt>
      <trkpt lat="48.85015" lon="2.32965">
        <ele>94.74</ele>
        <time>2020-03-15T14:05:50.999Z</time>
      </trkpt>
      <trkpt lat="48.85011" lon="2.32966">
        <ele>94.75</ele>
        <time>2020-03-15T14:05:51.999Z</time>
      </trkpt>
      <trkpt lat="48.85007" lon="2.32966">
        <ele>94.76</ele>
        <time>2020-03-15T14:05:52.999Z</time>
      </trkpt>
      <trkpt lat="48.85004" lon="2.32964">
        <ele>94.76</ele>
        <time>2020-03-15T14:05:53.999Z</time>
      </trkpt>
      <trkpt lat="48.85" lon="2.32961">
        <ele>94.83</ele>
        <time>2020-03-15T14:05:54.999Z</time>
      </trkpt>
      <trkpt lat="48.84996" lon="2.32958">
        <ele>94.89</ele>
        <time>2020-03-15T14:05:55.999Z</time>
      </trkpt>
      <trkpt lat="48.84993" lon="2.32956">
        <ele>94.89</ele>
        <time>2020-03-15T14:05:56.999Z</time>
      </trkpt>
      <trkpt lat="48.84989" lon="2.32953">
        <ele>94.93</ele>
        <time>2020-03-15T14:05:57.999Z</time>
      </trkpt>
      <trkpt lat="48.84985" lon="2.3295">
        <ele>94.93</ele>
        <time>2020-03-15T14:05:58.999Z</time>
      </trkpt>
      <trkpt lat="48.84981" lon="2.32947">
        <ele>94.93</ele>
        <time>2020-03-15T14:05:59.999Z</time>
      </trkpt>
      <trkpt lat="48.84978" lon="2.32945">
        <ele>94.93</ele>
        <time>2020-03-15T14:06:00.999Z</time>
      </trkpt>
      <trkpt lat="48.84974" lon="2.32942">
        <ele>94.93</ele>
        <time>2020-03-15T14:06:01.999Z</time>
      </trkpt>
      <trkpt lat="48.8497" lon="2.3294">
        <ele>94.93</ele>
        <time>2020-03-15T14:06:02.999Z</time>
      </trkpt>
      <trkpt lat="48.84966" lon="2.32937">
        <ele>94.93</ele>
        <time>2020-03-15T14:06:03.999Z</time>
      </trkpt>
      <trkpt lat="48.84963" lon="2.32934">
        <ele>94.93</ele>
        <time>2020-03-15T14:06:04.999Z</time>
      </trkpt>
      <trkpt lat="48.84959" lon="2.32931">
        <ele>94.91</ele>
        <time>2020-03-15T14:06:05.999Z</time>
      </trkpt>
      <trkpt lat="48.84955" lon="2.32929">
        <ele>94.9</ele>
        <time>2020-03-15T14:06:06.999Z</time>
      </trkpt>
      <trkpt lat="48.84951" lon="2.32926">
        <ele>94.89</ele>
        <time>2020-03-15T14:06:07.999Z</time>
      </trkpt>
      <trkpt lat="48.84946" lon="2.32923">
        <ele>94.88</ele>
        <time>2020-03-15T14:06:08.999Z</time>
      </trkpt>
      <trkpt lat="48.84942" lon="2.3292">
        <ele>94.86</ele>
        <time>2020-03-15T14:06:09.999Z</time>
      </trkpt>
      <trkpt lat="48.84938" lon="2.32916">
        <ele>94.84</ele>
        <time>2020-03-15T14:06:10.999Z</time>
      </trkpt>
      <trkpt lat="48.84935" lon="2.32913">
        <ele>94.82</ele>
        <time>2020-03-15T14:06:11.999Z</time>
      </trkpt>
      <trkpt lat="48.84931" lon="2.3291">
        <ele>94.8</ele>
        <time>2020-03-15T14:06:12.999Z</time>
      </trkpt>
      <trkpt lat="48.84926" lon="2.32908">
        <ele>94.79</ele>
        <time>2020-03-15T14:06:13.999Z</time>
      </trkpt>
      <trkpt lat="48.84922" lon="2.32904">
        <ele>94.77</ele>
        <time>2020-03-15T14:06:14.999Z</time>
      </trkpt>
      <trkpt lat="48.84918" lon="2.32902">
        <ele>94.76</ele>
        <time>2020-03-15T14:06:15.999Z</time>
      </trkpt>
      <trkpt lat="48.84914" lon="2.32898">
        <ele>94.75</ele>
        <time>2020-03-15T14:06:16.999Z</time>
      </trkpt>
      <trkpt lat="48.8491" lon="2.32896">
        <ele>94.73</ele>
        <time>2020-03-15T14:06:17.999Z</time>
      </trkpt>
      <trkpt lat="48.84907" lon="2.32893">
        <ele>94.73</ele>
        <time>2020-03-15T14:06:18.999Z</time>
      </trkpt>
      <trkpt lat="48.84903" lon="2.32891">
        <ele>94.73</ele>
        <time>2020-03-15T14:06:19.999Z</time>
      </trkpt>
      <trkpt lat="48.84899" lon="2.32888">
        <ele>94.73</ele>
        <time>2020-03-15T14:06:20.999Z</time>
      </trkpt>
      <trkpt lat="48.84897" lon="2.32884">
        <ele>94.73</ele>
        <time>2020-03-15T14:06:21.999Z</time>
      </trkpt>
      <trkpt lat="48.84893" lon="2.3288">
        <ele>94.72</ele>
        <time>2020-03-15T14:06:22.999Z</time>
      </trkpt>
      <trkpt lat="48.8489" lon="2.32878">
        <ele>94.72</ele>
        <time>2020-03-15T14:06:23.999Z</time>
      </trkpt>
      <trkpt lat="48.84886" lon="2.32875">
        <ele>94.72</ele>
        <time>2020-03-15T14:06:24.999Z</time>
      </trkpt>
      <trkpt lat="48.84883" lon="2.32873">
        <ele>94.71</ele>
        <time>2020-03-15T14:06:26.000Z</time>
      </trkpt>
      <trkpt lat="48.8488" lon="2.3287">
        <ele>94.71</ele>
        <time>2020-03-15T14:06:27.000Z</time>
      </trkpt>
      <trkpt lat="48.84877" lon="2.32868">
        <ele>94.71</ele>
        <time>2020-03-15T14:06:28.000Z</time>
      </trkpt>
      <trkpt lat="48.84873" lon="2.32865">
        <ele>94.7</ele>
        <time>2020-03-15T14:06:29.000Z</time>
      </trkpt>
      <trkpt lat="48.8487" lon="2.32862">
        <ele>94.7</ele>
        <time>2020-03-15T14:06:30.000Z</time>
      </trkpt>
      <trkpt lat="48.84867" lon="2.3286">
        <ele>94.7</ele>
        <time>2020-03-15T14:06:31.000Z</time>
      </trkpt>
      <trkpt lat="48.84863" lon="2.32857">
        <ele>94.7</ele>
        <time>2020-03-15T14:06:32.000Z</time>
      </trkpt>
      <trkpt lat="48.8486" lon="2.32855">
        <ele>94.69</ele>
        <time>2020-03-15T14:06:33.000Z</time>
      </trkpt>
      <trkpt lat="48.84857" lon="2.32852">
        <ele>94.69</ele>
        <time>2020-03-15T14:06:34.000Z</time>
      </trkpt>
      <trkpt lat="48.84854" lon="2.32849">
        <ele>94.69</ele>
        <time>2020-03-15T14:06:35.000Z</time>
      </trkpt>
      <trkpt lat="48.84851" lon="2.32848">
        <ele>94.68</ele>
        <time>2020-03-15T14:06:36.000Z</time>
      </trkpt>
      <trkpt lat="48.84848" lon="2.32845">
        <ele>94.68</ele>
        <time>2020-03-15T14:06:37.000Z</time>
      </trkpt>
      <trkpt lat="48.84845" lon="2.32842">
        <ele>94.68</ele>
        <time>2020-03-15T14:06:38.000Z</time>
      </trkpt>
      <trkpt lat="48.84842" lon="2.32839">
        <ele>94.67</ele>
        <time>2020-03-15T14:06:39.000Z</time>
      </trkpt>
      <trkpt lat="48.84838" lon="2.32836">
        <ele>94.67</ele>
        <time>2020-03-15T14:06:40.000Z</time>
      </trkpt>
      <trkpt lat="48.84836" lon="2.32832">
        <ele>94.66</ele>
        <time>2020-03-15T14:06:41.000Z</time>
      </trkpt>
      <trkpt lat="48.84833" lon="2.32829">
        <ele>94.66</ele>
        <time>2020-03-15T14:06:42.000Z</time>
      </trkpt>
      <trkpt lat="48.8483" lon="2.32825">
        <ele>94.65</ele>
        <time>2020-03-15T14:06:43.000Z</time>
      </trkpt>
      <trkpt lat="48.84827" lon="2.3282">
        <ele>94.64</ele>
        <time>2020-03-15T14:06:44.000Z</time>
      </trkpt>
      <trkpt lat="48.84825" lon="2.32816">
        <ele>94.64</ele>
        <time>2020-03-15T14:06:45.000Z</time>
      </trkpt>
      <trkpt lat="48.84823" lon="2.32809">
        <ele>94.63</ele>
        <time>2020-03-15T14:06:46.000Z</time>
      </trkpt>
      <trkpt lat="48.84824" lon="2.32803">
        <ele>94.62</ele>
        <time>2020-03-15T14:06:47.000Z</time>
      </trkpt>
      <trkpt lat="48.84825" lon="2.32799">
        <ele>94.61</ele>
        <time>2020-03-15T14:06:48.000Z</time>
      </trkpt>
      <trkpt lat="48.84828" lon="2.32795">
        <ele>94.6</ele>
        <time>2020-03-15T14:06:49.000Z</time>
      </trkpt>
      <trkpt lat="48.8483" lon="2.32794">
        <ele>94.59</ele>
        <time>2020-03-15T14:06:50.000Z</time>
      </trkpt>
      <trkpt lat="48.84833" lon="2.32794">
        <ele>94.57</ele>
        <time>2020-03-15T14:06:51.000Z</time>
      </trkpt>
      <trkpt lat="48.84836" lon="2.32794">
        <ele>94.56</ele>
        <time>2020-03-15T14:06:52.000Z</time>
      </trkpt>
      <trkpt lat="48.84839" lon="2.32793">
        <ele>94.55</ele>
        <time>2020-03-15T14:06:53.000Z</time>
      </trkpt>
      <trkpt lat="48.84843" lon="2.32791">
        <ele>94.53</ele>
        <time>2020-03-15T14:06:54.000Z</time>
      </trkpt>
      <trkpt lat="48.84847" lon="2.32789">
        <ele>94.51</ele>
        <time>2020-03-15T14:06:55.000Z</time>
      </trkpt>
      <trkpt lat="48.84852" lon="2.32787">
        <ele>94.49</ele>
        <time>2020-03-15T14:06:56.000Z</time>
      </trkpt>
      <trkpt lat="48.84856" lon="2.32785">
        <ele>94.47</ele>
        <time>2020-03-15T14:06:57.000Z</time>
      </trkpt>
      <trkpt lat="48.84861" lon="2.32784">
        <ele>94.45</ele>
        <time>2020-03-15T14:06:58.000Z</time>
      </trkpt>
      <trkpt lat="48.84865" lon="2.32782">
        <ele>94.23</ele>
        <time>2020-03-15T14:06:59.000Z</time>
      </trkpt>
      <trkpt lat="48.8487" lon="2.32781">
        <ele>94.05</ele>
        <time>2020-03-15T14:07:00.000Z</time>
      </trkpt>
      <trkpt lat="48.84874" lon="2.3278">
        <ele>94.04</ele>
        <time>2020-03-15T14:07:01.000Z</time>
      </trkpt>
      <trkpt lat="48.84878" lon="2.32781">
        <ele>94.03</ele>
        <time>2020-03-15T14:07:02.000Z</time>
      </trkpt>
      <trkpt lat="48.84881" lon="2.32781">
        <ele>94.01</ele>
        <time>2020-03-15T14:07:03.000Z</time>
      </trkpt>
      <trkpt lat="48.84885" lon="2.32781">
        <ele>93.99</ele>
        <time>2020-03-15T14:07:04.000Z</time>
      </trkpt>
      <trkpt lat="48.84889" lon="2.3278">
        <ele>93.67</ele>
        <time>2020-03-15T14:07:05.000Z</time>
      </trkpt>
      <trkpt lat="48.84894" lon="2.32779">
        <ele>93.64</ele>
        <time>2020-03-15T14:07:06.000Z</time>
      </trkpt>
      <trkpt lat="48.84898" lon="2.32778">
        <ele>93.6</ele>
        <time>2020-03-15T14:07:07.000Z</time>
      </trkpt>
      <trkpt lat="48.84902" lon="2.32775">
        <ele>92.97</ele>
        <time>2020-03-15T14:07:08.000Z</time>
      </trkpt>
      <trkpt lat="48.84907" lon="2.3277">
        <ele>92.42</ele>
        <time>2020-03-15T14:07:09.000Z</time>
      </trkpt>
      <trkpt lat="48.84912" lon="2.32769">
        <ele>91.9</ele>
        <time>2020-03-15T14:07:10.000Z</time>
      </trkpt>
      <trkpt lat="48.84917" lon="2.32766">
        <ele>91.47</ele>
        <time>2020-03-15T14:07:11.000Z</time>
      </trkpt>
      <trkpt lat="48.84922" lon="2.32763">
        <ele>91.12</ele>
        <time>2020-03-15T14:07:12.000Z</time>
      </trkpt>
      <trkpt lat="48.84926" lon="2.32762">
        <ele>90.85</ele>
        <time>2020-03-15T14:07:13.000Z</time>
      </trkpt>
      <trkpt lat="48.84931" lon="2.32761">
        <ele>90.61</ele>
        <time>2020-03-15T14:07:14.000Z</time>
      </trkpt>
      <trkpt lat="48.84937" lon="2.32761">
        <ele>90.41</ele>
        <time>2020-03-15T14:07:15.000Z</time>
      </trkpt>
      <trkpt lat="48.84942" lon="2.3276">
        <ele>90.23</ele>
        <time>2020-03-15T14:07:16.000Z</time>
      </trkpt>
      <trkpt lat="48.84947" lon="2.32759">
        <ele>90.1</ele>
        <time>2020-03-15T14:07:17.000Z</time>
      </trkpt>
      <trkpt lat="48.84955" lon="2.32755">
        <ele>89.97</ele>
        <time>2020-03-15T14:07:18.000Z</time>
      </trkpt>
      <trkpt lat="48.84961" lon="2.32752">
        <ele>89.87</ele>
        <time>2020-03-15T14:07:19.000Z</time>
      </trkpt>
      <trkpt lat="48.84967" lon="2.32748">
        <ele>89.8</ele>
        <time>2020-03-15T14:07:20.000Z</time>
      </trkpt>
      <trkpt lat="48.84971" lon="2.32746">
        <ele>89.75</ele>
        <time>2020-03-15T14:07:21.000Z</time>
      </trkpt>
      <trkpt lat="48.84975" lon="2.32746">
        <ele>89.75</ele>
        <time>2020-03-15T14:07:22.000Z</time>
      </trkpt>
      <trkpt lat="48.8498" lon="2.32747">
        <ele>89.75</ele>
        <time>2020-03-15T14:07:23.000Z</time>
      </trkpt>
      <trkpt lat="48.84984" lon="2.32748">
        <ele>89.75</ele>
        <time>2020-03-15T14:07:24.000Z</time>
      </trkpt>
      <trkpt lat="48.84986" lon="2.32748">
        <ele>89.75</ele>
        <time>2020-03-15T14:07:25.000Z</time>
      </trkpt>
      <trkpt lat="48.8499" lon="2.32748">
        <ele>89.75</ele>
        <time>2020-03-15T14:07:26.000Z</time>
      </trkpt>
      <trkpt lat="48.84993" lon="2.32747">
        <ele>89.76</ele>
        <time>2020-03-15T14:07:27.000Z</time>
      </trkpt>
      <trkpt lat="48.84995" lon="2.32742">
        <ele>89.77</ele>
        <time>2020-03-15T14:07:28.000Z</time>
      </trkpt>
      <trkpt lat="48.84997" lon="2.32737">
        <ele>89.8</ele>
        <time>2020-03-15T14:07:29.000Z</time>
      </trkpt>
      <trkpt lat="48.85" lon="2.32734">
        <ele>90.01</ele>
        <time>2020-03-15T14:07:30.000Z</time>
      </trkpt>
      <trkpt lat="48.85006" lon="2.3273">
        <ele>90.19</ele>
        <time>2020-03-15T14:07:31.000Z</time>
      </trkpt>
      <trkpt lat="48.8501" lon="2.32725">
        <ele>90.41</ele>
        <time>2020-03-15T14:07:32.000Z</time>
      </trkpt>
      <trkpt lat="48.85015" lon="2.32717">
        <ele>90.43</ele>
        <time>2020-03-15T14:07:33.000Z</time>
      </trkpt>
      <trkpt lat="48.85019" lon="2.32715">
        <ele>90.71</ele>
        <time>2020-03-15T14:07:34.000Z</time>
      </trkpt>
      <trkpt lat="48.85025" lon="2.32713">
        <ele>90.93</ele>
        <time>2020-03-15T14:07:35.000Z</time>
      </trkpt>
      <trkpt lat="48.85033" lon="2.32713">
        <ele>91.14</ele>
        <time>2020-03-15T14:07:36.000Z</time>
      </trkpt>
      <trkpt lat="48.85037" lon="2.32714">
        <ele>91.32</ele>
        <time>2020-03-15T14:07:37.000Z</time>
      </trkpt>
      <trkpt lat="48.85042" lon="2.32715">
        <ele>91.33</ele>
        <time>2020-03-15T14:07:38.000Z</time>
      </trkpt>
      <trkpt lat="48.85047" lon="2.32714">
        <ele>91.35</ele>
        <time>2020-03-15T14:07:39.000Z</time>
      </trkpt>
      <trkpt lat="48.85052" lon="2.32713">
        <ele>91.37</ele>
        <time>2020-03-15T14:07:40.000Z</time>
      </trkpt>
      <trkpt lat="48.85056" lon="2.32712">
        <ele>91.39</ele>
        <time>2020-03-15T14:07:41.000Z</time>
      </trkpt>
      <trkpt lat="48.85061" lon="2.32711">
        <ele>91.41</ele>
        <time>2020-03-15T14:07:42.000Z</time>
      </trkpt>
      <trkpt lat="48.85065" lon="2.3271">
        <ele>91.44</ele>
        <time>2020-03-15T14:07:43.000Z</time>
      </trkpt>
      <trkpt lat="48.8507" lon="2.32705">
        <ele>91.46</ele>
        <time>2020-03-15T14:07:44.000Z</time>
      </trkpt>
      <trkpt lat="48.85077" lon="2.327">
        <ele>91.49</ele>
        <time>2020-03-15T14:07:45.000Z</time>
      </trkpt>
      <trkpt lat="48.85084" lon="2.32694">
        <ele>91.51</ele>
        <time>2020-03-15T14:07:46.000Z</time>
      </trkpt>
      <trkpt lat="48.8509" lon="2.32691">
        <ele>91.53</ele>
        <time>2020-03-15T14:07:47.000Z</time>
      </trkpt>
      <trkpt lat="48.85095" lon="2.32688">
        <ele>91.56</ele>
        <time>2020-03-15T14:07:48.000Z</time>
      </trkpt>
      <trkpt lat="48.85099" lon="2.32685">
        <ele>91.58</ele>
        <time>2020-03-15T14:07:49.000Z</time>
      </trkpt>
      <trkpt lat="48.85104" lon="2.32682">
        <ele>91.6</ele>
        <time>2020-03-15T14:07:50.000Z</time>
      </trkpt>
      <trkpt lat="48.85109" lon="2.3268">
        <ele>91.62</ele>
        <time>2020-03-15T14:07:51.000Z</time>
      </trkpt>
      <trkpt lat="48.85112" lon="2.32679">
        <ele>91.64</ele>
        <time>2020-03-15T14:07:52.000Z</time>
      </trkpt>
      <trkpt lat="48.85116" lon="2.32678">
        <ele>91.66</ele>
        <time>2020-03-15T14:07:53.000Z</time>
      </trkpt>
      <trkpt lat="48.85119" lon="2.32678">
        <ele>91.68</ele>
        <time>2020-03-15T14:07:54.000Z</time>
      </trkpt>
      <trkpt lat="48.85122" lon="2.32678">
        <ele>91.7</ele>
        <time>2020-03-15T14:07:55.000Z</time>
      </trkpt>
      <trkpt lat="48.85126" lon="2.32678">
        <ele>91.71</ele>
        <time>2020-03-15T14:07:56.000Z</time>
      </trkpt>
      <trkpt lat="48.85129" lon="2.32678">
        <ele>91.73</ele>
        <time>2020-03-15T14:07:57.000Z</time>
      </trkpt>
      <trkpt lat="48.8513" lon="2.32679">
        <ele>91.75</ele>
        <time>2020-03-15T14:07:58.000Z</time>
      </trkpt>
      <trkpt lat="48.85132" lon="2.3268">
        <ele>91.77</ele>
        <time>2020-03-15T14:07:59.000Z</time>
      </trkpt>
      <trkpt lat="48.85133" lon="2.32681">
        <ele>91.79</ele>
        <time>2020-03-15T14:08:00.000Z</time>
      </trkpt>
      <trkpt lat="48.85135" lon="2.32682">
        <ele>91.83</ele>
        <time>2020-03-15T14:08:02.000Z</time>
      </trkpt>
      <trkpt lat="48.85138" lon="2.32684">
        <ele>91.84</ele>
        <time>2020-03-15T14:08:03.000Z</time>
      </trkpt>
      <trkpt lat="48.85139" lon="2.32684">
        <ele>91.87</ele>
        <time>2020-03-15T14:08:06.000Z</time>
      </trkpt>
      <trkpt lat="48.8514" lon="2.32685">
        <ele>91.88</ele>
        <time>2020-03-15T14:08:07.000Z</time>
      </trkpt>
      <trkpt lat="48.85141" lon="2.32685">
        <ele>91.89</ele>
        <time>2020-03-15T14:08:09.000Z</time>
      </trkpt>
      <trkpt lat="48.85142" lon="2.32686">
        <ele>91.9</ele>
        <time>2020-03-15T14:08:10.000Z</time>
      </trkpt>
      <trkpt lat="48.85145" lon="2.32688">
        <ele>91.9</ele>
        <time>2020-03-15T14:08:11.000Z</time>
      </trkpt>
      <trkpt lat="48.85146" lon="2.3269">
        <ele>91.91</ele>
        <time>2020-03-15T14:08:12.000Z</time>
      </trkpt>
      <trkpt lat="48.85148" lon="2.32692">
        <ele>91.91</ele>
        <time>2020-03-15T14:08:13.000Z</time>
      </trkpt>
      <trkpt lat="48.85151" lon="2.32692">
        <ele>91.9</ele>
        <time>2020-03-15T14:08:15.000Z</time>
      </trkpt>
      <trkpt lat="48.85153" lon="2.32691">
        <ele>91.89</ele>
        <time>2020-03-15T14:08:17.000Z</time>
      </trkpt>
      <trkpt lat="48.85155" lon="2.32691">
        <ele>91.88</ele>
        <time>2020-03-15T14:08:18.000Z</time>
      </trkpt>
      <trkpt lat="48.85157" lon="2.3269">
        <ele>91.88</ele>
        <time>2020-03-15T14:08:19.000Z</time>
      </trkpt>
      <trkpt lat="48.85159" lon="2.3269">
        <ele>91.87</ele>
        <time>2020-03-15T14:08:20.000Z</time>
      </trkpt>
      <trkpt lat="48.85161" lon="2.32689">
        <ele>91.86</ele>
        <time>2020-03-15T14:08:21.000Z</time>
      </trkpt>
      <trkpt lat="48.85163" lon="2.32688">
        <ele>91.85</ele>
        <time>2020-03-15T14:08:22.000Z</time>
      </trkpt>
      <trkpt lat="48.85166" lon="2.32688">
        <ele>91.84</ele>
        <time>2020-03-15T14:08:23.000Z</time>
      </trkpt>
      <trkpt lat="48.85168" lon="2.32687">
        <ele>91.83</ele>
        <time>2020-03-15T14:08:24.000Z</time>
      </trkpt>
      <trkpt lat="48.85171" lon="2.32686">
        <ele>91.82</ele>
        <time>2020-03-15T14:08:25.000Z</time>
      </trkpt>
      <trkpt lat="48.85174" lon="2.32684">
        <ele>91.81</ele>
        <time>2020-03-15T14:08:26.000Z</time>
      </trkpt>
      <trkpt lat="48.85177" lon="2.32684">
        <ele>91.8</ele>
        <time>2020-03-15T14:08:27.000Z</time>
      </trkpt>
      <trkpt lat="48.8518" lon="2.32683">
        <ele>91.79</ele>
        <time>2020-03-15T14:08:28.000Z</time>
      </trkpt>
      <trkpt lat="48.85183" lon="2.32682">
        <ele>91.78</ele>
        <time>2020-03-15T14:08:29.000Z</time>
      </trkpt>
      <trkpt lat="48.85186" lon="2.32682">
        <ele>91.76</ele>
        <time>2020-03-15T14:08:30.000Z</time>
      </trkpt>
      <trkpt lat="48.85189" lon="2.32681">
        <ele>91.75</ele>
        <time>2020-03-15T14:08:31.000Z</time>
      </trkpt>
      <trkpt lat="48.85192" lon="2.3268">
        <ele>91.74</ele>
        <time>2020-03-15T14:08:32.000Z</time>
      </trkpt>
      <trkpt lat="48.85195" lon="2.32679">
        <ele>91.73</ele>
        <time>2020-03-15T14:08:33.000Z</time>
      </trkpt>
      <trkpt lat="48.85197" lon="2.32678">
        <ele>91.72</ele>
        <time>2020-03-15T14:08:34.000Z</time>
      </trkpt>
      <trkpt lat="48.85198" lon="2.32676">
        <ele>91.72</ele>
        <time>2020-03-15T14:08:35.000Z</time>
      </trkpt>
      <trkpt lat="48.85198" lon="2.32673">
        <ele>91.72</ele>
        <time>2020-03-15T14:08:36.000Z</time>
      </trkpt>
      <trkpt lat="48.85202" lon="2.32671">
        <ele>91.73</ele>
        <time>2020-03-15T14:08:37.000Z</time>
      </trkpt>
      <trkpt lat="48.85206" lon="2.32669">
        <ele>91.74</ele>
        <time>2020-03-15T14:08:38.000Z</time>
      </trkpt>
      <trkpt lat="48.85211" lon="2.32667">
        <ele>91.75</ele>
        <time>2020-03-15T14:08:39.000Z</time>
      </trkpt>
      <trkpt lat="48.85215" lon="2.32667">
        <ele>91.76</ele>
        <time>2020-03-15T14:08:40.000Z</time>
      </trkpt>
      <trkpt lat="48.85217" lon="2.32666">
        <ele>91.77</ele>
        <time>2020-03-15T14:08:41.000Z</time>
      </trkpt>
      <trkpt lat="48.8522" lon="2.32665">
        <ele>91.78</ele>
        <time>2020-03-15T14:08:42.000Z</time>
      </trkpt>
      <trkpt lat="48.85225" lon="2.32663">
        <ele>91.79</ele>
        <time>2020-03-15T14:08:43.000Z</time>
      </trkpt>
      <trkpt lat="48.85228" lon="2.32661">
        <ele>91.8</ele>
        <time>2020-03-15T14:08:44.000Z</time>
      </trkpt>
      <trkpt lat="48.85232" lon="2.32659">
        <ele>91.81</ele>
        <time>2020-03-15T14:08:45.000Z</time>
      </trkpt>
      <trkpt lat="48.85234" lon="2.32655">
        <ele>91.82</ele>
        <time>2020-03-15T14:08:46.000Z</time>
      </trkpt>
      <trkpt lat="48.85235" lon="2.32649">
        <ele>91.83</ele>
        <time>2020-03-15T14:08:47.000Z</time>
      </trkpt>
      <trkpt lat="48.85237" lon="2.32642">
        <ele>91.84</ele>
        <time>2020-03-15T14:08:48.000Z</time>
      </trkpt>
      <trkpt lat="48.85238" lon="2.32636">
        <ele>91.85</ele>
        <time>2020-03-15T14:08:49.000Z</time>
      </trkpt>
      <trkpt lat="48.85239" lon="2.3263">
        <ele>91.86</ele>
        <time>2020-03-15T14:08:50.000Z</time>
      </trkpt>
      <trkpt lat="48.85238" lon="2.32623">
        <ele>91.88</ele>
        <time>2020-03-15T14:08:51.000Z</time>
      </trkpt>
      <trkpt lat="48.85238" lon="2.32617">
        <ele>91.89</ele>
        <time>2020-03-15T14:08:52.000Z</time>
      </trkpt>
      <trkpt lat="48.85236" lon="2.32612">
        <ele>91.9</ele>
        <time>2020-03-15T14:08:53.000Z</time>
      </trkpt>
      <trkpt lat="48.85235" lon="2.32606">
        <ele>91.91</ele>
        <time>2020-03-15T14:08:54.000Z</time>
      </trkpt>
      <trkpt lat="48.85233" lon="2.32601">
        <ele>91.92</ele>
        <time>2020-03-15T14:08:55.000Z</time>
      </trkpt>
      <trkpt lat="48.85231" lon="2.32596">
        <ele>91.93</ele>
        <time>2020-03-15T14:08:56.000Z</time>
      </trkpt>
      <trkpt lat="48.8523" lon="2.32591">
        <ele>91.94</ele>
        <time>2020-03-15T14:08:57.000Z</time>
      </trkpt>
      <trkpt lat="48.85228" lon="2.32586">
        <ele>91.95</ele>
        <time>2020-03-15T14:08:58.000Z</time>
      </trkpt>
      <trkpt lat="48.85226" lon="2.32582">
        <ele>91.96</ele>
        <time>2020-03-15T14:08:59.000Z</time>
      </trkpt>
      <trkpt lat="48.85225" lon="2.32577">
        <ele>91.97</ele>
        <time>2020-03-15T14:09:00.000Z</time>
      </trkpt>
      <trkpt lat="48.85223" lon="2.32572">
        <ele>91.98</ele>
        <time>2020-03-15T14:09:01.000Z</time>
      </trkpt>
      <trkpt lat="48.85221" lon="2.32566">
        <ele>91.99</ele>
        <time>2020-03-15T14:09:02.000Z</time>
      </trkpt>
      <trkpt lat="48.85219" lon="2.32561">
        <ele>92</ele>
        <time>2020-03-15T14:09:03.000Z</time>
      </trkpt>
      <trkpt lat="48.85218" lon="2.32556">
        <ele>92</ele>
        <time>2020-03-15T14:09:04.000Z</time>
      </trkpt>
      <trkpt lat="48.85216" lon="2.32551">
        <ele>92.01</ele>
        <time>2020-03-15T14:09:05.000Z</time>
      </trkpt>
      <trkpt lat="48.85215" lon="2.32547">
        <ele>92.02</ele>
        <time>2020-03-15T14:09:06.000Z</time>
      </trkpt>
      <trkpt lat="48.85214" lon="2.32541">
        <ele>92.03</ele>
        <time>2020-03-15T14:09:07.000Z</time>
      </trkpt>
      <trkpt lat="48.85213" lon="2.32536">
        <ele>92.03</ele>
        <time>2020-03-15T14:09:08.000Z</time>
      </trkpt>
      <trkpt lat="48.85211" lon="2.32531">
        <ele>92.04</ele>
        <time>2020-03-15T14:09:09.000Z</time>
      </trkpt>
      <trkpt lat="48.8521" lon="2.32524">
        <ele>92.05</ele>
        <time>2020-03-15T14:09:10.000Z</time>
      </trkpt>
      <trkpt lat="48.85208" lon="2.32519">
        <ele>92.06</ele>
        <time>2020-03-15T14:09:11.000Z</time>
      </trkpt>
      <trkpt lat="48.85207" lon="2.32513">
        <ele>92.06</ele>
        <time>2020-03-15T14:09:12.000Z</time>
      </trkpt>
      <trkpt lat="48.85206" lon="2.32507">
        <ele>92.14</ele>
        <time>2020-03-15T14:09:13.000Z</time>
      </trkpt>
      <trkpt lat="48.85207" lon="2.325">
        <ele>92.22</ele>
        <time>2020-03-15T14:09:14.000Z</time>
      </trkpt>
      <trkpt lat="48.85207" lon="2.32494">
        <ele>92.22</ele>
        <time>2020-03-15T14:09:15.000Z</time>
      </trkpt>
      <trkpt lat="48.85205" lon="2.32488">
        <ele>92.23</ele>
        <time>2020-03-15T14:09:16.000Z</time>
      </trkpt>
      <trkpt lat="48.85203" lon="2.32482">
        <ele>92.24</ele>
        <time>2020-03-15T14:09:17.000Z</time>
      </trkpt>
      <trkpt lat="48.85201" lon="2.32476">
        <ele>92.25</ele>
        <time>2020-03-15T14:09:18.000Z</time>
      </trkpt>
      <trkpt lat="48.85199" lon="2.32471">
        <ele>92.26</ele>
        <time>2020-03-15T14:09:19.000Z</time>
      </trkpt>
      <trkpt lat="48.85197" lon="2.32466">
        <ele>92.28</ele>
        <time>2020-03-15T14:09:20.000Z</time>
      </trkpt>
      <trkpt lat="48.85195" lon="2.3246">
        <ele>92.29</ele>
        <time>2020-03-15T14:09:21.000Z</time>
      </trkpt>
      <trkpt lat="48.85194" lon="2.32454">
        <ele>92.3</ele>
        <time>2020-03-15T14:09:22.000Z</time>
      </trkpt>
      <trkpt lat="48.85192" lon="2.32448">
        <ele>92.46</ele>
        <time>2020-03-15T14:09:23.000Z</time>
      </trkpt>
      <trkpt lat="48.85191" lon="2.32441">
        <ele>92.59</ele>
        <time>2020-03-15T14:09:24.000Z</time>
      </trkpt>
      <trkpt lat="48.85191" lon="2.32434">
        <ele>92.7</ele>
        <time>2020-03-15T14:09:25.000Z</time>
      </trkpt>
      <trkpt lat="48.8519" lon="2.32427">
        <ele>92.71</ele>
        <time>2020-03-15T14:09:26.000Z</time>
      </trkpt>
      <trkpt lat="48.8519" lon="2.32422">
        <ele>92.71</ele>
        <time>2020-03-15T14:09:27.000Z</time>
      </trkpt>
      <trkpt lat="48.85191" lon="2.32417">
        <ele>92.78</ele>
        <time>2020-03-15T14:09:28.000Z</time>
      </trkpt>
      <trkpt lat="48.85193" lon="2.32411">
        <ele>92.79</ele>
        <time>2020-03-15T14:09:29.000Z</time>
      </trkpt>
      <trkpt lat="48.85194" lon="2.32407">
        <ele>92.8</ele>
        <time>2020-03-15T14:09:30.000Z</time>
      </trkpt>
      <trkpt lat="48.85193" lon="2.32401">
        <ele>92.8</ele>
        <time>2020-03-15T14:09:31.000Z</time>
      </trkpt>
      <trkpt lat="48.85192" lon="2.32396">
        <ele>92.86</ele>
        <time>2020-03-15T14:09:32.000Z</time>
      </trkpt>
      <trkpt lat="48.85192" lon="2.3239">
        <ele>92.91</ele>
        <time>2020-03-15T14:09:33.000Z</time>
      </trkpt>
      <trkpt lat="48.85192" lon="2.32384">
        <ele>92.91</ele>
        <time>2020-03-15T14:09:34.000Z</time>
      </trkpt>
      <trkpt lat="48.85192" lon="2.32379">
        <ele>92.91</ele>
        <time>2020-03-15T14:09:35.000Z</time>
      </trkpt>
      <trkpt lat="48.85191" lon="2.32374">
        <ele>92.92</ele>
        <time>2020-03-15T14:09:36.000Z</time>
      </trkpt>
      <trkpt lat="48.8519" lon="2.32369">
        <ele>92.92</ele>
        <time>2020-03-15T14:09:37.000Z</time>
      </trkpt>
      <trkpt lat="48.85188" lon="2.32364">
        <ele>92.92</ele>
        <time>2020-03-15T14:09:38.000Z</time>
      </trkpt>
      <trkpt lat="48.85187" lon="2.32359">
        <ele>92.92</ele>
        <time>2020-03-15T14:09:39.000Z</time>
      </trkpt>
      <trkpt lat="48.85188" lon="2.32354">
        <ele>92.93</ele>
        <time>2020-03-15T14:09:40.000Z</time>
      </trkpt>
      <trkpt lat="48.85188" lon="2.32349">
        <ele>92.94</ele>
        <time>2020-03-15T14:09:41.000Z</time>
      </trkpt>
      <trkpt lat="48.85188" lon="2.32341">
        <ele>92.95</ele>
        <time>2020-03-15T14:09:42.000Z</time>
      </trkpt>
      <trkpt lat="48.85188" lon="2.32333">
        <ele>92.97</ele>
        <time>2020-03-15T14:09:43.000Z</time>
      </trkpt>
      <trkpt lat="48.85188" lon="2.32325">
        <ele>92.98</ele>
        <time>2020-03-15T14:09:44.000Z</time>
      </trkpt>
      <trkpt lat="48.85188" lon="2.32318">
        <ele>93</ele>
        <time>2020-03-15T14:09:45.000Z</time>
      </trkpt>
      <trkpt lat="48.85188" lon="2.32311">
        <ele>93</ele>
        <time>2020-03-15T14:09:46.000Z</time>
      </trkpt>
      <trkpt lat="48.85188" lon="2.32304">
        <ele>93.01</ele>
        <time>2020-03-15T14:09:47.000Z</time>
      </trkpt>
      <trkpt lat="48.85188" lon="2.32297">
        <ele>93.01</ele>
        <time>2020-03-15T14:09:48.000Z</time>
      </trkpt>
      <trkpt lat="48.85187" lon="2.3229">
        <ele>93</ele>
        <time>2020-03-15T14:09:49.000Z</time>
      </trkpt>
      <trkpt lat="48.85185" lon="2.32284">
        <ele>93</ele>
        <time>2020-03-15T14:09:50.000Z</time>
      </trkpt>
      <trkpt lat="48.85183" lon="2.32276">
        <ele>92.99</ele>
        <time>2020-03-15T14:09:51.000Z</time>
      </trkpt>
      <trkpt lat="48.8518" lon="2.32268">
        <ele>92.99</ele>
        <time>2020-03-15T14:09:52.000Z</time>
      </trkpt>
      <trkpt lat="48.85179" lon="2.32264">
        <ele>92.98</ele>
        <time>2020-03-15T14:09:53.000Z</time>
      </trkpt>
      <trkpt lat="48.85178" lon="2.32258">
        <ele>92.98</ele>
        <time>2020-03-15T14:09:54.000Z</time>
      </trkpt>
      <trkpt lat="48.85177" lon="2.32249">
        <ele>92.97</ele>
        <time>2020-03-15T14:09:55.000Z</time>
      </trkpt>
      <trkpt lat="48.85176" lon="2.32242">
        <ele>92.96</ele>
        <time>2020-03-15T14:09:56.000Z</time>
      </trkpt>
      <trkpt lat="48.85176" lon="2.32235">
        <ele>92.96</ele>
        <time>2020-03-15T14:09:57.000Z</time>
      </trkpt>
      <trkpt lat="48.85176" lon="2.32227">
        <ele>92.96</ele>
        <time>2020-03-15T14:09:58.000Z</time>
      </trkpt>
      <trkpt lat="48.85176" lon="2.32221">
        <ele>92.95</ele>
        <time>2020-03-15T14:09:59.000Z</time>
      </trkpt>
      <trkpt lat="48.85176" lon="2.32213">
        <ele>92.91</ele>
        <time>2020-03-15T14:10:00.000Z</time>
      </trkpt>
      <trkpt lat="48.85177" lon="2.32207">
        <ele>92.91</ele>
        <time>2020-03-15T14:10:01.000Z</time>
      </trkpt>
      <trkpt lat="48.85177" lon="2.32201">
        <ele>92.91</ele>
        <time>2020-03-15T14:10:02.000Z</time>
      </trkpt>
      <trkpt lat="48.85176" lon="2.32195">
        <ele>92.9</ele>
        <time>2020-03-15T14:10:03.000Z</time>
      </trkpt>
      <trkpt lat="48.85176" lon="2.32189">
        <ele>92.86</ele>
        <time>2020-03-15T14:10:04.000Z</time>
      </trkpt>
      <trkpt lat="48.85175" lon="2.32181">
        <ele>92.86</ele>
        <time>2020-03-15T14:10:05.000Z</time>
      </trkpt>
      <trkpt lat="48.85175" lon="2.32175">
        <ele>92.82</ele>
        <time>2020-03-15T14:10:06.000Z</time>
      </trkpt>
      <trkpt lat="48.85175" lon="2.32169">
        <ele>92.81</ele>
        <time>2020-03-15T14:10:07.000Z</time>
      </trkpt>
      <trkpt lat="48.85174" lon="2.32162">
        <ele>92.81</ele>
        <time>2020-03-15T14:10:08.000Z</time>
      </trkpt>
      <trkpt lat="48.85174" lon="2.32156">
        <ele>92.81</ele>
        <time>2020-03-15T14:10:09.000Z</time>
      </trkpt>
      <trkpt lat="48.85175" lon="2.3215">
        <ele>92.8</ele>
        <time>2020-03-15T14:10:10.000Z</time>
      </trkpt>
      <trkpt lat="48.85175" lon="2.32144">
        <ele>92.78</ele>
        <time>2020-03-15T14:10:11.000Z</time>
      </trkpt>
      <trkpt lat="48.85175" lon="2.32137">
        <ele>92.76</ele>
        <time>2020-03-15T14:10:12.000Z</time>
      </trkpt>
      <trkpt lat="48.85175" lon="2.3213">
        <ele>92.73</ele>
        <time>2020-03-15T14:10:13.000Z</time>
      </trkpt>
      <trkpt lat="48.85175" lon="2.32124">
        <ele>92.71</ele>
        <time>2020-03-15T14:10:14.000Z</time>
      </trkpt>
      <trkpt lat="48.85175" lon="2.32118">
        <ele>92.69</ele>
        <time>2020-03-15T14:10:15.000Z</time>
      </trkpt>
      <trkpt lat="48.85176" lon="2.32111">
        <ele>92.67</ele>
        <time>2020-03-15T14:10:16.000Z</time>
      </trkpt>
      <trkpt lat="48.85176" lon="2.32105">
        <ele>92.65</ele>
        <time>2020-03-15T14:10:17.000Z</time>
      </trkpt>
      <trkpt lat="48.85176" lon="2.32097">
        <ele>92.66</ele>
        <time>2020-03-15T14:10:18.000Z</time>
      </trkpt>
      <trkpt lat="48.85176" lon="2.3209">
        <ele>92.66</ele>
        <time>2020-03-15T14:10:19.000Z</time>
      </trkpt>
      <trkpt lat="48.85176" lon="2.32082">
        <ele>92.67</ele>
        <time>2020-03-15T14:10:20.000Z</time>
      </trkpt>
      <trkpt lat="48.85177" lon="2.32076">
        <ele>92.66</ele>
        <time>2020-03-15T14:10:21.000Z</time>
      </trkpt>
      <trkpt lat="48.85177" lon="2.32069">
        <ele>92.66</ele>
        <time>2020-03-15T14:10:22.000Z</time>
      </trkpt>
      <trkpt lat="48.85177" lon="2.32063">
        <ele>92.69</ele>
        <time>2020-03-15T14:10:23.000Z</time>
      </trkpt>
      <trkpt lat="48.85177" lon="2.32056">
        <ele>92.72</ele>
        <time>2020-03-15T14:10:24.000Z</time>
      </trkpt>
      <trkpt lat="48.85176" lon="2.32048">
        <ele>92.72</ele>
        <time>2020-03-15T14:10:25.000Z</time>
      </trkpt>
      <trkpt lat="48.85175" lon="2.32042">
        <ele>92.73</ele>
        <time>2020-03-15T14:10:26.000Z</time>
      </trkpt>
      <trkpt lat="48.85175" lon="2.32037">
        <ele>92.73</ele>
        <time>2020-03-15T14:10:27.000Z</time>
      </trkpt>
      <trkpt lat="48.85175" lon="2.32032">
        <ele>92.74</ele>
        <time>2020-03-15T14:10:28.000Z</time>
      </trkpt>
      <trkpt lat="48.85175" lon="2.32027">
        <ele>92.75</ele>
        <time>2020-03-15T14:10:29.000Z</time>
      </trkpt>
      <trkpt lat="48.85174" lon="2.32023">
        <ele>92.76</ele>
        <time>2020-03-15T14:10:30.000Z</time>
      </trkpt>
      <trkpt lat="48.85174" lon="2.32018">
        <ele>92.76</ele>
        <time>2020-03-15T14:10:31.000Z</time>
      </trkpt>
      <trkpt lat="48.85174" lon="2.32012">
        <ele>92.84</ele>
        <time>2020-03-15T14:10:32.000Z</time>
      </trkpt>
      <trkpt lat="48.85174" lon="2.32005">
        <ele>92.9</ele>
        <time>2020-03-15T14:10:33.000Z</time>
      </trkpt>
      <trkpt lat="48.85174" lon="2.31999">
        <ele>92.94</ele>
        <time>2020-03-15T14:10:34.000Z</time>
      </trkpt>
      <trkpt lat="48.85174" lon="2.31991">
        <ele>92.97</ele>
        <time>2020-03-15T14:10:35.000Z</time>
      </trkpt>
      <trkpt lat="48.85173" lon="2.31983">
        <ele>93.03</ele>
        <time>2020-03-15T14:10:36.000Z</time>
      </trkpt>
      <trkpt lat="48.85173" lon="2.31976">
        <ele>93.09</ele>
        <time>2020-03-15T14:10:37.000Z</time>
      </trkpt>
      <trkpt lat="48.85172" lon="2.31968">
        <ele>93.13</ele>
        <time>2020-03-15T14:10:38.000Z</time>
      </trkpt>
      <trkpt lat="48.85172" lon="2.3196">
        <ele>93.15</ele>
        <time>2020-03-15T14:10:39.000Z</time>
      </trkpt>
      <trkpt lat="48.85173" lon="2.31952">
        <ele>93.14</ele>
        <time>2020-03-15T14:10:40.000Z</time>
      </trkpt>
      <trkpt lat="48.85173" lon="2.31944">
        <ele>93.12</ele>
        <time>2020-03-15T14:10:41.000Z</time>
      </trkpt>
      <trkpt lat="48.85173" lon="2.31936">
        <ele>93.11</ele>
        <time>2020-03-15T14:10:42.000Z</time>
      </trkpt>
      <trkpt lat="48.85174" lon="2.3193">
        <ele>93.11</ele>
        <time>2020-03-15T14:10:43.000Z</time>
      </trkpt>
      <trkpt lat="48.85175" lon="2.31924">
        <ele>93.1</ele>
        <time>2020-03-15T14:10:44.000Z</time>
      </trkpt>
      <trkpt lat="48.85175" lon="2.31916">
        <ele>93.1</ele>
        <time>2020-03-15T14:10:45.000Z</time>
      </trkpt>
      <trkpt lat="48.85176" lon="2.31909">
        <ele>93.1</ele>
        <time>2020-03-15T14:10:46.000Z</time>
      </trkpt>
      <trkpt lat="48.85177" lon="2.31903">
        <ele>93.1</ele>
        <time>2020-03-15T14:10:47.000Z</time>
      </trkpt>
      <trkpt lat="48.85177" lon="2.31896">
        <ele>93.15</ele>
        <time>2020-03-15T14:10:48.000Z</time>
      </trkpt>
      <trkpt lat="48.85178" lon="2.3189">
        <ele>93.17</ele>
        <time>2020-03-15T14:10:49.000Z</time>
      </trkpt>
      <trkpt lat="48.85179" lon="2.31883">
        <ele>93.17</ele>
        <time>2020-03-15T14:10:50.000Z</time>
      </trkpt>
      <trkpt lat="48.85181" lon="2.31877">
        <ele>93.17</ele>
        <time>2020-03-15T14:10:51.000Z</time>
      </trkpt>
      <trkpt lat="48.85182" lon="2.31871">
        <ele>93.15</ele>
        <time>2020-03-15T14:10:52.000Z</time>
      </trkpt>
      <trkpt lat="48.85181" lon="2.31864">
        <ele>93.12</ele>
        <time>2020-03-15T14:10:53.000Z</time>
      </trkpt>
      <trkpt lat="48.85182" lon="2.31856">
        <ele>93.1</ele>
        <time>2020-03-15T14:10:54.000Z</time>
      </trkpt>
      <trkpt lat="48.85183" lon="2.31848">
        <ele>93.08</ele>
        <time>2020-03-15T14:10:55.000Z</time>
      </trkpt>
      <trkpt lat="48.85183" lon="2.3184">
        <ele>93.07</ele>
        <time>2020-03-15T14:10:56.000Z</time>
      </trkpt>
      <trkpt lat="48.85183" lon="2.31832">
        <ele>93.07</ele>
        <time>2020-03-15T14:10:57.000Z</time>
      </trkpt>
      <trkpt lat="48.85183" lon="2.31823">
        <ele>93.06</ele>
        <time>2020-03-15T14:10:58.000Z</time>
      </trkpt>
      <trkpt lat="48.85184" lon="2.31816">
        <ele>93.06</ele>
        <time>2020-03-15T14:10:59.000Z</time>
      </trkpt>
      <trkpt lat="48.85185" lon="2.31808">
        <ele>93.05</ele>
        <time>2020-03-15T14:11:00.000Z</time>
      </trkpt>
      <trkpt lat="48.85185" lon="2.31799">
        <ele>93.06</ele>
        <time>2020-03-15T14:11:01.000Z</time>
      </trkpt>
      <trkpt lat="48.85185" lon="2.31791">
        <ele>93.06</ele>
        <time>2020-03-15T14:11:02.000Z</time>
      </trkpt>
      <trkpt lat="48.85185" lon="2.31784">
        <ele>93.06</ele>
        <time>2020-03-15T14:11:03.000Z</time>
      </trkpt>
      <trkpt lat="48.85185" lon="2.31776">
        <ele>93.05</ele>
        <time>2020-03-15T14:11:04.000Z</time>
      </trkpt>
      <trkpt lat="48.85187" lon="2.3177">
        <ele>93.04</ele>
        <time>2020-03-15T14:11:05.000Z</time>
      </trkpt>
      <trkpt lat="48.85189" lon="2.31764">
        <ele>93.04</ele>
        <time>2020-03-15T14:11:06.000Z</time>
      </trkpt>
      <trkpt lat="48.85191" lon="2.31759">
        <ele>93.04</ele>
        <time>2020-03-15T14:11:07.000Z</time>
      </trkpt>
      <trkpt lat="48.85193" lon="2.31755">
        <ele>93.04</ele>
        <time>2020-03-15T14:11:08.000Z</time>
      </trkpt>
      <trkpt lat="48.85194" lon="2.31752">
        <ele>93.04</ele>
        <time>2020-03-15T14:11:09.000Z</time>
      </trkpt>
      <trkpt lat="48.85196" lon="2.31745">
        <ele>93.04</ele>
        <time>2020-03-15T14:11:10.000Z</time>
      </trkpt>
      <trkpt lat="48.85197" lon="2.31739">
        <ele>93.04</ele>
        <time>2020-03-15T14:11:11.000Z</time>
      </trkpt>
      <trkpt lat="48.85197" lon="2.3173">
        <ele>93</ele>
        <time>2020-03-15T14:11:12.000Z</time>
      </trkpt>
      <trkpt lat="48.85197" lon="2.31721">
        <ele>92.97</ele>
        <time>2020-03-15T14:11:13.000Z</time>
      </trkpt>
      <trkpt lat="48.85197" lon="2.31714">
        <ele>92.93</ele>
        <time>2020-03-15T14:11:14.000Z</time>
      </trkpt>
      <trkpt lat="48.85197" lon="2.31706">
        <ele>92.88</ele>
        <time>2020-03-15T14:11:15.000Z</time>
      </trkpt>
      <trkpt lat="48.85197" lon="2.31697">
        <ele>92.84</ele>
        <time>2020-03-15T14:11:16.000Z</time>
      </trkpt>
      <trkpt lat="48.85196" lon="2.31688">
        <ele>92.79</ele>
        <time>2020-03-15T14:11:17.000Z</time>
      </trkpt>
      <trkpt lat="48.85194" lon="2.31678">
        <ele>92.75</ele>
        <time>2020-03-15T14:11:18.000Z</time>
      </trkpt>
      <trkpt lat="48.85194" lon="2.31668">
        <ele>92.72</ele>
        <time>2020-03-15T14:11:19.000Z</time>
      </trkpt>
      <trkpt lat="48.85193" lon="2.3166">
        <ele>92.68</ele>
        <time>2020-03-15T14:11:20.000Z</time>
      </trkpt>
      <trkpt lat="48.85193" lon="2.31652">
        <ele>92.68</ele>
        <time>2020-03-15T14:11:21.000Z</time>
      </trkpt>
      <trkpt lat="48.85194" lon="2.31644">
        <ele>92.66</ele>
        <time>2020-03-15T14:11:22.000Z</time>
      </trkpt>
      <trkpt lat="48.85193" lon="2.31639">
        <ele>92.63</ele>
        <time>2020-03-15T14:11:23.000Z</time>
      </trkpt>
      <trkpt lat="48.85192" lon="2.31632">
        <ele>92.62</ele>
        <time>2020-03-15T14:11:24.000Z</time>
      </trkpt>
      <trkpt lat="48.85192" lon="2.31624">
        <ele>92.62</ele>
        <time>2020-03-15T14:11:25.000Z</time>
      </trkpt>
      <trkpt lat="48.85192" lon="2.31617">
        <ele>92.62</ele>
        <time>2020-03-15T14:11:26.000Z</time>
      </trkpt>
      <trkpt lat="48.85193" lon="2.31609">
        <ele>92.62</ele>
        <time>2020-03-15T14:11:27.000Z</time>
      </trkpt>
      <trkpt lat="48.85193" lon="2.316">
        <ele>92.61</ele>
        <time>2020-03-15T14:11:28.000Z</time>
      </trkpt>
      <trkpt lat="48.85193" lon="2.31592">
        <ele>92.62</ele>
        <time>2020-03-15T14:11:29.000Z</time>
      </trkpt>
      <trkpt lat="48.85193" lon="2.31586">
        <ele>92.63</ele>
        <time>2020-03-15T14:11:30.000Z</time>
      </trkpt>
      <trkpt lat="48.8519" lon="2.31578">
        <ele>92.63</ele>
        <time>2020-03-15T14:11:31.000Z</time>
      </trkpt>
      <trkpt lat="48.85188" lon="2.31571">
        <ele>92.64</ele>
        <time>2020-03-15T14:11:32.000Z</time>
      </trkpt>
      <trkpt lat="48.85187" lon="2.31565">
        <ele>92.64</ele>
        <time>2020-03-15T14:11:33.000Z</time>
      </trkpt>
      <trkpt lat="48.85187" lon="2.31558">
        <ele>92.69</ele>
        <time>2020-03-15T14:11:34.000Z</time>
      </trkpt>
      <trkpt lat="48.85186" lon="2.31551">
        <ele>92.73</ele>
        <time>2020-03-15T14:11:35.000Z</time>
      </trkpt>
      <trkpt lat="48.85186" lon="2.31544">
        <ele>92.76</ele>
        <time>2020-03-15T14:11:36.000Z</time>
      </trkpt>
      <trkpt lat="48.85185" lon="2.31538">
        <ele>92.79</ele>
        <time>2020-03-15T14:11:37.000Z</time>
      </trkpt>
      <trkpt lat="48.85185" lon="2.31529">
        <ele>92.81</ele>
        <time>2020-03-15T14:11:38.000Z</time>
      </trkpt>
      <trkpt lat="48.85186" lon="2.3152">
        <ele>92.82</ele>
        <time>2020-03-15T14:11:39.000Z</time>
      </trkpt>
      <trkpt lat="48.85187" lon="2.3151">
        <ele>92.83</ele>
        <time>2020-03-15T14:11:40.000Z</time>
      </trkpt>
      <trkpt lat="48.85188" lon="2.31503">
        <ele>92.84</ele>
        <time>2020-03-15T14:11:41.000Z</time>
      </trkpt>
      <trkpt lat="48.85188" lon="2.31496">
        <ele>92.84</ele>
        <time>2020-03-15T14:11:42.000Z</time>
      </trkpt>
      <trkpt lat="48.85188" lon="2.31488">
        <ele>92.84</ele>
        <time>2020-03-15T14:11:43.000Z</time>
      </trkpt>
      <trkpt lat="48.85187" lon="2.31481">
        <ele>92.84</ele>
        <time>2020-03-15T14:11:44.000Z</time>
      </trkpt>
      <trkpt lat="48.85186" lon="2.31475">
        <ele>92.84</ele>
        <time>2020-03-15T14:11:45.000Z</time>
      </trkpt>
      <trkpt lat="48.85186" lon="2.31471">
        <ele>92.84</ele>
        <time>2020-03-15T14:11:46.000Z</time>
      </trkpt>
      <trkpt lat="48.85187" lon="2.31467">
        <ele>92.84</ele>
        <time>2020-03-15T14:11:47.000Z</time>
      </trkpt>
      <trkpt lat="48.85187" lon="2.31465">
        <ele>92.84</ele>
        <time>2020-03-15T14:11:48.000Z</time>
      </trkpt>
      <trkpt lat="48.85186" lon="2.31464">
        <ele>92.84</ele>
        <time>2020-03-15T14:11:51.000Z</time>
      </trkpt>
      <trkpt lat="48.85185" lon="2.31462">
        <ele>92.83</ele>
        <time>2020-03-15T14:11:53.000Z</time>
      </trkpt>
      <trkpt lat="48.85186" lon="2.31461">
        <ele>92.83</ele>
        <time>2020-03-15T14:12:02.000Z</time>
      </trkpt>
      <trkpt lat="48.85186" lon="2.31459">
        <ele>92.83</ele>
        <time>2020-03-15T14:12:03.000Z</time>
      </trkpt>
      <trkpt lat="48.85186" lon="2.31457">
        <ele>92.83</ele>
        <time>2020-03-15T14:12:04.000Z</time>
      </trkpt>
      <trkpt lat="48.85186" lon="2.31455">
        <ele>92.83</ele>
        <time>2020-03-15T14:12:05.000Z</time>
      </trkpt>
      <trkpt lat="48.85186" lon="2.31453">
        <ele>92.83</ele>
        <time>2020-03-15T14:12:07.000Z</time>
      </trkpt>
      <trkpt lat="48.85185" lon="2.31452">
        <ele>92.83</ele>
        <time>2020-03-15T14:12:14.000Z</time>
      </trkpt>
      <trkpt lat="48.85185" lon="2.3145">
        <ele>92.84</ele>
        <time>2020-03-15T14:12:17.000Z</time>
      </trkpt>
      <trkpt lat="48.85184" lon="2.31449">
        <ele>92.85</ele>
        <time>2020-03-15T14:12:20.000Z</time>
      </trkpt>
      <trkpt lat="48.85183" lon="2.31447">
        <ele>92.85</ele>
        <time>2020-03-15T14:12:21.000Z</time>
      </trkpt>
      <trkpt lat="48.85183" lon="2.31445">
        <ele>92.86</ele>
        <time>2020-03-15T14:12:23.000Z</time>
      </trkpt>
      <trkpt lat="48.85184" lon="2.31443">
        <ele>92.86</ele>
        <time>2020-03-15T14:12:24.000Z</time>
      </trkpt>
      <trkpt lat="48.85183" lon="2.31445">
        <ele>92.88</ele>
        <time>2020-03-15T14:12:27.000Z</time>
      </trkpt>
      <trkpt lat="48.85182" lon="2.31444">
        <ele>92.88</ele>
        <time>2020-03-15T14:12:33.000Z</time>
      </trkpt>
      <trkpt lat="48.85182" lon="2.31442">
        <ele>92.89</ele>
        <time>2020-03-15T14:12:35.000Z</time>
      </trkpt>
      <trkpt lat="48.85183" lon="2.31441">
        <ele>92.89</ele>
        <time>2020-03-15T14:12:37.000Z</time>
      </trkpt>
      <trkpt lat="48.85184" lon="2.31439">
        <ele>92.88</ele>
        <time>2020-03-15T14:12:38.000Z</time>
      </trkpt>
      <trkpt lat="48.85186" lon="2.31438">
        <ele>92.87</ele>
        <time>2020-03-15T14:12:40.000Z</time>
      </trkpt>
      <trkpt lat="48.85187" lon="2.31438">
        <ele>92.85</ele>
        <time>2020-03-15T14:12:43.000Z</time>
      </trkpt>
      <trkpt lat="48.85188" lon="2.31439">
        <ele>92.79</ele>
        <time>2020-03-15T14:12:50.000Z</time>
      </trkpt>
      <trkpt lat="48.8519" lon="2.31441">
        <ele>92.77</ele>
        <time>2020-03-15T14:12:51.000Z</time>
      </trkpt>
      <trkpt lat="48.85192" lon="2.31443">
        <ele>92.75</ele>
        <time>2020-03-15T14:12:52.000Z</time>
      </trkpt>
      <trkpt lat="48.85194" lon="2.31446">
        <ele>92.73</ele>
        <time>2020-03-15T14:12:53.000Z</time>
      </trkpt>
      <trkpt lat="48.85196" lon="2.31447">
        <ele>92.7</ele>
        <time>2020-03-15T14:12:54.000Z</time>
      </trkpt>
      <trkpt lat="48.85197" lon="2.31449">
        <ele>92.68</ele>
        <time>2020-03-15T14:12:55.000Z</time>
      </trkpt>
      <trkpt lat="48.85198" lon="2.3145">
        <ele>92.65</ele>
        <time>2020-03-15T14:12:56.000Z</time>
      </trkpt>
      <trkpt lat="48.852" lon="2.31452">
        <ele>92.62</ele>
        <time>2020-03-15T14:12:57.000Z</time>
      </trkpt>
      <trkpt lat="48.85202" lon="2.31454">
        <ele>92.59</ele>
        <time>2020-03-15T14:12:58.000Z</time>
      </trkpt>
      <trkpt lat="48.85203" lon="2.31454">
        <ele>92.56</ele>
        <time>2020-03-15T14:12:59.000Z</time>
      </trkpt>
      <trkpt lat="48.85206" lon="2.31456">
        <ele>92.53</ele>
        <time>2020-03-15T14:13:00.000Z</time>
      </trkpt>
      <trkpt lat="48.85209" lon="2.31457">
        <ele>92.5</ele>
        <time>2020-03-15T14:13:01.000Z</time>
      </trkpt>
      <trkpt lat="48.85211" lon="2.31458">
        <ele>92.48</ele>
        <time>2020-03-15T14:13:02.000Z</time>
      </trkpt>
      <trkpt lat="48.85213" lon="2.31458">
        <ele>92.45</ele>
        <time>2020-03-15T14:13:03.000Z</time>
      </trkpt>
      <trkpt lat="48.85216" lon="2.31459">
        <ele>92.43</ele>
        <time>2020-03-15T14:13:04.000Z</time>
      </trkpt>
      <trkpt lat="48.85221" lon="2.31459">
        <ele>92.4</ele>
        <time>2020-03-15T14:13:05.000Z</time>
      </trkpt>
      <trkpt lat="48.85226" lon="2.31461">
        <ele>92.38</ele>
        <time>2020-03-15T14:13:06.000Z</time>
      </trkpt>
      <trkpt lat="48.8523" lon="2.31462">
        <ele>92.35</ele>
        <time>2020-03-15T14:13:07.000Z</time>
      </trkpt>
      <trkpt lat="48.85233" lon="2.31462">
        <ele>92.33</ele>
        <time>2020-03-15T14:13:08.000Z</time>
      </trkpt>
      <trkpt lat="48.85238" lon="2.31463">
        <ele>92.08</ele>
        <time>2020-03-15T14:13:09.000Z</time>
      </trkpt>
      <trkpt lat="48.85243" lon="2.31463">
        <ele>91.89</ele>
        <time>2020-03-15T14:13:10.000Z</time>
      </trkpt>
      <trkpt lat="48.85246" lon="2.31463">
        <ele>91.87</ele>
        <time>2020-03-15T14:13:11.000Z</time>
      </trkpt>
      <trkpt lat="48.85249" lon="2.31463">
        <ele>91.72</ele>
        <time>2020-03-15T14:13:12.000Z</time>
      </trkpt>
      <trkpt lat="48.85253" lon="2.31464">
        <ele>91.71</ele>
        <time>2020-03-15T14:13:13.000Z</time>
      </trkpt>
      <trkpt lat="48.85257" lon="2.31465">
        <ele>91.7</ele>
        <time>2020-03-15T14:13:14.000Z</time>
      </trkpt>
      <trkpt lat="48.8526" lon="2.31465">
        <ele>91.7</ele>
        <time>2020-03-15T14:13:15.000Z</time>
      </trkpt>
      <trkpt lat="48.85263" lon="2.31466">
        <ele>91.69</ele>
        <time>2020-03-15T14:13:16.000Z</time>
      </trkpt>
      <trkpt lat="48.85267" lon="2.31466">
        <ele>91.68</ele>
        <time>2020-03-15T14:13:17.000Z</time>
      </trkpt>
      <trkpt lat="48.8527" lon="2.31467">
        <ele>91.62</ele>
        <time>2020-03-15T14:13:18.000Z</time>
      </trkpt>
      <trkpt lat="48.85273" lon="2.31468">
        <ele>91.58</ele>
        <time>2020-03-15T14:13:19.000Z</time>
      </trkpt>
      <trkpt lat="48.85278" lon="2.31468">
        <ele>91.55</ele>
        <time>2020-03-15T14:13:20.000Z</time>
      </trkpt>
      <trkpt lat="48.85282" lon="2.31468">
        <ele>91.52</ele>
        <time>2020-03-15T14:13:21.000Z</time>
      </trkpt>
      <trkpt lat="48.85286" lon="2.31468">
        <ele>91.52</ele>
        <time>2020-03-15T14:13:22.000Z</time>
      </trkpt>
      <trkpt lat="48.85288" lon="2.31469">
        <ele>91.52</ele>
        <time>2020-03-15T14:13:23.000Z</time>
      </trkpt>
      <trkpt lat="48.8529" lon="2.31469">
        <ele>91.52</ele>
        <time>2020-03-15T14:13:24.000Z</time>
      </trkpt>
      <trkpt lat="48.85294" lon="2.3147">
        <ele>91.52</ele>
        <time>2020-03-15T14:13:25.000Z</time>
      </trkpt>
      <trkpt lat="48.85297" lon="2.3147">
        <ele>91.52</ele>
        <time>2020-03-15T14:13:26.000Z</time>
      </trkpt>
      <trkpt lat="48.853" lon="2.3147">
        <ele>91.52</ele>
        <time>2020-03-15T14:13:27.000Z</time>
      </trkpt>
      <trkpt lat="48.85304" lon="2.31471">
        <ele>91.52</ele>
        <time>2020-03-15T14:13:28.000Z</time>
      </trkpt>
      <trkpt lat="48.85308" lon="2.31471">
        <ele>91.52</ele>
        <time>2020-03-15T14:13:29.000Z</time>
      </trkpt>
      <trkpt lat="48.85314" lon="2.31471">
        <ele>91.52</ele>
        <time>2020-03-15T14:13:30.000Z</time>
      </trkpt>
      <trkpt lat="48.8532" lon="2.31471">
        <ele>91.52</ele>
        <time>2020-03-15T14:13:31.000Z</time>
      </trkpt>
      <trkpt lat="48.85326" lon="2.31472">
        <ele>91.51</ele>
        <time>2020-03-15T14:13:32.000Z</time>
      </trkpt>
      <trkpt lat="48.85332" lon="2.31474">
        <ele>91.49</ele>
        <time>2020-03-15T14:13:33.000Z</time>
      </trkpt>
      <trkpt lat="48.85338" lon="2.31475">
        <ele>91.48</ele>
        <time>2020-03-15T14:13:34.000Z</time>
      </trkpt>
      <trkpt lat="48.85343" lon="2.31477">
        <ele>91.47</ele>
        <time>2020-03-15T14:13:35.000Z</time>
      </trkpt>
      <trkpt lat="48.85349" lon="2.31478">
        <ele>91.45</ele>
        <time>2020-03-15T14:13:36.000Z</time>
      </trkpt>
      <trkpt lat="48.85354" lon="2.31479">
        <ele>91.44</ele>
        <time>2020-03-15T14:13:37.000Z</time>
      </trkpt>
      <trkpt lat="48.85359" lon="2.31481">
        <ele>91.43</ele>
        <time>2020-03-15T14:13:38.000Z</time>
      </trkpt>
      <trkpt lat="48.85364" lon="2.31482">
        <ele>91.42</ele>
        <time>2020-03-15T14:13:39.000Z</time>
      </trkpt>
      <trkpt lat="48.85371" lon="2.31483">
        <ele>91.43</ele>
        <time>2020-03-15T14:13:40.000Z</time>
      </trkpt>
      <trkpt lat="48.85376" lon="2.31484">
        <ele>91.43</ele>
        <time>2020-03-15T14:13:41.000Z</time>
      </trkpt>
      <trkpt lat="48.8538" lon="2.31485">
        <ele>91.43</ele>
        <time>2020-03-15T14:13:42.000Z</time>
      </trkpt>
      <trkpt lat="48.85385" lon="2.31485">
        <ele>91.46</ele>
        <time>2020-03-15T14:13:43.000Z</time>
      </trkpt>
      <trkpt lat="48.85389" lon="2.31485">
        <ele>91.49</ele>
        <time>2020-03-15T14:13:44.000Z</time>
      </trkpt>
      <trkpt lat="48.85393" lon="2.31486">
        <ele>91.51</ele>
        <time>2020-03-15T14:13:45.000Z</time>
      </trkpt>
      <trkpt lat="48.85398" lon="2.31486">
        <ele>91.52</ele>
        <time>2020-03-15T14:13:46.000Z</time>
      </trkpt>
      <trkpt lat="48.85403" lon="2.31487">
        <ele>91.54</ele>
        <time>2020-03-15T14:13:47.000Z</time>
      </trkpt>
      <trkpt lat="48.85407" lon="2.31487">
        <ele>91.55</ele>
        <time>2020-03-15T14:13:48.000Z</time>
      </trkpt>
      <trkpt lat="48.85411" lon="2.31488">
        <ele>91.55</ele>
        <time>2020-03-15T14:13:49.000Z</time>
      </trkpt>
      <trkpt lat="48.85416" lon="2.31488">
        <ele>91.56</ele>
        <time>2020-03-15T14:13:50.000Z</time>
      </trkpt>
      <trkpt lat="48.8542" lon="2.31489">
        <ele>91.56</ele>
        <time>2020-03-15T14:13:51.000Z</time>
      </trkpt>
      <trkpt lat="48.85425" lon="2.31489">
        <ele>91.56</ele>
        <time>2020-03-15T14:13:52.000Z</time>
      </trkpt>
      <trkpt lat="48.8543" lon="2.3149">
        <ele>91.56</ele>
        <time>2020-03-15T14:13:53.000Z</time>
      </trkpt>
      <trkpt lat="48.85434" lon="2.3149">
        <ele>91.56</ele>
        <time>2020-03-15T14:13:54.000Z</time>
      </trkpt>
      <trkpt lat="48.8544" lon="2.31491">
        <ele>91.56</ele>
        <time>2020-03-15T14:13:55.000Z</time>
      </trkpt>
      <trkpt lat="48.85445" lon="2.31492">
        <ele>91.56</ele>
        <time>2020-03-15T14:13:56.000Z</time>
      </trkpt>
      <trkpt lat="48.8545" lon="2.31493">
        <ele>91.56</ele>
        <time>2020-03-15T14:13:57.000Z</time>
      </trkpt>
      <trkpt lat="48.85454" lon="2.31493">
        <ele>91.56</ele>
        <time>2020-03-15T14:13:58.000Z</time>
      </trkpt>
      <trkpt lat="48.85459" lon="2.31493">
        <ele>91.56</ele>
        <time>2020-03-15T14:13:59.000Z</time>
      </trkpt>
      <trkpt lat="48.85465" lon="2.31493">
        <ele>91.55</ele>
        <time>2020-03-15T14:14:00.000Z</time>
      </trkpt>
      <trkpt lat="48.85471" lon="2.31494">
        <ele>91.52</ele>
        <time>2020-03-15T14:14:01.000Z</time>
      </trkpt>
      <trkpt lat="48.85477" lon="2.31495">
        <ele>91.51</ele>
        <time>2020-03-15T14:14:02.000Z</time>
      </trkpt>
      <trkpt lat="48.85483" lon="2.31496">
        <ele>91.5</ele>
        <time>2020-03-15T14:14:03.000Z</time>
      </trkpt>
      <trkpt lat="48.85489" lon="2.31496">
        <ele>91.5</ele>
        <time>2020-03-15T14:14:04.000Z</time>
      </trkpt>
      <trkpt lat="48.85494" lon="2.31497">
        <ele>91.51</ele>
        <time>2020-03-15T14:14:05.000Z</time>
      </trkpt>
      <trkpt lat="48.85501" lon="2.31498">
        <ele>91.52</ele>
        <time>2020-03-15T14:14:06.000Z</time>
      </trkpt>
      <trkpt lat="48.85507" lon="2.31499">
        <ele>91.53</ele>
        <time>2020-03-15T14:14:07.000Z</time>
      </trkpt>
      <trkpt lat="48.85514" lon="2.31499">
        <ele>91.54</ele>
        <time>2020-03-15T14:14:08.000Z</time>
      </trkpt>
      <trkpt lat="48.85521" lon="2.315">
        <ele>91.54</ele>
        <time>2020-03-15T14:14:09.000Z</time>
      </trkpt>
      <trkpt lat="48.85527" lon="2.315">
        <ele>91.54</ele>
        <time>2020-03-15T14:14:10.000Z</time>
      </trkpt>
      <trkpt lat="48.85533" lon="2.31501">
        <ele>91.55</ele>
        <time>2020-03-15T14:14:11.000Z</time>
      </trkpt>
      <trkpt lat="48.8554" lon="2.31501">
        <ele>91.53</ele>
        <time>2020-03-15T14:14:12.000Z</time>
      </trkpt>
      <trkpt lat="48.85546" lon="2.31502">
        <ele>91.52</ele>
        <time>2020-03-15T14:14:13.000Z</time>
      </trkpt>
      <trkpt lat="48.85551" lon="2.31502">
        <ele>91.51</ele>
        <time>2020-03-15T14:14:14.000Z</time>
      </trkpt>
      <trkpt lat="48.85557" lon="2.31503">
        <ele>91.48</ele>
        <time>2020-03-15T14:14:15.000Z</time>
      </trkpt>
      <trkpt lat="48.85563" lon="2.31503">
        <ele>91.46</ele>
        <time>2020-03-15T14:14:16.000Z</time>
      </trkpt>
      <trkpt lat="48.85569" lon="2.31504">
        <ele>91.45</ele>
        <time>2020-03-15T14:14:17.000Z</time>
      </trkpt>
      <trkpt lat="48.85574" lon="2.31506">
        <ele>91.43</ele>
        <time>2020-03-15T14:14:18.000Z</time>
      </trkpt>
      <trkpt lat="48.85581" lon="2.31507">
        <ele>91.39</ele>
        <time>2020-03-15T14:14:19.000Z</time>
      </trkpt>
      <trkpt lat="48.85588" lon="2.31509">
        <ele>91.38</ele>
        <time>2020-03-15T14:14:20.000Z</time>
      </trkpt>
      <trkpt lat="48.85595" lon="2.3151">
        <ele>91.35</ele>
        <time>2020-03-15T14:14:21.000Z</time>
      </trkpt>
      <trkpt lat="48.85602" lon="2.31511">
        <ele>91.34</ele>
        <time>2020-03-15T14:14:22.000Z</time>
      </trkpt>
      <trkpt lat="48.85609" lon="2.31512">
        <ele>91.32</ele>
        <time>2020-03-15T14:14:23.000Z</time>
      </trkpt>
      <trkpt lat="48.85614" lon="2.31513">
        <ele>91.27</ele>
        <time>2020-03-15T14:14:24.000Z</time>
      </trkpt>
      <trkpt lat="48.8562" lon="2.31514">
        <ele>91.21</ele>
        <time>2020-03-15T14:14:25.000Z</time>
      </trkpt>
      <trkpt lat="48.85625" lon="2.31515">
        <ele>91.13</ele>
        <time>2020-03-15T14:14:26.000Z</time>
      </trkpt>
      <trkpt lat="48.85631" lon="2.31516">
        <ele>91.06</ele>
        <time>2020-03-15T14:14:27.000Z</time>
      </trkpt>
      <trkpt lat="48.85637" lon="2.31516">
        <ele>91</ele>
        <time>2020-03-15T14:14:28.000Z</time>
      </trkpt>
      <trkpt lat="48.85643" lon="2.31516">
        <ele>90.94</ele>
        <time>2020-03-15T14:14:29.000Z</time>
      </trkpt>
      <trkpt lat="48.85649" lon="2.31516">
        <ele>90.89</ele>
        <time>2020-03-15T14:14:30.000Z</time>
      </trkpt>
      <trkpt lat="48.85656" lon="2.31517">
        <ele>90.84</ele>
        <time>2020-03-15T14:14:31.000Z</time>
      </trkpt>
      <trkpt lat="48.85662" lon="2.31517">
        <ele>90.79</ele>
        <time>2020-03-15T14:14:32.000Z</time>
      </trkpt>
      <trkpt lat="48.85667" lon="2.31517">
        <ele>90.76</ele>
        <time>2020-03-15T14:14:33.000Z</time>
      </trkpt>
      <trkpt lat="48.85673" lon="2.31518">
        <ele>90.73</ele>
        <time>2020-03-15T14:14:34.000Z</time>
      </trkpt>
      <trkpt lat="48.85678" lon="2.31518">
        <ele>90.7</ele>
        <time>2020-03-15T14:14:35.000Z</time>
      </trkpt>
      <trkpt lat="48.85684" lon="2.31519">
        <ele>90.67</ele>
        <time>2020-03-15T14:14:36.000Z</time>
      </trkpt>
      <trkpt lat="48.85691" lon="2.3152">
        <ele>90.64</ele>
        <time>2020-03-15T14:14:37.000Z</time>
      </trkpt>
      <trkpt lat="48.85697" lon="2.3152">
        <ele>90.62</ele>
        <time>2020-03-15T14:14:38.000Z</time>
      </trkpt>
      <trkpt lat="48.85704" lon="2.31521">
        <ele>90.59</ele>
        <time>2020-03-15T14:14:39.000Z</time>
      </trkpt>
      <trkpt lat="48.8571" lon="2.31521">
        <ele>90.57</ele>
        <time>2020-03-15T14:14:40.000Z</time>
      </trkpt>
      <trkpt lat="48.85716" lon="2.31523">
        <ele>90.55</ele>
        <time>2020-03-15T14:14:41.000Z</time>
      </trkpt>
      <trkpt lat="48.85721" lon="2.31524">
        <ele>90.54</ele>
        <time>2020-03-15T14:14:42.000Z</time>
      </trkpt>
      <trkpt lat="48.85727" lon="2.31525">
        <ele>90.54</ele>
        <time>2020-03-15T14:14:43.000Z</time>
      </trkpt>
      <trkpt lat="48.85733" lon="2.31526">
        <ele>90.54</ele>
        <time>2020-03-15T14:14:44.000Z</time>
      </trkpt>
      <trkpt lat="48.8574" lon="2.31526">
        <ele>90.53</ele>
        <time>2020-03-15T14:14:45.000Z</time>
      </trkpt>
      <trkpt lat="48.85746" lon="2.31527">
        <ele>90.53</ele>
        <time>2020-03-15T14:14:46.000Z</time>
      </trkpt>
      <trkpt lat="48.85753" lon="2.31528">
        <ele>90.53</ele>
        <time>2020-03-15T14:14:47.000Z</time>
      </trkpt>
      <trkpt lat="48.85759" lon="2.31529">
        <ele>90.54</ele>
        <time>2020-03-15T14:14:48.000Z</time>
      </trkpt>
      <trkpt lat="48.85765" lon="2.31529">
        <ele>90.53</ele>
        <time>2020-03-15T14:14:49.000Z</time>
      </trkpt>
      <trkpt lat="48.8577" lon="2.31529">
        <ele>90.53</ele>
        <time>2020-03-15T14:14:50.000Z</time>
      </trkpt>
      <trkpt lat="48.85775" lon="2.31529">
        <ele>90.53</ele>
        <time>2020-03-15T14:14:51.000Z</time>
      </trkpt>
      <trkpt lat="48.85781" lon="2.31528">
        <ele>90.53</ele>
        <time>2020-03-15T14:14:52.000Z</time>
      </trkpt>
      <trkpt lat="48.85786" lon="2.31526">
        <ele>90.52</ele>
        <time>2020-03-15T14:14:53.000Z</time>
      </trkpt>
      <trkpt lat="48.85791" lon="2.31521">
        <ele>90.5</ele>
        <time>2020-03-15T14:14:54.000Z</time>
      </trkpt>
      <trkpt lat="48.85795" lon="2.31515">
        <ele>90.48</ele>
        <time>2020-03-15T14:14:55.000Z</time>
      </trkpt>
      <trkpt lat="48.85797" lon="2.31508">
        <ele>90.44</ele>
        <time>2020-03-15T14:14:56.000Z</time>
      </trkpt>
      <trkpt lat="48.85799" lon="2.315">
        <ele>90.39</ele>
        <time>2020-03-15T14:14:57.000Z</time>
      </trkpt>
      <trkpt lat="48.85801" lon="2.31493">
        <ele>90.35</ele>
        <time>2020-03-15T14:14:58.000Z</time>
      </trkpt>
      <trkpt lat="48.85802" lon="2.31486">
        <ele>90.31</ele>
        <time>2020-03-15T14:14:59.000Z</time>
      </trkpt>
      <trkpt lat="48.85804" lon="2.31479">
        <ele>90.27</ele>
        <time>2020-03-15T14:15:00.000Z</time>
      </trkpt>
      <trkpt lat="48.85806" lon="2.31473">
        <ele>90.23</ele>
        <time>2020-03-15T14:15:01.000Z</time>
      </trkpt>
      <trkpt lat="48.85809" lon="2.31467">
        <ele>90.2</ele>
        <time>2020-03-15T14:15:02.000Z</time>
      </trkpt>
      <trkpt lat="48.85812" lon="2.31462">
        <ele>90.17</ele>
        <time>2020-03-15T14:15:03.000Z</time>
      </trkpt>
      <trkpt lat="48.85816" lon="2.31457">
        <ele>90.15</ele>
        <time>2020-03-15T14:15:04.000Z</time>
      </trkpt>
      <trkpt lat="48.8582" lon="2.31452">
        <ele>90.13</ele>
        <time>2020-03-15T14:15:05.000Z</time>
      </trkpt>
      <trkpt lat="48.85823" lon="2.31447">
        <ele>90.11</ele>
        <time>2020-03-15T14:15:06.000Z</time>
      </trkpt>
      <trkpt lat="48.85826" lon="2.31443">
        <ele>90.1</ele>
        <time>2020-03-15T14:15:07.000Z</time>
      </trkpt>
      <trkpt lat="48.8583" lon="2.31437">
        <ele>90.11</ele>
        <time>2020-03-15T14:15:08.000Z</time>
      </trkpt>
      <trkpt lat="48.85832" lon="2.3143">
        <ele>90.11</ele>
        <time>2020-03-15T14:15:09.000Z</time>
      </trkpt>
      <trkpt lat="48.85834" lon="2.31422">
        <ele>90.11</ele>
        <time>2020-03-15T14:15:10.000Z</time>
      </trkpt>
      <trkpt lat="48.85836" lon="2.31414">
        <ele>90.12</ele>
        <time>2020-03-15T14:15:11.000Z</time>
      </trkpt>
      <trkpt lat="48.85837" lon="2.31406">
        <ele>90.14</ele>
        <time>2020-03-15T14:15:12.000Z</time>
      </trkpt>
      <trkpt lat="48.85837" lon="2.31398">
        <ele>90.16</ele>
        <time>2020-03-15T14:15:13.000Z</time>
      </trkpt>
      <trkpt lat="48.85838" lon="2.3139">
        <ele>90.16</ele>
        <time>2020-03-15T14:15:14.000Z</time>
      </trkpt>
      <trkpt lat="48.85839" lon="2.31383">
        <ele>90.17</ele>
        <time>2020-03-15T14:15:15.000Z</time>
      </trkpt>
      <trkpt lat="48.85839" lon="2.31376">
        <ele>90.18</ele>
        <time>2020-03-15T14:15:16.000Z</time>
      </trkpt>
      <trkpt lat="48.8584" lon="2.31369">
        <ele>90.15</ele>
        <time>2020-03-15T14:15:17.000Z</time>
      </trkpt>
      <trkpt lat="48.8584" lon="2.31362">
        <ele>90.11</ele>
        <time>2020-03-15T14:15:18.000Z</time>
      </trkpt>
      <trkpt lat="48.85842" lon="2.31356">
        <ele>90.08</ele>
        <time>2020-03-15T14:15:19.000Z</time>
      </trkpt>
      <trkpt lat="48.85844" lon="2.3135">
        <ele>90.05</ele>
        <time>2020-03-15T14:15:20.000Z</time>
      </trkpt>
      <trkpt lat="48.85846" lon="2.31345">
        <ele>90.05</ele>
        <time>2020-03-15T14:15:21.000Z</time>
      </trkpt>
      <trkpt lat="48.8585" lon="2.31342">
        <ele>90.06</ele>
        <time>2020-03-15T14:15:22.000Z</time>
      </trkpt>
      <trkpt lat="48.85854" lon="2.31339">
        <ele>90.09</ele>
        <time>2020-03-15T14:15:23.000Z</time>
      </trkpt>
      <trkpt lat="48.85858" lon="2.31336">
        <ele>90.14</ele>
        <time>2020-03-15T14:15:24.000Z</time>
      </trkpt>
      <trkpt lat="48.85863" lon="2.31332">
        <ele>90.19</ele>
        <time>2020-03-15T14:15:25.000Z</time>
      </trkpt>
      <trkpt lat="48.85867" lon="2.31328">
        <ele>90.24</ele>
        <time>2020-03-15T14:15:26.000Z</time>
      </trkpt>
      <trkpt lat="48.85871" lon="2.31323">
        <ele>90.26</ele>
        <time>2020-03-15T14:15:27.000Z</time>
      </trkpt>
      <trkpt lat="48.85876" lon="2.31318">
        <ele>90.27</ele>
        <time>2020-03-15T14:15:28.000Z</time>
      </trkpt>
      <trkpt lat="48.8588" lon="2.31312">
        <ele>90.27</ele>
        <time>2020-03-15T14:15:29.000Z</time>
      </trkpt>
      <trkpt lat="48.85884" lon="2.31307">
        <ele>90.26</ele>
        <time>2020-03-15T14:15:30.000Z</time>
      </trkpt>
      <trkpt lat="48.85888" lon="2.31305">
        <ele>90.26</ele>
        <time>2020-03-15T14:15:31.000Z</time>
      </trkpt>
      <trkpt lat="48.85894" lon="2.31305">
        <ele>90.27</ele>
        <time>2020-03-15T14:15:32.000Z</time>
      </trkpt>
      <trkpt lat="48.85899" lon="2.31305">
        <ele>90.28</ele>
        <time>2020-03-15T14:15:33.000Z</time>
      </trkpt>
      <trkpt lat="48.85905" lon="2.31305">
        <ele>90.28</ele>
        <time>2020-03-15T14:15:34.000Z</time>
      </trkpt>
      <trkpt lat="48.8591" lon="2.31307">
        <ele>90.27</ele>
        <time>2020-03-15T14:15:35.000Z</time>
      </trkpt>
      <trkpt lat="48.85915" lon="2.31308">
        <ele>90.25</ele>
        <time>2020-03-15T14:15:36.000Z</time>
      </trkpt>
      <trkpt lat="48.85921" lon="2.31309">
        <ele>90.21</ele>
        <time>2020-03-15T14:15:37.000Z</time>
      </trkpt>
      <trkpt lat="48.85926" lon="2.31311">
        <ele>90.17</ele>
        <time>2020-03-15T14:15:38.000Z</time>
      </trkpt>
      <trkpt lat="48.85932" lon="2.31313">
        <ele>90.12</ele>
        <time>2020-03-15T14:15:39.000Z</time>
      </trkpt>
      <trkpt lat="48.85938" lon="2.31314">
        <ele>90.06</ele>
        <time>2020-03-15T14:15:40.000Z</time>
      </trkpt>
      <trkpt lat="48.85944" lon="2.31315">
        <ele>90.02</ele>
        <time>2020-03-15T14:15:41.000Z</time>
      </trkpt>
      <trkpt lat="48.8595" lon="2.31317">
        <ele>89.97</ele>
        <time>2020-03-15T14:15:42.000Z</time>
      </trkpt>
      <trkpt lat="48.85955" lon="2.31318">
        <ele>89.93</ele>
        <time>2020-03-15T14:15:43.000Z</time>
      </trkpt>
      <trkpt lat="48.85961" lon="2.31319">
        <ele>89.89</ele>
        <time>2020-03-15T14:15:44.000Z</time>
      </trkpt>
      <trkpt lat="48.85967" lon="2.3132">
        <ele>89.85</ele>
        <time>2020-03-15T14:15:45.000Z</time>
      </trkpt>
      <trkpt lat="48.85972" lon="2.31321">
        <ele>89.81</ele>
        <time>2020-03-15T14:15:46.000Z</time>
      </trkpt>
      <trkpt lat="48.85978" lon="2.31322">
        <ele>89.78</ele>
        <time>2020-03-15T14:15:47.000Z</time>
      </trkpt>
      <trkpt lat="48.85983" lon="2.31323">
        <ele>89.76</ele>
        <time>2020-03-15T14:15:48.000Z</time>
      </trkpt>
      <trkpt lat="48.85989" lon="2.31324">
        <ele>89.74</ele>
        <time>2020-03-15T14:15:49.000Z</time>
      </trkpt>
      <trkpt lat="48.85995" lon="2.31325">
        <ele>89.72</ele>
        <time>2020-03-15T14:15:50.000Z</time>
      </trkpt>
      <trkpt lat="48.86" lon="2.31327">
        <ele>89.71</ele>
        <time>2020-03-15T14:15:51.000Z</time>
      </trkpt>
      <trkpt lat="48.86005" lon="2.31328">
        <ele>89.7</ele>
        <time>2020-03-15T14:15:52.000Z</time>
      </trkpt>
      <trkpt lat="48.86011" lon="2.31328">
        <ele>89.69</ele>
        <time>2020-03-15T14:15:53.000Z</time>
      </trkpt>
      <trkpt lat="48.86017" lon="2.31329">
        <ele>89.69</ele>
        <time>2020-03-15T14:15:54.000Z</time>
      </trkpt>
      <trkpt lat="48.86022" lon="2.31329">
        <ele>89.69</ele>
        <time>2020-03-15T14:15:55.000Z</time>
      </trkpt>
      <trkpt lat="48.86028" lon="2.31329">
        <ele>89.72</ele>
        <time>2020-03-15T14:15:56.000Z</time>
      </trkpt>
      <trkpt lat="48.86034" lon="2.31329">
        <ele>89.74</ele>
        <time>2020-03-15T14:15:57.000Z</time>
      </trkpt>
      <trkpt lat="48.8604" lon="2.3133">
        <ele>89.74</ele>
        <time>2020-03-15T14:15:58.000Z</time>
      </trkpt>
      <trkpt lat="48.86046" lon="2.3133">
        <ele>89.75</ele>
        <time>2020-03-15T14:15:59.000Z</time>
      </trkpt>
      <trkpt lat="48.86052" lon="2.31331">
        <ele>89.78</ele>
        <time>2020-03-15T14:16:00.000Z</time>
      </trkpt>
      <trkpt lat="48.86058" lon="2.31331">
        <ele>89.8</ele>
        <time>2020-03-15T14:16:01.000Z</time>
      </trkpt>
      <trkpt lat="48.86064" lon="2.31332">
        <ele>89.81</ele>
        <time>2020-03-15T14:16:02.000Z</time>
      </trkpt>
      <trkpt lat="48.8607" lon="2.31332">
        <ele>89.8</ele>
        <time>2020-03-15T14:16:03.000Z</time>
      </trkpt>
      <trkpt lat="48.86076" lon="2.31333">
        <ele>89.79</ele>
        <time>2020-03-15T14:16:04.000Z</time>
      </trkpt>
      <trkpt lat="48.86081" lon="2.31334">
        <ele>89.76</ele>
        <time>2020-03-15T14:16:05.000Z</time>
      </trkpt>
      <trkpt lat="48.86087" lon="2.31335">
        <ele>89.73</ele>
        <time>2020-03-15T14:16:06.000Z</time>
      </trkpt>
      <trkpt lat="48.86093" lon="2.31336">
        <ele>89.7</ele>
        <time>2020-03-15T14:16:07.000Z</time>
      </trkpt>
      <trkpt lat="48.86099" lon="2.31336">
        <ele>89.69</ele>
        <time>2020-03-15T14:16:08.000Z</time>
      </trkpt>
      <trkpt lat="48.86104" lon="2.31337">
        <ele>89.67</ele>
        <time>2020-03-15T14:16:09.000Z</time>
      </trkpt>
      <trkpt lat="48.8611" lon="2.31337">
        <ele>89.71</ele>
        <time>2020-03-15T14:16:10.000Z</time>
      </trkpt>
      <trkpt lat="48.86116" lon="2.31338">
        <ele>89.73</ele>
        <time>2020-03-15T14:16:11.000Z</time>
      </trkpt>
      <trkpt lat="48.86122" lon="2.31338">
        <ele>89.73</ele>
        <time>2020-03-15T14:16:12.000Z</time>
      </trkpt>
      <trkpt lat="48.86128" lon="2.31339">
        <ele>89.75</ele>
        <time>2020-03-15T14:16:13.000Z</time>
      </trkpt>
      <trkpt lat="48.86134" lon="2.31339">
        <ele>89.77</ele>
        <time>2020-03-15T14:16:14.000Z</time>
      </trkpt>
      <trkpt lat="48.8614" lon="2.31339">
        <ele>89.75</ele>
        <time>2020-03-15T14:16:15.000Z</time>
      </trkpt>
      <trkpt lat="48.86146" lon="2.3134">
        <ele>89.74</ele>
        <time>2020-03-15T14:16:16.000Z</time>
      </trkpt>
      <trkpt lat="48.86152" lon="2.3134">
        <ele>89.74</ele>
        <time>2020-03-15T14:16:17.000Z</time>
      </trkpt>
      <trkpt lat="48.86158" lon="2.31341">
        <ele>89.75</ele>
        <time>2020-03-15T14:16:18.000Z</time>
      </trkpt>
      <trkpt lat="48.86163" lon="2.31341">
        <ele>89.75</ele>
        <time>2020-03-15T14:16:19.000Z</time>
      </trkpt>
      <trkpt lat="48.86169" lon="2.31342">
        <ele>89.72</ele>
        <time>2020-03-15T14:16:20.000Z</time>
      </trkpt>
      <trkpt lat="48.86174" lon="2.31342">
        <ele>89.63</ele>
        <time>2020-03-15T14:16:21.000Z</time>
      </trkpt>
      <trkpt lat="48.86179" lon="2.31343">
        <ele>89.56</ele>
        <time>2020-03-15T14:16:22.000Z</time>
      </trkpt>
      <trkpt lat="48.86184" lon="2.31344">
        <ele>89.56</ele>
        <time>2020-03-15T14:16:23.000Z</time>
      </trkpt>
      <trkpt lat="48.86189" lon="2.31344">
        <ele>89.56</ele>
        <time>2020-03-15T14:16:24.000Z</time>
      </trkpt>
      <trkpt lat="48.86194" lon="2.31345">
        <ele>89.54</ele>
        <time>2020-03-15T14:16:25.000Z</time>
      </trkpt>
      <trkpt lat="48.86199" lon="2.31345">
        <ele>89.52</ele>
        <time>2020-03-15T14:16:26.000Z</time>
      </trkpt>
      <trkpt lat="48.86204" lon="2.31346">
        <ele>89.48</ele>
        <time>2020-03-15T14:16:27.000Z</time>
      </trkpt>
      <trkpt lat="48.86209" lon="2.31347">
        <ele>89.45</ele>
        <time>2020-03-15T14:16:28.000Z</time>
      </trkpt>
      <trkpt lat="48.86214" lon="2.31347">
        <ele>89.44</ele>
        <time>2020-03-15T14:16:29.000Z</time>
      </trkpt>
      <trkpt lat="48.86218" lon="2.31347">
        <ele>89.45</ele>
        <time>2020-03-15T14:16:30.000Z</time>
      </trkpt>
      <trkpt lat="48.86223" lon="2.31348">
        <ele>89.49</ele>
        <time>2020-03-15T14:16:31.000Z</time>
      </trkpt>
      <trkpt lat="48.86227" lon="2.31348">
        <ele>89.53</ele>
        <time>2020-03-15T14:16:32.000Z</time>
      </trkpt>
      <trkpt lat="48.86232" lon="2.31349">
        <ele>89.59</ele>
        <time>2020-03-15T14:16:33.000Z</time>
      </trkpt>
      <trkpt lat="48.86237" lon="2.3135">
        <ele>89.65</ele>
        <time>2020-03-15T14:16:34.000Z</time>
      </trkpt>
      <trkpt lat="48.86242" lon="2.31351">
        <ele>89.71</ele>
        <time>2020-03-15T14:16:35.000Z</time>
      </trkpt>
      <trkpt lat="48.86246" lon="2.31352">
        <ele>89.81</ele>
        <time>2020-03-15T14:16:36.000Z</time>
      </trkpt>
      <trkpt lat="48.8625" lon="2.31353">
        <ele>89.89</ele>
        <time>2020-03-15T14:16:37.000Z</time>
      </trkpt>
      <trkpt lat="48.86254" lon="2.31353">
        <ele>89.95</ele>
        <time>2020-03-15T14:16:38.000Z</time>
      </trkpt>
      <trkpt lat="48.86259" lon="2.31354">
        <ele>89.99</ele>
        <time>2020-03-15T14:16:39.000Z</time>
      </trkpt>
      <trkpt lat="48.86263" lon="2.31354">
        <ele>90.03</ele>
        <time>2020-03-15T14:16:40.000Z</time>
      </trkpt>
      <trkpt lat="48.86268" lon="2.31355">
        <ele>90.07</ele>
        <time>2020-03-15T14:16:41.000Z</time>
      </trkpt>
      <trkpt lat="48.86272" lon="2.31356">
        <ele>90.09</ele>
        <time>2020-03-15T14:16:42.000Z</time>
      </trkpt>
      <trkpt lat="48.86277" lon="2.31356">
        <ele>90.12</ele>
        <time>2020-03-15T14:16:43.000Z</time>
      </trkpt>
      <trkpt lat="48.86281" lon="2.31357">
        <ele>90.14</ele>
        <time>2020-03-15T14:16:44.000Z</time>
      </trkpt>
      <trkpt lat="48.86286" lon="2.31358">
        <ele>90.17</ele>
        <time>2020-03-15T14:16:45.000Z</time>
      </trkpt>
      <trkpt lat="48.8629" lon="2.31358">
        <ele>90.21</ele>
        <time>2020-03-15T14:16:46.000Z</time>
      </trkpt>
      <trkpt lat="48.86294" lon="2.31358">
        <ele>90.22</ele>
        <time>2020-03-15T14:16:47.000Z</time>
      </trkpt>
      <trkpt lat="48.86298" lon="2.31358">
        <ele>90.22</ele>
        <time>2020-03-15T14:16:48.000Z</time>
      </trkpt>
      <trkpt lat="48.86302" lon="2.31359">
        <ele>90.19</ele>
        <time>2020-03-15T14:16:49.000Z</time>
      </trkpt>
      <trkpt lat="48.86306" lon="2.31359">
        <ele>90.16</ele>
        <time>2020-03-15T14:16:50.000Z</time>
      </trkpt>
      <trkpt lat="48.8631" lon="2.3136">
        <ele>90.15</ele>
        <time>2020-03-15T14:16:51.000Z</time>
      </trkpt>
      <trkpt lat="48.86315" lon="2.3136">
        <ele>90.11</ele>
        <time>2020-03-15T14:16:52.000Z</time>
      </trkpt>
      <trkpt lat="48.86319" lon="2.31361">
        <ele>90.04</ele>
        <time>2020-03-15T14:16:53.000Z</time>
      </trkpt>
      <trkpt lat="48.86324" lon="2.31362">
        <ele>89.97</ele>
        <time>2020-03-15T14:16:54.000Z</time>
      </trkpt>
      <trkpt lat="48.86328" lon="2.31363">
        <ele>89.92</ele>
        <time>2020-03-15T14:16:55.000Z</time>
      </trkpt>
      <trkpt lat="48.86333" lon="2.31363">
        <ele>89.88</ele>
        <time>2020-03-15T14:16:56.000Z</time>
      </trkpt>
      <trkpt lat="48.86337" lon="2.31364">
        <ele>89.85</ele>
        <time>2020-03-15T14:16:57.000Z</time>
      </trkpt>
      <trkpt lat="48.86341" lon="2.31365">
        <ele>89.83</ele>
        <time>2020-03-15T14:16:58.000Z</time>
      </trkpt>
      <trkpt lat="48.86345" lon="2.31366">
        <ele>89.82</ele>
        <time>2020-03-15T14:16:59.000Z</time>
      </trkpt>
      <trkpt lat="48.86349" lon="2.31367">
        <ele>89.82</ele>
        <time>2020-03-15T14:17:00.000Z</time>
      </trkpt>
      <trkpt lat="48.86354" lon="2.31368">
        <ele>89.85</ele>
        <time>2020-03-15T14:17:01.000Z</time>
      </trkpt>
      <trkpt lat="48.86358" lon="2.31369">
        <ele>89.88</ele>
        <time>2020-03-15T14:17:02.000Z</time>
      </trkpt>
      <trkpt lat="48.86362" lon="2.3137">
        <ele>89.88</ele>
        <time>2020-03-15T14:17:03.000Z</time>
      </trkpt>
      <trkpt lat="48.86364" lon="2.31373">
        <ele>89.88</ele>
        <time>2020-03-15T14:17:04.000Z</time>
      </trkpt>
      <trkpt lat="48.86368" lon="2.31374">
        <ele>89.88</ele>
        <time>2020-03-15T14:17:05.000Z</time>
      </trkpt>
      <trkpt lat="48.8637" lon="2.31376">
        <ele>89.88</ele>
        <time>2020-03-15T14:17:06.000Z</time>
      </trkpt>
      <trkpt lat="48.86373" lon="2.31377">
        <ele>89.89</ele>
        <time>2020-03-15T14:17:07.000Z</time>
      </trkpt>
      <trkpt lat="48.86375" lon="2.31379">
        <ele>89.88</ele>
        <time>2020-03-15T14:17:08.000Z</time>
      </trkpt>
      <trkpt lat="48.86377" lon="2.3138">
        <ele>89.88</ele>
        <time>2020-03-15T14:17:09.000Z</time>
      </trkpt>
      <trkpt lat="48.86379" lon="2.31382">
        <ele>89.88</ele>
        <time>2020-03-15T14:17:10.000Z</time>
      </trkpt>
      <trkpt lat="48.86381" lon="2.31383">
        <ele>89.88</ele>
        <time>2020-03-15T14:17:11.000Z</time>
      </trkpt>
      <trkpt lat="48.86383" lon="2.31383">
        <ele>89.87</ele>
        <time>2020-03-15T14:17:12.000Z</time>
      </trkpt>
      <trkpt lat="48.86385" lon="2.31383">
        <ele>89.87</ele>
        <time>2020-03-15T14:17:13.000Z</time>
      </trkpt>
      <trkpt lat="48.86388" lon="2.31383">
        <ele>89.86</ele>
        <time>2020-03-15T14:17:14.000Z</time>
      </trkpt>
      <trkpt lat="48.86391" lon="2.31383">
        <ele>89.85</ele>
        <time>2020-03-15T14:17:15.000Z</time>
      </trkpt>
      <trkpt lat="48.86394" lon="2.31384">
        <ele>89.84</ele>
        <time>2020-03-15T14:17:16.000Z</time>
      </trkpt>
      <trkpt lat="48.86396" lon="2.31384">
        <ele>89.83</ele>
        <time>2020-03-15T14:17:17.000Z</time>
      </trkpt>
      <trkpt lat="48.86399" lon="2.31384">
        <ele>89.82</ele>
        <time>2020-03-15T14:17:18.000Z</time>
      </trkpt>
      <trkpt lat="48.86403" lon="2.31384">
        <ele>89.81</ele>
        <time>2020-03-15T14:17:19.000Z</time>
      </trkpt>
      <trkpt lat="48.86406" lon="2.31384">
        <ele>89.8</ele>
        <time>2020-03-15T14:17:20.000Z</time>
      </trkpt>
      <trkpt lat="48.8641" lon="2.31383">
        <ele>89.72</ele>
        <time>2020-03-15T14:17:21.000Z</time>
      </trkpt>
      <trkpt lat="48.86414" lon="2.31383">
        <ele>89.71</ele>
        <time>2020-03-15T14:17:22.000Z</time>
      </trkpt>
      <trkpt lat="48.86418" lon="2.31382">
        <ele>89.7</ele>
        <time>2020-03-15T14:17:23.000Z</time>
      </trkpt>
      <trkpt lat="48.86422" lon="2.31383">
        <ele>89.62</ele>
        <time>2020-03-15T14:17:24.000Z</time>
      </trkpt>
      <trkpt lat="48.86426" lon="2.31383">
        <ele>89.55</ele>
        <time>2020-03-15T14:17:25.000Z</time>
      </trkpt>
      <trkpt lat="48.8643" lon="2.31384">
        <ele>89.47</ele>
        <time>2020-03-15T14:17:26.000Z</time>
      </trkpt>
      <trkpt lat="48.86434" lon="2.31384">
        <ele>89.47</ele>
        <time>2020-03-15T14:17:27.000Z</time>
      </trkpt>
      <trkpt lat="48.86437" lon="2.31385">
        <ele>89.46</ele>
        <time>2020-03-15T14:17:28.000Z</time>
      </trkpt>
      <trkpt lat="48.8644" lon="2.31388">
        <ele>89.46</ele>
        <time>2020-03-15T14:17:29.000Z</time>
      </trkpt>
      <trkpt lat="48.86441" lon="2.31389">
        <ele>89.45</ele>
        <time>2020-03-15T14:17:30.000Z</time>
      </trkpt>
      <trkpt lat="48.86442" lon="2.31392">
        <ele>89.45</ele>
        <time>2020-03-15T14:17:31.000Z</time>
      </trkpt>
      <trkpt lat="48.86442" lon="2.31393">
        <ele>89.44</ele>
        <time>2020-03-15T14:17:32.000Z</time>
      </trkpt>
      <trkpt lat="48.86441" lon="2.31395">
        <ele>89.44</ele>
        <time>2020-03-15T14:17:33.000Z</time>
      </trkpt>
      <trkpt lat="48.86441" lon="2.31396">
        <ele>89.43</ele>
        <time>2020-03-15T14:17:34.000Z</time>
      </trkpt>
      <trkpt lat="48.8644" lon="2.31397">
        <ele>89.43</ele>
        <time>2020-03-15T14:17:35.000Z</time>
      </trkpt>
      <trkpt lat="48.86439" lon="2.314">
        <ele>89.42</ele>
        <time>2020-03-15T14:17:36.000Z</time>
      </trkpt>
      <trkpt lat="48.86438" lon="2.31402">
        <ele>89.42</ele>
        <time>2020-03-15T14:17:38.000Z</time>
      </trkpt>
      <trkpt lat="48.86437" lon="2.31403">
        <ele>89.42</ele>
        <time>2020-03-15T14:17:42.000Z</time>
      </trkpt>
      <trkpt lat="48.86436" lon="2.31408">
        <ele>89.43</ele>
        <time>2020-03-15T14:17:44.000Z</time>
      </trkpt>
      <trkpt lat="48.86436" lon="2.3141">
        <ele>89.44</ele>
        <time>2020-03-15T14:17:45.000Z</time>
      </trkpt>
      <trkpt lat="48.86435" lon="2.31411">
        <ele>89.45</ele>
        <time>2020-03-15T14:17:47.000Z</time>
      </trkpt>
      <trkpt lat="48.86434" lon="2.3141">
        <ele>89.45</ele>
        <time>2020-03-15T14:17:48.000Z</time>
      </trkpt>
      <trkpt lat="48.86434" lon="2.31409">
        <ele>89.46</ele>
        <time>2020-03-15T14:17:49.000Z</time>
      </trkpt>
      <trkpt lat="48.86433" lon="2.31406">
        <ele>89.47</ele>
        <time>2020-03-15T14:17:50.000Z</time>
      </trkpt>
      <trkpt lat="48.86434" lon="2.31405">
        <ele>89.47</ele>
        <time>2020-03-15T14:17:52.000Z</time>
      </trkpt>
      <trkpt lat="48.86435" lon="2.31406">
        <ele>89.49</ele>
        <time>2020-03-15T14:17:54.000Z</time>
      </trkpt>
      <trkpt lat="48.86436" lon="2.31407">
        <ele>89.49</ele>
        <time>2020-03-15T14:17:55.000Z</time>
      </trkpt>
      <trkpt lat="48.86437" lon="2.31407">
        <ele>89.5</ele>
        <time>2020-03-15T14:17:58.000Z</time>
      </trkpt>
      <trkpt lat="48.86436" lon="2.31405">
        <ele>89.53</ele>
        <time>2020-03-15T14:18:03.000Z</time>
      </trkpt>
      <trkpt lat="48.86435" lon="2.31405">
        <ele>89.61</ele>
        <time>2020-03-15T14:18:10.000Z</time>
      </trkpt>
      <trkpt lat="48.86435" lon="2.31406">
        <ele>89.64</ele>
        <time>2020-03-15T14:18:16.000Z</time>
      </trkpt>
      <trkpt lat="48.86435" lon="2.31408">
        <ele>89.64</ele>
        <time>2020-03-15T14:18:17.000Z</time>
      </trkpt>
      <trkpt lat="48.86435" lon="2.31409">
        <ele>89.65</ele>
        <time>2020-03-15T14:18:18.000Z</time>
      </trkpt>
      <trkpt lat="48.86435" lon="2.31408">
        <ele>89.68</ele>
        <time>2020-03-15T14:18:27.000Z</time>
      </trkpt>
      <trkpt lat="48.86436" lon="2.31406">
        <ele>89.72</ele>
        <time>2020-03-15T14:18:37.000Z</time>
      </trkpt>
      <trkpt lat="48.86438" lon="2.31404">
        <ele>89.74</ele>
        <time>2020-03-15T14:18:38.000Z</time>
      </trkpt>
      <trkpt lat="48.8644" lon="2.31402">
        <ele>89.76</ele>
        <time>2020-03-15T14:18:39.000Z</time>
      </trkpt>
      <trkpt lat="48.86442" lon="2.314">
        <ele>89.77</ele>
        <time>2020-03-15T14:18:40.000Z</time>
      </trkpt>
      <trkpt lat="48.86444" lon="2.31398">
        <ele>89.78</ele>
        <time>2020-03-15T14:18:41.000Z</time>
      </trkpt>
      <trkpt lat="48.86446" lon="2.31396">
        <ele>89.8</ele>
        <time>2020-03-15T14:18:42.000Z</time>
      </trkpt>
      <trkpt lat="48.86447" lon="2.31394">
        <ele>89.81</ele>
        <time>2020-03-15T14:18:43.000Z</time>
      </trkpt>
      <trkpt lat="48.86448" lon="2.31391">
        <ele>89.82</ele>
        <time>2020-03-15T14:18:44.000Z</time>
      </trkpt>
      <trkpt lat="48.86449" lon="2.31389">
        <ele>89.83</ele>
        <time>2020-03-15T14:18:45.000Z</time>
      </trkpt>
      <trkpt lat="48.86449" lon="2.31387">
        <ele>89.85</ele>
        <time>2020-03-15T14:18:46.000Z</time>
      </trkpt>
      <trkpt lat="48.8645" lon="2.31386">
        <ele>89.86</ele>
        <time>2020-03-15T14:18:47.000Z</time>
      </trkpt>
      <trkpt lat="48.86451" lon="2.31387">
        <ele>89.88</ele>
        <time>2020-03-15T14:18:49.000Z</time>
      </trkpt>
      <trkpt lat="48.86451" lon="2.31385">
        <ele>89.91</ele>
        <time>2020-03-15T14:18:52.000Z</time>
      </trkpt>
      <trkpt lat="48.86451" lon="2.31383">
        <ele>89.93</ele>
        <time>2020-03-15T14:18:54.000Z</time>
      </trkpt>
      <trkpt lat="48.8645" lon="2.31386">
        <ele>89.95</ele>
        <time>2020-03-15T14:18:57.000Z</time>
      </trkpt>
      <trkpt lat="48.86446" lon="2.31388">
        <ele>89.95</ele>
        <time>2020-03-15T14:18:58.000Z</time>
      </trkpt>
      <trkpt lat="48.86446" lon="2.31391">
        <ele>89.96</ele>
        <time>2020-03-15T14:18:59.000Z</time>
      </trkpt>
      <trkpt lat="48.86446" lon="2.3139">
        <ele>89.97</ele>
        <time>2020-03-15T14:19:03.000Z</time>
      </trkpt>
      <trkpt lat="48.86445" lon="2.31392">
        <ele>89.98</ele>
        <time>2020-03-15T14:19:10.000Z</time>
      </trkpt>
      <trkpt lat="48.86445" lon="2.3139">
        <ele>89.96</ele>
        <time>2020-03-15T14:19:24.000Z</time>
      </trkpt>
      <trkpt lat="48.86446" lon="2.31391">
        <ele>89.88</ele>
        <time>2020-03-15T14:19:49.000Z</time>
      </trkpt>
      <trkpt lat="48.86446" lon="2.31389">
        <ele>89.84</ele>
        <time>2020-03-15T14:20:00.000Z</time>
      </trkpt>
      <trkpt lat="48.86445" lon="2.31388">
        <ele>89.83</ele>
        <time>2020-03-15T14:20:04.000Z</time>
      </trkpt>
      <trkpt lat="48.86445" lon="2.31385">
        <ele>89.62</ele>
        <time>2020-03-15T14:20:15.000Z</time>
      </trkpt>
      <trkpt lat="48.86444" lon="2.31383">
        <ele>89.58</ele>
        <time>2020-03-15T14:20:16.000Z</time>
      </trkpt>
      <trkpt lat="48.86443" lon="2.31381">
        <ele>89.55</ele>
        <time>2020-03-15T14:20:17.000Z</time>
      </trkpt>
      <trkpt lat="48.86442" lon="2.3138">
        <ele>89.52</ele>
        <time>2020-03-15T14:20:18.000Z</time>
      </trkpt>
      <trkpt lat="48.86441" lon="2.31377">
        <ele>89.49</ele>
        <time>2020-03-15T14:20:19.000Z</time>
      </trkpt>
      <trkpt lat="48.8644" lon="2.31372">
        <ele>89.46</ele>
        <time>2020-03-15T14:20:20.000Z</time>
      </trkpt>
      <trkpt lat="48.86441" lon="2.31368">
        <ele>89.43</ele>
        <time>2020-03-15T14:20:21.000Z</time>
      </trkpt>
      <trkpt lat="48.86441" lon="2.31363">
        <ele>89.41</ele>
        <time>2020-03-15T14:20:22.000Z</time>
      </trkpt>
      <trkpt lat="48.86441" lon="2.31358">
        <ele>89.38</ele>
        <time>2020-03-15T14:20:23.000Z</time>
      </trkpt>
      <trkpt lat="48.86441" lon="2.31353">
        <ele>89.35</ele>
        <time>2020-03-15T14:20:24.000Z</time>
      </trkpt>
      <trkpt lat="48.86441" lon="2.31348">
        <ele>89.32</ele>
        <time>2020-03-15T14:20:25.000Z</time>
      </trkpt>
      <trkpt lat="48.86441" lon="2.31342">
        <ele>89.3</ele>
        <time>2020-03-15T14:20:26.000Z</time>
      </trkpt>
      <trkpt lat="48.86441" lon="2.31336">
        <ele>89.27</ele>
        <time>2020-03-15T14:20:27.000Z</time>
      </trkpt>
      <trkpt lat="48.86441" lon="2.3133">
        <ele>89.25</ele>
        <time>2020-03-15T14:20:28.000Z</time>
      </trkpt>
      <trkpt lat="48.86442" lon="2.31324">
        <ele>89.22</ele>
        <time>2020-03-15T14:20:29.000Z</time>
      </trkpt>
      <trkpt lat="48.86442" lon="2.31318">
        <ele>89.2</ele>
        <time>2020-03-15T14:20:30.000Z</time>
      </trkpt>
      <trkpt lat="48.86443" lon="2.31312">
        <ele>88.95</ele>
        <time>2020-03-15T14:20:31.000Z</time>
      </trkpt>
      <trkpt lat="48.86443" lon="2.31305">
        <ele>88.75</ele>
        <time>2020-03-15T14:20:32.000Z</time>
      </trkpt>
      <trkpt lat="48.86443" lon="2.31298">
        <ele>88.58</ele>
        <time>2020-03-15T14:20:33.000Z</time>
      </trkpt>
      <trkpt lat="48.86443" lon="2.31291">
        <ele>88.44</ele>
        <time>2020-03-15T14:20:34.000Z</time>
      </trkpt>
      <trkpt lat="48.86443" lon="2.31283">
        <ele>88.32</ele>
        <time>2020-03-15T14:20:35.000Z</time>
      </trkpt>
      <trkpt lat="48.86443" lon="2.31276">
        <ele>88.23</ele>
        <time>2020-03-15T14:20:36.000Z</time>
      </trkpt>
      <trkpt lat="48.86442" lon="2.31268">
        <ele>88.16</ele>
        <time>2020-03-15T14:20:37.000Z</time>
      </trkpt>
      <trkpt lat="48.86442" lon="2.3126">
        <ele>88.1</ele>
        <time>2020-03-15T14:20:38.000Z</time>
      </trkpt>
      <trkpt lat="48.86441" lon="2.31252">
        <ele>88.05</ele>
        <time>2020-03-15T14:20:39.000Z</time>
      </trkpt>
      <trkpt lat="48.8644" lon="2.31244">
        <ele>88.01</ele>
        <time>2020-03-15T14:20:40.000Z</time>
      </trkpt>
      <trkpt lat="48.86439" lon="2.31237">
        <ele>87.97</ele>
        <time>2020-03-15T14:20:41.000Z</time>
      </trkpt>
      <trkpt lat="48.86439" lon="2.31228">
        <ele>87.93</ele>
        <time>2020-03-15T14:20:42.000Z</time>
      </trkpt>
      <trkpt lat="48.86439" lon="2.31219">
        <ele>87.9</ele>
        <time>2020-03-15T14:20:43.000Z</time>
      </trkpt>
      <trkpt lat="48.86439" lon="2.31211">
        <ele>87.87</ele>
        <time>2020-03-15T14:20:44.000Z</time>
      </trkpt>
      <trkpt lat="48.86439" lon="2.31202">
        <ele>87.84</ele>
        <time>2020-03-15T14:20:45.000Z</time>
      </trkpt>
      <trkpt lat="48.86439" lon="2.31193">
        <ele>87.82</ele>
        <time>2020-03-15T14:20:46.000Z</time>
      </trkpt>
      <trkpt lat="48.86439" lon="2.31185">
        <ele>87.8</ele>
        <time>2020-03-15T14:20:47.000Z</time>
      </trkpt>
      <trkpt lat="48.86439" lon="2.31176">
        <ele>87.79</ele>
        <time>2020-03-15T14:20:48.000Z</time>
      </trkpt>
      <trkpt lat="48.86439" lon="2.31167">
        <ele>87.78</ele>
        <time>2020-03-15T14:20:49.000Z</time>
      </trkpt>
      <trkpt lat="48.86438" lon="2.31158">
        <ele>87.77</ele>
        <time>2020-03-15T14:20:50.000Z</time>
      </trkpt>
      <trkpt lat="48.86438" lon="2.31149">
        <ele>87.77</ele>
        <time>2020-03-15T14:20:51.000Z</time>
      </trkpt>
      <trkpt lat="48.86438" lon="2.31142">
        <ele>87.76</ele>
        <time>2020-03-15T14:20:52.000Z</time>
      </trkpt>
      <trkpt lat="48.86437" lon="2.31134">
        <ele>87.74</ele>
        <time>2020-03-15T14:20:53.000Z</time>
      </trkpt>
      <trkpt lat="48.86437" lon="2.31127">
        <ele>87.73</ele>
        <time>2020-03-15T14:20:54.000Z</time>
      </trkpt>
      <trkpt lat="48.86437" lon="2.3112">
        <ele>87.72</ele>
        <time>2020-03-15T14:20:55.000Z</time>
      </trkpt>
      <trkpt lat="48.86437" lon="2.31113">
        <ele>87.7</ele>
        <time>2020-03-15T14:20:56.000Z</time>
      </trkpt>
      <trkpt lat="48.86437" lon="2.31107">
        <ele>87.69</ele>
        <time>2020-03-15T14:20:57.000Z</time>
      </trkpt>
      <trkpt lat="48.86437" lon="2.311">
        <ele>87.68</ele>
        <time>2020-03-15T14:20:58.000Z</time>
      </trkpt>
      <trkpt lat="48.86436" lon="2.31094">
        <ele>87.67</ele>
        <time>2020-03-15T14:20:59.000Z</time>
      </trkpt>
      <trkpt lat="48.86437" lon="2.31087">
        <ele>87.66</ele>
        <time>2020-03-15T14:21:00.000Z</time>
      </trkpt>
      <trkpt lat="48.86437" lon="2.31081">
        <ele>87.66</ele>
        <time>2020-03-15T14:21:01.000Z</time>
      </trkpt>
      <trkpt lat="48.86438" lon="2.31076">
        <ele>87.66</ele>
        <time>2020-03-15T14:21:02.000Z</time>
      </trkpt>
      <trkpt lat="48.86438" lon="2.31071">
        <ele>87.66</ele>
        <time>2020-03-15T14:21:03.000Z</time>
      </trkpt>
      <trkpt lat="48.86439" lon="2.31067">
        <ele>87.66</ele>
        <time>2020-03-15T14:21:04.000Z</time>
      </trkpt>
      <trkpt lat="48.86439" lon="2.31062">
        <ele>87.66</ele>
        <time>2020-03-15T14:21:05.000Z</time>
      </trkpt>
      <trkpt lat="48.8644" lon="2.31059">
        <ele>87.66</ele>
        <time>2020-03-15T14:21:06.000Z</time>
      </trkpt>
      <trkpt lat="48.8644" lon="2.31056">
        <ele>87.66</ele>
        <time>2020-03-15T14:21:07.000Z</time>
      </trkpt>
      <trkpt lat="48.8644" lon="2.31053">
        <ele>87.65</ele>
        <time>2020-03-15T14:21:08.000Z</time>
      </trkpt>
      <trkpt lat="48.86441" lon="2.31051">
        <ele>87.65</ele>
        <time>2020-03-15T14:21:09.000Z</time>
      </trkpt>
      <trkpt lat="48.86442" lon="2.31049">
        <ele>87.65</ele>
        <time>2020-03-15T14:21:10.000Z</time>
      </trkpt>
      <trkpt lat="48.86443" lon="2.31048">
        <ele>87.65</ele>
        <time>2020-03-15T14:21:12.000Z</time>
      </trkpt>
      <trkpt lat="48.86443" lon="2.31049">
        <ele>87.65</ele>
        <time>2020-03-15T14:21:20.000Z</time>
      </trkpt>
      <trkpt lat="48.86443" lon="2.31045">
        <ele>87.66</ele>
        <time>2020-03-15T14:21:22.000Z</time>
      </trkpt>
      <trkpt lat="48.86443" lon="2.31041">
        <ele>87.66</ele>
        <time>2020-03-15T14:21:23.000Z</time>
      </trkpt>
      <trkpt lat="48.86443" lon="2.31038">
        <ele>87.66</ele>
        <time>2020-03-15T14:21:24.000Z</time>
      </trkpt>
      <trkpt lat="48.86443" lon="2.31034">
        <ele>87.66</ele>
        <time>2020-03-15T14:21:25.000Z</time>
      </trkpt>
      <trkpt lat="48.86443" lon="2.31031">
        <ele>87.66</ele>
        <time>2020-03-15T14:21:26.000Z</time>
      </trkpt>
      <trkpt lat="48.86443" lon="2.31027">
        <ele>87.66</ele>
        <time>2020-03-15T14:21:27.000Z</time>
      </trkpt>
      <trkpt lat="48.86443" lon="2.31024">
        <ele>87.66</ele>
        <time>2020-03-15T14:21:28.000Z</time>
      </trkpt>
      <trkpt lat="48.86444" lon="2.3102">
        <ele>87.66</ele>
        <time>2020-03-15T14:21:29.000Z</time>
      </trkpt>
      <trkpt lat="48.86445" lon="2.31017">
        <ele>87.66</ele>
        <time>2020-03-15T14:21:30.000Z</time>
      </trkpt>
      <trkpt lat="48.86445" lon="2.31013">
        <ele>87.66</ele>
        <time>2020-03-15T14:21:31.000Z</time>
      </trkpt>
      <trkpt lat="48.86447" lon="2.3101">
        <ele>87.66</ele>
        <time>2020-03-15T14:21:32.000Z</time>
      </trkpt>
      <trkpt lat="48.86449" lon="2.31008">
        <ele>87.66</ele>
        <time>2020-03-15T14:21:33.000Z</time>
      </trkpt>
      <trkpt lat="48.8645" lon="2.31007">
        <ele>87.66</ele>
        <time>2020-03-15T14:21:35.000Z</time>
      </trkpt>
      <trkpt lat="48.8645" lon="2.31005">
        <ele>87.66</ele>
        <time>2020-03-15T14:21:36.000Z</time>
      </trkpt>
      <trkpt lat="48.86451" lon="2.31004">
        <ele>87.67</ele>
        <time>2020-03-15T14:21:37.000Z</time>
      </trkpt>
      <trkpt lat="48.86452" lon="2.31003">
        <ele>87.67</ele>
        <time>2020-03-15T14:21:38.000Z</time>
      </trkpt>
      <trkpt lat="48.86453" lon="2.31">
        <ele>87.67</ele>
        <time>2020-03-15T14:21:39.000Z</time>
      </trkpt>
      <trkpt lat="48.86454" lon="2.30997">
        <ele>87.67</ele>
        <time>2020-03-15T14:21:40.000Z</time>
      </trkpt>
      <trkpt lat="48.86455" lon="2.30992">
        <ele>87.67</ele>
        <time>2020-03-15T14:21:41.000Z</time>
      </trkpt>
      <trkpt lat="48.86456" lon="2.30988">
        <ele>87.67</ele>
        <time>2020-03-15T14:21:42.000Z</time>
      </trkpt>
      <trkpt lat="48.86456" lon="2.30984">
        <ele>87.67</ele>
        <time>2020-03-15T14:21:43.000Z</time>
      </trkpt>
      <trkpt lat="48.86456" lon="2.3098">
        <ele>87.68</ele>
        <time>2020-03-15T14:21:44.000Z</time>
      </trkpt>
      <trkpt lat="48.86456" lon="2.30978">
        <ele>87.68</ele>
        <time>2020-03-15T14:21:45.000Z</time>
      </trkpt>
      <trkpt lat="48.86457" lon="2.30975">
        <ele>87.68</ele>
        <time>2020-03-15T14:21:46.000Z</time>
      </trkpt>
      <trkpt lat="48.86457" lon="2.3097">
        <ele>87.68</ele>
        <time>2020-03-15T14:21:47.000Z</time>
      </trkpt>
      <trkpt lat="48.86457" lon="2.30965">
        <ele>87.68</ele>
        <time>2020-03-15T14:21:48.000Z</time>
      </trkpt>
      <trkpt lat="48.86456" lon="2.30961">
        <ele>87.69</ele>
        <time>2020-03-15T14:21:49.000Z</time>
      </trkpt>
      <trkpt lat="48.86456" lon="2.30956">
        <ele>87.69</ele>
        <time>2020-03-15T14:21:50.000Z</time>
      </trkpt>
      <trkpt lat="48.86457" lon="2.3095">
        <ele>87.69</ele>
        <time>2020-03-15T14:21:51.000Z</time>
      </trkpt>
      <trkpt lat="48.86457" lon="2.30945">
        <ele>87.69</ele>
        <time>2020-03-15T14:21:52.000Z</time>
      </trkpt>
      <trkpt lat="48.86458" lon="2.30941">
        <ele>87.69</ele>
        <time>2020-03-15T14:21:53.000Z</time>
      </trkpt>
      <trkpt lat="48.86458" lon="2.30936">
        <ele>87.69</ele>
        <time>2020-03-15T14:21:54.000Z</time>
      </trkpt>
      <trkpt lat="48.86459" lon="2.30929">
        <ele>87.69</ele>
        <time>2020-03-15T14:21:55.000Z</time>
      </trkpt>
      <trkpt lat="48.8646" lon="2.30925">
        <ele>87.69</ele>
        <time>2020-03-15T14:21:56.000Z</time>
      </trkpt>
      <trkpt lat="48.86461" lon="2.3092">
        <ele>87.69</ele>
        <time>2020-03-15T14:21:57.000Z</time>
      </trkpt>
      <trkpt lat="48.86461" lon="2.30916">
        <ele>87.69</ele>
        <time>2020-03-15T14:21:58.000Z</time>
      </trkpt>
      <trkpt lat="48.86461" lon="2.3091">
        <ele>87.69</ele>
        <time>2020-03-15T14:21:59.000Z</time>
      </trkpt>
      <trkpt lat="48.86461" lon="2.30906">
        <ele>87.7</ele>
        <time>2020-03-15T14:22:00.000Z</time>
      </trkpt>
      <trkpt lat="48.86461" lon="2.309">
        <ele>87.69</ele>
        <time>2020-03-15T14:22:01.000Z</time>
      </trkpt>
      <trkpt lat="48.86462" lon="2.30894">
        <ele>87.69</ele>
        <time>2020-03-15T14:22:02.000Z</time>
      </trkpt>
      <trkpt lat="48.86462" lon="2.30889">
        <ele>87.69</ele>
        <time>2020-03-15T14:22:03.000Z</time>
      </trkpt>
      <trkpt lat="48.86461" lon="2.30882">
        <ele>87.69</ele>
        <time>2020-03-15T14:22:04.000Z</time>
      </trkpt>
      <trkpt lat="48.86461" lon="2.30874">
        <ele>87.69</ele>
        <time>2020-03-15T14:22:05.000Z</time>
      </trkpt>
      <trkpt lat="48.8646" lon="2.30867">
        <ele>87.69</ele>
        <time>2020-03-15T14:22:06.000Z</time>
      </trkpt>
      <trkpt lat="48.8646" lon="2.30859">
        <ele>87.69</ele>
        <time>2020-03-15T14:22:07.000Z</time>
      </trkpt>
      <trkpt lat="48.86459" lon="2.30853">
        <ele>87.69</ele>
        <time>2020-03-15T14:22:08.000Z</time>
      </trkpt>
      <trkpt lat="48.86458" lon="2.30847">
        <ele>87.69</ele>
        <time>2020-03-15T14:22:09.000Z</time>
      </trkpt>
      <trkpt lat="48.86458" lon="2.30841">
        <ele>87.69</ele>
        <time>2020-03-15T14:22:10.000Z</time>
      </trkpt>
      <trkpt lat="48.86458" lon="2.30831">
        <ele>87.7</ele>
        <time>2020-03-15T14:22:11.000Z</time>
      </trkpt>
      <trkpt lat="48.86458" lon="2.30827">
        <ele>87.7</ele>
        <time>2020-03-15T14:22:12.000Z</time>
      </trkpt>
      <trkpt lat="48.86459" lon="2.30822">
        <ele>87.7</ele>
        <time>2020-03-15T14:22:13.000Z</time>
      </trkpt>
      <trkpt lat="48.86459" lon="2.30817">
        <ele>87.7</ele>
        <time>2020-03-15T14:22:14.000Z</time>
      </trkpt>
      <trkpt lat="48.86458" lon="2.30813">
        <ele>87.7</ele>
        <time>2020-03-15T14:22:15.000Z</time>
      </trkpt>
      <trkpt lat="48.86458" lon="2.30808">
        <ele>87.71</ele>
        <time>2020-03-15T14:22:16.000Z</time>
      </trkpt>
      <trkpt lat="48.86458" lon="2.30803">
        <ele>87.71</ele>
        <time>2020-03-15T14:22:17.000Z</time>
      </trkpt>
      <trkpt lat="48.86458" lon="2.30797">
        <ele>87.71</ele>
        <time>2020-03-15T14:22:18.000Z</time>
      </trkpt>
      <trkpt lat="48.86457" lon="2.3079">
        <ele>87.71</ele>
        <time>2020-03-15T14:22:19.000Z</time>
      </trkpt>
      <trkpt lat="48.86456" lon="2.30782">
        <ele>87.72</ele>
        <time>2020-03-15T14:22:20.000Z</time>
      </trkpt>
      <trkpt lat="48.86456" lon="2.30775">
        <ele>87.72</ele>
        <time>2020-03-15T14:22:21.000Z</time>
      </trkpt>
      <trkpt lat="48.86455" lon="2.30768">
        <ele>87.74</ele>
        <time>2020-03-15T14:22:22.000Z</time>
      </trkpt>
      <trkpt lat="48.86455" lon="2.30761">
        <ele>87.74</ele>
        <time>2020-03-15T14:22:23.000Z</time>
      </trkpt>
      <trkpt lat="48.86455" lon="2.30753">
        <ele>87.75</ele>
        <time>2020-03-15T14:22:24.000Z</time>
      </trkpt>
      <trkpt lat="48.86456" lon="2.30747">
        <ele>87.75</ele>
        <time>2020-03-15T14:22:25.000Z</time>
      </trkpt>
      <trkpt lat="48.86457" lon="2.3074">
        <ele>87.75</ele>
        <time>2020-03-15T14:22:26.000Z</time>
      </trkpt>
      <trkpt lat="48.86456" lon="2.30735">
        <ele>87.75</ele>
        <time>2020-03-15T14:22:27.000Z</time>
      </trkpt>
      <trkpt lat="48.86457" lon="2.30728">
        <ele>87.76</ele>
        <time>2020-03-15T14:22:28.000Z</time>
      </trkpt>
      <trkpt lat="48.86458" lon="2.3072">
        <ele>87.76</ele>
        <time>2020-03-15T14:22:29.000Z</time>
      </trkpt>
      <trkpt lat="48.86458" lon="2.30713">
        <ele>87.77</ele>
        <time>2020-03-15T14:22:30.000Z</time>
      </trkpt>
      <trkpt lat="48.86459" lon="2.30706">
        <ele>87.77</ele>
        <time>2020-03-15T14:22:31.000Z</time>
      </trkpt>
      <trkpt lat="48.8646" lon="2.30699">
        <ele>87.77</ele>
        <time>2020-03-15T14:22:32.000Z</time>
      </trkpt>
      <trkpt lat="48.86461" lon="2.30693">
        <ele>87.77</ele>
        <time>2020-03-15T14:22:33.000Z</time>
      </trkpt>
      <trkpt lat="48.86461" lon="2.30687">
        <ele>87.77</ele>
        <time>2020-03-15T14:22:34.000Z</time>
      </trkpt>
      <trkpt lat="48.86461" lon="2.30678">
        <ele>87.78</ele>
        <time>2020-03-15T14:22:35.000Z</time>
      </trkpt>
      <trkpt lat="48.8646" lon="2.3067">
        <ele>87.79</ele>
        <time>2020-03-15T14:22:36.000Z</time>
      </trkpt>
      <trkpt lat="48.86459" lon="2.30663">
        <ele>87.79</ele>
        <time>2020-03-15T14:22:37.000Z</time>
      </trkpt>
      <trkpt lat="48.86458" lon="2.30652">
        <ele>87.8</ele>
        <time>2020-03-15T14:22:38.000Z</time>
      </trkpt>
      <trkpt lat="48.86459" lon="2.30642">
        <ele>87.81</ele>
        <time>2020-03-15T14:22:39.000Z</time>
      </trkpt>
      <trkpt lat="48.86458" lon="2.30633">
        <ele>87.82</ele>
        <time>2020-03-15T14:22:40.000Z</time>
      </trkpt>
      <trkpt lat="48.86458" lon="2.30627">
        <ele>87.82</ele>
        <time>2020-03-15T14:22:41.000Z</time>
      </trkpt>
      <trkpt lat="48.86459" lon="2.3062">
        <ele>87.84</ele>
        <time>2020-03-15T14:22:42.000Z</time>
      </trkpt>
      <trkpt lat="48.86458" lon="2.30614">
        <ele>87.84</ele>
        <time>2020-03-15T14:22:43.000Z</time>
      </trkpt>
      <trkpt lat="48.86459" lon="2.30608">
        <ele>87.84</ele>
        <time>2020-03-15T14:22:44.000Z</time>
      </trkpt>
      <trkpt lat="48.86459" lon="2.30603">
        <ele>87.85</ele>
        <time>2020-03-15T14:22:45.000Z</time>
      </trkpt>
      <trkpt lat="48.86459" lon="2.30596">
        <ele>87.85</ele>
        <time>2020-03-15T14:22:46.000Z</time>
      </trkpt>
      <trkpt lat="48.86457" lon="2.3059">
        <ele>87.85</ele>
        <time>2020-03-15T14:22:47.000Z</time>
      </trkpt>
      <trkpt lat="48.86457" lon="2.30583">
        <ele>87.85</ele>
        <time>2020-03-15T14:22:48.000Z</time>
      </trkpt>
      <trkpt lat="48.86457" lon="2.30577">
        <ele>87.86</ele>
        <time>2020-03-15T14:22:49.000Z</time>
      </trkpt>
      <trkpt lat="48.86458" lon="2.3057">
        <ele>87.86</ele>
        <time>2020-03-15T14:22:50.000Z</time>
      </trkpt>
      <trkpt lat="48.86458" lon="2.3056">
        <ele>87.86</ele>
        <time>2020-03-15T14:22:51.000Z</time>
      </trkpt>
      <trkpt lat="48.86457" lon="2.30554">
        <ele>87.87</ele>
        <time>2020-03-15T14:22:52.000Z</time>
      </trkpt>
      <trkpt lat="48.86457" lon="2.30549">
        <ele>87.87</ele>
        <time>2020-03-15T14:22:53.000Z</time>
      </trkpt>
      <trkpt lat="48.86458" lon="2.30545">
        <ele>87.87</ele>
        <time>2020-03-15T14:22:54.000Z</time>
      </trkpt>
      <trkpt lat="48.86458" lon="2.30539">
        <ele>87.88</ele>
        <time>2020-03-15T14:22:56.000Z</time>
      </trkpt>
      <trkpt lat="48.86458" lon="2.30537">
        <ele>87.89</ele>
        <time>2020-03-15T14:22:57.000Z</time>
      </trkpt>
      <trkpt lat="48.86456" lon="2.30534">
        <ele>87.9</ele>
        <time>2020-03-15T14:22:58.000Z</time>
      </trkpt>
      <trkpt lat="48.86453" lon="2.3053">
        <ele>87.9</ele>
        <time>2020-03-15T14:22:59.000Z</time>
      </trkpt>
      <trkpt lat="48.8645" lon="2.30527">
        <ele>87.91</ele>
        <time>2020-03-15T14:23:00.000Z</time>
      </trkpt>
      <trkpt lat="48.86445" lon="2.30526">
        <ele>87.92</ele>
        <time>2020-03-15T14:23:01.000Z</time>
      </trkpt>
      <trkpt lat="48.86442" lon="2.30522">
        <ele>87.92</ele>
        <time>2020-03-15T14:23:02.000Z</time>
      </trkpt>
      <trkpt lat="48.86438" lon="2.30517">
        <ele>87.93</ele>
        <time>2020-03-15T14:23:03.000Z</time>
      </trkpt>
      <trkpt lat="48.86435" lon="2.30511">
        <ele>87.94</ele>
        <time>2020-03-15T14:23:04.000Z</time>
      </trkpt>
      <trkpt lat="48.86434" lon="2.30505">
        <ele>87.95</ele>
        <time>2020-03-15T14:23:05.000Z</time>
      </trkpt>
      <trkpt lat="48.86434" lon="2.30498">
        <ele>87.95</ele>
        <time>2020-03-15T14:23:06.000Z</time>
      </trkpt>
      <trkpt lat="48.86433" lon="2.30491">
        <ele>87.96</ele>
        <time>2020-03-15T14:23:07.000Z</time>
      </trkpt>
      <trkpt lat="48.86433" lon="2.30486">
        <ele>87.97</ele>
        <time>2020-03-15T14:23:08.000Z</time>
      </trkpt>
      <trkpt lat="48.86433" lon="2.30481">
        <ele>87.97</ele>
        <time>2020-03-15T14:23:09.000Z</time>
      </trkpt>
      <trkpt lat="48.86432" lon="2.30476">
        <ele>87.98</ele>
        <time>2020-03-15T14:23:10.000Z</time>
      </trkpt>
      <trkpt lat="48.86431" lon="2.30471">
        <ele>87.98</ele>
        <time>2020-03-15T14:23:11.000Z</time>
      </trkpt>
      <trkpt lat="48.86431" lon="2.30465">
        <ele>87.99</ele>
        <time>2020-03-15T14:23:12.000Z</time>
      </trkpt>
      <trkpt lat="48.86431" lon="2.30461">
        <ele>87.99</ele>
        <time>2020-03-15T14:23:13.000Z</time>
      </trkpt>
      <trkpt lat="48.8643" lon="2.30454">
        <ele>87.99</ele>
        <time>2020-03-15T14:23:14.000Z</time>
      </trkpt>
      <trkpt lat="48.8643" lon="2.30448">
        <ele>88</ele>
        <time>2020-03-15T14:23:15.000Z</time>
      </trkpt>
      <trkpt lat="48.86429" lon="2.30444">
        <ele>88</ele>
        <time>2020-03-15T14:23:16.000Z</time>
      </trkpt>
      <trkpt lat="48.8643" lon="2.30439">
        <ele>88.01</ele>
        <time>2020-03-15T14:23:17.000Z</time>
      </trkpt>
      <trkpt lat="48.8643" lon="2.30435">
        <ele>88.01</ele>
        <time>2020-03-15T14:23:18.000Z</time>
      </trkpt>
      <trkpt lat="48.86429" lon="2.30431">
        <ele>88.01</ele>
        <time>2020-03-15T14:23:19.000Z</time>
      </trkpt>
      <trkpt lat="48.86429" lon="2.30426">
        <ele>88.02</ele>
        <time>2020-03-15T14:23:20.000Z</time>
      </trkpt>
      <trkpt lat="48.86429" lon="2.30422">
        <ele>88.02</ele>
        <time>2020-03-15T14:23:21.000Z</time>
      </trkpt>
      <trkpt lat="48.86429" lon="2.30417">
        <ele>88.02</ele>
        <time>2020-03-15T14:23:22.000Z</time>
      </trkpt>
      <trkpt lat="48.86428" lon="2.30412">
        <ele>88.03</ele>
        <time>2020-03-15T14:23:23.000Z</time>
      </trkpt>
      <trkpt lat="48.86428" lon="2.30407">
        <ele>88.03</ele>
        <time>2020-03-15T14:23:24.000Z</time>
      </trkpt>
      <trkpt lat="48.86428" lon="2.30402">
        <ele>88.03</ele>
        <time>2020-03-15T14:23:25.000Z</time>
      </trkpt>
      <trkpt lat="48.86427" lon="2.30397">
        <ele>88.03</ele>
        <time>2020-03-15T14:23:26.000Z</time>
      </trkpt>
      <trkpt lat="48.86428" lon="2.30392">
        <ele>88.04</ele>
        <time>2020-03-15T14:23:27.000Z</time>
      </trkpt>
      <trkpt lat="48.86428" lon="2.30388">
        <ele>88.04</ele>
        <time>2020-03-15T14:23:28.000Z</time>
      </trkpt>
      <trkpt lat="48.86429" lon="2.30383">
        <ele>88.04</ele>
        <time>2020-03-15T14:23:29.000Z</time>
      </trkpt>
      <trkpt lat="48.86428" lon="2.30378">
        <ele>88.04</ele>
        <time>2020-03-15T14:23:30.000Z</time>
      </trkpt>
      <trkpt lat="48.86428" lon="2.30373">
        <ele>88.04</ele>
        <time>2020-03-15T14:23:31.000Z</time>
      </trkpt>
      <trkpt lat="48.86428" lon="2.30368">
        <ele>88.04</ele>
        <time>2020-03-15T14:23:32.000Z</time>
      </trkpt>
      <trkpt lat="48.86427" lon="2.30363">
        <ele>88.04</ele>
        <time>2020-03-15T14:23:33.000Z</time>
      </trkpt>
      <trkpt lat="48.86427" lon="2.30356">
        <ele>88.04</ele>
        <time>2020-03-15T14:23:34.000Z</time>
      </trkpt>
      <trkpt lat="48.86426" lon="2.30351">
        <ele>88.04</ele>
        <time>2020-03-15T14:23:35.000Z</time>
      </trkpt>
      <trkpt lat="48.86426" lon="2.30346">
        <ele>88.04</ele>
        <time>2020-03-15T14:23:36.000Z</time>
      </trkpt>
      <trkpt lat="48.86426" lon="2.30342">
        <ele>88.04</ele>
        <time>2020-03-15T14:23:37.000Z</time>
      </trkpt>
      <trkpt lat="48.86427" lon="2.30337">
        <ele>88.04</ele>
        <time>2020-03-15T14:23:38.000Z</time>
      </trkpt>
      <trkpt lat="48.86427" lon="2.30332">
        <ele>88.04</ele>
        <time>2020-03-15T14:23:39.000Z</time>
      </trkpt>
      <trkpt lat="48.86427" lon="2.30328">
        <ele>88.04</ele>
        <time>2020-03-15T14:23:40.000Z</time>
      </trkpt>
      <trkpt lat="48.86427" lon="2.30324">
        <ele>88.04</ele>
        <time>2020-03-15T14:23:41.000Z</time>
      </trkpt>
      <trkpt lat="48.86427" lon="2.30319">
        <ele>88.04</ele>
        <time>2020-03-15T14:23:42.000Z</time>
      </trkpt>
      <trkpt lat="48.86427" lon="2.30314">
        <ele>88.04</ele>
        <time>2020-03-15T14:23:43.000Z</time>
      </trkpt>
      <trkpt lat="48.86427" lon="2.30308">
        <ele>88.04</ele>
        <time>2020-03-15T14:23:44.000Z</time>
      </trkpt>
      <trkpt lat="48.86426" lon="2.30302">
        <ele>88.04</ele>
        <time>2020-03-15T14:23:45.000Z</time>
      </trkpt>
      <trkpt lat="48.86426" lon="2.30296">
        <ele>88.04</ele>
        <time>2020-03-15T14:23:46.000Z</time>
      </trkpt>
      <trkpt lat="48.86426" lon="2.30289">
        <ele>88.04</ele>
        <time>2020-03-15T14:23:47.000Z</time>
      </trkpt>
      <trkpt lat="48.86426" lon="2.30283">
        <ele>88.04</ele>
        <time>2020-03-15T14:23:48.000Z</time>
      </trkpt>
      <trkpt lat="48.86426" lon="2.30277">
        <ele>88.04</ele>
        <time>2020-03-15T14:23:49.000Z</time>
      </trkpt>
      <trkpt lat="48.86425" lon="2.30271">
        <ele>88.04</ele>
        <time>2020-03-15T14:23:50.000Z</time>
      </trkpt>
      <trkpt lat="48.86425" lon="2.30265">
        <ele>88.04</ele>
        <time>2020-03-15T14:23:51.000Z</time>
      </trkpt>
      <trkpt lat="48.86425" lon="2.3026">
        <ele>88.04</ele>
        <time>2020-03-15T14:23:52.000Z</time>
      </trkpt>
      <trkpt lat="48.86425" lon="2.30253">
        <ele>88.04</ele>
        <time>2020-03-15T14:23:53.000Z</time>
      </trkpt>
      <trkpt lat="48.86425" lon="2.30247">
        <ele>88.04</ele>
        <time>2020-03-15T14:23:54.000Z</time>
      </trkpt>
      <trkpt lat="48.86424" lon="2.30242">
        <ele>88.04</ele>
        <time>2020-03-15T14:23:55.000Z</time>
      </trkpt>
      <trkpt lat="48.86423" lon="2.30236">
        <ele>88.03</ele>
        <time>2020-03-15T14:23:56.000Z</time>
      </trkpt>
      <trkpt lat="48.86422" lon="2.30231">
        <ele>88.03</ele>
        <time>2020-03-15T14:23:57.000Z</time>
      </trkpt>
      <trkpt lat="48.86419" lon="2.30226">
        <ele>88.03</ele>
        <time>2020-03-15T14:23:58.000Z</time>
      </trkpt>
      <trkpt lat="48.86418" lon="2.30224">
        <ele>88.03</ele>
        <time>2020-03-15T14:23:59.000Z</time>
      </trkpt>
      <trkpt lat="48.86417" lon="2.30221">
        <ele>88.03</ele>
        <time>2020-03-15T14:24:00.000Z</time>
      </trkpt>
      <trkpt lat="48.86417" lon="2.30218">
        <ele>88.03</ele>
        <time>2020-03-15T14:24:01.000Z</time>
      </trkpt>
      <trkpt lat="48.86416" lon="2.30216">
        <ele>88.03</ele>
        <time>2020-03-15T14:24:02.000Z</time>
      </trkpt>
      <trkpt lat="48.86416" lon="2.30214">
        <ele>88.03</ele>
        <time>2020-03-15T14:24:03.000Z</time>
      </trkpt>
      <trkpt lat="48.86415" lon="2.30212">
        <ele>88.03</ele>
        <time>2020-03-15T14:24:04.000Z</time>
      </trkpt>
      <trkpt lat="48.86415" lon="2.3021">
        <ele>88.03</ele>
        <time>2020-03-15T14:24:05.000Z</time>
      </trkpt>
      <trkpt lat="48.86415" lon="2.30209">
        <ele>88.03</ele>
        <time>2020-03-15T14:24:06.000Z</time>
      </trkpt>
      <trkpt lat="48.86415" lon="2.30207">
        <ele>88.03</ele>
        <time>2020-03-15T14:24:07.000Z</time>
      </trkpt>
      <trkpt lat="48.86415" lon="2.30205">
        <ele>88.02</ele>
        <time>2020-03-15T14:24:10.000Z</time>
      </trkpt>
      <trkpt lat="48.86415" lon="2.30204">
        <ele>88.03</ele>
        <time>2020-03-15T14:24:29.000Z</time>
      </trkpt>
      <trkpt lat="48.86415" lon="2.30203">
        <ele>88.03</ele>
        <time>2020-03-15T14:24:34.000Z</time>
      </trkpt>
      <trkpt lat="48.86416" lon="2.30201">
        <ele>88.03</ele>
        <time>2020-03-15T14:24:35.000Z</time>
      </trkpt>
      <trkpt lat="48.86417" lon="2.30199">
        <ele>88.03</ele>
        <time>2020-03-15T14:24:36.000Z</time>
      </trkpt>
      <trkpt lat="48.86418" lon="2.30198">
        <ele>88.03</ele>
        <time>2020-03-15T14:24:37.000Z</time>
      </trkpt>
      <trkpt lat="48.86419" lon="2.30196">
        <ele>88.03</ele>
        <time>2020-03-15T14:24:38.000Z</time>
      </trkpt>
      <trkpt lat="48.8642" lon="2.30195">
        <ele>88.03</ele>
        <time>2020-03-15T14:24:39.000Z</time>
      </trkpt>
      <trkpt lat="48.86422" lon="2.30194">
        <ele>88.03</ele>
        <time>2020-03-15T14:24:40.000Z</time>
      </trkpt>
      <trkpt lat="48.86424" lon="2.30193">
        <ele>88.03</ele>
        <time>2020-03-15T14:24:41.000Z</time>
      </trkpt>
      <trkpt lat="48.86427" lon="2.30192">
        <ele>88.03</ele>
        <time>2020-03-15T14:24:42.000Z</time>
      </trkpt>
      <trkpt lat="48.86429" lon="2.3019">
        <ele>88.03</ele>
        <time>2020-03-15T14:24:43.000Z</time>
      </trkpt>
      <trkpt lat="48.86433" lon="2.30189">
        <ele>88.03</ele>
        <time>2020-03-15T14:24:44.000Z</time>
      </trkpt>
      <trkpt lat="48.86437" lon="2.30187">
        <ele>88.03</ele>
        <time>2020-03-15T14:24:45.000Z</time>
      </trkpt>
      <trkpt lat="48.86441" lon="2.30186">
        <ele>88.03</ele>
        <time>2020-03-15T14:24:46.000Z</time>
      </trkpt>
      <trkpt lat="48.86446" lon="2.30185">
        <ele>88.03</ele>
        <time>2020-03-15T14:24:47.000Z</time>
      </trkpt>
      <trkpt lat="48.8645" lon="2.30183">
        <ele>88.03</ele>
        <time>2020-03-15T14:24:48.000Z</time>
      </trkpt>
      <trkpt lat="48.86455" lon="2.3018">
        <ele>88.03</ele>
        <time>2020-03-15T14:24:49.000Z</time>
      </trkpt>
      <trkpt lat="48.8646" lon="2.30177">
        <ele>88.03</ele>
        <time>2020-03-15T14:24:50.000Z</time>
      </trkpt>
      <trkpt lat="48.86465" lon="2.30172">
        <ele>88.03</ele>
        <time>2020-03-15T14:24:51.000Z</time>
      </trkpt>
      <trkpt lat="48.86469" lon="2.30165">
        <ele>88.02</ele>
        <time>2020-03-15T14:24:52.000Z</time>
      </trkpt>
      <trkpt lat="48.86472" lon="2.30157">
        <ele>88</ele>
        <time>2020-03-15T14:24:53.000Z</time>
      </trkpt>
      <trkpt lat="48.86472" lon="2.3015">
        <ele>87.97</ele>
        <time>2020-03-15T14:24:54.000Z</time>
      </trkpt>
      <trkpt lat="48.86474" lon="2.3014">
        <ele>87.94</ele>
        <time>2020-03-15T14:24:55.000Z</time>
      </trkpt>
      <trkpt lat="48.86477" lon="2.30132">
        <ele>87.91</ele>
        <time>2020-03-15T14:24:56.000Z</time>
      </trkpt>
      <trkpt lat="48.86478" lon="2.30125">
        <ele>87.89</ele>
        <time>2020-03-15T14:24:57.000Z</time>
      </trkpt>
      <trkpt lat="48.8648" lon="2.30118">
        <ele>87.87</ele>
        <time>2020-03-15T14:24:58.000Z</time>
      </trkpt>
      <trkpt lat="48.86482" lon="2.30111">
        <ele>87.86</ele>
        <time>2020-03-15T14:24:59.000Z</time>
      </trkpt>
      <trkpt lat="48.86484" lon="2.30104">
        <ele>87.85</ele>
        <time>2020-03-15T14:25:00.000Z</time>
      </trkpt>
      <trkpt lat="48.86485" lon="2.30098">
        <ele>87.83</ele>
        <time>2020-03-15T14:25:01.000Z</time>
      </trkpt>
      <trkpt lat="48.86488" lon="2.30092">
        <ele>87.82</ele>
        <time>2020-03-15T14:25:02.000Z</time>
      </trkpt>
      <trkpt lat="48.86489" lon="2.30084">
        <ele>87.82</ele>
        <time>2020-03-15T14:25:03.000Z</time>
      </trkpt>
      <trkpt lat="48.86491" lon="2.30078">
        <ele>87.82</ele>
        <time>2020-03-15T14:25:04.000Z</time>
      </trkpt>
      <trkpt lat="48.86493" lon="2.30071">
        <ele>87.81</ele>
        <time>2020-03-15T14:25:05.000Z</time>
      </trkpt>
      <trkpt lat="48.86495" lon="2.30065">
        <ele>87.81</ele>
        <time>2020-03-15T14:25:06.000Z</time>
      </trkpt>
      <trkpt lat="48.86498" lon="2.3006">
        <ele>87.81</ele>
        <time>2020-03-15T14:25:07.000Z</time>
      </trkpt>
      <trkpt lat="48.865" lon="2.30056">
        <ele>87.8</ele>
        <time>2020-03-15T14:25:08.000Z</time>
      </trkpt>
      <trkpt lat="48.86503" lon="2.3005">
        <ele>87.8</ele>
        <time>2020-03-15T14:25:09.000Z</time>
      </trkpt>
      <trkpt lat="48.86506" lon="2.30044">
        <ele>87.79</ele>
        <time>2020-03-15T14:25:10.000Z</time>
      </trkpt>
      <trkpt lat="48.86508" lon="2.30038">
        <ele>87.79</ele>
        <time>2020-03-15T14:25:11.000Z</time>
      </trkpt>
      <trkpt lat="48.8651" lon="2.30032">
        <ele>87.79</ele>
        <time>2020-03-15T14:25:12.000Z</time>
      </trkpt>
      <trkpt lat="48.86512" lon="2.30026">
        <ele>87.79</ele>
        <time>2020-03-15T14:25:13.000Z</time>
      </trkpt>
      <trkpt lat="48.86513" lon="2.30019">
        <ele>87.78</ele>
        <time>2020-03-15T14:25:14.000Z</time>
      </trkpt>
      <trkpt lat="48.86515" lon="2.30013">
        <ele>87.78</ele>
        <time>2020-03-15T14:25:15.000Z</time>
      </trkpt>
      <trkpt lat="48.86516" lon="2.30007">
        <ele>87.78</ele>
        <time>2020-03-15T14:25:16.000Z</time>
      </trkpt>
      <trkpt lat="48.86516" lon="2.3">
        <ele>87.78</ele>
        <time>2020-03-15T14:25:17.000Z</time>
      </trkpt>
      <trkpt lat="48.86518" lon="2.29994">
        <ele>87.79</ele>
        <time>2020-03-15T14:25:18.000Z</time>
      </trkpt>
      <trkpt lat="48.86521" lon="2.29989">
        <ele>87.79</ele>
        <time>2020-03-15T14:25:19.000Z</time>
      </trkpt>
      <trkpt lat="48.86523" lon="2.29984">
        <ele>87.79</ele>
        <time>2020-03-15T14:25:20.000Z</time>
      </trkpt>
      <trkpt lat="48.86526" lon="2.29979">
        <ele>87.79</ele>
        <time>2020-03-15T14:25:21.000Z</time>
      </trkpt>
      <trkpt lat="48.86527" lon="2.29973">
        <ele>87.79</ele>
        <time>2020-03-15T14:25:22.000Z</time>
      </trkpt>
      <trkpt lat="48.86528" lon="2.29968">
        <ele>87.79</ele>
        <time>2020-03-15T14:25:23.000Z</time>
      </trkpt>
      <trkpt lat="48.86529" lon="2.29962">
        <ele>87.8</ele>
        <time>2020-03-15T14:25:24.000Z</time>
      </trkpt>
      <trkpt lat="48.86529" lon="2.29956">
        <ele>87.8</ele>
        <time>2020-03-15T14:25:25.000Z</time>
      </trkpt>
      <trkpt lat="48.86529" lon="2.2995">
        <ele>87.8</ele>
        <time>2020-03-15T14:25:26.000Z</time>
      </trkpt>
      <trkpt lat="48.8653" lon="2.29944">
        <ele>87.8</ele>
        <time>2020-03-15T14:25:27.000Z</time>
      </trkpt>
      <trkpt lat="48.86531" lon="2.29939">
        <ele>87.8</ele>
        <time>2020-03-15T14:25:28.000Z</time>
      </trkpt>
      <trkpt lat="48.86532" lon="2.29933">
        <ele>87.8</ele>
        <time>2020-03-15T14:25:29.000Z</time>
      </trkpt>
      <trkpt lat="48.86534" lon="2.29929">
        <ele>87.8</ele>
        <time>2020-03-15T14:25:30.000Z</time>
      </trkpt>
      <trkpt lat="48.86533" lon="2.29924">
        <ele>87.82</ele>
        <time>2020-03-15T14:25:31.000Z</time>
      </trkpt>
      <trkpt lat="48.86533" lon="2.29916">
        <ele>87.82</ele>
        <time>2020-03-15T14:25:32.000Z</time>
      </trkpt>
      <trkpt lat="48.86532" lon="2.29909">
        <ele>87.85</ele>
        <time>2020-03-15T14:25:33.000Z</time>
      </trkpt>
      <trkpt lat="48.86531" lon="2.29902">
        <ele>87.86</ele>
        <time>2020-03-15T14:25:34.000Z</time>
      </trkpt>
      <trkpt lat="48.8653" lon="2.29896">
        <ele>87.86</ele>
        <time>2020-03-15T14:25:35.000Z</time>
      </trkpt>
      <trkpt lat="48.8653" lon="2.29888">
        <ele>87.89</ele>
        <time>2020-03-15T14:25:36.000Z</time>
      </trkpt>
      <trkpt lat="48.86528" lon="2.2988">
        <ele>87.92</ele>
        <time>2020-03-15T14:25:37.000Z</time>
      </trkpt>
      <trkpt lat="48.86527" lon="2.2987">
        <ele>87.95</ele>
        <time>2020-03-15T14:25:38.000Z</time>
      </trkpt>
      <trkpt lat="48.86526" lon="2.2986">
        <ele>87.98</ele>
        <time>2020-03-15T14:25:39.000Z</time>
      </trkpt>
      <trkpt lat="48.86527" lon="2.29852">
        <ele>88.02</ele>
        <time>2020-03-15T14:25:40.000Z</time>
      </trkpt>
      <trkpt lat="48.86527" lon="2.29844">
        <ele>88.05</ele>
        <time>2020-03-15T14:25:41.000Z</time>
      </trkpt>
      <trkpt lat="48.86526" lon="2.29836">
        <ele>88.08</ele>
        <time>2020-03-15T14:25:42.000Z</time>
      </trkpt>
      <trkpt lat="48.86524" lon="2.29829">
        <ele>88.1</ele>
        <time>2020-03-15T14:25:43.000Z</time>
      </trkpt>
      <trkpt lat="48.86522" lon="2.29821">
        <ele>88.12</ele>
        <time>2020-03-15T14:25:44.000Z</time>
      </trkpt>
      <trkpt lat="48.8652" lon="2.29813">
        <ele>88.14</ele>
        <time>2020-03-15T14:25:45.000Z</time>
      </trkpt>
      <trkpt lat="48.86519" lon="2.29804">
        <ele>88.16</ele>
        <time>2020-03-15T14:25:46.000Z</time>
      </trkpt>
      <trkpt lat="48.86516" lon="2.29795">
        <ele>88.17</ele>
        <time>2020-03-15T14:25:47.000Z</time>
      </trkpt>
      <trkpt lat="48.86512" lon="2.29788">
        <ele>88.19</ele>
        <time>2020-03-15T14:25:48.000Z</time>
      </trkpt>
      <trkpt lat="48.86509" lon="2.29782">
        <ele>88.19</ele>
        <time>2020-03-15T14:25:49.000Z</time>
      </trkpt>
      <trkpt lat="48.86506" lon="2.29774">
        <ele>88.2</ele>
        <time>2020-03-15T14:25:50.000Z</time>
      </trkpt>
      <trkpt lat="48.86504" lon="2.29767">
        <ele>88.21</ele>
        <time>2020-03-15T14:25:51.000Z</time>
      </trkpt>
      <trkpt lat="48.86503" lon="2.2976">
        <ele>88.21</ele>
        <time>2020-03-15T14:25:52.000Z</time>
      </trkpt>
      <trkpt lat="48.86502" lon="2.29753">
        <ele>88.22</ele>
        <time>2020-03-15T14:25:53.000Z</time>
      </trkpt>
      <trkpt lat="48.86501" lon="2.29745">
        <ele>88.23</ele>
        <time>2020-03-15T14:25:54.000Z</time>
      </trkpt>
      <trkpt lat="48.86501" lon="2.29737">
        <ele>88.23</ele>
        <time>2020-03-15T14:25:55.000Z</time>
      </trkpt>
      <trkpt lat="48.865" lon="2.29729">
        <ele>88.24</ele>
        <time>2020-03-15T14:25:56.000Z</time>
      </trkpt>
      <trkpt lat="48.86499" lon="2.29722">
        <ele>88.25</ele>
        <time>2020-03-15T14:25:57.000Z</time>
      </trkpt>
      <trkpt lat="48.86499" lon="2.29715">
        <ele>88.26</ele>
        <time>2020-03-15T14:25:58.000Z</time>
      </trkpt>
      <trkpt lat="48.86499" lon="2.29707">
        <ele>88.27</ele>
        <time>2020-03-15T14:25:59.000Z</time>
      </trkpt>
      <trkpt lat="48.86498" lon="2.297">
        <ele>88.28</ele>
        <time>2020-03-15T14:26:00.000Z</time>
      </trkpt>
      <trkpt lat="48.86498" lon="2.29691">
        <ele>88.29</ele>
        <time>2020-03-15T14:26:01.000Z</time>
      </trkpt>
      <trkpt lat="48.86497" lon="2.29684">
        <ele>88.31</ele>
        <time>2020-03-15T14:26:02.000Z</time>
      </trkpt>
      <trkpt lat="48.86498" lon="2.29678">
        <ele>88.29</ele>
        <time>2020-03-15T14:26:03.000Z</time>
      </trkpt>
      <trkpt lat="48.86497" lon="2.29671">
        <ele>88.32</ele>
        <time>2020-03-15T14:26:04.000Z</time>
      </trkpt>
      <trkpt lat="48.86497" lon="2.29664">
        <ele>88.33</ele>
        <time>2020-03-15T14:26:05.000Z</time>
      </trkpt>
      <trkpt lat="48.86497" lon="2.29657">
        <ele>88.34</ele>
        <time>2020-03-15T14:26:06.000Z</time>
      </trkpt>
      <trkpt lat="48.86497" lon="2.2965">
        <ele>88.29</ele>
        <time>2020-03-15T14:26:07.000Z</time>
      </trkpt>
      <trkpt lat="48.86497" lon="2.29643">
        <ele>88.29</ele>
        <time>2020-03-15T14:26:08.000Z</time>
      </trkpt>
      <trkpt lat="48.86497" lon="2.29635">
        <ele>88.34</ele>
        <time>2020-03-15T14:26:09.000Z</time>
      </trkpt>
      <trkpt lat="48.86497" lon="2.29628">
        <ele>88.34</ele>
        <time>2020-03-15T14:26:10.000Z</time>
      </trkpt>
      <trkpt lat="48.86496" lon="2.29623">
        <ele>88.35</ele>
        <time>2020-03-15T14:26:11.000Z</time>
      </trkpt>
      <trkpt lat="48.86496" lon="2.29617">
        <ele>88.36</ele>
        <time>2020-03-15T14:26:12.000Z</time>
      </trkpt>
      <trkpt lat="48.86496" lon="2.29611">
        <ele>88.44</ele>
        <time>2020-03-15T14:26:13.000Z</time>
      </trkpt>
      <trkpt lat="48.86495" lon="2.29606">
        <ele>88.45</ele>
        <time>2020-03-15T14:26:14.000Z</time>
      </trkpt>
      <trkpt lat="48.86495" lon="2.29601">
        <ele>88.46</ele>
        <time>2020-03-15T14:26:15.000Z</time>
      </trkpt>
      <trkpt lat="48.86495" lon="2.29597">
        <ele>88.47</ele>
        <time>2020-03-15T14:26:16.000Z</time>
      </trkpt>
      <trkpt lat="48.86496" lon="2.29589">
        <ele>88.48</ele>
        <time>2020-03-15T14:26:17.000Z</time>
      </trkpt>
      <trkpt lat="48.86496" lon="2.29582">
        <ele>88.49</ele>
        <time>2020-03-15T14:26:18.000Z</time>
      </trkpt>
      <trkpt lat="48.86495" lon="2.29576">
        <ele>88.51</ele>
        <time>2020-03-15T14:26:19.000Z</time>
      </trkpt>
      <trkpt lat="48.86496" lon="2.2957">
        <ele>88.52</ele>
        <time>2020-03-15T14:26:20.000Z</time>
      </trkpt>
      <trkpt lat="48.86498" lon="2.29565">
        <ele>88.66</ele>
        <time>2020-03-15T14:26:21.000Z</time>
      </trkpt>
      <trkpt lat="48.86499" lon="2.29559">
        <ele>88.77</ele>
        <time>2020-03-15T14:26:22.000Z</time>
      </trkpt>
      <trkpt lat="48.86499" lon="2.29553">
        <ele>88.78</ele>
        <time>2020-03-15T14:26:23.000Z</time>
      </trkpt>
      <trkpt lat="48.86498" lon="2.29549">
        <ele>88.79</ele>
        <time>2020-03-15T14:26:24.000Z</time>
      </trkpt>
      <trkpt lat="48.86497" lon="2.29543">
        <ele>88.89</ele>
        <time>2020-03-15T14:26:25.000Z</time>
      </trkpt>
      <trkpt lat="48.86497" lon="2.29536">
        <ele>89.01</ele>
        <time>2020-03-15T14:26:26.000Z</time>
      </trkpt>
      <trkpt lat="48.86495" lon="2.29529">
        <ele>89.1</ele>
        <time>2020-03-15T14:26:27.000Z</time>
      </trkpt>
      <trkpt lat="48.86494" lon="2.29523">
        <ele>89.11</ele>
        <time>2020-03-15T14:26:28.000Z</time>
      </trkpt>
      <trkpt lat="48.86493" lon="2.29516">
        <ele>89.19</ele>
        <time>2020-03-15T14:26:29.000Z</time>
      </trkpt>
      <trkpt lat="48.86492" lon="2.29509">
        <ele>89.28</ele>
        <time>2020-03-15T14:26:30.000Z</time>
      </trkpt>
      <trkpt lat="48.86491" lon="2.29501">
        <ele>89.29</ele>
        <time>2020-03-15T14:26:31.000Z</time>
      </trkpt>
      <trkpt lat="48.8649" lon="2.29493">
        <ele>89.3</ele>
        <time>2020-03-15T14:26:32.000Z</time>
      </trkpt>
      <trkpt lat="48.8649" lon="2.29487">
        <ele>89.31</ele>
        <time>2020-03-15T14:26:33.000Z</time>
      </trkpt>
      <trkpt lat="48.8649" lon="2.2948">
        <ele>89.33</ele>
        <time>2020-03-15T14:26:34.000Z</time>
      </trkpt>
      <trkpt lat="48.86489" lon="2.29474">
        <ele>89.34</ele>
        <time>2020-03-15T14:26:35.000Z</time>
      </trkpt>
      <trkpt lat="48.86489" lon="2.29468">
        <ele>89.36</ele>
        <time>2020-03-15T14:26:36.000Z</time>
      </trkpt>
      <trkpt lat="48.86489" lon="2.29463">
        <ele>89.38</ele>
        <time>2020-03-15T14:26:37.000Z</time>
      </trkpt>
      <trkpt lat="48.86489" lon="2.29457">
        <ele>89.4</ele>
        <time>2020-03-15T14:26:38.000Z</time>
      </trkpt>
      <trkpt lat="48.86489" lon="2.29452">
        <ele>89.43</ele>
        <time>2020-03-15T14:26:39.000Z</time>
      </trkpt>
      <trkpt lat="48.86489" lon="2.29449">
        <ele>89.45</ele>
        <time>2020-03-15T14:26:40.000Z</time>
      </trkpt>
      <trkpt lat="48.8649" lon="2.29445">
        <ele>89.48</ele>
        <time>2020-03-15T14:26:41.000Z</time>
      </trkpt>
      <trkpt lat="48.86491" lon="2.29441">
        <ele>89.51</ele>
        <time>2020-03-15T14:26:42.000Z</time>
      </trkpt>
      <trkpt lat="48.86492" lon="2.29439">
        <ele>89.54</ele>
        <time>2020-03-15T14:26:43.000Z</time>
      </trkpt>
      <trkpt lat="48.86493" lon="2.29437">
        <ele>89.57</ele>
        <time>2020-03-15T14:26:44.000Z</time>
      </trkpt>
      <trkpt lat="48.86495" lon="2.29435">
        <ele>89.6</ele>
        <time>2020-03-15T14:26:45.000Z</time>
      </trkpt>
      <trkpt lat="48.86496" lon="2.29432">
        <ele>89.63</ele>
        <time>2020-03-15T14:26:46.000Z</time>
      </trkpt>
      <trkpt lat="48.86497" lon="2.2943">
        <ele>89.65</ele>
        <time>2020-03-15T14:26:47.000Z</time>
      </trkpt>
      <trkpt lat="48.86498" lon="2.29427">
        <ele>89.66</ele>
        <time>2020-03-15T14:26:48.000Z</time>
      </trkpt>
      <trkpt lat="48.86499" lon="2.29425">
        <ele>89.67</ele>
        <time>2020-03-15T14:26:49.000Z</time>
      </trkpt>
      <trkpt lat="48.86499" lon="2.29424">
        <ele>89.67</ele>
        <time>2020-03-15T14:26:50.000Z</time>
      </trkpt>
      <trkpt lat="48.86498" lon="2.29426">
        <ele>89.55</ele>
        <time>2020-03-15T14:26:52.000Z</time>
      </trkpt>
      <trkpt lat="48.86496" lon="2.29426">
        <ele>89.43</ele>
        <time>2020-03-15T14:27:06.000Z</time>
      </trkpt>
      <trkpt lat="48.86497" lon="2.29425">
        <ele>89.66</ele>
        <time>2020-03-15T14:27:28.000Z</time>
      </trkpt>
      <trkpt lat="48.86498" lon="2.29422">
        <ele>89.72</ele>
        <time>2020-03-15T14:27:29.000Z</time>
      </trkpt>
      <trkpt lat="48.86497" lon="2.2942">
        <ele>89.78</ele>
        <time>2020-03-15T14:27:30.000Z</time>
      </trkpt>
      <trkpt lat="48.86497" lon="2.29417">
        <ele>89.83</ele>
        <time>2020-03-15T14:27:31.000Z</time>
      </trkpt>
      <trkpt lat="48.86497" lon="2.29415">
        <ele>89.89</ele>
        <time>2020-03-15T14:27:32.000Z</time>
      </trkpt>
      <trkpt lat="48.86497" lon="2.29412">
        <ele>89.95</ele>
        <time>2020-03-15T14:27:33.000Z</time>
      </trkpt>
      <trkpt lat="48.86497" lon="2.2941">
        <ele>90</ele>
        <time>2020-03-15T14:27:34.000Z</time>
      </trkpt>
      <trkpt lat="48.86497" lon="2.29406">
        <ele>90.05</ele>
        <time>2020-03-15T14:27:35.000Z</time>
      </trkpt>
      <trkpt lat="48.86496" lon="2.29402">
        <ele>90.11</ele>
        <time>2020-03-15T14:27:36.000Z</time>
      </trkpt>
      <trkpt lat="48.86495" lon="2.29398">
        <ele>90.16</ele>
        <time>2020-03-15T14:27:37.000Z</time>
      </trkpt>
      <trkpt lat="48.86494" lon="2.29394">
        <ele>90.21</ele>
        <time>2020-03-15T14:27:38.000Z</time>
      </trkpt>
      <trkpt lat="48.86492" lon="2.2939">
        <ele>90.26</ele>
        <time>2020-03-15T14:27:39.000Z</time>
      </trkpt>
      <trkpt lat="48.86491" lon="2.29385">
        <ele>90.31</ele>
        <time>2020-03-15T14:27:40.000Z</time>
      </trkpt>
      <trkpt lat="48.8649" lon="2.2938">
        <ele>90.37</ele>
        <time>2020-03-15T14:27:41.000Z</time>
      </trkpt>
      <trkpt lat="48.86489" lon="2.29376">
        <ele>90.42</ele>
        <time>2020-03-15T14:27:42.000Z</time>
      </trkpt>
      <trkpt lat="48.86488" lon="2.29371">
        <ele>90.47</ele>
        <time>2020-03-15T14:27:43.000Z</time>
      </trkpt>
      <trkpt lat="48.86487" lon="2.29366">
        <ele>90.52</ele>
        <time>2020-03-15T14:27:44.000Z</time>
      </trkpt>
      <trkpt lat="48.86486" lon="2.29362">
        <ele>90.57</ele>
        <time>2020-03-15T14:27:45.000Z</time>
      </trkpt>
      <trkpt lat="48.86485" lon="2.29358">
        <ele>90.62</ele>
        <time>2020-03-15T14:27:46.000Z</time>
      </trkpt>
      <trkpt lat="48.86484" lon="2.29354">
        <ele>90.67</ele>
        <time>2020-03-15T14:27:47.000Z</time>
      </trkpt>
      <trkpt lat="48.86484" lon="2.29349">
        <ele>90.72</ele>
        <time>2020-03-15T14:27:48.000Z</time>
      </trkpt>
      <trkpt lat="48.86483" lon="2.29344">
        <ele>90.78</ele>
        <time>2020-03-15T14:27:49.000Z</time>
      </trkpt>
      <trkpt lat="48.86482" lon="2.2934">
        <ele>90.83</ele>
        <time>2020-03-15T14:27:50.000Z</time>
      </trkpt>
      <trkpt lat="48.86483" lon="2.29337">
        <ele>90.88</ele>
        <time>2020-03-15T14:27:51.000Z</time>
      </trkpt>
      <trkpt lat="48.86484" lon="2.29335">
        <ele>90.93</ele>
        <time>2020-03-15T14:27:52.000Z</time>
      </trkpt>
      <trkpt lat="48.86485" lon="2.29331">
        <ele>90.98</ele>
        <time>2020-03-15T14:27:53.000Z</time>
      </trkpt>
      <trkpt lat="48.86487" lon="2.29329">
        <ele>91.03</ele>
        <time>2020-03-15T14:27:54.000Z</time>
      </trkpt>
      <trkpt lat="48.86489" lon="2.29327">
        <ele>91.08</ele>
        <time>2020-03-15T14:27:55.000Z</time>
      </trkpt>
      <trkpt lat="48.86492" lon="2.29324">
        <ele>91.12</ele>
        <time>2020-03-15T14:27:56.000Z</time>
      </trkpt>
      <trkpt lat="48.86494" lon="2.29321">
        <ele>91.17</ele>
        <time>2020-03-15T14:27:57.000Z</time>
      </trkpt>
      <trkpt lat="48.86496" lon="2.29317">
        <ele>91.21</ele>
        <time>2020-03-15T14:27:58.000Z</time>
      </trkpt>
      <trkpt lat="48.86497" lon="2.29312">
        <ele>91.25</ele>
        <time>2020-03-15T14:27:59.000Z</time>
      </trkpt>
      <trkpt lat="48.86497" lon="2.29306">
        <ele>91.28</ele>
        <time>2020-03-15T14:28:00.000Z</time>
      </trkpt>
      <trkpt lat="48.86498" lon="2.293">
        <ele>91.32</ele>
        <time>2020-03-15T14:28:01.000Z</time>
      </trkpt>
      <trkpt lat="48.86497" lon="2.29293">
        <ele>91.67</ele>
        <time>2020-03-15T14:28:02.000Z</time>
      </trkpt>
      <trkpt lat="48.86497" lon="2.29285">
        <ele>91.69</ele>
        <time>2020-03-15T14:28:03.000Z</time>
      </trkpt>
      <trkpt lat="48.86497" lon="2.29278">
        <ele>91.95</ele>
        <time>2020-03-15T14:28:04.000Z</time>
      </trkpt>
      <trkpt lat="48.86497" lon="2.29271">
        <ele>91.98</ele>
        <time>2020-03-15T14:28:05.000Z</time>
      </trkpt>
      <trkpt lat="48.86496" lon="2.29264">
        <ele>92</ele>
        <time>2020-03-15T14:28:06.000Z</time>
      </trkpt>
      <trkpt lat="48.86495" lon="2.29257">
        <ele>92.02</ele>
        <time>2020-03-15T14:28:07.000Z</time>
      </trkpt>
      <trkpt lat="48.86494" lon="2.29252">
        <ele>92.04</ele>
        <time>2020-03-15T14:28:08.000Z</time>
      </trkpt>
      <trkpt lat="48.86495" lon="2.29244">
        <ele>92.06</ele>
        <time>2020-03-15T14:28:09.000Z</time>
      </trkpt>
      <trkpt lat="48.86496" lon="2.29236">
        <ele>92.08</ele>
        <time>2020-03-15T14:28:10.000Z</time>
      </trkpt>
      <trkpt lat="48.86496" lon="2.29226">
        <ele>92.1</ele>
        <time>2020-03-15T14:28:11.000Z</time>
      </trkpt>
      <trkpt lat="48.86495" lon="2.29219">
        <ele>92.12</ele>
        <time>2020-03-15T14:28:12.000Z</time>
      </trkpt>
      <trkpt lat="48.86494" lon="2.29213">
        <ele>92.14</ele>
        <time>2020-03-15T14:28:13.000Z</time>
      </trkpt>
      <trkpt lat="48.86492" lon="2.29206">
        <ele>92.16</ele>
        <time>2020-03-15T14:28:14.000Z</time>
      </trkpt>
      <trkpt lat="48.8649" lon="2.29198">
        <ele>92.19</ele>
        <time>2020-03-15T14:28:15.000Z</time>
      </trkpt>
      <trkpt lat="48.86487" lon="2.2919">
        <ele>92.21</ele>
        <time>2020-03-15T14:28:16.000Z</time>
      </trkpt>
      <trkpt lat="48.86486" lon="2.29184">
        <ele>92.23</ele>
        <time>2020-03-15T14:28:17.000Z</time>
      </trkpt>
      <trkpt lat="48.86485" lon="2.29177">
        <ele>92.25</ele>
        <time>2020-03-15T14:28:18.000Z</time>
      </trkpt>
      <trkpt lat="48.86484" lon="2.29169">
        <ele>92.27</ele>
        <time>2020-03-15T14:28:19.000Z</time>
      </trkpt>
      <trkpt lat="48.86486" lon="2.29163">
        <ele>92.51</ele>
        <time>2020-03-15T14:28:20.000Z</time>
      </trkpt>
      <trkpt lat="48.86487" lon="2.29155">
        <ele>92.68</ele>
        <time>2020-03-15T14:28:21.000Z</time>
      </trkpt>
      <trkpt lat="48.86486" lon="2.29149">
        <ele>92.7</ele>
        <time>2020-03-15T14:28:22.000Z</time>
      </trkpt>
      <trkpt lat="48.86485" lon="2.29145">
        <ele>92.72</ele>
        <time>2020-03-15T14:28:23.000Z</time>
      </trkpt>
      <trkpt lat="48.86483" lon="2.2914">
        <ele>92.73</ele>
        <time>2020-03-15T14:28:24.000Z</time>
      </trkpt>
      <trkpt lat="48.86482" lon="2.29138">
        <ele>92.76</ele>
        <time>2020-03-15T14:28:25.000Z</time>
      </trkpt>
      <trkpt lat="48.86479" lon="2.29135">
        <ele>92.78</ele>
        <time>2020-03-15T14:28:26.000Z</time>
      </trkpt>
      <trkpt lat="48.86477" lon="2.29133">
        <ele>92.8</ele>
        <time>2020-03-15T14:28:27.000Z</time>
      </trkpt>
      <trkpt lat="48.86475" lon="2.2913">
        <ele>92.83</ele>
        <time>2020-03-15T14:28:28.000Z</time>
      </trkpt>
      <trkpt lat="48.86474" lon="2.29129">
        <ele>92.85</ele>
        <time>2020-03-15T14:28:29.000Z</time>
      </trkpt>
      <trkpt lat="48.86472" lon="2.29126">
        <ele>92.87</ele>
        <time>2020-03-15T14:28:30.000Z</time>
      </trkpt>
      <trkpt lat="48.86471" lon="2.29124">
        <ele>92.9</ele>
        <time>2020-03-15T14:28:31.000Z</time>
      </trkpt>
      <trkpt lat="48.86469" lon="2.29123">
        <ele>92.93</ele>
        <time>2020-03-15T14:28:32.000Z</time>
      </trkpt>
      <trkpt lat="48.86468" lon="2.29121">
        <ele>92.95</ele>
        <time>2020-03-15T14:28:33.000Z</time>
      </trkpt>
      <trkpt lat="48.86466" lon="2.29119">
        <ele>92.98</ele>
        <time>2020-03-15T14:28:34.000Z</time>
      </trkpt>
      <trkpt lat="48.86465" lon="2.29118">
        <ele>93.01</ele>
        <time>2020-03-15T14:28:35.000Z</time>
      </trkpt>
      <trkpt lat="48.86463" lon="2.29116">
        <ele>93.04</ele>
        <time>2020-03-15T14:28:36.000Z</time>
      </trkpt>
      <trkpt lat="48.86462" lon="2.29115">
        <ele>93.1</ele>
        <time>2020-03-15T14:28:38.000Z</time>
      </trkpt>
      <trkpt lat="48.8646" lon="2.29114">
        <ele>93.12</ele>
        <time>2020-03-15T14:28:39.000Z</time>
      </trkpt>
      <trkpt lat="48.86459" lon="2.29108">
        <ele>93.18</ele>
        <time>2020-03-15T14:28:41.000Z</time>
      </trkpt>
      <trkpt lat="48.86458" lon="2.29106">
        <ele>93.22</ele>
        <time>2020-03-15T14:28:42.000Z</time>
      </trkpt>
      <trkpt lat="48.86458" lon="2.29105">
        <ele>93.25</ele>
        <time>2020-03-15T14:28:43.000Z</time>
      </trkpt>
      <trkpt lat="48.86457" lon="2.29104">
        <ele>93.25</ele>
        <time>2020-03-15T14:28:44.000Z</time>
      </trkpt>
      <trkpt lat="48.86456" lon="2.29102">
        <ele>93.33</ele>
        <time>2020-03-15T14:28:54.000Z</time>
      </trkpt>
      <trkpt lat="48.86457" lon="2.29101">
        <ele>93.41</ele>
        <time>2020-03-15T14:29:01.000Z</time>
      </trkpt>
      <trkpt lat="48.86458" lon="2.29099">
        <ele>93.45</ele>
        <time>2020-03-15T14:29:04.000Z</time>
      </trkpt>
      <trkpt lat="48.86458" lon="2.29098">
        <ele>93.47</ele>
        <time>2020-03-15T14:29:09.000Z</time>
      </trkpt>
      <trkpt lat="48.86459" lon="2.29097">
        <ele>93.52</ele>
        <time>2020-03-15T14:29:12.000Z</time>
      </trkpt>
      <trkpt lat="48.8646" lon="2.29096">
        <ele>93.54</ele>
        <time>2020-03-15T14:29:14.000Z</time>
      </trkpt>
      <trkpt lat="48.86461" lon="2.29094">
        <ele>93.6</ele>
        <time>2020-03-15T14:29:22.000Z</time>
      </trkpt>
      <trkpt lat="48.86461" lon="2.29093">
        <ele>93.65</ele>
        <time>2020-03-15T14:29:25.000Z</time>
      </trkpt>
      <trkpt lat="48.86463" lon="2.29092">
        <ele>93.69</ele>
        <time>2020-03-15T14:29:27.000Z</time>
      </trkpt>
      <trkpt lat="48.86465" lon="2.29094">
        <ele>93.72</ele>
        <time>2020-03-15T14:29:29.000Z</time>
      </trkpt>
      <trkpt lat="48.86467" lon="2.29094">
        <ele>93.74</ele>
        <time>2020-03-15T14:29:30.000Z</time>
      </trkpt>
      <trkpt lat="48.86469" lon="2.29096">
        <ele>93.75</ele>
        <time>2020-03-15T14:29:31.000Z</time>
      </trkpt>
      <trkpt lat="48.86471" lon="2.29098">
        <ele>93.77</ele>
        <time>2020-03-15T14:29:32.000Z</time>
      </trkpt>
      <trkpt lat="48.86474" lon="2.29101">
        <ele>93.78</ele>
        <time>2020-03-15T14:29:33.000Z</time>
      </trkpt>
      <trkpt lat="48.86476" lon="2.29103">
        <ele>93.79</ele>
        <time>2020-03-15T14:29:34.000Z</time>
      </trkpt>
      <trkpt lat="48.86479" lon="2.29105">
        <ele>93.81</ele>
        <time>2020-03-15T14:29:35.000Z</time>
      </trkpt>
      <trkpt lat="48.86481" lon="2.29108">
        <ele>93.82</ele>
        <time>2020-03-15T14:29:36.000Z</time>
      </trkpt>
      <trkpt lat="48.86484" lon="2.29111">
        <ele>93.83</ele>
        <time>2020-03-15T14:29:37.000Z</time>
      </trkpt>
      <trkpt lat="48.86486" lon="2.29113">
        <ele>93.84</ele>
        <time>2020-03-15T14:29:38.000Z</time>
      </trkpt>
      <trkpt lat="48.86489" lon="2.29115">
        <ele>93.84</ele>
        <time>2020-03-15T14:29:39.000Z</time>
      </trkpt>
      <trkpt lat="48.86491" lon="2.29117">
        <ele>93.85</ele>
        <time>2020-03-15T14:29:40.000Z</time>
      </trkpt>
      <trkpt lat="48.86494" lon="2.2912">
        <ele>93.85</ele>
        <time>2020-03-15T14:29:41.000Z</time>
      </trkpt>
      <trkpt lat="48.86495" lon="2.2913">
        <ele>93.87</ele>
        <time>2020-03-15T14:29:42.000Z</time>
      </trkpt>
      <trkpt lat="48.86496" lon="2.29132">
        <ele>93.88</ele>
        <time>2020-03-15T14:29:43.000Z</time>
      </trkpt>
      <trkpt lat="48.86498" lon="2.29134">
        <ele>93.89</ele>
        <time>2020-03-15T14:29:44.000Z</time>
      </trkpt>
      <trkpt lat="48.86499" lon="2.29135">
        <ele>93.89</ele>
        <time>2020-03-15T14:29:45.000Z</time>
      </trkpt>
      <trkpt lat="48.865" lon="2.29136">
        <ele>93.9</ele>
        <time>2020-03-15T14:29:46.000Z</time>
      </trkpt>
      <trkpt lat="48.86501" lon="2.29137">
        <ele>93.91</ele>
        <time>2020-03-15T14:29:47.000Z</time>
      </trkpt>
      <trkpt lat="48.86499" lon="2.29138">
        <ele>93.92</ele>
        <time>2020-03-15T14:29:49.000Z</time>
      </trkpt>
      <trkpt lat="48.86499" lon="2.29136">
        <ele>93.93</ele>
        <time>2020-03-15T14:29:50.000Z</time>
      </trkpt>
      <trkpt lat="48.86496" lon="2.29137">
        <ele>93.94</ele>
        <time>2020-03-15T14:29:51.000Z</time>
      </trkpt>
      <trkpt lat="48.86494" lon="2.29134">
        <ele>93.94</ele>
        <time>2020-03-15T14:29:52.000Z</time>
      </trkpt>
      <trkpt lat="48.86492" lon="2.29132">
        <ele>93.95</ele>
        <time>2020-03-15T14:29:53.000Z</time>
      </trkpt>
      <trkpt lat="48.8649" lon="2.2913">
        <ele>93.96</ele>
        <time>2020-03-15T14:29:54.000Z</time>
      </trkpt>
      <trkpt lat="48.86488" lon="2.29127">
        <ele>93.97</ele>
        <time>2020-03-15T14:29:55.000Z</time>
      </trkpt>
      <trkpt lat="48.86485" lon="2.29124">
        <ele>93.98</ele>
        <time>2020-03-15T14:29:56.000Z</time>
      </trkpt>
      <trkpt lat="48.86483" lon="2.29122">
        <ele>93.99</ele>
        <time>2020-03-15T14:29:57.000Z</time>
      </trkpt>
      <trkpt lat="48.86481" lon="2.29119">
        <ele>94</ele>
        <time>2020-03-15T14:29:58.000Z</time>
      </trkpt>
      <trkpt lat="48.86478" lon="2.29117">
        <ele>94.01</ele>
        <time>2020-03-15T14:29:59.000Z</time>
      </trkpt>
      <trkpt lat="48.86475" lon="2.29114">
        <ele>94.1</ele>
        <time>2020-03-15T14:30:00.000Z</time>
      </trkpt>
      <trkpt lat="48.86471" lon="2.2911">
        <ele>94.11</ele>
        <time>2020-03-15T14:30:01.000Z</time>
      </trkpt>
      <trkpt lat="48.86467" lon="2.29107">
        <ele>94.11</ele>
        <time>2020-03-15T14:30:02.000Z</time>
      </trkpt>
      <trkpt lat="48.86464" lon="2.29103">
        <ele>94.12</ele>
        <time>2020-03-15T14:30:03.000Z</time>
      </trkpt>
      <trkpt lat="48.8646" lon="2.29099">
        <ele>94.13</ele>
        <time>2020-03-15T14:30:04.000Z</time>
      </trkpt>
      <trkpt lat="48.86457" lon="2.29095">
        <ele>94.14</ele>
        <time>2020-03-15T14:30:05.000Z</time>
      </trkpt>
      <trkpt lat="48.86454" lon="2.29091">
        <ele>94.14</ele>
        <time>2020-03-15T14:30:06.000Z</time>
      </trkpt>
      <trkpt lat="48.86452" lon="2.29089">
        <ele>94.15</ele>
        <time>2020-03-15T14:30:07.000Z</time>
      </trkpt>
      <trkpt lat="48.86449" lon="2.29086">
        <ele>94.16</ele>
        <time>2020-03-15T14:30:08.000Z</time>
      </trkpt>
      <trkpt lat="48.86446" lon="2.29082">
        <ele>94.17</ele>
        <time>2020-03-15T14:30:09.000Z</time>
      </trkpt>
      <trkpt lat="48.86443" lon="2.29077">
        <ele>94.17</ele>
        <time>2020-03-15T14:30:10.000Z</time>
      </trkpt>
      <trkpt lat="48.86441" lon="2.29072">
        <ele>94.18</ele>
        <time>2020-03-15T14:30:11.000Z</time>
      </trkpt>
      <trkpt lat="48.86438" lon="2.29067">
        <ele>94.19</ele>
        <time>2020-03-15T14:30:12.000Z</time>
      </trkpt>
      <trkpt lat="48.86436" lon="2.29063">
        <ele>94.19</ele>
        <time>2020-03-15T14:30:13.000Z</time>
      </trkpt>
      <trkpt lat="48.86432" lon="2.29059">
        <ele>94.2</ele>
        <time>2020-03-15T14:30:14.000Z</time>
      </trkpt>
      <trkpt lat="48.8643" lon="2.29054">
        <ele>94.21</ele>
        <time>2020-03-15T14:30:15.000Z</time>
      </trkpt>
      <trkpt lat="48.86428" lon="2.29051">
        <ele>94.22</ele>
        <time>2020-03-15T14:30:16.000Z</time>
      </trkpt>
      <trkpt lat="48.86427" lon="2.2905">
        <ele>94.22</ele>
        <time>2020-03-15T14:30:17.000Z</time>
      </trkpt>
      <trkpt lat="48.86424" lon="2.29048">
        <ele>94.23</ele>
        <time>2020-03-15T14:30:18.000Z</time>
      </trkpt>
      <trkpt lat="48.86421" lon="2.29046">
        <ele>94.24</ele>
        <time>2020-03-15T14:30:19.000Z</time>
      </trkpt>
      <trkpt lat="48.86418" lon="2.29044">
        <ele>94.25</ele>
        <time>2020-03-15T14:30:20.000Z</time>
      </trkpt>
      <trkpt lat="48.86415" lon="2.29045">
        <ele>94.26</ele>
        <time>2020-03-15T14:30:21.000Z</time>
      </trkpt>
      <trkpt lat="48.86412" lon="2.29046">
        <ele>94.27</ele>
        <time>2020-03-15T14:30:22.000Z</time>
      </trkpt>
      <trkpt lat="48.86409" lon="2.29049">
        <ele>94.28</ele>
        <time>2020-03-15T14:30:23.000Z</time>
      </trkpt>
      <trkpt lat="48.86406" lon="2.29049">
        <ele>94.3</ele>
        <time>2020-03-15T14:30:24.000Z</time>
      </trkpt>
      <trkpt lat="48.86403" lon="2.29051">
        <ele>94.31</ele>
        <time>2020-03-15T14:30:25.000Z</time>
      </trkpt>
      <trkpt lat="48.86401" lon="2.29051">
        <ele>94.33</ele>
        <time>2020-03-15T14:30:26.000Z</time>
      </trkpt>
      <trkpt lat="48.864" lon="2.2905">
        <ele>94.34</ele>
        <time>2020-03-15T14:30:27.000Z</time>
      </trkpt>
      <trkpt lat="48.86398" lon="2.29048">
        <ele>94.36</ele>
        <time>2020-03-15T14:30:28.000Z</time>
      </trkpt>
      <trkpt lat="48.86396" lon="2.29046">
        <ele>94.39</ele>
        <time>2020-03-15T14:30:30.000Z</time>
      </trkpt>
      <trkpt lat="48.86395" lon="2.29046">
        <ele>94.4</ele>
        <time>2020-03-15T14:30:31.000Z</time>
      </trkpt>
      <trkpt lat="48.86395" lon="2.29044">
        <ele>94.42</ele>
        <time>2020-03-15T14:30:32.000Z</time>
      </trkpt>
      <trkpt lat="48.86395" lon="2.2904">
        <ele>94.43</ele>
        <time>2020-03-15T14:30:33.000Z</time>
      </trkpt>
      <trkpt lat="48.86394" lon="2.29034">
        <ele>94.45</ele>
        <time>2020-03-15T14:30:34.000Z</time>
      </trkpt>
      <trkpt lat="48.86394" lon="2.2903">
        <ele>94.47</ele>
        <time>2020-03-15T14:30:35.000Z</time>
      </trkpt>
      <trkpt lat="48.86393" lon="2.29024">
        <ele>94.49</ele>
        <time>2020-03-15T14:30:36.000Z</time>
      </trkpt>
      <trkpt lat="48.86392" lon="2.29018">
        <ele>94.51</ele>
        <time>2020-03-15T14:30:37.000Z</time>
      </trkpt>
      <trkpt lat="48.86391" lon="2.29012">
        <ele>94.71</ele>
        <time>2020-03-15T14:30:38.000Z</time>
      </trkpt>
      <trkpt lat="48.8639" lon="2.29005">
        <ele>94.87</ele>
        <time>2020-03-15T14:30:39.000Z</time>
      </trkpt>
      <trkpt lat="48.86389" lon="2.28997">
        <ele>95.02</ele>
        <time>2020-03-15T14:30:40.000Z</time>
      </trkpt>
      <trkpt lat="48.86388" lon="2.28988">
        <ele>95.14</ele>
        <time>2020-03-15T14:30:41.000Z</time>
      </trkpt>
      <trkpt lat="48.86385" lon="2.2898">
        <ele>95.24</ele>
        <time>2020-03-15T14:30:42.000Z</time>
      </trkpt>
      <trkpt lat="48.86383" lon="2.28969">
        <ele>95.33</ele>
        <time>2020-03-15T14:30:43.000Z</time>
      </trkpt>
      <trkpt lat="48.86381" lon="2.28959">
        <ele>95.4</ele>
        <time>2020-03-15T14:30:44.000Z</time>
      </trkpt>
      <trkpt lat="48.8638" lon="2.28948">
        <ele>95.47</ele>
        <time>2020-03-15T14:30:45.000Z</time>
      </trkpt>
      <trkpt lat="48.86377" lon="2.28939">
        <ele>95.53</ele>
        <time>2020-03-15T14:30:46.000Z</time>
      </trkpt>
      <trkpt lat="48.86374" lon="2.2893">
        <ele>95.59</ele>
        <time>2020-03-15T14:30:47.000Z</time>
      </trkpt>
      <trkpt lat="48.8637" lon="2.28919">
        <ele>95.65</ele>
        <time>2020-03-15T14:30:48.000Z</time>
      </trkpt>
      <trkpt lat="48.86367" lon="2.28908">
        <ele>95.7</ele>
        <time>2020-03-15T14:30:49.000Z</time>
      </trkpt>
      <trkpt lat="48.86365" lon="2.28897">
        <ele>95.76</ele>
        <time>2020-03-15T14:30:50.000Z</time>
      </trkpt>
      <trkpt lat="48.86362" lon="2.28887">
        <ele>95.79</ele>
        <time>2020-03-15T14:30:51.000Z</time>
      </trkpt>
      <trkpt lat="48.86359" lon="2.28877">
        <ele>95.82</ele>
        <time>2020-03-15T14:30:52.000Z</time>
      </trkpt>
      <trkpt lat="48.86356" lon="2.28868">
        <ele>95.84</ele>
        <time>2020-03-15T14:30:53.000Z</time>
      </trkpt>
      <trkpt lat="48.86354" lon="2.28858">
        <ele>95.87</ele>
        <time>2020-03-15T14:30:54.000Z</time>
      </trkpt>
      <trkpt lat="48.86352" lon="2.28849">
        <ele>95.91</ele>
        <time>2020-03-15T14:30:55.000Z</time>
      </trkpt>
      <trkpt lat="48.8635" lon="2.28841">
        <ele>95.94</ele>
        <time>2020-03-15T14:30:56.000Z</time>
      </trkpt>
      <trkpt lat="48.86348" lon="2.28833">
        <ele>95.98</ele>
        <time>2020-03-15T14:30:57.000Z</time>
      </trkpt>
      <trkpt lat="48.86346" lon="2.28826">
        <ele>96</ele>
        <time>2020-03-15T14:30:58.000Z</time>
      </trkpt>
      <trkpt lat="48.86344" lon="2.28821">
        <ele>96.01</ele>
        <time>2020-03-15T14:30:59.000Z</time>
      </trkpt>
      <trkpt lat="48.86343" lon="2.28816">
        <ele>96.01</ele>
        <time>2020-03-15T14:31:00.000Z</time>
      </trkpt>
      <trkpt lat="48.86342" lon="2.28812">
        <ele>96.01</ele>
        <time>2020-03-15T14:31:01.000Z</time>
      </trkpt>
      <trkpt lat="48.86341" lon="2.28807">
        <ele>96.01</ele>
        <time>2020-03-15T14:31:02.000Z</time>
      </trkpt>
      <trkpt lat="48.8634" lon="2.28803">
        <ele>96</ele>
        <time>2020-03-15T14:31:03.000Z</time>
      </trkpt>
      <trkpt lat="48.86341" lon="2.288">
        <ele>95.99</ele>
        <time>2020-03-15T14:31:04.000Z</time>
      </trkpt>
      <trkpt lat="48.86341" lon="2.28797">
        <ele>95.97</ele>
        <time>2020-03-15T14:31:05.000Z</time>
      </trkpt>
      <trkpt lat="48.86342" lon="2.28794">
        <ele>95.95</ele>
        <time>2020-03-15T14:31:06.000Z</time>
      </trkpt>
      <trkpt lat="48.86343" lon="2.28791">
        <ele>95.93</ele>
        <time>2020-03-15T14:31:07.000Z</time>
      </trkpt>
      <trkpt lat="48.86344" lon="2.28789">
        <ele>95.9</ele>
        <time>2020-03-15T14:31:08.000Z</time>
      </trkpt>
      <trkpt lat="48.86344" lon="2.28787">
        <ele>95.87</ele>
        <time>2020-03-15T14:31:09.000Z</time>
      </trkpt>
      <trkpt lat="48.86345" lon="2.28785">
        <ele>95.83</ele>
        <time>2020-03-15T14:31:10.000Z</time>
      </trkpt>
      <trkpt lat="48.86345" lon="2.28783">
        <ele>95.8</ele>
        <time>2020-03-15T14:31:11.000Z</time>
      </trkpt>
      <trkpt lat="48.86346" lon="2.28779">
        <ele>96.88</ele>
        <time>2020-03-15T14:31:43.000Z</time>
      </trkpt>
      <trkpt lat="48.86348" lon="2.28777">
        <ele>97.09</ele>
        <time>2020-03-15T14:31:44.000Z</time>
      </trkpt>
      <trkpt lat="48.86347" lon="2.28776">
        <ele>97.29</ele>
        <time>2020-03-15T14:31:45.000Z</time>
      </trkpt>
      <trkpt lat="48.86345" lon="2.28773">
        <ele>97.48</ele>
        <time>2020-03-15T14:31:46.000Z</time>
      </trkpt>
      <trkpt lat="48.86345" lon="2.28769">
        <ele>97.68</ele>
        <time>2020-03-15T14:31:47.000Z</time>
      </trkpt>
      <trkpt lat="48.86345" lon="2.28765">
        <ele>97.87</ele>
        <time>2020-03-15T14:31:48.000Z</time>
      </trkpt>
      <trkpt lat="48.86346" lon="2.28761">
        <ele>98.07</ele>
        <time>2020-03-15T14:31:49.000Z</time>
      </trkpt>
      <trkpt lat="48.86347" lon="2.28757">
        <ele>98.26</ele>
        <time>2020-03-15T14:31:50.000Z</time>
      </trkpt>
      <trkpt lat="48.86348" lon="2.28753">
        <ele>98.44</ele>
        <time>2020-03-15T14:31:51.000Z</time>
      </trkpt>
      <trkpt lat="48.86349" lon="2.28749">
        <ele>98.63</ele>
        <time>2020-03-15T14:31:52.000Z</time>
      </trkpt>
      <trkpt lat="48.8635" lon="2.28746">
        <ele>98.81</ele>
        <time>2020-03-15T14:31:53.000Z</time>
      </trkpt>
      <trkpt lat="48.86351" lon="2.28743">
        <ele>98.99</ele>
        <time>2020-03-15T14:31:54.000Z</time>
      </trkpt>
      <trkpt lat="48.86352" lon="2.2874">
        <ele>99.16</ele>
        <time>2020-03-15T14:31:55.000Z</time>
      </trkpt>
      <trkpt lat="48.86353" lon="2.28737">
        <ele>99.33</ele>
        <time>2020-03-15T14:31:56.000Z</time>
      </trkpt>
      <trkpt lat="48.86354" lon="2.28734">
        <ele>99.49</ele>
        <time>2020-03-15T14:31:57.000Z</time>
      </trkpt>
      <trkpt lat="48.86353" lon="2.28731">
        <ele>99.66</ele>
        <time>2020-03-15T14:31:58.000Z</time>
      </trkpt>
      <trkpt lat="48.86352" lon="2.28727">
        <ele>99.82</ele>
        <time>2020-03-15T14:31:59.000Z</time>
      </trkpt>
      <trkpt lat="48.86352" lon="2.28723">
        <ele>99.97</ele>
        <time>2020-03-15T14:32:00.000Z</time>
      </trkpt>
      <trkpt lat="48.86352" lon="2.28718">
        <ele>100.13</ele>
        <time>2020-03-15T14:32:01.000Z</time>
      </trkpt>
      <trkpt lat="48.86352" lon="2.28714">
        <ele>100.28</ele>
        <time>2020-03-15T14:32:02.000Z</time>
      </trkpt>
      <trkpt lat="48.86353" lon="2.28712">
        <ele>100.42</ele>
        <time>2020-03-15T14:32:03.000Z</time>
      </trkpt>
      <trkpt lat="48.86354" lon="2.28709">
        <ele>100.56</ele>
        <time>2020-03-15T14:32:04.000Z</time>
      </trkpt>
      <trkpt lat="48.86356" lon="2.28706">
        <ele>100.7</ele>
        <time>2020-03-15T14:32:05.000Z</time>
      </trkpt>
      <trkpt lat="48.86357" lon="2.28704">
        <ele>100.83</ele>
        <time>2020-03-15T14:32:06.000Z</time>
      </trkpt>
      <trkpt lat="48.86358" lon="2.28702">
        <ele>100.97</ele>
        <time>2020-03-15T14:32:07.000Z</time>
      </trkpt>
      <trkpt lat="48.86358" lon="2.287">
        <ele>101.13</ele>
        <time>2020-03-15T14:32:10.000Z</time>
      </trkpt>
      <trkpt lat="48.86359" lon="2.287">
        <ele>101.5</ele>
        <time>2020-03-15T14:32:35.000Z</time>
      </trkpt>
      <trkpt lat="48.86358" lon="2.28698">
        <ele>102.11</ele>
        <time>2020-03-15T14:32:43.000Z</time>
      </trkpt>
      <trkpt lat="48.86356" lon="2.28695">
        <ele>102.24</ele>
        <time>2020-03-15T14:32:44.000Z</time>
      </trkpt>
      <trkpt lat="48.86355" lon="2.28694">
        <ele>102.38</ele>
        <time>2020-03-15T14:32:45.000Z</time>
      </trkpt>
      <trkpt lat="48.86355" lon="2.2869">
        <ele>102.63</ele>
        <time>2020-03-15T14:32:47.000Z</time>
      </trkpt>
      <trkpt lat="48.86354" lon="2.28689">
        <ele>102.76</ele>
        <time>2020-03-15T14:32:48.000Z</time>
      </trkpt>
      <trkpt lat="48.86354" lon="2.28687">
        <ele>102.89</ele>
        <time>2020-03-15T14:32:49.000Z</time>
      </trkpt>
      <trkpt lat="48.86353" lon="2.28685">
        <ele>103.01</ele>
        <time>2020-03-15T14:32:50.000Z</time>
      </trkpt>
      <trkpt lat="48.86352" lon="2.28683">
        <ele>103.13</ele>
        <time>2020-03-15T14:32:51.000Z</time>
      </trkpt>
      <trkpt lat="48.8635" lon="2.2868">
        <ele>103.25</ele>
        <time>2020-03-15T14:32:52.000Z</time>
      </trkpt>
      <trkpt lat="48.86349" lon="2.28678">
        <ele>103.37</ele>
        <time>2020-03-15T14:32:53.000Z</time>
      </trkpt>
      <trkpt lat="48.86347" lon="2.28675">
        <ele>103.48</ele>
        <time>2020-03-15T14:32:54.000Z</time>
      </trkpt>
      <trkpt lat="48.86346" lon="2.28673">
        <ele>103.6</ele>
        <time>2020-03-15T14:32:55.000Z</time>
      </trkpt>
      <trkpt lat="48.86345" lon="2.2867">
        <ele>103.71</ele>
        <time>2020-03-15T14:32:56.000Z</time>
      </trkpt>
      <trkpt lat="48.86343" lon="2.28667">
        <ele>103.82</ele>
        <time>2020-03-15T14:32:57.000Z</time>
      </trkpt>
      <trkpt lat="48.86342" lon="2.28665">
        <ele>103.93</ele>
        <time>2020-03-15T14:32:58.000Z</time>
      </trkpt>
      <trkpt lat="48.86342" lon="2.28663">
        <ele>104.04</ele>
        <time>2020-03-15T14:32:59.000Z</time>
      </trkpt>
      <trkpt lat="48.86341" lon="2.28661">
        <ele>104.14</ele>
        <time>2020-03-15T14:33:00.000Z</time>
      </trkpt>
      <trkpt lat="48.86339" lon="2.28659">
        <ele>104.25</ele>
        <time>2020-03-15T14:33:01.000Z</time>
      </trkpt>
      <trkpt lat="48.86337" lon="2.28657">
        <ele>104.36</ele>
        <time>2020-03-15T14:33:02.000Z</time>
      </trkpt>
      <trkpt lat="48.86336" lon="2.28655">
        <ele>104.46</ele>
        <time>2020-03-15T14:33:03.000Z</time>
      </trkpt>
      <trkpt lat="48.86334" lon="2.28652">
        <ele>104.56</ele>
        <time>2020-03-15T14:33:04.000Z</time>
      </trkpt>
      <trkpt lat="48.86333" lon="2.2865">
        <ele>104.66</ele>
        <time>2020-03-15T14:33:05.000Z</time>
      </trkpt>
      <trkpt lat="48.86331" lon="2.28648">
        <ele>104.75</ele>
        <time>2020-03-15T14:33:06.000Z</time>
      </trkpt>
      <trkpt lat="48.86329" lon="2.28646">
        <ele>104.85</ele>
        <time>2020-03-15T14:33:07.000Z</time>
      </trkpt>
      <trkpt lat="48.86327" lon="2.28646">
        <ele>104.94</ele>
        <time>2020-03-15T14:33:08.000Z</time>
      </trkpt>
      <trkpt lat="48.86325" lon="2.28646">
        <ele>105.03</ele>
        <time>2020-03-15T14:33:09.000Z</time>
      </trkpt>
      <trkpt lat="48.86322" lon="2.28646">
        <ele>105.12</ele>
        <time>2020-03-15T14:33:10.000Z</time>
      </trkpt>
      <trkpt lat="48.8632" lon="2.28645">
        <ele>105.21</ele>
        <time>2020-03-15T14:33:11.000Z</time>
      </trkpt>
      <trkpt lat="48.86319" lon="2.28644">
        <ele>105.3</ele>
        <time>2020-03-15T14:33:12.000Z</time>
      </trkpt>
      <trkpt lat="48.86317" lon="2.28642">
        <ele>105.38</ele>
        <time>2020-03-15T14:33:13.000Z</time>
      </trkpt>
      <trkpt lat="48.86316" lon="2.28641">
        <ele>105.47</ele>
        <time>2020-03-15T14:33:14.000Z</time>
      </trkpt>
      <trkpt lat="48.86314" lon="2.28639">
        <ele>105.55</ele>
        <time>2020-03-15T14:33:15.000Z</time>
      </trkpt>
      <trkpt lat="48.86312" lon="2.28637">
        <ele>105.64</ele>
        <time>2020-03-15T14:33:16.000Z</time>
      </trkpt>
      <trkpt lat="48.86309" lon="2.28635">
        <ele>105.72</ele>
        <time>2020-03-15T14:33:17.000Z</time>
      </trkpt>
      <trkpt lat="48.86306" lon="2.28633">
        <ele>105.8</ele>
        <time>2020-03-15T14:33:18.000Z</time>
      </trkpt>
      <trkpt lat="48.86303" lon="2.28631">
        <ele>105.88</ele>
        <time>2020-03-15T14:33:19.000Z</time>
      </trkpt>
      <trkpt lat="48.86301" lon="2.2863">
        <ele>105.96</ele>
        <time>2020-03-15T14:33:20.000Z</time>
      </trkpt>
      <trkpt lat="48.86299" lon="2.28629">
        <ele>106.04</ele>
        <time>2020-03-15T14:33:21.000Z</time>
      </trkpt>
      <trkpt lat="48.86297" lon="2.28628">
        <ele>106.11</ele>
        <time>2020-03-15T14:33:22.000Z</time>
      </trkpt>
      <trkpt lat="48.86297" lon="2.28628">
        <ele>106.19</ele>
        <time>2020-03-15T14:33:23.000Z</time>
      </trkpt>
      <trkpt lat="48.86297" lon="2.2863">
        <ele>106.32</ele>
        <time>2020-03-15T14:33:26.000Z</time>
      </trkpt>
      <trkpt lat="48.86297" lon="2.28631">
        <ele>106.38</ele>
        <time>2020-03-15T14:33:27.000Z</time>
      </trkpt>
      <trkpt lat="48.86296" lon="2.28633">
        <ele>106.39</ele>
        <time>2020-03-15T14:33:30.000Z</time>
      </trkpt>
      <trkpt lat="48.86297" lon="2.28634">
        <ele>106.42</ele>
        <time>2020-03-15T14:33:41.000Z</time>
      </trkpt>
      <trkpt lat="48.86299" lon="2.28635">
        <ele>106.42</ele>
        <time>2020-03-15T14:33:43.000Z</time>
      </trkpt>
      <trkpt lat="48.863" lon="2.28634">
        <ele>106.39</ele>
        <time>2020-03-15T14:34:00.000Z</time>
      </trkpt>
      <trkpt lat="48.86301" lon="2.28635">
        <ele>106.31</ele>
        <time>2020-03-15T14:34:33.000Z</time>
      </trkpt>
      <trkpt lat="48.86302" lon="2.28635">
        <ele>106.19</ele>
        <time>2020-03-15T14:34:54.000Z</time>
      </trkpt>
      <trkpt lat="48.86302" lon="2.28634">
        <ele>106</ele>
        <time>2020-03-15T14:35:31.000Z</time>
      </trkpt>
      <trkpt lat="48.86301" lon="2.28633">
        <ele>105.76</ele>
        <time>2020-03-15T14:36:14.000Z</time>
      </trkpt>
      <trkpt lat="48.86301" lon="2.28634">
        <ele>105.57</ele>
        <time>2020-03-15T14:36:45.000Z</time>
      </trkpt>
      <trkpt lat="48.863" lon="2.28631">
        <ele>105.31</ele>
        <time>2020-03-15T14:37:24.000Z</time>
      </trkpt>
      <trkpt lat="48.86298" lon="2.2863">
        <ele>105.28</ele>
        <time>2020-03-15T14:37:25.000Z</time>
      </trkpt>
      <trkpt lat="48.86297" lon="2.28629">
        <ele>105.26</ele>
        <time>2020-03-15T14:37:26.000Z</time>
      </trkpt>
      <trkpt lat="48.86295" lon="2.2863">
        <ele>105.23</ele>
        <time>2020-03-15T14:37:27.000Z</time>
      </trkpt>
      <trkpt lat="48.86293" lon="2.2863">
        <ele>105.2</ele>
        <time>2020-03-15T14:37:28.000Z</time>
      </trkpt>
      <trkpt lat="48.86292" lon="2.28631">
        <ele>105.18</ele>
        <time>2020-03-15T14:37:29.000Z</time>
      </trkpt>
      <trkpt lat="48.86289" lon="2.28633">
        <ele>105.15</ele>
        <time>2020-03-15T14:37:30.000Z</time>
      </trkpt>
      <trkpt lat="48.86287" lon="2.28635">
        <ele>105.13</ele>
        <time>2020-03-15T14:37:31.000Z</time>
      </trkpt>
      <trkpt lat="48.86285" lon="2.28636">
        <ele>105.1</ele>
        <time>2020-03-15T14:37:32.000Z</time>
      </trkpt>
      <trkpt lat="48.86282" lon="2.28637">
        <ele>105.08</ele>
        <time>2020-03-15T14:37:33.000Z</time>
      </trkpt>
      <trkpt lat="48.8628" lon="2.28639">
        <ele>105.06</ele>
        <time>2020-03-15T14:37:34.000Z</time>
      </trkpt>
      <trkpt lat="48.86277" lon="2.2864">
        <ele>105.03</ele>
        <time>2020-03-15T14:37:35.000Z</time>
      </trkpt>
      <trkpt lat="48.86274" lon="2.28642">
        <ele>105.01</ele>
        <time>2020-03-15T14:37:36.000Z</time>
      </trkpt>
      <trkpt lat="48.86272" lon="2.28644">
        <ele>104.99</ele>
        <time>2020-03-15T14:37:37.000Z</time>
      </trkpt>
      <trkpt lat="48.86269" lon="2.28646">
        <ele>104.97</ele>
        <time>2020-03-15T14:37:38.000Z</time>
      </trkpt>
      <trkpt lat="48.86266" lon="2.28648">
        <ele>104.95</ele>
        <time>2020-03-15T14:37:39.000Z</time>
      </trkpt>
      <trkpt lat="48.86263" lon="2.2865">
        <ele>104.93</ele>
        <time>2020-03-15T14:37:40.000Z</time>
      </trkpt>
      <trkpt lat="48.8626" lon="2.28652">
        <ele>104.9</ele>
        <time>2020-03-15T14:37:41.000Z</time>
      </trkpt>
      <trkpt lat="48.86258" lon="2.28654">
        <ele>104.88</ele>
        <time>2020-03-15T14:37:42.000Z</time>
      </trkpt>
      <trkpt lat="48.86255" lon="2.28656">
        <ele>104.86</ele>
        <time>2020-03-15T14:37:43.000Z</time>
      </trkpt>
      <trkpt lat="48.86253" lon="2.28658">
        <ele>104.84</ele>
        <time>2020-03-15T14:37:44.000Z</time>
      </trkpt>
      <trkpt lat="48.8625" lon="2.2866">
        <ele>104.82</ele>
        <time>2020-03-15T14:37:45.000Z</time>
      </trkpt>
      <trkpt lat="48.86247" lon="2.28661">
        <ele>104.8</ele>
        <time>2020-03-15T14:37:46.000Z</time>
      </trkpt>
      <trkpt lat="48.86244" lon="2.28662">
        <ele>104.78</ele>
        <time>2020-03-15T14:37:47.000Z</time>
      </trkpt>
      <trkpt lat="48.86242" lon="2.28661">
        <ele>104.76</ele>
        <time>2020-03-15T14:37:48.000Z</time>
      </trkpt>
      <trkpt lat="48.86239" lon="2.2866">
        <ele>104.74</ele>
        <time>2020-03-15T14:37:49.000Z</time>
      </trkpt>
      <trkpt lat="48.86236" lon="2.28658">
        <ele>104.72</ele>
        <time>2020-03-15T14:37:50.000Z</time>
      </trkpt>
      <trkpt lat="48.86235" lon="2.28656">
        <ele>104.71</ele>
        <time>2020-03-15T14:37:51.000Z</time>
      </trkpt>
      <trkpt lat="48.86234" lon="2.28652">
        <ele>104.69</ele>
        <time>2020-03-15T14:37:52.000Z</time>
      </trkpt>
      <trkpt lat="48.86233" lon="2.28649">
        <ele>104.67</ele>
        <time>2020-03-15T14:37:53.000Z</time>
      </trkpt>
      <trkpt lat="48.86231" lon="2.28646">
        <ele>104.66</ele>
        <time>2020-03-15T14:37:54.000Z</time>
      </trkpt>
      <trkpt lat="48.8623" lon="2.28644">
        <ele>104.64</ele>
        <time>2020-03-15T14:37:55.000Z</time>
      </trkpt>
      <trkpt lat="48.86228" lon="2.28641">
        <ele>104.62</ele>
        <time>2020-03-15T14:37:56.000Z</time>
      </trkpt>
      <trkpt lat="48.86227" lon="2.28638">
        <ele>104.61</ele>
        <time>2020-03-15T14:37:57.000Z</time>
      </trkpt>
      <trkpt lat="48.86227" lon="2.28637">
        <ele>104.59</ele>
        <time>2020-03-15T14:37:58.000Z</time>
      </trkpt>
      <trkpt lat="48.86227" lon="2.28635">
        <ele>104.58</ele>
        <time>2020-03-15T14:37:59.000Z</time>
      </trkpt>
      <trkpt lat="48.86226" lon="2.28631">
        <ele>104.53</ele>
        <time>2020-03-15T14:38:02.000Z</time>
      </trkpt>
      <trkpt lat="48.86224" lon="2.2863">
        <ele>104.51</ele>
        <time>2020-03-15T14:38:04.000Z</time>
      </trkpt>
      <trkpt lat="48.86223" lon="2.28627">
        <ele>104.5</ele>
        <time>2020-03-15T14:38:05.000Z</time>
      </trkpt>
      <trkpt lat="48.86223" lon="2.28625">
        <ele>104.48</ele>
        <time>2020-03-15T14:38:06.000Z</time>
      </trkpt>
      <trkpt lat="48.86221" lon="2.28622">
        <ele>104.47</ele>
        <time>2020-03-15T14:38:07.000Z</time>
      </trkpt>
      <trkpt lat="48.86218" lon="2.28617">
        <ele>104.46</ele>
        <time>2020-03-15T14:38:08.000Z</time>
      </trkpt>
      <trkpt lat="48.86218" lon="2.28615">
        <ele>104.45</ele>
        <time>2020-03-15T14:38:09.000Z</time>
      </trkpt>
      <trkpt lat="48.86218" lon="2.28613">
        <ele>104.44</ele>
        <time>2020-03-15T14:38:10.000Z</time>
      </trkpt>
      <trkpt lat="48.86216" lon="2.2861">
        <ele>104.43</ele>
        <time>2020-03-15T14:38:11.000Z</time>
      </trkpt>
      <trkpt lat="48.86215" lon="2.28606">
        <ele>104.42</ele>
        <time>2020-03-15T14:38:12.000Z</time>
      </trkpt>
      <trkpt lat="48.86214" lon="2.28604">
        <ele>104.4</ele>
        <time>2020-03-15T14:38:13.000Z</time>
      </trkpt>
      <trkpt lat="48.86212" lon="2.286">
        <ele>104.39</ele>
        <time>2020-03-15T14:38:14.000Z</time>
      </trkpt>
      <trkpt lat="48.86211" lon="2.28596">
        <ele>104.38</ele>
        <time>2020-03-15T14:38:15.000Z</time>
      </trkpt>
      <trkpt lat="48.8621" lon="2.28593">
        <ele>104.37</ele>
        <time>2020-03-15T14:38:16.000Z</time>
      </trkpt>
      <trkpt lat="48.86209" lon="2.2859">
        <ele>104.36</ele>
        <time>2020-03-15T14:38:17.000Z</time>
      </trkpt>
      <trkpt lat="48.86208" lon="2.28586">
        <ele>104.35</ele>
        <time>2020-03-15T14:38:18.000Z</time>
      </trkpt>
      <trkpt lat="48.86207" lon="2.28583">
        <ele>104.34</ele>
        <time>2020-03-15T14:38:19.000Z</time>
      </trkpt>
      <trkpt lat="48.86205" lon="2.28578">
        <ele>104.33</ele>
        <time>2020-03-15T14:38:20.000Z</time>
      </trkpt>
      <trkpt lat="48.86204" lon="2.28575">
        <ele>104.33</ele>
        <time>2020-03-15T14:38:21.000Z</time>
      </trkpt>
      <trkpt lat="48.86203" lon="2.28572">
        <ele>104.32</ele>
        <time>2020-03-15T14:38:22.000Z</time>
      </trkpt>
      <trkpt lat="48.86201" lon="2.28568">
        <ele>104.31</ele>
        <time>2020-03-15T14:38:23.000Z</time>
      </trkpt>
      <trkpt lat="48.86199" lon="2.28566">
        <ele>104.3</ele>
        <time>2020-03-15T14:38:24.000Z</time>
      </trkpt>
      <trkpt lat="48.86195" lon="2.28564">
        <ele>104.29</ele>
        <time>2020-03-15T14:38:25.000Z</time>
      </trkpt>
      <trkpt lat="48.86193" lon="2.2856">
        <ele>104.29</ele>
        <time>2020-03-15T14:38:26.000Z</time>
      </trkpt>
      <trkpt lat="48.86191" lon="2.28556">
        <ele>104.28</ele>
        <time>2020-03-15T14:38:27.000Z</time>
      </trkpt>
      <trkpt lat="48.8619" lon="2.28551">
        <ele>104.27</ele>
        <time>2020-03-15T14:38:28.000Z</time>
      </trkpt>
      <trkpt lat="48.86191" lon="2.28546">
        <ele>104.27</ele>
        <time>2020-03-15T14:38:29.000Z</time>
      </trkpt>
      <trkpt lat="48.86192" lon="2.28543">
        <ele>104.26</ele>
        <time>2020-03-15T14:38:30.000Z</time>
      </trkpt>
      <trkpt lat="48.86192" lon="2.28538">
        <ele>104.25</ele>
        <time>2020-03-15T14:38:31.000Z</time>
      </trkpt>
      <trkpt lat="48.86189" lon="2.28535">
        <ele>104.24</ele>
        <time>2020-03-15T14:38:33.000Z</time>
      </trkpt>
      <trkpt lat="48.86188" lon="2.28531">
        <ele>104.23</ele>
        <time>2020-03-15T14:38:34.000Z</time>
      </trkpt>
      <trkpt lat="48.86188" lon="2.28525">
        <ele>104.22</ele>
        <time>2020-03-15T14:38:35.000Z</time>
      </trkpt>
      <trkpt lat="48.86187" lon="2.28522">
        <ele>104.21</ele>
        <time>2020-03-15T14:38:36.000Z</time>
      </trkpt>
      <trkpt lat="48.86186" lon="2.28519">
        <ele>104.2</ele>
        <time>2020-03-15T14:38:37.000Z</time>
      </trkpt>
      <trkpt lat="48.86184" lon="2.28515">
        <ele>104.19</ele>
        <time>2020-03-15T14:38:38.000Z</time>
      </trkpt>
      <trkpt lat="48.86183" lon="2.2851">
        <ele>104.19</ele>
        <time>2020-03-15T14:38:39.000Z</time>
      </trkpt>
      <trkpt lat="48.8618" lon="2.28503">
        <ele>104.18</ele>
        <time>2020-03-15T14:38:40.000Z</time>
      </trkpt>
      <trkpt lat="48.86178" lon="2.28498">
        <ele>104.18</ele>
        <time>2020-03-15T14:38:41.000Z</time>
      </trkpt>
      <trkpt lat="48.86176" lon="2.28492">
        <ele>104.17</ele>
        <time>2020-03-15T14:38:42.000Z</time>
      </trkpt>
      <trkpt lat="48.86173" lon="2.28487">
        <ele>104.16</ele>
        <time>2020-03-15T14:38:43.000Z</time>
      </trkpt>
      <trkpt lat="48.86171" lon="2.28483">
        <ele>104.16</ele>
        <time>2020-03-15T14:38:44.000Z</time>
      </trkpt>
      <trkpt lat="48.86166" lon="2.2848">
        <ele>104.15</ele>
        <time>2020-03-15T14:38:45.000Z</time>
      </trkpt>
      <trkpt lat="48.86164" lon="2.28475">
        <ele>104.08</ele>
        <time>2020-03-15T14:38:46.000Z</time>
      </trkpt>
      <trkpt lat="48.86161" lon="2.28468">
        <ele>104.07</ele>
        <time>2020-03-15T14:38:47.000Z</time>
      </trkpt>
      <trkpt lat="48.86156" lon="2.28463">
        <ele>104.07</ele>
        <time>2020-03-15T14:38:48.000Z</time>
      </trkpt>
      <trkpt lat="48.86151" lon="2.28459">
        <ele>104.06</ele>
        <time>2020-03-15T14:38:49.000Z</time>
      </trkpt>
      <trkpt lat="48.86146" lon="2.28455">
        <ele>104.06</ele>
        <time>2020-03-15T14:38:50.000Z</time>
      </trkpt>
      <trkpt lat="48.86143" lon="2.28449">
        <ele>104.05</ele>
        <time>2020-03-15T14:38:51.000Z</time>
      </trkpt>
      <trkpt lat="48.86141" lon="2.28442">
        <ele>104.05</ele>
        <time>2020-03-15T14:38:52.000Z</time>
      </trkpt>
      <trkpt lat="48.8614" lon="2.28436">
        <ele>104.05</ele>
        <time>2020-03-15T14:38:53.000Z</time>
      </trkpt>
      <trkpt lat="48.86139" lon="2.28429">
        <ele>104.05</ele>
        <time>2020-03-15T14:38:54.000Z</time>
      </trkpt>
      <trkpt lat="48.86137" lon="2.28426">
        <ele>104.04</ele>
        <time>2020-03-15T14:38:55.000Z</time>
      </trkpt>
      <trkpt lat="48.86136" lon="2.28421">
        <ele>104.04</ele>
        <time>2020-03-15T14:38:56.000Z</time>
      </trkpt>
      <trkpt lat="48.86136" lon="2.28414">
        <ele>104.04</ele>
        <time>2020-03-15T14:38:57.000Z</time>
      </trkpt>
      <trkpt lat="48.86135" lon="2.28407">
        <ele>104.03</ele>
        <time>2020-03-15T14:38:58.000Z</time>
      </trkpt>
      <trkpt lat="48.86133" lon="2.28402">
        <ele>104</ele>
        <time>2020-03-15T14:38:59.000Z</time>
      </trkpt>
      <trkpt lat="48.86133" lon="2.28395">
        <ele>103.97</ele>
        <time>2020-03-15T14:39:00.000Z</time>
      </trkpt>
      <trkpt lat="48.86131" lon="2.28388">
        <ele>103.96</ele>
        <time>2020-03-15T14:39:01.000Z</time>
      </trkpt>
      <trkpt lat="48.8613" lon="2.28382">
        <ele>103.96</ele>
        <time>2020-03-15T14:39:02.000Z</time>
      </trkpt>
      <trkpt lat="48.86126" lon="2.28377">
        <ele>103.96</ele>
        <time>2020-03-15T14:39:03.000Z</time>
      </trkpt>
      <trkpt lat="48.86123" lon="2.2837">
        <ele>103.96</ele>
        <time>2020-03-15T14:39:04.000Z</time>
      </trkpt>
      <trkpt lat="48.86121" lon="2.28364">
        <ele>103.96</ele>
        <time>2020-03-15T14:39:05.000Z</time>
      </trkpt>
      <trkpt lat="48.86119" lon="2.28358">
        <ele>103.96</ele>
        <time>2020-03-15T14:39:06.000Z</time>
      </trkpt>
      <trkpt lat="48.86117" lon="2.28353">
        <ele>103.97</ele>
        <time>2020-03-15T14:39:07.000Z</time>
      </trkpt>
      <trkpt lat="48.86115" lon="2.28347">
        <ele>103.95</ele>
        <time>2020-03-15T14:39:08.000Z</time>
      </trkpt>
      <trkpt lat="48.86114" lon="2.28343">
        <ele>103.96</ele>
        <time>2020-03-15T14:39:09.000Z</time>
      </trkpt>
      <trkpt lat="48.86112" lon="2.28337">
        <ele>103.95</ele>
        <time>2020-03-15T14:39:10.000Z</time>
      </trkpt>
      <trkpt lat="48.86107" lon="2.28334">
        <ele>103.9</ele>
        <time>2020-03-15T14:39:11.000Z</time>
      </trkpt>
      <trkpt lat="48.86104" lon="2.28327">
        <ele>102.89</ele>
        <time>2020-03-15T14:39:12.000Z</time>
      </trkpt>
      <trkpt lat="48.86099" lon="2.28321">
        <ele>101.92</ele>
        <time>2020-03-15T14:39:13.000Z</time>
      </trkpt>
      <trkpt lat="48.86095" lon="2.28315">
        <ele>101.19</ele>
        <time>2020-03-15T14:39:14.000Z</time>
      </trkpt>
      <trkpt lat="48.86091" lon="2.28309">
        <ele>100.69</ele>
        <time>2020-03-15T14:39:15.000Z</time>
      </trkpt>
      <trkpt lat="48.86088" lon="2.28302">
        <ele>100.15</ele>
        <time>2020-03-15T14:39:16.000Z</time>
      </trkpt>
      <trkpt lat="48.86085" lon="2.28294">
        <ele>99.71</ele>
        <time>2020-03-15T14:39:17.000Z</time>
      </trkpt>
      <trkpt lat="48.86082" lon="2.28288">
        <ele>99.41</ele>
        <time>2020-03-15T14:39:18.000Z</time>
      </trkpt>
      <trkpt lat="48.86079" lon="2.28281">
        <ele>99.14</ele>
        <time>2020-03-15T14:39:19.000Z</time>
      </trkpt>
      <trkpt lat="48.86076" lon="2.28274">
        <ele>98.91</ele>
        <time>2020-03-15T14:39:20.000Z</time>
      </trkpt>
      <trkpt lat="48.86074" lon="2.28268">
        <ele>98.82</ele>
        <time>2020-03-15T14:39:21.000Z</time>
      </trkpt>
      <trkpt lat="48.86071" lon="2.28262">
        <ele>98.81</ele>
        <time>2020-03-15T14:39:22.000Z</time>
      </trkpt>
      <trkpt lat="48.86068" lon="2.28255">
        <ele>98.84</ele>
        <time>2020-03-15T14:39:23.000Z</time>
      </trkpt>
      <trkpt lat="48.86065" lon="2.28249">
        <ele>98.86</ele>
        <time>2020-03-15T14:39:24.000Z</time>
      </trkpt>
      <trkpt lat="48.86063" lon="2.28241">
        <ele>98.93</ele>
        <time>2020-03-15T14:39:25.000Z</time>
      </trkpt>
      <trkpt lat="48.86061" lon="2.28234">
        <ele>99.04</ele>
        <time>2020-03-15T14:39:26.000Z</time>
      </trkpt>
      <trkpt lat="48.86058" lon="2.28228">
        <ele>99.2</ele>
        <time>2020-03-15T14:39:27.000Z</time>
      </trkpt>
      <trkpt lat="48.86055" lon="2.28222">
        <ele>99.34</ele>
        <time>2020-03-15T14:39:28.000Z</time>
      </trkpt>
      <trkpt lat="48.86053" lon="2.28215">
        <ele>99.48</ele>
        <time>2020-03-15T14:39:29.000Z</time>
      </trkpt>
      <trkpt lat="48.8605" lon="2.28208">
        <ele>99.64</ele>
        <time>2020-03-15T14:39:30.000Z</time>
      </trkpt>
      <trkpt lat="48.86047" lon="2.28201">
        <ele>99.79</ele>
        <time>2020-03-15T14:39:31.000Z</time>
      </trkpt>
      <trkpt lat="48.86044" lon="2.28194">
        <ele>99.92</ele>
        <time>2020-03-15T14:39:32.000Z</time>
      </trkpt>
      <trkpt lat="48.86042" lon="2.28187">
        <ele>100.05</ele>
        <time>2020-03-15T14:39:33.000Z</time>
      </trkpt>
      <trkpt lat="48.86039" lon="2.2818">
        <ele>100.17</ele>
        <time>2020-03-15T14:39:34.000Z</time>
      </trkpt>
      <trkpt lat="48.86036" lon="2.28173">
        <ele>100.27</ele>
        <time>2020-03-15T14:39:35.000Z</time>
      </trkpt>
      <trkpt lat="48.86032" lon="2.28164">
        <ele>100.4</ele>
        <time>2020-03-15T14:39:36.000Z</time>
      </trkpt>
      <trkpt lat="48.86027" lon="2.28159">
        <ele>100.44</ele>
        <time>2020-03-15T14:39:37.000Z</time>
      </trkpt>
      <trkpt lat="48.86022" lon="2.28153">
        <ele>100.5</ele>
        <time>2020-03-15T14:39:38.000Z</time>
      </trkpt>
      <trkpt lat="48.8602" lon="2.28146">
        <ele>100.51</ele>
        <time>2020-03-15T14:39:39.000Z</time>
      </trkpt>
      <trkpt lat="48.86019" lon="2.28139">
        <ele>100.44</ele>
        <time>2020-03-15T14:39:40.000Z</time>
      </trkpt>
      <trkpt lat="48.86019" lon="2.28131">
        <ele>100.35</ele>
        <time>2020-03-15T14:39:41.000Z</time>
      </trkpt>
      <trkpt lat="48.86019" lon="2.28125">
        <ele>100.3</ele>
        <time>2020-03-15T14:39:42.000Z</time>
      </trkpt>
      <trkpt lat="48.86017" lon="2.28117">
        <ele>100.3</ele>
        <time>2020-03-15T14:39:43.000Z</time>
      </trkpt>
      <trkpt lat="48.86015" lon="2.28106">
        <ele>100.36</ele>
        <time>2020-03-15T14:39:44.000Z</time>
      </trkpt>
      <trkpt lat="48.86014" lon="2.28096">
        <ele>100.41</ele>
        <time>2020-03-15T14:39:45.000Z</time>
      </trkpt>
      <trkpt lat="48.86012" lon="2.28085">
        <ele>100.41</ele>
        <time>2020-03-15T14:39:46.000Z</time>
      </trkpt>
      <trkpt lat="48.86009" lon="2.28074">
        <ele>100.41</ele>
        <time>2020-03-15T14:39:47.000Z</time>
      </trkpt>
      <trkpt lat="48.86007" lon="2.28064">
        <ele>100.35</ele>
        <time>2020-03-15T14:39:48.000Z</time>
      </trkpt>
      <trkpt lat="48.86004" lon="2.28053">
        <ele>100.29</ele>
        <time>2020-03-15T14:39:49.000Z</time>
      </trkpt>
      <trkpt lat="48.86001" lon="2.28043">
        <ele>100.25</ele>
        <time>2020-03-15T14:39:50.000Z</time>
      </trkpt>
      <trkpt lat="48.85997" lon="2.28033">
        <ele>100.22</ele>
        <time>2020-03-15T14:39:51.000Z</time>
      </trkpt>
      <trkpt lat="48.85995" lon="2.28023">
        <ele>100.21</ele>
        <time>2020-03-15T14:39:52.000Z</time>
      </trkpt>
      <trkpt lat="48.85993" lon="2.28014">
        <ele>100.21</ele>
        <time>2020-03-15T14:39:53.000Z</time>
      </trkpt>
      <trkpt lat="48.85991" lon="2.28006">
        <ele>100.21</ele>
        <time>2020-03-15T14:39:54.000Z</time>
      </trkpt>
      <trkpt lat="48.85989" lon="2.27997">
        <ele>100.2</ele>
        <time>2020-03-15T14:39:55.000Z</time>
      </trkpt>
      <trkpt lat="48.85987" lon="2.27988">
        <ele>100.25</ele>
        <time>2020-03-15T14:39:56.000Z</time>
      </trkpt>
      <trkpt lat="48.85985" lon="2.27978">
        <ele>100.39</ele>
        <time>2020-03-15T14:39:57.000Z</time>
      </trkpt>
      <trkpt lat="48.85984" lon="2.27971">
        <ele>100.5</ele>
        <time>2020-03-15T14:39:58.000Z</time>
      </trkpt>
      <trkpt lat="48.85983" lon="2.27963">
        <ele>100.64</ele>
        <time>2020-03-15T14:39:59.000Z</time>
      </trkpt>
      <trkpt lat="48.85981" lon="2.27956">
        <ele>100.78</ele>
        <time>2020-03-15T14:40:00.000Z</time>
      </trkpt>
      <trkpt lat="48.85979" lon="2.27949">
        <ele>100.9</ele>
        <time>2020-03-15T14:40:01.000Z</time>
      </trkpt>
      <trkpt lat="48.85977" lon="2.27941">
        <ele>101.01</ele>
        <time>2020-03-15T14:40:02.000Z</time>
      </trkpt>
      <trkpt lat="48.85975" lon="2.27934">
        <ele>101.1</ele>
        <time>2020-03-15T14:40:03.000Z</time>
      </trkpt>
      <trkpt lat="48.85975" lon="2.27927">
        <ele>101.17</ele>
        <time>2020-03-15T14:40:04.000Z</time>
      </trkpt>
      <trkpt lat="48.85974" lon="2.27921">
        <ele>101.17</ele>
        <time>2020-03-15T14:40:05.000Z</time>
      </trkpt>
      <trkpt lat="48.85973" lon="2.27916">
        <ele>101.18</ele>
        <time>2020-03-15T14:40:06.000Z</time>
      </trkpt>
      <trkpt lat="48.85971" lon="2.27909">
        <ele>101.19</ele>
        <time>2020-03-15T14:40:07.000Z</time>
      </trkpt>
      <trkpt lat="48.85971" lon="2.27904">
        <ele>101.21</ele>
        <time>2020-03-15T14:40:08.000Z</time>
      </trkpt>
      <trkpt lat="48.8597" lon="2.27898">
        <ele>101.23</ele>
        <time>2020-03-15T14:40:09.000Z</time>
      </trkpt>
      <trkpt lat="48.85969" lon="2.27892">
        <ele>101.41</ele>
        <time>2020-03-15T14:40:10.000Z</time>
      </trkpt>
      <trkpt lat="48.85968" lon="2.27885">
        <ele>101.6</ele>
        <time>2020-03-15T14:40:11.000Z</time>
      </trkpt>
      <trkpt lat="48.85966" lon="2.27879">
        <ele>101.74</ele>
        <time>2020-03-15T14:40:12.000Z</time>
      </trkpt>
      <trkpt lat="48.85961" lon="2.27873">
        <ele>101.88</ele>
        <time>2020-03-15T14:40:13.000Z</time>
      </trkpt>
      <trkpt lat="48.85958" lon="2.27866">
        <ele>101.97</ele>
        <time>2020-03-15T14:40:14.000Z</time>
      </trkpt>
      <trkpt lat="48.85955" lon="2.27858">
        <ele>102.04</ele>
        <time>2020-03-15T14:40:15.000Z</time>
      </trkpt>
      <trkpt lat="48.85952" lon="2.27851">
        <ele>102.11</ele>
        <time>2020-03-15T14:40:16.000Z</time>
      </trkpt>
      <trkpt lat="48.85949" lon="2.27843">
        <ele>102.17</ele>
        <time>2020-03-15T14:40:17.000Z</time>
      </trkpt>
      <trkpt lat="48.85947" lon="2.27835">
        <ele>102.23</ele>
        <time>2020-03-15T14:40:18.000Z</time>
      </trkpt>
      <trkpt lat="48.85945" lon="2.27827">
        <ele>102.26</ele>
        <time>2020-03-15T14:40:19.000Z</time>
      </trkpt>
      <trkpt lat="48.85943" lon="2.27819">
        <ele>102.27</ele>
        <time>2020-03-15T14:40:20.000Z</time>
      </trkpt>
      <trkpt lat="48.85938" lon="2.27805">
        <ele>102.22</ele>
        <time>2020-03-15T14:40:22.000Z</time>
      </trkpt>
      <trkpt lat="48.85935" lon="2.27798">
        <ele>102.2</ele>
        <time>2020-03-15T14:40:23.000Z</time>
      </trkpt>
      <trkpt lat="48.85932" lon="2.27791">
        <ele>102.18</ele>
        <time>2020-03-15T14:40:24.000Z</time>
      </trkpt>
      <trkpt lat="48.8593" lon="2.27784">
        <ele>102.15</ele>
        <time>2020-03-15T14:40:25.000Z</time>
      </trkpt>
      <trkpt lat="48.85928" lon="2.27779">
        <ele>102.12</ele>
        <time>2020-03-15T14:40:26.000Z</time>
      </trkpt>
      <trkpt lat="48.85926" lon="2.27772">
        <ele>102.09</ele>
        <time>2020-03-15T14:40:27.000Z</time>
      </trkpt>
      <trkpt lat="48.85924" lon="2.27765">
        <ele>102.06</ele>
        <time>2020-03-15T14:40:28.000Z</time>
      </trkpt>
      <trkpt lat="48.8592" lon="2.27758">
        <ele>102.03</ele>
        <time>2020-03-15T14:40:29.000Z</time>
      </trkpt>
      <trkpt lat="48.85918" lon="2.27752">
        <ele>102</ele>
        <time>2020-03-15T14:40:30.000Z</time>
      </trkpt>
      <trkpt lat="48.85915" lon="2.27745">
        <ele>101.96</ele>
        <time>2020-03-15T14:40:31.000Z</time>
      </trkpt>
      <trkpt lat="48.85912" lon="2.27739">
        <ele>101.92</ele>
        <time>2020-03-15T14:40:32.000Z</time>
      </trkpt>
      <trkpt lat="48.8591" lon="2.27731">
        <ele>101.9</ele>
        <time>2020-03-15T14:40:33.000Z</time>
      </trkpt>
      <trkpt lat="48.85908" lon="2.27724">
        <ele>101.89</ele>
        <time>2020-03-15T14:40:34.000Z</time>
      </trkpt>
      <trkpt lat="48.85906" lon="2.27716">
        <ele>101.88</ele>
        <time>2020-03-15T14:40:35.000Z</time>
      </trkpt>
      <trkpt lat="48.85904" lon="2.27709">
        <ele>101.86</ele>
        <time>2020-03-15T14:40:36.000Z</time>
      </trkpt>
      <trkpt lat="48.85902" lon="2.277">
        <ele>101.88</ele>
        <time>2020-03-15T14:40:37.000Z</time>
      </trkpt>
      <trkpt lat="48.859" lon="2.27692">
        <ele>101.95</ele>
        <time>2020-03-15T14:40:38.000Z</time>
      </trkpt>
      <trkpt lat="48.85898" lon="2.27684">
        <ele>101.99</ele>
        <time>2020-03-15T14:40:39.000Z</time>
      </trkpt>
      <trkpt lat="48.85895" lon="2.27678">
        <ele>102.03</ele>
        <time>2020-03-15T14:40:40.000Z</time>
      </trkpt>
      <trkpt lat="48.85892" lon="2.2767">
        <ele>102.06</ele>
        <time>2020-03-15T14:40:41.000Z</time>
      </trkpt>
      <trkpt lat="48.85889" lon="2.27663">
        <ele>102.08</ele>
        <time>2020-03-15T14:40:42.000Z</time>
      </trkpt>
      <trkpt lat="48.85886" lon="2.27656">
        <ele>102.1</ele>
        <time>2020-03-15T14:40:43.000Z</time>
      </trkpt>
      <trkpt lat="48.85883" lon="2.27649">
        <ele>102.13</ele>
        <time>2020-03-15T14:40:44.000Z</time>
      </trkpt>
      <trkpt lat="48.8588" lon="2.27642">
        <ele>102.16</ele>
        <time>2020-03-15T14:40:45.000Z</time>
      </trkpt>
      <trkpt lat="48.85878" lon="2.27635">
        <ele>102.19</ele>
        <time>2020-03-15T14:40:46.000Z</time>
      </trkpt>
      <trkpt lat="48.85875" lon="2.27627">
        <ele>102.23</ele>
        <time>2020-03-15T14:40:47.000Z</time>
      </trkpt>
      <trkpt lat="48.85872" lon="2.27619">
        <ele>102.27</ele>
        <time>2020-03-15T14:40:48.000Z</time>
      </trkpt>
      <trkpt lat="48.85869" lon="2.27612">
        <ele>102.32</ele>
        <time>2020-03-15T14:40:49.000Z</time>
      </trkpt>
      <trkpt lat="48.85865" lon="2.27606">
        <ele>102.36</ele>
        <time>2020-03-15T14:40:50.000Z</time>
      </trkpt>
      <trkpt lat="48.85862" lon="2.27598">
        <ele>102.39</ele>
        <time>2020-03-15T14:40:51.000Z</time>
      </trkpt>
      <trkpt lat="48.85859" lon="2.27591">
        <ele>102.41</ele>
        <time>2020-03-15T14:40:52.000Z</time>
      </trkpt>
      <trkpt lat="48.85857" lon="2.27583">
        <ele>102.41</ele>
        <time>2020-03-15T14:40:53.000Z</time>
      </trkpt>
      <trkpt lat="48.85854" lon="2.27577">
        <ele>102.41</ele>
        <time>2020-03-15T14:40:54.000Z</time>
      </trkpt>
      <trkpt lat="48.85851" lon="2.2757">
        <ele>102.42</ele>
        <time>2020-03-15T14:40:55.000Z</time>
      </trkpt>
      <trkpt lat="48.85849" lon="2.27564">
        <ele>102.41</ele>
        <time>2020-03-15T14:40:56.000Z</time>
      </trkpt>
      <trkpt lat="48.85846" lon="2.27556">
        <ele>102.41</ele>
        <time>2020-03-15T14:40:57.000Z</time>
      </trkpt>
      <trkpt lat="48.85844" lon="2.2755">
        <ele>102.4</ele>
        <time>2020-03-15T14:40:58.000Z</time>
      </trkpt>
      <trkpt lat="48.85842" lon="2.27544">
        <ele>102.39</ele>
        <time>2020-03-15T14:40:59.000Z</time>
      </trkpt>
      <trkpt lat="48.85841" lon="2.27539">
        <ele>102.38</ele>
        <time>2020-03-15T14:41:00.000Z</time>
      </trkpt>
      <trkpt lat="48.85839" lon="2.27532">
        <ele>102.36</ele>
        <time>2020-03-15T14:41:01.000Z</time>
      </trkpt>
      <trkpt lat="48.85837" lon="2.27527">
        <ele>102.36</ele>
        <time>2020-03-15T14:41:02.000Z</time>
      </trkpt>
      <trkpt lat="48.85834" lon="2.27521">
        <ele>102.36</ele>
        <time>2020-03-15T14:41:03.000Z</time>
      </trkpt>
      <trkpt lat="48.85834" lon="2.27515">
        <ele>102.37</ele>
        <time>2020-03-15T14:41:04.000Z</time>
      </trkpt>
      <trkpt lat="48.85833" lon="2.27508">
        <ele>102.4</ele>
        <time>2020-03-15T14:41:05.000Z</time>
      </trkpt>
      <trkpt lat="48.85833" lon="2.27501">
        <ele>102.43</ele>
        <time>2020-03-15T14:41:06.000Z</time>
      </trkpt>
      <trkpt lat="48.85833" lon="2.27495">
        <ele>102.47</ele>
        <time>2020-03-15T14:41:07.000Z</time>
      </trkpt>
      <trkpt lat="48.85832" lon="2.27488">
        <ele>102.52</ele>
        <time>2020-03-15T14:41:08.000Z</time>
      </trkpt>
      <trkpt lat="48.8583" lon="2.27481">
        <ele>102.57</ele>
        <time>2020-03-15T14:41:09.000Z</time>
      </trkpt>
      <trkpt lat="48.85828" lon="2.27473">
        <ele>102.64</ele>
        <time>2020-03-15T14:41:10.000Z</time>
      </trkpt>
      <trkpt lat="48.85826" lon="2.27467">
        <ele>102.7</ele>
        <time>2020-03-15T14:41:11.000Z</time>
      </trkpt>
      <trkpt lat="48.85825" lon="2.27461">
        <ele>102.76</ele>
        <time>2020-03-15T14:41:12.000Z</time>
      </trkpt>
      <trkpt lat="48.85825" lon="2.27454">
        <ele>102.79</ele>
        <time>2020-03-15T14:41:13.000Z</time>
      </trkpt>
      <trkpt lat="48.85823" lon="2.27447">
        <ele>102.81</ele>
        <time>2020-03-15T14:41:14.000Z</time>
      </trkpt>
      <trkpt lat="48.85823" lon="2.2744">
        <ele>102.82</ele>
        <time>2020-03-15T14:41:15.000Z</time>
      </trkpt>
      <trkpt lat="48.85822" lon="2.27435">
        <ele>102.81</ele>
        <time>2020-03-15T14:41:16.000Z</time>
      </trkpt>
      <trkpt lat="48.85821" lon="2.27431">
        <ele>102.81</ele>
        <time>2020-03-15T14:41:17.000Z</time>
      </trkpt>
      <trkpt lat="48.85821" lon="2.27428">
        <ele>102.81</ele>
        <time>2020-03-15T14:41:18.000Z</time>
      </trkpt>
      <trkpt lat="48.85821" lon="2.27426">
        <ele>102.81</ele>
        <time>2020-03-15T14:41:19.000Z</time>
      </trkpt>
      <trkpt lat="48.85821" lon="2.27423">
        <ele>102.81</ele>
        <time>2020-03-15T14:41:20.000Z</time>
      </trkpt>
      <trkpt lat="48.85821" lon="2.27421">
        <ele>102.82</ele>
        <time>2020-03-15T14:41:21.000Z</time>
      </trkpt>
      <trkpt lat="48.85821" lon="2.27419">
        <ele>102.82</ele>
        <time>2020-03-15T14:41:23.000Z</time>
      </trkpt>
      <trkpt lat="48.85821" lon="2.27421">
        <ele>102.8</ele>
        <time>2020-03-15T14:41:29.000Z</time>
      </trkpt>
      <trkpt lat="48.85822" lon="2.27423">
        <ele>102.78</ele>
        <time>2020-03-15T14:41:31.000Z</time>
      </trkpt>
      <trkpt lat="48.85822" lon="2.27426">
        <ele>102.76</ele>
        <time>2020-03-15T14:41:34.000Z</time>
      </trkpt>
      <trkpt lat="48.85823" lon="2.27428">
        <ele>102.74</ele>
        <time>2020-03-15T14:41:36.000Z</time>
      </trkpt>
      <trkpt lat="48.85824" lon="2.27428">
        <ele>102.71</ele>
        <time>2020-03-15T14:41:42.000Z</time>
      </trkpt>
      <trkpt lat="48.85825" lon="2.2743">
        <ele>102.7</ele>
        <time>2020-03-15T14:41:47.000Z</time>
      </trkpt>
      <trkpt lat="48.85824" lon="2.27432">
        <ele>102.67</ele>
        <time>2020-03-15T14:41:51.000Z</time>
      </trkpt>
      <trkpt lat="48.85825" lon="2.27432">
        <ele>102.65</ele>
        <time>2020-03-15T14:41:57.000Z</time>
      </trkpt>
      <trkpt lat="48.85826" lon="2.27433">
        <ele>102.59</ele>
        <time>2020-03-15T14:42:11.000Z</time>
      </trkpt>
      <trkpt lat="48.85826" lon="2.27434">
        <ele>102.57</ele>
        <time>2020-03-15T14:42:14.000Z</time>
      </trkpt>
      <trkpt lat="48.85827" lon="2.27435">
        <ele>102.54</ele>
        <time>2020-03-15T14:42:18.000Z</time>
      </trkpt>
      <trkpt lat="48.85828" lon="2.27436">
        <ele>102.51</ele>
        <time>2020-03-15T14:42:21.000Z</time>
      </trkpt>
      <trkpt lat="48.85827" lon="2.27435">
        <ele>102.38</ele>
        <time>2020-03-15T14:42:39.000Z</time>
      </trkpt>
      <trkpt lat="48.85828" lon="2.27433">
        <ele>102.31</ele>
        <time>2020-03-15T14:42:49.000Z</time>
      </trkpt>
      <trkpt lat="48.85829" lon="2.27433">
        <ele>102.16</ele>
        <time>2020-03-15T14:42:58.000Z</time>
      </trkpt>
      <trkpt lat="48.85828" lon="2.27436">
        <ele>102.08</ele>
        <time>2020-03-15T14:43:08.000Z</time>
      </trkpt>
      <trkpt lat="48.85829" lon="2.27434">
        <ele>101.95</ele>
        <time>2020-03-15T14:43:15.000Z</time>
      </trkpt>
      <trkpt lat="48.85829" lon="2.27433">
        <ele>101.94</ele>
        <time>2020-03-15T14:43:18.000Z</time>
      </trkpt>
      <trkpt lat="48.8583" lon="2.27432">
        <ele>101.86</ele>
        <time>2020-03-15T14:43:27.000Z</time>
      </trkpt>
      <trkpt lat="48.85831" lon="2.2743">
        <ele>101.85</ele>
        <time>2020-03-15T14:43:30.000Z</time>
      </trkpt>
      <trkpt lat="48.85831" lon="2.27432">
        <ele>101.74</ele>
        <time>2020-03-15T14:43:36.000Z</time>
      </trkpt>
      <trkpt lat="48.85829" lon="2.27432">
        <ele>101.64</ele>
        <time>2020-03-15T14:43:42.000Z</time>
      </trkpt>
      <trkpt lat="48.85828" lon="2.27432">
        <ele>101.64</ele>
        <time>2020-03-15T14:43:43.000Z</time>
      </trkpt>
      <trkpt lat="48.85827" lon="2.27432">
        <ele>101.61</ele>
        <time>2020-03-15T14:43:46.000Z</time>
      </trkpt>
      <trkpt lat="48.85826" lon="2.27432">
        <ele>101.59</ele>
        <time>2020-03-15T14:43:49.000Z</time>
      </trkpt>
      <trkpt lat="48.85825" lon="2.27433">
        <ele>101.54</ele>
        <time>2020-03-15T14:43:55.000Z</time>
      </trkpt>
      <trkpt lat="48.85825" lon="2.27434">
        <ele>101.53</ele>
        <time>2020-03-15T14:43:59.000Z</time>
      </trkpt>
      <trkpt lat="48.85823" lon="2.27433">
        <ele>101.52</ele>
        <time>2020-03-15T14:44:04.000Z</time>
      </trkpt>
      <trkpt lat="48.85822" lon="2.27432">
        <ele>101.52</ele>
        <time>2020-03-15T14:44:05.000Z</time>
      </trkpt>
      <trkpt lat="48.85821" lon="2.27431">
        <ele>101.52</ele>
        <time>2020-03-15T14:44:06.000Z</time>
      </trkpt>
      <trkpt lat="48.8582" lon="2.27429">
        <ele>101.51</ele>
        <time>2020-03-15T14:44:07.000Z</time>
      </trkpt>
      <trkpt lat="48.85819" lon="2.27427">
        <ele>101.51</ele>
        <time>2020-03-15T14:44:08.000Z</time>
      </trkpt>
      <trkpt lat="48.85818" lon="2.27426">
        <ele>101.49</ele>
        <time>2020-03-15T14:44:12.000Z</time>
      </trkpt>
      <trkpt lat="48.85818" lon="2.27425">
        <ele>101.47</ele>
        <time>2020-03-15T14:44:29.000Z</time>
      </trkpt>
      <trkpt lat="48.85817" lon="2.27424">
        <ele>101.46</ele>
        <time>2020-03-15T14:44:35.000Z</time>
      </trkpt>
      <trkpt lat="48.85816" lon="2.27423">
        <ele>101.46</ele>
        <time>2020-03-15T14:44:37.000Z</time>
      </trkpt>
      <trkpt lat="48.85815" lon="2.27423">
        <ele>101.45</ele>
        <time>2020-03-15T14:44:39.000Z</time>
      </trkpt>
      <trkpt lat="48.85816" lon="2.27425">
        <ele>101.44</ele>
        <time>2020-03-15T14:44:45.000Z</time>
      </trkpt>
      <trkpt lat="48.85817" lon="2.27424">
        <ele>101.43</ele>
        <time>2020-03-15T14:44:48.000Z</time>
      </trkpt>
      <trkpt lat="48.85818" lon="2.27423">
        <ele>101.4</ele>
        <time>2020-03-15T14:44:59.000Z</time>
      </trkpt>
      <trkpt lat="48.85818" lon="2.27425">
        <ele>101.34</ele>
        <time>2020-03-15T14:45:02.000Z</time>
      </trkpt>
      <trkpt lat="48.85819" lon="2.27427">
        <ele>101.3</ele>
        <time>2020-03-15T14:45:15.000Z</time>
      </trkpt>
      <trkpt lat="48.85818" lon="2.27426">
        <ele>101.24</ele>
        <time>2020-03-15T14:45:29.000Z</time>
      </trkpt>
      <trkpt lat="48.85817" lon="2.27425">
        <ele>101.19</ele>
        <time>2020-03-15T14:45:46.000Z</time>
      </trkpt>
      <trkpt lat="48.85816" lon="2.27423">
        <ele>101.16</ele>
        <time>2020-03-15T14:45:48.000Z</time>
      </trkpt>
      <trkpt lat="48.85815" lon="2.27422">
        <ele>101.15</ele>
        <time>2020-03-15T14:45:49.000Z</time>
      </trkpt>
      <trkpt lat="48.85814" lon="2.2742">
        <ele>101.14</ele>
        <time>2020-03-15T14:45:50.000Z</time>
      </trkpt>
      <trkpt lat="48.85814" lon="2.27418">
        <ele>101.13</ele>
        <time>2020-03-15T14:45:51.000Z</time>
      </trkpt>
      <trkpt lat="48.85815" lon="2.27416">
        <ele>101.12</ele>
        <time>2020-03-15T14:45:52.000Z</time>
      </trkpt>
      <trkpt lat="48.85816" lon="2.27413">
        <ele>101.11</ele>
        <time>2020-03-15T14:45:53.000Z</time>
      </trkpt>
      <trkpt lat="48.85816" lon="2.2741">
        <ele>101.1</ele>
        <time>2020-03-15T14:45:54.000Z</time>
      </trkpt>
      <trkpt lat="48.85816" lon="2.27406">
        <ele>101.09</ele>
        <time>2020-03-15T14:45:55.000Z</time>
      </trkpt>
      <trkpt lat="48.85815" lon="2.27401">
        <ele>101.09</ele>
        <time>2020-03-15T14:45:56.000Z</time>
      </trkpt>
      <trkpt lat="48.85815" lon="2.27396">
        <ele>101.08</ele>
        <time>2020-03-15T14:45:57.000Z</time>
      </trkpt>
      <trkpt lat="48.85814" lon="2.27392">
        <ele>101.07</ele>
        <time>2020-03-15T14:45:58.000Z</time>
      </trkpt>
      <trkpt lat="48.85815" lon="2.27383">
        <ele>101.06</ele>
        <time>2020-03-15T14:46:00.000Z</time>
      </trkpt>
      <trkpt lat="48.85815" lon="2.27378">
        <ele>101.05</ele>
        <time>2020-03-15T14:46:01.000Z</time>
      </trkpt>
      <trkpt lat="48.85816" lon="2.27373">
        <ele>101.05</ele>
        <time>2020-03-15T14:46:02.000Z</time>
      </trkpt>
      <trkpt lat="48.85816" lon="2.27367">
        <ele>101.04</ele>
        <time>2020-03-15T14:46:03.000Z</time>
      </trkpt>
      <trkpt lat="48.85816" lon="2.27362">
        <ele>101.04</ele>
        <time>2020-03-15T14:46:04.000Z</time>
      </trkpt>
      <trkpt lat="48.85817" lon="2.27357">
        <ele>100.98</ele>
        <time>2020-03-15T14:46:05.000Z</time>
      </trkpt>
      <trkpt lat="48.85817" lon="2.2735">
        <ele>100.98</ele>
        <time>2020-03-15T14:46:06.000Z</time>
      </trkpt>
      <trkpt lat="48.85818" lon="2.27344">
        <ele>100.97</ele>
        <time>2020-03-15T14:46:07.000Z</time>
      </trkpt>
      <trkpt lat="48.85818" lon="2.27337">
        <ele>100.97</ele>
        <time>2020-03-15T14:46:08.000Z</time>
      </trkpt>
      <trkpt lat="48.85818" lon="2.27332">
        <ele>100.97</ele>
        <time>2020-03-15T14:46:09.000Z</time>
      </trkpt>
      <trkpt lat="48.85818" lon="2.27327">
        <ele>100.96</ele>
        <time>2020-03-15T14:46:10.000Z</time>
      </trkpt>
      <trkpt lat="48.85819" lon="2.27321">
        <ele>100.96</ele>
        <time>2020-03-15T14:46:11.000Z</time>
      </trkpt>
      <trkpt lat="48.8582" lon="2.27316">
        <ele>100.96</ele>
        <time>2020-03-15T14:46:12.000Z</time>
      </trkpt>
      <trkpt lat="48.8582" lon="2.27311">
        <ele>100.96</ele>
        <time>2020-03-15T14:46:13.000Z</time>
      </trkpt>
      <trkpt lat="48.85822" lon="2.27304">
        <ele>100.96</ele>
        <time>2020-03-15T14:46:14.000Z</time>
      </trkpt>
      <trkpt lat="48.85822" lon="2.27299">
        <ele>100.96</ele>
        <time>2020-03-15T14:46:15.000Z</time>
      </trkpt>
      <trkpt lat="48.85823" lon="2.27293">
        <ele>100.96</ele>
        <time>2020-03-15T14:46:16.000Z</time>
      </trkpt>
      <trkpt lat="48.85824" lon="2.27287">
        <ele>100.96</ele>
        <time>2020-03-15T14:46:17.000Z</time>
      </trkpt>
      <trkpt lat="48.85825" lon="2.27282">
        <ele>100.96</ele>
        <time>2020-03-15T14:46:18.000Z</time>
      </trkpt>
      <trkpt lat="48.85825" lon="2.27277">
        <ele>100.96</ele>
        <time>2020-03-15T14:46:19.000Z</time>
      </trkpt>
      <trkpt lat="48.85826" lon="2.27272">
        <ele>100.96</ele>
        <time>2020-03-15T14:46:20.000Z</time>
      </trkpt>
      <trkpt lat="48.85826" lon="2.27266">
        <ele>100.96</ele>
        <time>2020-03-15T14:46:21.000Z</time>
      </trkpt>
      <trkpt lat="48.85826" lon="2.27261">
        <ele>100.96</ele>
        <time>2020-03-15T14:46:22.000Z</time>
      </trkpt>
      <trkpt lat="48.85827" lon="2.27256">
        <ele>100.96</ele>
        <time>2020-03-15T14:46:23.000Z</time>
      </trkpt>
      <trkpt lat="48.85827" lon="2.27252">
        <ele>100.96</ele>
        <time>2020-03-15T14:46:24.000Z</time>
      </trkpt>
      <trkpt lat="48.85826" lon="2.27246">
        <ele>100.96</ele>
        <time>2020-03-15T14:46:25.000Z</time>
      </trkpt>
      <trkpt lat="48.85827" lon="2.2724">
        <ele>100.96</ele>
        <time>2020-03-15T14:46:26.000Z</time>
      </trkpt>
      <trkpt lat="48.85828" lon="2.27234">
        <ele>100.97</ele>
        <time>2020-03-15T14:46:27.000Z</time>
      </trkpt>
      <trkpt lat="48.85828" lon="2.27228">
        <ele>100.97</ele>
        <time>2020-03-15T14:46:28.000Z</time>
      </trkpt>
      <trkpt lat="48.85828" lon="2.27221">
        <ele>100.97</ele>
        <time>2020-03-15T14:46:29.000Z</time>
      </trkpt>
      <trkpt lat="48.85828" lon="2.27215">
        <ele>100.98</ele>
        <time>2020-03-15T14:46:30.000Z</time>
      </trkpt>
      <trkpt lat="48.85828" lon="2.27208">
        <ele>100.98</ele>
        <time>2020-03-15T14:46:31.000Z</time>
      </trkpt>
      <trkpt lat="48.85828" lon="2.27201">
        <ele>100.99</ele>
        <time>2020-03-15T14:46:32.000Z</time>
      </trkpt>
      <trkpt lat="48.85828" lon="2.27194">
        <ele>100.99</ele>
        <time>2020-03-15T14:46:33.000Z</time>
      </trkpt>
      <trkpt lat="48.85828" lon="2.27186">
        <ele>100.98</ele>
        <time>2020-03-15T14:46:34.000Z</time>
      </trkpt>
      <trkpt lat="48.85828" lon="2.27179">
        <ele>100.98</ele>
        <time>2020-03-15T14:46:35.000Z</time>
      </trkpt>
      <trkpt lat="48.85829" lon="2.27171">
        <ele>100.98</ele>
        <time>2020-03-15T14:46:36.000Z</time>
      </trkpt>
      <trkpt lat="48.85829" lon="2.27163">
        <ele>100.98</ele>
        <time>2020-03-15T14:46:37.000Z</time>
      </trkpt>
      <trkpt lat="48.85829" lon="2.27155">
        <ele>100.98</ele>
        <time>2020-03-15T14:46:38.000Z</time>
      </trkpt>
      <trkpt lat="48.8583" lon="2.27147">
        <ele>100.98</ele>
        <time>2020-03-15T14:46:39.000Z</time>
      </trkpt>
      <trkpt lat="48.8583" lon="2.27138">
        <ele>100.99</ele>
        <time>2020-03-15T14:46:40.000Z</time>
      </trkpt>
      <trkpt lat="48.85829" lon="2.27129">
        <ele>100.99</ele>
        <time>2020-03-15T14:46:41.000Z</time>
      </trkpt>
      <trkpt lat="48.85829" lon="2.2712">
        <ele>100.99</ele>
        <time>2020-03-15T14:46:42.000Z</time>
      </trkpt>
      <trkpt lat="48.8583" lon="2.27112">
        <ele>100.99</ele>
        <time>2020-03-15T14:46:43.000Z</time>
      </trkpt>
      <trkpt lat="48.85831" lon="2.27105">
        <ele>100.99</ele>
        <time>2020-03-15T14:46:44.000Z</time>
      </trkpt>
      <trkpt lat="48.85832" lon="2.27097">
        <ele>100.98</ele>
        <time>2020-03-15T14:46:45.000Z</time>
      </trkpt>
      <trkpt lat="48.85833" lon="2.27089">
        <ele>100.98</ele>
        <time>2020-03-15T14:46:46.000Z</time>
      </trkpt>
      <trkpt lat="48.85834" lon="2.27083">
        <ele>100.98</ele>
        <time>2020-03-15T14:46:47.000Z</time>
      </trkpt>
      <trkpt lat="48.85835" lon="2.27077">
        <ele>100.99</ele>
        <time>2020-03-15T14:46:48.000Z</time>
      </trkpt>
      <trkpt lat="48.85835" lon="2.2707">
        <ele>100.99</ele>
        <time>2020-03-15T14:46:49.000Z</time>
      </trkpt>
      <trkpt lat="48.85835" lon="2.27063">
        <ele>100.99</ele>
        <time>2020-03-15T14:46:50.000Z</time>
      </trkpt>
      <trkpt lat="48.85835" lon="2.27057">
        <ele>100.99</ele>
        <time>2020-03-15T14:46:51.000Z</time>
      </trkpt>
      <trkpt lat="48.85835" lon="2.27053">
        <ele>100.99</ele>
        <time>2020-03-15T14:46:52.000Z</time>
      </trkpt>
      <trkpt lat="48.85835" lon="2.27049">
        <ele>101</ele>
        <time>2020-03-15T14:46:53.000Z</time>
      </trkpt>
      <trkpt lat="48.85835" lon="2.27045">
        <ele>101</ele>
        <time>2020-03-15T14:46:54.000Z</time>
      </trkpt>
      <trkpt lat="48.85835" lon="2.2704">
        <ele>101</ele>
        <time>2020-03-15T14:46:55.000Z</time>
      </trkpt>
      <trkpt lat="48.85835" lon="2.27036">
        <ele>101</ele>
        <time>2020-03-15T14:46:56.000Z</time>
      </trkpt>
      <trkpt lat="48.85834" lon="2.27031">
        <ele>100.99</ele>
        <time>2020-03-15T14:46:57.000Z</time>
      </trkpt>
      <trkpt lat="48.85833" lon="2.27026">
        <ele>100.99</ele>
        <time>2020-03-15T14:46:58.000Z</time>
      </trkpt>
      <trkpt lat="48.85832" lon="2.27022">
        <ele>100.99</ele>
        <time>2020-03-15T14:46:59.000Z</time>
      </trkpt>
      <trkpt lat="48.85831" lon="2.27017">
        <ele>100.99</ele>
        <time>2020-03-15T14:47:00.000Z</time>
      </trkpt>
      <trkpt lat="48.8583" lon="2.27014">
        <ele>100.99</ele>
        <time>2020-03-15T14:47:01.000Z</time>
      </trkpt>
      <trkpt lat="48.85828" lon="2.2701">
        <ele>100.99</ele>
        <time>2020-03-15T14:47:02.000Z</time>
      </trkpt>
      <trkpt lat="48.85827" lon="2.27005">
        <ele>100.99</ele>
        <time>2020-03-15T14:47:03.000Z</time>
      </trkpt>
      <trkpt lat="48.85825" lon="2.27">
        <ele>100.99</ele>
        <time>2020-03-15T14:47:04.000Z</time>
      </trkpt>
      <trkpt lat="48.85823" lon="2.26996">
        <ele>100.99</ele>
        <time>2020-03-15T14:47:05.000Z</time>
      </trkpt>
      <trkpt lat="48.85821" lon="2.2699">
        <ele>100.99</ele>
        <time>2020-03-15T14:47:06.000Z</time>
      </trkpt>
      <trkpt lat="48.85819" lon="2.26985">
        <ele>100.99</ele>
        <time>2020-03-15T14:47:07.000Z</time>
      </trkpt>
      <trkpt lat="48.85817" lon="2.2698">
        <ele>100.99</ele>
        <time>2020-03-15T14:47:08.000Z</time>
      </trkpt>
      <trkpt lat="48.85815" lon="2.26975">
        <ele>101</ele>
        <time>2020-03-15T14:47:09.000Z</time>
      </trkpt>
      <trkpt lat="48.85813" lon="2.26969">
        <ele>101.01</ele>
        <time>2020-03-15T14:47:10.000Z</time>
      </trkpt>
      <trkpt lat="48.85811" lon="2.26963">
        <ele>101.02</ele>
        <time>2020-03-15T14:47:11.000Z</time>
      </trkpt>
      <trkpt lat="48.85809" lon="2.26957">
        <ele>101.03</ele>
        <time>2020-03-15T14:47:12.000Z</time>
      </trkpt>
      <trkpt lat="48.85806" lon="2.26952">
        <ele>101.03</ele>
        <time>2020-03-15T14:47:13.000Z</time>
      </trkpt>
      <trkpt lat="48.85804" lon="2.26947">
        <ele>101.03</ele>
        <time>2020-03-15T14:47:14.000Z</time>
      </trkpt>
      <trkpt lat="48.85802" lon="2.26942">
        <ele>101.03</ele>
        <time>2020-03-15T14:47:15.000Z</time>
      </trkpt>
      <trkpt lat="48.85801" lon="2.26937">
        <ele>101.03</ele>
        <time>2020-03-15T14:47:16.000Z</time>
      </trkpt>
      <trkpt lat="48.85799" lon="2.26932">
        <ele>101.02</ele>
        <time>2020-03-15T14:47:17.000Z</time>
      </trkpt>
      <trkpt lat="48.85797" lon="2.26926">
        <ele>101.02</ele>
        <time>2020-03-15T14:47:18.000Z</time>
      </trkpt>
      <trkpt lat="48.85795" lon="2.26919">
        <ele>101.01</ele>
        <time>2020-03-15T14:47:19.000Z</time>
      </trkpt>
      <trkpt lat="48.85793" lon="2.26914">
        <ele>101.01</ele>
        <time>2020-03-15T14:47:20.000Z</time>
      </trkpt>
      <trkpt lat="48.85791" lon="2.26909">
        <ele>101.01</ele>
        <time>2020-03-15T14:47:21.000Z</time>
      </trkpt>
      <trkpt lat="48.85789" lon="2.26903">
        <ele>101.01</ele>
        <time>2020-03-15T14:47:22.000Z</time>
      </trkpt>
      <trkpt lat="48.85788" lon="2.26896">
        <ele>101.01</ele>
        <time>2020-03-15T14:47:23.000Z</time>
      </trkpt>
      <trkpt lat="48.85786" lon="2.2689">
        <ele>101.01</ele>
        <time>2020-03-15T14:47:24.000Z</time>
      </trkpt>
      <trkpt lat="48.85784" lon="2.26885">
        <ele>101.01</ele>
        <time>2020-03-15T14:47:25.000Z</time>
      </trkpt>
      <trkpt lat="48.85783" lon="2.26879">
        <ele>101</ele>
        <time>2020-03-15T14:47:26.000Z</time>
      </trkpt>
      <trkpt lat="48.8578" lon="2.26873">
        <ele>101</ele>
        <time>2020-03-15T14:47:27.000Z</time>
      </trkpt>
      <trkpt lat="48.85777" lon="2.26866">
        <ele>101</ele>
        <time>2020-03-15T14:47:28.000Z</time>
      </trkpt>
      <trkpt lat="48.85775" lon="2.2686">
        <ele>101</ele>
        <time>2020-03-15T14:47:29.000Z</time>
      </trkpt>
      <trkpt lat="48.85774" lon="2.26856">
        <ele>100.99</ele>
        <time>2020-03-15T14:47:30.000Z</time>
      </trkpt>
      <trkpt lat="48.85772" lon="2.2685">
        <ele>100.99</ele>
        <time>2020-03-15T14:47:31.000Z</time>
      </trkpt>
      <trkpt lat="48.8577" lon="2.26845">
        <ele>100.99</ele>
        <time>2020-03-15T14:47:32.000Z</time>
      </trkpt>
      <trkpt lat="48.85768" lon="2.26839">
        <ele>100.99</ele>
        <time>2020-03-15T14:47:33.000Z</time>
      </trkpt>
      <trkpt lat="48.85766" lon="2.26832">
        <ele>100.99</ele>
        <time>2020-03-15T14:47:34.000Z</time>
      </trkpt>
      <trkpt lat="48.85764" lon="2.26828">
        <ele>100.99</ele>
        <time>2020-03-15T14:47:35.000Z</time>
      </trkpt>
      <trkpt lat="48.85764" lon="2.26822">
        <ele>100.99</ele>
        <time>2020-03-15T14:47:36.000Z</time>
      </trkpt>
      <trkpt lat="48.85762" lon="2.26817">
        <ele>100.99</ele>
        <time>2020-03-15T14:47:37.000Z</time>
      </trkpt>
      <trkpt lat="48.8576" lon="2.26809">
        <ele>100.99</ele>
        <time>2020-03-15T14:47:38.000Z</time>
      </trkpt>
      <trkpt lat="48.85757" lon="2.26805">
        <ele>100.99</ele>
        <time>2020-03-15T14:47:39.000Z</time>
      </trkpt>
      <trkpt lat="48.85756" lon="2.26802">
        <ele>100.98</ele>
        <time>2020-03-15T14:47:40.000Z</time>
      </trkpt>
      <trkpt lat="48.85756" lon="2.26796">
        <ele>100.98</ele>
        <time>2020-03-15T14:47:41.000Z</time>
      </trkpt>
      <trkpt lat="48.85756" lon="2.26791">
        <ele>100.98</ele>
        <time>2020-03-15T14:47:42.000Z</time>
      </trkpt>
      <trkpt lat="48.85754" lon="2.26782">
        <ele>100.98</ele>
        <time>2020-03-15T14:47:43.000Z</time>
      </trkpt>
      <trkpt lat="48.85751" lon="2.26777">
        <ele>100.98</ele>
        <time>2020-03-15T14:47:44.000Z</time>
      </trkpt>
      <trkpt lat="48.85747" lon="2.26772">
        <ele>100.97</ele>
        <time>2020-03-15T14:47:45.000Z</time>
      </trkpt>
      <trkpt lat="48.85744" lon="2.26763">
        <ele>100.97</ele>
        <time>2020-03-15T14:47:46.000Z</time>
      </trkpt>
      <trkpt lat="48.85741" lon="2.26757">
        <ele>100.97</ele>
        <time>2020-03-15T14:47:47.000Z</time>
      </trkpt>
      <trkpt lat="48.85738" lon="2.26754">
        <ele>100.97</ele>
        <time>2020-03-15T14:47:48.000Z</time>
      </trkpt>
      <trkpt lat="48.85733" lon="2.26749">
        <ele>100.97</ele>
        <time>2020-03-15T14:47:49.000Z</time>
      </trkpt>
      <trkpt lat="48.85731" lon="2.26741">
        <ele>100.97</ele>
        <time>2020-03-15T14:47:50.000Z</time>
      </trkpt>
      <trkpt lat="48.85729" lon="2.26735">
        <ele>100.97</ele>
        <time>2020-03-15T14:47:51.000Z</time>
      </trkpt>
      <trkpt lat="48.85727" lon="2.26728">
        <ele>100.97</ele>
        <time>2020-03-15T14:47:52.000Z</time>
      </trkpt>
      <trkpt lat="48.85725" lon="2.26722">
        <ele>100.97</ele>
        <time>2020-03-15T14:47:53.000Z</time>
      </trkpt>
      <trkpt lat="48.85724" lon="2.26717">
        <ele>100.96</ele>
        <time>2020-03-15T14:47:54.000Z</time>
      </trkpt>
      <trkpt lat="48.85721" lon="2.26711">
        <ele>100.96</ele>
        <time>2020-03-15T14:47:55.000Z</time>
      </trkpt>
      <trkpt lat="48.85718" lon="2.26705">
        <ele>100.96</ele>
        <time>2020-03-15T14:47:56.000Z</time>
      </trkpt>
      <trkpt lat="48.85717" lon="2.267">
        <ele>100.96</ele>
        <time>2020-03-15T14:47:57.000Z</time>
      </trkpt>
      <trkpt lat="48.85715" lon="2.26695">
        <ele>100.96</ele>
        <time>2020-03-15T14:47:58.000Z</time>
      </trkpt>
      <trkpt lat="48.85713" lon="2.26689">
        <ele>100.96</ele>
        <time>2020-03-15T14:47:59.000Z</time>
      </trkpt>
      <trkpt lat="48.85711" lon="2.26683">
        <ele>100.96</ele>
        <time>2020-03-15T14:48:00.000Z</time>
      </trkpt>
      <trkpt lat="48.85708" lon="2.26677">
        <ele>100.96</ele>
        <time>2020-03-15T14:48:01.000Z</time>
      </trkpt>
      <trkpt lat="48.85706" lon="2.26672">
        <ele>100.96</ele>
        <time>2020-03-15T14:48:02.000Z</time>
      </trkpt>
      <trkpt lat="48.85705" lon="2.26668">
        <ele>100.96</ele>
        <time>2020-03-15T14:48:03.000Z</time>
      </trkpt>
      <trkpt lat="48.85703" lon="2.26663">
        <ele>100.96</ele>
        <time>2020-03-15T14:48:04.000Z</time>
      </trkpt>
      <trkpt lat="48.85704" lon="2.26659">
        <ele>100.96</ele>
        <time>2020-03-15T14:48:05.000Z</time>
      </trkpt>
      <trkpt lat="48.85705" lon="2.26655">
        <ele>100.96</ele>
        <time>2020-03-15T14:48:06.000Z</time>
      </trkpt>
      <trkpt lat="48.85707" lon="2.26653">
        <ele>100.97</ele>
        <time>2020-03-15T14:48:07.000Z</time>
      </trkpt>
      <trkpt lat="48.85709" lon="2.26652">
        <ele>100.97</ele>
        <time>2020-03-15T14:48:08.000Z</time>
      </trkpt>
      <trkpt lat="48.8571" lon="2.26654">
        <ele>100.97</ele>
        <time>2020-03-15T14:48:09.000Z</time>
      </trkpt>
      <trkpt lat="48.85711" lon="2.26654">
        <ele>100.97</ele>
        <time>2020-03-15T14:48:10.000Z</time>
      </trkpt>
      <trkpt lat="48.85714" lon="2.26657">
        <ele>100.97</ele>
        <time>2020-03-15T14:48:11.000Z</time>
      </trkpt>
      <trkpt lat="48.85717" lon="2.26658">
        <ele>100.97</ele>
        <time>2020-03-15T14:48:12.000Z</time>
      </trkpt>
      <trkpt lat="48.85719" lon="2.26658">
        <ele>100.97</ele>
        <time>2020-03-15T14:48:13.000Z</time>
      </trkpt>
      <trkpt lat="48.85721" lon="2.26659">
        <ele>100.98</ele>
        <time>2020-03-15T14:48:14.000Z</time>
      </trkpt>
      <trkpt lat="48.85725" lon="2.26662">
        <ele>100.98</ele>
        <time>2020-03-15T14:48:15.000Z</time>
      </trkpt>
      <trkpt lat="48.85728" lon="2.26664">
        <ele>100.98</ele>
        <time>2020-03-15T14:48:16.000Z</time>
      </trkpt>
      <trkpt lat="48.85732" lon="2.26664">
        <ele>100.98</ele>
        <time>2020-03-15T14:48:17.000Z</time>
      </trkpt>
      <trkpt lat="48.85735" lon="2.26664">
        <ele>100.98</ele>
        <time>2020-03-15T14:48:18.000Z</time>
      </trkpt>
      <trkpt lat="48.85738" lon="2.26663">
        <ele>100.98</ele>
        <time>2020-03-15T14:48:19.000Z</time>
      </trkpt>
      <trkpt lat="48.85741" lon="2.26664">
        <ele>100.99</ele>
        <time>2020-03-15T14:48:20.000Z</time>
      </trkpt>
      <trkpt lat="48.85744" lon="2.26664">
        <ele>100.99</ele>
        <time>2020-03-15T14:48:21.000Z</time>
      </trkpt>
      <trkpt lat="48.85747" lon="2.26664">
        <ele>100.99</ele>
        <time>2020-03-15T14:48:22.000Z</time>
      </trkpt>
      <trkpt lat="48.8575" lon="2.26663">
        <ele>100.99</ele>
        <time>2020-03-15T14:48:23.000Z</time>
      </trkpt>
      <trkpt lat="48.85753" lon="2.26664">
        <ele>100.99</ele>
        <time>2020-03-15T14:48:24.000Z</time>
      </trkpt>
      <trkpt lat="48.85757" lon="2.26665">
        <ele>100.99</ele>
        <time>2020-03-15T14:48:25.000Z</time>
      </trkpt>
      <trkpt lat="48.85759" lon="2.26665">
        <ele>100.99</ele>
        <time>2020-03-15T14:48:26.000Z</time>
      </trkpt>
      <trkpt lat="48.85762" lon="2.26667">
        <ele>100.99</ele>
        <time>2020-03-15T14:48:28.000Z</time>
      </trkpt>
      <trkpt lat="48.85764" lon="2.26672">
        <ele>100.99</ele>
        <time>2020-03-15T14:48:29.000Z</time>
      </trkpt>
      <trkpt lat="48.85765" lon="2.26675">
        <ele>100.99</ele>
        <time>2020-03-15T14:48:30.000Z</time>
      </trkpt>
      <trkpt lat="48.85766" lon="2.26677">
        <ele>100.99</ele>
        <time>2020-03-15T14:48:31.000Z</time>
      </trkpt>
      <trkpt lat="48.85767" lon="2.26679">
        <ele>100.99</ele>
        <time>2020-03-15T14:48:32.000Z</time>
      </trkpt>
      <trkpt lat="48.85769" lon="2.2668">
        <ele>100.99</ele>
        <time>2020-03-15T14:48:33.000Z</time>
      </trkpt>
      <trkpt lat="48.8577" lon="2.26681">
        <ele>100.99</ele>
        <time>2020-03-15T14:48:34.000Z</time>
      </trkpt>
      <trkpt lat="48.85772" lon="2.26683">
        <ele>100.98</ele>
        <time>2020-03-15T14:48:35.000Z</time>
      </trkpt>
      <trkpt lat="48.85773" lon="2.26684">
        <ele>100.98</ele>
        <time>2020-03-15T14:48:36.000Z</time>
      </trkpt>
      <trkpt lat="48.85775" lon="2.26685">
        <ele>100.98</ele>
        <time>2020-03-15T14:48:37.000Z</time>
      </trkpt>
      <trkpt lat="48.85778" lon="2.26687">
        <ele>100.97</ele>
        <time>2020-03-15T14:48:39.000Z</time>
      </trkpt>
      <trkpt lat="48.85779" lon="2.26688">
        <ele>100.97</ele>
        <time>2020-03-15T14:48:40.000Z</time>
      </trkpt>
      <trkpt lat="48.85782" lon="2.26691">
        <ele>100.96</ele>
        <time>2020-03-15T14:48:41.000Z</time>
      </trkpt>
      <trkpt lat="48.85785" lon="2.26695">
        <ele>100.95</ele>
        <time>2020-03-15T14:48:42.000Z</time>
      </trkpt>
      <trkpt lat="48.85786" lon="2.26696">
        <ele>100.95</ele>
        <time>2020-03-15T14:48:43.000Z</time>
      </trkpt>
      <trkpt lat="48.85787" lon="2.26696">
        <ele>100.94</ele>
        <time>2020-03-15T14:48:44.000Z</time>
      </trkpt>
      <trkpt lat="48.85788" lon="2.26697">
        <ele>100.93</ele>
        <time>2020-03-15T14:48:45.000Z</time>
      </trkpt>
      <trkpt lat="48.8579" lon="2.26698">
        <ele>100.93</ele>
        <time>2020-03-15T14:48:46.000Z</time>
      </trkpt>
      <trkpt lat="48.85792" lon="2.267">
        <ele>100.92</ele>
        <time>2020-03-15T14:48:47.000Z</time>
      </trkpt>
      <trkpt lat="48.85794" lon="2.26702">
        <ele>100.92</ele>
        <time>2020-03-15T14:48:48.000Z</time>
      </trkpt>
      <trkpt lat="48.85795" lon="2.26708">
        <ele>100.92</ele>
        <time>2020-03-15T14:48:49.000Z</time>
      </trkpt>
      <trkpt lat="48.85795" lon="2.26713">
        <ele>100.91</ele>
        <time>2020-03-15T14:48:50.000Z</time>
      </trkpt>
      <trkpt lat="48.85794" lon="2.26715">
        <ele>100.91</ele>
        <time>2020-03-15T14:48:51.000Z</time>
      </trkpt>
      <trkpt lat="48.85793" lon="2.26718">
        <ele>100.91</ele>
        <time>2020-03-15T14:48:52.000Z</time>
      </trkpt>
      <trkpt lat="48.85793" lon="2.26719">
        <ele>100.9</ele>
        <time>2020-03-15T14:48:53.000Z</time>
      </trkpt>
      <trkpt lat="48.85793" lon="2.26721">
        <ele>100.89</ele>
        <time>2020-03-15T14:48:55.000Z</time>
      </trkpt>
      <trkpt lat="48.85795" lon="2.26722">
        <ele>100.89</ele>
        <time>2020-03-15T14:48:56.000Z</time>
      </trkpt>
      <trkpt lat="48.85795" lon="2.26725">
        <ele>100.89</ele>
        <time>2020-03-15T14:48:57.000Z</time>
      </trkpt>
      <trkpt lat="48.85795" lon="2.26726">
        <ele>100.89</ele>
        <time>2020-03-15T14:48:58.000Z</time>
      </trkpt>
      <trkpt lat="48.85794" lon="2.26728">
        <ele>100.87</ele>
        <time>2020-03-15T14:49:01.000Z</time>
      </trkpt>
      <trkpt lat="48.85793" lon="2.26729">
        <ele>100.86</ele>
        <time>2020-03-15T14:49:02.000Z</time>
      </trkpt>
      <trkpt lat="48.85792" lon="2.26729">
        <ele>100.85</ele>
        <time>2020-03-15T14:49:03.000Z</time>
      </trkpt>
      <trkpt lat="48.8579" lon="2.26729">
        <ele>100.85</ele>
        <time>2020-03-15T14:49:04.000Z</time>
      </trkpt>
      <trkpt lat="48.85788" lon="2.26728">
        <ele>100.84</ele>
        <time>2020-03-15T14:49:06.000Z</time>
      </trkpt>
      <trkpt lat="48.85787" lon="2.26728">
        <ele>100.83</ele>
        <time>2020-03-15T14:49:07.000Z</time>
      </trkpt>
      <trkpt lat="48.85786" lon="2.26729">
        <ele>100.82</ele>
        <time>2020-03-15T14:49:08.000Z</time>
      </trkpt>
      <trkpt lat="48.85785" lon="2.26728">
        <ele>100.82</ele>
        <time>2020-03-15T14:49:09.000Z</time>
      </trkpt>
      <trkpt lat="48.85783" lon="2.26725">
        <ele>100.81</ele>
        <time>2020-03-15T14:49:11.000Z</time>
      </trkpt>
      <trkpt lat="48.85782" lon="2.26723">
        <ele>100.8</ele>
        <time>2020-03-15T14:49:12.000Z</time>
      </trkpt>
      <trkpt lat="48.85781" lon="2.26721">
        <ele>100.77</ele>
        <time>2020-03-15T14:49:17.000Z</time>
      </trkpt>
      <trkpt lat="48.8578" lon="2.2672">
        <ele>100.75</ele>
        <time>2020-03-15T14:49:21.000Z</time>
      </trkpt>
      <trkpt lat="48.85781" lon="2.2672">
        <ele>100.73</ele>
        <time>2020-03-15T14:49:24.000Z</time>
      </trkpt>
      <trkpt lat="48.85782" lon="2.2672">
        <ele>100.69</ele>
        <time>2020-03-15T14:49:29.000Z</time>
      </trkpt>
      <trkpt lat="48.85783" lon="2.26719">
        <ele>100.66</ele>
        <time>2020-03-15T14:49:41.000Z</time>
      </trkpt>
      <trkpt lat="48.85781" lon="2.26719">
        <ele>100.64</ele>
        <time>2020-03-15T14:49:46.000Z</time>
      </trkpt>
      <trkpt lat="48.85782" lon="2.26718">
        <ele>100.4</ele>
        <time>2020-03-15T14:49:49.000Z</time>
      </trkpt>
      <trkpt lat="48.85781" lon="2.2672">
        <ele>100.05</ele>
        <time>2020-03-15T14:49:54.000Z</time>
      </trkpt>
      <trkpt lat="48.85782" lon="2.26713">
        <ele>100.04</ele>
        <time>2020-03-15T14:49:58.000Z</time>
      </trkpt>
      <trkpt lat="48.85779" lon="2.26707">
        <ele>100.04</ele>
        <time>2020-03-15T14:49:59.000Z</time>
      </trkpt>
      <trkpt lat="48.85777" lon="2.26708">
        <ele>100.04</ele>
        <time>2020-03-15T14:50:00.000Z</time>
      </trkpt>
      <trkpt lat="48.85777" lon="2.26707">
        <ele>100.04</ele>
        <time>2020-03-15T14:50:08.000Z</time>
      </trkpt>
      <trkpt lat="48.85777" lon="2.26705">
        <ele>100.05</ele>
        <time>2020-03-15T14:50:13.000Z</time>
      </trkpt>
      <trkpt lat="48.85777" lon="2.26707">
        <ele>100.15</ele>
        <time>2020-03-15T14:50:26.000Z</time>
      </trkpt>
      <trkpt lat="48.85778" lon="2.26707">
        <ele>100.7</ele>
        <time>2020-03-15T14:50:31.000Z</time>
      </trkpt>
      <trkpt lat="48.8578" lon="2.26707">
        <ele>101.12</ele>
        <time>2020-03-15T14:50:37.000Z</time>
      </trkpt>
      <trkpt lat="48.85779" lon="2.26707">
        <ele>101.16</ele>
        <time>2020-03-15T14:50:38.000Z</time>
      </trkpt>
      <trkpt lat="48.85776" lon="2.26706">
        <ele>101.2</ele>
        <time>2020-03-15T14:50:40.000Z</time>
      </trkpt>
      <trkpt lat="48.85774" lon="2.26706">
        <ele>101.21</ele>
        <time>2020-03-15T14:50:41.000Z</time>
      </trkpt>
      <trkpt lat="48.85771" lon="2.26705">
        <ele>101.21</ele>
        <time>2020-03-15T14:50:42.000Z</time>
      </trkpt>
      <trkpt lat="48.8577" lon="2.26703">
        <ele>101.2</ele>
        <time>2020-03-15T14:50:46.999Z</time>
      </trkpt>
      <trkpt lat="48.8577" lon="2.267">
        <ele>101.2</ele>
        <time>2020-03-15T14:50:47.999Z</time>
      </trkpt>
      <trkpt lat="48.8577" lon="2.26697">
        <ele>101.19</ele>
        <time>2020-03-15T14:50:48.999Z</time>
      </trkpt>
      <trkpt lat="48.85771" lon="2.26698">
        <ele>101.17</ele>
        <time>2020-03-15T14:50:52.999Z</time>
      </trkpt>
      <trkpt lat="48.8577" lon="2.26698">
        <ele>101.16</ele>
        <time>2020-03-15T14:50:53.999Z</time>
      </trkpt>
      <trkpt lat="48.85769" lon="2.26698">
        <ele>101.16</ele>
        <time>2020-03-15T14:50:54.999Z</time>
      </trkpt>
      <trkpt lat="48.85768" lon="2.267">
        <ele>101.14</ele>
        <time>2020-03-15T14:50:57.999Z</time>
      </trkpt>
      <trkpt lat="48.8577" lon="2.267">
        <ele>101.14</ele>
        <time>2020-03-15T14:50:58.999Z</time>
      </trkpt>
      <trkpt lat="48.85771" lon="2.26701">
        <ele>101.13</ele>
        <time>2020-03-15T14:50:59.999Z</time>
      </trkpt>
      <trkpt lat="48.85773" lon="2.26703">
        <ele>101.13</ele>
        <time>2020-03-15T14:51:00.999Z</time>
      </trkpt>
      <trkpt lat="48.85774" lon="2.26704">
        <ele>101.12</ele>
        <time>2020-03-15T14:51:01.999Z</time>
      </trkpt>
      <trkpt lat="48.85776" lon="2.26706">
        <ele>101.12</ele>
        <time>2020-03-15T14:51:02.999Z</time>
      </trkpt>
      <trkpt lat="48.85776" lon="2.26709">
        <ele>101.11</ele>
        <time>2020-03-15T14:51:03.999Z</time>
      </trkpt>
      <trkpt lat="48.85775" lon="2.26711">
        <ele>101.1</ele>
        <time>2020-03-15T14:51:05.999Z</time>
      </trkpt>
      <trkpt lat="48.85776" lon="2.26709">
        <ele>101.09</ele>
        <time>2020-03-15T14:51:07.999Z</time>
      </trkpt>
      <trkpt lat="48.85777" lon="2.26708">
        <ele>101.08</ele>
        <time>2020-03-15T14:51:08.999Z</time>
      </trkpt>
      <trkpt lat="48.85776" lon="2.26709">
        <ele>101.08</ele>
        <time>2020-03-15T14:51:11.999Z</time>
      </trkpt>
      <trkpt lat="48.85777" lon="2.2671">
        <ele>101.06</ele>
        <time>2020-03-15T14:51:15.999Z</time>
      </trkpt>
      <trkpt lat="48.85776" lon="2.26707">
        <ele>101.05</ele>
        <time>2020-03-15T14:51:16.999Z</time>
      </trkpt>
      <trkpt lat="48.85777" lon="2.26708">
        <ele>101.04</ele>
        <time>2020-03-15T14:51:17.999Z</time>
      </trkpt>
      <trkpt lat="48.85779" lon="2.26709">
        <ele>101.03</ele>
        <time>2020-03-15T14:51:18.999Z</time>
      </trkpt>
      <trkpt lat="48.85778" lon="2.26708">
        <ele>100.97</ele>
        <time>2020-03-15T14:51:39.999Z</time>
      </trkpt>
      <trkpt lat="48.85778" lon="2.26706">
        <ele>100.94</ele>
        <time>2020-03-15T14:51:41.999Z</time>
      </trkpt>
      <trkpt lat="48.85779" lon="2.26705">
        <ele>100.92</ele>
        <time>2020-03-15T14:51:42.999Z</time>
      </trkpt>
      <trkpt lat="48.85778" lon="2.26703">
        <ele>100.86</ele>
        <time>2020-03-15T14:51:46.999Z</time>
      </trkpt>
      <trkpt lat="48.85777" lon="2.26701">
        <ele>100.85</ele>
        <time>2020-03-15T14:51:47.999Z</time>
      </trkpt>
      <trkpt lat="48.85777" lon="2.26698">
        <ele>100.84</ele>
        <time>2020-03-15T14:51:48.999Z</time>
      </trkpt>
      <trkpt lat="48.85776" lon="2.26696">
        <ele>100.82</ele>
        <time>2020-03-15T14:51:49.999Z</time>
      </trkpt>
      <trkpt lat="48.85776" lon="2.26698">
        <ele>100.79</ele>
        <time>2020-03-15T14:52:02.999Z</time>
      </trkpt>
      <trkpt lat="48.85776" lon="2.267">
        <ele>100.79</ele>
        <time>2020-03-15T14:52:03.999Z</time>
      </trkpt>
      <trkpt lat="48.85777" lon="2.26702">
        <ele>100.66</ele>
        <time>2020-03-15T14:52:07.999Z</time>
      </trkpt>
      <trkpt lat="48.85776" lon="2.267">
        <ele>100.45</ele>
        <time>2020-03-15T14:52:10.999Z</time>
      </trkpt>
      <trkpt lat="48.85774" lon="2.26699">
        <ele>100.35</ele>
        <time>2020-03-15T14:52:14.999Z</time>
      </trkpt>
      <trkpt lat="48.85774" lon="2.26697">
        <ele>100.33</ele>
        <time>2020-03-15T14:52:15.999Z</time>
      </trkpt>
      <trkpt lat="48.85772" lon="2.26694">
        <ele>100.32</ele>
        <time>2020-03-15T14:52:16.999Z</time>
      </trkpt>
      <trkpt lat="48.85772" lon="2.26692">
        <ele>100.31</ele>
        <time>2020-03-15T14:52:17.999Z</time>
      </trkpt>
      <trkpt lat="48.85772" lon="2.26693">
        <ele>100.3</ele>
        <time>2020-03-15T14:52:18.999Z</time>
      </trkpt>
      <trkpt lat="48.85773" lon="2.26695">
        <ele>100.29</ele>
        <time>2020-03-15T14:52:20.999Z</time>
      </trkpt>
      <trkpt lat="48.85773" lon="2.26697">
        <ele>100.28</ele>
        <time>2020-03-15T14:52:21.999Z</time>
      </trkpt>
      <trkpt lat="48.85774" lon="2.26696">
        <ele>100.26</ele>
        <time>2020-03-15T14:52:24.999Z</time>
      </trkpt>
      <trkpt lat="48.85775" lon="2.26694">
        <ele>100.23</ele>
        <time>2020-03-15T14:52:26.999Z</time>
      </trkpt>
      <trkpt lat="48.85774" lon="2.26694">
        <ele>100.21</ele>
        <time>2020-03-15T14:52:27.999Z</time>
      </trkpt>
      <trkpt lat="48.85773" lon="2.26693">
        <ele>100.19</ele>
        <time>2020-03-15T14:52:28.999Z</time>
      </trkpt>
      <trkpt lat="48.85773" lon="2.26691">
        <ele>100.17</ele>
        <time>2020-03-15T14:52:30.999Z</time>
      </trkpt>
      <trkpt lat="48.85772" lon="2.26691">
        <ele>100.17</ele>
        <time>2020-03-15T14:52:32.999Z</time>
      </trkpt>
      <trkpt lat="48.85771" lon="2.26693">
        <ele>100.16</ele>
        <time>2020-03-15T14:52:38.999Z</time>
      </trkpt>
      <trkpt lat="48.85771" lon="2.26694">
        <ele>100.16</ele>
        <time>2020-03-15T14:52:40.999Z</time>
      </trkpt>
      <trkpt lat="48.85771" lon="2.26697">
        <ele>100.16</ele>
        <time>2020-03-15T14:52:42.999Z</time>
      </trkpt>
      <trkpt lat="48.85771" lon="2.26701">
        <ele>100.15</ele>
        <time>2020-03-15T14:52:45.999Z</time>
      </trkpt>
      <trkpt lat="48.85771" lon="2.26703">
        <ele>100.15</ele>
        <time>2020-03-15T14:52:46.999Z</time>
      </trkpt>
      <trkpt lat="48.85772" lon="2.26704">
        <ele>100.15</ele>
        <time>2020-03-15T14:52:48.999Z</time>
      </trkpt>
      <trkpt lat="48.85773" lon="2.26704">
        <ele>100.13</ele>
        <time>2020-03-15T14:52:58.999Z</time>
      </trkpt>
      <trkpt lat="48.85772" lon="2.26706">
        <ele>100.02</ele>
        <time>2020-03-15T14:53:09.999Z</time>
      </trkpt>
      <trkpt lat="48.85772" lon="2.26707">
        <ele>99.99</ele>
        <time>2020-03-15T14:53:12.999Z</time>
      </trkpt>
      <trkpt lat="48.85772" lon="2.26709">
        <ele>99.97</ele>
        <time>2020-03-15T14:53:14.999Z</time>
      </trkpt>
      <trkpt lat="48.85771" lon="2.2671">
        <ele>99.93</ele>
        <time>2020-03-15T14:53:18.999Z</time>
      </trkpt>
      <trkpt lat="48.85772" lon="2.26709">
        <ele>99.79</ele>
        <time>2020-03-15T14:53:23.999Z</time>
      </trkpt>
      <trkpt lat="48.85771" lon="2.26706">
        <ele>99.58</ele>
        <time>2020-03-15T14:53:26.999Z</time>
      </trkpt>
      <trkpt lat="48.85771" lon="2.26704">
        <ele>99.48</ele>
        <time>2020-03-15T14:53:27.999Z</time>
      </trkpt>
      <trkpt lat="48.8577" lon="2.26702">
        <ele>99.38</ele>
        <time>2020-03-15T14:53:28.999Z</time>
      </trkpt>
      <trkpt lat="48.8577" lon="2.26707">
        <ele>98.94</ele>
        <time>2020-03-15T14:53:44.999Z</time>
      </trkpt>
      <trkpt lat="48.85769" lon="2.26708">
        <ele>98.84</ele>
        <time>2020-03-15T14:53:45.999Z</time>
      </trkpt>
      <trkpt lat="48.85768" lon="2.26707">
        <ele>98.83</ele>
        <time>2020-03-15T14:53:46.999Z</time>
      </trkpt>
      <trkpt lat="48.85767" lon="2.26705">
        <ele>98.72</ele>
        <time>2020-03-15T14:53:57.999Z</time>
      </trkpt>
      <trkpt lat="48.85765" lon="2.26702">
        <ele>98.6</ele>
        <time>2020-03-15T14:54:01.999Z</time>
      </trkpt>
      <trkpt lat="48.85764" lon="2.26699">
        <ele>98.52</ele>
        <time>2020-03-15T14:54:02.999Z</time>
      </trkpt>
      <trkpt lat="48.85762" lon="2.26696">
        <ele>98.43</ele>
        <time>2020-03-15T14:54:03.999Z</time>
      </trkpt>
      <trkpt lat="48.85762" lon="2.26695">
        <ele>98.26</ele>
        <time>2020-03-15T14:54:05.999Z</time>
      </trkpt>
      <trkpt lat="48.8576" lon="2.26694">
        <ele>98.1</ele>
        <time>2020-03-15T14:54:07.999Z</time>
      </trkpt>
      <trkpt lat="48.8576" lon="2.26693">
        <ele>97.95</ele>
        <time>2020-03-15T14:54:09.999Z</time>
      </trkpt>
      <trkpt lat="48.85758" lon="2.26692">
        <ele>97.8</ele>
        <time>2020-03-15T14:54:11.999Z</time>
      </trkpt>
      <trkpt lat="48.85757" lon="2.26698">
        <ele>97.69</ele>
        <time>2020-03-15T14:54:16.999Z</time>
      </trkpt>
      <trkpt lat="48.85753" lon="2.26702">
        <ele>97.62</ele>
        <time>2020-03-15T14:54:17.999Z</time>
      </trkpt>
      <trkpt lat="48.85752" lon="2.26701">
        <ele>97.48</ele>
        <time>2020-03-15T14:54:19.999Z</time>
      </trkpt>
      <trkpt lat="48.85753" lon="2.26701">
        <ele>97.38</ele>
        <time>2020-03-15T14:54:24.999Z</time>
      </trkpt>
      <trkpt lat="48.85752" lon="2.26699">
        <ele>97.37</ele>
        <time>2020-03-15T14:54:25.999Z</time>
      </trkpt>
      <trkpt lat="48.85753" lon="2.26699">
        <ele>97.35</ele>
        <time>2020-03-15T14:54:28.999Z</time>
      </trkpt>
      <trkpt lat="48.85755" lon="2.26695">
        <ele>97.28</ele>
        <time>2020-03-15T14:54:30.999Z</time>
      </trkpt>
      <trkpt lat="48.85755" lon="2.26689">
        <ele>97.21</ele>
        <time>2020-03-15T14:54:31.999Z</time>
      </trkpt>
      <trkpt lat="48.85758" lon="2.26693">
        <ele>97.09</ele>
        <time>2020-03-15T14:54:39.999Z</time>
      </trkpt>
      <trkpt lat="48.85757" lon="2.26695">
        <ele>97.09</ele>
        <time>2020-03-15T14:54:40.999Z</time>
      </trkpt>
      <trkpt lat="48.85756" lon="2.26694">
        <ele>96.95</ele>
        <time>2020-03-15T14:54:42.999Z</time>
      </trkpt>
      <trkpt lat="48.85755" lon="2.26698">
        <ele>96.89</ele>
        <time>2020-03-15T14:54:43.999Z</time>
      </trkpt>
      <trkpt lat="48.85759" lon="2.26696">
        <ele>96.85</ele>
        <time>2020-03-15T14:54:49.999Z</time>
      </trkpt>
      <trkpt lat="48.8576" lon="2.26693">
        <ele>96.79</ele>
        <time>2020-03-15T14:54:50.999Z</time>
      </trkpt>
      <trkpt lat="48.85762" lon="2.26694">
        <ele>96.78</ele>
        <time>2020-03-15T14:54:51.999Z</time>
      </trkpt>
      <trkpt lat="48.85761" lon="2.26696">
        <ele>96.74</ele>
        <time>2020-03-15T14:54:57.999Z</time>
      </trkpt>
      <trkpt lat="48.85762" lon="2.26697">
        <ele>96.67</ele>
        <time>2020-03-15T14:54:58.999Z</time>
      </trkpt>
      <trkpt lat="48.85759" lon="2.26692">
        <ele>96.57</ele>
        <time>2020-03-15T14:55:05.999Z</time>
      </trkpt>
      <trkpt lat="48.85756" lon="2.26689">
        <ele>96.5</ele>
        <time>2020-03-15T14:55:06.999Z</time>
      </trkpt>
      <trkpt lat="48.85753" lon="2.26687">
        <ele>96.43</ele>
        <time>2020-03-15T14:55:07.999Z</time>
      </trkpt>
      <trkpt lat="48.85752" lon="2.26686">
        <ele>96.41</ele>
        <time>2020-03-15T14:55:10.999Z</time>
      </trkpt>
      <trkpt lat="48.85751" lon="2.26685">
        <ele>96.32</ele>
        <time>2020-03-15T14:55:15.999Z</time>
      </trkpt>
      <trkpt lat="48.85752" lon="2.26687">
        <ele>96.19</ele>
        <time>2020-03-15T14:55:17.999Z</time>
      </trkpt>
      <trkpt lat="48.85756" lon="2.2669">
        <ele>96.17</ele>
        <time>2020-03-15T14:55:20.999Z</time>
      </trkpt>
      <trkpt lat="48.85759" lon="2.26693">
        <ele>96.17</ele>
        <time>2020-03-15T14:55:21.999Z</time>
      </trkpt>
      <trkpt lat="48.85762" lon="2.26697">
        <ele>96.03</ele>
        <time>2020-03-15T14:55:26.999Z</time>
      </trkpt>
      <trkpt lat="48.85762" lon="2.26696">
        <ele>95.97</ele>
        <time>2020-03-15T14:55:27.999Z</time>
      </trkpt>
      <trkpt lat="48.85762" lon="2.26695">
        <ele>95.91</ele>
        <time>2020-03-15T14:55:28.999Z</time>
      </trkpt>
      <trkpt lat="48.85761" lon="2.26693">
        <ele>95.75</ele>
        <time>2020-03-15T14:55:39.999Z</time>
      </trkpt>
      <trkpt lat="48.8576" lon="2.26693">
        <ele>95.72</ele>
        <time>2020-03-15T14:55:45.999Z</time>
      </trkpt>
      <trkpt lat="48.85757" lon="2.26693">
        <ele>95.71</ele>
        <time>2020-03-15T14:55:47.999Z</time>
      </trkpt>
      <trkpt lat="48.85758" lon="2.26694">
        <ele>95.7</ele>
        <time>2020-03-15T14:55:48.999Z</time>
      </trkpt>
      <trkpt lat="48.8576" lon="2.26695">
        <ele>95.68</ele>
        <time>2020-03-15T14:55:51.999Z</time>
      </trkpt>
      <trkpt lat="48.85761" lon="2.26695">
        <ele>95.67</ele>
        <time>2020-03-15T14:55:52.999Z</time>
      </trkpt>
      <trkpt lat="48.85764" lon="2.26695">
        <ele>95.67</ele>
        <time>2020-03-15T14:55:53.999Z</time>
      </trkpt>
      <trkpt lat="48.85764" lon="2.26693">
        <ele>95.57</ele>
        <time>2020-03-15T14:55:59.999Z</time>
      </trkpt>
      <trkpt lat="48.85766" lon="2.26693">
        <ele>95.57</ele>
        <time>2020-03-15T14:56:00.999Z</time>
      </trkpt>
      <trkpt lat="48.85764" lon="2.26693">
        <ele>95.51</ele>
        <time>2020-03-15T14:56:11.999Z</time>
      </trkpt>
      <trkpt lat="48.85759" lon="2.26694">
        <ele>95.45</ele>
        <time>2020-03-15T14:56:13.999Z</time>
      </trkpt>
      <trkpt lat="48.85757" lon="2.26694">
        <ele>95.41</ele>
        <time>2020-03-15T14:56:14.999Z</time>
      </trkpt>
      <trkpt lat="48.85756" lon="2.26693">
        <ele>95.36</ele>
        <time>2020-03-15T14:56:15.999Z</time>
      </trkpt>
      <trkpt lat="48.85753" lon="2.26693">
        <ele>95.31</ele>
        <time>2020-03-15T14:56:16.999Z</time>
      </trkpt>
      <trkpt lat="48.8575" lon="2.26692">
        <ele>95.27</ele>
        <time>2020-03-15T14:56:17.999Z</time>
      </trkpt>
      <trkpt lat="48.85749" lon="2.26693">
        <ele>95.21</ele>
        <time>2020-03-15T14:56:22.999Z</time>
      </trkpt>
      <trkpt lat="48.85753" lon="2.26697">
        <ele>95.16</ele>
        <time>2020-03-15T14:56:25.999Z</time>
      </trkpt>
      <trkpt lat="48.85751" lon="2.26697">
        <ele>95.11</ele>
        <time>2020-03-15T14:56:30.999Z</time>
      </trkpt>
      <trkpt lat="48.85751" lon="2.26696">
        <ele>95.1</ele>
        <time>2020-03-15T14:56:31.999Z</time>
      </trkpt>
      <trkpt lat="48.85749" lon="2.26694">
        <ele>95.02</ele>
        <time>2020-03-15T14:56:39.999Z</time>
      </trkpt>
      <trkpt lat="48.85748" lon="2.26694">
        <ele>95.02</ele>
        <time>2020-03-15T14:56:40.999Z</time>
      </trkpt>
      <trkpt lat="48.85748" lon="2.26696">
        <ele>94.93</ele>
        <time>2020-03-15T14:56:44.999Z</time>
      </trkpt>
      <trkpt lat="48.85749" lon="2.26698">
        <ele>94.85</ele>
        <time>2020-03-15T14:56:48.999Z</time>
      </trkpt>
      <trkpt lat="48.85749" lon="2.267">
        <ele>94.84</ele>
        <time>2020-03-15T14:56:49.999Z</time>
      </trkpt>
      <trkpt lat="48.85751" lon="2.26701">
        <ele>94.84</ele>
        <time>2020-03-15T14:56:50.999Z</time>
      </trkpt>
      <trkpt lat="48.85754" lon="2.26695">
        <ele>94.76</ele>
        <time>2020-03-15T14:56:54.999Z</time>
      </trkpt>
      <trkpt lat="48.85756" lon="2.26698">
        <ele>94.69</ele>
        <time>2020-03-15T14:56:55.999Z</time>
      </trkpt>
      <trkpt lat="48.85759" lon="2.26705">
        <ele>94.63</ele>
        <time>2020-03-15T14:56:56.999Z</time>
      </trkpt>
      <trkpt lat="48.85762" lon="2.26712">
        <ele>94.57</ele>
        <time>2020-03-15T14:56:57.999Z</time>
      </trkpt>
      <trkpt lat="48.85764" lon="2.26716">
        <ele>94.5</ele>
        <time>2020-03-15T14:56:58.999Z</time>
      </trkpt>
      <trkpt lat="48.85765" lon="2.26714">
        <ele>94.44</ele>
        <time>2020-03-15T14:56:59.999Z</time>
      </trkpt>
      <trkpt lat="48.85766" lon="2.26716">
        <ele>94.37</ele>
        <time>2020-03-15T14:57:01.999Z</time>
      </trkpt>
      <trkpt lat="48.85767" lon="2.26717">
        <ele>94.29</ele>
        <time>2020-03-15T14:57:06.999Z</time>
      </trkpt>
      <trkpt lat="48.85769" lon="2.2672">
        <ele>94.28</ele>
        <time>2020-03-15T14:57:07.999Z</time>
      </trkpt>
      <trkpt lat="48.8577" lon="2.2672">
        <ele>94.11</ele>
        <time>2020-03-15T14:57:10.999Z</time>
      </trkpt>
      <trkpt lat="48.85769" lon="2.26718">
        <ele>93.97</ele>
        <time>2020-03-15T14:57:18.999Z</time>
      </trkpt>
      <trkpt lat="48.85769" lon="2.26717">
        <ele>93.87</ele>
        <time>2020-03-15T14:57:20.999Z</time>
      </trkpt>
      <trkpt lat="48.85767" lon="2.26722">
        <ele>93.81</ele>
        <time>2020-03-15T14:57:24.999Z</time>
      </trkpt>
      <trkpt lat="48.85767" lon="2.26718">
        <ele>93.77</ele>
        <time>2020-03-15T14:57:25.999Z</time>
      </trkpt>
      <trkpt lat="48.85768" lon="2.2672">
        <ele>93.67</ele>
        <time>2020-03-15T14:57:29.999Z</time>
      </trkpt>
      <trkpt lat="48.8577" lon="2.2672">
        <ele>93.63</ele>
        <time>2020-03-15T14:57:30.999Z</time>
      </trkpt>
      <trkpt lat="48.85773" lon="2.2672">
        <ele>93.59</ele>
        <time>2020-03-15T14:57:31.999Z</time>
      </trkpt>
      <trkpt lat="48.85772" lon="2.26719">
        <ele>93.58</ele>
        <time>2020-03-15T14:57:32.999Z</time>
      </trkpt>
      <trkpt lat="48.85772" lon="2.2671">
        <ele>93.57</ele>
        <time>2020-03-15T14:57:35.999Z</time>
      </trkpt>
      <trkpt lat="48.85774" lon="2.26711">
        <ele>93.53</ele>
        <time>2020-03-15T14:57:36.999Z</time>
      </trkpt>
      <trkpt lat="48.85772" lon="2.26711">
        <ele>93.53</ele>
        <time>2020-03-15T14:57:37.999Z</time>
      </trkpt>
      <trkpt lat="48.85771" lon="2.26712">
        <ele>93.36</ele>
        <time>2020-03-15T14:57:50.999Z</time>
      </trkpt>
      <trkpt lat="48.85773" lon="2.26714">
        <ele>93.11</ele>
        <time>2020-03-15T14:57:59.999Z</time>
      </trkpt>
      <trkpt lat="48.85773" lon="2.26712">
        <ele>93.11</ele>
        <time>2020-03-15T14:58:00.999Z</time>
      </trkpt>
      <trkpt lat="48.85774" lon="2.26709">
        <ele>93.07</ele>
        <time>2020-03-15T14:58:01.999Z</time>
      </trkpt>
      <trkpt lat="48.85779" lon="2.26702">
        <ele>93.07</ele>
        <time>2020-03-15T14:58:02.999Z</time>
      </trkpt>
      <trkpt lat="48.85779" lon="2.26704">
        <ele>93.06</ele>
        <time>2020-03-15T14:58:04.999Z</time>
      </trkpt>
      <trkpt lat="48.85781" lon="2.26704">
        <ele>93.05</ele>
        <time>2020-03-15T14:58:05.999Z</time>
      </trkpt>
      <trkpt lat="48.85783" lon="2.26711">
        <ele>93.02</ele>
        <time>2020-03-15T14:58:06.999Z</time>
      </trkpt>
      <trkpt lat="48.85784" lon="2.26714">
        <ele>92.98</ele>
        <time>2020-03-15T14:58:07.999Z</time>
      </trkpt>
      <trkpt lat="48.85785" lon="2.26712">
        <ele>92.95</ele>
        <time>2020-03-15T14:58:08.999Z</time>
      </trkpt>
      <trkpt lat="48.85783" lon="2.26714">
        <ele>92.89</ele>
        <time>2020-03-15T14:58:14.999Z</time>
      </trkpt>
      <trkpt lat="48.85782" lon="2.26715">
        <ele>92.85</ele>
        <time>2020-03-15T14:58:15.999Z</time>
      </trkpt>
      <trkpt lat="48.85781" lon="2.26718">
        <ele>92.81</ele>
        <time>2020-03-15T14:58:19.999Z</time>
      </trkpt>
      <trkpt lat="48.85781" lon="2.26725">
        <ele>92.77</ele>
        <time>2020-03-15T14:58:20.999Z</time>
      </trkpt>
      <trkpt lat="48.85788" lon="2.26717">
        <ele>92.74</ele>
        <time>2020-03-15T14:58:21.999Z</time>
      </trkpt>
      <trkpt lat="48.85792" lon="2.26719">
        <ele>92.73</ele>
        <time>2020-03-15T14:58:23.999Z</time>
      </trkpt>
      <trkpt lat="48.85792" lon="2.26721">
        <ele>92.7</ele>
        <time>2020-03-15T14:58:24.999Z</time>
      </trkpt>
      <trkpt lat="48.85792" lon="2.26724">
        <ele>92.67</ele>
        <time>2020-03-15T14:58:25.999Z</time>
      </trkpt>
      <trkpt lat="48.85791" lon="2.2672">
        <ele>92.64</ele>
        <time>2020-03-15T14:58:26.999Z</time>
      </trkpt>
      <trkpt lat="48.85793" lon="2.26719">
        <ele>92.61</ele>
        <time>2020-03-15T14:58:27.999Z</time>
      </trkpt>
      <trkpt lat="48.85792" lon="2.26718">
        <ele>92.58</ele>
        <time>2020-03-15T14:58:28.999Z</time>
      </trkpt>
      <trkpt lat="48.85791" lon="2.26721">
        <ele>92.55</ele>
        <time>2020-03-15T14:58:29.999Z</time>
      </trkpt>
      <trkpt lat="48.85788" lon="2.26723">
        <ele>92.53</ele>
        <time>2020-03-15T14:58:30.999Z</time>
      </trkpt>
      <trkpt lat="48.85789" lon="2.26727">
        <ele>92.47</ele>
        <time>2020-03-15T14:58:32.999Z</time>
      </trkpt>
      <trkpt lat="48.85788" lon="2.26725">
        <ele>92.42</ele>
        <time>2020-03-15T14:58:34.999Z</time>
      </trkpt>
      <trkpt lat="48.85787" lon="2.26726">
        <ele>92.4</ele>
        <time>2020-03-15T14:58:35.999Z</time>
      </trkpt>
      <trkpt lat="48.85786" lon="2.26727">
        <ele>92.37</ele>
        <time>2020-03-15T14:58:36.999Z</time>
      </trkpt>
      <trkpt lat="48.85785" lon="2.26728">
        <ele>92.35</ele>
        <time>2020-03-15T14:58:37.999Z</time>
      </trkpt>
      <trkpt lat="48.85786" lon="2.26726">
        <ele>92.28</ele>
        <time>2020-03-15T14:58:43.999Z</time>
      </trkpt>
      <trkpt lat="48.85787" lon="2.26726">
        <ele>92.24</ele>
        <time>2020-03-15T14:58:45.999Z</time>
      </trkpt>
      <trkpt lat="48.85786" lon="2.26727">
        <ele>92.22</ele>
        <time>2020-03-15T14:58:47.999Z</time>
      </trkpt>
      <trkpt lat="48.85785" lon="2.26731">
        <ele>92.22</ele>
        <time>2020-03-15T14:58:48.999Z</time>
      </trkpt>
      <trkpt lat="48.85785" lon="2.26729">
        <ele>92.22</ele>
        <time>2020-03-15T14:58:49.999Z</time>
      </trkpt>
      <trkpt lat="48.85786" lon="2.26728">
        <ele>92.17</ele>
        <time>2020-03-15T14:58:54.999Z</time>
      </trkpt>
      <trkpt lat="48.85785" lon="2.2673">
        <ele>92.17</ele>
        <time>2020-03-15T14:58:59.999Z</time>
      </trkpt>
      <trkpt lat="48.85786" lon="2.26728">
        <ele>92.16</ele>
        <time>2020-03-15T14:59:15.999Z</time>
      </trkpt>
      <trkpt lat="48.85786" lon="2.26727">
        <ele>92.16</ele>
        <time>2020-03-15T14:59:18.999Z</time>
      </trkpt>
      <trkpt lat="48.85787" lon="2.26726">
        <ele>92.15</ele>
        <time>2020-03-15T14:59:24.999Z</time>
      </trkpt>
      <trkpt lat="48.85788" lon="2.26724">
        <ele>92.17</ele>
        <time>2020-03-15T14:59:40.999Z</time>
      </trkpt>
      <trkpt lat="48.85788" lon="2.26723">
        <ele>92.21</ele>
        <time>2020-03-15T14:59:55.999Z</time>
      </trkpt>
      <trkpt lat="48.85787" lon="2.26722">
        <ele>92.36</ele>
        <time>2020-03-15T15:00:34.999Z</time>
      </trkpt>
      <trkpt lat="48.85786" lon="2.26722">
        <ele>92.44</ele>
        <time>2020-03-15T15:00:49.999Z</time>
      </trkpt>
      <trkpt lat="48.85785" lon="2.26723">
        <ele>92.52</ele>
        <time>2020-03-15T15:01:02.999Z</time>
      </trkpt>
      <trkpt lat="48.85785" lon="2.26724">
        <ele>92.7</ele>
        <time>2020-03-15T15:01:30.999Z</time>
      </trkpt>
      <trkpt lat="48.85785" lon="2.26721">
        <ele>92.86</ele>
        <time>2020-03-15T15:01:47.999Z</time>
      </trkpt>
      <trkpt lat="48.85786" lon="2.2672">
        <ele>92.96</ele>
        <time>2020-03-15T15:01:54.999Z</time>
      </trkpt>
      <trkpt lat="48.85784" lon="2.26719">
        <ele>93.27</ele>
        <time>2020-03-15T15:02:01.999Z</time>
      </trkpt>
      <trkpt lat="48.85784" lon="2.26718">
        <ele>93.36</ele>
        <time>2020-03-15T15:02:07.999Z</time>
      </trkpt>
      <trkpt lat="48.85784" lon="2.26716">
        <ele>93.38</ele>
        <time>2020-03-15T15:02:11.999Z</time>
      </trkpt>
      <trkpt lat="48.85784" lon="2.26714">
        <ele>93.4</ele>
        <time>2020-03-15T15:02:15.999Z</time>
      </trkpt>
      <trkpt lat="48.85784" lon="2.26712">
        <ele>93.43</ele>
        <time>2020-03-15T15:02:20.999Z</time>
      </trkpt>
      <trkpt lat="48.85784" lon="2.2671">
        <ele>93.5</ele>
        <time>2020-03-15T15:02:24.999Z</time>
      </trkpt>
      <trkpt lat="48.85784" lon="2.26708">
        <ele>93.56</ele>
        <time>2020-03-15T15:02:26.999Z</time>
      </trkpt>
      <trkpt lat="48.85784" lon="2.26706">
        <ele>93.68</ele>
        <time>2020-03-15T15:02:29.999Z</time>
      </trkpt>
      <trkpt lat="48.85786" lon="2.26707">
        <ele>93.79</ele>
        <time>2020-03-15T15:02:32.999Z</time>
      </trkpt>
      <trkpt lat="48.85788" lon="2.26706">
        <ele>93.85</ele>
        <time>2020-03-15T15:02:35.999Z</time>
      </trkpt>
      <trkpt lat="48.85791" lon="2.26708">
        <ele>93.85</ele>
        <time>2020-03-15T15:02:36.999Z</time>
      </trkpt>
      <trkpt lat="48.85794" lon="2.26711">
        <ele>93.91</ele>
        <time>2020-03-15T15:02:37.999Z</time>
      </trkpt>
      <trkpt lat="48.85795" lon="2.26712">
        <ele>94.08</ele>
        <time>2020-03-15T15:02:46.999Z</time>
      </trkpt>
      <trkpt lat="48.85794" lon="2.26711">
        <ele>94.25</ele>
        <time>2020-03-15T15:03:05.999Z</time>
      </trkpt>
      <trkpt lat="48.85793" lon="2.26709">
        <ele>94.31</ele>
        <time>2020-03-15T15:03:07.999Z</time>
      </trkpt>
      <trkpt lat="48.85793" lon="2.26707">
        <ele>94.37</ele>
        <time>2020-03-15T15:03:17.999Z</time>
      </trkpt>
      <trkpt lat="48.85792" lon="2.26706">
        <ele>94.43</ele>
        <time>2020-03-15T15:03:20.999Z</time>
      </trkpt>
      <trkpt lat="48.85791" lon="2.26705">
        <ele>94.5</ele>
        <time>2020-03-15T15:03:25.999Z</time>
      </trkpt>
      <trkpt lat="48.8579" lon="2.26703">
        <ele>94.53</ele>
        <time>2020-03-15T15:03:27.999Z</time>
      </trkpt>
      <trkpt lat="48.85788" lon="2.26704">
        <ele>94.58</ele>
        <time>2020-03-15T15:03:47.999Z</time>
      </trkpt>
      <trkpt lat="48.85785" lon="2.26703">
        <ele>94.58</ele>
        <time>2020-03-15T15:03:48.999Z</time>
      </trkpt>
      <trkpt lat="48.85784" lon="2.26703">
        <ele>94.58</ele>
        <time>2020-03-15T15:03:50.999Z</time>
      </trkpt>
      <trkpt lat="48.85782" lon="2.26709">
        <ele>94.59</ele>
        <time>2020-03-15T15:03:55.999Z</time>
      </trkpt>
      <trkpt lat="48.85784" lon="2.26708">
        <ele>94.63</ele>
        <time>2020-03-15T15:03:57.999Z</time>
      </trkpt>
      <trkpt lat="48.85785" lon="2.26707">
        <ele>94.65</ele>
        <time>2020-03-15T15:04:00.999Z</time>
      </trkpt>
      <trkpt lat="48.85786" lon="2.26711">
        <ele>94.67</ele>
        <time>2020-03-15T15:04:01.999Z</time>
      </trkpt>
      <trkpt lat="48.85786" lon="2.26713">
        <ele>94.69</ele>
        <time>2020-03-15T15:04:05.999Z</time>
      </trkpt>
      <trkpt lat="48.85785" lon="2.26714">
        <ele>94.75</ele>
        <time>2020-03-15T15:04:14.999Z</time>
      </trkpt>
      <trkpt lat="48.85784" lon="2.26715">
        <ele>94.76</ele>
        <time>2020-03-15T15:04:19.999Z</time>
      </trkpt>
      <trkpt lat="48.85784" lon="2.26716">
        <ele>94.77</ele>
        <time>2020-03-15T15:04:27.999Z</time>
      </trkpt>
      <trkpt lat="48.85785" lon="2.26717">
        <ele>94.79</ele>
        <time>2020-03-15T15:04:28.999Z</time>
      </trkpt>
      <trkpt lat="48.85784" lon="2.26717">
        <ele>94.84</ele>
        <time>2020-03-15T15:04:30.999Z</time>
      </trkpt>
      <trkpt lat="48.85785" lon="2.26719">
        <ele>94.86</ele>
        <time>2020-03-15T15:04:32.999Z</time>
      </trkpt>
      <trkpt lat="48.85785" lon="2.2672">
        <ele>94.92</ele>
        <time>2020-03-15T15:04:51.999Z</time>
      </trkpt>
      <trkpt lat="48.85784" lon="2.2672">
        <ele>95</ele>
        <time>2020-03-15T15:04:57.999Z</time>
      </trkpt>
      <trkpt lat="48.85782" lon="2.26719">
        <ele>95.07</ele>
        <time>2020-03-15T15:04:59.999Z</time>
      </trkpt>
      <trkpt lat="48.8578" lon="2.26718">
        <ele>95.13</ele>
        <time>2020-03-15T15:05:01.999Z</time>
      </trkpt>
      <trkpt lat="48.85779" lon="2.26717">
        <ele>95.16</ele>
        <time>2020-03-15T15:05:02.999Z</time>
      </trkpt>
      <trkpt lat="48.85778" lon="2.26716">
        <ele>95.19</ele>
        <time>2020-03-15T15:05:03.999Z</time>
      </trkpt>
      <trkpt lat="48.85778" lon="2.26715">
        <ele>95.19</ele>
        <time>2020-03-15T15:05:04.999Z</time>
      </trkpt>
      <trkpt lat="48.85776" lon="2.26713">
        <ele>95.24</ele>
        <time>2020-03-15T15:05:06.999Z</time>
      </trkpt>
      <trkpt lat="48.85775" lon="2.26712">
        <ele>95.28</ele>
        <time>2020-03-15T15:05:20.999Z</time>
      </trkpt>
      <trkpt lat="48.85775" lon="2.26713">
        <ele>95.35</ele>
        <time>2020-03-15T15:05:40.999Z</time>
      </trkpt>
      <trkpt lat="48.85774" lon="2.26713">
        <ele>95.39</ele>
        <time>2020-03-15T15:06:00.999Z</time>
      </trkpt>
      <trkpt lat="48.85773" lon="2.26713">
        <ele>95.42</ele>
        <time>2020-03-15T15:06:17.999Z</time>
      </trkpt>
      <trkpt lat="48.85772" lon="2.26712">
        <ele>95.44</ele>
        <time>2020-03-15T15:06:21.999Z</time>
      </trkpt>
      <trkpt lat="48.85771" lon="2.26711">
        <ele>95.45</ele>
        <time>2020-03-15T15:06:26.999Z</time>
      </trkpt>
      <trkpt lat="48.8577" lon="2.2671">
        <ele>95.47</ele>
        <time>2020-03-15T15:06:34.999Z</time>
      </trkpt>
      <trkpt lat="48.85769" lon="2.26709">
        <ele>95.49</ele>
        <time>2020-03-15T15:06:40.999Z</time>
      </trkpt>
      <trkpt lat="48.85769" lon="2.2671">
        <ele>95.56</ele>
        <time>2020-03-15T15:07:05.999Z</time>
      </trkpt>
      <trkpt lat="48.85768" lon="2.26711">
        <ele>95.61</ele>
        <time>2020-03-15T15:07:23.999Z</time>
      </trkpt>
      <trkpt lat="48.85767" lon="2.26711">
        <ele>95.66</ele>
        <time>2020-03-15T15:07:40.999Z</time>
      </trkpt>
      <trkpt lat="48.85764" lon="2.26712">
        <ele>95.69</ele>
        <time>2020-03-15T15:07:42.999Z</time>
      </trkpt>
      <trkpt lat="48.85762" lon="2.26713">
        <ele>95.71</ele>
        <time>2020-03-15T15:07:43.999Z</time>
      </trkpt>
      <trkpt lat="48.85762" lon="2.26714">
        <ele>95.82</ele>
        <time>2020-03-15T15:07:51.999Z</time>
      </trkpt>
      <trkpt lat="48.85763" lon="2.26714">
        <ele>95.87</ele>
        <time>2020-03-15T15:07:54.999Z</time>
      </trkpt>
      <trkpt lat="48.85765" lon="2.26711">
        <ele>95.9</ele>
        <time>2020-03-15T15:07:57.999Z</time>
      </trkpt>
      <trkpt lat="48.85766" lon="2.2671">
        <ele>95.9</ele>
        <time>2020-03-15T15:07:59.999Z</time>
      </trkpt>
      <trkpt lat="48.85767" lon="2.26709">
        <ele>95.95</ele>
        <time>2020-03-15T15:08:38.999Z</time>
      </trkpt>
      <trkpt lat="48.85767" lon="2.26708">
        <ele>95.97</ele>
        <time>2020-03-15T15:08:48.999Z</time>
      </trkpt>
      <trkpt lat="48.85768" lon="2.26707">
        <ele>96</ele>
        <time>2020-03-15T15:08:53.999Z</time>
      </trkpt>
      <trkpt lat="48.85769" lon="2.26708">
        <ele>96.02</ele>
        <time>2020-03-15T15:08:55.999Z</time>
      </trkpt>
      <trkpt lat="48.85769" lon="2.26709">
        <ele>96.08</ele>
        <time>2020-03-15T15:09:04.999Z</time>
      </trkpt>
      <trkpt lat="48.85767" lon="2.26711">
        <ele>96.1</ele>
        <time>2020-03-15T15:09:08.999Z</time>
      </trkpt>
      <trkpt lat="48.85766" lon="2.26711">
        <ele>96.11</ele>
        <time>2020-03-15T15:09:09.999Z</time>
      </trkpt>
      <trkpt lat="48.85766" lon="2.26709">
        <ele>96.15</ele>
        <time>2020-03-15T15:09:15.999Z</time>
      </trkpt>
      <trkpt lat="48.85767" lon="2.26707">
        <ele>96.17</ele>
        <time>2020-03-15T15:09:20.999Z</time>
      </trkpt>
      <trkpt lat="48.85768" lon="2.26706">
        <ele>96.2</ele>
        <time>2020-03-15T15:09:27.999Z</time>
      </trkpt>
      <trkpt lat="48.85768" lon="2.26705">
        <ele>96.22</ele>
        <time>2020-03-15T15:09:33.999Z</time>
      </trkpt>
      <trkpt lat="48.85769" lon="2.26703">
        <ele>96.24</ele>
        <time>2020-03-15T15:09:38.999Z</time>
      </trkpt>
      <trkpt lat="48.85769" lon="2.26706">
        <ele>96.26</ele>
        <time>2020-03-15T15:09:42.999Z</time>
      </trkpt>
      <trkpt lat="48.85769" lon="2.26707">
        <ele>96.3</ele>
        <time>2020-03-15T15:09:46.999Z</time>
      </trkpt>
      <trkpt lat="48.8577" lon="2.26708">
        <ele>96.31</ele>
        <time>2020-03-15T15:09:47.999Z</time>
      </trkpt>
      <trkpt lat="48.8577" lon="2.2671">
        <ele>96.31</ele>
        <time>2020-03-15T15:09:50.999Z</time>
      </trkpt>
      <trkpt lat="48.85771" lon="2.2671">
        <ele>96.34</ele>
        <time>2020-03-15T15:10:01.999Z</time>
      </trkpt>
      <trkpt lat="48.85772" lon="2.2671">
        <ele>96.36</ele>
        <time>2020-03-15T15:10:03.999Z</time>
      </trkpt>
      <trkpt lat="48.85773" lon="2.26708">
        <ele>96.39</ele>
        <time>2020-03-15T15:10:19.999Z</time>
      </trkpt>
      <trkpt lat="48.85773" lon="2.26707">
        <ele>96.41</ele>
        <time>2020-03-15T15:10:26.999Z</time>
      </trkpt>
      <trkpt lat="48.85772" lon="2.26707">
        <ele>96.45</ele>
        <time>2020-03-15T15:10:32.999Z</time>
      </trkpt>
      <trkpt lat="48.85778" lon="2.26719">
        <ele>96.54</ele>
        <time>2020-03-15T15:11:35.999Z</time>
      </trkpt>
      <trkpt lat="48.85779" lon="2.26721">
        <ele>96.47</ele>
        <time>2020-03-15T15:11:37.999Z</time>
      </trkpt>
      <trkpt lat="48.8578" lon="2.26721">
        <ele>96.4</ele>
        <time>2020-03-15T15:11:38.999Z</time>
      </trkpt>
      <trkpt lat="48.85779" lon="2.2672">
        <ele>96.25</ele>
        <time>2020-03-15T15:12:01.999Z</time>
      </trkpt>
      <trkpt lat="48.85778" lon="2.2672">
        <ele>96.11</ele>
        <time>2020-03-15T15:12:05.999Z</time>
      </trkpt>
      <trkpt lat="48.85777" lon="2.26718">
        <ele>95.79</ele>
        <time>2020-03-15T15:12:12.999Z</time>
      </trkpt>
      <trkpt lat="48.85777" lon="2.26717">
        <ele>95.65</ele>
        <time>2020-03-15T15:12:19.999Z</time>
      </trkpt>
      <trkpt lat="48.85778" lon="2.26715">
        <ele>95.57</ele>
        <time>2020-03-15T15:12:25.999Z</time>
      </trkpt>
      <trkpt lat="48.85778" lon="2.26713">
        <ele>95.5</ele>
        <time>2020-03-15T15:12:28.999Z</time>
      </trkpt>
      <trkpt lat="48.85779" lon="2.2671">
        <ele>95.34</ele>
        <time>2020-03-15T15:12:31.999Z</time>
      </trkpt>
      <trkpt lat="48.85779" lon="2.26709">
        <ele>95.29</ele>
        <time>2020-03-15T15:12:32.999Z</time>
      </trkpt>
      <trkpt lat="48.85778" lon="2.26708">
        <ele>95.23</ele>
        <time>2020-03-15T15:12:34.999Z</time>
      </trkpt>
      <trkpt lat="48.85778" lon="2.26706">
        <ele>95.18</ele>
        <time>2020-03-15T15:12:35.999Z</time>
      </trkpt>
      <trkpt lat="48.85778" lon="2.26703">
        <ele>95.07</ele>
        <time>2020-03-15T15:12:38.999Z</time>
      </trkpt>
      <trkpt lat="48.85777" lon="2.26702">
        <ele>94.96</ele>
        <time>2020-03-15T15:12:40.999Z</time>
      </trkpt>
      <trkpt lat="48.85777" lon="2.26701">
        <ele>94.8</ele>
        <time>2020-03-15T15:12:43.999Z</time>
      </trkpt>
      <trkpt lat="48.85776" lon="2.26699">
        <ele>94.75</ele>
        <time>2020-03-15T15:12:44.999Z</time>
      </trkpt>
      <trkpt lat="48.85776" lon="2.26697">
        <ele>94.65</ele>
        <time>2020-03-15T15:12:46.999Z</time>
      </trkpt>
      <trkpt lat="48.85776" lon="2.26696">
        <ele>94.6</ele>
        <time>2020-03-15T15:12:47.999Z</time>
      </trkpt>
      <trkpt lat="48.85775" lon="2.26695">
        <ele>94.49</ele>
        <time>2020-03-15T15:12:49.999Z</time>
      </trkpt>
      <trkpt lat="48.85774" lon="2.26694">
        <ele>94.44</ele>
        <time>2020-03-15T15:12:50.999Z</time>
      </trkpt>
      <trkpt lat="48.85772" lon="2.26692">
        <ele>94.38</ele>
        <time>2020-03-15T15:12:51.999Z</time>
      </trkpt>
      <trkpt lat="48.85771" lon="2.26691">
        <ele>94.33</ele>
        <time>2020-03-15T15:12:52.999Z</time>
      </trkpt>
      <trkpt lat="48.85769" lon="2.26688">
        <ele>94.27</ele>
        <time>2020-03-15T15:12:53.999Z</time>
      </trkpt>
      <trkpt lat="48.85766" lon="2.26685">
        <ele>94.22</ele>
        <time>2020-03-15T15:12:54.999Z</time>
      </trkpt>
      <trkpt lat="48.85764" lon="2.26682">
        <ele>94.16</ele>
        <time>2020-03-15T15:12:55.999Z</time>
      </trkpt>
      <trkpt lat="48.85762" lon="2.2668">
        <ele>94.1</ele>
        <time>2020-03-15T15:12:56.999Z</time>
      </trkpt>
      <trkpt lat="48.8576" lon="2.26678">
        <ele>94.04</ele>
        <time>2020-03-15T15:12:57.999Z</time>
      </trkpt>
      <trkpt lat="48.85758" lon="2.26674">
        <ele>93.98</ele>
        <time>2020-03-15T15:12:58.999Z</time>
      </trkpt>
      <trkpt lat="48.85756" lon="2.26671">
        <ele>93.93</ele>
        <time>2020-03-15T15:12:59.999Z</time>
      </trkpt>
      <trkpt lat="48.85754" lon="2.26667">
        <ele>93.87</ele>
        <time>2020-03-15T15:13:00.999Z</time>
      </trkpt>
      <trkpt lat="48.85751" lon="2.26664">
        <ele>93.81</ele>
        <time>2020-03-15T15:13:01.999Z</time>
      </trkpt>
      <trkpt lat="48.85749" lon="2.2666">
        <ele>93.76</ele>
        <time>2020-03-15T15:13:02.999Z</time>
      </trkpt>
      <trkpt lat="48.85747" lon="2.26658">
        <ele>93.7</ele>
        <time>2020-03-15T15:13:03.999Z</time>
      </trkpt>
      <trkpt lat="48.85745" lon="2.26656">
        <ele>93.65</ele>
        <time>2020-03-15T15:13:04.999Z</time>
      </trkpt>
      <trkpt lat="48.85743" lon="2.26653">
        <ele>93.59</ele>
        <time>2020-03-15T15:13:05.999Z</time>
      </trkpt>
      <trkpt lat="48.8574" lon="2.2665">
        <ele>93.54</ele>
        <time>2020-03-15T15:13:06.999Z</time>
      </trkpt>
      <trkpt lat="48.85737" lon="2.26648">
        <ele>93.49</ele>
        <time>2020-03-15T15:13:07.999Z</time>
      </trkpt>
      <trkpt lat="48.85734" lon="2.26646">
        <ele>93.43</ele>
        <time>2020-03-15T15:13:08.999Z</time>
      </trkpt>
      <trkpt lat="48.85731" lon="2.26644">
        <ele>93.38</ele>
        <time>2020-03-15T15:13:09.999Z</time>
      </trkpt>
      <trkpt lat="48.85729" lon="2.26642">
        <ele>93.33</ele>
        <time>2020-03-15T15:13:10.999Z</time>
      </trkpt>
      <trkpt lat="48.85727" lon="2.26639">
        <ele>93.28</ele>
        <time>2020-03-15T15:13:11.999Z</time>
      </trkpt>
      <trkpt lat="48.85726" lon="2.26637">
        <ele>93.22</ele>
        <time>2020-03-15T15:13:12.999Z</time>
      </trkpt>
      <trkpt lat="48.85724" lon="2.26635">
        <ele>93.17</ele>
        <time>2020-03-15T15:13:13.999Z</time>
      </trkpt>
      <trkpt lat="48.85723" lon="2.26633">
        <ele>93.12</ele>
        <time>2020-03-15T15:13:14.999Z</time>
      </trkpt>
      <trkpt lat="48.85721" lon="2.26631">
        <ele>93.07</ele>
        <time>2020-03-15T15:13:15.999Z</time>
      </trkpt>
      <trkpt lat="48.8572" lon="2.2663">
        <ele>93.02</ele>
        <time>2020-03-15T15:13:16.999Z</time>
      </trkpt>
      <trkpt lat="48.85719" lon="2.2663">
        <ele>92.97</ele>
        <time>2020-03-15T15:13:17.999Z</time>
      </trkpt>
      <trkpt lat="48.85718" lon="2.26628">
        <ele>92.93</ele>
        <time>2020-03-15T15:13:18.999Z</time>
      </trkpt>
      <trkpt lat="48.85717" lon="2.26626">
        <ele>92.88</ele>
        <time>2020-03-15T15:13:19.999Z</time>
      </trkpt>
      <trkpt lat="48.85716" lon="2.26624">
        <ele>92.83</ele>
        <time>2020-03-15T15:13:20.999Z</time>
      </trkpt>
      <trkpt lat="48.85715" lon="2.26623">
        <ele>92.78</ele>
        <time>2020-03-15T15:13:21.999Z</time>
      </trkpt>
      <trkpt lat="48.85714" lon="2.26623">
        <ele>92.69</ele>
        <time>2020-03-15T15:13:23.999Z</time>
      </trkpt>
      <trkpt lat="48.85713" lon="2.26621">
        <ele>92.6</ele>
        <time>2020-03-15T15:13:25.999Z</time>
      </trkpt>
      <trkpt lat="48.85712" lon="2.2662">
        <ele>92.56</ele>
        <time>2020-03-15T15:13:26.999Z</time>
      </trkpt>
      <trkpt lat="48.85711" lon="2.2662">
        <ele>92.43</ele>
        <time>2020-03-15T15:13:29.999Z</time>
      </trkpt>
      <trkpt lat="48.8571" lon="2.2662">
        <ele>92.39</ele>
        <time>2020-03-15T15:13:30.999Z</time>
      </trkpt>
      <trkpt lat="48.85709" lon="2.2662">
        <ele>92.35</ele>
        <time>2020-03-15T15:13:31.999Z</time>
      </trkpt>
      <trkpt lat="48.85708" lon="2.26618">
        <ele>92.31</ele>
        <time>2020-03-15T15:13:32.999Z</time>
      </trkpt>
      <trkpt lat="48.85707" lon="2.26618">
        <ele>92.24</ele>
        <time>2020-03-15T15:13:34.999Z</time>
      </trkpt>
      <trkpt lat="48.85706" lon="2.26615">
        <ele>92.21</ele>
        <time>2020-03-15T15:13:35.999Z</time>
      </trkpt>
      <trkpt lat="48.85706" lon="2.26613">
        <ele>92.17</ele>
        <time>2020-03-15T15:13:36.999Z</time>
      </trkpt>
      <trkpt lat="48.85706" lon="2.2661">
        <ele>92.14</ele>
        <time>2020-03-15T15:13:37.999Z</time>
      </trkpt>
      <trkpt lat="48.85707" lon="2.26607">
        <ele>92.11</ele>
        <time>2020-03-15T15:13:38.999Z</time>
      </trkpt>
      <trkpt lat="48.85708" lon="2.26603">
        <ele>92.08</ele>
        <time>2020-03-15T15:13:39.999Z</time>
      </trkpt>
      <trkpt lat="48.85709" lon="2.26599">
        <ele>92.05</ele>
        <time>2020-03-15T15:13:40.999Z</time>
      </trkpt>
      <trkpt lat="48.85711" lon="2.26598">
        <ele>92.02</ele>
        <time>2020-03-15T15:13:41.999Z</time>
      </trkpt>
      <trkpt lat="48.85714" lon="2.26595">
        <ele>91.99</ele>
        <time>2020-03-15T15:13:42.999Z</time>
      </trkpt>
      <trkpt lat="48.85716" lon="2.26593">
        <ele>91.97</ele>
        <time>2020-03-15T15:13:43.999Z</time>
      </trkpt>
      <trkpt lat="48.85718" lon="2.26588">
        <ele>91.92</ele>
        <time>2020-03-15T15:13:44.999Z</time>
      </trkpt>
      <trkpt lat="48.85721" lon="2.26589">
        <ele>91.86</ele>
        <time>2020-03-15T15:13:45.999Z</time>
      </trkpt>
      <trkpt lat="48.85723" lon="2.26585">
        <ele>91.75</ele>
        <time>2020-03-15T15:13:46.999Z</time>
      </trkpt>
      <trkpt lat="48.85726" lon="2.26582">
        <ele>91.6</ele>
        <time>2020-03-15T15:13:47.999Z</time>
      </trkpt>
      <trkpt lat="48.8573" lon="2.26579">
        <ele>89.8</ele>
        <time>2020-03-15T15:13:48.999Z</time>
      </trkpt>
      <trkpt lat="48.85735" lon="2.2658">
        <ele>87.95</ele>
        <time>2020-03-15T15:13:49.999Z</time>
      </trkpt>
      <trkpt lat="48.8574" lon="2.26578">
        <ele>87.77</ele>
        <time>2020-03-15T15:13:50.999Z</time>
      </trkpt>
      <trkpt lat="48.85744" lon="2.26574">
        <ele>85.69</ele>
        <time>2020-03-15T15:13:51.999Z</time>
      </trkpt>
      <trkpt lat="48.85749" lon="2.2657">
        <ele>83.78</ele>
        <time>2020-03-15T15:13:52.999Z</time>
      </trkpt>
      <trkpt lat="48.85754" lon="2.26566">
        <ele>82.71</ele>
        <time>2020-03-15T15:13:53.999Z</time>
      </trkpt>
      <trkpt lat="48.85756" lon="2.2656">
        <ele>82.55</ele>
        <time>2020-03-15T15:13:54.999Z</time>
      </trkpt>
      <trkpt lat="48.85757" lon="2.26554">
        <ele>82.38</ele>
        <time>2020-03-15T15:13:55.999Z</time>
      </trkpt>
      <trkpt lat="48.85758" lon="2.26548">
        <ele>82.22</ele>
        <time>2020-03-15T15:13:56.999Z</time>
      </trkpt>
      <trkpt lat="48.85759" lon="2.2654">
        <ele>82.01</ele>
        <time>2020-03-15T15:13:57.999Z</time>
      </trkpt>
      <trkpt lat="48.85758" lon="2.26527">
        <ele>81.79</ele>
        <time>2020-03-15T15:13:58.999Z</time>
      </trkpt>
      <trkpt lat="48.85757" lon="2.2652">
        <ele>81.56</ele>
        <time>2020-03-15T15:13:59.999Z</time>
      </trkpt>
      <trkpt lat="48.85757" lon="2.26516">
        <ele>81.34</ele>
        <time>2020-03-15T15:14:00.999Z</time>
      </trkpt>
      <trkpt lat="48.85759" lon="2.26512">
        <ele>81.11</ele>
        <time>2020-03-15T15:14:01.999Z</time>
      </trkpt>
      <trkpt lat="48.85759" lon="2.26508">
        <ele>80.88</ele>
        <time>2020-03-15T15:14:02.999Z</time>
      </trkpt>
      <trkpt lat="48.85761" lon="2.26505">
        <ele>80.66</ele>
        <time>2020-03-15T15:14:03.999Z</time>
      </trkpt>
      <trkpt lat="48.85758" lon="2.26501">
        <ele>80.44</ele>
        <time>2020-03-15T15:14:04.999Z</time>
      </trkpt>
      <trkpt lat="48.85756" lon="2.26499">
        <ele>80.27</ele>
        <time>2020-03-15T15:14:05.999Z</time>
      </trkpt>
      <trkpt lat="48.85754" lon="2.26498">
        <ele>80.12</ele>
        <time>2020-03-15T15:14:06.999Z</time>
      </trkpt>
      <trkpt lat="48.85753" lon="2.26496">
        <ele>79.99</ele>
        <time>2020-03-15T15:14:07.999Z</time>
      </trkpt>
      <trkpt lat="48.85752" lon="2.26491">
        <ele>79.86</ele>
        <time>2020-03-15T15:14:08.999Z</time>
      </trkpt>
      <trkpt lat="48.85753" lon="2.26488">
        <ele>79.7</ele>
        <time>2020-03-15T15:14:09.999Z</time>
      </trkpt>
      <trkpt lat="48.85754" lon="2.26486">
        <ele>79.55</ele>
        <time>2020-03-15T15:14:10.999Z</time>
      </trkpt>
      <trkpt lat="48.85755" lon="2.26485">
        <ele>79.43</ele>
        <time>2020-03-15T15:14:11.999Z</time>
      </trkpt>
      <trkpt lat="48.85756" lon="2.26484">
        <ele>79.29</ele>
        <time>2020-03-15T15:14:12.999Z</time>
      </trkpt>
      <trkpt lat="48.85757" lon="2.26483">
        <ele>79.15</ele>
        <time>2020-03-15T15:14:13.999Z</time>
      </trkpt>
      <trkpt lat="48.85757" lon="2.26482">
        <ele>79</ele>
        <time>2020-03-15T15:14:14.999Z</time>
      </trkpt>
      <trkpt lat="48.85757" lon="2.2648">
        <ele>78.87</ele>
        <time>2020-03-15T15:14:15.999Z</time>
      </trkpt>
      <trkpt lat="48.85756" lon="2.26481">
        <ele>78.65</ele>
        <time>2020-03-15T15:14:17.999Z</time>
      </trkpt>
      <trkpt lat="48.85755" lon="2.26481">
        <ele>78.37</ele>
        <time>2020-03-15T15:14:20.999Z</time>
      </trkpt>
      <trkpt lat="48.85754" lon="2.26481">
        <ele>78.18</ele>
        <time>2020-03-15T15:14:23.999Z</time>
      </trkpt>
      <trkpt lat="48.85753" lon="2.26481">
        <ele>78.06</ele>
        <time>2020-03-15T15:14:28.999Z</time>
      </trkpt>
      <trkpt lat="48.85755" lon="2.26481">
        <ele>78.08</ele>
        <time>2020-03-15T15:14:32.999Z</time>
      </trkpt>
      <trkpt lat="48.85756" lon="2.26482">
        <ele>78.1</ele>
        <time>2020-03-15T15:14:33.999Z</time>
      </trkpt>
      <trkpt lat="48.85757" lon="2.26482">
        <ele>78.11</ele>
        <time>2020-03-15T15:14:34.999Z</time>
      </trkpt>
      <trkpt lat="48.85759" lon="2.26483">
        <ele>78.13</ele>
        <time>2020-03-15T15:14:35.999Z</time>
      </trkpt>
      <trkpt lat="48.85762" lon="2.26484">
        <ele>78.15</ele>
        <time>2020-03-15T15:14:36.999Z</time>
      </trkpt>
      <trkpt lat="48.85764" lon="2.26485">
        <ele>78.17</ele>
        <time>2020-03-15T15:14:37.999Z</time>
      </trkpt>
      <trkpt lat="48.85767" lon="2.26486">
        <ele>78.19</ele>
        <time>2020-03-15T15:14:38.999Z</time>
      </trkpt>
      <trkpt lat="48.85769" lon="2.26486">
        <ele>78.22</ele>
        <time>2020-03-15T15:14:39.999Z</time>
      </trkpt>
      <trkpt lat="48.85772" lon="2.26488">
        <ele>78.24</ele>
        <time>2020-03-15T15:14:40.999Z</time>
      </trkpt>
      <trkpt lat="48.85775" lon="2.2649">
        <ele>78.26</ele>
        <time>2020-03-15T15:14:41.999Z</time>
      </trkpt>
      <trkpt lat="48.85778" lon="2.26491">
        <ele>78.29</ele>
        <time>2020-03-15T15:14:42.999Z</time>
      </trkpt>
      <trkpt lat="48.85781" lon="2.26492">
        <ele>78.31</ele>
        <time>2020-03-15T15:14:43.999Z</time>
      </trkpt>
      <trkpt lat="48.85784" lon="2.26494">
        <ele>78.33</ele>
        <time>2020-03-15T15:14:44.999Z</time>
      </trkpt>
      <trkpt lat="48.85787" lon="2.26496">
        <ele>78.36</ele>
        <time>2020-03-15T15:14:45.999Z</time>
      </trkpt>
      <trkpt lat="48.8579" lon="2.26498">
        <ele>78.38</ele>
        <time>2020-03-15T15:14:46.999Z</time>
      </trkpt>
      <trkpt lat="48.85794" lon="2.26501">
        <ele>78.63</ele>
        <time>2020-03-15T15:14:47.999Z</time>
      </trkpt>
      <trkpt lat="48.85797" lon="2.26503">
        <ele>78.81</ele>
        <time>2020-03-15T15:14:48.999Z</time>
      </trkpt>
      <trkpt lat="48.85801" lon="2.26506">
        <ele>78.82</ele>
        <time>2020-03-15T15:14:49.999Z</time>
      </trkpt>
      <trkpt lat="48.85805" lon="2.26509">
        <ele>79.04</ele>
        <time>2020-03-15T15:14:50.999Z</time>
      </trkpt>
      <trkpt lat="48.8581" lon="2.26512">
        <ele>79</ele>
        <time>2020-03-15T15:14:51.999Z</time>
      </trkpt>
      <trkpt lat="48.85814" lon="2.26514">
        <ele>78.8</ele>
        <time>2020-03-15T15:14:52.999Z</time>
      </trkpt>
      <trkpt lat="48.85819" lon="2.26517">
        <ele>78.73</ele>
        <time>2020-03-15T15:14:53.999Z</time>
      </trkpt>
      <trkpt lat="48.85823" lon="2.26521">
        <ele>78.76</ele>
        <time>2020-03-15T15:14:54.999Z</time>
      </trkpt>
      <trkpt lat="48.85828" lon="2.26524">
        <ele>78.67</ele>
        <time>2020-03-15T15:14:55.999Z</time>
      </trkpt>
      <trkpt lat="48.85833" lon="2.26527">
        <ele>78.62</ele>
        <time>2020-03-15T15:14:56.999Z</time>
      </trkpt>
      <trkpt lat="48.85838" lon="2.26531">
        <ele>78.6</ele>
        <time>2020-03-15T15:14:57.999Z</time>
      </trkpt>
      <trkpt lat="48.85843" lon="2.26533">
        <ele>78.54</ele>
        <time>2020-03-15T15:14:58.999Z</time>
      </trkpt>
      <trkpt lat="48.85848" lon="2.26536">
        <ele>78.42</ele>
        <time>2020-03-15T15:14:59.999Z</time>
      </trkpt>
      <trkpt lat="48.85852" lon="2.26538">
        <ele>78.33</ele>
        <time>2020-03-15T15:15:00.999Z</time>
      </trkpt>
      <trkpt lat="48.85856" lon="2.26541">
        <ele>78.27</ele>
        <time>2020-03-15T15:15:01.999Z</time>
      </trkpt>
      <trkpt lat="48.8586" lon="2.26544">
        <ele>78.23</ele>
        <time>2020-03-15T15:15:02.999Z</time>
      </trkpt>
      <trkpt lat="48.85863" lon="2.26547">
        <ele>78.21</ele>
        <time>2020-03-15T15:15:03.999Z</time>
      </trkpt>
      <trkpt lat="48.85867" lon="2.2655">
        <ele>78.19</ele>
        <time>2020-03-15T15:15:04.999Z</time>
      </trkpt>
      <trkpt lat="48.85871" lon="2.26554">
        <ele>78.21</ele>
        <time>2020-03-15T15:15:05.999Z</time>
      </trkpt>
      <trkpt lat="48.85876" lon="2.26557">
        <ele>78.26</ele>
        <time>2020-03-15T15:15:06.999Z</time>
      </trkpt>
      <trkpt lat="48.85881" lon="2.26559">
        <ele>78.36</ele>
        <time>2020-03-15T15:15:07.999Z</time>
      </trkpt>
      <trkpt lat="48.85886" lon="2.26562">
        <ele>78.48</ele>
        <time>2020-03-15T15:15:08.999Z</time>
      </trkpt>
      <trkpt lat="48.85891" lon="2.26565">
        <ele>78.79</ele>
        <time>2020-03-15T15:15:09.999Z</time>
      </trkpt>
      <trkpt lat="48.85895" lon="2.26568">
        <ele>79.04</ele>
        <time>2020-03-15T15:15:10.999Z</time>
      </trkpt>
      <trkpt lat="48.859" lon="2.26571">
        <ele>79.26</ele>
        <time>2020-03-15T15:15:11.999Z</time>
      </trkpt>
      <trkpt lat="48.85904" lon="2.26574">
        <ele>79.55</ele>
        <time>2020-03-15T15:15:12.999Z</time>
      </trkpt>
      <trkpt lat="48.85909" lon="2.26577">
        <ele>79.5</ele>
        <time>2020-03-15T15:15:13.999Z</time>
      </trkpt>
      <trkpt lat="48.85914" lon="2.26581">
        <ele>79.54</ele>
        <time>2020-03-15T15:15:14.999Z</time>
      </trkpt>
      <trkpt lat="48.85919" lon="2.26584">
        <ele>79.62</ele>
        <time>2020-03-15T15:15:15.999Z</time>
      </trkpt>
      <trkpt lat="48.85925" lon="2.26588">
        <ele>79.6</ele>
        <time>2020-03-15T15:15:16.999Z</time>
      </trkpt>
      <trkpt lat="48.8593" lon="2.26591">
        <ele>79.71</ele>
        <time>2020-03-15T15:15:17.999Z</time>
      </trkpt>
      <trkpt lat="48.85936" lon="2.26593">
        <ele>79.72</ele>
        <time>2020-03-15T15:15:18.999Z</time>
      </trkpt>
      <trkpt lat="48.85942" lon="2.26596">
        <ele>79.78</ele>
        <time>2020-03-15T15:15:19.999Z</time>
      </trkpt>
      <trkpt lat="48.85947" lon="2.26599">
        <ele>79.51</ele>
        <time>2020-03-15T15:15:20.999Z</time>
      </trkpt>
      <trkpt lat="48.85953" lon="2.26603">
        <ele>79.29</ele>
        <time>2020-03-15T15:15:21.999Z</time>
      </trkpt>
      <trkpt lat="48.85959" lon="2.26607">
        <ele>78.77</ele>
        <time>2020-03-15T15:15:22.999Z</time>
      </trkpt>
      <trkpt lat="48.85965" lon="2.26611">
        <ele>78.28</ele>
        <time>2020-03-15T15:15:23.999Z</time>
      </trkpt>
      <trkpt lat="48.85972" lon="2.26616">
        <ele>78.22</ele>
        <time>2020-03-15T15:15:24.999Z</time>
      </trkpt>
      <trkpt lat="48.85979" lon="2.2662">
        <ele>78.53</ele>
        <time>2020-03-15T15:15:25.999Z</time>
      </trkpt>
      <trkpt lat="48.85987" lon="2.26624">
        <ele>78.98</ele>
        <time>2020-03-15T15:15:26.999Z</time>
      </trkpt>
      <trkpt lat="48.85994" lon="2.26627">
        <ele>79.47</ele>
        <time>2020-03-15T15:15:27.999Z</time>
      </trkpt>
      <trkpt lat="48.86001" lon="2.26629">
        <ele>79.81</ele>
        <time>2020-03-15T15:15:28.999Z</time>
      </trkpt>
      <trkpt lat="48.86007" lon="2.26634">
        <ele>80.12</ele>
        <time>2020-03-15T15:15:29.999Z</time>
      </trkpt>
      <trkpt lat="48.86013" lon="2.2664">
        <ele>80.41</ele>
        <time>2020-03-15T15:15:30.999Z</time>
      </trkpt>
      <trkpt lat="48.86019" lon="2.26646">
        <ele>80.66</ele>
        <time>2020-03-15T15:15:31.999Z</time>
      </trkpt>
      <trkpt lat="48.86024" lon="2.26652">
        <ele>80.9</ele>
        <time>2020-03-15T15:15:32.999Z</time>
      </trkpt>
      <trkpt lat="48.8603" lon="2.26658">
        <ele>81.18</ele>
        <time>2020-03-15T15:15:33.999Z</time>
      </trkpt>
      <trkpt lat="48.86035" lon="2.26662">
        <ele>81.4</ele>
        <time>2020-03-15T15:15:34.999Z</time>
      </trkpt>
      <trkpt lat="48.86048" lon="2.26669">
        <ele>82.21</ele>
        <time>2020-03-15T15:15:36.999Z</time>
      </trkpt>
      <trkpt lat="48.86054" lon="2.26673">
        <ele>82.67</ele>
        <time>2020-03-15T15:15:37.999Z</time>
      </trkpt>
      <trkpt lat="48.86059" lon="2.26677">
        <ele>83.13</ele>
        <time>2020-03-15T15:15:38.999Z</time>
      </trkpt>
      <trkpt lat="48.86065" lon="2.26683">
        <ele>83.82</ele>
        <time>2020-03-15T15:15:39.999Z</time>
      </trkpt>
      <trkpt lat="48.86072" lon="2.26687">
        <ele>84.62</ele>
        <time>2020-03-15T15:15:40.999Z</time>
      </trkpt>
      <trkpt lat="48.86079" lon="2.26692">
        <ele>85.33</ele>
        <time>2020-03-15T15:15:41.999Z</time>
      </trkpt>
      <trkpt lat="48.86087" lon="2.26698">
        <ele>85.93</ele>
        <time>2020-03-15T15:15:42.999Z</time>
      </trkpt>
      <trkpt lat="48.86095" lon="2.26702">
        <ele>86.52</ele>
        <time>2020-03-15T15:15:43.999Z</time>
      </trkpt>
      <trkpt lat="48.86102" lon="2.26706">
        <ele>87.07</ele>
        <time>2020-03-15T15:15:44.999Z</time>
      </trkpt>
      <trkpt lat="48.86108" lon="2.2671">
        <ele>87.56</ele>
        <time>2020-03-15T15:15:45.999Z</time>
      </trkpt>
      <trkpt lat="48.86114" lon="2.26714">
        <ele>88.05</ele>
        <time>2020-03-15T15:15:46.999Z</time>
      </trkpt>
      <trkpt lat="48.86119" lon="2.26717">
        <ele>88.52</ele>
        <time>2020-03-15T15:15:47.999Z</time>
      </trkpt>
      <trkpt lat="48.86124" lon="2.26721">
        <ele>88.93</ele>
        <time>2020-03-15T15:15:48.999Z</time>
      </trkpt>
      <trkpt lat="48.86129" lon="2.26725">
        <ele>89.26</ele>
        <time>2020-03-15T15:15:49.999Z</time>
      </trkpt>
      <trkpt lat="48.86134" lon="2.26728">
        <ele>89.55</ele>
        <time>2020-03-15T15:15:50.999Z</time>
      </trkpt>
      <trkpt lat="48.86138" lon="2.26731">
        <ele>89.79</ele>
        <time>2020-03-15T15:15:51.999Z</time>
      </trkpt>
      <trkpt lat="48.86143" lon="2.26734">
        <ele>90.06</ele>
        <time>2020-03-15T15:15:52.999Z</time>
      </trkpt>
      <trkpt lat="48.86149" lon="2.26738">
        <ele>90.32</ele>
        <time>2020-03-15T15:15:53.999Z</time>
      </trkpt>
      <trkpt lat="48.86153" lon="2.26741">
        <ele>90.54</ele>
        <time>2020-03-15T15:15:54.999Z</time>
      </trkpt>
      <trkpt lat="48.86158" lon="2.26745">
        <ele>90.78</ele>
        <time>2020-03-15T15:15:55.999Z</time>
      </trkpt>
      <trkpt lat="48.86162" lon="2.26749">
        <ele>91.07</ele>
        <time>2020-03-15T15:15:56.999Z</time>
      </trkpt>
      <trkpt lat="48.86166" lon="2.26752">
        <ele>91.38</ele>
        <time>2020-03-15T15:15:57.999Z</time>
      </trkpt>
      <trkpt lat="48.86169" lon="2.26756">
        <ele>91.41</ele>
        <time>2020-03-15T15:15:58.999Z</time>
      </trkpt>
      <trkpt lat="48.86172" lon="2.26758">
        <ele>91.44</ele>
        <time>2020-03-15T15:15:59.999Z</time>
      </trkpt>
      <trkpt lat="48.86175" lon="2.26761">
        <ele>91.48</ele>
        <time>2020-03-15T15:16:00.999Z</time>
      </trkpt>
      <trkpt lat="48.86177" lon="2.26765">
        <ele>91.52</ele>
        <time>2020-03-15T15:16:01.999Z</time>
      </trkpt>
      <trkpt lat="48.86179" lon="2.26768">
        <ele>91.57</ele>
        <time>2020-03-15T15:16:02.999Z</time>
      </trkpt>
      <trkpt lat="48.86182" lon="2.26771">
        <ele>91.62</ele>
        <time>2020-03-15T15:16:03.999Z</time>
      </trkpt>
      <trkpt lat="48.86185" lon="2.26776">
        <ele>91.67</ele>
        <time>2020-03-15T15:16:04.999Z</time>
      </trkpt>
      <trkpt lat="48.86186" lon="2.26778">
        <ele>91.73</ele>
        <time>2020-03-15T15:16:05.999Z</time>
      </trkpt>
      <trkpt lat="48.86188" lon="2.26781">
        <ele>91.79</ele>
        <time>2020-03-15T15:16:06.999Z</time>
      </trkpt>
      <trkpt lat="48.8619" lon="2.26783">
        <ele>91.86</ele>
        <time>2020-03-15T15:16:07.999Z</time>
      </trkpt>
      <trkpt lat="48.86193" lon="2.26785">
        <ele>91.94</ele>
        <time>2020-03-15T15:16:08.999Z</time>
      </trkpt>
      <trkpt lat="48.86196" lon="2.26787">
        <ele>92.04</ele>
        <time>2020-03-15T15:16:09.999Z</time>
      </trkpt>
      <trkpt lat="48.86199" lon="2.26789">
        <ele>92.16</ele>
        <time>2020-03-15T15:16:10.999Z</time>
      </trkpt>
      <trkpt lat="48.86203" lon="2.26791">
        <ele>92.31</ele>
        <time>2020-03-15T15:16:11.999Z</time>
      </trkpt>
      <trkpt lat="48.86205" lon="2.26792">
        <ele>92.46</ele>
        <time>2020-03-15T15:16:12.999Z</time>
      </trkpt>
      <trkpt lat="48.86206" lon="2.26794">
        <ele>92.61</ele>
        <time>2020-03-15T15:16:13.999Z</time>
      </trkpt>
      <trkpt lat="48.86209" lon="2.26795">
        <ele>92.76</ele>
        <time>2020-03-15T15:16:14.999Z</time>
      </trkpt>
      <trkpt lat="48.86211" lon="2.26796">
        <ele>92.9</ele>
        <time>2020-03-15T15:16:15.999Z</time>
      </trkpt>
      <trkpt lat="48.86213" lon="2.26797">
        <ele>93.05</ele>
        <time>2020-03-15T15:16:16.999Z</time>
      </trkpt>
      <trkpt lat="48.86216" lon="2.26799">
        <ele>93.21</ele>
        <time>2020-03-15T15:16:17.999Z</time>
      </trkpt>
      <trkpt lat="48.86219" lon="2.268">
        <ele>93.37</ele>
        <time>2020-03-15T15:16:18.999Z</time>
      </trkpt>
      <trkpt lat="48.8622" lon="2.26801">
        <ele>93.54</ele>
        <time>2020-03-15T15:16:19.999Z</time>
      </trkpt>
      <trkpt lat="48.86222" lon="2.26802">
        <ele>93.72</ele>
        <time>2020-03-15T15:16:20.999Z</time>
      </trkpt>
      <trkpt lat="48.86223" lon="2.26802">
        <ele>93.91</ele>
        <time>2020-03-15T15:16:21.999Z</time>
      </trkpt>
      <trkpt lat="48.86224" lon="2.26803">
        <ele>94.11</ele>
        <time>2020-03-15T15:16:22.999Z</time>
      </trkpt>
      <trkpt lat="48.86226" lon="2.26803">
        <ele>94.29</ele>
        <time>2020-03-15T15:16:23.999Z</time>
      </trkpt>
      <trkpt lat="48.86228" lon="2.26805">
        <ele>94.69</ele>
        <time>2020-03-15T15:16:25.999Z</time>
      </trkpt>
      <trkpt lat="48.86229" lon="2.26806">
        <ele>94.89</ele>
        <time>2020-03-15T15:16:26.999Z</time>
      </trkpt>
      <trkpt lat="48.8623" lon="2.26806">
        <ele>95.08</ele>
        <time>2020-03-15T15:16:27.999Z</time>
      </trkpt>
      <trkpt lat="48.86224" lon="2.26805">
        <ele>95.91</ele>
        <time>2020-03-15T15:16:55.999Z</time>
      </trkpt>
      <trkpt lat="48.86222" lon="2.26805">
        <ele>96.2</ele>
        <time>2020-03-15T15:17:05.999Z</time>
      </trkpt>
      <trkpt lat="48.86225" lon="2.26806">
        <ele>96.57</ele>
        <time>2020-03-15T15:17:09.999Z</time>
      </trkpt>
      <trkpt lat="48.86226" lon="2.26807">
        <ele>96.66</ele>
        <time>2020-03-15T15:17:10.999Z</time>
      </trkpt>
      <trkpt lat="48.86228" lon="2.26809">
        <ele>96.74</ele>
        <time>2020-03-15T15:17:11.999Z</time>
      </trkpt>
      <trkpt lat="48.86232" lon="2.2681">
        <ele>96.82</ele>
        <time>2020-03-15T15:17:12.999Z</time>
      </trkpt>
      <trkpt lat="48.86236" lon="2.26812">
        <ele>96.89</ele>
        <time>2020-03-15T15:17:13.999Z</time>
      </trkpt>
      <trkpt lat="48.86239" lon="2.26815">
        <ele>96.96</ele>
        <time>2020-03-15T15:17:14.999Z</time>
      </trkpt>
      <trkpt lat="48.86242" lon="2.26818">
        <ele>97.03</ele>
        <time>2020-03-15T15:17:15.999Z</time>
      </trkpt>
      <trkpt lat="48.86244" lon="2.2682">
        <ele>97.09</ele>
        <time>2020-03-15T15:17:16.999Z</time>
      </trkpt>
      <trkpt lat="48.86247" lon="2.26822">
        <ele>97.16</ele>
        <time>2020-03-15T15:17:17.999Z</time>
      </trkpt>
      <trkpt lat="48.86251" lon="2.26826">
        <ele>97.22</ele>
        <time>2020-03-15T15:17:18.999Z</time>
      </trkpt>
      <trkpt lat="48.86255" lon="2.2683">
        <ele>97.27</ele>
        <time>2020-03-15T15:17:19.999Z</time>
      </trkpt>
      <trkpt lat="48.86261" lon="2.26835">
        <ele>97.32</ele>
        <time>2020-03-15T15:17:20.999Z</time>
      </trkpt>
      <trkpt lat="48.86266" lon="2.2684">
        <ele>97.75</ele>
        <time>2020-03-15T15:17:21.999Z</time>
      </trkpt>
      <trkpt lat="48.8627" lon="2.26843">
        <ele>98.07</ele>
        <time>2020-03-15T15:17:22.999Z</time>
      </trkpt>
      <trkpt lat="48.86275" lon="2.26848">
        <ele>98.3</ele>
        <time>2020-03-15T15:17:23.999Z</time>
      </trkpt>
      <trkpt lat="48.86278" lon="2.26853">
        <ele>98.48</ele>
        <time>2020-03-15T15:17:24.999Z</time>
      </trkpt>
      <trkpt lat="48.86281" lon="2.26858">
        <ele>98.61</ele>
        <time>2020-03-15T15:17:25.999Z</time>
      </trkpt>
      <trkpt lat="48.86283" lon="2.26863">
        <ele>98.7</ele>
        <time>2020-03-15T15:17:26.999Z</time>
      </trkpt>
      <trkpt lat="48.86285" lon="2.26869">
        <ele>98.77</ele>
        <time>2020-03-15T15:17:27.999Z</time>
      </trkpt>
      <trkpt lat="48.86287" lon="2.26875">
        <ele>98.78</ele>
        <time>2020-03-15T15:17:28.999Z</time>
      </trkpt>
      <trkpt lat="48.86288" lon="2.26879">
        <ele>98.78</ele>
        <time>2020-03-15T15:17:29.999Z</time>
      </trkpt>
      <trkpt lat="48.86289" lon="2.26884">
        <ele>98.78</ele>
        <time>2020-03-15T15:17:30.999Z</time>
      </trkpt>
      <trkpt lat="48.8629" lon="2.2689">
        <ele>98.77</ele>
        <time>2020-03-15T15:17:31.999Z</time>
      </trkpt>
      <trkpt lat="48.86291" lon="2.26895">
        <ele>98.76</ele>
        <time>2020-03-15T15:17:32.999Z</time>
      </trkpt>
      <trkpt lat="48.86291" lon="2.269">
        <ele>98.75</ele>
        <time>2020-03-15T15:17:33.999Z</time>
      </trkpt>
      <trkpt lat="48.86292" lon="2.26903">
        <ele>98.75</ele>
        <time>2020-03-15T15:17:34.999Z</time>
      </trkpt>
      <trkpt lat="48.86294" lon="2.26908">
        <ele>98.74</ele>
        <time>2020-03-15T15:17:35.999Z</time>
      </trkpt>
      <trkpt lat="48.86294" lon="2.26914">
        <ele>98.73</ele>
        <time>2020-03-15T15:17:36.999Z</time>
      </trkpt>
      <trkpt lat="48.86294" lon="2.26919">
        <ele>98.72</ele>
        <time>2020-03-15T15:17:37.999Z</time>
      </trkpt>
      <trkpt lat="48.86294" lon="2.26923">
        <ele>98.71</ele>
        <time>2020-03-15T15:17:38.999Z</time>
      </trkpt>
      <trkpt lat="48.86295" lon="2.26928">
        <ele>98.7</ele>
        <time>2020-03-15T15:17:39.999Z</time>
      </trkpt>
      <trkpt lat="48.86296" lon="2.26932">
        <ele>98.69</ele>
        <time>2020-03-15T15:17:40.999Z</time>
      </trkpt>
      <trkpt lat="48.86297" lon="2.26939">
        <ele>98.67</ele>
        <time>2020-03-15T15:17:41.999Z</time>
      </trkpt>
      <trkpt lat="48.86299" lon="2.26946">
        <ele>98.66</ele>
        <time>2020-03-15T15:17:42.999Z</time>
      </trkpt>
      <trkpt lat="48.863" lon="2.26953">
        <ele>98.64</ele>
        <time>2020-03-15T15:17:43.999Z</time>
      </trkpt>
      <trkpt lat="48.86302" lon="2.26958">
        <ele>98.42</ele>
        <time>2020-03-15T15:17:44.999Z</time>
      </trkpt>
      <trkpt lat="48.86304" lon="2.26967">
        <ele>98.39</ele>
        <time>2020-03-15T15:17:45.999Z</time>
      </trkpt>
      <trkpt lat="48.86306" lon="2.26976">
        <ele>98.01</ele>
        <time>2020-03-15T15:17:46.999Z</time>
      </trkpt>
      <trkpt lat="48.86308" lon="2.26983">
        <ele>97.98</ele>
        <time>2020-03-15T15:17:47.999Z</time>
      </trkpt>
      <trkpt lat="48.8631" lon="2.2699">
        <ele>97.61</ele>
        <time>2020-03-15T15:17:48.999Z</time>
      </trkpt>
      <trkpt lat="48.86312" lon="2.26999">
        <ele>97.25</ele>
        <time>2020-03-15T15:17:49.999Z</time>
      </trkpt>
      <trkpt lat="48.86313" lon="2.27006">
        <ele>96.94</ele>
        <time>2020-03-15T15:17:50.999Z</time>
      </trkpt>
      <trkpt lat="48.86315" lon="2.27013">
        <ele>96.67</ele>
        <time>2020-03-15T15:17:51.999Z</time>
      </trkpt>
      <trkpt lat="48.86317" lon="2.2702">
        <ele>96.39</ele>
        <time>2020-03-15T15:17:52.999Z</time>
      </trkpt>
      <trkpt lat="48.86318" lon="2.27029">
        <ele>96.13</ele>
        <time>2020-03-15T15:17:53.999Z</time>
      </trkpt>
      <trkpt lat="48.86321" lon="2.27034">
        <ele>96.1</ele>
        <time>2020-03-15T15:17:54.999Z</time>
      </trkpt>
      <trkpt lat="48.86324" lon="2.2704">
        <ele>95.82</ele>
        <time>2020-03-15T15:17:55.999Z</time>
      </trkpt>
      <trkpt lat="48.86326" lon="2.27047">
        <ele>95.57</ele>
        <time>2020-03-15T15:17:56.999Z</time>
      </trkpt>
      <trkpt lat="48.8633" lon="2.27054">
        <ele>95.33</ele>
        <time>2020-03-15T15:17:57.999Z</time>
      </trkpt>
      <trkpt lat="48.86332" lon="2.27061">
        <ele>95.09</ele>
        <time>2020-03-15T15:17:58.999Z</time>
      </trkpt>
      <trkpt lat="48.86335" lon="2.27069">
        <ele>95.06</ele>
        <time>2020-03-15T15:17:59.999Z</time>
      </trkpt>
      <trkpt lat="48.86338" lon="2.27074">
        <ele>95.03</ele>
        <time>2020-03-15T15:18:00.999Z</time>
      </trkpt>
      <trkpt lat="48.86342" lon="2.2708">
        <ele>94.98</ele>
        <time>2020-03-15T15:18:01.999Z</time>
      </trkpt>
      <trkpt lat="48.86345" lon="2.27086">
        <ele>94.89</ele>
        <time>2020-03-15T15:18:02.999Z</time>
      </trkpt>
      <trkpt lat="48.86348" lon="2.27094">
        <ele>94.79</ele>
        <time>2020-03-15T15:18:03.999Z</time>
      </trkpt>
      <trkpt lat="48.86351" lon="2.27102">
        <ele>94.65</ele>
        <time>2020-03-15T15:18:04.999Z</time>
      </trkpt>
      <trkpt lat="48.86352" lon="2.27107">
        <ele>94.5</ele>
        <time>2020-03-15T15:18:05.999Z</time>
      </trkpt>
      <trkpt lat="48.86354" lon="2.27114">
        <ele>94.35</ele>
        <time>2020-03-15T15:18:06.999Z</time>
      </trkpt>
      <trkpt lat="48.86358" lon="2.2712">
        <ele>94.18</ele>
        <time>2020-03-15T15:18:07.999Z</time>
      </trkpt>
      <trkpt lat="48.86361" lon="2.27126">
        <ele>94</ele>
        <time>2020-03-15T15:18:08.999Z</time>
      </trkpt>
      <trkpt lat="48.86364" lon="2.2713">
        <ele>93.83</ele>
        <time>2020-03-15T15:18:09.999Z</time>
      </trkpt>
      <trkpt lat="48.86367" lon="2.27135">
        <ele>93.66</ele>
        <time>2020-03-15T15:18:10.999Z</time>
      </trkpt>
      <trkpt lat="48.86369" lon="2.2714">
        <ele>93.49</ele>
        <time>2020-03-15T15:18:11.999Z</time>
      </trkpt>
      <trkpt lat="48.86373" lon="2.27148">
        <ele>93.32</ele>
        <time>2020-03-15T15:18:12.999Z</time>
      </trkpt>
      <trkpt lat="48.86375" lon="2.27155">
        <ele>91.69</ele>
        <time>2020-03-15T15:18:13.999Z</time>
      </trkpt>
      <trkpt lat="48.86378" lon="2.27164">
        <ele>90.5</ele>
        <time>2020-03-15T15:18:14.999Z</time>
      </trkpt>
      <trkpt lat="48.8638" lon="2.2717">
        <ele>89.53</ele>
        <time>2020-03-15T15:18:15.999Z</time>
      </trkpt>
      <trkpt lat="48.86383" lon="2.27176">
        <ele>88.81</ele>
        <time>2020-03-15T15:18:16.999Z</time>
      </trkpt>
      <trkpt lat="48.86386" lon="2.27182">
        <ele>88.76</ele>
        <time>2020-03-15T15:18:17.999Z</time>
      </trkpt>
      <trkpt lat="48.86387" lon="2.27188">
        <ele>88.29</ele>
        <time>2020-03-15T15:18:18.999Z</time>
      </trkpt>
      <trkpt lat="48.86387" lon="2.27194">
        <ele>87.97</ele>
        <time>2020-03-15T15:18:19.999Z</time>
      </trkpt>
      <trkpt lat="48.86388" lon="2.272">
        <ele>87.95</ele>
        <time>2020-03-15T15:18:20.999Z</time>
      </trkpt>
      <trkpt lat="48.86389" lon="2.27207">
        <ele>87.93</ele>
        <time>2020-03-15T15:18:21.999Z</time>
      </trkpt>
      <trkpt lat="48.8639" lon="2.27212">
        <ele>87.91</ele>
        <time>2020-03-15T15:18:22.999Z</time>
      </trkpt>
      <trkpt lat="48.86391" lon="2.27219">
        <ele>87.9</ele>
        <time>2020-03-15T15:18:23.999Z</time>
      </trkpt>
      <trkpt lat="48.86392" lon="2.27225">
        <ele>87.89</ele>
        <time>2020-03-15T15:18:24.999Z</time>
      </trkpt>
      <trkpt lat="48.86394" lon="2.27232">
        <ele>87.81</ele>
        <time>2020-03-15T15:18:25.999Z</time>
      </trkpt>
      <trkpt lat="48.86395" lon="2.27239">
        <ele>87.77</ele>
        <time>2020-03-15T15:18:26.999Z</time>
      </trkpt>
      <trkpt lat="48.86397" lon="2.27247">
        <ele>87.77</ele>
        <time>2020-03-15T15:18:27.999Z</time>
      </trkpt>
      <trkpt lat="48.86399" lon="2.27253">
        <ele>87.8</ele>
        <time>2020-03-15T15:18:28.999Z</time>
      </trkpt>
      <trkpt lat="48.86401" lon="2.2726">
        <ele>87.84</ele>
        <time>2020-03-15T15:18:29.999Z</time>
      </trkpt>
      <trkpt lat="48.86402" lon="2.27267">
        <ele>87.88</ele>
        <time>2020-03-15T15:18:30.999Z</time>
      </trkpt>
      <trkpt lat="48.86403" lon="2.27273">
        <ele>87.88</ele>
        <time>2020-03-15T15:18:31.999Z</time>
      </trkpt>
      <trkpt lat="48.86405" lon="2.27279">
        <ele>87.88</ele>
        <time>2020-03-15T15:18:32.999Z</time>
      </trkpt>
      <trkpt lat="48.86406" lon="2.27285">
        <ele>87.87</ele>
        <time>2020-03-15T15:18:33.999Z</time>
      </trkpt>
      <trkpt lat="48.86408" lon="2.27291">
        <ele>87.85</ele>
        <time>2020-03-15T15:18:34.999Z</time>
      </trkpt>
      <trkpt lat="48.86409" lon="2.27298">
        <ele>87.84</ele>
        <time>2020-03-15T15:18:35.999Z</time>
      </trkpt>
      <trkpt lat="48.8641" lon="2.27305">
        <ele>87.84</ele>
        <time>2020-03-15T15:18:36.999Z</time>
      </trkpt>
      <trkpt lat="48.86411" lon="2.27311">
        <ele>87.84</ele>
        <time>2020-03-15T15:18:37.999Z</time>
      </trkpt>
      <trkpt lat="48.86413" lon="2.27317">
        <ele>87.84</ele>
        <time>2020-03-15T15:18:38.999Z</time>
      </trkpt>
      <trkpt lat="48.86414" lon="2.27323">
        <ele>87.91</ele>
        <time>2020-03-15T15:18:39.999Z</time>
      </trkpt>
      <trkpt lat="48.86416" lon="2.2733">
        <ele>87.99</ele>
        <time>2020-03-15T15:18:40.999Z</time>
      </trkpt>
      <trkpt lat="48.86416" lon="2.27337">
        <ele>88.07</ele>
        <time>2020-03-15T15:18:41.999Z</time>
      </trkpt>
      <trkpt lat="48.86417" lon="2.27345">
        <ele>88.15</ele>
        <time>2020-03-15T15:18:42.999Z</time>
      </trkpt>
      <trkpt lat="48.86417" lon="2.27351">
        <ele>88.16</ele>
        <time>2020-03-15T15:18:43.999Z</time>
      </trkpt>
      <trkpt lat="48.86418" lon="2.27359">
        <ele>88.15</ele>
        <time>2020-03-15T15:18:44.999Z</time>
      </trkpt>
      <trkpt lat="48.86418" lon="2.27366">
        <ele>88.14</ele>
        <time>2020-03-15T15:18:45.999Z</time>
      </trkpt>
      <trkpt lat="48.86419" lon="2.27373">
        <ele>88.13</ele>
        <time>2020-03-15T15:18:46.999Z</time>
      </trkpt>
      <trkpt lat="48.86419" lon="2.2738">
        <ele>88.1</ele>
        <time>2020-03-15T15:18:47.999Z</time>
      </trkpt>
      <trkpt lat="48.8642" lon="2.27387">
        <ele>88.07</ele>
        <time>2020-03-15T15:18:48.999Z</time>
      </trkpt>
      <trkpt lat="48.86421" lon="2.27393">
        <ele>87.66</ele>
        <time>2020-03-15T15:18:49.999Z</time>
      </trkpt>
      <trkpt lat="48.86421" lon="2.27401">
        <ele>87.29</ele>
        <time>2020-03-15T15:18:50.999Z</time>
      </trkpt>
      <trkpt lat="48.86421" lon="2.2741">
        <ele>87.25</ele>
        <time>2020-03-15T15:18:51.999Z</time>
      </trkpt>
      <trkpt lat="48.86421" lon="2.27418">
        <ele>86.62</ele>
        <time>2020-03-15T15:18:52.999Z</time>
      </trkpt>
      <trkpt lat="48.86419" lon="2.27426">
        <ele>86.01</ele>
        <time>2020-03-15T15:18:53.999Z</time>
      </trkpt>
      <trkpt lat="48.86419" lon="2.27434">
        <ele>85.43</ele>
        <time>2020-03-15T15:18:54.999Z</time>
      </trkpt>
      <trkpt lat="48.86418" lon="2.27443">
        <ele>85.38</ele>
        <time>2020-03-15T15:18:55.999Z</time>
      </trkpt>
      <trkpt lat="48.86417" lon="2.27451">
        <ele>85.32</ele>
        <time>2020-03-15T15:18:56.999Z</time>
      </trkpt>
      <trkpt lat="48.86417" lon="2.27457">
        <ele>85.27</ele>
        <time>2020-03-15T15:18:57.999Z</time>
      </trkpt>
      <trkpt lat="48.86418" lon="2.27461">
        <ele>85.2</ele>
        <time>2020-03-15T15:18:58.999Z</time>
      </trkpt>
      <trkpt lat="48.86418" lon="2.27468">
        <ele>85.14</ele>
        <time>2020-03-15T15:18:59.999Z</time>
      </trkpt>
      <trkpt lat="48.86418" lon="2.27475">
        <ele>85.06</ele>
        <time>2020-03-15T15:19:00.999Z</time>
      </trkpt>
      <trkpt lat="48.86418" lon="2.27485">
        <ele>84.94</ele>
        <time>2020-03-15T15:19:01.999Z</time>
      </trkpt>
      <trkpt lat="48.86419" lon="2.27493">
        <ele>84.83</ele>
        <time>2020-03-15T15:19:02.999Z</time>
      </trkpt>
      <trkpt lat="48.86418" lon="2.27499">
        <ele>84.7</ele>
        <time>2020-03-15T15:19:03.999Z</time>
      </trkpt>
      <trkpt lat="48.86418" lon="2.27504">
        <ele>84.56</ele>
        <time>2020-03-15T15:19:04.999Z</time>
      </trkpt>
      <trkpt lat="48.86418" lon="2.27509">
        <ele>84.42</ele>
        <time>2020-03-15T15:19:05.999Z</time>
      </trkpt>
      <trkpt lat="48.86418" lon="2.27514">
        <ele>84.31</ele>
        <time>2020-03-15T15:19:06.999Z</time>
      </trkpt>
      <trkpt lat="48.86418" lon="2.27519">
        <ele>84.19</ele>
        <time>2020-03-15T15:19:07.999Z</time>
      </trkpt>
      <trkpt lat="48.86417" lon="2.27524">
        <ele>84.07</ele>
        <time>2020-03-15T15:19:08.999Z</time>
      </trkpt>
      <trkpt lat="48.86417" lon="2.27531">
        <ele>83.95</ele>
        <time>2020-03-15T15:19:09.999Z</time>
      </trkpt>
      <trkpt lat="48.86417" lon="2.27535">
        <ele>83.87</ele>
        <time>2020-03-15T15:19:10.999Z</time>
      </trkpt>
      <trkpt lat="48.86418" lon="2.2754">
        <ele>83.76</ele>
        <time>2020-03-15T15:19:11.999Z</time>
      </trkpt>
      <trkpt lat="48.86419" lon="2.27543">
        <ele>83.67</ele>
        <time>2020-03-15T15:19:12.999Z</time>
      </trkpt>
      <trkpt lat="48.86419" lon="2.27551">
        <ele>83.58</ele>
        <time>2020-03-15T15:19:13.999Z</time>
      </trkpt>
      <trkpt lat="48.86419" lon="2.27557">
        <ele>83.49</ele>
        <time>2020-03-15T15:19:14.999Z</time>
      </trkpt>
      <trkpt lat="48.86419" lon="2.27565">
        <ele>83.43</ele>
        <time>2020-03-15T15:19:15.999Z</time>
      </trkpt>
      <trkpt lat="48.8642" lon="2.27573">
        <ele>83.34</ele>
        <time>2020-03-15T15:19:16.999Z</time>
      </trkpt>
      <trkpt lat="48.8642" lon="2.2758">
        <ele>83.24</ele>
        <time>2020-03-15T15:19:17.999Z</time>
      </trkpt>
      <trkpt lat="48.86419" lon="2.27589">
        <ele>83.08</ele>
        <time>2020-03-15T15:19:18.999Z</time>
      </trkpt>
      <trkpt lat="48.8642" lon="2.27592">
        <ele>82.96</ele>
        <time>2020-03-15T15:19:19.999Z</time>
      </trkpt>
      <trkpt lat="48.86419" lon="2.27596">
        <ele>82.86</ele>
        <time>2020-03-15T15:19:20.999Z</time>
      </trkpt>
      <trkpt lat="48.8642" lon="2.27598">
        <ele>82.79</ele>
        <time>2020-03-15T15:19:21.999Z</time>
      </trkpt>
      <trkpt lat="48.86418" lon="2.2761">
        <ele>82.7</ele>
        <time>2020-03-15T15:19:22.999Z</time>
      </trkpt>
      <trkpt lat="48.86417" lon="2.27615">
        <ele>82.63</ele>
        <time>2020-03-15T15:19:23.999Z</time>
      </trkpt>
      <trkpt lat="48.86415" lon="2.27625">
        <ele>82.58</ele>
        <time>2020-03-15T15:19:24.999Z</time>
      </trkpt>
      <trkpt lat="48.86413" lon="2.27639">
        <ele>82.42</ele>
        <time>2020-03-15T15:19:25.999Z</time>
      </trkpt>
      <trkpt lat="48.86412" lon="2.27648">
        <ele>82.31</ele>
        <time>2020-03-15T15:19:26.999Z</time>
      </trkpt>
      <trkpt lat="48.86412" lon="2.27652">
        <ele>82.2</ele>
        <time>2020-03-15T15:19:27.999Z</time>
      </trkpt>
      <trkpt lat="48.86412" lon="2.27655">
        <ele>82.08</ele>
        <time>2020-03-15T15:19:28.999Z</time>
      </trkpt>
      <trkpt lat="48.86412" lon="2.2766">
        <ele>81.96</ele>
        <time>2020-03-15T15:19:29.999Z</time>
      </trkpt>
      <trkpt lat="48.86412" lon="2.27662">
        <ele>81.86</ele>
        <time>2020-03-15T15:19:30.999Z</time>
      </trkpt>
      <trkpt lat="48.86413" lon="2.2767">
        <ele>81.79</ele>
        <time>2020-03-15T15:19:31.999Z</time>
      </trkpt>
      <trkpt lat="48.86411" lon="2.2768">
        <ele>81.71</ele>
        <time>2020-03-15T15:19:32.999Z</time>
      </trkpt>
      <trkpt lat="48.86409" lon="2.27689">
        <ele>81.6</ele>
        <time>2020-03-15T15:19:33.999Z</time>
      </trkpt>
      <trkpt lat="48.86408" lon="2.27697">
        <ele>81.51</ele>
        <time>2020-03-15T15:19:34.999Z</time>
      </trkpt>
      <trkpt lat="48.86406" lon="2.27705">
        <ele>81.44</ele>
        <time>2020-03-15T15:19:35.999Z</time>
      </trkpt>
      <trkpt lat="48.86405" lon="2.27711">
        <ele>81.36</ele>
        <time>2020-03-15T15:19:36.999Z</time>
      </trkpt>
      <trkpt lat="48.86405" lon="2.27715">
        <ele>81.28</ele>
        <time>2020-03-15T15:19:37.999Z</time>
      </trkpt>
      <trkpt lat="48.86406" lon="2.27718">
        <ele>81.22</ele>
        <time>2020-03-15T15:19:38.999Z</time>
      </trkpt>
      <trkpt lat="48.86408" lon="2.27721">
        <ele>81.15</ele>
        <time>2020-03-15T15:19:39.999Z</time>
      </trkpt>
      <trkpt lat="48.86408" lon="2.27724">
        <ele>81.11</ele>
        <time>2020-03-15T15:19:40.999Z</time>
      </trkpt>
      <trkpt lat="48.8641" lon="2.27724">
        <ele>81.1</ele>
        <time>2020-03-15T15:19:41.999Z</time>
      </trkpt>
      <trkpt lat="48.86411" lon="2.27724">
        <ele>81.1</ele>
        <time>2020-03-15T15:19:42.999Z</time>
      </trkpt>
      <trkpt lat="48.86411" lon="2.27725">
        <ele>81.13</ele>
        <time>2020-03-15T15:19:44.999Z</time>
      </trkpt>
      <trkpt lat="48.86409" lon="2.27728">
        <ele>81.23</ele>
        <time>2020-03-15T15:19:48.999Z</time>
      </trkpt>
      <trkpt lat="48.86407" lon="2.27729">
        <ele>81.3</ele>
        <time>2020-03-15T15:19:49.999Z</time>
      </trkpt>
      <trkpt lat="48.86406" lon="2.27729">
        <ele>81.38</ele>
        <time>2020-03-15T15:19:50.999Z</time>
      </trkpt>
      <trkpt lat="48.86407" lon="2.27731">
        <ele>81.46</ele>
        <time>2020-03-15T15:19:52.999Z</time>
      </trkpt>
      <trkpt lat="48.86406" lon="2.27731">
        <ele>81.51</ele>
        <time>2020-03-15T15:19:53.999Z</time>
      </trkpt>
      <trkpt lat="48.86406" lon="2.27733">
        <ele>81.57</ele>
        <time>2020-03-15T15:19:54.999Z</time>
      </trkpt>
      <trkpt lat="48.86406" lon="2.27735">
        <ele>81.64</ele>
        <time>2020-03-15T15:19:55.999Z</time>
      </trkpt>
      <trkpt lat="48.86407" lon="2.27737">
        <ele>81.71</ele>
        <time>2020-03-15T15:19:56.999Z</time>
      </trkpt>
      <trkpt lat="48.86407" lon="2.27738">
        <ele>81.79</ele>
        <time>2020-03-15T15:19:57.999Z</time>
      </trkpt>
      <trkpt lat="48.86407" lon="2.2774">
        <ele>81.89</ele>
        <time>2020-03-15T15:19:59.999Z</time>
      </trkpt>
      <trkpt lat="48.86408" lon="2.27741">
        <ele>82</ele>
        <time>2020-03-15T15:20:01.999Z</time>
      </trkpt>
      <trkpt lat="48.86408" lon="2.27745">
        <ele>82.24</ele>
        <time>2020-03-15T15:20:06.999Z</time>
      </trkpt>
      <trkpt lat="48.86408" lon="2.27747">
        <ele>82.35</ele>
        <time>2020-03-15T15:20:07.999Z</time>
      </trkpt>
      <trkpt lat="48.86407" lon="2.27752">
        <ele>82.47</ele>
        <time>2020-03-15T15:20:08.999Z</time>
      </trkpt>
      <trkpt lat="48.86405" lon="2.27759">
        <ele>83.69</ele>
        <time>2020-03-15T15:20:09.999Z</time>
      </trkpt>
      <trkpt lat="48.86403" lon="2.27764">
        <ele>83.79</ele>
        <time>2020-03-15T15:20:10.999Z</time>
      </trkpt>
      <trkpt lat="48.86401" lon="2.27771">
        <ele>83.9</ele>
        <time>2020-03-15T15:20:11.999Z</time>
      </trkpt>
      <trkpt lat="48.86399" lon="2.27776">
        <ele>84.04</ele>
        <time>2020-03-15T15:20:12.999Z</time>
      </trkpt>
      <trkpt lat="48.86397" lon="2.27783">
        <ele>84.18</ele>
        <time>2020-03-15T15:20:13.999Z</time>
      </trkpt>
      <trkpt lat="48.86395" lon="2.2779">
        <ele>85.49</ele>
        <time>2020-03-15T15:20:14.999Z</time>
      </trkpt>
      <trkpt lat="48.86394" lon="2.27799">
        <ele>86.53</ele>
        <time>2020-03-15T15:20:15.999Z</time>
      </trkpt>
      <trkpt lat="48.86392" lon="2.27808">
        <ele>87.34</ele>
        <time>2020-03-15T15:20:16.999Z</time>
      </trkpt>
      <trkpt lat="48.86391" lon="2.27816">
        <ele>88</ele>
        <time>2020-03-15T15:20:17.999Z</time>
      </trkpt>
      <trkpt lat="48.86391" lon="2.27824">
        <ele>88.5</ele>
        <time>2020-03-15T15:20:18.999Z</time>
      </trkpt>
      <trkpt lat="48.8639" lon="2.27832">
        <ele>88.84</ele>
        <time>2020-03-15T15:20:19.999Z</time>
      </trkpt>
      <trkpt lat="48.86389" lon="2.2784">
        <ele>89.09</ele>
        <time>2020-03-15T15:20:20.999Z</time>
      </trkpt>
      <trkpt lat="48.86387" lon="2.2785">
        <ele>89.23</ele>
        <time>2020-03-15T15:20:21.999Z</time>
      </trkpt>
      <trkpt lat="48.86385" lon="2.27857">
        <ele>89.31</ele>
        <time>2020-03-15T15:20:22.999Z</time>
      </trkpt>
      <trkpt lat="48.86384" lon="2.27865">
        <ele>89.29</ele>
        <time>2020-03-15T15:20:23.999Z</time>
      </trkpt>
      <trkpt lat="48.86382" lon="2.27876">
        <ele>89.03</ele>
        <time>2020-03-15T15:20:24.999Z</time>
      </trkpt>
      <trkpt lat="48.86379" lon="2.27888">
        <ele>88.46</ele>
        <time>2020-03-15T15:20:25.999Z</time>
      </trkpt>
      <trkpt lat="48.86378" lon="2.27895">
        <ele>87.94</ele>
        <time>2020-03-15T15:20:26.999Z</time>
      </trkpt>
      <trkpt lat="48.86377" lon="2.27905">
        <ele>87.48</ele>
        <time>2020-03-15T15:20:27.999Z</time>
      </trkpt>
      <trkpt lat="48.86376" lon="2.27915">
        <ele>87.1</ele>
        <time>2020-03-15T15:20:28.999Z</time>
      </trkpt>
      <trkpt lat="48.86374" lon="2.27928">
        <ele>86.61</ele>
        <time>2020-03-15T15:20:29.999Z</time>
      </trkpt>
      <trkpt lat="48.86373" lon="2.27939">
        <ele>86.03</ele>
        <time>2020-03-15T15:20:30.999Z</time>
      </trkpt>
      <trkpt lat="48.86371" lon="2.27951">
        <ele>85.48</ele>
        <time>2020-03-15T15:20:31.999Z</time>
      </trkpt>
      <trkpt lat="48.86371" lon="2.27963">
        <ele>84.93</ele>
        <time>2020-03-15T15:20:32.999Z</time>
      </trkpt>
      <trkpt lat="48.86371" lon="2.27973">
        <ele>84.42</ele>
        <time>2020-03-15T15:20:33.999Z</time>
      </trkpt>
      <trkpt lat="48.86369" lon="2.27984">
        <ele>83.97</ele>
        <time>2020-03-15T15:20:34.999Z</time>
      </trkpt>
      <trkpt lat="48.86367" lon="2.27995">
        <ele>83.25</ele>
        <time>2020-03-15T15:20:35.999Z</time>
      </trkpt>
      <trkpt lat="48.86366" lon="2.28005">
        <ele>82.39</ele>
        <time>2020-03-15T15:20:36.999Z</time>
      </trkpt>
      <trkpt lat="48.86366" lon="2.28014">
        <ele>82.21</ele>
        <time>2020-03-15T15:20:37.999Z</time>
      </trkpt>
      <trkpt lat="48.86365" lon="2.28025">
        <ele>81.29</ele>
        <time>2020-03-15T15:20:38.999Z</time>
      </trkpt>
      <trkpt lat="48.86365" lon="2.28034">
        <ele>81.05</ele>
        <time>2020-03-15T15:20:39.999Z</time>
      </trkpt>
      <trkpt lat="48.86364" lon="2.28046">
        <ele>80.37</ele>
        <time>2020-03-15T15:20:40.999Z</time>
      </trkpt>
      <trkpt lat="48.86362" lon="2.28057">
        <ele>80.29</ele>
        <time>2020-03-15T15:20:41.999Z</time>
      </trkpt>
      <trkpt lat="48.86362" lon="2.28068">
        <ele>80.49</ele>
        <time>2020-03-15T15:20:42.999Z</time>
      </trkpt>
      <trkpt lat="48.86362" lon="2.28078">
        <ele>80.8</ele>
        <time>2020-03-15T15:20:43.999Z</time>
      </trkpt>
      <trkpt lat="48.86362" lon="2.28086">
        <ele>81.14</ele>
        <time>2020-03-15T15:20:44.999Z</time>
      </trkpt>
      <trkpt lat="48.86361" lon="2.28096">
        <ele>81.65</ele>
        <time>2020-03-15T15:20:45.999Z</time>
      </trkpt>
      <trkpt lat="48.8636" lon="2.28105">
        <ele>82.33</ele>
        <time>2020-03-15T15:20:46.999Z</time>
      </trkpt>
      <trkpt lat="48.86359" lon="2.28117">
        <ele>82.97</ele>
        <time>2020-03-15T15:20:47.999Z</time>
      </trkpt>
      <trkpt lat="48.86358" lon="2.28126">
        <ele>83.72</ele>
        <time>2020-03-15T15:20:48.999Z</time>
      </trkpt>
      <trkpt lat="48.86357" lon="2.28135">
        <ele>84.56</ele>
        <time>2020-03-15T15:20:49.999Z</time>
      </trkpt>
      <trkpt lat="48.86356" lon="2.28144">
        <ele>85.34</ele>
        <time>2020-03-15T15:20:50.999Z</time>
      </trkpt>
      <trkpt lat="48.86354" lon="2.28155">
        <ele>86.01</ele>
        <time>2020-03-15T15:20:51.999Z</time>
      </trkpt>
      <trkpt lat="48.86353" lon="2.28166">
        <ele>86.73</ele>
        <time>2020-03-15T15:20:52.999Z</time>
      </trkpt>
      <trkpt lat="48.86352" lon="2.28175">
        <ele>87.66</ele>
        <time>2020-03-15T15:20:53.999Z</time>
      </trkpt>
      <trkpt lat="48.86351" lon="2.28185">
        <ele>88.24</ele>
        <time>2020-03-15T15:20:54.999Z</time>
      </trkpt>
      <trkpt lat="48.86349" lon="2.28197">
        <ele>88.51</ele>
        <time>2020-03-15T15:20:55.999Z</time>
      </trkpt>
      <trkpt lat="48.86348" lon="2.28208">
        <ele>88.89</ele>
        <time>2020-03-15T15:20:56.999Z</time>
      </trkpt>
      <trkpt lat="48.86347" lon="2.28217">
        <ele>89.24</ele>
        <time>2020-03-15T15:20:57.999Z</time>
      </trkpt>
      <trkpt lat="48.86345" lon="2.28228">
        <ele>89.64</ele>
        <time>2020-03-15T15:20:58.999Z</time>
      </trkpt>
      <trkpt lat="48.86344" lon="2.28239">
        <ele>90.06</ele>
        <time>2020-03-15T15:20:59.999Z</time>
      </trkpt>
      <trkpt lat="48.86343" lon="2.2825">
        <ele>90.36</ele>
        <time>2020-03-15T15:21:00.999Z</time>
      </trkpt>
      <trkpt lat="48.86343" lon="2.28262">
        <ele>90.84</ele>
        <time>2020-03-15T15:21:01.999Z</time>
      </trkpt>
      <trkpt lat="48.86342" lon="2.28273">
        <ele>91.18</ele>
        <time>2020-03-15T15:21:02.999Z</time>
      </trkpt>
      <trkpt lat="48.86342" lon="2.28284">
        <ele>91.54</ele>
        <time>2020-03-15T15:21:03.999Z</time>
      </trkpt>
      <trkpt lat="48.86341" lon="2.28294">
        <ele>91.88</ele>
        <time>2020-03-15T15:21:04.999Z</time>
      </trkpt>
      <trkpt lat="48.8634" lon="2.28303">
        <ele>92.13</ele>
        <time>2020-03-15T15:21:05.999Z</time>
      </trkpt>
      <trkpt lat="48.86339" lon="2.28311">
        <ele>92.3</ele>
        <time>2020-03-15T15:21:06.999Z</time>
      </trkpt>
      <trkpt lat="48.86338" lon="2.2832">
        <ele>92.45</ele>
        <time>2020-03-15T15:21:07.999Z</time>
      </trkpt>
      <trkpt lat="48.86337" lon="2.2833">
        <ele>92.57</ele>
        <time>2020-03-15T15:21:08.999Z</time>
      </trkpt>
      <trkpt lat="48.86335" lon="2.28339">
        <ele>92.65</ele>
        <time>2020-03-15T15:21:09.999Z</time>
      </trkpt>
      <trkpt lat="48.86334" lon="2.2835">
        <ele>92.59</ele>
        <time>2020-03-15T15:21:10.999Z</time>
      </trkpt>
      <trkpt lat="48.86333" lon="2.28363">
        <ele>92.57</ele>
        <time>2020-03-15T15:21:11.999Z</time>
      </trkpt>
      <trkpt lat="48.86331" lon="2.28375">
        <ele>92.71</ele>
        <time>2020-03-15T15:21:12.999Z</time>
      </trkpt>
      <trkpt lat="48.86329" lon="2.28386">
        <ele>93.04</ele>
        <time>2020-03-15T15:21:13.999Z</time>
      </trkpt>
      <trkpt lat="48.86327" lon="2.28396">
        <ele>93.16</ele>
        <time>2020-03-15T15:21:14.999Z</time>
      </trkpt>
      <trkpt lat="48.86326" lon="2.28404">
        <ele>93.28</ele>
        <time>2020-03-15T15:21:15.999Z</time>
      </trkpt>
      <trkpt lat="48.86324" lon="2.28415">
        <ele>93.24</ele>
        <time>2020-03-15T15:21:16.999Z</time>
      </trkpt>
      <trkpt lat="48.86323" lon="2.28424">
        <ele>93.39</ele>
        <time>2020-03-15T15:21:17.999Z</time>
      </trkpt>
      <trkpt lat="48.86322" lon="2.28433">
        <ele>93.51</ele>
        <time>2020-03-15T15:21:18.999Z</time>
      </trkpt>
      <trkpt lat="48.86319" lon="2.28442">
        <ele>93.69</ele>
        <time>2020-03-15T15:21:19.999Z</time>
      </trkpt>
      <trkpt lat="48.86318" lon="2.28454">
        <ele>93.66</ele>
        <time>2020-03-15T15:21:20.999Z</time>
      </trkpt>
      <trkpt lat="48.86317" lon="2.28465">
        <ele>93.42</ele>
        <time>2020-03-15T15:21:21.999Z</time>
      </trkpt>
      <trkpt lat="48.86316" lon="2.28473">
        <ele>93.39</ele>
        <time>2020-03-15T15:21:22.999Z</time>
      </trkpt>
      <trkpt lat="48.86314" lon="2.28481">
        <ele>92.87</ele>
        <time>2020-03-15T15:21:23.999Z</time>
      </trkpt>
      <trkpt lat="48.86313" lon="2.2849">
        <ele>92.38</ele>
        <time>2020-03-15T15:21:24.999Z</time>
      </trkpt>
      <trkpt lat="48.86312" lon="2.28499">
        <ele>91.66</ele>
        <time>2020-03-15T15:21:25.999Z</time>
      </trkpt>
      <trkpt lat="48.8631" lon="2.28508">
        <ele>90.99</ele>
        <time>2020-03-15T15:21:26.999Z</time>
      </trkpt>
      <trkpt lat="48.86308" lon="2.28516">
        <ele>90.51</ele>
        <time>2020-03-15T15:21:27.999Z</time>
      </trkpt>
      <trkpt lat="48.86306" lon="2.28524">
        <ele>90.28</ele>
        <time>2020-03-15T15:21:28.999Z</time>
      </trkpt>
      <trkpt lat="48.86304" lon="2.28531">
        <ele>90.4</ele>
        <time>2020-03-15T15:21:29.999Z</time>
      </trkpt>
      <trkpt lat="48.86303" lon="2.28543">
        <ele>90.79</ele>
        <time>2020-03-15T15:21:30.999Z</time>
      </trkpt>
      <trkpt lat="48.86301" lon="2.28551">
        <ele>91.27</ele>
        <time>2020-03-15T15:21:31.999Z</time>
      </trkpt>
      <trkpt lat="48.86301" lon="2.28559">
        <ele>91.32</ele>
        <time>2020-03-15T15:21:32.999Z</time>
      </trkpt>
      <trkpt lat="48.863" lon="2.28564">
        <ele>91.38</ele>
        <time>2020-03-15T15:21:33.999Z</time>
      </trkpt>
      <trkpt lat="48.86298" lon="2.28571">
        <ele>91.44</ele>
        <time>2020-03-15T15:21:34.999Z</time>
      </trkpt>
      <trkpt lat="48.86297" lon="2.28576">
        <ele>91.52</ele>
        <time>2020-03-15T15:21:35.999Z</time>
      </trkpt>
      <trkpt lat="48.86295" lon="2.28579">
        <ele>91.62</ele>
        <time>2020-03-15T15:21:36.999Z</time>
      </trkpt>
      <trkpt lat="48.86292" lon="2.28581">
        <ele>91.72</ele>
        <time>2020-03-15T15:21:37.999Z</time>
      </trkpt>
      <trkpt lat="48.86289" lon="2.28586">
        <ele>92.06</ele>
        <time>2020-03-15T15:21:40.999Z</time>
      </trkpt>
      <trkpt lat="48.86288" lon="2.28588">
        <ele>92.19</ele>
        <time>2020-03-15T15:21:41.999Z</time>
      </trkpt>
      <trkpt lat="48.86287" lon="2.28591">
        <ele>92.31</ele>
        <time>2020-03-15T15:21:42.999Z</time>
      </trkpt>
      <trkpt lat="48.86287" lon="2.28592">
        <ele>92.45</ele>
        <time>2020-03-15T15:21:43.999Z</time>
      </trkpt>
      <trkpt lat="48.86286" lon="2.286">
        <ele>92.99</ele>
        <time>2020-03-15T15:22:04.999Z</time>
      </trkpt>
      <trkpt lat="48.86288" lon="2.28609">
        <ele>95.78</ele>
        <time>2020-03-15T15:22:39.999Z</time>
      </trkpt>
      <trkpt lat="48.86289" lon="2.2861">
        <ele>96.03</ele>
        <time>2020-03-15T15:22:40.999Z</time>
      </trkpt>
      <trkpt lat="48.86291" lon="2.28612">
        <ele>96.27</ele>
        <time>2020-03-15T15:22:41.999Z</time>
      </trkpt>
      <trkpt lat="48.86293" lon="2.28612">
        <ele>96.5</ele>
        <time>2020-03-15T15:22:42.999Z</time>
      </trkpt>
      <trkpt lat="48.86295" lon="2.28612">
        <ele>96.73</ele>
        <time>2020-03-15T15:22:43.999Z</time>
      </trkpt>
      <trkpt lat="48.86297" lon="2.28614">
        <ele>96.96</ele>
        <time>2020-03-15T15:22:44.999Z</time>
      </trkpt>
      <trkpt lat="48.86298" lon="2.28615">
        <ele>97.18</ele>
        <time>2020-03-15T15:22:45.999Z</time>
      </trkpt>
      <trkpt lat="48.86301" lon="2.28618">
        <ele>97.38</ele>
        <time>2020-03-15T15:22:46.999Z</time>
      </trkpt>
      <trkpt lat="48.86303" lon="2.2862">
        <ele>97.58</ele>
        <time>2020-03-15T15:22:47.999Z</time>
      </trkpt>
      <trkpt lat="48.86305" lon="2.28622">
        <ele>97.77</ele>
        <time>2020-03-15T15:22:48.999Z</time>
      </trkpt>
      <trkpt lat="48.86308" lon="2.28623">
        <ele>97.95</ele>
        <time>2020-03-15T15:22:49.999Z</time>
      </trkpt>
      <trkpt lat="48.86311" lon="2.28624">
        <ele>98.12</ele>
        <time>2020-03-15T15:22:50.999Z</time>
      </trkpt>
      <trkpt lat="48.86312" lon="2.28623">
        <ele>98.29</ele>
        <time>2020-03-15T15:22:51.999Z</time>
      </trkpt>
      <trkpt lat="48.86312" lon="2.28625">
        <ele>98.82</ele>
        <time>2020-03-15T15:22:58.999Z</time>
      </trkpt>
      <trkpt lat="48.86313" lon="2.28625">
        <ele>100.27</ele>
        <time>2020-03-15T15:23:32.999Z</time>
      </trkpt>
      <trkpt lat="48.86314" lon="2.28624">
        <ele>100.46</ele>
        <time>2020-03-15T15:23:35.999Z</time>
      </trkpt>
      <trkpt lat="48.86316" lon="2.28624">
        <ele>100.58</ele>
        <time>2020-03-15T15:23:37.999Z</time>
      </trkpt>
      <trkpt lat="48.86317" lon="2.28626">
        <ele>100.71</ele>
        <time>2020-03-15T15:23:39.999Z</time>
      </trkpt>
      <trkpt lat="48.86319" lon="2.28628">
        <ele>100.83</ele>
        <time>2020-03-15T15:23:41.999Z</time>
      </trkpt>
      <trkpt lat="48.8632" lon="2.28629">
        <ele>100.89</ele>
        <time>2020-03-15T15:23:42.999Z</time>
      </trkpt>
      <trkpt lat="48.86321" lon="2.28631">
        <ele>100.95</ele>
        <time>2020-03-15T15:23:43.999Z</time>
      </trkpt>
      <trkpt lat="48.86322" lon="2.28632">
        <ele>101</ele>
        <time>2020-03-15T15:23:44.999Z</time>
      </trkpt>
      <trkpt lat="48.86323" lon="2.28633">
        <ele>101.06</ele>
        <time>2020-03-15T15:23:45.999Z</time>
      </trkpt>
      <trkpt lat="48.86325" lon="2.28636">
        <ele>101.11</ele>
        <time>2020-03-15T15:23:46.999Z</time>
      </trkpt>
      <trkpt lat="48.86326" lon="2.28638">
        <ele>101.16</ele>
        <time>2020-03-15T15:23:47.999Z</time>
      </trkpt>
      <trkpt lat="48.86328" lon="2.28641">
        <ele>101.2</ele>
        <time>2020-03-15T15:23:48.999Z</time>
      </trkpt>
      <trkpt lat="48.8633" lon="2.28644">
        <ele>101.24</ele>
        <time>2020-03-15T15:23:49.999Z</time>
      </trkpt>
      <trkpt lat="48.86331" lon="2.28645">
        <ele>101.27</ele>
        <time>2020-03-15T15:23:50.999Z</time>
      </trkpt>
      <trkpt lat="48.86333" lon="2.28649">
        <ele>101.31</ele>
        <time>2020-03-15T15:23:51.999Z</time>
      </trkpt>
      <trkpt lat="48.86335" lon="2.28652">
        <ele>101.34</ele>
        <time>2020-03-15T15:23:52.999Z</time>
      </trkpt>
      <trkpt lat="48.86336" lon="2.28653">
        <ele>101.37</ele>
        <time>2020-03-15T15:23:53.999Z</time>
      </trkpt>
      <trkpt lat="48.86338" lon="2.28657">
        <ele>101.39</ele>
        <time>2020-03-15T15:23:54.999Z</time>
      </trkpt>
      <trkpt lat="48.8634" lon="2.2866">
        <ele>101.41</ele>
        <time>2020-03-15T15:23:55.999Z</time>
      </trkpt>
      <trkpt lat="48.86342" lon="2.28664">
        <ele>101.43</ele>
        <time>2020-03-15T15:23:56.999Z</time>
      </trkpt>
      <trkpt lat="48.86344" lon="2.28667">
        <ele>101.45</ele>
        <time>2020-03-15T15:23:57.999Z</time>
      </trkpt>
      <trkpt lat="48.86345" lon="2.2867">
        <ele>101.47</ele>
        <time>2020-03-15T15:23:58.999Z</time>
      </trkpt>
      <trkpt lat="48.86347" lon="2.28673">
        <ele>101.49</ele>
        <time>2020-03-15T15:23:59.999Z</time>
      </trkpt>
      <trkpt lat="48.86348" lon="2.28675">
        <ele>101.51</ele>
        <time>2020-03-15T15:24:00.999Z</time>
      </trkpt>
      <trkpt lat="48.86349" lon="2.28678">
        <ele>101.55</ele>
        <time>2020-03-15T15:24:02.999Z</time>
      </trkpt>
      <trkpt lat="48.86349" lon="2.28682">
        <ele>101.58</ele>
        <time>2020-03-15T15:24:04.999Z</time>
      </trkpt>
      <trkpt lat="48.86348" lon="2.28684">
        <ele>101.6</ele>
        <time>2020-03-15T15:24:05.999Z</time>
      </trkpt>
      <trkpt lat="48.86348" lon="2.28686">
        <ele>101.61</ele>
        <time>2020-03-15T15:24:06.999Z</time>
      </trkpt>
      <trkpt lat="48.86348" lon="2.28689">
        <ele>101.63</ele>
        <time>2020-03-15T15:24:07.999Z</time>
      </trkpt>
      <trkpt lat="48.86347" lon="2.28692">
        <ele>101.64</ele>
        <time>2020-03-15T15:24:08.999Z</time>
      </trkpt>
      <trkpt lat="48.86347" lon="2.28696">
        <ele>101.65</ele>
        <time>2020-03-15T15:24:09.999Z</time>
      </trkpt>
      <trkpt lat="48.86347" lon="2.287">
        <ele>101.67</ele>
        <time>2020-03-15T15:24:10.999Z</time>
      </trkpt>
      <trkpt lat="48.86347" lon="2.28703">
        <ele>101.68</ele>
        <time>2020-03-15T15:24:11.999Z</time>
      </trkpt>
      <trkpt lat="48.86348" lon="2.28708">
        <ele>101.69</ele>
        <time>2020-03-15T15:24:12.999Z</time>
      </trkpt>
      <trkpt lat="48.8635" lon="2.28712">
        <ele>101.7</ele>
        <time>2020-03-15T15:24:13.999Z</time>
      </trkpt>
      <trkpt lat="48.86351" lon="2.28716">
        <ele>101.71</ele>
        <time>2020-03-15T15:24:14.999Z</time>
      </trkpt>
      <trkpt lat="48.86352" lon="2.28719">
        <ele>101.72</ele>
        <time>2020-03-15T15:24:15.999Z</time>
      </trkpt>
      <trkpt lat="48.86354" lon="2.28723">
        <ele>101.72</ele>
        <time>2020-03-15T15:24:16.999Z</time>
      </trkpt>
      <trkpt lat="48.86356" lon="2.28726">
        <ele>101.73</ele>
        <time>2020-03-15T15:24:17.999Z</time>
      </trkpt>
      <trkpt lat="48.86356" lon="2.2873">
        <ele>101.73</ele>
        <time>2020-03-15T15:24:18.999Z</time>
      </trkpt>
      <trkpt lat="48.86355" lon="2.28734">
        <ele>101.73</ele>
        <time>2020-03-15T15:24:19.999Z</time>
      </trkpt>
      <trkpt lat="48.86355" lon="2.28737">
        <ele>101.73</ele>
        <time>2020-03-15T15:24:20.999Z</time>
      </trkpt>
      <trkpt lat="48.86355" lon="2.28739">
        <ele>101.73</ele>
        <time>2020-03-15T15:24:21.999Z</time>
      </trkpt>
      <trkpt lat="48.86356" lon="2.28742">
        <ele>101.73</ele>
        <time>2020-03-15T15:24:22.999Z</time>
      </trkpt>
      <trkpt lat="48.86359" lon="2.28742">
        <ele>101.72</ele>
        <time>2020-03-15T15:24:23.999Z</time>
      </trkpt>
      <trkpt lat="48.86361" lon="2.28743">
        <ele>101.71</ele>
        <time>2020-03-15T15:24:24.999Z</time>
      </trkpt>
      <trkpt lat="48.86364" lon="2.28746">
        <ele>101.69</ele>
        <time>2020-03-15T15:24:25.999Z</time>
      </trkpt>
      <trkpt lat="48.86367" lon="2.2875">
        <ele>101.67</ele>
        <time>2020-03-15T15:24:26.999Z</time>
      </trkpt>
      <trkpt lat="48.86372" lon="2.28753">
        <ele>101.65</ele>
        <time>2020-03-15T15:24:27.999Z</time>
      </trkpt>
      <trkpt lat="48.86377" lon="2.28754">
        <ele>101.62</ele>
        <time>2020-03-15T15:24:28.999Z</time>
      </trkpt>
      <trkpt lat="48.86382" lon="2.28758">
        <ele>101.58</ele>
        <time>2020-03-15T15:24:29.999Z</time>
      </trkpt>
      <trkpt lat="48.86386" lon="2.28762">
        <ele>101.55</ele>
        <time>2020-03-15T15:24:30.999Z</time>
      </trkpt>
      <trkpt lat="48.86392" lon="2.28767">
        <ele>101.51</ele>
        <time>2020-03-15T15:24:31.999Z</time>
      </trkpt>
      <trkpt lat="48.86398" lon="2.28774">
        <ele>101.47</ele>
        <time>2020-03-15T15:24:32.999Z</time>
      </trkpt>
      <trkpt lat="48.86403" lon="2.28779">
        <ele>101.42</ele>
        <time>2020-03-15T15:24:33.999Z</time>
      </trkpt>
      <trkpt lat="48.86406" lon="2.28783">
        <ele>101.38</ele>
        <time>2020-03-15T15:24:34.999Z</time>
      </trkpt>
      <trkpt lat="48.86411" lon="2.28788">
        <ele>100.95</ele>
        <time>2020-03-15T15:24:35.999Z</time>
      </trkpt>
      <trkpt lat="48.86415" lon="2.28793">
        <ele>100.6</ele>
        <time>2020-03-15T15:24:36.999Z</time>
      </trkpt>
      <trkpt lat="48.8642" lon="2.28796">
        <ele>100.31</ele>
        <time>2020-03-15T15:24:37.999Z</time>
      </trkpt>
      <trkpt lat="48.86424" lon="2.288">
        <ele>100.07</ele>
        <time>2020-03-15T15:24:38.999Z</time>
      </trkpt>
      <trkpt lat="48.86428" lon="2.28804">
        <ele>99.86</ele>
        <time>2020-03-15T15:24:39.999Z</time>
      </trkpt>
      <trkpt lat="48.86431" lon="2.28809">
        <ele>99.7</ele>
        <time>2020-03-15T15:24:40.999Z</time>
      </trkpt>
      <trkpt lat="48.86434" lon="2.28813">
        <ele>99.56</ele>
        <time>2020-03-15T15:24:41.999Z</time>
      </trkpt>
      <trkpt lat="48.86438" lon="2.28817">
        <ele>99.43</ele>
        <time>2020-03-15T15:24:42.999Z</time>
      </trkpt>
      <trkpt lat="48.86442" lon="2.28821">
        <ele>99.32</ele>
        <time>2020-03-15T15:24:43.999Z</time>
      </trkpt>
      <trkpt lat="48.86446" lon="2.28825">
        <ele>99.22</ele>
        <time>2020-03-15T15:24:44.999Z</time>
      </trkpt>
      <trkpt lat="48.86451" lon="2.28828">
        <ele>99.06</ele>
        <time>2020-03-15T15:24:45.999Z</time>
      </trkpt>
      <trkpt lat="48.86456" lon="2.28831">
        <ele>98.85</ele>
        <time>2020-03-15T15:24:46.999Z</time>
      </trkpt>
      <trkpt lat="48.86461" lon="2.28836">
        <ele>98.69</ele>
        <time>2020-03-15T15:24:47.999Z</time>
      </trkpt>
      <trkpt lat="48.86466" lon="2.28839">
        <ele>98.43</ele>
        <time>2020-03-15T15:24:48.999Z</time>
      </trkpt>
      <trkpt lat="48.86471" lon="2.28843">
        <ele>98.12</ele>
        <time>2020-03-15T15:24:49.999Z</time>
      </trkpt>
      <trkpt lat="48.86475" lon="2.28847">
        <ele>98.09</ele>
        <time>2020-03-15T15:24:50.999Z</time>
      </trkpt>
      <trkpt lat="48.86478" lon="2.28849">
        <ele>98.05</ele>
        <time>2020-03-15T15:24:51.999Z</time>
      </trkpt>
      <trkpt lat="48.86482" lon="2.28852">
        <ele>97.64</ele>
        <time>2020-03-15T15:24:52.999Z</time>
      </trkpt>
      <trkpt lat="48.86487" lon="2.28856">
        <ele>97.29</ele>
        <time>2020-03-15T15:24:53.999Z</time>
      </trkpt>
      <trkpt lat="48.86492" lon="2.28859">
        <ele>96.97</ele>
        <time>2020-03-15T15:24:54.999Z</time>
      </trkpt>
      <trkpt lat="48.86496" lon="2.28863">
        <ele>96.7</ele>
        <time>2020-03-15T15:24:55.999Z</time>
      </trkpt>
      <trkpt lat="48.865" lon="2.28866">
        <ele>96.41</ele>
        <time>2020-03-15T15:24:56.999Z</time>
      </trkpt>
      <trkpt lat="48.86505" lon="2.2887">
        <ele>96.17</ele>
        <time>2020-03-15T15:24:57.999Z</time>
      </trkpt>
      <trkpt lat="48.86509" lon="2.28873">
        <ele>95.93</ele>
        <time>2020-03-15T15:24:58.999Z</time>
      </trkpt>
      <trkpt lat="48.86514" lon="2.28875">
        <ele>95.74</ele>
        <time>2020-03-15T15:24:59.999Z</time>
      </trkpt>
      <trkpt lat="48.86519" lon="2.28876">
        <ele>95.56</ele>
        <time>2020-03-15T15:25:00.999Z</time>
      </trkpt>
      <trkpt lat="48.86523" lon="2.28879">
        <ele>95.39</ele>
        <time>2020-03-15T15:25:01.999Z</time>
      </trkpt>
      <trkpt lat="48.86526" lon="2.28881">
        <ele>95.37</ele>
        <time>2020-03-15T15:25:02.999Z</time>
      </trkpt>
      <trkpt lat="48.86529" lon="2.28884">
        <ele>95.35</ele>
        <time>2020-03-15T15:25:03.999Z</time>
      </trkpt>
      <trkpt lat="48.86532" lon="2.28886">
        <ele>95.33</ele>
        <time>2020-03-15T15:25:04.999Z</time>
      </trkpt>
      <trkpt lat="48.86535" lon="2.28889">
        <ele>95.3</ele>
        <time>2020-03-15T15:25:05.999Z</time>
      </trkpt>
      <trkpt lat="48.86538" lon="2.2889">
        <ele>95.28</ele>
        <time>2020-03-15T15:25:06.999Z</time>
      </trkpt>
      <trkpt lat="48.86541" lon="2.28893">
        <ele>95.25</ele>
        <time>2020-03-15T15:25:07.999Z</time>
      </trkpt>
      <trkpt lat="48.86544" lon="2.28897">
        <ele>95.23</ele>
        <time>2020-03-15T15:25:08.999Z</time>
      </trkpt>
      <trkpt lat="48.86547" lon="2.289">
        <ele>95.2</ele>
        <time>2020-03-15T15:25:09.999Z</time>
      </trkpt>
      <trkpt lat="48.8655" lon="2.28904">
        <ele>95.16</ele>
        <time>2020-03-15T15:25:10.999Z</time>
      </trkpt>
      <trkpt lat="48.86553" lon="2.28906">
        <ele>95.13</ele>
        <time>2020-03-15T15:25:11.999Z</time>
      </trkpt>
      <trkpt lat="48.86557" lon="2.28908">
        <ele>95.09</ele>
        <time>2020-03-15T15:25:12.999Z</time>
      </trkpt>
      <trkpt lat="48.86561" lon="2.2891">
        <ele>95.05</ele>
        <time>2020-03-15T15:25:13.999Z</time>
      </trkpt>
      <trkpt lat="48.86565" lon="2.28913">
        <ele>95.01</ele>
        <time>2020-03-15T15:25:14.999Z</time>
      </trkpt>
      <trkpt lat="48.86568" lon="2.28916">
        <ele>94.96</ele>
        <time>2020-03-15T15:25:15.999Z</time>
      </trkpt>
      <trkpt lat="48.8657" lon="2.28918">
        <ele>94.91</ele>
        <time>2020-03-15T15:25:16.999Z</time>
      </trkpt>
      <trkpt lat="48.86574" lon="2.28921">
        <ele>94.87</ele>
        <time>2020-03-15T15:25:17.999Z</time>
      </trkpt>
      <trkpt lat="48.86577" lon="2.28923">
        <ele>94.81</ele>
        <time>2020-03-15T15:25:18.999Z</time>
      </trkpt>
      <trkpt lat="48.8658" lon="2.28925">
        <ele>94.77</ele>
        <time>2020-03-15T15:25:19.999Z</time>
      </trkpt>
      <trkpt lat="48.86583" lon="2.28925">
        <ele>94.72</ele>
        <time>2020-03-15T15:25:20.999Z</time>
      </trkpt>
      <trkpt lat="48.86585" lon="2.28927">
        <ele>94.67</ele>
        <time>2020-03-15T15:25:21.999Z</time>
      </trkpt>
      <trkpt lat="48.86588" lon="2.28929">
        <ele>94.62</ele>
        <time>2020-03-15T15:25:22.999Z</time>
      </trkpt>
      <trkpt lat="48.86591" lon="2.28932">
        <ele>94.57</ele>
        <time>2020-03-15T15:25:23.999Z</time>
      </trkpt>
      <trkpt lat="48.86595" lon="2.28934">
        <ele>94.52</ele>
        <time>2020-03-15T15:25:24.999Z</time>
      </trkpt>
      <trkpt lat="48.86598" lon="2.28937">
        <ele>94.46</ele>
        <time>2020-03-15T15:25:25.999Z</time>
      </trkpt>
      <trkpt lat="48.86601" lon="2.28939">
        <ele>94.37</ele>
        <time>2020-03-15T15:25:26.999Z</time>
      </trkpt>
      <trkpt lat="48.86604" lon="2.28944">
        <ele>94.28</ele>
        <time>2020-03-15T15:25:27.999Z</time>
      </trkpt>
      <trkpt lat="48.86608" lon="2.28948">
        <ele>94.17</ele>
        <time>2020-03-15T15:25:28.999Z</time>
      </trkpt>
      <trkpt lat="48.86612" lon="2.28954">
        <ele>94.05</ele>
        <time>2020-03-15T15:25:29.999Z</time>
      </trkpt>
      <trkpt lat="48.86615" lon="2.28958">
        <ele>92.8</ele>
        <time>2020-03-15T15:25:30.999Z</time>
      </trkpt>
      <trkpt lat="48.86618" lon="2.28961">
        <ele>91.59</ele>
        <time>2020-03-15T15:25:31.999Z</time>
      </trkpt>
      <trkpt lat="48.86622" lon="2.28963">
        <ele>91.46</ele>
        <time>2020-03-15T15:25:32.999Z</time>
      </trkpt>
      <trkpt lat="48.86625" lon="2.28968">
        <ele>90.29</ele>
        <time>2020-03-15T15:25:33.999Z</time>
      </trkpt>
      <trkpt lat="48.86631" lon="2.28974">
        <ele>90.19</ele>
        <time>2020-03-15T15:25:34.999Z</time>
      </trkpt>
      <trkpt lat="48.86635" lon="2.28977">
        <ele>88.78</ele>
        <time>2020-03-15T15:25:35.999Z</time>
      </trkpt>
      <trkpt lat="48.8664" lon="2.28981">
        <ele>88.65</ele>
        <time>2020-03-15T15:25:36.999Z</time>
      </trkpt>
      <trkpt lat="48.86644" lon="2.28984">
        <ele>87.39</ele>
        <time>2020-03-15T15:25:37.999Z</time>
      </trkpt>
      <trkpt lat="48.8665" lon="2.28988">
        <ele>86.45</ele>
        <time>2020-03-15T15:25:38.999Z</time>
      </trkpt>
      <trkpt lat="48.86655" lon="2.28989">
        <ele>85.78</ele>
        <time>2020-03-15T15:25:39.999Z</time>
      </trkpt>
      <trkpt lat="48.86661" lon="2.28994">
        <ele>85.26</ele>
        <time>2020-03-15T15:25:40.999Z</time>
      </trkpt>
      <trkpt lat="48.86667" lon="2.28996">
        <ele>84.8</ele>
        <time>2020-03-15T15:25:41.999Z</time>
      </trkpt>
      <trkpt lat="48.86672" lon="2.29001">
        <ele>84.61</ele>
        <time>2020-03-15T15:25:42.999Z</time>
      </trkpt>
      <trkpt lat="48.86678" lon="2.29005">
        <ele>84.6</ele>
        <time>2020-03-15T15:25:43.999Z</time>
      </trkpt>
      <trkpt lat="48.86682" lon="2.29009">
        <ele>84.38</ele>
        <time>2020-03-15T15:25:44.999Z</time>
      </trkpt>
      <trkpt lat="48.86686" lon="2.29011">
        <ele>84.19</ele>
        <time>2020-03-15T15:25:45.999Z</time>
      </trkpt>
      <trkpt lat="48.86691" lon="2.29014">
        <ele>83.74</ele>
        <time>2020-03-15T15:25:46.999Z</time>
      </trkpt>
      <trkpt lat="48.86697" lon="2.29017">
        <ele>83.25</ele>
        <time>2020-03-15T15:25:47.999Z</time>
      </trkpt>
      <trkpt lat="48.86701" lon="2.2902">
        <ele>83.01</ele>
        <time>2020-03-15T15:25:48.999Z</time>
      </trkpt>
      <trkpt lat="48.86705" lon="2.29023">
        <ele>82.92</ele>
        <time>2020-03-15T15:25:49.999Z</time>
      </trkpt>
      <trkpt lat="48.86709" lon="2.29026">
        <ele>82.7</ele>
        <time>2020-03-15T15:25:50.999Z</time>
      </trkpt>
      <trkpt lat="48.86713" lon="2.2903">
        <ele>82.64</ele>
        <time>2020-03-15T15:25:51.999Z</time>
      </trkpt>
      <trkpt lat="48.86718" lon="2.29033">
        <ele>82.42</ele>
        <time>2020-03-15T15:25:52.999Z</time>
      </trkpt>
      <trkpt lat="48.86724" lon="2.29035">
        <ele>81.73</ele>
        <time>2020-03-15T15:25:53.999Z</time>
      </trkpt>
      <trkpt lat="48.86729" lon="2.29037">
        <ele>81.46</ele>
        <time>2020-03-15T15:25:54.999Z</time>
      </trkpt>
      <trkpt lat="48.86734" lon="2.29039">
        <ele>80.87</ele>
        <time>2020-03-15T15:25:55.999Z</time>
      </trkpt>
      <trkpt lat="48.86738" lon="2.29042">
        <ele>80.11</ele>
        <time>2020-03-15T15:25:56.999Z</time>
      </trkpt>
      <trkpt lat="48.86742" lon="2.29045">
        <ele>79.59</ele>
        <time>2020-03-15T15:25:57.999Z</time>
      </trkpt>
      <trkpt lat="48.86747" lon="2.29049">
        <ele>79.08</ele>
        <time>2020-03-15T15:25:58.999Z</time>
      </trkpt>
      <trkpt lat="48.86752" lon="2.29052">
        <ele>78.66</ele>
        <time>2020-03-15T15:25:59.999Z</time>
      </trkpt>
      <trkpt lat="48.86757" lon="2.29055">
        <ele>78.12</ele>
        <time>2020-03-15T15:26:00.999Z</time>
      </trkpt>
      <trkpt lat="48.86761" lon="2.29058">
        <ele>78.69</ele>
        <time>2020-03-15T15:26:01.999Z</time>
      </trkpt>
      <trkpt lat="48.86764" lon="2.29062">
        <ele>78.92</ele>
        <time>2020-03-15T15:26:02.999Z</time>
      </trkpt>
      <trkpt lat="48.86769" lon="2.29066">
        <ele>79.27</ele>
        <time>2020-03-15T15:26:03.999Z</time>
      </trkpt>
      <trkpt lat="48.86773" lon="2.2907">
        <ele>79.9</ele>
        <time>2020-03-15T15:26:04.999Z</time>
      </trkpt>
      <trkpt lat="48.86778" lon="2.29075">
        <ele>80.4</ele>
        <time>2020-03-15T15:26:05.999Z</time>
      </trkpt>
      <trkpt lat="48.86783" lon="2.29082">
        <ele>80.78</ele>
        <time>2020-03-15T15:26:06.999Z</time>
      </trkpt>
      <trkpt lat="48.86786" lon="2.29087">
        <ele>81.04</ele>
        <time>2020-03-15T15:26:07.999Z</time>
      </trkpt>
      <trkpt lat="48.86791" lon="2.2909">
        <ele>81.44</ele>
        <time>2020-03-15T15:26:08.999Z</time>
      </trkpt>
      <trkpt lat="48.86795" lon="2.29094">
        <ele>81.89</ele>
        <time>2020-03-15T15:26:09.999Z</time>
      </trkpt>
      <trkpt lat="48.86799" lon="2.29097">
        <ele>81.74</ele>
        <time>2020-03-15T15:26:10.999Z</time>
      </trkpt>
      <trkpt lat="48.86802" lon="2.29102">
        <ele>81.63</ele>
        <time>2020-03-15T15:26:11.999Z</time>
      </trkpt>
      <trkpt lat="48.86806" lon="2.29104">
        <ele>81.38</ele>
        <time>2020-03-15T15:26:12.999Z</time>
      </trkpt>
      <trkpt lat="48.86811" lon="2.2911">
        <ele>81.18</ele>
        <time>2020-03-15T15:26:13.999Z</time>
      </trkpt>
      <trkpt lat="48.8682" lon="2.29115">
        <ele>81.12</ele>
        <time>2020-03-15T15:26:14.999Z</time>
      </trkpt>
      <trkpt lat="48.86827" lon="2.29119">
        <ele>81.21</ele>
        <time>2020-03-15T15:26:15.999Z</time>
      </trkpt>
      <trkpt lat="48.86835" lon="2.29126">
        <ele>81.47</ele>
        <time>2020-03-15T15:26:16.999Z</time>
      </trkpt>
      <trkpt lat="48.86842" lon="2.29131">
        <ele>81.56</ele>
        <time>2020-03-15T15:26:17.999Z</time>
      </trkpt>
      <trkpt lat="48.86849" lon="2.29136">
        <ele>81.61</ele>
        <time>2020-03-15T15:26:18.999Z</time>
      </trkpt>
      <trkpt lat="48.86854" lon="2.29139">
        <ele>81.72</ele>
        <time>2020-03-15T15:26:19.999Z</time>
      </trkpt>
      <trkpt lat="48.8686" lon="2.29142">
        <ele>82.24</ele>
        <time>2020-03-15T15:26:20.999Z</time>
      </trkpt>
      <trkpt lat="48.86869" lon="2.29145">
        <ele>82.73</ele>
        <time>2020-03-15T15:26:21.999Z</time>
      </trkpt>
      <trkpt lat="48.86875" lon="2.29148">
        <ele>83.29</ele>
        <time>2020-03-15T15:26:22.999Z</time>
      </trkpt>
      <trkpt lat="48.86882" lon="2.2915">
        <ele>83.4</ele>
        <time>2020-03-15T15:26:23.999Z</time>
      </trkpt>
      <trkpt lat="48.86888" lon="2.29153">
        <ele>84.04</ele>
        <time>2020-03-15T15:26:24.999Z</time>
      </trkpt>
      <trkpt lat="48.86893" lon="2.29154">
        <ele>84.06</ele>
        <time>2020-03-15T15:26:25.999Z</time>
      </trkpt>
      <trkpt lat="48.86897" lon="2.29156">
        <ele>83.81</ele>
        <time>2020-03-15T15:26:26.999Z</time>
      </trkpt>
      <trkpt lat="48.86902" lon="2.29159">
        <ele>84.25</ele>
        <time>2020-03-15T15:26:27.999Z</time>
      </trkpt>
      <trkpt lat="48.86906" lon="2.29163">
        <ele>84.43</ele>
        <time>2020-03-15T15:26:28.999Z</time>
      </trkpt>
      <trkpt lat="48.86911" lon="2.29168">
        <ele>84.47</ele>
        <time>2020-03-15T15:26:29.999Z</time>
      </trkpt>
      <trkpt lat="48.86919" lon="2.29173">
        <ele>84.36</ele>
        <time>2020-03-15T15:26:30.999Z</time>
      </trkpt>
      <trkpt lat="48.86924" lon="2.29178">
        <ele>84.24</ele>
        <time>2020-03-15T15:26:31.999Z</time>
      </trkpt>
      <trkpt lat="48.8693" lon="2.29182">
        <ele>83.96</ele>
        <time>2020-03-15T15:26:32.999Z</time>
      </trkpt>
      <trkpt lat="48.86937" lon="2.29187">
        <ele>83.56</ele>
        <time>2020-03-15T15:26:33.999Z</time>
      </trkpt>
      <trkpt lat="48.86941" lon="2.2919">
        <ele>83.52</ele>
        <time>2020-03-15T15:26:34.999Z</time>
      </trkpt>
      <trkpt lat="48.86945" lon="2.29194">
        <ele>83.74</ele>
        <time>2020-03-15T15:26:35.999Z</time>
      </trkpt>
      <trkpt lat="48.8695" lon="2.29199">
        <ele>83.82</ele>
        <time>2020-03-15T15:26:36.999Z</time>
      </trkpt>
      <trkpt lat="48.86954" lon="2.29203">
        <ele>83.79</ele>
        <time>2020-03-15T15:26:37.999Z</time>
      </trkpt>
      <trkpt lat="48.86958" lon="2.29205">
        <ele>83.33</ele>
        <time>2020-03-15T15:26:38.999Z</time>
      </trkpt>
      <trkpt lat="48.86963" lon="2.29209">
        <ele>83.41</ele>
        <time>2020-03-15T15:26:39.999Z</time>
      </trkpt>
      <trkpt lat="48.86968" lon="2.29213">
        <ele>83.49</ele>
        <time>2020-03-15T15:26:40.999Z</time>
      </trkpt>
      <trkpt lat="48.86975" lon="2.29219">
        <ele>83.97</ele>
        <time>2020-03-15T15:26:41.999Z</time>
      </trkpt>
      <trkpt lat="48.86983" lon="2.29226">
        <ele>84.74</ele>
        <time>2020-03-15T15:26:42.999Z</time>
      </trkpt>
      <trkpt lat="48.86989" lon="2.29232">
        <ele>85.21</ele>
        <time>2020-03-15T15:26:43.999Z</time>
      </trkpt>
      <trkpt lat="48.86993" lon="2.29237">
        <ele>85.15</ele>
        <time>2020-03-15T15:26:44.999Z</time>
      </trkpt>
      <trkpt lat="48.87" lon="2.29242">
        <ele>84.97</ele>
        <time>2020-03-15T15:26:45.999Z</time>
      </trkpt>
      <trkpt lat="48.87006" lon="2.29247">
        <ele>85.01</ele>
        <time>2020-03-15T15:26:46.999Z</time>
      </trkpt>
      <trkpt lat="48.87012" lon="2.29252">
        <ele>85.14</ele>
        <time>2020-03-15T15:26:47.999Z</time>
      </trkpt>
      <trkpt lat="48.87017" lon="2.29255">
        <ele>85.23</ele>
        <time>2020-03-15T15:26:48.999Z</time>
      </trkpt>
      <trkpt lat="48.87023" lon="2.29258">
        <ele>85.16</ele>
        <time>2020-03-15T15:26:49.999Z</time>
      </trkpt>
      <trkpt lat="48.87029" lon="2.29262">
        <ele>85.1</ele>
        <time>2020-03-15T15:26:50.999Z</time>
      </trkpt>
      <trkpt lat="48.87036" lon="2.29267">
        <ele>85.13</ele>
        <time>2020-03-15T15:26:51.999Z</time>
      </trkpt>
      <trkpt lat="48.87042" lon="2.29273">
        <ele>85.21</ele>
        <time>2020-03-15T15:26:52.999Z</time>
      </trkpt>
      <trkpt lat="48.87049" lon="2.29277">
        <ele>85.32</ele>
        <time>2020-03-15T15:26:53.999Z</time>
      </trkpt>
      <trkpt lat="48.87057" lon="2.2928">
        <ele>85.4</ele>
        <time>2020-03-15T15:26:54.999Z</time>
      </trkpt>
      <trkpt lat="48.87063" lon="2.29283">
        <ele>85.44</ele>
        <time>2020-03-15T15:26:55.999Z</time>
      </trkpt>
      <trkpt lat="48.87069" lon="2.29286">
        <ele>85.45</ele>
        <time>2020-03-15T15:26:56.999Z</time>
      </trkpt>
      <trkpt lat="48.87073" lon="2.29289">
        <ele>85.47</ele>
        <time>2020-03-15T15:26:57.999Z</time>
      </trkpt>
      <trkpt lat="48.87079" lon="2.29292">
        <ele>85.44</ele>
        <time>2020-03-15T15:26:58.999Z</time>
      </trkpt>
      <trkpt lat="48.87084" lon="2.29297">
        <ele>85.38</ele>
        <time>2020-03-15T15:26:59.999Z</time>
      </trkpt>
      <trkpt lat="48.8709" lon="2.29301">
        <ele>85.44</ele>
        <time>2020-03-15T15:27:00.999Z</time>
      </trkpt>
      <trkpt lat="48.87097" lon="2.29304">
        <ele>85.37</ele>
        <time>2020-03-15T15:27:01.999Z</time>
      </trkpt>
      <trkpt lat="48.87104" lon="2.29307">
        <ele>85.18</ele>
        <time>2020-03-15T15:27:02.999Z</time>
      </trkpt>
      <trkpt lat="48.87109" lon="2.29311">
        <ele>85.13</ele>
        <time>2020-03-15T15:27:03.999Z</time>
      </trkpt>
      <trkpt lat="48.87115" lon="2.29314">
        <ele>85.04</ele>
        <time>2020-03-15T15:27:04.999Z</time>
      </trkpt>
      <trkpt lat="48.8712" lon="2.29319">
        <ele>85.01</ele>
        <time>2020-03-15T15:27:05.999Z</time>
      </trkpt>
      <trkpt lat="48.87126" lon="2.29322">
        <ele>84.92</ele>
        <time>2020-03-15T15:27:06.999Z</time>
      </trkpt>
      <trkpt lat="48.87131" lon="2.29327">
        <ele>84.8</ele>
        <time>2020-03-15T15:27:07.999Z</time>
      </trkpt>
      <trkpt lat="48.87137" lon="2.29331">
        <ele>84.69</ele>
        <time>2020-03-15T15:27:08.999Z</time>
      </trkpt>
      <trkpt lat="48.87142" lon="2.29336">
        <ele>84.63</ele>
        <time>2020-03-15T15:27:09.999Z</time>
      </trkpt>
      <trkpt lat="48.87146" lon="2.29342">
        <ele>84.56</ele>
        <time>2020-03-15T15:27:10.999Z</time>
      </trkpt>
      <trkpt lat="48.87152" lon="2.29346">
        <ele>84.47</ele>
        <time>2020-03-15T15:27:11.999Z</time>
      </trkpt>
      <trkpt lat="48.87157" lon="2.29351">
        <ele>84.31</ele>
        <time>2020-03-15T15:27:12.999Z</time>
      </trkpt>
      <trkpt lat="48.87162" lon="2.29356">
        <ele>84.15</ele>
        <time>2020-03-15T15:27:13.999Z</time>
      </trkpt>
      <trkpt lat="48.87167" lon="2.29361">
        <ele>83.97</ele>
        <time>2020-03-15T15:27:14.999Z</time>
      </trkpt>
      <trkpt lat="48.87172" lon="2.29365">
        <ele>83.84</ele>
        <time>2020-03-15T15:27:15.999Z</time>
      </trkpt>
      <trkpt lat="48.87177" lon="2.29369">
        <ele>83.62</ele>
        <time>2020-03-15T15:27:16.999Z</time>
      </trkpt>
      <trkpt lat="48.87181" lon="2.29373">
        <ele>83.54</ele>
        <time>2020-03-15T15:27:17.999Z</time>
      </trkpt>
      <trkpt lat="48.87186" lon="2.29376">
        <ele>83.43</ele>
        <time>2020-03-15T15:27:18.999Z</time>
      </trkpt>
      <trkpt lat="48.87191" lon="2.29379">
        <ele>83.31</ele>
        <time>2020-03-15T15:27:19.999Z</time>
      </trkpt>
      <trkpt lat="48.87195" lon="2.29383">
        <ele>83.22</ele>
        <time>2020-03-15T15:27:20.999Z</time>
      </trkpt>
      <trkpt lat="48.87199" lon="2.29386">
        <ele>83.14</ele>
        <time>2020-03-15T15:27:21.999Z</time>
      </trkpt>
      <trkpt lat="48.87204" lon="2.2939">
        <ele>83.06</ele>
        <time>2020-03-15T15:27:22.999Z</time>
      </trkpt>
      <trkpt lat="48.87209" lon="2.29394">
        <ele>83.16</ele>
        <time>2020-03-15T15:27:23.999Z</time>
      </trkpt>
      <trkpt lat="48.87214" lon="2.29399">
        <ele>83.24</ele>
        <time>2020-03-15T15:27:24.999Z</time>
      </trkpt>
      <trkpt lat="48.87219" lon="2.29403">
        <ele>83.31</ele>
        <time>2020-03-15T15:27:25.999Z</time>
      </trkpt>
      <trkpt lat="48.87223" lon="2.29406">
        <ele>83.32</ele>
        <time>2020-03-15T15:27:26.999Z</time>
      </trkpt>
      <trkpt lat="48.87226" lon="2.29409">
        <ele>83.34</ele>
        <time>2020-03-15T15:27:27.999Z</time>
      </trkpt>
      <trkpt lat="48.87229" lon="2.29411">
        <ele>83.35</ele>
        <time>2020-03-15T15:27:28.999Z</time>
      </trkpt>
      <trkpt lat="48.87232" lon="2.29417">
        <ele>82.85</ele>
        <time>2020-03-15T15:27:29.999Z</time>
      </trkpt>
      <trkpt lat="48.87235" lon="2.29423">
        <ele>82.85</ele>
        <time>2020-03-15T15:27:30.999Z</time>
      </trkpt>
      <trkpt lat="48.87238" lon="2.29427">
        <ele>82.84</ele>
        <time>2020-03-15T15:27:31.999Z</time>
      </trkpt>
      <trkpt lat="48.87242" lon="2.2943">
        <ele>82.85</ele>
        <time>2020-03-15T15:27:32.999Z</time>
      </trkpt>
      <trkpt lat="48.87245" lon="2.29432">
        <ele>82.87</ele>
        <time>2020-03-15T15:27:33.999Z</time>
      </trkpt>
      <trkpt lat="48.87249" lon="2.29434">
        <ele>82.91</ele>
        <time>2020-03-15T15:27:34.999Z</time>
      </trkpt>
      <trkpt lat="48.87253" lon="2.29436">
        <ele>82.97</ele>
        <time>2020-03-15T15:27:35.999Z</time>
      </trkpt>
      <trkpt lat="48.87255" lon="2.29437">
        <ele>83.04</ele>
        <time>2020-03-15T15:27:36.999Z</time>
      </trkpt>
      <trkpt lat="48.87257" lon="2.2944">
        <ele>83.1</ele>
        <time>2020-03-15T15:27:37.999Z</time>
      </trkpt>
      <trkpt lat="48.8726" lon="2.29444">
        <ele>83.17</ele>
        <time>2020-03-15T15:27:38.999Z</time>
      </trkpt>
      <trkpt lat="48.87263" lon="2.29448">
        <ele>83.25</ele>
        <time>2020-03-15T15:27:39.999Z</time>
      </trkpt>
      <trkpt lat="48.87265" lon="2.2945">
        <ele>83.33</ele>
        <time>2020-03-15T15:27:40.999Z</time>
      </trkpt>
      <trkpt lat="48.8727" lon="2.29453">
        <ele>83.42</ele>
        <time>2020-03-15T15:27:41.999Z</time>
      </trkpt>
      <trkpt lat="48.87272" lon="2.29458">
        <ele>83.5</ele>
        <time>2020-03-15T15:27:42.999Z</time>
      </trkpt>
      <trkpt lat="48.87274" lon="2.29462">
        <ele>83.59</ele>
        <time>2020-03-15T15:27:43.999Z</time>
      </trkpt>
      <trkpt lat="48.87274" lon="2.29467">
        <ele>83.68</ele>
        <time>2020-03-15T15:27:44.999Z</time>
      </trkpt>
      <trkpt lat="48.87274" lon="2.29469">
        <ele>83.78</ele>
        <time>2020-03-15T15:27:45.999Z</time>
      </trkpt>
      <trkpt lat="48.87274" lon="2.29471">
        <ele>83.88</ele>
        <time>2020-03-15T15:27:46.999Z</time>
      </trkpt>
      <trkpt lat="48.87273" lon="2.29475">
        <ele>84.05</ele>
        <time>2020-03-15T15:27:48.999Z</time>
      </trkpt>
      <trkpt lat="48.87273" lon="2.29479">
        <ele>84.14</ele>
        <time>2020-03-15T15:27:49.999Z</time>
      </trkpt>
      <trkpt lat="48.87273" lon="2.29483">
        <ele>84.22</ele>
        <time>2020-03-15T15:27:50.999Z</time>
      </trkpt>
      <trkpt lat="48.87273" lon="2.29488">
        <ele>84.31</ele>
        <time>2020-03-15T15:27:51.999Z</time>
      </trkpt>
      <trkpt lat="48.87273" lon="2.29492">
        <ele>84.4</ele>
        <time>2020-03-15T15:27:52.999Z</time>
      </trkpt>
      <trkpt lat="48.87273" lon="2.29496">
        <ele>84.49</ele>
        <time>2020-03-15T15:27:53.999Z</time>
      </trkpt>
      <trkpt lat="48.87273" lon="2.29499">
        <ele>84.58</ele>
        <time>2020-03-15T15:27:54.999Z</time>
      </trkpt>
      <trkpt lat="48.87273" lon="2.29502">
        <ele>84.67</ele>
        <time>2020-03-15T15:27:55.999Z</time>
      </trkpt>
      <trkpt lat="48.87274" lon="2.295">
        <ele>84.77</ele>
        <time>2020-03-15T15:27:56.999Z</time>
      </trkpt>
      <trkpt lat="48.87274" lon="2.29504">
        <ele>84.96</ele>
        <time>2020-03-15T15:27:58.999Z</time>
      </trkpt>
      <trkpt lat="48.87274" lon="2.29507">
        <ele>85.06</ele>
        <time>2020-03-15T15:27:59.999Z</time>
      </trkpt>
      <trkpt lat="48.87273" lon="2.29508">
        <ele>85.17</ele>
        <time>2020-03-15T15:28:00.999Z</time>
      </trkpt>
      <trkpt lat="48.87272" lon="2.2951">
        <ele>85.29</ele>
        <time>2020-03-15T15:28:01.999Z</time>
      </trkpt>
      <trkpt lat="48.87272" lon="2.29511">
        <ele>85.3</ele>
        <time>2020-03-15T15:28:02.999Z</time>
      </trkpt>
      <trkpt lat="48.87271" lon="2.29513">
        <ele>85.56</ele>
        <time>2020-03-15T15:28:04.999Z</time>
      </trkpt>
      <trkpt lat="48.87273" lon="2.29512">
        <ele>86.04</ele>
        <time>2020-03-15T15:28:10.999Z</time>
      </trkpt>
      <trkpt lat="48.87273" lon="2.29511">
        <ele>86.42</ele>
        <time>2020-03-15T15:28:17.999Z</time>
      </trkpt>
      <trkpt lat="48.87272" lon="2.29509">
        <ele>86.73</ele>
        <time>2020-03-15T15:28:20.999Z</time>
      </trkpt>
      <trkpt lat="48.87271" lon="2.29508">
        <ele>87.15</ele>
        <time>2020-03-15T15:28:23.999Z</time>
      </trkpt>
      <trkpt lat="48.87271" lon="2.29506">
        <ele>87.31</ele>
        <time>2020-03-15T15:28:25.999Z</time>
      </trkpt>
      <trkpt lat="48.8727" lon="2.29505">
        <ele>87.6</ele>
        <time>2020-03-15T15:28:28.999Z</time>
      </trkpt>
      <trkpt lat="48.8727" lon="2.29504">
        <ele>87.76</ele>
        <time>2020-03-15T15:28:30.999Z</time>
      </trkpt>
      <trkpt lat="48.8727" lon="2.29503">
        <ele>87.78</ele>
        <time>2020-03-15T15:28:32.999Z</time>
      </trkpt>
      <trkpt lat="48.87271" lon="2.29503">
        <ele>88.18</ele>
        <time>2020-03-15T15:28:45.999Z</time>
      </trkpt>
      <trkpt lat="48.87272" lon="2.29502">
        <ele>88.44</ele>
        <time>2020-03-15T15:28:48.999Z</time>
      </trkpt>
      <trkpt lat="48.87273" lon="2.29501">
        <ele>88.55</ele>
        <time>2020-03-15T15:28:49.999Z</time>
      </trkpt>
      <trkpt lat="48.87274" lon="2.29501">
        <ele>88.56</ele>
        <time>2020-03-15T15:28:50.999Z</time>
      </trkpt>
      <trkpt lat="48.87275" lon="2.295">
        <ele>88.71</ele>
        <time>2020-03-15T15:28:54.999Z</time>
      </trkpt>
      <trkpt lat="48.87273" lon="2.29501">
        <ele>88.92</ele>
        <time>2020-03-15T15:28:56.999Z</time>
      </trkpt>
      <trkpt lat="48.87272" lon="2.29504">
        <ele>89.13</ele>
        <time>2020-03-15T15:28:58.999Z</time>
      </trkpt>
      <trkpt lat="48.87272" lon="2.29506">
        <ele>89.24</ele>
        <time>2020-03-15T15:28:59.999Z</time>
      </trkpt>
      <trkpt lat="48.87271" lon="2.29508">
        <ele>89.34</ele>
        <time>2020-03-15T15:29:00.999Z</time>
      </trkpt>
      <trkpt lat="48.87272" lon="2.2951">
        <ele>89.64</ele>
        <time>2020-03-15T15:29:03.999Z</time>
      </trkpt>
      <trkpt lat="48.87271" lon="2.29512">
        <ele>89.74</ele>
        <time>2020-03-15T15:29:04.999Z</time>
      </trkpt>
      <trkpt lat="48.87271" lon="2.29514">
        <ele>89.83</ele>
        <time>2020-03-15T15:29:05.999Z</time>
      </trkpt>
      <trkpt lat="48.87272" lon="2.29517">
        <ele>89.92</ele>
        <time>2020-03-15T15:29:06.999Z</time>
      </trkpt>
      <trkpt lat="48.87273" lon="2.29519">
        <ele>90</ele>
        <time>2020-03-15T15:29:07.999Z</time>
      </trkpt>
      <trkpt lat="48.87273" lon="2.29523">
        <ele>90.09</ele>
        <time>2020-03-15T15:29:08.999Z</time>
      </trkpt>
      <trkpt lat="48.87273" lon="2.29526">
        <ele>90.17</ele>
        <time>2020-03-15T15:29:09.999Z</time>
      </trkpt>
      <trkpt lat="48.87274" lon="2.29529">
        <ele>90.25</ele>
        <time>2020-03-15T15:29:10.999Z</time>
      </trkpt>
      <trkpt lat="48.87274" lon="2.29531">
        <ele>90.33</ele>
        <time>2020-03-15T15:29:11.999Z</time>
      </trkpt>
      <trkpt lat="48.87275" lon="2.29533">
        <ele>90.41</ele>
        <time>2020-03-15T15:29:12.999Z</time>
      </trkpt>
      <trkpt lat="48.87275" lon="2.29535">
        <ele>90.49</ele>
        <time>2020-03-15T15:29:13.999Z</time>
      </trkpt>
      <trkpt lat="48.87275" lon="2.29538">
        <ele>90.57</ele>
        <time>2020-03-15T15:29:14.999Z</time>
      </trkpt>
      <trkpt lat="48.87276" lon="2.29542">
        <ele>90.65</ele>
        <time>2020-03-15T15:29:15.999Z</time>
      </trkpt>
      <trkpt lat="48.87277" lon="2.29544">
        <ele>90.72</ele>
        <time>2020-03-15T15:29:16.999Z</time>
      </trkpt>
      <trkpt lat="48.87277" lon="2.29546">
        <ele>90.8</ele>
        <time>2020-03-15T15:29:17.999Z</time>
      </trkpt>
      <trkpt lat="48.87278" lon="2.29549">
        <ele>90.87</ele>
        <time>2020-03-15T15:29:18.999Z</time>
      </trkpt>
      <trkpt lat="48.87278" lon="2.29552">
        <ele>90.95</ele>
        <time>2020-03-15T15:29:19.999Z</time>
      </trkpt>
      <trkpt lat="48.87279" lon="2.29556">
        <ele>91.02</ele>
        <time>2020-03-15T15:29:20.999Z</time>
      </trkpt>
      <trkpt lat="48.8728" lon="2.2956">
        <ele>91.09</ele>
        <time>2020-03-15T15:29:21.999Z</time>
      </trkpt>
      <trkpt lat="48.87281" lon="2.29564">
        <ele>91.15</ele>
        <time>2020-03-15T15:29:22.999Z</time>
      </trkpt>
      <trkpt lat="48.87282" lon="2.29566">
        <ele>91.21</ele>
        <time>2020-03-15T15:29:23.999Z</time>
      </trkpt>
      <trkpt lat="48.87283" lon="2.29571">
        <ele>91.28</ele>
        <time>2020-03-15T15:29:24.999Z</time>
      </trkpt>
      <trkpt lat="48.87283" lon="2.29575">
        <ele>91.34</ele>
        <time>2020-03-15T15:29:25.999Z</time>
      </trkpt>
      <trkpt lat="48.87284" lon="2.29578">
        <ele>91.4</ele>
        <time>2020-03-15T15:29:26.999Z</time>
      </trkpt>
      <trkpt lat="48.87285" lon="2.2958">
        <ele>91.45</ele>
        <time>2020-03-15T15:29:27.999Z</time>
      </trkpt>
      <trkpt lat="48.87286" lon="2.29584">
        <ele>91.51</ele>
        <time>2020-03-15T15:29:28.999Z</time>
      </trkpt>
      <trkpt lat="48.87288" lon="2.29589">
        <ele>91.57</ele>
        <time>2020-03-15T15:29:29.999Z</time>
      </trkpt>
      <trkpt lat="48.87289" lon="2.29594">
        <ele>91.62</ele>
        <time>2020-03-15T15:29:30.999Z</time>
      </trkpt>
      <trkpt lat="48.87291" lon="2.29598">
        <ele>91.67</ele>
        <time>2020-03-15T15:29:31.999Z</time>
      </trkpt>
      <trkpt lat="48.87293" lon="2.296">
        <ele>91.73</ele>
        <time>2020-03-15T15:29:32.999Z</time>
      </trkpt>
      <trkpt lat="48.87294" lon="2.29603">
        <ele>91.78</ele>
        <time>2020-03-15T15:29:33.999Z</time>
      </trkpt>
      <trkpt lat="48.87295" lon="2.29606">
        <ele>91.83</ele>
        <time>2020-03-15T15:29:34.999Z</time>
      </trkpt>
      <trkpt lat="48.87296" lon="2.29609">
        <ele>91.88</ele>
        <time>2020-03-15T15:29:35.999Z</time>
      </trkpt>
      <trkpt lat="48.87297" lon="2.29611">
        <ele>91.92</ele>
        <time>2020-03-15T15:29:36.999Z</time>
      </trkpt>
      <trkpt lat="48.87299" lon="2.29611">
        <ele>91.97</ele>
        <time>2020-03-15T15:29:37.999Z</time>
      </trkpt>
      <trkpt lat="48.87301" lon="2.29613">
        <ele>92.02</ele>
        <time>2020-03-15T15:29:38.999Z</time>
      </trkpt>
      <trkpt lat="48.87303" lon="2.29617">
        <ele>92.06</ele>
        <time>2020-03-15T15:29:39.999Z</time>
      </trkpt>
      <trkpt lat="48.87304" lon="2.29619">
        <ele>92.11</ele>
        <time>2020-03-15T15:29:40.999Z</time>
      </trkpt>
      <trkpt lat="48.87304" lon="2.2962">
        <ele>92.15</ele>
        <time>2020-03-15T15:29:41.999Z</time>
      </trkpt>
      <trkpt lat="48.87305" lon="2.29621">
        <ele>92.19</ele>
        <time>2020-03-15T15:29:42.999Z</time>
      </trkpt>
      <trkpt lat="48.87306" lon="2.29623">
        <ele>92.24</ele>
        <time>2020-03-15T15:29:43.999Z</time>
      </trkpt>
      <trkpt lat="48.87307" lon="2.29626">
        <ele>92.28</ele>
        <time>2020-03-15T15:29:44.999Z</time>
      </trkpt>
      <trkpt lat="48.87308" lon="2.29628">
        <ele>92.33</ele>
        <time>2020-03-15T15:29:45.999Z</time>
      </trkpt>
      <trkpt lat="48.8731" lon="2.29631">
        <ele>92.37</ele>
        <time>2020-03-15T15:29:46.999Z</time>
      </trkpt>
      <trkpt lat="48.87311" lon="2.29633">
        <ele>92.41</ele>
        <time>2020-03-15T15:29:47.999Z</time>
      </trkpt>
      <trkpt lat="48.87311" lon="2.29635">
        <ele>92.45</ele>
        <time>2020-03-15T15:29:48.999Z</time>
      </trkpt>
      <trkpt lat="48.87312" lon="2.29637">
        <ele>92.49</ele>
        <time>2020-03-15T15:29:49.999Z</time>
      </trkpt>
      <trkpt lat="48.87313" lon="2.2964">
        <ele>92.52</ele>
        <time>2020-03-15T15:29:50.999Z</time>
      </trkpt>
      <trkpt lat="48.87314" lon="2.29641">
        <ele>92.56</ele>
        <time>2020-03-15T15:29:51.999Z</time>
      </trkpt>
      <trkpt lat="48.87314" lon="2.29642">
        <ele>92.6</ele>
        <time>2020-03-15T15:29:52.999Z</time>
      </trkpt>
      <trkpt lat="48.87315" lon="2.29641">
        <ele>92.71</ele>
        <time>2020-03-15T15:29:55.999Z</time>
      </trkpt>
      <trkpt lat="48.87315" lon="2.2964">
        <ele>92.79</ele>
        <time>2020-03-15T15:30:10.999Z</time>
      </trkpt>
      <trkpt lat="48.87315" lon="2.29642">
        <ele>92.98</ele>
        <time>2020-03-15T15:30:14.999Z</time>
      </trkpt>
      <trkpt lat="48.87314" lon="2.29646">
        <ele>93.1</ele>
        <time>2020-03-15T15:30:16.999Z</time>
      </trkpt>
      <trkpt lat="48.87313" lon="2.29649">
        <ele>93.16</ele>
        <time>2020-03-15T15:30:17.999Z</time>
      </trkpt>
      <trkpt lat="48.87313" lon="2.29651">
        <ele>93.21</ele>
        <time>2020-03-15T15:30:18.999Z</time>
      </trkpt>
      <trkpt lat="48.87312" lon="2.29655">
        <ele>93.26</ele>
        <time>2020-03-15T15:30:19.999Z</time>
      </trkpt>
      <trkpt lat="48.8731" lon="2.29659">
        <ele>93.3</ele>
        <time>2020-03-15T15:30:20.999Z</time>
      </trkpt>
      <trkpt lat="48.87309" lon="2.29663">
        <ele>93.34</ele>
        <time>2020-03-15T15:30:21.999Z</time>
      </trkpt>
      <trkpt lat="48.87308" lon="2.29668">
        <ele>93.38</ele>
        <time>2020-03-15T15:30:22.999Z</time>
      </trkpt>
      <trkpt lat="48.87307" lon="2.29673">
        <ele>93.41</ele>
        <time>2020-03-15T15:30:23.999Z</time>
      </trkpt>
      <trkpt lat="48.87306" lon="2.29679">
        <ele>93.44</ele>
        <time>2020-03-15T15:30:24.999Z</time>
      </trkpt>
      <trkpt lat="48.87306" lon="2.29684">
        <ele>93.47</ele>
        <time>2020-03-15T15:30:25.999Z</time>
      </trkpt>
      <trkpt lat="48.87306" lon="2.29689">
        <ele>93.49</ele>
        <time>2020-03-15T15:30:26.999Z</time>
      </trkpt>
      <trkpt lat="48.87306" lon="2.29695">
        <ele>93.52</ele>
        <time>2020-03-15T15:30:27.999Z</time>
      </trkpt>
      <trkpt lat="48.87306" lon="2.29701">
        <ele>93.54</ele>
        <time>2020-03-15T15:30:28.999Z</time>
      </trkpt>
      <trkpt lat="48.87305" lon="2.29706">
        <ele>93.55</ele>
        <time>2020-03-15T15:30:29.999Z</time>
      </trkpt>
      <trkpt lat="48.87303" lon="2.29712">
        <ele>93.59</ele>
        <time>2020-03-15T15:30:30.999Z</time>
      </trkpt>
      <trkpt lat="48.87302" lon="2.29718">
        <ele>93.6</ele>
        <time>2020-03-15T15:30:31.999Z</time>
      </trkpt>
      <trkpt lat="48.873" lon="2.29723">
        <ele>93.59</ele>
        <time>2020-03-15T15:30:32.999Z</time>
      </trkpt>
      <trkpt lat="48.87299" lon="2.29729">
        <ele>93.74</ele>
        <time>2020-03-15T15:30:33.999Z</time>
      </trkpt>
      <trkpt lat="48.87298" lon="2.29735">
        <ele>93.69</ele>
        <time>2020-03-15T15:30:34.999Z</time>
      </trkpt>
      <trkpt lat="48.87296" lon="2.29741">
        <ele>93.85</ele>
        <time>2020-03-15T15:30:35.999Z</time>
      </trkpt>
      <trkpt lat="48.87295" lon="2.29748">
        <ele>93.82</ele>
        <time>2020-03-15T15:30:36.999Z</time>
      </trkpt>
      <trkpt lat="48.87294" lon="2.29754">
        <ele>93.74</ele>
        <time>2020-03-15T15:30:37.999Z</time>
      </trkpt>
      <trkpt lat="48.87292" lon="2.29761">
        <ele>93.66</ele>
        <time>2020-03-15T15:30:38.999Z</time>
      </trkpt>
      <trkpt lat="48.8729" lon="2.29768">
        <ele>92.66</ele>
        <time>2020-03-15T15:30:39.999Z</time>
      </trkpt>
      <trkpt lat="48.87288" lon="2.29774">
        <ele>91.79</ele>
        <time>2020-03-15T15:30:40.999Z</time>
      </trkpt>
      <trkpt lat="48.87285" lon="2.29781">
        <ele>91.53</ele>
        <time>2020-03-15T15:30:41.999Z</time>
      </trkpt>
      <trkpt lat="48.87282" lon="2.29786">
        <ele>91.61</ele>
        <time>2020-03-15T15:30:42.999Z</time>
      </trkpt>
      <trkpt lat="48.87281" lon="2.29794">
        <ele>91.01</ele>
        <time>2020-03-15T15:30:43.999Z</time>
      </trkpt>
      <trkpt lat="48.87278" lon="2.29801">
        <ele>90.78</ele>
        <time>2020-03-15T15:30:44.999Z</time>
      </trkpt>
      <trkpt lat="48.87276" lon="2.29809">
        <ele>90.2</ele>
        <time>2020-03-15T15:30:45.999Z</time>
      </trkpt>
      <trkpt lat="48.87274" lon="2.29817">
        <ele>89.61</ele>
        <time>2020-03-15T15:30:46.999Z</time>
      </trkpt>
      <trkpt lat="48.87271" lon="2.29823">
        <ele>89.32</ele>
        <time>2020-03-15T15:30:47.999Z</time>
      </trkpt>
      <trkpt lat="48.87268" lon="2.29829">
        <ele>88.88</ele>
        <time>2020-03-15T15:30:48.999Z</time>
      </trkpt>
      <trkpt lat="48.87266" lon="2.29835">
        <ele>88.53</ele>
        <time>2020-03-15T15:30:49.999Z</time>
      </trkpt>
      <trkpt lat="48.87264" lon="2.29841">
        <ele>88.38</ele>
        <time>2020-03-15T15:30:50.999Z</time>
      </trkpt>
      <trkpt lat="48.87262" lon="2.2985">
        <ele>87.74</ele>
        <time>2020-03-15T15:30:51.999Z</time>
      </trkpt>
      <trkpt lat="48.8726" lon="2.29858">
        <ele>87.45</ele>
        <time>2020-03-15T15:30:52.999Z</time>
      </trkpt>
      <trkpt lat="48.87258" lon="2.29865">
        <ele>87.27</ele>
        <time>2020-03-15T15:30:53.999Z</time>
      </trkpt>
      <trkpt lat="48.87256" lon="2.29872">
        <ele>87.07</ele>
        <time>2020-03-15T15:30:54.999Z</time>
      </trkpt>
      <trkpt lat="48.87254" lon="2.29878">
        <ele>87.15</ele>
        <time>2020-03-15T15:30:55.999Z</time>
      </trkpt>
      <trkpt lat="48.87251" lon="2.29883">
        <ele>87.05</ele>
        <time>2020-03-15T15:30:56.999Z</time>
      </trkpt>
      <trkpt lat="48.87249" lon="2.29888">
        <ele>86.51</ele>
        <time>2020-03-15T15:30:57.999Z</time>
      </trkpt>
      <trkpt lat="48.87248" lon="2.29892">
        <ele>86.59</ele>
        <time>2020-03-15T15:30:58.999Z</time>
      </trkpt>
      <trkpt lat="48.87246" lon="2.29901">
        <ele>86.23</ele>
        <time>2020-03-15T15:30:59.999Z</time>
      </trkpt>
      <trkpt lat="48.87244" lon="2.29908">
        <ele>86.2</ele>
        <time>2020-03-15T15:31:00.999Z</time>
      </trkpt>
      <trkpt lat="48.87243" lon="2.29914">
        <ele>86.13</ele>
        <time>2020-03-15T15:31:01.999Z</time>
      </trkpt>
      <trkpt lat="48.87241" lon="2.2992">
        <ele>85.22</ele>
        <time>2020-03-15T15:31:02.999Z</time>
      </trkpt>
      <trkpt lat="48.8724" lon="2.29925">
        <ele>85.18</ele>
        <time>2020-03-15T15:31:03.999Z</time>
      </trkpt>
      <trkpt lat="48.87239" lon="2.29928">
        <ele>85.14</ele>
        <time>2020-03-15T15:31:04.999Z</time>
      </trkpt>
      <trkpt lat="48.87238" lon="2.2993">
        <ele>85.12</ele>
        <time>2020-03-15T15:31:05.999Z</time>
      </trkpt>
      <trkpt lat="48.87238" lon="2.29932">
        <ele>85.11</ele>
        <time>2020-03-15T15:31:07.999Z</time>
      </trkpt>
      <trkpt lat="48.87238" lon="2.29934">
        <ele>85.09</ele>
        <time>2020-03-15T15:31:08.999Z</time>
      </trkpt>
      <trkpt lat="48.87237" lon="2.29936">
        <ele>85.07</ele>
        <time>2020-03-15T15:31:09.999Z</time>
      </trkpt>
      <trkpt lat="48.87238" lon="2.29938">
        <ele>85.06</ele>
        <time>2020-03-15T15:31:10.999Z</time>
      </trkpt>
      <trkpt lat="48.87235" lon="2.29944">
        <ele>85.06</ele>
        <time>2020-03-15T15:31:11.999Z</time>
      </trkpt>
      <trkpt lat="48.87234" lon="2.29949">
        <ele>85.06</ele>
        <time>2020-03-15T15:31:12.999Z</time>
      </trkpt>
      <trkpt lat="48.87232" lon="2.29953">
        <ele>85.08</ele>
        <time>2020-03-15T15:31:13.999Z</time>
      </trkpt>
      <trkpt lat="48.87231" lon="2.29956">
        <ele>85.1</ele>
        <time>2020-03-15T15:31:14.999Z</time>
      </trkpt>
      <trkpt lat="48.8723" lon="2.2996">
        <ele>85.15</ele>
        <time>2020-03-15T15:31:15.999Z</time>
      </trkpt>
      <trkpt lat="48.87228" lon="2.29964">
        <ele>85.86</ele>
        <time>2020-03-15T15:31:16.999Z</time>
      </trkpt>
      <trkpt lat="48.87226" lon="2.29972">
        <ele>86.23</ele>
        <time>2020-03-15T15:31:17.999Z</time>
      </trkpt>
      <trkpt lat="48.87222" lon="2.29982">
        <ele>86.58</ele>
        <time>2020-03-15T15:31:18.999Z</time>
      </trkpt>
      <trkpt lat="48.8722" lon="2.29991">
        <ele>86.57</ele>
        <time>2020-03-15T15:31:19.999Z</time>
      </trkpt>
      <trkpt lat="48.87218" lon="2.29996">
        <ele>86.6</ele>
        <time>2020-03-15T15:31:20.999Z</time>
      </trkpt>
      <trkpt lat="48.87216" lon="2.30005">
        <ele>86.75</ele>
        <time>2020-03-15T15:31:21.999Z</time>
      </trkpt>
      <trkpt lat="48.87213" lon="2.30013">
        <ele>86.73</ele>
        <time>2020-03-15T15:31:22.999Z</time>
      </trkpt>
      <trkpt lat="48.87212" lon="2.30019">
        <ele>86.67</ele>
        <time>2020-03-15T15:31:23.999Z</time>
      </trkpt>
      <trkpt lat="48.8721" lon="2.30024">
        <ele>86.62</ele>
        <time>2020-03-15T15:31:24.999Z</time>
      </trkpt>
      <trkpt lat="48.8721" lon="2.30028">
        <ele>86.55</ele>
        <time>2020-03-15T15:31:25.999Z</time>
      </trkpt>
      <trkpt lat="48.87208" lon="2.30032">
        <ele>86.5</ele>
        <time>2020-03-15T15:31:26.999Z</time>
      </trkpt>
      <trkpt lat="48.87207" lon="2.30037">
        <ele>86.04</ele>
        <time>2020-03-15T15:31:27.999Z</time>
      </trkpt>
      <trkpt lat="48.87205" lon="2.30042">
        <ele>85.96</ele>
        <time>2020-03-15T15:31:28.999Z</time>
      </trkpt>
      <trkpt lat="48.87203" lon="2.30049">
        <ele>85.58</ele>
        <time>2020-03-15T15:31:29.999Z</time>
      </trkpt>
      <trkpt lat="48.87201" lon="2.30056">
        <ele>85.09</ele>
        <time>2020-03-15T15:31:30.999Z</time>
      </trkpt>
      <trkpt lat="48.872" lon="2.30064">
        <ele>84.65</ele>
        <time>2020-03-15T15:31:31.999Z</time>
      </trkpt>
      <trkpt lat="48.87198" lon="2.30071">
        <ele>84.33</ele>
        <time>2020-03-15T15:31:32.999Z</time>
      </trkpt>
      <trkpt lat="48.87196" lon="2.30077">
        <ele>83.89</ele>
        <time>2020-03-15T15:31:33.999Z</time>
      </trkpt>
      <trkpt lat="48.87194" lon="2.30084">
        <ele>83.52</ele>
        <time>2020-03-15T15:31:34.999Z</time>
      </trkpt>
      <trkpt lat="48.87192" lon="2.30093">
        <ele>83.29</ele>
        <time>2020-03-15T15:31:35.999Z</time>
      </trkpt>
      <trkpt lat="48.87191" lon="2.30097">
        <ele>83.23</ele>
        <time>2020-03-15T15:31:36.999Z</time>
      </trkpt>
      <trkpt lat="48.87189" lon="2.30103">
        <ele>83.34</ele>
        <time>2020-03-15T15:31:37.999Z</time>
      </trkpt>
      <trkpt lat="48.87186" lon="2.30109">
        <ele>83.56</ele>
        <time>2020-03-15T15:31:38.999Z</time>
      </trkpt>
      <trkpt lat="48.87184" lon="2.30117">
        <ele>83.75</ele>
        <time>2020-03-15T15:31:39.999Z</time>
      </trkpt>
      <trkpt lat="48.87181" lon="2.30126">
        <ele>83.88</ele>
        <time>2020-03-15T15:31:40.999Z</time>
      </trkpt>
      <trkpt lat="48.87179" lon="2.30134">
        <ele>83.98</ele>
        <time>2020-03-15T15:31:41.999Z</time>
      </trkpt>
      <trkpt lat="48.87177" lon="2.30141">
        <ele>84.01</ele>
        <time>2020-03-15T15:31:42.999Z</time>
      </trkpt>
      <trkpt lat="48.87175" lon="2.30149">
        <ele>83.99</ele>
        <time>2020-03-15T15:31:43.999Z</time>
      </trkpt>
      <trkpt lat="48.87173" lon="2.30155">
        <ele>83.9</ele>
        <time>2020-03-15T15:31:44.999Z</time>
      </trkpt>
      <trkpt lat="48.87171" lon="2.30162">
        <ele>83.73</ele>
        <time>2020-03-15T15:31:45.999Z</time>
      </trkpt>
      <trkpt lat="48.87169" lon="2.30168">
        <ele>83.75</ele>
        <time>2020-03-15T15:31:46.999Z</time>
      </trkpt>
      <trkpt lat="48.87167" lon="2.30174">
        <ele>83.92</ele>
        <time>2020-03-15T15:31:47.999Z</time>
      </trkpt>
      <trkpt lat="48.87165" lon="2.3018">
        <ele>84.07</ele>
        <time>2020-03-15T15:31:48.999Z</time>
      </trkpt>
      <trkpt lat="48.87163" lon="2.30188">
        <ele>84.16</ele>
        <time>2020-03-15T15:31:49.999Z</time>
      </trkpt>
      <trkpt lat="48.87162" lon="2.30192">
        <ele>84.31</ele>
        <time>2020-03-15T15:31:50.999Z</time>
      </trkpt>
      <trkpt lat="48.8716" lon="2.30198">
        <ele>84.42</ele>
        <time>2020-03-15T15:31:51.999Z</time>
      </trkpt>
      <trkpt lat="48.87158" lon="2.30206">
        <ele>84.54</ele>
        <time>2020-03-15T15:31:52.999Z</time>
      </trkpt>
      <trkpt lat="48.87156" lon="2.30211">
        <ele>84.64</ele>
        <time>2020-03-15T15:31:53.999Z</time>
      </trkpt>
      <trkpt lat="48.87154" lon="2.30219">
        <ele>84.69</ele>
        <time>2020-03-15T15:31:54.999Z</time>
      </trkpt>
      <trkpt lat="48.87152" lon="2.30225">
        <ele>84.82</ele>
        <time>2020-03-15T15:31:55.999Z</time>
      </trkpt>
      <trkpt lat="48.87151" lon="2.30231">
        <ele>84.83</ele>
        <time>2020-03-15T15:31:56.999Z</time>
      </trkpt>
      <trkpt lat="48.8715" lon="2.30235">
        <ele>85.05</ele>
        <time>2020-03-15T15:31:57.999Z</time>
      </trkpt>
      <trkpt lat="48.87147" lon="2.30241">
        <ele>85.2</ele>
        <time>2020-03-15T15:31:58.999Z</time>
      </trkpt>
      <trkpt lat="48.87146" lon="2.30246">
        <ele>85.52</ele>
        <time>2020-03-15T15:31:59.999Z</time>
      </trkpt>
      <trkpt lat="48.87144" lon="2.30251">
        <ele>85.84</ele>
        <time>2020-03-15T15:32:00.999Z</time>
      </trkpt>
      <trkpt lat="48.87142" lon="2.30258">
        <ele>85.97</ele>
        <time>2020-03-15T15:32:01.999Z</time>
      </trkpt>
      <trkpt lat="48.87141" lon="2.30263">
        <ele>86</ele>
        <time>2020-03-15T15:32:02.999Z</time>
      </trkpt>
      <trkpt lat="48.87139" lon="2.30268">
        <ele>85.96</ele>
        <time>2020-03-15T15:32:03.999Z</time>
      </trkpt>
      <trkpt lat="48.87137" lon="2.30273">
        <ele>85.85</ele>
        <time>2020-03-15T15:32:04.999Z</time>
      </trkpt>
      <trkpt lat="48.87136" lon="2.3028">
        <ele>85.69</ele>
        <time>2020-03-15T15:32:05.999Z</time>
      </trkpt>
      <trkpt lat="48.87133" lon="2.30287">
        <ele>85.5</ele>
        <time>2020-03-15T15:32:06.999Z</time>
      </trkpt>
      <trkpt lat="48.87131" lon="2.30296">
        <ele>85.33</ele>
        <time>2020-03-15T15:32:07.999Z</time>
      </trkpt>
      <trkpt lat="48.87129" lon="2.30301">
        <ele>85.14</ele>
        <time>2020-03-15T15:32:08.999Z</time>
      </trkpt>
      <trkpt lat="48.87127" lon="2.30306">
        <ele>84.84</ele>
        <time>2020-03-15T15:32:09.999Z</time>
      </trkpt>
      <trkpt lat="48.87125" lon="2.30312">
        <ele>84.61</ele>
        <time>2020-03-15T15:32:10.999Z</time>
      </trkpt>
      <trkpt lat="48.87124" lon="2.30316">
        <ele>84.35</ele>
        <time>2020-03-15T15:32:11.999Z</time>
      </trkpt>
      <trkpt lat="48.87123" lon="2.30321">
        <ele>84.12</ele>
        <time>2020-03-15T15:32:12.999Z</time>
      </trkpt>
      <trkpt lat="48.8712" lon="2.30329">
        <ele>84.01</ele>
        <time>2020-03-15T15:32:13.999Z</time>
      </trkpt>
      <trkpt lat="48.87118" lon="2.30336">
        <ele>83.99</ele>
        <time>2020-03-15T15:32:14.999Z</time>
      </trkpt>
      <trkpt lat="48.87116" lon="2.30341">
        <ele>83.9</ele>
        <time>2020-03-15T15:32:15.999Z</time>
      </trkpt>
      <trkpt lat="48.87114" lon="2.30348">
        <ele>83.87</ele>
        <time>2020-03-15T15:32:16.999Z</time>
      </trkpt>
      <trkpt lat="48.87112" lon="2.30353">
        <ele>83.88</ele>
        <time>2020-03-15T15:32:17.999Z</time>
      </trkpt>
      <trkpt lat="48.8711" lon="2.30359">
        <ele>83.9</ele>
        <time>2020-03-15T15:32:18.999Z</time>
      </trkpt>
      <trkpt lat="48.87108" lon="2.30365">
        <ele>83.87</ele>
        <time>2020-03-15T15:32:19.999Z</time>
      </trkpt>
      <trkpt lat="48.87106" lon="2.30371">
        <ele>83.9</ele>
        <time>2020-03-15T15:32:20.999Z</time>
      </trkpt>
      <trkpt lat="48.87105" lon="2.30376">
        <ele>83.85</ele>
        <time>2020-03-15T15:32:21.999Z</time>
      </trkpt>
      <trkpt lat="48.87102" lon="2.30384">
        <ele>84.01</ele>
        <time>2020-03-15T15:32:22.999Z</time>
      </trkpt>
      <trkpt lat="48.871" lon="2.30391">
        <ele>84.17</ele>
        <time>2020-03-15T15:32:23.999Z</time>
      </trkpt>
      <trkpt lat="48.87099" lon="2.30397">
        <ele>84.09</ele>
        <time>2020-03-15T15:32:24.999Z</time>
      </trkpt>
      <trkpt lat="48.87096" lon="2.30402">
        <ele>83.94</ele>
        <time>2020-03-15T15:32:25.999Z</time>
      </trkpt>
      <trkpt lat="48.87094" lon="2.30408">
        <ele>83.74</ele>
        <time>2020-03-15T15:32:26.999Z</time>
      </trkpt>
      <trkpt lat="48.87093" lon="2.30414">
        <ele>83.55</ele>
        <time>2020-03-15T15:32:27.999Z</time>
      </trkpt>
      <trkpt lat="48.87091" lon="2.3042">
        <ele>83.42</ele>
        <time>2020-03-15T15:32:28.999Z</time>
      </trkpt>
      <trkpt lat="48.87089" lon="2.30426">
        <ele>83.41</ele>
        <time>2020-03-15T15:32:29.999Z</time>
      </trkpt>
      <trkpt lat="48.87088" lon="2.30431">
        <ele>83.28</ele>
        <time>2020-03-15T15:32:30.999Z</time>
      </trkpt>
      <trkpt lat="48.87086" lon="2.30436">
        <ele>83.27</ele>
        <time>2020-03-15T15:32:31.999Z</time>
      </trkpt>
      <trkpt lat="48.87085" lon="2.30441">
        <ele>83.26</ele>
        <time>2020-03-15T15:32:32.999Z</time>
      </trkpt>
      <trkpt lat="48.87083" lon="2.30445">
        <ele>83.25</ele>
        <time>2020-03-15T15:32:33.999Z</time>
      </trkpt>
      <trkpt lat="48.87081" lon="2.3045">
        <ele>83.25</ele>
        <time>2020-03-15T15:32:34.999Z</time>
      </trkpt>
      <trkpt lat="48.87079" lon="2.30455">
        <ele>83.23</ele>
        <time>2020-03-15T15:32:35.999Z</time>
      </trkpt>
      <trkpt lat="48.87077" lon="2.30461">
        <ele>83.22</ele>
        <time>2020-03-15T15:32:36.999Z</time>
      </trkpt>
      <trkpt lat="48.87075" lon="2.30466">
        <ele>83.22</ele>
        <time>2020-03-15T15:32:37.999Z</time>
      </trkpt>
      <trkpt lat="48.87073" lon="2.30471">
        <ele>83.21</ele>
        <time>2020-03-15T15:32:38.999Z</time>
      </trkpt>
      <trkpt lat="48.87072" lon="2.30477">
        <ele>83.21</ele>
        <time>2020-03-15T15:32:39.999Z</time>
      </trkpt>
      <trkpt lat="48.8707" lon="2.30482">
        <ele>83.2</ele>
        <time>2020-03-15T15:32:40.999Z</time>
      </trkpt>
      <trkpt lat="48.87068" lon="2.30485">
        <ele>83.18</ele>
        <time>2020-03-15T15:32:41.999Z</time>
      </trkpt>
      <trkpt lat="48.87067" lon="2.30489">
        <ele>83.18</ele>
        <time>2020-03-15T15:32:42.999Z</time>
      </trkpt>
      <trkpt lat="48.87065" lon="2.30495">
        <ele>83.15</ele>
        <time>2020-03-15T15:32:43.999Z</time>
      </trkpt>
      <trkpt lat="48.87064" lon="2.305">
        <ele>83.13</ele>
        <time>2020-03-15T15:32:44.999Z</time>
      </trkpt>
      <trkpt lat="48.87063" lon="2.30506">
        <ele>83.12</ele>
        <time>2020-03-15T15:32:45.999Z</time>
      </trkpt>
      <trkpt lat="48.87061" lon="2.3051">
        <ele>83.1</ele>
        <time>2020-03-15T15:32:46.999Z</time>
      </trkpt>
      <trkpt lat="48.87059" lon="2.30514">
        <ele>83.08</ele>
        <time>2020-03-15T15:32:47.999Z</time>
      </trkpt>
      <trkpt lat="48.87058" lon="2.3052">
        <ele>83.03</ele>
        <time>2020-03-15T15:32:48.999Z</time>
      </trkpt>
      <trkpt lat="48.87056" lon="2.30527">
        <ele>82.99</ele>
        <time>2020-03-15T15:32:49.999Z</time>
      </trkpt>
      <trkpt lat="48.87054" lon="2.30531">
        <ele>82.94</ele>
        <time>2020-03-15T15:32:50.999Z</time>
      </trkpt>
      <trkpt lat="48.87052" lon="2.30536">
        <ele>82.89</ele>
        <time>2020-03-15T15:32:51.999Z</time>
      </trkpt>
      <trkpt lat="48.8705" lon="2.30541">
        <ele>82.84</ele>
        <time>2020-03-15T15:32:52.999Z</time>
      </trkpt>
      <trkpt lat="48.87048" lon="2.30546">
        <ele>82.79</ele>
        <time>2020-03-15T15:32:53.999Z</time>
      </trkpt>
      <trkpt lat="48.87046" lon="2.30551">
        <ele>82.75</ele>
        <time>2020-03-15T15:32:54.999Z</time>
      </trkpt>
      <trkpt lat="48.87045" lon="2.30556">
        <ele>82.69</ele>
        <time>2020-03-15T15:32:55.999Z</time>
      </trkpt>
      <trkpt lat="48.87043" lon="2.30561">
        <ele>82.64</ele>
        <time>2020-03-15T15:32:56.999Z</time>
      </trkpt>
      <trkpt lat="48.87042" lon="2.30566">
        <ele>82.58</ele>
        <time>2020-03-15T15:32:57.999Z</time>
      </trkpt>
      <trkpt lat="48.87041" lon="2.3057">
        <ele>82.52</ele>
        <time>2020-03-15T15:32:58.999Z</time>
      </trkpt>
      <trkpt lat="48.87039" lon="2.30575">
        <ele>82.47</ele>
        <time>2020-03-15T15:32:59.999Z</time>
      </trkpt>
      <trkpt lat="48.87037" lon="2.3058">
        <ele>82.4</ele>
        <time>2020-03-15T15:33:00.999Z</time>
      </trkpt>
      <trkpt lat="48.87036" lon="2.30584">
        <ele>82.35</ele>
        <time>2020-03-15T15:33:01.999Z</time>
      </trkpt>
      <trkpt lat="48.87036" lon="2.30588">
        <ele>82.3</ele>
        <time>2020-03-15T15:33:02.999Z</time>
      </trkpt>
      <trkpt lat="48.87033" lon="2.30594">
        <ele>82.24</ele>
        <time>2020-03-15T15:33:03.999Z</time>
      </trkpt>
      <trkpt lat="48.87032" lon="2.30598">
        <ele>82.18</ele>
        <time>2020-03-15T15:33:04.999Z</time>
      </trkpt>
      <trkpt lat="48.8703" lon="2.30604">
        <ele>81.51</ele>
        <time>2020-03-15T15:33:05.999Z</time>
      </trkpt>
      <trkpt lat="48.87028" lon="2.3061">
        <ele>81.46</ele>
        <time>2020-03-15T15:33:06.999Z</time>
      </trkpt>
      <trkpt lat="48.87026" lon="2.30617">
        <ele>81.42</ele>
        <time>2020-03-15T15:33:07.999Z</time>
      </trkpt>
      <trkpt lat="48.87024" lon="2.30623">
        <ele>81.4</ele>
        <time>2020-03-15T15:33:08.999Z</time>
      </trkpt>
      <trkpt lat="48.87022" lon="2.30628">
        <ele>81.36</ele>
        <time>2020-03-15T15:33:09.999Z</time>
      </trkpt>
      <trkpt lat="48.8702" lon="2.30633">
        <ele>81.32</ele>
        <time>2020-03-15T15:33:10.999Z</time>
      </trkpt>
      <trkpt lat="48.87018" lon="2.30639">
        <ele>81.29</ele>
        <time>2020-03-15T15:33:11.999Z</time>
      </trkpt>
      <trkpt lat="48.87017" lon="2.30643">
        <ele>81.25</ele>
        <time>2020-03-15T15:33:12.999Z</time>
      </trkpt>
      <trkpt lat="48.87015" lon="2.30648">
        <ele>81.21</ele>
        <time>2020-03-15T15:33:13.999Z</time>
      </trkpt>
      <trkpt lat="48.87014" lon="2.30651">
        <ele>81.16</ele>
        <time>2020-03-15T15:33:14.999Z</time>
      </trkpt>
      <trkpt lat="48.87013" lon="2.30656">
        <ele>81.1</ele>
        <time>2020-03-15T15:33:15.999Z</time>
      </trkpt>
      <trkpt lat="48.87012" lon="2.30662">
        <ele>81.04</ele>
        <time>2020-03-15T15:33:16.999Z</time>
      </trkpt>
      <trkpt lat="48.87011" lon="2.30667">
        <ele>81</ele>
        <time>2020-03-15T15:33:17.999Z</time>
      </trkpt>
      <trkpt lat="48.87011" lon="2.30669">
        <ele>80.98</ele>
        <time>2020-03-15T15:33:18.999Z</time>
      </trkpt>
      <trkpt lat="48.8701" lon="2.30673">
        <ele>80.97</ele>
        <time>2020-03-15T15:33:19.999Z</time>
      </trkpt>
      <trkpt lat="48.87008" lon="2.30677">
        <ele>80.96</ele>
        <time>2020-03-15T15:33:20.999Z</time>
      </trkpt>
      <trkpt lat="48.87005" lon="2.30679">
        <ele>80.95</ele>
        <time>2020-03-15T15:33:21.999Z</time>
      </trkpt>
      <trkpt lat="48.87003" lon="2.30681">
        <ele>80.94</ele>
        <time>2020-03-15T15:33:22.999Z</time>
      </trkpt>
      <trkpt lat="48.87" lon="2.30684">
        <ele>80.94</ele>
        <time>2020-03-15T15:33:23.999Z</time>
      </trkpt>
      <trkpt lat="48.86998" lon="2.30686">
        <ele>80.93</ele>
        <time>2020-03-15T15:33:24.999Z</time>
      </trkpt>
      <trkpt lat="48.86996" lon="2.30691">
        <ele>80.93</ele>
        <time>2020-03-15T15:33:25.999Z</time>
      </trkpt>
      <trkpt lat="48.86996" lon="2.30693">
        <ele>80.9</ele>
        <time>2020-03-15T15:33:26.999Z</time>
      </trkpt>
      <trkpt lat="48.86994" lon="2.30698">
        <ele>80.93</ele>
        <time>2020-03-15T15:33:27.999Z</time>
      </trkpt>
      <trkpt lat="48.86992" lon="2.30702">
        <ele>80.96</ele>
        <time>2020-03-15T15:33:28.999Z</time>
      </trkpt>
      <trkpt lat="48.86991" lon="2.30706">
        <ele>81.02</ele>
        <time>2020-03-15T15:33:29.999Z</time>
      </trkpt>
      <trkpt lat="48.8699" lon="2.3071">
        <ele>81.04</ele>
        <time>2020-03-15T15:33:30.999Z</time>
      </trkpt>
      <trkpt lat="48.86989" lon="2.30715">
        <ele>81.1</ele>
        <time>2020-03-15T15:33:31.999Z</time>
      </trkpt>
      <trkpt lat="48.86987" lon="2.30721">
        <ele>81.15</ele>
        <time>2020-03-15T15:33:32.999Z</time>
      </trkpt>
      <trkpt lat="48.86986" lon="2.30724">
        <ele>81.18</ele>
        <time>2020-03-15T15:33:33.999Z</time>
      </trkpt>
      <trkpt lat="48.86985" lon="2.30728">
        <ele>81.22</ele>
        <time>2020-03-15T15:33:34.999Z</time>
      </trkpt>
      <trkpt lat="48.86984" lon="2.3073">
        <ele>81.24</ele>
        <time>2020-03-15T15:33:35.999Z</time>
      </trkpt>
      <trkpt lat="48.86982" lon="2.30733">
        <ele>81.28</ele>
        <time>2020-03-15T15:33:36.999Z</time>
      </trkpt>
      <trkpt lat="48.86981" lon="2.30738">
        <ele>81.3</ele>
        <time>2020-03-15T15:33:37.999Z</time>
      </trkpt>
      <trkpt lat="48.8698" lon="2.30745">
        <ele>81.32</ele>
        <time>2020-03-15T15:33:38.999Z</time>
      </trkpt>
      <trkpt lat="48.86979" lon="2.3075">
        <ele>81.33</ele>
        <time>2020-03-15T15:33:39.999Z</time>
      </trkpt>
      <trkpt lat="48.86978" lon="2.30754">
        <ele>81.35</ele>
        <time>2020-03-15T15:33:40.999Z</time>
      </trkpt>
      <trkpt lat="48.86977" lon="2.30759">
        <ele>81.37</ele>
        <time>2020-03-15T15:33:41.999Z</time>
      </trkpt>
      <trkpt lat="48.86975" lon="2.30765">
        <ele>81.39</ele>
        <time>2020-03-15T15:33:42.999Z</time>
      </trkpt>
      <trkpt lat="48.86974" lon="2.3077">
        <ele>81.39</ele>
        <time>2020-03-15T15:33:43.999Z</time>
      </trkpt>
      <trkpt lat="48.86973" lon="2.30774">
        <ele>81.38</ele>
        <time>2020-03-15T15:33:44.999Z</time>
      </trkpt>
      <trkpt lat="48.86972" lon="2.30777">
        <ele>81.37</ele>
        <time>2020-03-15T15:33:45.999Z</time>
      </trkpt>
      <trkpt lat="48.8697" lon="2.30782">
        <ele>81.36</ele>
        <time>2020-03-15T15:33:46.999Z</time>
      </trkpt>
      <trkpt lat="48.86969" lon="2.30787">
        <ele>81.34</ele>
        <time>2020-03-15T15:33:47.999Z</time>
      </trkpt>
      <trkpt lat="48.86967" lon="2.30791">
        <ele>81.32</ele>
        <time>2020-03-15T15:33:48.999Z</time>
      </trkpt>
      <trkpt lat="48.86966" lon="2.30796">
        <ele>81.3</ele>
        <time>2020-03-15T15:33:49.999Z</time>
      </trkpt>
      <trkpt lat="48.86965" lon="2.308">
        <ele>81.27</ele>
        <time>2020-03-15T15:33:50.999Z</time>
      </trkpt>
      <trkpt lat="48.86964" lon="2.30803">
        <ele>81.25</ele>
        <time>2020-03-15T15:33:51.999Z</time>
      </trkpt>
      <trkpt lat="48.86962" lon="2.30807">
        <ele>81.22</ele>
        <time>2020-03-15T15:33:52.999Z</time>
      </trkpt>
      <trkpt lat="48.8696" lon="2.30812">
        <ele>81.19</ele>
        <time>2020-03-15T15:33:53.999Z</time>
      </trkpt>
      <trkpt lat="48.86957" lon="2.30818">
        <ele>81.15</ele>
        <time>2020-03-15T15:33:54.999Z</time>
      </trkpt>
      <trkpt lat="48.86955" lon="2.30823">
        <ele>81.1</ele>
        <time>2020-03-15T15:33:55.999Z</time>
      </trkpt>
      <trkpt lat="48.86952" lon="2.30827">
        <ele>81.06</ele>
        <time>2020-03-15T15:33:56.999Z</time>
      </trkpt>
      <trkpt lat="48.86949" lon="2.30832">
        <ele>81.01</ele>
        <time>2020-03-15T15:33:57.999Z</time>
      </trkpt>
      <trkpt lat="48.86946" lon="2.30837">
        <ele>80.5</ele>
        <time>2020-03-15T15:33:58.999Z</time>
      </trkpt>
      <trkpt lat="48.86944" lon="2.30842">
        <ele>79.99</ele>
        <time>2020-03-15T15:33:59.999Z</time>
      </trkpt>
      <trkpt lat="48.86941" lon="2.30846">
        <ele>79.94</ele>
        <time>2020-03-15T15:34:00.999Z</time>
      </trkpt>
      <trkpt lat="48.86939" lon="2.3085">
        <ele>79.89</ele>
        <time>2020-03-15T15:34:01.999Z</time>
      </trkpt>
      <trkpt lat="48.86935" lon="2.30856">
        <ele>79.32</ele>
        <time>2020-03-15T15:34:02.999Z</time>
      </trkpt>
      <trkpt lat="48.86932" lon="2.30863">
        <ele>79.29</ele>
        <time>2020-03-15T15:34:03.999Z</time>
      </trkpt>
      <trkpt lat="48.86928" lon="2.30869">
        <ele>79.09</ele>
        <time>2020-03-15T15:34:04.999Z</time>
      </trkpt>
      <trkpt lat="48.86926" lon="2.30876">
        <ele>79.09</ele>
        <time>2020-03-15T15:34:05.999Z</time>
      </trkpt>
      <trkpt lat="48.86924" lon="2.30883">
        <ele>79.09</ele>
        <time>2020-03-15T15:34:06.999Z</time>
      </trkpt>
      <trkpt lat="48.86923" lon="2.3089">
        <ele>79.1</ele>
        <time>2020-03-15T15:34:07.999Z</time>
      </trkpt>
      <trkpt lat="48.86923" lon="2.30897">
        <ele>79.12</ele>
        <time>2020-03-15T15:34:08.999Z</time>
      </trkpt>
      <trkpt lat="48.86922" lon="2.30903">
        <ele>79.15</ele>
        <time>2020-03-15T15:34:09.999Z</time>
      </trkpt>
      <trkpt lat="48.86921" lon="2.30909">
        <ele>79.18</ele>
        <time>2020-03-15T15:34:10.999Z</time>
      </trkpt>
      <trkpt lat="48.8692" lon="2.30913">
        <ele>79.21</ele>
        <time>2020-03-15T15:34:11.999Z</time>
      </trkpt>
      <trkpt lat="48.86919" lon="2.30918">
        <ele>79.25</ele>
        <time>2020-03-15T15:34:12.999Z</time>
      </trkpt>
      <trkpt lat="48.86919" lon="2.30921">
        <ele>79.28</ele>
        <time>2020-03-15T15:34:13.999Z</time>
      </trkpt>
      <trkpt lat="48.86918" lon="2.30925">
        <ele>79.3</ele>
        <time>2020-03-15T15:34:14.999Z</time>
      </trkpt>
      <trkpt lat="48.86916" lon="2.30928">
        <ele>79.33</ele>
        <time>2020-03-15T15:34:15.999Z</time>
      </trkpt>
      <trkpt lat="48.86915" lon="2.3093">
        <ele>79.36</ele>
        <time>2020-03-15T15:34:16.999Z</time>
      </trkpt>
      <trkpt lat="48.86913" lon="2.30931">
        <ele>79.39</ele>
        <time>2020-03-15T15:34:17.999Z</time>
      </trkpt>
      <trkpt lat="48.86913" lon="2.30931">
        <ele>79.43</ele>
        <time>2020-03-15T15:34:18.999Z</time>
      </trkpt>
      <trkpt lat="48.86912" lon="2.30933">
        <ele>79.47</ele>
        <time>2020-03-15T15:34:19.999Z</time>
      </trkpt>
      <trkpt lat="48.86911" lon="2.30932">
        <ele>79.53</ele>
        <time>2020-03-15T15:34:22.999Z</time>
      </trkpt>
      <trkpt lat="48.8691" lon="2.30932">
        <ele>79.54</ele>
        <time>2020-03-15T15:34:23.999Z</time>
      </trkpt>
      <trkpt lat="48.86909" lon="2.30931">
        <ele>79.54</ele>
        <time>2020-03-15T15:34:25.999Z</time>
      </trkpt>
      <trkpt lat="48.86908" lon="2.3093">
        <ele>79.54</ele>
        <time>2020-03-15T15:34:27.999Z</time>
      </trkpt>
      <trkpt lat="48.86907" lon="2.30929">
        <ele>79.52</ele>
        <time>2020-03-15T15:34:40.999Z</time>
      </trkpt>
      <trkpt lat="48.86905" lon="2.30928">
        <ele>79.5</ele>
        <time>2020-03-15T15:34:42.999Z</time>
      </trkpt>
      <trkpt lat="48.86903" lon="2.30926">
        <ele>79.5</ele>
        <time>2020-03-15T15:34:43.999Z</time>
      </trkpt>
      <trkpt lat="48.86901" lon="2.30925">
        <ele>79.5</ele>
        <time>2020-03-15T15:34:44.999Z</time>
      </trkpt>
      <trkpt lat="48.86899" lon="2.30924">
        <ele>79.49</ele>
        <time>2020-03-15T15:34:45.999Z</time>
      </trkpt>
      <trkpt lat="48.86897" lon="2.30924">
        <ele>79.49</ele>
        <time>2020-03-15T15:34:46.999Z</time>
      </trkpt>
      <trkpt lat="48.86895" lon="2.30924">
        <ele>79.5</ele>
        <time>2020-03-15T15:34:47.999Z</time>
      </trkpt>
      <trkpt lat="48.86894" lon="2.30924">
        <ele>79.49</ele>
        <time>2020-03-15T15:34:48.999Z</time>
      </trkpt>
      <trkpt lat="48.86892" lon="2.30925">
        <ele>79.49</ele>
        <time>2020-03-15T15:34:49.999Z</time>
      </trkpt>
      <trkpt lat="48.8689" lon="2.30925">
        <ele>79.5</ele>
        <time>2020-03-15T15:34:50.999Z</time>
      </trkpt>
      <trkpt lat="48.86888" lon="2.30925">
        <ele>79.5</ele>
        <time>2020-03-15T15:34:51.999Z</time>
      </trkpt>
      <trkpt lat="48.86886" lon="2.30924">
        <ele>79.5</ele>
        <time>2020-03-15T15:34:52.999Z</time>
      </trkpt>
      <trkpt lat="48.86884" lon="2.30924">
        <ele>79.5</ele>
        <time>2020-03-15T15:34:53.999Z</time>
      </trkpt>
      <trkpt lat="48.86882" lon="2.30925">
        <ele>79.5</ele>
        <time>2020-03-15T15:34:54.999Z</time>
      </trkpt>
      <trkpt lat="48.8688" lon="2.30926">
        <ele>79.5</ele>
        <time>2020-03-15T15:34:55.999Z</time>
      </trkpt>
      <trkpt lat="48.86879" lon="2.30927">
        <ele>79.51</ele>
        <time>2020-03-15T15:34:56.999Z</time>
      </trkpt>
      <trkpt lat="48.86877" lon="2.30928">
        <ele>79.51</ele>
        <time>2020-03-15T15:34:57.999Z</time>
      </trkpt>
      <trkpt lat="48.86875" lon="2.30929">
        <ele>79.51</ele>
        <time>2020-03-15T15:34:58.999Z</time>
      </trkpt>
      <trkpt lat="48.86874" lon="2.3093">
        <ele>79.52</ele>
        <time>2020-03-15T15:34:59.999Z</time>
      </trkpt>
      <trkpt lat="48.86873" lon="2.30932">
        <ele>79.52</ele>
        <time>2020-03-15T15:35:00.999Z</time>
      </trkpt>
      <trkpt lat="48.86872" lon="2.30934">
        <ele>79.52</ele>
        <time>2020-03-15T15:35:01.999Z</time>
      </trkpt>
      <trkpt lat="48.86871" lon="2.30935">
        <ele>79.52</ele>
        <time>2020-03-15T15:35:02.999Z</time>
      </trkpt>
      <trkpt lat="48.86868" lon="2.30936">
        <ele>79.53</ele>
        <time>2020-03-15T15:35:03.999Z</time>
      </trkpt>
      <trkpt lat="48.86865" lon="2.30936">
        <ele>79.53</ele>
        <time>2020-03-15T15:35:04.999Z</time>
      </trkpt>
      <trkpt lat="48.86865" lon="2.30934">
        <ele>79.54</ele>
        <time>2020-03-15T15:35:05.999Z</time>
      </trkpt>
      <trkpt lat="48.86864" lon="2.30933">
        <ele>79.55</ele>
        <time>2020-03-15T15:35:08.999Z</time>
      </trkpt>
      <trkpt lat="48.86864" lon="2.30932">
        <ele>79.55</ele>
        <time>2020-03-15T15:35:10.999Z</time>
      </trkpt>
      <trkpt lat="48.86864" lon="2.30933">
        <ele>79.12</ele>
        <time>2020-03-15T15:36:18.999Z</time>
      </trkpt>
      <trkpt lat="48.86864" lon="2.30933">
        <ele>79.1</ele>
        <time>2020-03-15T15:36:40.999Z</time>
      </trkpt>
      <trkpt lat="48.86863" lon="2.30931">
        <ele>79.14</ele>
        <time>2020-03-15T15:36:48.999Z</time>
      </trkpt>
      <trkpt lat="48.86862" lon="2.30932">
        <ele>79.18</ele>
        <time>2020-03-15T15:37:02.999Z</time>
      </trkpt>
      <trkpt lat="48.86861" lon="2.3093">
        <ele>79.25</ele>
        <time>2020-03-15T15:37:08.999Z</time>
      </trkpt>
      <trkpt lat="48.86861" lon="2.30928">
        <ele>79.3</ele>
        <time>2020-03-15T15:37:10.999Z</time>
      </trkpt>
      <trkpt lat="48.86861" lon="2.3093">
        <ele>79.41</ele>
        <time>2020-03-15T15:37:20.000Z</time>
      </trkpt>
      <trkpt lat="48.86861" lon="2.30931">
        <ele>79.49</ele>
        <time>2020-03-15T15:37:22.000Z</time>
      </trkpt>
      <trkpt lat="48.86863" lon="2.30933">
        <ele>79.53</ele>
        <time>2020-03-15T15:37:23.000Z</time>
      </trkpt>
      <trkpt lat="48.86864" lon="2.30933">
        <ele>79.56</ele>
        <time>2020-03-15T15:37:24.000Z</time>
      </trkpt>
      <trkpt lat="48.86865" lon="2.30934">
        <ele>79.6</ele>
        <time>2020-03-15T15:37:28.000Z</time>
      </trkpt>
      <trkpt lat="48.86864" lon="2.30935">
        <ele>79.71</ele>
        <time>2020-03-15T15:37:33.000Z</time>
      </trkpt>
      <trkpt lat="48.86862" lon="2.30933">
        <ele>79.75</ele>
        <time>2020-03-15T15:37:35.000Z</time>
      </trkpt>
      <trkpt lat="48.86861" lon="2.30932">
        <ele>79.76</ele>
        <time>2020-03-15T15:37:36.000Z</time>
      </trkpt>
      <trkpt lat="48.8686" lon="2.30931">
        <ele>79.78</ele>
        <time>2020-03-15T15:37:37.000Z</time>
      </trkpt>
      <trkpt lat="48.86859" lon="2.30932">
        <ele>79.8</ele>
        <time>2020-03-15T15:37:38.000Z</time>
      </trkpt>
      <trkpt lat="48.86857" lon="2.30933">
        <ele>79.81</ele>
        <time>2020-03-15T15:37:39.000Z</time>
      </trkpt>
      <trkpt lat="48.86856" lon="2.30934">
        <ele>79.83</ele>
        <time>2020-03-15T15:37:40.000Z</time>
      </trkpt>
      <trkpt lat="48.86854" lon="2.30936">
        <ele>79.84</ele>
        <time>2020-03-15T15:37:41.000Z</time>
      </trkpt>
      <trkpt lat="48.86852" lon="2.30939">
        <ele>79.86</ele>
        <time>2020-03-15T15:37:42.000Z</time>
      </trkpt>
      <trkpt lat="48.86851" lon="2.30939">
        <ele>79.87</ele>
        <time>2020-03-15T15:37:43.000Z</time>
      </trkpt>
      <trkpt lat="48.86849" lon="2.30942">
        <ele>79.89</ele>
        <time>2020-03-15T15:37:44.000Z</time>
      </trkpt>
      <trkpt lat="48.86847" lon="2.30945">
        <ele>79.9</ele>
        <time>2020-03-15T15:37:45.000Z</time>
      </trkpt>
      <trkpt lat="48.86845" lon="2.30948">
        <ele>79.92</ele>
        <time>2020-03-15T15:37:46.000Z</time>
      </trkpt>
      <trkpt lat="48.86844" lon="2.30951">
        <ele>79.94</ele>
        <time>2020-03-15T15:37:47.000Z</time>
      </trkpt>
      <trkpt lat="48.86844" lon="2.30952">
        <ele>79.95</ele>
        <time>2020-03-15T15:37:48.000Z</time>
      </trkpt>
      <trkpt lat="48.86843" lon="2.30955">
        <ele>79.97</ele>
        <time>2020-03-15T15:37:49.000Z</time>
      </trkpt>
      <trkpt lat="48.8684" lon="2.30959">
        <ele>79.98</ele>
        <time>2020-03-15T15:37:50.000Z</time>
      </trkpt>
      <trkpt lat="48.86839" lon="2.30962">
        <ele>80</ele>
        <time>2020-03-15T15:37:51.000Z</time>
      </trkpt>
      <trkpt lat="48.86837" lon="2.30966">
        <ele>80.02</ele>
        <time>2020-03-15T15:37:52.000Z</time>
      </trkpt>
      <trkpt lat="48.86836" lon="2.30972">
        <ele>80.03</ele>
        <time>2020-03-15T15:37:53.000Z</time>
      </trkpt>
      <trkpt lat="48.86834" lon="2.30977">
        <ele>80.05</ele>
        <time>2020-03-15T15:37:54.000Z</time>
      </trkpt>
      <trkpt lat="48.86833" lon="2.30982">
        <ele>80.06</ele>
        <time>2020-03-15T15:37:55.000Z</time>
      </trkpt>
      <trkpt lat="48.86833" lon="2.30988">
        <ele>80.08</ele>
        <time>2020-03-15T15:37:56.000Z</time>
      </trkpt>
      <trkpt lat="48.86832" lon="2.30993">
        <ele>80.09</ele>
        <time>2020-03-15T15:37:57.000Z</time>
      </trkpt>
      <trkpt lat="48.86832" lon="2.30998">
        <ele>80.1</ele>
        <time>2020-03-15T15:37:58.000Z</time>
      </trkpt>
      <trkpt lat="48.86832" lon="2.31">
        <ele>80.1</ele>
        <time>2020-03-15T15:37:59.000Z</time>
      </trkpt>
      <trkpt lat="48.86832" lon="2.31002">
        <ele>80.11</ele>
        <time>2020-03-15T15:38:00.000Z</time>
      </trkpt>
      <trkpt lat="48.86832" lon="2.31004">
        <ele>80.11</ele>
        <time>2020-03-15T15:38:01.000Z</time>
      </trkpt>
      <trkpt lat="48.86832" lon="2.31007">
        <ele>80.11</ele>
        <time>2020-03-15T15:38:02.000Z</time>
      </trkpt>
      <trkpt lat="48.86833" lon="2.31009">
        <ele>80.12</ele>
        <time>2020-03-15T15:38:03.000Z</time>
      </trkpt>
      <trkpt lat="48.86834" lon="2.31014">
        <ele>80.12</ele>
        <time>2020-03-15T15:38:04.000Z</time>
      </trkpt>
      <trkpt lat="48.86836" lon="2.31018">
        <ele>80.12</ele>
        <time>2020-03-15T15:38:05.000Z</time>
      </trkpt>
      <trkpt lat="48.86837" lon="2.31021">
        <ele>80.13</ele>
        <time>2020-03-15T15:38:06.000Z</time>
      </trkpt>
      <trkpt lat="48.8684" lon="2.31026">
        <ele>80.14</ele>
        <time>2020-03-15T15:38:07.000Z</time>
      </trkpt>
      <trkpt lat="48.86842" lon="2.3103">
        <ele>80.16</ele>
        <time>2020-03-15T15:38:09.000Z</time>
      </trkpt>
      <trkpt lat="48.86842" lon="2.31032">
        <ele>80.17</ele>
        <time>2020-03-15T15:38:10.000Z</time>
      </trkpt>
      <trkpt lat="48.86843" lon="2.31033">
        <ele>80.18</ele>
        <time>2020-03-15T15:38:11.000Z</time>
      </trkpt>
      <trkpt lat="48.86845" lon="2.31034">
        <ele>80.19</ele>
        <time>2020-03-15T15:38:12.000Z</time>
      </trkpt>
      <trkpt lat="48.86845" lon="2.31037">
        <ele>80.21</ele>
        <time>2020-03-15T15:38:13.000Z</time>
      </trkpt>
      <trkpt lat="48.86847" lon="2.3104">
        <ele>80.22</ele>
        <time>2020-03-15T15:38:14.000Z</time>
      </trkpt>
      <trkpt lat="48.86848" lon="2.31042">
        <ele>80.23</ele>
        <time>2020-03-15T15:38:15.000Z</time>
      </trkpt>
      <trkpt lat="48.86849" lon="2.31047">
        <ele>80.24</ele>
        <time>2020-03-15T15:38:16.000Z</time>
      </trkpt>
      <trkpt lat="48.86851" lon="2.3105">
        <ele>80.25</ele>
        <time>2020-03-15T15:38:17.000Z</time>
      </trkpt>
      <trkpt lat="48.86853" lon="2.31053">
        <ele>80.26</ele>
        <time>2020-03-15T15:38:18.000Z</time>
      </trkpt>
      <trkpt lat="48.86854" lon="2.31055">
        <ele>80.27</ele>
        <time>2020-03-15T15:38:19.000Z</time>
      </trkpt>
      <trkpt lat="48.86856" lon="2.31059">
        <ele>80.28</ele>
        <time>2020-03-15T15:38:20.000Z</time>
      </trkpt>
      <trkpt lat="48.86858" lon="2.31063">
        <ele>80.29</ele>
        <time>2020-03-15T15:38:21.000Z</time>
      </trkpt>
      <trkpt lat="48.8686" lon="2.31067">
        <ele>80.3</ele>
        <time>2020-03-15T15:38:22.000Z</time>
      </trkpt>
      <trkpt lat="48.86861" lon="2.31073">
        <ele>80.31</ele>
        <time>2020-03-15T15:38:23.000Z</time>
      </trkpt>
      <trkpt lat="48.86862" lon="2.31078">
        <ele>80.32</ele>
        <time>2020-03-15T15:38:24.000Z</time>
      </trkpt>
      <trkpt lat="48.86861" lon="2.31083">
        <ele>80.33</ele>
        <time>2020-03-15T15:38:25.000Z</time>
      </trkpt>
      <trkpt lat="48.8686" lon="2.31086">
        <ele>80.34</ele>
        <time>2020-03-15T15:38:26.000Z</time>
      </trkpt>
      <trkpt lat="48.86859" lon="2.3109">
        <ele>80.35</ele>
        <time>2020-03-15T15:38:27.000Z</time>
      </trkpt>
      <trkpt lat="48.86857" lon="2.31094">
        <ele>80.36</ele>
        <time>2020-03-15T15:38:28.000Z</time>
      </trkpt>
      <trkpt lat="48.86856" lon="2.31098">
        <ele>80.37</ele>
        <time>2020-03-15T15:38:29.000Z</time>
      </trkpt>
      <trkpt lat="48.86854" lon="2.31103">
        <ele>80.38</ele>
        <time>2020-03-15T15:38:30.000Z</time>
      </trkpt>
      <trkpt lat="48.86853" lon="2.31106">
        <ele>80.39</ele>
        <time>2020-03-15T15:38:31.000Z</time>
      </trkpt>
      <trkpt lat="48.86851" lon="2.3111">
        <ele>80.4</ele>
        <time>2020-03-15T15:38:32.000Z</time>
      </trkpt>
      <trkpt lat="48.8685" lon="2.31114">
        <ele>80.41</ele>
        <time>2020-03-15T15:38:33.000Z</time>
      </trkpt>
      <trkpt lat="48.86848" lon="2.31118">
        <ele>80.42</ele>
        <time>2020-03-15T15:38:34.000Z</time>
      </trkpt>
      <trkpt lat="48.86847" lon="2.31121">
        <ele>80.43</ele>
        <time>2020-03-15T15:38:35.000Z</time>
      </trkpt>
      <trkpt lat="48.86845" lon="2.31125">
        <ele>80.44</ele>
        <time>2020-03-15T15:38:36.000Z</time>
      </trkpt>
      <trkpt lat="48.86845" lon="2.3113">
        <ele>80.44</ele>
        <time>2020-03-15T15:38:37.000Z</time>
      </trkpt>
      <trkpt lat="48.86844" lon="2.31135">
        <ele>80.45</ele>
        <time>2020-03-15T15:38:38.000Z</time>
      </trkpt>
      <trkpt lat="48.86842" lon="2.3114">
        <ele>80.46</ele>
        <time>2020-03-15T15:38:39.000Z</time>
      </trkpt>
      <trkpt lat="48.8684" lon="2.31146">
        <ele>80.47</ele>
        <time>2020-03-15T15:38:40.000Z</time>
      </trkpt>
      <trkpt lat="48.86838" lon="2.31152">
        <ele>80.47</ele>
        <time>2020-03-15T15:38:41.000Z</time>
      </trkpt>
      <trkpt lat="48.86836" lon="2.31157">
        <ele>80.48</ele>
        <time>2020-03-15T15:38:42.000Z</time>
      </trkpt>
      <trkpt lat="48.86834" lon="2.31162">
        <ele>80.48</ele>
        <time>2020-03-15T15:38:43.000Z</time>
      </trkpt>
      <trkpt lat="48.86833" lon="2.31167">
        <ele>80.49</ele>
        <time>2020-03-15T15:38:44.000Z</time>
      </trkpt>
      <trkpt lat="48.86831" lon="2.31173">
        <ele>80.49</ele>
        <time>2020-03-15T15:38:45.000Z</time>
      </trkpt>
      <trkpt lat="48.86829" lon="2.31178">
        <ele>80.5</ele>
        <time>2020-03-15T15:38:46.000Z</time>
      </trkpt>
      <trkpt lat="48.86828" lon="2.31182">
        <ele>80.5</ele>
        <time>2020-03-15T15:38:47.000Z</time>
      </trkpt>
      <trkpt lat="48.86826" lon="2.31186">
        <ele>80.51</ele>
        <time>2020-03-15T15:38:48.000Z</time>
      </trkpt>
      <trkpt lat="48.86824" lon="2.3119">
        <ele>80.51</ele>
        <time>2020-03-15T15:38:49.000Z</time>
      </trkpt>
      <trkpt lat="48.86822" lon="2.31196">
        <ele>80.52</ele>
        <time>2020-03-15T15:38:50.000Z</time>
      </trkpt>
      <trkpt lat="48.86821" lon="2.31199">
        <ele>80.52</ele>
        <time>2020-03-15T15:38:51.000Z</time>
      </trkpt>
      <trkpt lat="48.86819" lon="2.31203">
        <ele>80.52</ele>
        <time>2020-03-15T15:38:52.000Z</time>
      </trkpt>
      <trkpt lat="48.86818" lon="2.31208">
        <ele>80.53</ele>
        <time>2020-03-15T15:38:53.000Z</time>
      </trkpt>
      <trkpt lat="48.86816" lon="2.31211">
        <ele>80.53</ele>
        <time>2020-03-15T15:38:54.000Z</time>
      </trkpt>
      <trkpt lat="48.86815" lon="2.31214">
        <ele>80.53</ele>
        <time>2020-03-15T15:38:55.000Z</time>
      </trkpt>
      <trkpt lat="48.86813" lon="2.31217">
        <ele>80.53</ele>
        <time>2020-03-15T15:38:56.000Z</time>
      </trkpt>
      <trkpt lat="48.86812" lon="2.3122">
        <ele>80.54</ele>
        <time>2020-03-15T15:38:57.000Z</time>
      </trkpt>
      <trkpt lat="48.86811" lon="2.31223">
        <ele>80.54</ele>
        <time>2020-03-15T15:38:58.000Z</time>
      </trkpt>
      <trkpt lat="48.86809" lon="2.31229">
        <ele>80.54</ele>
        <time>2020-03-15T15:38:59.000Z</time>
      </trkpt>
      <trkpt lat="48.86807" lon="2.31233">
        <ele>80.54</ele>
        <time>2020-03-15T15:39:00.000Z</time>
      </trkpt>
      <trkpt lat="48.86805" lon="2.31238">
        <ele>80.54</ele>
        <time>2020-03-15T15:39:01.000Z</time>
      </trkpt>
      <trkpt lat="48.86804" lon="2.31241">
        <ele>80.54</ele>
        <time>2020-03-15T15:39:02.000Z</time>
      </trkpt>
      <trkpt lat="48.86804" lon="2.31245">
        <ele>80.54</ele>
        <time>2020-03-15T15:39:03.000Z</time>
      </trkpt>
      <trkpt lat="48.86802" lon="2.31249">
        <ele>80.54</ele>
        <time>2020-03-15T15:39:04.000Z</time>
      </trkpt>
      <trkpt lat="48.86801" lon="2.31254">
        <ele>80.54</ele>
        <time>2020-03-15T15:39:05.000Z</time>
      </trkpt>
      <trkpt lat="48.868" lon="2.31257">
        <ele>80.54</ele>
        <time>2020-03-15T15:39:06.000Z</time>
      </trkpt>
      <trkpt lat="48.86798" lon="2.3126">
        <ele>80.54</ele>
        <time>2020-03-15T15:39:07.000Z</time>
      </trkpt>
      <trkpt lat="48.86797" lon="2.31264">
        <ele>80.54</ele>
        <time>2020-03-15T15:39:08.000Z</time>
      </trkpt>
      <trkpt lat="48.86797" lon="2.31267">
        <ele>80.54</ele>
        <time>2020-03-15T15:39:09.000Z</time>
      </trkpt>
      <trkpt lat="48.86796" lon="2.3127">
        <ele>80.54</ele>
        <time>2020-03-15T15:39:10.000Z</time>
      </trkpt>
      <trkpt lat="48.86794" lon="2.31273">
        <ele>80.54</ele>
        <time>2020-03-15T15:39:11.000Z</time>
      </trkpt>
      <trkpt lat="48.86793" lon="2.31276">
        <ele>80.54</ele>
        <time>2020-03-15T15:39:12.000Z</time>
      </trkpt>
      <trkpt lat="48.86792" lon="2.31279">
        <ele>80.54</ele>
        <time>2020-03-15T15:39:13.000Z</time>
      </trkpt>
      <trkpt lat="48.8679" lon="2.31282">
        <ele>80.54</ele>
        <time>2020-03-15T15:39:14.000Z</time>
      </trkpt>
      <trkpt lat="48.86789" lon="2.31285">
        <ele>80.54</ele>
        <time>2020-03-15T15:39:15.000Z</time>
      </trkpt>
      <trkpt lat="48.86788" lon="2.31288">
        <ele>80.53</ele>
        <time>2020-03-15T15:39:16.000Z</time>
      </trkpt>
      <trkpt lat="48.86786" lon="2.31292">
        <ele>80.53</ele>
        <time>2020-03-15T15:39:17.000Z</time>
      </trkpt>
      <trkpt lat="48.86786" lon="2.31298">
        <ele>80.52</ele>
        <time>2020-03-15T15:39:18.000Z</time>
      </trkpt>
      <trkpt lat="48.86785" lon="2.31302">
        <ele>80.52</ele>
        <time>2020-03-15T15:39:19.000Z</time>
      </trkpt>
      <trkpt lat="48.86784" lon="2.31307">
        <ele>80.51</ele>
        <time>2020-03-15T15:39:20.000Z</time>
      </trkpt>
      <trkpt lat="48.86784" lon="2.31312">
        <ele>80.51</ele>
        <time>2020-03-15T15:39:21.000Z</time>
      </trkpt>
      <trkpt lat="48.86783" lon="2.31316">
        <ele>80.5</ele>
        <time>2020-03-15T15:39:22.000Z</time>
      </trkpt>
      <trkpt lat="48.86783" lon="2.31321">
        <ele>80.49</ele>
        <time>2020-03-15T15:39:23.000Z</time>
      </trkpt>
      <trkpt lat="48.86782" lon="2.31326">
        <ele>80.48</ele>
        <time>2020-03-15T15:39:24.000Z</time>
      </trkpt>
      <trkpt lat="48.86782" lon="2.3133">
        <ele>80.48</ele>
        <time>2020-03-15T15:39:25.000Z</time>
      </trkpt>
      <trkpt lat="48.86781" lon="2.31335">
        <ele>80.47</ele>
        <time>2020-03-15T15:39:26.000Z</time>
      </trkpt>
      <trkpt lat="48.8678" lon="2.31341">
        <ele>80.46</ele>
        <time>2020-03-15T15:39:27.000Z</time>
      </trkpt>
      <trkpt lat="48.86779" lon="2.31346">
        <ele>80.45</ele>
        <time>2020-03-15T15:39:28.000Z</time>
      </trkpt>
      <trkpt lat="48.86778" lon="2.3135">
        <ele>80.45</ele>
        <time>2020-03-15T15:39:29.000Z</time>
      </trkpt>
      <trkpt lat="48.86776" lon="2.31354">
        <ele>80.44</ele>
        <time>2020-03-15T15:39:30.000Z</time>
      </trkpt>
      <trkpt lat="48.86775" lon="2.31357">
        <ele>80.43</ele>
        <time>2020-03-15T15:39:31.000Z</time>
      </trkpt>
      <trkpt lat="48.86774" lon="2.3136">
        <ele>80.42</ele>
        <time>2020-03-15T15:39:32.000Z</time>
      </trkpt>
      <trkpt lat="48.86773" lon="2.31364">
        <ele>80.41</ele>
        <time>2020-03-15T15:39:33.000Z</time>
      </trkpt>
      <trkpt lat="48.86772" lon="2.31368">
        <ele>80.41</ele>
        <time>2020-03-15T15:39:34.000Z</time>
      </trkpt>
      <trkpt lat="48.86772" lon="2.31372">
        <ele>80.4</ele>
        <time>2020-03-15T15:39:35.000Z</time>
      </trkpt>
      <trkpt lat="48.8677" lon="2.31376">
        <ele>80.39</ele>
        <time>2020-03-15T15:39:36.000Z</time>
      </trkpt>
      <trkpt lat="48.86768" lon="2.31379">
        <ele>80.38</ele>
        <time>2020-03-15T15:39:37.000Z</time>
      </trkpt>
      <trkpt lat="48.86767" lon="2.31381">
        <ele>80.37</ele>
        <time>2020-03-15T15:39:38.000Z</time>
      </trkpt>
      <trkpt lat="48.86765" lon="2.31384">
        <ele>80.36</ele>
        <time>2020-03-15T15:39:39.000Z</time>
      </trkpt>
      <trkpt lat="48.86764" lon="2.31387">
        <ele>80.35</ele>
        <time>2020-03-15T15:39:40.000Z</time>
      </trkpt>
      <trkpt lat="48.86764" lon="2.31391">
        <ele>80.34</ele>
        <time>2020-03-15T15:39:41.000Z</time>
      </trkpt>
      <trkpt lat="48.86763" lon="2.31394">
        <ele>80.33</ele>
        <time>2020-03-15T15:39:42.000Z</time>
      </trkpt>
      <trkpt lat="48.86762" lon="2.31396">
        <ele>80.32</ele>
        <time>2020-03-15T15:39:43.000Z</time>
      </trkpt>
      <trkpt lat="48.86761" lon="2.31398">
        <ele>80.32</ele>
        <time>2020-03-15T15:39:44.000Z</time>
      </trkpt>
      <trkpt lat="48.8676" lon="2.31402">
        <ele>80.31</ele>
        <time>2020-03-15T15:39:45.000Z</time>
      </trkpt>
      <trkpt lat="48.86759" lon="2.31404">
        <ele>80.3</ele>
        <time>2020-03-15T15:39:46.000Z</time>
      </trkpt>
      <trkpt lat="48.86758" lon="2.31407">
        <ele>80.29</ele>
        <time>2020-03-15T15:39:47.000Z</time>
      </trkpt>
      <trkpt lat="48.86757" lon="2.3141">
        <ele>80.28</ele>
        <time>2020-03-15T15:39:48.000Z</time>
      </trkpt>
      <trkpt lat="48.86756" lon="2.31413">
        <ele>80.27</ele>
        <time>2020-03-15T15:39:49.000Z</time>
      </trkpt>
      <trkpt lat="48.86755" lon="2.31416">
        <ele>80.26</ele>
        <time>2020-03-15T15:39:50.000Z</time>
      </trkpt>
      <trkpt lat="48.86754" lon="2.31419">
        <ele>80.25</ele>
        <time>2020-03-15T15:39:51.000Z</time>
      </trkpt>
      <trkpt lat="48.86753" lon="2.31424">
        <ele>80.24</ele>
        <time>2020-03-15T15:39:52.000Z</time>
      </trkpt>
      <trkpt lat="48.86751" lon="2.31428">
        <ele>80.24</ele>
        <time>2020-03-15T15:39:53.000Z</time>
      </trkpt>
      <trkpt lat="48.8675" lon="2.31431">
        <ele>80.23</ele>
        <time>2020-03-15T15:39:54.000Z</time>
      </trkpt>
      <trkpt lat="48.86749" lon="2.31435">
        <ele>80.21</ele>
        <time>2020-03-15T15:39:55.000Z</time>
      </trkpt>
      <trkpt lat="48.86748" lon="2.31438">
        <ele>80.2</ele>
        <time>2020-03-15T15:39:56.000Z</time>
      </trkpt>
      <trkpt lat="48.86747" lon="2.31442">
        <ele>80.19</ele>
        <time>2020-03-15T15:39:57.000Z</time>
      </trkpt>
      <trkpt lat="48.86746" lon="2.31445">
        <ele>80.18</ele>
        <time>2020-03-15T15:39:58.000Z</time>
      </trkpt>
      <trkpt lat="48.86744" lon="2.31448">
        <ele>80.17</ele>
        <time>2020-03-15T15:39:59.000Z</time>
      </trkpt>
      <trkpt lat="48.86743" lon="2.31452">
        <ele>80.16</ele>
        <time>2020-03-15T15:40:00.000Z</time>
      </trkpt>
      <trkpt lat="48.86743" lon="2.31456">
        <ele>80.15</ele>
        <time>2020-03-15T15:40:01.000Z</time>
      </trkpt>
      <trkpt lat="48.86741" lon="2.31459">
        <ele>80.14</ele>
        <time>2020-03-15T15:40:02.000Z</time>
      </trkpt>
      <trkpt lat="48.86739" lon="2.31466">
        <ele>80.13</ele>
        <time>2020-03-15T15:40:03.000Z</time>
      </trkpt>
      <trkpt lat="48.86738" lon="2.3147">
        <ele>80.12</ele>
        <time>2020-03-15T15:40:04.000Z</time>
      </trkpt>
      <trkpt lat="48.86736" lon="2.31474">
        <ele>80.11</ele>
        <time>2020-03-15T15:40:05.000Z</time>
      </trkpt>
      <trkpt lat="48.86735" lon="2.31478">
        <ele>80.1</ele>
        <time>2020-03-15T15:40:06.000Z</time>
      </trkpt>
      <trkpt lat="48.86733" lon="2.31481">
        <ele>80.09</ele>
        <time>2020-03-15T15:40:07.000Z</time>
      </trkpt>
      <trkpt lat="48.86732" lon="2.31485">
        <ele>80.08</ele>
        <time>2020-03-15T15:40:08.000Z</time>
      </trkpt>
      <trkpt lat="48.86731" lon="2.31487">
        <ele>80.07</ele>
        <time>2020-03-15T15:40:09.000Z</time>
      </trkpt>
      <trkpt lat="48.86729" lon="2.31492">
        <ele>80.06</ele>
        <time>2020-03-15T15:40:10.000Z</time>
      </trkpt>
      <trkpt lat="48.86728" lon="2.31495">
        <ele>80.04</ele>
        <time>2020-03-15T15:40:11.000Z</time>
      </trkpt>
      <trkpt lat="48.86726" lon="2.31501">
        <ele>80.03</ele>
        <time>2020-03-15T15:40:12.000Z</time>
      </trkpt>
      <trkpt lat="48.86724" lon="2.31506">
        <ele>80.02</ele>
        <time>2020-03-15T15:40:13.000Z</time>
      </trkpt>
      <trkpt lat="48.86722" lon="2.3151">
        <ele>80.01</ele>
        <time>2020-03-15T15:40:14.000Z</time>
      </trkpt>
      <trkpt lat="48.86721" lon="2.31515">
        <ele>79.99</ele>
        <time>2020-03-15T15:40:15.000Z</time>
      </trkpt>
      <trkpt lat="48.86719" lon="2.3152">
        <ele>79.98</ele>
        <time>2020-03-15T15:40:16.000Z</time>
      </trkpt>
      <trkpt lat="48.86718" lon="2.31523">
        <ele>79.97</ele>
        <time>2020-03-15T15:40:17.000Z</time>
      </trkpt>
      <trkpt lat="48.86717" lon="2.31527">
        <ele>79.96</ele>
        <time>2020-03-15T15:40:18.000Z</time>
      </trkpt>
      <trkpt lat="48.86715" lon="2.31531">
        <ele>79.94</ele>
        <time>2020-03-15T15:40:19.000Z</time>
      </trkpt>
      <trkpt lat="48.86713" lon="2.31534">
        <ele>79.93</ele>
        <time>2020-03-15T15:40:20.000Z</time>
      </trkpt>
      <trkpt lat="48.86712" lon="2.31539">
        <ele>79.92</ele>
        <time>2020-03-15T15:40:21.000Z</time>
      </trkpt>
      <trkpt lat="48.86708" lon="2.31539">
        <ele>79.9</ele>
        <time>2020-03-15T15:40:22.000Z</time>
      </trkpt>
      <trkpt lat="48.86706" lon="2.31548">
        <ele>79.89</ele>
        <time>2020-03-15T15:40:23.000Z</time>
      </trkpt>
      <trkpt lat="48.86707" lon="2.31553">
        <ele>79.87</ele>
        <time>2020-03-15T15:40:24.000Z</time>
      </trkpt>
      <trkpt lat="48.86706" lon="2.31557">
        <ele>79.86</ele>
        <time>2020-03-15T15:40:25.000Z</time>
      </trkpt>
      <trkpt lat="48.86704" lon="2.31562">
        <ele>79.85</ele>
        <time>2020-03-15T15:40:26.000Z</time>
      </trkpt>
      <trkpt lat="48.86703" lon="2.31567">
        <ele>79.83</ele>
        <time>2020-03-15T15:40:27.000Z</time>
      </trkpt>
      <trkpt lat="48.86702" lon="2.31573">
        <ele>79.82</ele>
        <time>2020-03-15T15:40:28.000Z</time>
      </trkpt>
      <trkpt lat="48.86701" lon="2.31577">
        <ele>79.8</ele>
        <time>2020-03-15T15:40:29.000Z</time>
      </trkpt>
      <trkpt lat="48.86699" lon="2.31581">
        <ele>79.79</ele>
        <time>2020-03-15T15:40:30.000Z</time>
      </trkpt>
      <trkpt lat="48.86698" lon="2.31585">
        <ele>79.77</ele>
        <time>2020-03-15T15:40:31.000Z</time>
      </trkpt>
      <trkpt lat="48.86697" lon="2.3159">
        <ele>79.75</ele>
        <time>2020-03-15T15:40:32.000Z</time>
      </trkpt>
      <trkpt lat="48.86695" lon="2.31595">
        <ele>79.74</ele>
        <time>2020-03-15T15:40:33.000Z</time>
      </trkpt>
      <trkpt lat="48.86694" lon="2.31602">
        <ele>79.72</ele>
        <time>2020-03-15T15:40:34.000Z</time>
      </trkpt>
      <trkpt lat="48.86692" lon="2.31606">
        <ele>79.71</ele>
        <time>2020-03-15T15:40:35.000Z</time>
      </trkpt>
      <trkpt lat="48.86692" lon="2.31611">
        <ele>79.69</ele>
        <time>2020-03-15T15:40:36.000Z</time>
      </trkpt>
      <trkpt lat="48.86691" lon="2.31614">
        <ele>79.68</ele>
        <time>2020-03-15T15:40:37.000Z</time>
      </trkpt>
      <trkpt lat="48.8669" lon="2.31619">
        <ele>79.66</ele>
        <time>2020-03-15T15:40:38.000Z</time>
      </trkpt>
      <trkpt lat="48.86686" lon="2.3162">
        <ele>79.65</ele>
        <time>2020-03-15T15:40:39.000Z</time>
      </trkpt>
      <trkpt lat="48.86685" lon="2.31625">
        <ele>79.63</ele>
        <time>2020-03-15T15:40:40.000Z</time>
      </trkpt>
      <trkpt lat="48.86683" lon="2.31631">
        <ele>79.62</ele>
        <time>2020-03-15T15:40:41.000Z</time>
      </trkpt>
      <trkpt lat="48.86681" lon="2.31636">
        <ele>79.6</ele>
        <time>2020-03-15T15:40:42.000Z</time>
      </trkpt>
      <trkpt lat="48.86679" lon="2.31641">
        <ele>79.58</ele>
        <time>2020-03-15T15:40:43.000Z</time>
      </trkpt>
      <trkpt lat="48.86676" lon="2.31647">
        <ele>79.42</ele>
        <time>2020-03-15T15:40:44.000Z</time>
      </trkpt>
      <trkpt lat="48.86674" lon="2.31654">
        <ele>79.29</ele>
        <time>2020-03-15T15:40:45.000Z</time>
      </trkpt>
      <trkpt lat="48.86672" lon="2.31661">
        <ele>79.17</ele>
        <time>2020-03-15T15:40:46.000Z</time>
      </trkpt>
      <trkpt lat="48.8667" lon="2.31668">
        <ele>79.08</ele>
        <time>2020-03-15T15:40:47.000Z</time>
      </trkpt>
      <trkpt lat="48.86668" lon="2.31674">
        <ele>78.99</ele>
        <time>2020-03-15T15:40:48.000Z</time>
      </trkpt>
      <trkpt lat="48.86666" lon="2.31681">
        <ele>78.92</ele>
        <time>2020-03-15T15:40:49.000Z</time>
      </trkpt>
      <trkpt lat="48.86664" lon="2.31687">
        <ele>78.85</ele>
        <time>2020-03-15T15:40:50.000Z</time>
      </trkpt>
      <trkpt lat="48.86662" lon="2.31692">
        <ele>78.85</ele>
        <time>2020-03-15T15:40:51.000Z</time>
      </trkpt>
      <trkpt lat="48.86661" lon="2.31698">
        <ele>78.79</ele>
        <time>2020-03-15T15:40:52.000Z</time>
      </trkpt>
      <trkpt lat="48.86659" lon="2.31704">
        <ele>78.79</ele>
        <time>2020-03-15T15:40:53.000Z</time>
      </trkpt>
      <trkpt lat="48.86657" lon="2.31709">
        <ele>78.78</ele>
        <time>2020-03-15T15:40:54.000Z</time>
      </trkpt>
      <trkpt lat="48.86655" lon="2.31715">
        <ele>78.78</ele>
        <time>2020-03-15T15:40:55.000Z</time>
      </trkpt>
      <trkpt lat="48.86652" lon="2.31719">
        <ele>78.77</ele>
        <time>2020-03-15T15:40:56.000Z</time>
      </trkpt>
      <trkpt lat="48.86651" lon="2.31725">
        <ele>78.77</ele>
        <time>2020-03-15T15:40:57.000Z</time>
      </trkpt>
      <trkpt lat="48.86649" lon="2.31731">
        <ele>78.76</ele>
        <time>2020-03-15T15:40:58.000Z</time>
      </trkpt>
      <trkpt lat="48.86647" lon="2.31738">
        <ele>78.75</ele>
        <time>2020-03-15T15:40:59.000Z</time>
      </trkpt>
      <trkpt lat="48.86645" lon="2.31743">
        <ele>78.75</ele>
        <time>2020-03-15T15:41:00.000Z</time>
      </trkpt>
      <trkpt lat="48.86644" lon="2.31748">
        <ele>78.74</ele>
        <time>2020-03-15T15:41:01.000Z</time>
      </trkpt>
      <trkpt lat="48.86642" lon="2.31752">
        <ele>78.74</ele>
        <time>2020-03-15T15:41:02.000Z</time>
      </trkpt>
      <trkpt lat="48.86641" lon="2.31756">
        <ele>78.73</ele>
        <time>2020-03-15T15:41:03.000Z</time>
      </trkpt>
      <trkpt lat="48.86639" lon="2.31761">
        <ele>78.73</ele>
        <time>2020-03-15T15:41:04.000Z</time>
      </trkpt>
      <trkpt lat="48.86638" lon="2.31766">
        <ele>78.72</ele>
        <time>2020-03-15T15:41:05.000Z</time>
      </trkpt>
      <trkpt lat="48.86637" lon="2.3177">
        <ele>78.71</ele>
        <time>2020-03-15T15:41:06.000Z</time>
      </trkpt>
      <trkpt lat="48.86635" lon="2.31775">
        <ele>78.71</ele>
        <time>2020-03-15T15:41:07.000Z</time>
      </trkpt>
      <trkpt lat="48.86633" lon="2.3178">
        <ele>78.7</ele>
        <time>2020-03-15T15:41:08.000Z</time>
      </trkpt>
      <trkpt lat="48.86632" lon="2.31787">
        <ele>78.69</ele>
        <time>2020-03-15T15:41:09.000Z</time>
      </trkpt>
      <trkpt lat="48.86631" lon="2.31793">
        <ele>78.69</ele>
        <time>2020-03-15T15:41:10.000Z</time>
      </trkpt>
      <trkpt lat="48.86629" lon="2.318">
        <ele>78.63</ele>
        <time>2020-03-15T15:41:11.000Z</time>
      </trkpt>
      <trkpt lat="48.86627" lon="2.31807">
        <ele>78.63</ele>
        <time>2020-03-15T15:41:12.000Z</time>
      </trkpt>
      <trkpt lat="48.86625" lon="2.31813">
        <ele>78.62</ele>
        <time>2020-03-15T15:41:13.000Z</time>
      </trkpt>
      <trkpt lat="48.86622" lon="2.31818">
        <ele>78.62</ele>
        <time>2020-03-15T15:41:14.000Z</time>
      </trkpt>
      <trkpt lat="48.86621" lon="2.31824">
        <ele>78.62</ele>
        <time>2020-03-15T15:41:15.000Z</time>
      </trkpt>
      <trkpt lat="48.8662" lon="2.31829">
        <ele>78.61</ele>
        <time>2020-03-15T15:41:16.000Z</time>
      </trkpt>
      <trkpt lat="48.86618" lon="2.31834">
        <ele>78.61</ele>
        <time>2020-03-15T15:41:17.000Z</time>
      </trkpt>
      <trkpt lat="48.86617" lon="2.31839">
        <ele>78.61</ele>
        <time>2020-03-15T15:41:18.000Z</time>
      </trkpt>
      <trkpt lat="48.86615" lon="2.31843">
        <ele>78.6</ele>
        <time>2020-03-15T15:41:19.000Z</time>
      </trkpt>
      <trkpt lat="48.86614" lon="2.31848">
        <ele>78.6</ele>
        <time>2020-03-15T15:41:20.000Z</time>
      </trkpt>
      <trkpt lat="48.86613" lon="2.31852">
        <ele>78.59</ele>
        <time>2020-03-15T15:41:21.000Z</time>
      </trkpt>
      <trkpt lat="48.86611" lon="2.31857">
        <ele>78.59</ele>
        <time>2020-03-15T15:41:22.000Z</time>
      </trkpt>
      <trkpt lat="48.86608" lon="2.31863">
        <ele>78.58</ele>
        <time>2020-03-15T15:41:23.000Z</time>
      </trkpt>
      <trkpt lat="48.86606" lon="2.31868">
        <ele>78.58</ele>
        <time>2020-03-15T15:41:24.000Z</time>
      </trkpt>
      <trkpt lat="48.86604" lon="2.31874">
        <ele>78.58</ele>
        <time>2020-03-15T15:41:25.000Z</time>
      </trkpt>
      <trkpt lat="48.86603" lon="2.31878">
        <ele>78.57</ele>
        <time>2020-03-15T15:41:26.000Z</time>
      </trkpt>
      <trkpt lat="48.86601" lon="2.31883">
        <ele>78.57</ele>
        <time>2020-03-15T15:41:27.000Z</time>
      </trkpt>
      <trkpt lat="48.866" lon="2.31889">
        <ele>78.56</ele>
        <time>2020-03-15T15:41:28.000Z</time>
      </trkpt>
      <trkpt lat="48.86598" lon="2.31894">
        <ele>78.56</ele>
        <time>2020-03-15T15:41:29.000Z</time>
      </trkpt>
      <trkpt lat="48.86596" lon="2.31899">
        <ele>78.55</ele>
        <time>2020-03-15T15:41:30.000Z</time>
      </trkpt>
      <trkpt lat="48.86595" lon="2.31903">
        <ele>78.55</ele>
        <time>2020-03-15T15:41:31.000Z</time>
      </trkpt>
      <trkpt lat="48.86593" lon="2.31911">
        <ele>78.5</ele>
        <time>2020-03-15T15:41:32.000Z</time>
      </trkpt>
      <trkpt lat="48.86591" lon="2.31917">
        <ele>78.49</ele>
        <time>2020-03-15T15:41:33.000Z</time>
      </trkpt>
      <trkpt lat="48.8659" lon="2.31923">
        <ele>78.49</ele>
        <time>2020-03-15T15:41:34.000Z</time>
      </trkpt>
      <trkpt lat="48.86589" lon="2.31926">
        <ele>78.49</ele>
        <time>2020-03-15T15:41:35.000Z</time>
      </trkpt>
      <trkpt lat="48.86588" lon="2.31929">
        <ele>78.48</ele>
        <time>2020-03-15T15:41:36.000Z</time>
      </trkpt>
      <trkpt lat="48.86586" lon="2.31932">
        <ele>78.48</ele>
        <time>2020-03-15T15:41:37.000Z</time>
      </trkpt>
      <trkpt lat="48.86585" lon="2.31935">
        <ele>78.48</ele>
        <time>2020-03-15T15:41:38.000Z</time>
      </trkpt>
      <trkpt lat="48.86583" lon="2.31937">
        <ele>78.47</ele>
        <time>2020-03-15T15:41:39.000Z</time>
      </trkpt>
      <trkpt lat="48.86582" lon="2.31939">
        <ele>78.47</ele>
        <time>2020-03-15T15:41:40.000Z</time>
      </trkpt>
      <trkpt lat="48.86581" lon="2.31942">
        <ele>78.46</ele>
        <time>2020-03-15T15:41:41.000Z</time>
      </trkpt>
      <trkpt lat="48.8658" lon="2.31944">
        <ele>78.46</ele>
        <time>2020-03-15T15:41:42.000Z</time>
      </trkpt>
      <trkpt lat="48.8658" lon="2.31946">
        <ele>78.45</ele>
        <time>2020-03-15T15:41:43.000Z</time>
      </trkpt>
      <trkpt lat="48.8658" lon="2.31948">
        <ele>78.44</ele>
        <time>2020-03-15T15:41:46.000Z</time>
      </trkpt>
      <trkpt lat="48.8658" lon="2.31949">
        <ele>78.43</ele>
        <time>2020-03-15T15:41:53.000Z</time>
      </trkpt>
      <trkpt lat="48.86579" lon="2.31951">
        <ele>78.42</ele>
        <time>2020-03-15T15:42:01.000Z</time>
      </trkpt>
      <trkpt lat="48.86579" lon="2.31953">
        <ele>78.42</ele>
        <time>2020-03-15T15:42:02.000Z</time>
      </trkpt>
      <trkpt lat="48.86578" lon="2.31955">
        <ele>78.41</ele>
        <time>2020-03-15T15:42:03.000Z</time>
      </trkpt>
      <trkpt lat="48.86577" lon="2.3196">
        <ele>78.4</ele>
        <time>2020-03-15T15:42:05.000Z</time>
      </trkpt>
      <trkpt lat="48.86576" lon="2.31964">
        <ele>78.4</ele>
        <time>2020-03-15T15:42:06.000Z</time>
      </trkpt>
      <trkpt lat="48.86575" lon="2.31966">
        <ele>78.4</ele>
        <time>2020-03-15T15:42:07.000Z</time>
      </trkpt>
      <trkpt lat="48.86573" lon="2.31974">
        <ele>78.39</ele>
        <time>2020-03-15T15:42:09.000Z</time>
      </trkpt>
      <trkpt lat="48.86572" lon="2.31977">
        <ele>78.38</ele>
        <time>2020-03-15T15:42:10.000Z</time>
      </trkpt>
      <trkpt lat="48.86571" lon="2.3198">
        <ele>78.38</ele>
        <time>2020-03-15T15:42:11.000Z</time>
      </trkpt>
      <trkpt lat="48.8657" lon="2.31985">
        <ele>78.38</ele>
        <time>2020-03-15T15:42:12.000Z</time>
      </trkpt>
      <trkpt lat="48.86569" lon="2.31988">
        <ele>78.37</ele>
        <time>2020-03-15T15:42:13.000Z</time>
      </trkpt>
      <trkpt lat="48.86568" lon="2.31991">
        <ele>78.37</ele>
        <time>2020-03-15T15:42:14.000Z</time>
      </trkpt>
      <trkpt lat="48.86567" lon="2.31995">
        <ele>78.36</ele>
        <time>2020-03-15T15:42:15.000Z</time>
      </trkpt>
      <trkpt lat="48.86566" lon="2.31997">
        <ele>78.36</ele>
        <time>2020-03-15T15:42:16.000Z</time>
      </trkpt>
      <trkpt lat="48.86563" lon="2.32002">
        <ele>78.35</ele>
        <time>2020-03-15T15:42:18.000Z</time>
      </trkpt>
      <trkpt lat="48.86562" lon="2.32005">
        <ele>78.35</ele>
        <time>2020-03-15T15:42:19.000Z</time>
      </trkpt>
      <trkpt lat="48.86559" lon="2.32012">
        <ele>78.34</ele>
        <time>2020-03-15T15:42:21.000Z</time>
      </trkpt>
      <trkpt lat="48.86557" lon="2.32015">
        <ele>78.33</ele>
        <time>2020-03-15T15:42:22.000Z</time>
      </trkpt>
      <trkpt lat="48.86556" lon="2.32017">
        <ele>78.33</ele>
        <time>2020-03-15T15:42:23.000Z</time>
      </trkpt>
      <trkpt lat="48.86555" lon="2.32019">
        <ele>78.33</ele>
        <time>2020-03-15T15:42:24.000Z</time>
      </trkpt>
      <trkpt lat="48.86553" lon="2.32021">
        <ele>78.32</ele>
        <time>2020-03-15T15:42:25.000Z</time>
      </trkpt>
      <trkpt lat="48.86552" lon="2.32024">
        <ele>78.32</ele>
        <time>2020-03-15T15:42:26.000Z</time>
      </trkpt>
      <trkpt lat="48.86551" lon="2.32025">
        <ele>78.31</ele>
        <time>2020-03-15T15:42:27.000Z</time>
      </trkpt>
      <trkpt lat="48.86547" lon="2.32032">
        <ele>78.3</ele>
        <time>2020-03-15T15:42:29.000Z</time>
      </trkpt>
      <trkpt lat="48.86546" lon="2.32034">
        <ele>78.3</ele>
        <time>2020-03-15T15:42:30.000Z</time>
      </trkpt>
      <trkpt lat="48.86546" lon="2.32035">
        <ele>78.29</ele>
        <time>2020-03-15T15:42:33.000Z</time>
      </trkpt>
      <trkpt lat="48.86545" lon="2.32038">
        <ele>78.28</ele>
        <time>2020-03-15T15:42:35.000Z</time>
      </trkpt>
      <trkpt lat="48.86544" lon="2.32042">
        <ele>78.28</ele>
        <time>2020-03-15T15:42:37.000Z</time>
      </trkpt>
      <trkpt lat="48.86543" lon="2.32047">
        <ele>78.26</ele>
        <time>2020-03-15T15:42:39.000Z</time>
      </trkpt>
      <trkpt lat="48.86543" lon="2.32049">
        <ele>78.26</ele>
        <time>2020-03-15T15:42:40.000Z</time>
      </trkpt>
      <trkpt lat="48.86543" lon="2.32051">
        <ele>78.25</ele>
        <time>2020-03-15T15:42:41.000Z</time>
      </trkpt>
      <trkpt lat="48.86543" lon="2.32052">
        <ele>78.23</ele>
        <time>2020-03-15T15:42:44.000Z</time>
      </trkpt>
      <trkpt lat="48.86542" lon="2.32053">
        <ele>78.21</ele>
        <time>2020-03-15T15:42:47.000Z</time>
      </trkpt>
      <trkpt lat="48.86542" lon="2.32055">
        <ele>78.16</ele>
        <time>2020-03-15T15:43:01.000Z</time>
      </trkpt>
      <trkpt lat="48.86541" lon="2.32057">
        <ele>78.15</ele>
        <time>2020-03-15T15:43:02.000Z</time>
      </trkpt>
      <trkpt lat="48.8654" lon="2.32059">
        <ele>78.14</ele>
        <time>2020-03-15T15:43:03.000Z</time>
      </trkpt>
      <trkpt lat="48.86539" lon="2.32062">
        <ele>78.13</ele>
        <time>2020-03-15T15:43:04.000Z</time>
      </trkpt>
      <trkpt lat="48.86538" lon="2.32065">
        <ele>78.12</ele>
        <time>2020-03-15T15:43:05.000Z</time>
      </trkpt>
      <trkpt lat="48.86537" lon="2.32067">
        <ele>78.11</ele>
        <time>2020-03-15T15:43:06.000Z</time>
      </trkpt>
      <trkpt lat="48.86536" lon="2.3207">
        <ele>78.1</ele>
        <time>2020-03-15T15:43:07.000Z</time>
      </trkpt>
      <trkpt lat="48.86534" lon="2.32073">
        <ele>78.09</ele>
        <time>2020-03-15T15:43:08.000Z</time>
      </trkpt>
      <trkpt lat="48.86533" lon="2.32076">
        <ele>78.08</ele>
        <time>2020-03-15T15:43:09.000Z</time>
      </trkpt>
      <trkpt lat="48.86532" lon="2.3208">
        <ele>78.07</ele>
        <time>2020-03-15T15:43:10.000Z</time>
      </trkpt>
      <trkpt lat="48.86531" lon="2.32084">
        <ele>78.05</ele>
        <time>2020-03-15T15:43:11.000Z</time>
      </trkpt>
      <trkpt lat="48.8653" lon="2.32088">
        <ele>78.04</ele>
        <time>2020-03-15T15:43:12.000Z</time>
      </trkpt>
      <trkpt lat="48.8653" lon="2.32092">
        <ele>78.03</ele>
        <time>2020-03-15T15:43:13.000Z</time>
      </trkpt>
      <trkpt lat="48.86529" lon="2.32096">
        <ele>78.02</ele>
        <time>2020-03-15T15:43:14.000Z</time>
      </trkpt>
      <trkpt lat="48.86529" lon="2.321">
        <ele>78.01</ele>
        <time>2020-03-15T15:43:15.000Z</time>
      </trkpt>
      <trkpt lat="48.86529" lon="2.32104">
        <ele>78</ele>
        <time>2020-03-15T15:43:16.000Z</time>
      </trkpt>
      <trkpt lat="48.86529" lon="2.32108">
        <ele>77.99</ele>
        <time>2020-03-15T15:43:17.000Z</time>
      </trkpt>
      <trkpt lat="48.8653" lon="2.32111">
        <ele>77.98</ele>
        <time>2020-03-15T15:43:18.000Z</time>
      </trkpt>
      <trkpt lat="48.86532" lon="2.32115">
        <ele>77.97</ele>
        <time>2020-03-15T15:43:19.000Z</time>
      </trkpt>
      <trkpt lat="48.86533" lon="2.32118">
        <ele>77.96</ele>
        <time>2020-03-15T15:43:20.000Z</time>
      </trkpt>
      <trkpt lat="48.86536" lon="2.32121">
        <ele>77.95</ele>
        <time>2020-03-15T15:43:21.000Z</time>
      </trkpt>
      <trkpt lat="48.86538" lon="2.32124">
        <ele>77.94</ele>
        <time>2020-03-15T15:43:22.000Z</time>
      </trkpt>
      <trkpt lat="48.8654" lon="2.32127">
        <ele>77.93</ele>
        <time>2020-03-15T15:43:23.000Z</time>
      </trkpt>
      <trkpt lat="48.86542" lon="2.32129">
        <ele>77.92</ele>
        <time>2020-03-15T15:43:24.000Z</time>
      </trkpt>
      <trkpt lat="48.86544" lon="2.32132">
        <ele>77.91</ele>
        <time>2020-03-15T15:43:25.000Z</time>
      </trkpt>
      <trkpt lat="48.86546" lon="2.32134">
        <ele>77.9</ele>
        <time>2020-03-15T15:43:26.000Z</time>
      </trkpt>
      <trkpt lat="48.86549" lon="2.32136">
        <ele>77.89</ele>
        <time>2020-03-15T15:43:27.000Z</time>
      </trkpt>
      <trkpt lat="48.86551" lon="2.32138">
        <ele>77.88</ele>
        <time>2020-03-15T15:43:28.000Z</time>
      </trkpt>
      <trkpt lat="48.86554" lon="2.3214">
        <ele>77.88</ele>
        <time>2020-03-15T15:43:29.000Z</time>
      </trkpt>
      <trkpt lat="48.86556" lon="2.32141">
        <ele>77.87</ele>
        <time>2020-03-15T15:43:30.000Z</time>
      </trkpt>
      <trkpt lat="48.8656" lon="2.32143">
        <ele>77.86</ele>
        <time>2020-03-15T15:43:31.000Z</time>
      </trkpt>
      <trkpt lat="48.86562" lon="2.32145">
        <ele>77.85</ele>
        <time>2020-03-15T15:43:32.000Z</time>
      </trkpt>
      <trkpt lat="48.86565" lon="2.32147">
        <ele>77.84</ele>
        <time>2020-03-15T15:43:33.000Z</time>
      </trkpt>
      <trkpt lat="48.86568" lon="2.32149">
        <ele>77.84</ele>
        <time>2020-03-15T15:43:34.000Z</time>
      </trkpt>
      <trkpt lat="48.8657" lon="2.32151">
        <ele>77.83</ele>
        <time>2020-03-15T15:43:35.000Z</time>
      </trkpt>
      <trkpt lat="48.86573" lon="2.32153">
        <ele>77.82</ele>
        <time>2020-03-15T15:43:36.000Z</time>
      </trkpt>
      <trkpt lat="48.86576" lon="2.32155">
        <ele>77.82</ele>
        <time>2020-03-15T15:43:37.000Z</time>
      </trkpt>
      <trkpt lat="48.86578" lon="2.32157">
        <ele>77.81</ele>
        <time>2020-03-15T15:43:38.000Z</time>
      </trkpt>
      <trkpt lat="48.86581" lon="2.32159">
        <ele>77.8</ele>
        <time>2020-03-15T15:43:39.000Z</time>
      </trkpt>
      <trkpt lat="48.86583" lon="2.32161">
        <ele>77.8</ele>
        <time>2020-03-15T15:43:40.000Z</time>
      </trkpt>
      <trkpt lat="48.86585" lon="2.32163">
        <ele>77.79</ele>
        <time>2020-03-15T15:43:41.000Z</time>
      </trkpt>
      <trkpt lat="48.86588" lon="2.32165">
        <ele>77.78</ele>
        <time>2020-03-15T15:43:42.000Z</time>
      </trkpt>
      <trkpt lat="48.8659" lon="2.32167">
        <ele>77.78</ele>
        <time>2020-03-15T15:43:43.000Z</time>
      </trkpt>
      <trkpt lat="48.86593" lon="2.32169">
        <ele>77.77</ele>
        <time>2020-03-15T15:43:44.000Z</time>
      </trkpt>
      <trkpt lat="48.86595" lon="2.3217">
        <ele>77.76</ele>
        <time>2020-03-15T15:43:45.000Z</time>
      </trkpt>
      <trkpt lat="48.86597" lon="2.32172">
        <ele>77.76</ele>
        <time>2020-03-15T15:43:46.000Z</time>
      </trkpt>
      <trkpt lat="48.86599" lon="2.32173">
        <ele>77.75</ele>
        <time>2020-03-15T15:43:47.000Z</time>
      </trkpt>
      <trkpt lat="48.86601" lon="2.32174">
        <ele>77.75</ele>
        <time>2020-03-15T15:43:48.000Z</time>
      </trkpt>
      <trkpt lat="48.86603" lon="2.32174">
        <ele>77.74</ele>
        <time>2020-03-15T15:43:49.000Z</time>
      </trkpt>
      <trkpt lat="48.86605" lon="2.32175">
        <ele>77.74</ele>
        <time>2020-03-15T15:43:50.000Z</time>
      </trkpt>
      <trkpt lat="48.86606" lon="2.32175">
        <ele>77.71</ele>
        <time>2020-03-15T15:43:56.000Z</time>
      </trkpt>
      <trkpt lat="48.86606" lon="2.32176">
        <ele>77.71</ele>
        <time>2020-03-15T15:43:58.000Z</time>
      </trkpt>
      <trkpt lat="48.86607" lon="2.32177">
        <ele>77.7</ele>
        <time>2020-03-15T15:44:00.000Z</time>
      </trkpt>
      <trkpt lat="48.86609" lon="2.32178">
        <ele>77.7</ele>
        <time>2020-03-15T15:44:01.000Z</time>
      </trkpt>
      <trkpt lat="48.8661" lon="2.32179">
        <ele>77.7</ele>
        <time>2020-03-15T15:44:02.000Z</time>
      </trkpt>
      <trkpt lat="48.86611" lon="2.3218">
        <ele>77.69</ele>
        <time>2020-03-15T15:44:03.000Z</time>
      </trkpt>
      <trkpt lat="48.86613" lon="2.32182">
        <ele>77.69</ele>
        <time>2020-03-15T15:44:04.000Z</time>
      </trkpt>
      <trkpt lat="48.86614" lon="2.32184">
        <ele>77.69</ele>
        <time>2020-03-15T15:44:05.000Z</time>
      </trkpt>
      <trkpt lat="48.86616" lon="2.32187">
        <ele>77.69</ele>
        <time>2020-03-15T15:44:06.000Z</time>
      </trkpt>
      <trkpt lat="48.86618" lon="2.32189">
        <ele>77.69</ele>
        <time>2020-03-15T15:44:07.000Z</time>
      </trkpt>
      <trkpt lat="48.8662" lon="2.32192">
        <ele>77.68</ele>
        <time>2020-03-15T15:44:08.000Z</time>
      </trkpt>
      <trkpt lat="48.86622" lon="2.32194">
        <ele>77.68</ele>
        <time>2020-03-15T15:44:09.000Z</time>
      </trkpt>
      <trkpt lat="48.86624" lon="2.32196">
        <ele>77.68</ele>
        <time>2020-03-15T15:44:10.000Z</time>
      </trkpt>
      <trkpt lat="48.86626" lon="2.32198">
        <ele>77.68</ele>
        <time>2020-03-15T15:44:11.000Z</time>
      </trkpt>
      <trkpt lat="48.86629" lon="2.322">
        <ele>77.67</ele>
        <time>2020-03-15T15:44:12.000Z</time>
      </trkpt>
      <trkpt lat="48.86631" lon="2.32202">
        <ele>77.67</ele>
        <time>2020-03-15T15:44:13.000Z</time>
      </trkpt>
      <trkpt lat="48.86633" lon="2.32205">
        <ele>77.67</ele>
        <time>2020-03-15T15:44:14.000Z</time>
      </trkpt>
      <trkpt lat="48.86635" lon="2.32207">
        <ele>77.67</ele>
        <time>2020-03-15T15:44:15.000Z</time>
      </trkpt>
      <trkpt lat="48.86637" lon="2.32209">
        <ele>77.67</ele>
        <time>2020-03-15T15:44:16.000Z</time>
      </trkpt>
      <trkpt lat="48.8664" lon="2.32211">
        <ele>77.67</ele>
        <time>2020-03-15T15:44:17.000Z</time>
      </trkpt>
      <trkpt lat="48.86642" lon="2.32212">
        <ele>77.67</ele>
        <time>2020-03-15T15:44:18.000Z</time>
      </trkpt>
      <trkpt lat="48.86643" lon="2.32213">
        <ele>77.67</ele>
        <time>2020-03-15T15:44:19.000Z</time>
      </trkpt>
      <trkpt lat="48.86643" lon="2.32214">
        <ele>77.67</ele>
        <time>2020-03-15T15:44:20.000Z</time>
      </trkpt>
      <trkpt lat="48.86644" lon="2.32217">
        <ele>77.67</ele>
        <time>2020-03-15T15:44:21.000Z</time>
      </trkpt>
      <trkpt lat="48.86645" lon="2.32218">
        <ele>77.67</ele>
        <time>2020-03-15T15:44:22.000Z</time>
      </trkpt>
      <trkpt lat="48.86645" lon="2.3222">
        <ele>77.67</ele>
        <time>2020-03-15T15:44:23.000Z</time>
      </trkpt>
      <trkpt lat="48.86646" lon="2.32222">
        <ele>77.67</ele>
        <time>2020-03-15T15:44:25.000Z</time>
      </trkpt>
      <trkpt lat="48.86647" lon="2.32223">
        <ele>77.67</ele>
        <time>2020-03-15T15:44:26.000Z</time>
      </trkpt>
      <trkpt lat="48.86648" lon="2.32224">
        <ele>77.67</ele>
        <time>2020-03-15T15:44:27.000Z</time>
      </trkpt>
      <trkpt lat="48.8665" lon="2.32226">
        <ele>77.67</ele>
        <time>2020-03-15T15:44:28.000Z</time>
      </trkpt>
      <trkpt lat="48.86651" lon="2.32227">
        <ele>77.67</ele>
        <time>2020-03-15T15:44:29.000Z</time>
      </trkpt>
      <trkpt lat="48.86653" lon="2.32229">
        <ele>77.67</ele>
        <time>2020-03-15T15:44:30.000Z</time>
      </trkpt>
      <trkpt lat="48.86654" lon="2.32229">
        <ele>77.67</ele>
        <time>2020-03-15T15:44:31.000Z</time>
      </trkpt>
      <trkpt lat="48.86656" lon="2.3223">
        <ele>77.67</ele>
        <time>2020-03-15T15:44:32.000Z</time>
      </trkpt>
      <trkpt lat="48.86658" lon="2.32231">
        <ele>77.67</ele>
        <time>2020-03-15T15:44:33.000Z</time>
      </trkpt>
      <trkpt lat="48.8666" lon="2.32232">
        <ele>77.67</ele>
        <time>2020-03-15T15:44:34.000Z</time>
      </trkpt>
      <trkpt lat="48.86662" lon="2.32232">
        <ele>77.67</ele>
        <time>2020-03-15T15:44:35.000Z</time>
      </trkpt>
      <trkpt lat="48.86665" lon="2.32231">
        <ele>77.67</ele>
        <time>2020-03-15T15:44:36.000Z</time>
      </trkpt>
      <trkpt lat="48.86667" lon="2.32231">
        <ele>77.68</ele>
        <time>2020-03-15T15:44:37.000Z</time>
      </trkpt>
      <trkpt lat="48.86671" lon="2.32232">
        <ele>77.68</ele>
        <time>2020-03-15T15:44:38.000Z</time>
      </trkpt>
      <trkpt lat="48.86673" lon="2.32232">
        <ele>77.68</ele>
        <time>2020-03-15T15:44:39.000Z</time>
      </trkpt>
      <trkpt lat="48.86675" lon="2.32233">
        <ele>77.68</ele>
        <time>2020-03-15T15:44:40.000Z</time>
      </trkpt>
      <trkpt lat="48.86677" lon="2.32233">
        <ele>77.69</ele>
        <time>2020-03-15T15:44:41.000Z</time>
      </trkpt>
      <trkpt lat="48.86679" lon="2.32233">
        <ele>77.69</ele>
        <time>2020-03-15T15:44:42.000Z</time>
      </trkpt>
      <trkpt lat="48.86682" lon="2.32234">
        <ele>77.69</ele>
        <time>2020-03-15T15:44:43.000Z</time>
      </trkpt>
      <trkpt lat="48.86684" lon="2.32235">
        <ele>77.7</ele>
        <time>2020-03-15T15:44:44.000Z</time>
      </trkpt>
      <trkpt lat="48.86687" lon="2.32237">
        <ele>77.7</ele>
        <time>2020-03-15T15:44:45.000Z</time>
      </trkpt>
      <trkpt lat="48.86689" lon="2.3224">
        <ele>77.7</ele>
        <time>2020-03-15T15:44:46.000Z</time>
      </trkpt>
      <trkpt lat="48.86693" lon="2.32241">
        <ele>77.71</ele>
        <time>2020-03-15T15:44:47.000Z</time>
      </trkpt>
      <trkpt lat="48.86695" lon="2.32244">
        <ele>77.71</ele>
        <time>2020-03-15T15:44:48.000Z</time>
      </trkpt>
      <trkpt lat="48.86698" lon="2.32246">
        <ele>77.72</ele>
        <time>2020-03-15T15:44:49.000Z</time>
      </trkpt>
      <trkpt lat="48.86699" lon="2.32247">
        <ele>77.73</ele>
        <time>2020-03-15T15:44:50.000Z</time>
      </trkpt>
      <trkpt lat="48.86702" lon="2.3225">
        <ele>77.74</ele>
        <time>2020-03-15T15:44:52.000Z</time>
      </trkpt>
      <trkpt lat="48.86704" lon="2.32253">
        <ele>77.75</ele>
        <time>2020-03-15T15:44:53.000Z</time>
      </trkpt>
      <trkpt lat="48.86705" lon="2.32253">
        <ele>77.76</ele>
        <time>2020-03-15T15:44:54.000Z</time>
      </trkpt>
      <trkpt lat="48.86707" lon="2.32255">
        <ele>77.77</ele>
        <time>2020-03-15T15:44:55.000Z</time>
      </trkpt>
      <trkpt lat="48.8671" lon="2.32256">
        <ele>77.79</ele>
        <time>2020-03-15T15:44:56.000Z</time>
      </trkpt>
      <trkpt lat="48.86713" lon="2.32257">
        <ele>77.8</ele>
        <time>2020-03-15T15:44:57.000Z</time>
      </trkpt>
      <trkpt lat="48.86715" lon="2.32258">
        <ele>77.82</ele>
        <time>2020-03-15T15:44:58.000Z</time>
      </trkpt>
      <trkpt lat="48.86718" lon="2.3226">
        <ele>77.83</ele>
        <time>2020-03-15T15:44:59.000Z</time>
      </trkpt>
      <trkpt lat="48.8672" lon="2.32262">
        <ele>77.85</ele>
        <time>2020-03-15T15:45:00.000Z</time>
      </trkpt>
      <trkpt lat="48.86724" lon="2.32264">
        <ele>77.86</ele>
        <time>2020-03-15T15:45:01.000Z</time>
      </trkpt>
      <trkpt lat="48.86725" lon="2.32265">
        <ele>77.88</ele>
        <time>2020-03-15T15:45:02.000Z</time>
      </trkpt>
      <trkpt lat="48.86726" lon="2.32266">
        <ele>77.9</ele>
        <time>2020-03-15T15:45:03.000Z</time>
      </trkpt>
      <trkpt lat="48.86729" lon="2.32268">
        <ele>77.92</ele>
        <time>2020-03-15T15:45:04.000Z</time>
      </trkpt>
      <trkpt lat="48.8673" lon="2.32268">
        <ele>77.94</ele>
        <time>2020-03-15T15:45:05.000Z</time>
      </trkpt>
      <trkpt lat="48.86731" lon="2.32268">
        <ele>77.97</ele>
        <time>2020-03-15T15:45:06.000Z</time>
      </trkpt>
      <trkpt lat="48.86733" lon="2.32268">
        <ele>78.02</ele>
        <time>2020-03-15T15:45:08.000Z</time>
      </trkpt>
      <trkpt lat="48.86735" lon="2.32269">
        <ele>78.04</ele>
        <time>2020-03-15T15:45:09.000Z</time>
      </trkpt>
      <trkpt lat="48.86737" lon="2.3227">
        <ele>78.07</ele>
        <time>2020-03-15T15:45:10.000Z</time>
      </trkpt>
      <trkpt lat="48.8674" lon="2.32273">
        <ele>78.09</ele>
        <time>2020-03-15T15:45:11.000Z</time>
      </trkpt>
      <trkpt lat="48.86743" lon="2.32276">
        <ele>78.12</ele>
        <time>2020-03-15T15:45:12.000Z</time>
      </trkpt>
      <trkpt lat="48.86747" lon="2.32276">
        <ele>78.15</ele>
        <time>2020-03-15T15:45:13.000Z</time>
      </trkpt>
      <trkpt lat="48.8675" lon="2.32279">
        <ele>78.18</ele>
        <time>2020-03-15T15:45:14.000Z</time>
      </trkpt>
      <trkpt lat="48.86752" lon="2.32282">
        <ele>78.24</ele>
        <time>2020-03-15T15:45:16.000Z</time>
      </trkpt>
      <trkpt lat="48.86755" lon="2.32282">
        <ele>78.27</ele>
        <time>2020-03-15T15:45:17.000Z</time>
      </trkpt>
      <trkpt lat="48.86756" lon="2.32283">
        <ele>78.3</ele>
        <time>2020-03-15T15:45:18.000Z</time>
      </trkpt>
      <trkpt lat="48.8676" lon="2.32287">
        <ele>78.33</ele>
        <time>2020-03-15T15:45:19.000Z</time>
      </trkpt>
      <trkpt lat="48.86763" lon="2.32289">
        <ele>78.36</ele>
        <time>2020-03-15T15:45:20.000Z</time>
      </trkpt>
      <trkpt lat="48.86767" lon="2.32291">
        <ele>78.4</ele>
        <time>2020-03-15T15:45:21.000Z</time>
      </trkpt>
      <trkpt lat="48.86769" lon="2.32295">
        <ele>78.43</ele>
        <time>2020-03-15T15:45:22.000Z</time>
      </trkpt>
      <trkpt lat="48.86771" lon="2.32297">
        <ele>78.47</ele>
        <time>2020-03-15T15:45:23.000Z</time>
      </trkpt>
      <trkpt lat="48.86775" lon="2.323">
        <ele>78.5</ele>
        <time>2020-03-15T15:45:24.000Z</time>
      </trkpt>
      <trkpt lat="48.86778" lon="2.323">
        <ele>78.54</ele>
        <time>2020-03-15T15:45:25.000Z</time>
      </trkpt>
      <trkpt lat="48.86782" lon="2.32304">
        <ele>78.57</ele>
        <time>2020-03-15T15:45:26.000Z</time>
      </trkpt>
      <trkpt lat="48.86786" lon="2.32309">
        <ele>78.61</ele>
        <time>2020-03-15T15:45:27.000Z</time>
      </trkpt>
      <trkpt lat="48.86788" lon="2.32309">
        <ele>78.65</ele>
        <time>2020-03-15T15:45:28.000Z</time>
      </trkpt>
      <trkpt lat="48.86792" lon="2.32315">
        <ele>78.68</ele>
        <time>2020-03-15T15:45:29.000Z</time>
      </trkpt>
      <trkpt lat="48.86795" lon="2.32316">
        <ele>78.72</ele>
        <time>2020-03-15T15:45:30.000Z</time>
      </trkpt>
      <trkpt lat="48.86799" lon="2.32321">
        <ele>78.76</ele>
        <time>2020-03-15T15:45:31.000Z</time>
      </trkpt>
      <trkpt lat="48.86803" lon="2.32318">
        <ele>78.79</ele>
        <time>2020-03-15T15:45:32.000Z</time>
      </trkpt>
      <trkpt lat="48.86808" lon="2.32316">
        <ele>78.83</ele>
        <time>2020-03-15T15:45:33.000Z</time>
      </trkpt>
      <trkpt lat="48.86815" lon="2.32319">
        <ele>78.87</ele>
        <time>2020-03-15T15:45:34.000Z</time>
      </trkpt>
      <trkpt lat="48.86821" lon="2.32327">
        <ele>78.91</ele>
        <time>2020-03-15T15:45:35.000Z</time>
      </trkpt>
      <trkpt lat="48.86826" lon="2.32335">
        <ele>78.97</ele>
        <time>2020-03-15T15:45:36.000Z</time>
      </trkpt>
      <trkpt lat="48.86828" lon="2.3234">
        <ele>79.04</ele>
        <time>2020-03-15T15:45:37.000Z</time>
      </trkpt>
      <trkpt lat="48.86828" lon="2.32343">
        <ele>79.11</ele>
        <time>2020-03-15T15:45:38.000Z</time>
      </trkpt>
      <trkpt lat="48.86827" lon="2.32344">
        <ele>79.18</ele>
        <time>2020-03-15T15:45:39.000Z</time>
      </trkpt>
      <trkpt lat="48.86826" lon="2.32346">
        <ele>79.26</ele>
        <time>2020-03-15T15:45:40.000Z</time>
      </trkpt>
      <trkpt lat="48.86827" lon="2.32343">
        <ele>79.33</ele>
        <time>2020-03-15T15:45:41.000Z</time>
      </trkpt>
      <trkpt lat="48.86826" lon="2.32345">
        <ele>79.4</ele>
        <time>2020-03-15T15:45:42.000Z</time>
      </trkpt>
      <trkpt lat="48.86825" lon="2.32346">
        <ele>79.55</ele>
        <time>2020-03-15T15:45:44.000Z</time>
      </trkpt>
      <trkpt lat="48.86827" lon="2.32347">
        <ele>79.71</ele>
        <time>2020-03-15T15:45:46.000Z</time>
      </trkpt>
      <trkpt lat="48.86828" lon="2.32348">
        <ele>79.86</ele>
        <time>2020-03-15T15:45:48.000Z</time>
      </trkpt>
      <trkpt lat="48.86828" lon="2.32346">
        <ele>79.94</ele>
        <time>2020-03-15T15:45:49.000Z</time>
      </trkpt>
      <trkpt lat="48.8683" lon="2.32345">
        <ele>80.01</ele>
        <time>2020-03-15T15:45:50.000Z</time>
      </trkpt>
      <trkpt lat="48.86832" lon="2.32344">
        <ele>80.09</ele>
        <time>2020-03-15T15:45:51.000Z</time>
      </trkpt>
      <trkpt lat="48.86833" lon="2.32344">
        <ele>80.17</ele>
        <time>2020-03-15T15:45:52.000Z</time>
      </trkpt>
      <trkpt lat="48.86835" lon="2.32345">
        <ele>80.24</ele>
        <time>2020-03-15T15:45:53.000Z</time>
      </trkpt>
      <trkpt lat="48.86838" lon="2.32346">
        <ele>80.32</ele>
        <time>2020-03-15T15:45:54.000Z</time>
      </trkpt>
      <trkpt lat="48.86839" lon="2.32347">
        <ele>80.39</ele>
        <time>2020-03-15T15:45:55.000Z</time>
      </trkpt>
      <trkpt lat="48.8684" lon="2.32349">
        <ele>80.47</ele>
        <time>2020-03-15T15:45:56.000Z</time>
      </trkpt>
      <trkpt lat="48.86842" lon="2.32352">
        <ele>80.55</ele>
        <time>2020-03-15T15:45:57.000Z</time>
      </trkpt>
      <trkpt lat="48.86844" lon="2.32354">
        <ele>80.63</ele>
        <time>2020-03-15T15:45:58.000Z</time>
      </trkpt>
      <trkpt lat="48.86847" lon="2.32357">
        <ele>80.7</ele>
        <time>2020-03-15T15:45:59.000Z</time>
      </trkpt>
      <trkpt lat="48.86853" lon="2.32362">
        <ele>80.78</ele>
        <time>2020-03-15T15:46:00.000Z</time>
      </trkpt>
      <trkpt lat="48.86859" lon="2.32366">
        <ele>80.85</ele>
        <time>2020-03-15T15:46:01.000Z</time>
      </trkpt>
      <trkpt lat="48.86863" lon="2.32368">
        <ele>80.92</ele>
        <time>2020-03-15T15:46:02.000Z</time>
      </trkpt>
      <trkpt lat="48.86867" lon="2.32369">
        <ele>81</ele>
        <time>2020-03-15T15:46:03.000Z</time>
      </trkpt>
      <trkpt lat="48.86872" lon="2.32372">
        <ele>81.07</ele>
        <time>2020-03-15T15:46:04.000Z</time>
      </trkpt>
      <trkpt lat="48.86879" lon="2.32374">
        <ele>81.15</ele>
        <time>2020-03-15T15:46:05.000Z</time>
      </trkpt>
      <trkpt lat="48.86883" lon="2.32377">
        <ele>81.23</ele>
        <time>2020-03-15T15:46:06.000Z</time>
      </trkpt>
      <trkpt lat="48.86887" lon="2.32381">
        <ele>81.31</ele>
        <time>2020-03-15T15:46:07.000Z</time>
      </trkpt>
      <trkpt lat="48.86891" lon="2.32385">
        <ele>81.39</ele>
        <time>2020-03-15T15:46:08.000Z</time>
      </trkpt>
      <trkpt lat="48.86903" lon="2.32405">
        <ele>81.48</ele>
        <time>2020-03-15T15:46:09.000Z</time>
      </trkpt>
      <trkpt lat="48.8691" lon="2.32413">
        <ele>81.56</ele>
        <time>2020-03-15T15:46:10.000Z</time>
      </trkpt>
      <trkpt lat="48.86913" lon="2.32418">
        <ele>81.64</ele>
        <time>2020-03-15T15:46:11.000Z</time>
      </trkpt>
      <trkpt lat="48.86916" lon="2.32422">
        <ele>81.72</ele>
        <time>2020-03-15T15:46:12.000Z</time>
      </trkpt>
      <trkpt lat="48.86919" lon="2.32427">
        <ele>81.8</ele>
        <time>2020-03-15T15:46:13.000Z</time>
      </trkpt>
      <trkpt lat="48.86922" lon="2.32433">
        <ele>81.87</ele>
        <time>2020-03-15T15:46:14.000Z</time>
      </trkpt>
      <trkpt lat="48.86924" lon="2.32439">
        <ele>81.93</ele>
        <time>2020-03-15T15:46:15.000Z</time>
      </trkpt>
      <trkpt lat="48.86926" lon="2.32445">
        <ele>82</ele>
        <time>2020-03-15T15:46:16.000Z</time>
      </trkpt>
      <trkpt lat="48.86927" lon="2.32448">
        <ele>82.06</ele>
        <time>2020-03-15T15:46:17.000Z</time>
      </trkpt>
      <trkpt lat="48.86928" lon="2.32453">
        <ele>82.12</ele>
        <time>2020-03-15T15:46:18.000Z</time>
      </trkpt>
      <trkpt lat="48.86929" lon="2.32455">
        <ele>82.19</ele>
        <time>2020-03-15T15:46:19.000Z</time>
      </trkpt>
      <trkpt lat="48.8693" lon="2.32458">
        <ele>82.26</ele>
        <time>2020-03-15T15:46:20.000Z</time>
      </trkpt>
      <trkpt lat="48.86932" lon="2.32461">
        <ele>82.33</ele>
        <time>2020-03-15T15:46:21.000Z</time>
      </trkpt>
      <trkpt lat="48.86934" lon="2.32465">
        <ele>82.41</ele>
        <time>2020-03-15T15:46:22.000Z</time>
      </trkpt>
      <trkpt lat="48.86935" lon="2.32467">
        <ele>82.48</ele>
        <time>2020-03-15T15:46:23.000Z</time>
      </trkpt>
      <trkpt lat="48.86936" lon="2.32471">
        <ele>82.56</ele>
        <time>2020-03-15T15:46:24.000Z</time>
      </trkpt>
      <trkpt lat="48.86937" lon="2.32475">
        <ele>82.64</ele>
        <time>2020-03-15T15:46:25.000Z</time>
      </trkpt>
      <trkpt lat="48.86938" lon="2.32479">
        <ele>82.71</ele>
        <time>2020-03-15T15:46:26.000Z</time>
      </trkpt>
      <trkpt lat="48.8694" lon="2.3248">
        <ele>82.79</ele>
        <time>2020-03-15T15:46:27.000Z</time>
      </trkpt>
      <trkpt lat="48.86941" lon="2.32485">
        <ele>82.86</ele>
        <time>2020-03-15T15:46:28.000Z</time>
      </trkpt>
      <trkpt lat="48.86942" lon="2.32487">
        <ele>82.93</ele>
        <time>2020-03-15T15:46:29.000Z</time>
      </trkpt>
      <trkpt lat="48.86943" lon="2.3249">
        <ele>83.01</ele>
        <time>2020-03-15T15:46:30.000Z</time>
      </trkpt>
      <trkpt lat="48.86944" lon="2.32492">
        <ele>83.08</ele>
        <time>2020-03-15T15:46:31.000Z</time>
      </trkpt>
      <trkpt lat="48.86945" lon="2.32496">
        <ele>83.14</ele>
        <time>2020-03-15T15:46:32.000Z</time>
      </trkpt>
      <trkpt lat="48.86945" lon="2.325">
        <ele>83.21</ele>
        <time>2020-03-15T15:46:33.000Z</time>
      </trkpt>
      <trkpt lat="48.86946" lon="2.32503">
        <ele>83.28</ele>
        <time>2020-03-15T15:46:34.000Z</time>
      </trkpt>
      <trkpt lat="48.86946" lon="2.32505">
        <ele>83.35</ele>
        <time>2020-03-15T15:46:35.000Z</time>
      </trkpt>
      <trkpt lat="48.86946" lon="2.32508">
        <ele>83.42</ele>
        <time>2020-03-15T15:46:36.000Z</time>
      </trkpt>
      <trkpt lat="48.86946" lon="2.3251">
        <ele>83.55</ele>
        <time>2020-03-15T15:46:39.000Z</time>
      </trkpt>
      <trkpt lat="48.86946" lon="2.32511">
        <ele>83.61</ele>
        <time>2020-03-15T15:46:40.000Z</time>
      </trkpt>
      <trkpt lat="48.86947" lon="2.32513">
        <ele>83.67</ele>
        <time>2020-03-15T15:46:41.000Z</time>
      </trkpt>
      <trkpt lat="48.86946" lon="2.32514">
        <ele>83.72</ele>
        <time>2020-03-15T15:46:42.000Z</time>
      </trkpt>
      <trkpt lat="48.86944" lon="2.32516">
        <ele>83.77</ele>
        <time>2020-03-15T15:46:43.000Z</time>
      </trkpt>
      <trkpt lat="48.86943" lon="2.32518">
        <ele>83.83</ele>
        <time>2020-03-15T15:46:44.000Z</time>
      </trkpt>
      <trkpt lat="48.86943" lon="2.3252">
        <ele>83.94</ele>
        <time>2020-03-15T15:46:46.000Z</time>
      </trkpt>
      <trkpt lat="48.86943" lon="2.32522">
        <ele>84.01</ele>
        <time>2020-03-15T15:46:47.000Z</time>
      </trkpt>
      <trkpt lat="48.86943" lon="2.32523">
        <ele>84.08</ele>
        <time>2020-03-15T15:46:48.000Z</time>
      </trkpt>
      <trkpt lat="48.86942" lon="2.32525">
        <ele>84.16</ele>
        <time>2020-03-15T15:46:50.000Z</time>
      </trkpt>
      <trkpt lat="48.86941" lon="2.32526">
        <ele>84.3</ele>
        <time>2020-03-15T15:46:54.000Z</time>
      </trkpt>
      <trkpt lat="48.86942" lon="2.32527">
        <ele>84.64</ele>
        <time>2020-03-15T15:46:59.000Z</time>
      </trkpt>
      <trkpt lat="48.86942" lon="2.32529">
        <ele>84.71</ele>
        <time>2020-03-15T15:47:00.000Z</time>
      </trkpt>
      <trkpt lat="48.86943" lon="2.32531">
        <ele>84.76</ele>
        <time>2020-03-15T15:47:01.000Z</time>
      </trkpt>
      <trkpt lat="48.86944" lon="2.32533">
        <ele>84.82</ele>
        <time>2020-03-15T15:47:02.000Z</time>
      </trkpt>
      <trkpt lat="48.86945" lon="2.32535">
        <ele>84.88</ele>
        <time>2020-03-15T15:47:03.000Z</time>
      </trkpt>
      <trkpt lat="48.86945" lon="2.32533">
        <ele>85.05</ele>
        <time>2020-03-15T15:47:08.000Z</time>
      </trkpt>
      <trkpt lat="48.86946" lon="2.32531">
        <ele>85.12</ele>
        <time>2020-03-15T15:47:10.000Z</time>
      </trkpt>
      <trkpt lat="48.86945" lon="2.3253">
        <ele>85.22</ele>
        <time>2020-03-15T15:47:16.000Z</time>
      </trkpt>
      <trkpt lat="48.86944" lon="2.32529">
        <ele>85.33</ele>
        <time>2020-03-15T15:47:18.000Z</time>
      </trkpt>
      <trkpt lat="48.86943" lon="2.32528">
        <ele>85.35</ele>
        <time>2020-03-15T15:47:22.000Z</time>
      </trkpt>
      <trkpt lat="48.86944" lon="2.32529">
        <ele>85.4</ele>
        <time>2020-03-15T15:47:25.000Z</time>
      </trkpt>
      <trkpt lat="48.86945" lon="2.32531">
        <ele>85.44</ele>
        <time>2020-03-15T15:47:26.000Z</time>
      </trkpt>
      <trkpt lat="48.86947" lon="2.32533">
        <ele>85.49</ele>
        <time>2020-03-15T15:47:27.000Z</time>
      </trkpt>
      <trkpt lat="48.86948" lon="2.32535">
        <ele>85.53</ele>
        <time>2020-03-15T15:47:28.000Z</time>
      </trkpt>
      <trkpt lat="48.86949" lon="2.32539">
        <ele>85.57</ele>
        <time>2020-03-15T15:47:29.000Z</time>
      </trkpt>
      <trkpt lat="48.86949" lon="2.32542">
        <ele>85.61</ele>
        <time>2020-03-15T15:47:30.000Z</time>
      </trkpt>
      <trkpt lat="48.86949" lon="2.32545">
        <ele>85.65</ele>
        <time>2020-03-15T15:47:31.000Z</time>
      </trkpt>
      <trkpt lat="48.86951" lon="2.32549">
        <ele>85.66</ele>
        <time>2020-03-15T15:47:32.000Z</time>
      </trkpt>
      <trkpt lat="48.86952" lon="2.32553">
        <ele>85.66</ele>
        <time>2020-03-15T15:47:33.000Z</time>
      </trkpt>
      <trkpt lat="48.86953" lon="2.32556">
        <ele>85.65</ele>
        <time>2020-03-15T15:47:34.000Z</time>
      </trkpt>
      <trkpt lat="48.86954" lon="2.32561">
        <ele>85.62</ele>
        <time>2020-03-15T15:47:35.000Z</time>
      </trkpt>
      <trkpt lat="48.86954" lon="2.32566">
        <ele>85.59</ele>
        <time>2020-03-15T15:47:36.000Z</time>
      </trkpt>
      <trkpt lat="48.86954" lon="2.32572">
        <ele>85.57</ele>
        <time>2020-03-15T15:47:37.000Z</time>
      </trkpt>
      <trkpt lat="48.86954" lon="2.32576">
        <ele>85.55</ele>
        <time>2020-03-15T15:47:38.000Z</time>
      </trkpt>
      <trkpt lat="48.86955" lon="2.32582">
        <ele>85.51</ele>
        <time>2020-03-15T15:47:39.000Z</time>
      </trkpt>
      <trkpt lat="48.86956" lon="2.32586">
        <ele>85.47</ele>
        <time>2020-03-15T15:47:40.000Z</time>
      </trkpt>
      <trkpt lat="48.86958" lon="2.32592">
        <ele>85.45</ele>
        <time>2020-03-15T15:47:41.000Z</time>
      </trkpt>
      <trkpt lat="48.86958" lon="2.32599">
        <ele>85.51</ele>
        <time>2020-03-15T15:47:42.000Z</time>
      </trkpt>
      <trkpt lat="48.86959" lon="2.32607">
        <ele>85.07</ele>
        <time>2020-03-15T15:47:43.000Z</time>
      </trkpt>
      <trkpt lat="48.8696" lon="2.32613">
        <ele>85</ele>
        <time>2020-03-15T15:47:44.000Z</time>
      </trkpt>
      <trkpt lat="48.86961" lon="2.32619">
        <ele>84.93</ele>
        <time>2020-03-15T15:47:45.000Z</time>
      </trkpt>
      <trkpt lat="48.86962" lon="2.32624">
        <ele>84.87</ele>
        <time>2020-03-15T15:47:46.000Z</time>
      </trkpt>
      <trkpt lat="48.86962" lon="2.3263">
        <ele>84.82</ele>
        <time>2020-03-15T15:47:47.000Z</time>
      </trkpt>
      <trkpt lat="48.86963" lon="2.32636">
        <ele>84.77</ele>
        <time>2020-03-15T15:47:48.000Z</time>
      </trkpt>
      <trkpt lat="48.86964" lon="2.3264">
        <ele>84.72</ele>
        <time>2020-03-15T15:47:49.000Z</time>
      </trkpt>
      <trkpt lat="48.86965" lon="2.32645">
        <ele>84.66</ele>
        <time>2020-03-15T15:47:50.000Z</time>
      </trkpt>
      <trkpt lat="48.86967" lon="2.32651">
        <ele>84.6</ele>
        <time>2020-03-15T15:47:51.000Z</time>
      </trkpt>
      <trkpt lat="48.86967" lon="2.32657">
        <ele>84.54</ele>
        <time>2020-03-15T15:47:52.000Z</time>
      </trkpt>
      <trkpt lat="48.86968" lon="2.32662">
        <ele>84.49</ele>
        <time>2020-03-15T15:47:53.000Z</time>
      </trkpt>
      <trkpt lat="48.86968" lon="2.32667">
        <ele>84.43</ele>
        <time>2020-03-15T15:47:54.000Z</time>
      </trkpt>
      <trkpt lat="48.86969" lon="2.32673">
        <ele>84.37</ele>
        <time>2020-03-15T15:47:55.000Z</time>
      </trkpt>
      <trkpt lat="48.86971" lon="2.32681">
        <ele>84.32</ele>
        <time>2020-03-15T15:47:56.000Z</time>
      </trkpt>
      <trkpt lat="48.86973" lon="2.32687">
        <ele>84.3</ele>
        <time>2020-03-15T15:47:57.000Z</time>
      </trkpt>
      <trkpt lat="48.86975" lon="2.32695">
        <ele>84.21</ele>
        <time>2020-03-15T15:47:58.000Z</time>
      </trkpt>
      <trkpt lat="48.86978" lon="2.32701">
        <ele>84.1</ele>
        <time>2020-03-15T15:47:59.000Z</time>
      </trkpt>
      <trkpt lat="48.8698" lon="2.32709">
        <ele>82.92</ele>
        <time>2020-03-15T15:48:00.000Z</time>
      </trkpt>
      <trkpt lat="48.86981" lon="2.32716">
        <ele>82.18</ele>
        <time>2020-03-15T15:48:01.000Z</time>
      </trkpt>
      <trkpt lat="48.86983" lon="2.32722">
        <ele>81.66</ele>
        <time>2020-03-15T15:48:02.000Z</time>
      </trkpt>
      <trkpt lat="48.86984" lon="2.32729">
        <ele>81.62</ele>
        <time>2020-03-15T15:48:03.000Z</time>
      </trkpt>
      <trkpt lat="48.86986" lon="2.32734">
        <ele>81.61</ele>
        <time>2020-03-15T15:48:04.000Z</time>
      </trkpt>
      <trkpt lat="48.86988" lon="2.32739">
        <ele>81.6</ele>
        <time>2020-03-15T15:48:05.000Z</time>
      </trkpt>
      <trkpt lat="48.86989" lon="2.32744">
        <ele>81.58</ele>
        <time>2020-03-15T15:48:06.000Z</time>
      </trkpt>
      <trkpt lat="48.86991" lon="2.3275">
        <ele>81.51</ele>
        <time>2020-03-15T15:48:07.000Z</time>
      </trkpt>
      <trkpt lat="48.86992" lon="2.32756">
        <ele>81.45</ele>
        <time>2020-03-15T15:48:08.000Z</time>
      </trkpt>
      <trkpt lat="48.86992" lon="2.32763">
        <ele>81.38</ele>
        <time>2020-03-15T15:48:09.000Z</time>
      </trkpt>
      <trkpt lat="48.86993" lon="2.3277">
        <ele>81.33</ele>
        <time>2020-03-15T15:48:10.000Z</time>
      </trkpt>
      <trkpt lat="48.86995" lon="2.32775">
        <ele>81.28</ele>
        <time>2020-03-15T15:48:11.000Z</time>
      </trkpt>
      <trkpt lat="48.86996" lon="2.32781">
        <ele>81.23</ele>
        <time>2020-03-15T15:48:12.000Z</time>
      </trkpt>
      <trkpt lat="48.86996" lon="2.3279">
        <ele>81.21</ele>
        <time>2020-03-15T15:48:13.000Z</time>
      </trkpt>
      <trkpt lat="48.86997" lon="2.328">
        <ele>81.19</ele>
        <time>2020-03-15T15:48:14.000Z</time>
      </trkpt>
      <trkpt lat="48.86998" lon="2.32808">
        <ele>81.17</ele>
        <time>2020-03-15T15:48:15.000Z</time>
      </trkpt>
      <trkpt lat="48.87" lon="2.32816">
        <ele>81.09</ele>
        <time>2020-03-15T15:48:16.000Z</time>
      </trkpt>
      <trkpt lat="48.86999" lon="2.32818">
        <ele>81.01</ele>
        <time>2020-03-15T15:48:17.000Z</time>
      </trkpt>
      <trkpt lat="48.87" lon="2.32826">
        <ele>80.95</ele>
        <time>2020-03-15T15:48:18.000Z</time>
      </trkpt>
      <trkpt lat="48.87" lon="2.32831">
        <ele>80.87</ele>
        <time>2020-03-15T15:48:19.000Z</time>
      </trkpt>
      <trkpt lat="48.87" lon="2.32838">
        <ele>80.78</ele>
        <time>2020-03-15T15:48:20.000Z</time>
      </trkpt>
      <trkpt lat="48.87001" lon="2.32843">
        <ele>80.69</ele>
        <time>2020-03-15T15:48:21.000Z</time>
      </trkpt>
      <trkpt lat="48.87002" lon="2.32848">
        <ele>80.63</ele>
        <time>2020-03-15T15:48:22.000Z</time>
      </trkpt>
      <trkpt lat="48.87003" lon="2.32854">
        <ele>80.56</ele>
        <time>2020-03-15T15:48:23.000Z</time>
      </trkpt>
      <trkpt lat="48.87005" lon="2.3286">
        <ele>80.49</ele>
        <time>2020-03-15T15:48:24.000Z</time>
      </trkpt>
      <trkpt lat="48.87005" lon="2.32866">
        <ele>80.44</ele>
        <time>2020-03-15T15:48:25.000Z</time>
      </trkpt>
      <trkpt lat="48.87007" lon="2.32871">
        <ele>80.39</ele>
        <time>2020-03-15T15:48:26.000Z</time>
      </trkpt>
      <trkpt lat="48.87007" lon="2.32876">
        <ele>80.34</ele>
        <time>2020-03-15T15:48:27.000Z</time>
      </trkpt>
      <trkpt lat="48.87008" lon="2.32881">
        <ele>80.29</ele>
        <time>2020-03-15T15:48:28.000Z</time>
      </trkpt>
      <trkpt lat="48.87009" lon="2.32885">
        <ele>80.26</ele>
        <time>2020-03-15T15:48:29.000Z</time>
      </trkpt>
      <trkpt lat="48.8701" lon="2.3289">
        <ele>80.25</ele>
        <time>2020-03-15T15:48:30.000Z</time>
      </trkpt>
      <trkpt lat="48.87011" lon="2.32895">
        <ele>80.24</ele>
        <time>2020-03-15T15:48:31.000Z</time>
      </trkpt>
      <trkpt lat="48.87012" lon="2.32899">
        <ele>80.23</ele>
        <time>2020-03-15T15:48:32.000Z</time>
      </trkpt>
      <trkpt lat="48.87013" lon="2.32904">
        <ele>80.24</ele>
        <time>2020-03-15T15:48:33.000Z</time>
      </trkpt>
      <trkpt lat="48.87014" lon="2.3291">
        <ele>80.24</ele>
        <time>2020-03-15T15:48:34.000Z</time>
      </trkpt>
      <trkpt lat="48.87016" lon="2.32916">
        <ele>80.25</ele>
        <time>2020-03-15T15:48:35.000Z</time>
      </trkpt>
      <trkpt lat="48.87017" lon="2.3292">
        <ele>80.26</ele>
        <time>2020-03-15T15:48:36.000Z</time>
      </trkpt>
      <trkpt lat="48.87018" lon="2.32924">
        <ele>80.27</ele>
        <time>2020-03-15T15:48:37.000Z</time>
      </trkpt>
      <trkpt lat="48.87018" lon="2.32928">
        <ele>80.3</ele>
        <time>2020-03-15T15:48:38.000Z</time>
      </trkpt>
      <trkpt lat="48.87019" lon="2.32935">
        <ele>80.32</ele>
        <time>2020-03-15T15:48:39.000Z</time>
      </trkpt>
      <trkpt lat="48.8702" lon="2.3294">
        <ele>80.35</ele>
        <time>2020-03-15T15:48:40.000Z</time>
      </trkpt>
      <trkpt lat="48.8702" lon="2.32945">
        <ele>80.39</ele>
        <time>2020-03-15T15:48:41.000Z</time>
      </trkpt>
      <trkpt lat="48.8702" lon="2.32951">
        <ele>80.43</ele>
        <time>2020-03-15T15:48:42.000Z</time>
      </trkpt>
      <trkpt lat="48.87021" lon="2.32959">
        <ele>80.45</ele>
        <time>2020-03-15T15:48:43.000Z</time>
      </trkpt>
      <trkpt lat="48.87021" lon="2.32969">
        <ele>80.45</ele>
        <time>2020-03-15T15:48:44.000Z</time>
      </trkpt>
      <trkpt lat="48.87022" lon="2.32975">
        <ele>80.41</ele>
        <time>2020-03-15T15:48:45.000Z</time>
      </trkpt>
      <trkpt lat="48.87023" lon="2.32981">
        <ele>80.37</ele>
        <time>2020-03-15T15:48:46.000Z</time>
      </trkpt>
      <trkpt lat="48.87024" lon="2.32986">
        <ele>80.3</ele>
        <time>2020-03-15T15:48:47.000Z</time>
      </trkpt>
      <trkpt lat="48.87024" lon="2.32992">
        <ele>80.25</ele>
        <time>2020-03-15T15:48:48.000Z</time>
      </trkpt>
      <trkpt lat="48.87025" lon="2.32996">
        <ele>80.17</ele>
        <time>2020-03-15T15:48:49.000Z</time>
      </trkpt>
      <trkpt lat="48.87025" lon="2.33001">
        <ele>80.08</ele>
        <time>2020-03-15T15:48:50.000Z</time>
      </trkpt>
      <trkpt lat="48.87026" lon="2.33006">
        <ele>79.99</ele>
        <time>2020-03-15T15:48:51.000Z</time>
      </trkpt>
      <trkpt lat="48.87027" lon="2.3301">
        <ele>79.93</ele>
        <time>2020-03-15T15:48:52.000Z</time>
      </trkpt>
      <trkpt lat="48.87026" lon="2.33014">
        <ele>79.89</ele>
        <time>2020-03-15T15:48:54.000Z</time>
      </trkpt>
      <trkpt lat="48.87025" lon="2.33017">
        <ele>79.92</ele>
        <time>2020-03-15T15:48:55.000Z</time>
      </trkpt>
      <trkpt lat="48.87024" lon="2.33018">
        <ele>79.97</ele>
        <time>2020-03-15T15:48:56.000Z</time>
      </trkpt>
      <trkpt lat="48.87024" lon="2.3302">
        <ele>80.03</ele>
        <time>2020-03-15T15:48:57.000Z</time>
      </trkpt>
      <trkpt lat="48.87019" lon="2.33025">
        <ele>80.05</ele>
        <time>2020-03-15T15:48:58.000Z</time>
      </trkpt>
      <trkpt lat="48.87018" lon="2.3303">
        <ele>80.06</ele>
        <time>2020-03-15T15:48:59.000Z</time>
      </trkpt>
      <trkpt lat="48.8702" lon="2.33036">
        <ele>80.06</ele>
        <time>2020-03-15T15:49:00.000Z</time>
      </trkpt>
      <trkpt lat="48.87021" lon="2.33044">
        <ele>80.09</ele>
        <time>2020-03-15T15:49:01.000Z</time>
      </trkpt>
      <trkpt lat="48.87022" lon="2.3305">
        <ele>80.12</ele>
        <time>2020-03-15T15:49:02.000Z</time>
      </trkpt>
      <trkpt lat="48.87021" lon="2.33053">
        <ele>80.17</ele>
        <time>2020-03-15T15:49:03.000Z</time>
      </trkpt>
      <trkpt lat="48.8702" lon="2.33056">
        <ele>80.21</ele>
        <time>2020-03-15T15:49:04.000Z</time>
      </trkpt>
      <trkpt lat="48.8702" lon="2.33063">
        <ele>80.22</ele>
        <time>2020-03-15T15:49:05.000Z</time>
      </trkpt>
      <trkpt lat="48.87019" lon="2.33067">
        <ele>80.24</ele>
        <time>2020-03-15T15:49:06.000Z</time>
      </trkpt>
      <trkpt lat="48.87017" lon="2.33073">
        <ele>80.24</ele>
        <time>2020-03-15T15:49:07.000Z</time>
      </trkpt>
      <trkpt lat="48.87015" lon="2.3308">
        <ele>80.26</ele>
        <time>2020-03-15T15:49:08.000Z</time>
      </trkpt>
      <trkpt lat="48.87013" lon="2.33087">
        <ele>80.26</ele>
        <time>2020-03-15T15:49:09.000Z</time>
      </trkpt>
      <trkpt lat="48.87012" lon="2.33088">
        <ele>80.27</ele>
        <time>2020-03-15T15:49:10.000Z</time>
      </trkpt>
      <trkpt lat="48.87011" lon="2.33094">
        <ele>80.29</ele>
        <time>2020-03-15T15:49:11.000Z</time>
      </trkpt>
      <trkpt lat="48.87007" lon="2.33101">
        <ele>80.31</ele>
        <time>2020-03-15T15:49:12.000Z</time>
      </trkpt>
      <trkpt lat="48.87003" lon="2.33109">
        <ele>80.35</ele>
        <time>2020-03-15T15:49:13.000Z</time>
      </trkpt>
      <trkpt lat="48.87001" lon="2.33114">
        <ele>80.39</ele>
        <time>2020-03-15T15:49:14.000Z</time>
      </trkpt>
      <trkpt lat="48.86991" lon="2.33124">
        <ele>80.44</ele>
        <time>2020-03-15T15:49:15.000Z</time>
      </trkpt>
      <trkpt lat="48.8698" lon="2.33133">
        <ele>80.5</ele>
        <time>2020-03-15T15:49:16.000Z</time>
      </trkpt>
      <trkpt lat="48.86976" lon="2.33137">
        <ele>80.56</ele>
        <time>2020-03-15T15:49:17.000Z</time>
      </trkpt>
      <trkpt lat="48.86973" lon="2.33143">
        <ele>80.63</ele>
        <time>2020-03-15T15:49:18.000Z</time>
      </trkpt>
      <trkpt lat="48.86971" lon="2.33147">
        <ele>80.69</ele>
        <time>2020-03-15T15:49:19.000Z</time>
      </trkpt>
      <trkpt lat="48.86968" lon="2.33153">
        <ele>80.76</ele>
        <time>2020-03-15T15:49:20.000Z</time>
      </trkpt>
      <trkpt lat="48.86965" lon="2.33161">
        <ele>81.43</ele>
        <time>2020-03-15T15:49:21.000Z</time>
      </trkpt>
      <trkpt lat="48.86963" lon="2.33167">
        <ele>81.49</ele>
        <time>2020-03-15T15:49:22.000Z</time>
      </trkpt>
      <trkpt lat="48.86959" lon="2.33173">
        <ele>81.54</ele>
        <time>2020-03-15T15:49:23.000Z</time>
      </trkpt>
      <trkpt lat="48.86956" lon="2.33177">
        <ele>81.61</ele>
        <time>2020-03-15T15:49:24.000Z</time>
      </trkpt>
      <trkpt lat="48.86951" lon="2.33183">
        <ele>81.67</ele>
        <time>2020-03-15T15:49:25.000Z</time>
      </trkpt>
      <trkpt lat="48.86946" lon="2.33194">
        <ele>81.75</ele>
        <time>2020-03-15T15:49:26.000Z</time>
      </trkpt>
      <trkpt lat="48.86942" lon="2.33204">
        <ele>81.83</ele>
        <time>2020-03-15T15:49:27.000Z</time>
      </trkpt>
      <trkpt lat="48.86939" lon="2.33211">
        <ele>81.91</ele>
        <time>2020-03-15T15:49:28.000Z</time>
      </trkpt>
      <trkpt lat="48.86935" lon="2.33215">
        <ele>81.99</ele>
        <time>2020-03-15T15:49:29.000Z</time>
      </trkpt>
      <trkpt lat="48.86931" lon="2.33221">
        <ele>82.07</ele>
        <time>2020-03-15T15:49:30.000Z</time>
      </trkpt>
      <trkpt lat="48.86929" lon="2.33224">
        <ele>82.15</ele>
        <time>2020-03-15T15:49:31.000Z</time>
      </trkpt>
      <trkpt lat="48.86928" lon="2.33226">
        <ele>82.23</ele>
        <time>2020-03-15T15:49:32.000Z</time>
      </trkpt>
      <trkpt lat="48.86926" lon="2.33229">
        <ele>82.32</ele>
        <time>2020-03-15T15:49:33.000Z</time>
      </trkpt>
      <trkpt lat="48.86924" lon="2.33233">
        <ele>82.4</ele>
        <time>2020-03-15T15:49:34.000Z</time>
      </trkpt>
      <trkpt lat="48.86922" lon="2.33237">
        <ele>82.49</ele>
        <time>2020-03-15T15:49:35.000Z</time>
      </trkpt>
      <trkpt lat="48.86919" lon="2.33245">
        <ele>82.58</ele>
        <time>2020-03-15T15:49:36.000Z</time>
      </trkpt>
      <trkpt lat="48.86916" lon="2.33253">
        <ele>82.67</ele>
        <time>2020-03-15T15:49:37.000Z</time>
      </trkpt>
      <trkpt lat="48.86915" lon="2.33257">
        <ele>82.76</ele>
        <time>2020-03-15T15:49:38.000Z</time>
      </trkpt>
      <trkpt lat="48.8691" lon="2.33263">
        <ele>82.84</ele>
        <time>2020-03-15T15:49:39.000Z</time>
      </trkpt>
      <trkpt lat="48.86907" lon="2.33267">
        <ele>82.92</ele>
        <time>2020-03-15T15:49:40.000Z</time>
      </trkpt>
      <trkpt lat="48.86904" lon="2.33271">
        <ele>83</ele>
        <time>2020-03-15T15:49:41.000Z</time>
      </trkpt>
      <trkpt lat="48.869" lon="2.33276">
        <ele>83.08</ele>
        <time>2020-03-15T15:49:42.000Z</time>
      </trkpt>
      <trkpt lat="48.86898" lon="2.33278">
        <ele>83.16</ele>
        <time>2020-03-15T15:49:43.000Z</time>
      </trkpt>
      <trkpt lat="48.86892" lon="2.33289">
        <ele>83.24</ele>
        <time>2020-03-15T15:49:44.000Z</time>
      </trkpt>
      <trkpt lat="48.86887" lon="2.33297">
        <ele>83.3</ele>
        <time>2020-03-15T15:49:45.000Z</time>
      </trkpt>
      <trkpt lat="48.86885" lon="2.33303">
        <ele>83.36</ele>
        <time>2020-03-15T15:49:46.000Z</time>
      </trkpt>
      <trkpt lat="48.86883" lon="2.33308">
        <ele>83.41</ele>
        <time>2020-03-15T15:49:47.000Z</time>
      </trkpt>
      <trkpt lat="48.86882" lon="2.33313">
        <ele>83.47</ele>
        <time>2020-03-15T15:49:48.000Z</time>
      </trkpt>
      <trkpt lat="48.86881" lon="2.33317">
        <ele>83.53</ele>
        <time>2020-03-15T15:49:49.000Z</time>
      </trkpt>
      <trkpt lat="48.86883" lon="2.3332">
        <ele>83.61</ele>
        <time>2020-03-15T15:49:50.000Z</time>
      </trkpt>
      <trkpt lat="48.86883" lon="2.33324">
        <ele>83.69</ele>
        <time>2020-03-15T15:49:51.000Z</time>
      </trkpt>
      <trkpt lat="48.86882" lon="2.33327">
        <ele>83.78</ele>
        <time>2020-03-15T15:49:52.000Z</time>
      </trkpt>
      <trkpt lat="48.86884" lon="2.3333">
        <ele>83.84</ele>
        <time>2020-03-15T15:49:53.000Z</time>
      </trkpt>
      <trkpt lat="48.86883" lon="2.33334">
        <ele>83.9</ele>
        <time>2020-03-15T15:49:54.000Z</time>
      </trkpt>
      <trkpt lat="48.86883" lon="2.33339">
        <ele>83.94</ele>
        <time>2020-03-15T15:49:55.000Z</time>
      </trkpt>
      <trkpt lat="48.86883" lon="2.33342">
        <ele>83.99</ele>
        <time>2020-03-15T15:49:56.000Z</time>
      </trkpt>
      <trkpt lat="48.86882" lon="2.33345">
        <ele>84.03</ele>
        <time>2020-03-15T15:49:57.000Z</time>
      </trkpt>
      <trkpt lat="48.86881" lon="2.33348">
        <ele>84.07</ele>
        <time>2020-03-15T15:49:58.000Z</time>
      </trkpt>
      <trkpt lat="48.8688" lon="2.33354">
        <ele>84.13</ele>
        <time>2020-03-15T15:49:59.000Z</time>
      </trkpt>
      <trkpt lat="48.86878" lon="2.33359">
        <ele>84.19</ele>
        <time>2020-03-15T15:50:00.000Z</time>
      </trkpt>
      <trkpt lat="48.86877" lon="2.33363">
        <ele>84.25</ele>
        <time>2020-03-15T15:50:01.000Z</time>
      </trkpt>
      <trkpt lat="48.86876" lon="2.33367">
        <ele>84.32</ele>
        <time>2020-03-15T15:50:02.000Z</time>
      </trkpt>
      <trkpt lat="48.86875" lon="2.33371">
        <ele>84.4</ele>
        <time>2020-03-15T15:50:03.000Z</time>
      </trkpt>
      <trkpt lat="48.86873" lon="2.33376">
        <ele>84.48</ele>
        <time>2020-03-15T15:50:04.000Z</time>
      </trkpt>
      <trkpt lat="48.86873" lon="2.33381">
        <ele>84.56</ele>
        <time>2020-03-15T15:50:05.000Z</time>
      </trkpt>
      <trkpt lat="48.86872" lon="2.33386">
        <ele>84.65</ele>
        <time>2020-03-15T15:50:06.000Z</time>
      </trkpt>
      <trkpt lat="48.86872" lon="2.33394">
        <ele>84.74</ele>
        <time>2020-03-15T15:50:07.000Z</time>
      </trkpt>
      <trkpt lat="48.86872" lon="2.33397">
        <ele>84.83</ele>
        <time>2020-03-15T15:50:08.000Z</time>
      </trkpt>
      <trkpt lat="48.86872" lon="2.33401">
        <ele>84.91</ele>
        <time>2020-03-15T15:50:09.000Z</time>
      </trkpt>
      <trkpt lat="48.86872" lon="2.33404">
        <ele>85</ele>
        <time>2020-03-15T15:50:10.000Z</time>
      </trkpt>
      <trkpt lat="48.86873" lon="2.33407">
        <ele>85.09</ele>
        <time>2020-03-15T15:50:11.000Z</time>
      </trkpt>
      <trkpt lat="48.86874" lon="2.33411">
        <ele>85.17</ele>
        <time>2020-03-15T15:50:12.000Z</time>
      </trkpt>
      <trkpt lat="48.86874" lon="2.33414">
        <ele>85.24</ele>
        <time>2020-03-15T15:50:13.000Z</time>
      </trkpt>
      <trkpt lat="48.86875" lon="2.33418">
        <ele>85.32</ele>
        <time>2020-03-15T15:50:14.000Z</time>
      </trkpt>
      <trkpt lat="48.86877" lon="2.3342">
        <ele>85.48</ele>
        <time>2020-03-15T15:50:16.000Z</time>
      </trkpt>
      <trkpt lat="48.86878" lon="2.33421">
        <ele>85.56</ele>
        <time>2020-03-15T15:50:17.000Z</time>
      </trkpt>
      <trkpt lat="48.86878" lon="2.33425">
        <ele>85.64</ele>
        <time>2020-03-15T15:50:18.000Z</time>
      </trkpt>
      <trkpt lat="48.86879" lon="2.33429">
        <ele>85.72</ele>
        <time>2020-03-15T15:50:19.000Z</time>
      </trkpt>
      <trkpt lat="48.86879" lon="2.33434">
        <ele>85.8</ele>
        <time>2020-03-15T15:50:20.000Z</time>
      </trkpt>
      <trkpt lat="48.86879" lon="2.33433">
        <ele>85.95</ele>
        <time>2020-03-15T15:50:22.000Z</time>
      </trkpt>
      <trkpt lat="48.86879" lon="2.33432">
        <ele>86.02</ele>
        <time>2020-03-15T15:50:23.000Z</time>
      </trkpt>
      <trkpt lat="48.86879" lon="2.3343">
        <ele>86.1</ele>
        <time>2020-03-15T15:50:24.000Z</time>
      </trkpt>
      <trkpt lat="48.86879" lon="2.33428">
        <ele>86.11</ele>
        <time>2020-03-15T15:50:25.000Z</time>
      </trkpt>
      <trkpt lat="48.86878" lon="2.33427">
        <ele>86.19</ele>
        <time>2020-03-15T15:50:30.000Z</time>
      </trkpt>
      <trkpt lat="48.86879" lon="2.33431">
        <ele>86.43</ele>
        <time>2020-03-15T15:50:34.000Z</time>
      </trkpt>
      <trkpt lat="48.86879" lon="2.33434">
        <ele>86.49</ele>
        <time>2020-03-15T15:50:35.000Z</time>
      </trkpt>
      <trkpt lat="48.86878" lon="2.33437">
        <ele>86.55</ele>
        <time>2020-03-15T15:50:36.000Z</time>
      </trkpt>
      <trkpt lat="48.86879" lon="2.33442">
        <ele>86.62</ele>
        <time>2020-03-15T15:50:37.000Z</time>
      </trkpt>
      <trkpt lat="48.86879" lon="2.33447">
        <ele>86.68</ele>
        <time>2020-03-15T15:50:38.000Z</time>
      </trkpt>
      <trkpt lat="48.86878" lon="2.33453">
        <ele>86.75</ele>
        <time>2020-03-15T15:50:39.000Z</time>
      </trkpt>
      <trkpt lat="48.86877" lon="2.33458">
        <ele>86.82</ele>
        <time>2020-03-15T15:50:40.000Z</time>
      </trkpt>
      <trkpt lat="48.86875" lon="2.33463">
        <ele>86.88</ele>
        <time>2020-03-15T15:50:41.000Z</time>
      </trkpt>
      <trkpt lat="48.86873" lon="2.33468">
        <ele>86.95</ele>
        <time>2020-03-15T15:50:42.000Z</time>
      </trkpt>
      <trkpt lat="48.8687" lon="2.33472">
        <ele>87.65</ele>
        <time>2020-03-15T15:50:43.000Z</time>
      </trkpt>
      <trkpt lat="48.86868" lon="2.33477">
        <ele>88.41</ele>
        <time>2020-03-15T15:50:44.000Z</time>
      </trkpt>
      <trkpt lat="48.86866" lon="2.33482">
        <ele>88.64</ele>
        <time>2020-03-15T15:50:45.000Z</time>
      </trkpt>
      <trkpt lat="48.86863" lon="2.33486">
        <ele>88.77</ele>
        <time>2020-03-15T15:50:46.000Z</time>
      </trkpt>
      <trkpt lat="48.8686" lon="2.33492">
        <ele>88.84</ele>
        <time>2020-03-15T15:50:47.000Z</time>
      </trkpt>
      <trkpt lat="48.86858" lon="2.33498">
        <ele>88.94</ele>
        <time>2020-03-15T15:50:48.000Z</time>
      </trkpt>
      <trkpt lat="48.86857" lon="2.33504">
        <ele>88.95</ele>
        <time>2020-03-15T15:50:49.000Z</time>
      </trkpt>
      <trkpt lat="48.86856" lon="2.33511">
        <ele>88.97</ele>
        <time>2020-03-15T15:50:50.000Z</time>
      </trkpt>
      <trkpt lat="48.86864" lon="2.3352">
        <ele>88.99</ele>
        <time>2020-03-15T15:50:51.000Z</time>
      </trkpt>
      <trkpt lat="48.86867" lon="2.33529">
        <ele>89.19</ele>
        <time>2020-03-15T15:50:52.000Z</time>
      </trkpt>
      <trkpt lat="48.86867" lon="2.33538">
        <ele>89.19</ele>
        <time>2020-03-15T15:50:53.000Z</time>
      </trkpt>
      <trkpt lat="48.86866" lon="2.33546">
        <ele>89.19</ele>
        <time>2020-03-15T15:50:54.000Z</time>
      </trkpt>
      <trkpt lat="48.86867" lon="2.33554">
        <ele>89.19</ele>
        <time>2020-03-15T15:50:55.000Z</time>
      </trkpt>
      <trkpt lat="48.86867" lon="2.3356">
        <ele>89.19</ele>
        <time>2020-03-15T15:50:56.000Z</time>
      </trkpt>
      <trkpt lat="48.86869" lon="2.33567">
        <ele>89.13</ele>
        <time>2020-03-15T15:50:57.000Z</time>
      </trkpt>
      <trkpt lat="48.8687" lon="2.33575">
        <ele>89.1</ele>
        <time>2020-03-15T15:50:58.000Z</time>
      </trkpt>
      <trkpt lat="48.86871" lon="2.33582">
        <ele>89.09</ele>
        <time>2020-03-15T15:50:59.000Z</time>
      </trkpt>
      <trkpt lat="48.86871" lon="2.3359">
        <ele>89.09</ele>
        <time>2020-03-15T15:51:00.000Z</time>
      </trkpt>
      <trkpt lat="48.86872" lon="2.33598">
        <ele>89.1</ele>
        <time>2020-03-15T15:51:01.000Z</time>
      </trkpt>
      <trkpt lat="48.86872" lon="2.33605">
        <ele>89.11</ele>
        <time>2020-03-15T15:51:02.000Z</time>
      </trkpt>
      <trkpt lat="48.86873" lon="2.33612">
        <ele>89.12</ele>
        <time>2020-03-15T15:51:03.000Z</time>
      </trkpt>
      <trkpt lat="48.86874" lon="2.33618">
        <ele>89.14</ele>
        <time>2020-03-15T15:51:04.000Z</time>
      </trkpt>
      <trkpt lat="48.86875" lon="2.33624">
        <ele>89.17</ele>
        <time>2020-03-15T15:51:05.000Z</time>
      </trkpt>
      <trkpt lat="48.86875" lon="2.33632">
        <ele>89.19</ele>
        <time>2020-03-15T15:51:06.000Z</time>
      </trkpt>
      <trkpt lat="48.86874" lon="2.33638">
        <ele>89.21</ele>
        <time>2020-03-15T15:51:07.000Z</time>
      </trkpt>
      <trkpt lat="48.86875" lon="2.33644">
        <ele>89.23</ele>
        <time>2020-03-15T15:51:08.000Z</time>
      </trkpt>
      <trkpt lat="48.86873" lon="2.3365">
        <ele>89.23</ele>
        <time>2020-03-15T15:51:09.000Z</time>
      </trkpt>
      <trkpt lat="48.86873" lon="2.33657">
        <ele>89.27</ele>
        <time>2020-03-15T15:51:10.000Z</time>
      </trkpt>
      <trkpt lat="48.86876" lon="2.33662">
        <ele>89.27</ele>
        <time>2020-03-15T15:51:11.000Z</time>
      </trkpt>
      <trkpt lat="48.86877" lon="2.33669">
        <ele>89.32</ele>
        <time>2020-03-15T15:51:12.000Z</time>
      </trkpt>
      <trkpt lat="48.86878" lon="2.33675">
        <ele>89.35</ele>
        <time>2020-03-15T15:51:13.000Z</time>
      </trkpt>
      <trkpt lat="48.86879" lon="2.33683">
        <ele>89.41</ele>
        <time>2020-03-15T15:51:14.000Z</time>
      </trkpt>
      <trkpt lat="48.86879" lon="2.33691">
        <ele>89.46</ele>
        <time>2020-03-15T15:51:15.000Z</time>
      </trkpt>
      <trkpt lat="48.86878" lon="2.33699">
        <ele>89.48</ele>
        <time>2020-03-15T15:51:16.000Z</time>
      </trkpt>
      <trkpt lat="48.86877" lon="2.33707">
        <ele>89.5</ele>
        <time>2020-03-15T15:51:17.000Z</time>
      </trkpt>
      <trkpt lat="48.86876" lon="2.33713">
        <ele>89.51</ele>
        <time>2020-03-15T15:51:18.000Z</time>
      </trkpt>
      <trkpt lat="48.86874" lon="2.33719">
        <ele>89.54</ele>
        <time>2020-03-15T15:51:19.000Z</time>
      </trkpt>
      <trkpt lat="48.86873" lon="2.33724">
        <ele>89.56</ele>
        <time>2020-03-15T15:51:20.000Z</time>
      </trkpt>
      <trkpt lat="48.86872" lon="2.3373">
        <ele>89.59</ele>
        <time>2020-03-15T15:51:21.000Z</time>
      </trkpt>
      <trkpt lat="48.86869" lon="2.33737">
        <ele>89.6</ele>
        <time>2020-03-15T15:51:22.000Z</time>
      </trkpt>
      <trkpt lat="48.86868" lon="2.33741">
        <ele>89.62</ele>
        <time>2020-03-15T15:51:23.000Z</time>
      </trkpt>
      <trkpt lat="48.86867" lon="2.33746">
        <ele>89.62</ele>
        <time>2020-03-15T15:51:24.000Z</time>
      </trkpt>
      <trkpt lat="48.86868" lon="2.3375">
        <ele>89.63</ele>
        <time>2020-03-15T15:51:25.000Z</time>
      </trkpt>
      <trkpt lat="48.86869" lon="2.33755">
        <ele>89.64</ele>
        <time>2020-03-15T15:51:26.000Z</time>
      </trkpt>
      <trkpt lat="48.86869" lon="2.33762">
        <ele>89.68</ele>
        <time>2020-03-15T15:51:27.000Z</time>
      </trkpt>
      <trkpt lat="48.8687" lon="2.33769">
        <ele>89.73</ele>
        <time>2020-03-15T15:51:28.000Z</time>
      </trkpt>
      <trkpt lat="48.86871" lon="2.33775">
        <ele>89.78</ele>
        <time>2020-03-15T15:51:29.000Z</time>
      </trkpt>
      <trkpt lat="48.8687" lon="2.33782">
        <ele>89.83</ele>
        <time>2020-03-15T15:51:30.000Z</time>
      </trkpt>
      <trkpt lat="48.86869" lon="2.33787">
        <ele>89.89</ele>
        <time>2020-03-15T15:51:31.000Z</time>
      </trkpt>
      <trkpt lat="48.86868" lon="2.33791">
        <ele>89.94</ele>
        <time>2020-03-15T15:51:32.000Z</time>
      </trkpt>
      <trkpt lat="48.86866" lon="2.33799">
        <ele>90</ele>
        <time>2020-03-15T15:51:33.000Z</time>
      </trkpt>
      <trkpt lat="48.86865" lon="2.33806">
        <ele>90.01</ele>
        <time>2020-03-15T15:51:34.000Z</time>
      </trkpt>
      <trkpt lat="48.86865" lon="2.33814">
        <ele>90.01</ele>
        <time>2020-03-15T15:51:35.000Z</time>
      </trkpt>
      <trkpt lat="48.86865" lon="2.33819">
        <ele>90.02</ele>
        <time>2020-03-15T15:51:36.000Z</time>
      </trkpt>
      <trkpt lat="48.86866" lon="2.33822">
        <ele>90.02</ele>
        <time>2020-03-15T15:51:37.000Z</time>
      </trkpt>
      <trkpt lat="48.86867" lon="2.33825">
        <ele>90.03</ele>
        <time>2020-03-15T15:51:38.000Z</time>
      </trkpt>
      <trkpt lat="48.86869" lon="2.33832">
        <ele>90.02</ele>
        <time>2020-03-15T15:51:39.000Z</time>
      </trkpt>
      <trkpt lat="48.8687" lon="2.33834">
        <ele>90.02</ele>
        <time>2020-03-15T15:51:40.000Z</time>
      </trkpt>
      <trkpt lat="48.86871" lon="2.33836">
        <ele>90.02</ele>
        <time>2020-03-15T15:51:41.000Z</time>
      </trkpt>
      <trkpt lat="48.86872" lon="2.33838">
        <ele>90.02</ele>
        <time>2020-03-15T15:51:42.000Z</time>
      </trkpt>
      <trkpt lat="48.86873" lon="2.33839">
        <ele>90.02</ele>
        <time>2020-03-15T15:51:43.000Z</time>
      </trkpt>
      <trkpt lat="48.86873" lon="2.33843">
        <ele>90.02</ele>
        <time>2020-03-15T15:51:44.000Z</time>
      </trkpt>
      <trkpt lat="48.86874" lon="2.33846">
        <ele>90.01</ele>
        <time>2020-03-15T15:51:45.000Z</time>
      </trkpt>
      <trkpt lat="48.86875" lon="2.33854">
        <ele>89.97</ele>
        <time>2020-03-15T15:51:46.000Z</time>
      </trkpt>
      <trkpt lat="48.86877" lon="2.33864">
        <ele>89.86</ele>
        <time>2020-03-15T15:51:47.000Z</time>
      </trkpt>
      <trkpt lat="48.86877" lon="2.33873">
        <ele>89.79</ele>
        <time>2020-03-15T15:51:48.000Z</time>
      </trkpt>
      <trkpt lat="48.86878" lon="2.33881">
        <ele>89.74</ele>
        <time>2020-03-15T15:51:49.000Z</time>
      </trkpt>
      <trkpt lat="48.86879" lon="2.33891">
        <ele>89.69</ele>
        <time>2020-03-15T15:51:50.000Z</time>
      </trkpt>
      <trkpt lat="48.86881" lon="2.33897">
        <ele>89.63</ele>
        <time>2020-03-15T15:51:51.000Z</time>
      </trkpt>
      <trkpt lat="48.86882" lon="2.33903">
        <ele>89.56</ele>
        <time>2020-03-15T15:51:52.000Z</time>
      </trkpt>
      <trkpt lat="48.86882" lon="2.33912">
        <ele>88.95</ele>
        <time>2020-03-15T15:51:53.000Z</time>
      </trkpt>
      <trkpt lat="48.86883" lon="2.33918">
        <ele>88.86</ele>
        <time>2020-03-15T15:51:54.000Z</time>
      </trkpt>
      <trkpt lat="48.86885" lon="2.33925">
        <ele>88.76</ele>
        <time>2020-03-15T15:51:55.000Z</time>
      </trkpt>
      <trkpt lat="48.86884" lon="2.33935">
        <ele>88.67</ele>
        <time>2020-03-15T15:51:56.000Z</time>
      </trkpt>
      <trkpt lat="48.86884" lon="2.33939">
        <ele>88.58</ele>
        <time>2020-03-15T15:51:57.000Z</time>
      </trkpt>
      <trkpt lat="48.86883" lon="2.33948">
        <ele>88.47</ele>
        <time>2020-03-15T15:51:58.000Z</time>
      </trkpt>
      <trkpt lat="48.86882" lon="2.33956">
        <ele>88.35</ele>
        <time>2020-03-15T15:51:59.000Z</time>
      </trkpt>
      <trkpt lat="48.86881" lon="2.33958">
        <ele>88.24</ele>
        <time>2020-03-15T15:52:00.000Z</time>
      </trkpt>
      <trkpt lat="48.8688" lon="2.33964">
        <ele>88.13</ele>
        <time>2020-03-15T15:52:01.000Z</time>
      </trkpt>
      <trkpt lat="48.86879" lon="2.3397">
        <ele>88.01</ele>
        <time>2020-03-15T15:52:02.000Z</time>
      </trkpt>
      <trkpt lat="48.8688" lon="2.33978">
        <ele>87.87</ele>
        <time>2020-03-15T15:52:03.000Z</time>
      </trkpt>
      <trkpt lat="48.8688" lon="2.33983">
        <ele>87.72</ele>
        <time>2020-03-15T15:52:04.000Z</time>
      </trkpt>
      <trkpt lat="48.8688" lon="2.33989">
        <ele>87.55</ele>
        <time>2020-03-15T15:52:05.000Z</time>
      </trkpt>
      <trkpt lat="48.86882" lon="2.33994">
        <ele>87.37</ele>
        <time>2020-03-15T15:52:06.000Z</time>
      </trkpt>
      <trkpt lat="48.86882" lon="2.34">
        <ele>87.19</ele>
        <time>2020-03-15T15:52:07.000Z</time>
      </trkpt>
      <trkpt lat="48.86883" lon="2.34006">
        <ele>87.01</ele>
        <time>2020-03-15T15:52:08.000Z</time>
      </trkpt>
      <trkpt lat="48.86884" lon="2.34011">
        <ele>86.82</ele>
        <time>2020-03-15T15:52:09.000Z</time>
      </trkpt>
      <trkpt lat="48.86885" lon="2.34017">
        <ele>86.64</ele>
        <time>2020-03-15T15:52:10.000Z</time>
      </trkpt>
      <trkpt lat="48.86885" lon="2.34023">
        <ele>84.8</ele>
        <time>2020-03-15T15:52:11.000Z</time>
      </trkpt>
      <trkpt lat="48.86884" lon="2.3403">
        <ele>83.25</ele>
        <time>2020-03-15T15:52:12.000Z</time>
      </trkpt>
      <trkpt lat="48.86883" lon="2.34035">
        <ele>83.12</ele>
        <time>2020-03-15T15:52:13.000Z</time>
      </trkpt>
      <trkpt lat="48.86882" lon="2.34041">
        <ele>81.8</ele>
        <time>2020-03-15T15:52:14.000Z</time>
      </trkpt>
      <trkpt lat="48.86881" lon="2.34046">
        <ele>80.69</ele>
        <time>2020-03-15T15:52:15.000Z</time>
      </trkpt>
      <trkpt lat="48.8688" lon="2.34052">
        <ele>79.79</ele>
        <time>2020-03-15T15:52:16.000Z</time>
      </trkpt>
      <trkpt lat="48.8688" lon="2.34058">
        <ele>79.01</ele>
        <time>2020-03-15T15:52:17.000Z</time>
      </trkpt>
      <trkpt lat="48.86879" lon="2.34064">
        <ele>78.36</ele>
        <time>2020-03-15T15:52:18.000Z</time>
      </trkpt>
      <trkpt lat="48.86878" lon="2.34069">
        <ele>77.82</ele>
        <time>2020-03-15T15:52:19.000Z</time>
      </trkpt>
      <trkpt lat="48.86875" lon="2.34075">
        <ele>77.41</ele>
        <time>2020-03-15T15:52:20.000Z</time>
      </trkpt>
      <trkpt lat="48.86873" lon="2.3408">
        <ele>77.08</ele>
        <time>2020-03-15T15:52:21.000Z</time>
      </trkpt>
      <trkpt lat="48.86871" lon="2.34087">
        <ele>76.81</ele>
        <time>2020-03-15T15:52:22.000Z</time>
      </trkpt>
      <trkpt lat="48.86869" lon="2.34093">
        <ele>76.58</ele>
        <time>2020-03-15T15:52:23.000Z</time>
      </trkpt>
      <trkpt lat="48.86867" lon="2.341">
        <ele>76.4</ele>
        <time>2020-03-15T15:52:24.000Z</time>
      </trkpt>
      <trkpt lat="48.86865" lon="2.34108">
        <ele>76.32</ele>
        <time>2020-03-15T15:52:25.000Z</time>
      </trkpt>
      <trkpt lat="48.86863" lon="2.34116">
        <ele>76.32</ele>
        <time>2020-03-15T15:52:26.000Z</time>
      </trkpt>
      <trkpt lat="48.86862" lon="2.34124">
        <ele>76.33</ele>
        <time>2020-03-15T15:52:27.000Z</time>
      </trkpt>
      <trkpt lat="48.8686" lon="2.34131">
        <ele>76.37</ele>
        <time>2020-03-15T15:52:28.000Z</time>
      </trkpt>
      <trkpt lat="48.86857" lon="2.34138">
        <ele>76.39</ele>
        <time>2020-03-15T15:52:29.000Z</time>
      </trkpt>
      <trkpt lat="48.86856" lon="2.34147">
        <ele>76.34</ele>
        <time>2020-03-15T15:52:30.000Z</time>
      </trkpt>
      <trkpt lat="48.86854" lon="2.34155">
        <ele>76.23</ele>
        <time>2020-03-15T15:52:31.000Z</time>
      </trkpt>
      <trkpt lat="48.86852" lon="2.34163">
        <ele>76.13</ele>
        <time>2020-03-15T15:52:32.000Z</time>
      </trkpt>
      <trkpt lat="48.8685" lon="2.34171">
        <ele>76.02</ele>
        <time>2020-03-15T15:52:33.000Z</time>
      </trkpt>
      <trkpt lat="48.86847" lon="2.34179">
        <ele>75.94</ele>
        <time>2020-03-15T15:52:34.000Z</time>
      </trkpt>
      <trkpt lat="48.86844" lon="2.34186">
        <ele>75.87</ele>
        <time>2020-03-15T15:52:35.000Z</time>
      </trkpt>
      <trkpt lat="48.86842" lon="2.34193">
        <ele>75.83</ele>
        <time>2020-03-15T15:52:36.000Z</time>
      </trkpt>
      <trkpt lat="48.86839" lon="2.34201">
        <ele>75.82</ele>
        <time>2020-03-15T15:52:37.000Z</time>
      </trkpt>
      <trkpt lat="48.86837" lon="2.34211">
        <ele>75.85</ele>
        <time>2020-03-15T15:52:38.000Z</time>
      </trkpt>
      <trkpt lat="48.86834" lon="2.3422">
        <ele>75.91</ele>
        <time>2020-03-15T15:52:39.000Z</time>
      </trkpt>
      <trkpt lat="48.86833" lon="2.34229">
        <ele>76.01</ele>
        <time>2020-03-15T15:52:40.000Z</time>
      </trkpt>
      <trkpt lat="48.86833" lon="2.34238">
        <ele>76.11</ele>
        <time>2020-03-15T15:52:41.000Z</time>
      </trkpt>
      <trkpt lat="48.86835" lon="2.34247">
        <ele>76.21</ele>
        <time>2020-03-15T15:52:42.000Z</time>
      </trkpt>
      <trkpt lat="48.86835" lon="2.34256">
        <ele>76.33</ele>
        <time>2020-03-15T15:52:43.000Z</time>
      </trkpt>
      <trkpt lat="48.86835" lon="2.34266">
        <ele>76.57</ele>
        <time>2020-03-15T15:52:44.000Z</time>
      </trkpt>
      <trkpt lat="48.86835" lon="2.34274">
        <ele>76.86</ele>
        <time>2020-03-15T15:52:45.000Z</time>
      </trkpt>
      <trkpt lat="48.86834" lon="2.34283">
        <ele>77.21</ele>
        <time>2020-03-15T15:52:46.000Z</time>
      </trkpt>
      <trkpt lat="48.86833" lon="2.34293">
        <ele>77.53</ele>
        <time>2020-03-15T15:52:47.000Z</time>
      </trkpt>
      <trkpt lat="48.86832" lon="2.34301">
        <ele>77.84</ele>
        <time>2020-03-15T15:52:48.000Z</time>
      </trkpt>
      <trkpt lat="48.86831" lon="2.34309">
        <ele>78.09</ele>
        <time>2020-03-15T15:52:49.000Z</time>
      </trkpt>
      <trkpt lat="48.8683" lon="2.34315">
        <ele>78.29</ele>
        <time>2020-03-15T15:52:50.000Z</time>
      </trkpt>
      <trkpt lat="48.86828" lon="2.34323">
        <ele>78.48</ele>
        <time>2020-03-15T15:52:51.000Z</time>
      </trkpt>
      <trkpt lat="48.86827" lon="2.34329">
        <ele>78.66</ele>
        <time>2020-03-15T15:52:52.000Z</time>
      </trkpt>
      <trkpt lat="48.86825" lon="2.34335">
        <ele>78.68</ele>
        <time>2020-03-15T15:52:53.000Z</time>
      </trkpt>
      <trkpt lat="48.86824" lon="2.34341">
        <ele>78.71</ele>
        <time>2020-03-15T15:52:54.000Z</time>
      </trkpt>
      <trkpt lat="48.86823" lon="2.34347">
        <ele>78.75</ele>
        <time>2020-03-15T15:52:55.000Z</time>
      </trkpt>
      <trkpt lat="48.86821" lon="2.34351">
        <ele>78.78</ele>
        <time>2020-03-15T15:52:56.000Z</time>
      </trkpt>
      <trkpt lat="48.86818" lon="2.34353">
        <ele>78.82</ele>
        <time>2020-03-15T15:52:57.000Z</time>
      </trkpt>
      <trkpt lat="48.86817" lon="2.34355">
        <ele>78.87</ele>
        <time>2020-03-15T15:52:58.000Z</time>
      </trkpt>
      <trkpt lat="48.86816" lon="2.34357">
        <ele>78.91</ele>
        <time>2020-03-15T15:52:59.000Z</time>
      </trkpt>
      <trkpt lat="48.86815" lon="2.3436">
        <ele>78.97</ele>
        <time>2020-03-15T15:53:00.000Z</time>
      </trkpt>
      <trkpt lat="48.86815" lon="2.34365">
        <ele>79.02</ele>
        <time>2020-03-15T15:53:01.000Z</time>
      </trkpt>
      <trkpt lat="48.86813" lon="2.3437">
        <ele>79.08</ele>
        <time>2020-03-15T15:53:02.000Z</time>
      </trkpt>
      <trkpt lat="48.86814" lon="2.34379">
        <ele>79.14</ele>
        <time>2020-03-15T15:53:03.000Z</time>
      </trkpt>
      <trkpt lat="48.86814" lon="2.34386">
        <ele>79.21</ele>
        <time>2020-03-15T15:53:04.000Z</time>
      </trkpt>
      <trkpt lat="48.86814" lon="2.34394">
        <ele>79.28</ele>
        <time>2020-03-15T15:53:05.000Z</time>
      </trkpt>
      <trkpt lat="48.86812" lon="2.344">
        <ele>79.35</ele>
        <time>2020-03-15T15:53:06.000Z</time>
      </trkpt>
      <trkpt lat="48.86811" lon="2.34408">
        <ele>79.42</ele>
        <time>2020-03-15T15:53:07.000Z</time>
      </trkpt>
      <trkpt lat="48.86809" lon="2.34416">
        <ele>80.18</ele>
        <time>2020-03-15T15:53:08.000Z</time>
      </trkpt>
      <trkpt lat="48.86807" lon="2.34426">
        <ele>80.83</ele>
        <time>2020-03-15T15:53:09.000Z</time>
      </trkpt>
      <trkpt lat="48.86805" lon="2.34436">
        <ele>81.37</ele>
        <time>2020-03-15T15:53:10.000Z</time>
      </trkpt>
      <trkpt lat="48.86803" lon="2.34444">
        <ele>81.81</ele>
        <time>2020-03-15T15:53:11.000Z</time>
      </trkpt>
      <trkpt lat="48.86802" lon="2.34453">
        <ele>82.15</ele>
        <time>2020-03-15T15:53:12.000Z</time>
      </trkpt>
      <trkpt lat="48.86799" lon="2.34461">
        <ele>82.44</ele>
        <time>2020-03-15T15:53:13.000Z</time>
      </trkpt>
      <trkpt lat="48.86798" lon="2.34469">
        <ele>82.68</ele>
        <time>2020-03-15T15:53:14.000Z</time>
      </trkpt>
      <trkpt lat="48.86796" lon="2.34478">
        <ele>82.87</ele>
        <time>2020-03-15T15:53:15.000Z</time>
      </trkpt>
      <trkpt lat="48.86794" lon="2.34486">
        <ele>83.03</ele>
        <time>2020-03-15T15:53:16.000Z</time>
      </trkpt>
      <trkpt lat="48.86793" lon="2.34492">
        <ele>83.04</ele>
        <time>2020-03-15T15:53:17.000Z</time>
      </trkpt>
      <trkpt lat="48.86792" lon="2.34499">
        <ele>83.21</ele>
        <time>2020-03-15T15:53:18.000Z</time>
      </trkpt>
      <trkpt lat="48.86791" lon="2.34506">
        <ele>83.37</ele>
        <time>2020-03-15T15:53:19.000Z</time>
      </trkpt>
      <trkpt lat="48.8679" lon="2.34514">
        <ele>83.39</ele>
        <time>2020-03-15T15:53:20.000Z</time>
      </trkpt>
      <trkpt lat="48.8679" lon="2.34522">
        <ele>83.41</ele>
        <time>2020-03-15T15:53:21.000Z</time>
      </trkpt>
      <trkpt lat="48.8679" lon="2.34528">
        <ele>83.43</ele>
        <time>2020-03-15T15:53:22.000Z</time>
      </trkpt>
      <trkpt lat="48.8679" lon="2.34534">
        <ele>83.45</ele>
        <time>2020-03-15T15:53:23.000Z</time>
      </trkpt>
      <trkpt lat="48.86789" lon="2.34541">
        <ele>83.47</ele>
        <time>2020-03-15T15:53:24.000Z</time>
      </trkpt>
      <trkpt lat="48.86788" lon="2.34546">
        <ele>83.49</ele>
        <time>2020-03-15T15:53:25.000Z</time>
      </trkpt>
      <trkpt lat="48.86787" lon="2.34551">
        <ele>83.52</ele>
        <time>2020-03-15T15:53:26.000Z</time>
      </trkpt>
      <trkpt lat="48.86785" lon="2.34556">
        <ele>83.56</ele>
        <time>2020-03-15T15:53:27.000Z</time>
      </trkpt>
      <trkpt lat="48.86784" lon="2.34561">
        <ele>83.59</ele>
        <time>2020-03-15T15:53:28.000Z</time>
      </trkpt>
      <trkpt lat="48.86782" lon="2.34566">
        <ele>83.63</ele>
        <time>2020-03-15T15:53:29.000Z</time>
      </trkpt>
      <trkpt lat="48.86781" lon="2.3457">
        <ele>83.66</ele>
        <time>2020-03-15T15:53:30.000Z</time>
      </trkpt>
      <trkpt lat="48.86781" lon="2.34574">
        <ele>83.71</ele>
        <time>2020-03-15T15:53:31.000Z</time>
      </trkpt>
      <trkpt lat="48.8678" lon="2.34578">
        <ele>83.77</ele>
        <time>2020-03-15T15:53:32.000Z</time>
      </trkpt>
      <trkpt lat="48.8678" lon="2.34581">
        <ele>83.82</ele>
        <time>2020-03-15T15:53:33.000Z</time>
      </trkpt>
      <trkpt lat="48.86779" lon="2.34583">
        <ele>83.87</ele>
        <time>2020-03-15T15:53:34.000Z</time>
      </trkpt>
      <trkpt lat="48.86779" lon="2.34586">
        <ele>83.92</ele>
        <time>2020-03-15T15:53:35.000Z</time>
      </trkpt>
      <trkpt lat="48.86778" lon="2.3459">
        <ele>83.97</ele>
        <time>2020-03-15T15:53:36.000Z</time>
      </trkpt>
      <trkpt lat="48.86777" lon="2.34595">
        <ele>84.01</ele>
        <time>2020-03-15T15:53:37.000Z</time>
      </trkpt>
      <trkpt lat="48.86777" lon="2.34598">
        <ele>84.05</ele>
        <time>2020-03-15T15:53:38.000Z</time>
      </trkpt>
      <trkpt lat="48.86776" lon="2.34602">
        <ele>84.09</ele>
        <time>2020-03-15T15:53:39.000Z</time>
      </trkpt>
      <trkpt lat="48.86775" lon="2.34607">
        <ele>84.13</ele>
        <time>2020-03-15T15:53:40.000Z</time>
      </trkpt>
      <trkpt lat="48.86775" lon="2.34611">
        <ele>84.17</ele>
        <time>2020-03-15T15:53:41.000Z</time>
      </trkpt>
      <trkpt lat="48.86774" lon="2.34615">
        <ele>84.21</ele>
        <time>2020-03-15T15:53:42.000Z</time>
      </trkpt>
      <trkpt lat="48.86774" lon="2.34619">
        <ele>84.24</ele>
        <time>2020-03-15T15:53:43.000Z</time>
      </trkpt>
      <trkpt lat="48.86773" lon="2.34623">
        <ele>84.28</ele>
        <time>2020-03-15T15:53:44.000Z</time>
      </trkpt>
      <trkpt lat="48.86773" lon="2.34626">
        <ele>84.32</ele>
        <time>2020-03-15T15:53:45.000Z</time>
      </trkpt>
      <trkpt lat="48.86772" lon="2.34629">
        <ele>84.36</ele>
        <time>2020-03-15T15:53:46.000Z</time>
      </trkpt>
      <trkpt lat="48.86771" lon="2.34632">
        <ele>84.41</ele>
        <time>2020-03-15T15:53:47.000Z</time>
      </trkpt>
      <trkpt lat="48.86771" lon="2.34635">
        <ele>84.46</ele>
        <time>2020-03-15T15:53:48.000Z</time>
      </trkpt>
      <trkpt lat="48.8677" lon="2.34639">
        <ele>84.5</ele>
        <time>2020-03-15T15:53:49.000Z</time>
      </trkpt>
      <trkpt lat="48.86768" lon="2.34642">
        <ele>84.54</ele>
        <time>2020-03-15T15:53:50.000Z</time>
      </trkpt>
      <trkpt lat="48.86766" lon="2.34645">
        <ele>84.58</ele>
        <time>2020-03-15T15:53:51.000Z</time>
      </trkpt>
      <trkpt lat="48.86764" lon="2.34649">
        <ele>84.63</ele>
        <time>2020-03-15T15:53:52.000Z</time>
      </trkpt>
      <trkpt lat="48.86763" lon="2.34653">
        <ele>84.67</ele>
        <time>2020-03-15T15:53:53.000Z</time>
      </trkpt>
      <trkpt lat="48.86762" lon="2.34658">
        <ele>84.71</ele>
        <time>2020-03-15T15:53:54.000Z</time>
      </trkpt>
      <trkpt lat="48.86761" lon="2.34663">
        <ele>84.76</ele>
        <time>2020-03-15T15:53:55.000Z</time>
      </trkpt>
      <trkpt lat="48.8676" lon="2.34667">
        <ele>84.81</ele>
        <time>2020-03-15T15:53:56.000Z</time>
      </trkpt>
      <trkpt lat="48.86759" lon="2.34672">
        <ele>85.27</ele>
        <time>2020-03-15T15:53:57.000Z</time>
      </trkpt>
      <trkpt lat="48.86757" lon="2.34677">
        <ele>85.31</ele>
        <time>2020-03-15T15:53:58.000Z</time>
      </trkpt>
      <trkpt lat="48.86755" lon="2.34682">
        <ele>85.35</ele>
        <time>2020-03-15T15:53:59.000Z</time>
      </trkpt>
      <trkpt lat="48.86754" lon="2.34687">
        <ele>85.38</ele>
        <time>2020-03-15T15:54:00.000Z</time>
      </trkpt>
      <trkpt lat="48.86752" lon="2.34691">
        <ele>85.78</ele>
        <time>2020-03-15T15:54:01.000Z</time>
      </trkpt>
      <trkpt lat="48.86752" lon="2.34697">
        <ele>85.82</ele>
        <time>2020-03-15T15:54:02.000Z</time>
      </trkpt>
      <trkpt lat="48.86751" lon="2.34703">
        <ele>85.86</ele>
        <time>2020-03-15T15:54:03.000Z</time>
      </trkpt>
      <trkpt lat="48.8675" lon="2.34709">
        <ele>86.28</ele>
        <time>2020-03-15T15:54:04.000Z</time>
      </trkpt>
      <trkpt lat="48.86749" lon="2.34715">
        <ele>86.64</ele>
        <time>2020-03-15T15:54:05.000Z</time>
      </trkpt>
      <trkpt lat="48.86747" lon="2.34721">
        <ele>86.67</ele>
        <time>2020-03-15T15:54:06.000Z</time>
      </trkpt>
      <trkpt lat="48.86745" lon="2.34726">
        <ele>86.69</ele>
        <time>2020-03-15T15:54:07.000Z</time>
      </trkpt>
      <trkpt lat="48.86744" lon="2.34731">
        <ele>86.93</ele>
        <time>2020-03-15T15:54:08.000Z</time>
      </trkpt>
      <trkpt lat="48.86742" lon="2.34735">
        <ele>86.95</ele>
        <time>2020-03-15T15:54:09.000Z</time>
      </trkpt>
      <trkpt lat="48.8674" lon="2.3474">
        <ele>86.97</ele>
        <time>2020-03-15T15:54:10.000Z</time>
      </trkpt>
      <trkpt lat="48.86739" lon="2.34744">
        <ele>86.98</ele>
        <time>2020-03-15T15:54:11.000Z</time>
      </trkpt>
      <trkpt lat="48.86738" lon="2.34749">
        <ele>87.13</ele>
        <time>2020-03-15T15:54:12.000Z</time>
      </trkpt>
      <trkpt lat="48.86737" lon="2.34754">
        <ele>87.26</ele>
        <time>2020-03-15T15:54:13.000Z</time>
      </trkpt>
      <trkpt lat="48.86735" lon="2.3476">
        <ele>87.35</ele>
        <time>2020-03-15T15:54:14.000Z</time>
      </trkpt>
      <trkpt lat="48.86734" lon="2.34766">
        <ele>87.43</ele>
        <time>2020-03-15T15:54:15.000Z</time>
      </trkpt>
      <trkpt lat="48.86732" lon="2.34772">
        <ele>87.51</ele>
        <time>2020-03-15T15:54:16.000Z</time>
      </trkpt>
      <trkpt lat="48.86731" lon="2.34779">
        <ele>87.58</ele>
        <time>2020-03-15T15:54:17.000Z</time>
      </trkpt>
      <trkpt lat="48.86729" lon="2.34786">
        <ele>87.64</ele>
        <time>2020-03-15T15:54:18.000Z</time>
      </trkpt>
      <trkpt lat="48.86728" lon="2.34793">
        <ele>87.73</ele>
        <time>2020-03-15T15:54:19.000Z</time>
      </trkpt>
      <trkpt lat="48.86727" lon="2.34799">
        <ele>87.8</ele>
        <time>2020-03-15T15:54:20.000Z</time>
      </trkpt>
      <trkpt lat="48.86726" lon="2.34807">
        <ele>87.88</ele>
        <time>2020-03-15T15:54:21.000Z</time>
      </trkpt>
      <trkpt lat="48.86725" lon="2.34814">
        <ele>87.96</ele>
        <time>2020-03-15T15:54:22.000Z</time>
      </trkpt>
      <trkpt lat="48.86723" lon="2.34821">
        <ele>88.01</ele>
        <time>2020-03-15T15:54:23.000Z</time>
      </trkpt>
      <trkpt lat="48.86721" lon="2.34829">
        <ele>88.08</ele>
        <time>2020-03-15T15:54:24.000Z</time>
      </trkpt>
      <trkpt lat="48.8672" lon="2.34837">
        <ele>88.13</ele>
        <time>2020-03-15T15:54:25.000Z</time>
      </trkpt>
      <trkpt lat="48.86719" lon="2.34845">
        <ele>88.19</ele>
        <time>2020-03-15T15:54:26.000Z</time>
      </trkpt>
      <trkpt lat="48.86718" lon="2.34852">
        <ele>88.24</ele>
        <time>2020-03-15T15:54:27.000Z</time>
      </trkpt>
      <trkpt lat="48.86717" lon="2.3486">
        <ele>88.29</ele>
        <time>2020-03-15T15:54:28.000Z</time>
      </trkpt>
      <trkpt lat="48.86715" lon="2.34867">
        <ele>88.34</ele>
        <time>2020-03-15T15:54:29.000Z</time>
      </trkpt>
      <trkpt lat="48.86713" lon="2.34875">
        <ele>88.37</ele>
        <time>2020-03-15T15:54:30.000Z</time>
      </trkpt>
      <trkpt lat="48.86712" lon="2.34882">
        <ele>88.4</ele>
        <time>2020-03-15T15:54:31.000Z</time>
      </trkpt>
      <trkpt lat="48.8671" lon="2.3489">
        <ele>88.43</ele>
        <time>2020-03-15T15:54:32.000Z</time>
      </trkpt>
      <trkpt lat="48.86708" lon="2.34897">
        <ele>88.5</ele>
        <time>2020-03-15T15:54:33.000Z</time>
      </trkpt>
      <trkpt lat="48.86707" lon="2.34904">
        <ele>88.58</ele>
        <time>2020-03-15T15:54:34.000Z</time>
      </trkpt>
      <trkpt lat="48.86706" lon="2.34911">
        <ele>88.66</ele>
        <time>2020-03-15T15:54:35.000Z</time>
      </trkpt>
      <trkpt lat="48.86706" lon="2.34916">
        <ele>88.71</ele>
        <time>2020-03-15T15:54:36.000Z</time>
      </trkpt>
      <trkpt lat="48.86704" lon="2.34924">
        <ele>88.75</ele>
        <time>2020-03-15T15:54:37.000Z</time>
      </trkpt>
      <trkpt lat="48.86702" lon="2.34932">
        <ele>88.79</ele>
        <time>2020-03-15T15:54:38.000Z</time>
      </trkpt>
      <trkpt lat="48.867" lon="2.34939">
        <ele>88.82</ele>
        <time>2020-03-15T15:54:39.000Z</time>
      </trkpt>
      <trkpt lat="48.86699" lon="2.34946">
        <ele>88.85</ele>
        <time>2020-03-15T15:54:40.000Z</time>
      </trkpt>
      <trkpt lat="48.86697" lon="2.34952">
        <ele>88.85</ele>
        <time>2020-03-15T15:54:41.000Z</time>
      </trkpt>
      <trkpt lat="48.86696" lon="2.3496">
        <ele>88.86</ele>
        <time>2020-03-15T15:54:42.000Z</time>
      </trkpt>
      <trkpt lat="48.86694" lon="2.34968">
        <ele>88.91</ele>
        <time>2020-03-15T15:54:43.000Z</time>
      </trkpt>
      <trkpt lat="48.86693" lon="2.34976">
        <ele>88.96</ele>
        <time>2020-03-15T15:54:44.000Z</time>
      </trkpt>
      <trkpt lat="48.86692" lon="2.34984">
        <ele>89.02</ele>
        <time>2020-03-15T15:54:45.000Z</time>
      </trkpt>
      <trkpt lat="48.86691" lon="2.34993">
        <ele>89.08</ele>
        <time>2020-03-15T15:54:46.000Z</time>
      </trkpt>
      <trkpt lat="48.86689" lon="2.35">
        <ele>89.13</ele>
        <time>2020-03-15T15:54:47.000Z</time>
      </trkpt>
      <trkpt lat="48.86688" lon="2.35007">
        <ele>89.16</ele>
        <time>2020-03-15T15:54:48.000Z</time>
      </trkpt>
      <trkpt lat="48.86687" lon="2.35014">
        <ele>89.2</ele>
        <time>2020-03-15T15:54:49.000Z</time>
      </trkpt>
      <trkpt lat="48.86686" lon="2.35021">
        <ele>89.22</ele>
        <time>2020-03-15T15:54:50.000Z</time>
      </trkpt>
      <trkpt lat="48.86685" lon="2.35029">
        <ele>89.24</ele>
        <time>2020-03-15T15:54:51.000Z</time>
      </trkpt>
      <trkpt lat="48.86683" lon="2.35036">
        <ele>89.27</ele>
        <time>2020-03-15T15:54:52.000Z</time>
      </trkpt>
      <trkpt lat="48.86682" lon="2.35043">
        <ele>89.3</ele>
        <time>2020-03-15T15:54:53.000Z</time>
      </trkpt>
      <trkpt lat="48.86681" lon="2.35051">
        <ele>89.31</ele>
        <time>2020-03-15T15:54:54.000Z</time>
      </trkpt>
      <trkpt lat="48.86679" lon="2.35057">
        <ele>89.31</ele>
        <time>2020-03-15T15:54:55.000Z</time>
      </trkpt>
      <trkpt lat="48.86678" lon="2.35064">
        <ele>89.34</ele>
        <time>2020-03-15T15:54:56.000Z</time>
      </trkpt>
      <trkpt lat="48.86676" lon="2.35071">
        <ele>89.34</ele>
        <time>2020-03-15T15:54:57.000Z</time>
      </trkpt>
      <trkpt lat="48.86673" lon="2.35079">
        <ele>89.33</ele>
        <time>2020-03-15T15:54:58.000Z</time>
      </trkpt>
      <trkpt lat="48.86672" lon="2.35088">
        <ele>89.34</ele>
        <time>2020-03-15T15:54:59.000Z</time>
      </trkpt>
      <trkpt lat="48.86671" lon="2.35096">
        <ele>89.34</ele>
        <time>2020-03-15T15:55:00.000Z</time>
      </trkpt>
      <trkpt lat="48.8667" lon="2.35104">
        <ele>89.33</ele>
        <time>2020-03-15T15:55:01.000Z</time>
      </trkpt>
      <trkpt lat="48.86668" lon="2.35112">
        <ele>89.32</ele>
        <time>2020-03-15T15:55:02.000Z</time>
      </trkpt>
      <trkpt lat="48.86665" lon="2.35118">
        <ele>89.32</ele>
        <time>2020-03-15T15:55:03.000Z</time>
      </trkpt>
      <trkpt lat="48.86663" lon="2.35125">
        <ele>89.35</ele>
        <time>2020-03-15T15:55:04.000Z</time>
      </trkpt>
      <trkpt lat="48.8666" lon="2.35133">
        <ele>89.37</ele>
        <time>2020-03-15T15:55:05.000Z</time>
      </trkpt>
      <trkpt lat="48.86658" lon="2.35141">
        <ele>89.4</ele>
        <time>2020-03-15T15:55:06.000Z</time>
      </trkpt>
      <trkpt lat="48.86656" lon="2.35148">
        <ele>89.43</ele>
        <time>2020-03-15T15:55:07.000Z</time>
      </trkpt>
      <trkpt lat="48.86655" lon="2.35157">
        <ele>89.46</ele>
        <time>2020-03-15T15:55:08.000Z</time>
      </trkpt>
      <trkpt lat="48.86653" lon="2.35164">
        <ele>89.49</ele>
        <time>2020-03-15T15:55:09.000Z</time>
      </trkpt>
      <trkpt lat="48.8665" lon="2.35172">
        <ele>89.51</ele>
        <time>2020-03-15T15:55:10.000Z</time>
      </trkpt>
      <trkpt lat="48.86648" lon="2.35178">
        <ele>89.51</ele>
        <time>2020-03-15T15:55:11.000Z</time>
      </trkpt>
      <trkpt lat="48.86646" lon="2.35185">
        <ele>89.52</ele>
        <time>2020-03-15T15:55:12.000Z</time>
      </trkpt>
      <trkpt lat="48.86644" lon="2.3519">
        <ele>89.52</ele>
        <time>2020-03-15T15:55:13.000Z</time>
      </trkpt>
      <trkpt lat="48.86642" lon="2.35195">
        <ele>89.52</ele>
        <time>2020-03-15T15:55:14.000Z</time>
      </trkpt>
      <trkpt lat="48.8664" lon="2.352">
        <ele>89.52</ele>
        <time>2020-03-15T15:55:15.000Z</time>
      </trkpt>
      <trkpt lat="48.86638" lon="2.35203">
        <ele>89.52</ele>
        <time>2020-03-15T15:55:16.000Z</time>
      </trkpt>
      <trkpt lat="48.86636" lon="2.35207">
        <ele>89.52</ele>
        <time>2020-03-15T15:55:17.000Z</time>
      </trkpt>
      <trkpt lat="48.86634" lon="2.3521">
        <ele>89.53</ele>
        <time>2020-03-15T15:55:18.000Z</time>
      </trkpt>
      <trkpt lat="48.86633" lon="2.35214">
        <ele>89.53</ele>
        <time>2020-03-15T15:55:19.000Z</time>
      </trkpt>
      <trkpt lat="48.86631" lon="2.35218">
        <ele>89.54</ele>
        <time>2020-03-15T15:55:20.000Z</time>
      </trkpt>
      <trkpt lat="48.86631" lon="2.35222">
        <ele>89.54</ele>
        <time>2020-03-15T15:55:21.000Z</time>
      </trkpt>
      <trkpt lat="48.8663" lon="2.35227">
        <ele>89.54</ele>
        <time>2020-03-15T15:55:22.000Z</time>
      </trkpt>
      <trkpt lat="48.86629" lon="2.3523">
        <ele>89.54</ele>
        <time>2020-03-15T15:55:23.000Z</time>
      </trkpt>
      <trkpt lat="48.86629" lon="2.35232">
        <ele>89.54</ele>
        <time>2020-03-15T15:55:24.000Z</time>
      </trkpt>
      <trkpt lat="48.86629" lon="2.35235">
        <ele>89.53</ele>
        <time>2020-03-15T15:55:25.000Z</time>
      </trkpt>
      <trkpt lat="48.86628" lon="2.35238">
        <ele>89.53</ele>
        <time>2020-03-15T15:55:26.000Z</time>
      </trkpt>
      <trkpt lat="48.86629" lon="2.35239">
        <ele>89.52</ele>
        <time>2020-03-15T15:55:27.000Z</time>
      </trkpt>
      <trkpt lat="48.86629" lon="2.35241">
        <ele>89.52</ele>
        <time>2020-03-15T15:55:29.000Z</time>
      </trkpt>
      <trkpt lat="48.86629" lon="2.35243">
        <ele>89.52</ele>
        <time>2020-03-15T15:55:31.000Z</time>
      </trkpt>
      <trkpt lat="48.8663" lon="2.35244">
        <ele>89.48</ele>
        <time>2020-03-15T15:55:40.000Z</time>
      </trkpt>
      <trkpt lat="48.86629" lon="2.35246">
        <ele>89.43</ele>
        <time>2020-03-15T15:55:44.000Z</time>
      </trkpt>
      <trkpt lat="48.86628" lon="2.35248">
        <ele>89.36</ele>
        <time>2020-03-15T15:55:57.000Z</time>
      </trkpt>
      <trkpt lat="48.86628" lon="2.35249">
        <ele>89.28</ele>
        <time>2020-03-15T15:56:12.000Z</time>
      </trkpt>
      <trkpt lat="48.86629" lon="2.35251">
        <ele>89.11</ele>
        <time>2020-03-15T15:56:32.000Z</time>
      </trkpt>
      <trkpt lat="48.86629" lon="2.35253">
        <ele>89.01</ele>
        <time>2020-03-15T15:56:34.000Z</time>
      </trkpt>
      <trkpt lat="48.86629" lon="2.35255">
        <ele>88.96</ele>
        <time>2020-03-15T15:56:35.000Z</time>
      </trkpt>
      <trkpt lat="48.86628" lon="2.35257">
        <ele>88.91</ele>
        <time>2020-03-15T15:56:36.000Z</time>
      </trkpt>
      <trkpt lat="48.86627" lon="2.3526">
        <ele>88.86</ele>
        <time>2020-03-15T15:56:37.000Z</time>
      </trkpt>
      <trkpt lat="48.86626" lon="2.35264">
        <ele>88.81</ele>
        <time>2020-03-15T15:56:38.000Z</time>
      </trkpt>
      <trkpt lat="48.86624" lon="2.35267">
        <ele>88.76</ele>
        <time>2020-03-15T15:56:39.000Z</time>
      </trkpt>
      <trkpt lat="48.86622" lon="2.3527">
        <ele>88.71</ele>
        <time>2020-03-15T15:56:40.000Z</time>
      </trkpt>
      <trkpt lat="48.86621" lon="2.35274">
        <ele>88.67</ele>
        <time>2020-03-15T15:56:41.000Z</time>
      </trkpt>
      <trkpt lat="48.8662" lon="2.35279">
        <ele>88.63</ele>
        <time>2020-03-15T15:56:42.000Z</time>
      </trkpt>
      <trkpt lat="48.86619" lon="2.35285">
        <ele>88.59</ele>
        <time>2020-03-15T15:56:43.000Z</time>
      </trkpt>
      <trkpt lat="48.86617" lon="2.35291">
        <ele>88.21</ele>
        <time>2020-03-15T15:56:44.000Z</time>
      </trkpt>
      <trkpt lat="48.86616" lon="2.35298">
        <ele>88.18</ele>
        <time>2020-03-15T15:56:45.000Z</time>
      </trkpt>
      <trkpt lat="48.86615" lon="2.35304">
        <ele>88.15</ele>
        <time>2020-03-15T15:56:46.000Z</time>
      </trkpt>
      <trkpt lat="48.86614" lon="2.3531">
        <ele>87.88</ele>
        <time>2020-03-15T15:56:47.000Z</time>
      </trkpt>
      <trkpt lat="48.86612" lon="2.35316">
        <ele>87.65</ele>
        <time>2020-03-15T15:56:48.000Z</time>
      </trkpt>
      <trkpt lat="48.86611" lon="2.35322">
        <ele>87.49</ele>
        <time>2020-03-15T15:56:49.000Z</time>
      </trkpt>
      <trkpt lat="48.86608" lon="2.35329">
        <ele>87.37</ele>
        <time>2020-03-15T15:56:50.000Z</time>
      </trkpt>
      <trkpt lat="48.86607" lon="2.35335">
        <ele>87.29</ele>
        <time>2020-03-15T15:56:51.000Z</time>
      </trkpt>
      <trkpt lat="48.86606" lon="2.35342">
        <ele>87.25</ele>
        <time>2020-03-15T15:56:52.000Z</time>
      </trkpt>
      <trkpt lat="48.86605" lon="2.35349">
        <ele>87.23</ele>
        <time>2020-03-15T15:56:53.000Z</time>
      </trkpt>
      <trkpt lat="48.86604" lon="2.35356">
        <ele>87.22</ele>
        <time>2020-03-15T15:56:54.000Z</time>
      </trkpt>
      <trkpt lat="48.86603" lon="2.35363">
        <ele>87.23</ele>
        <time>2020-03-15T15:56:55.000Z</time>
      </trkpt>
      <trkpt lat="48.86602" lon="2.35371">
        <ele>87.26</ele>
        <time>2020-03-15T15:56:56.000Z</time>
      </trkpt>
      <trkpt lat="48.866" lon="2.35378">
        <ele>87.27</ele>
        <time>2020-03-15T15:56:57.000Z</time>
      </trkpt>
      <trkpt lat="48.86598" lon="2.35386">
        <ele>87.27</ele>
        <time>2020-03-15T15:56:58.000Z</time>
      </trkpt>
      <trkpt lat="48.86596" lon="2.35392">
        <ele>87.28</ele>
        <time>2020-03-15T15:56:59.000Z</time>
      </trkpt>
      <trkpt lat="48.86594" lon="2.354">
        <ele>87.29</ele>
        <time>2020-03-15T15:57:00.000Z</time>
      </trkpt>
      <trkpt lat="48.86592" lon="2.35407">
        <ele>87.29</ele>
        <time>2020-03-15T15:57:01.000Z</time>
      </trkpt>
      <trkpt lat="48.8659" lon="2.35414">
        <ele>87.29</ele>
        <time>2020-03-15T15:57:02.000Z</time>
      </trkpt>
      <trkpt lat="48.86588" lon="2.35422">
        <ele>87.31</ele>
        <time>2020-03-15T15:57:03.000Z</time>
      </trkpt>
      <trkpt lat="48.86586" lon="2.35429">
        <ele>87.32</ele>
        <time>2020-03-15T15:57:04.000Z</time>
      </trkpt>
      <trkpt lat="48.86584" lon="2.35438">
        <ele>87.33</ele>
        <time>2020-03-15T15:57:05.000Z</time>
      </trkpt>
      <trkpt lat="48.86583" lon="2.35445">
        <ele>87.34</ele>
        <time>2020-03-15T15:57:06.000Z</time>
      </trkpt>
      <trkpt lat="48.86581" lon="2.35454">
        <ele>87.37</ele>
        <time>2020-03-15T15:57:07.000Z</time>
      </trkpt>
      <trkpt lat="48.86579" lon="2.35461">
        <ele>87.38</ele>
        <time>2020-03-15T15:57:08.000Z</time>
      </trkpt>
      <trkpt lat="48.86577" lon="2.35468">
        <ele>87.4</ele>
        <time>2020-03-15T15:57:09.000Z</time>
      </trkpt>
      <trkpt lat="48.86575" lon="2.35475">
        <ele>87.42</ele>
        <time>2020-03-15T15:57:10.000Z</time>
      </trkpt>
      <trkpt lat="48.86574" lon="2.35483">
        <ele>87.44</ele>
        <time>2020-03-15T15:57:11.000Z</time>
      </trkpt>
      <trkpt lat="48.86573" lon="2.3549">
        <ele>87.43</ele>
        <time>2020-03-15T15:57:12.000Z</time>
      </trkpt>
      <trkpt lat="48.86571" lon="2.35498">
        <ele>87.42</ele>
        <time>2020-03-15T15:57:13.000Z</time>
      </trkpt>
      <trkpt lat="48.8657" lon="2.35505">
        <ele>87.4</ele>
        <time>2020-03-15T15:57:14.000Z</time>
      </trkpt>
      <trkpt lat="48.86569" lon="2.35513">
        <ele>87.37</ele>
        <time>2020-03-15T15:57:15.000Z</time>
      </trkpt>
      <trkpt lat="48.86567" lon="2.3552">
        <ele>87.34</ele>
        <time>2020-03-15T15:57:16.000Z</time>
      </trkpt>
      <trkpt lat="48.86566" lon="2.35528">
        <ele>87.3</ele>
        <time>2020-03-15T15:57:17.000Z</time>
      </trkpt>
      <trkpt lat="48.86564" lon="2.35535">
        <ele>87.26</ele>
        <time>2020-03-15T15:57:18.000Z</time>
      </trkpt>
      <trkpt lat="48.86562" lon="2.35542">
        <ele>87.22</ele>
        <time>2020-03-15T15:57:19.000Z</time>
      </trkpt>
      <trkpt lat="48.8656" lon="2.35548">
        <ele>87.18</ele>
        <time>2020-03-15T15:57:20.000Z</time>
      </trkpt>
      <trkpt lat="48.86559" lon="2.35555">
        <ele>87.14</ele>
        <time>2020-03-15T15:57:21.000Z</time>
      </trkpt>
      <trkpt lat="48.86557" lon="2.35561">
        <ele>87.11</ele>
        <time>2020-03-15T15:57:22.000Z</time>
      </trkpt>
      <trkpt lat="48.86555" lon="2.35567">
        <ele>87.09</ele>
        <time>2020-03-15T15:57:23.000Z</time>
      </trkpt>
      <trkpt lat="48.86554" lon="2.35574">
        <ele>87.08</ele>
        <time>2020-03-15T15:57:24.000Z</time>
      </trkpt>
      <trkpt lat="48.86552" lon="2.35583">
        <ele>87.09</ele>
        <time>2020-03-15T15:57:25.000Z</time>
      </trkpt>
      <trkpt lat="48.8655" lon="2.35593">
        <ele>87.1</ele>
        <time>2020-03-15T15:57:26.000Z</time>
      </trkpt>
      <trkpt lat="48.8655" lon="2.35602">
        <ele>87.11</ele>
        <time>2020-03-15T15:57:27.000Z</time>
      </trkpt>
      <trkpt lat="48.86549" lon="2.3561">
        <ele>87.12</ele>
        <time>2020-03-15T15:57:28.000Z</time>
      </trkpt>
      <trkpt lat="48.86549" lon="2.35619">
        <ele>87.13</ele>
        <time>2020-03-15T15:57:29.000Z</time>
      </trkpt>
      <trkpt lat="48.86548" lon="2.35627">
        <ele>87.15</ele>
        <time>2020-03-15T15:57:30.000Z</time>
      </trkpt>
      <trkpt lat="48.86547" lon="2.35636">
        <ele>87.17</ele>
        <time>2020-03-15T15:57:31.000Z</time>
      </trkpt>
      <trkpt lat="48.86546" lon="2.35643">
        <ele>87.17</ele>
        <time>2020-03-15T15:57:32.000Z</time>
      </trkpt>
      <trkpt lat="48.86545" lon="2.3565">
        <ele>87.17</ele>
        <time>2020-03-15T15:57:33.000Z</time>
      </trkpt>
      <trkpt lat="48.86543" lon="2.35656">
        <ele>87.16</ele>
        <time>2020-03-15T15:57:34.000Z</time>
      </trkpt>
      <trkpt lat="48.8654" lon="2.35663">
        <ele>87.15</ele>
        <time>2020-03-15T15:57:35.000Z</time>
      </trkpt>
      <trkpt lat="48.86536" lon="2.35669">
        <ele>87.14</ele>
        <time>2020-03-15T15:57:36.000Z</time>
      </trkpt>
      <trkpt lat="48.86534" lon="2.35678">
        <ele>87.15</ele>
        <time>2020-03-15T15:57:37.000Z</time>
      </trkpt>
      <trkpt lat="48.86533" lon="2.35688">
        <ele>87.18</ele>
        <time>2020-03-15T15:57:38.000Z</time>
      </trkpt>
      <trkpt lat="48.86532" lon="2.357">
        <ele>87.22</ele>
        <time>2020-03-15T15:57:39.000Z</time>
      </trkpt>
      <trkpt lat="48.8653" lon="2.35709">
        <ele>87.26</ele>
        <time>2020-03-15T15:57:40.000Z</time>
      </trkpt>
      <trkpt lat="48.86529" lon="2.35718">
        <ele>87.3</ele>
        <time>2020-03-15T15:57:41.000Z</time>
      </trkpt>
      <trkpt lat="48.86526" lon="2.35725">
        <ele>87.33</ele>
        <time>2020-03-15T15:57:42.000Z</time>
      </trkpt>
      <trkpt lat="48.86523" lon="2.35732">
        <ele>87.36</ele>
        <time>2020-03-15T15:57:43.000Z</time>
      </trkpt>
      <trkpt lat="48.8652" lon="2.35741">
        <ele>87.39</ele>
        <time>2020-03-15T15:57:44.000Z</time>
      </trkpt>
      <trkpt lat="48.86518" lon="2.35752">
        <ele>87.44</ele>
        <time>2020-03-15T15:57:45.000Z</time>
      </trkpt>
      <trkpt lat="48.86515" lon="2.35761">
        <ele>87.48</ele>
        <time>2020-03-15T15:57:46.000Z</time>
      </trkpt>
      <trkpt lat="48.86513" lon="2.35769">
        <ele>87.51</ele>
        <time>2020-03-15T15:57:47.000Z</time>
      </trkpt>
      <trkpt lat="48.86511" lon="2.35776">
        <ele>87.55</ele>
        <time>2020-03-15T15:57:48.000Z</time>
      </trkpt>
      <trkpt lat="48.86509" lon="2.35784">
        <ele>87.59</ele>
        <time>2020-03-15T15:57:49.000Z</time>
      </trkpt>
      <trkpt lat="48.86507" lon="2.35791">
        <ele>87.62</ele>
        <time>2020-03-15T15:57:50.000Z</time>
      </trkpt>
      <trkpt lat="48.86504" lon="2.35798">
        <ele>87.65</ele>
        <time>2020-03-15T15:57:51.000Z</time>
      </trkpt>
      <trkpt lat="48.865" lon="2.35805">
        <ele>87.67</ele>
        <time>2020-03-15T15:57:52.000Z</time>
      </trkpt>
      <trkpt lat="48.86497" lon="2.35811">
        <ele>87.68</ele>
        <time>2020-03-15T15:57:53.000Z</time>
      </trkpt>
      <trkpt lat="48.86494" lon="2.35818">
        <ele>87.69</ele>
        <time>2020-03-15T15:57:54.000Z</time>
      </trkpt>
      <trkpt lat="48.86491" lon="2.35825">
        <ele>87.69</ele>
        <time>2020-03-15T15:57:55.000Z</time>
      </trkpt>
      <trkpt lat="48.86489" lon="2.35834">
        <ele>87.71</ele>
        <time>2020-03-15T15:57:56.000Z</time>
      </trkpt>
      <trkpt lat="48.86486" lon="2.35843">
        <ele>87.72</ele>
        <time>2020-03-15T15:57:57.000Z</time>
      </trkpt>
      <trkpt lat="48.86484" lon="2.35852">
        <ele>87.73</ele>
        <time>2020-03-15T15:57:58.000Z</time>
      </trkpt>
      <trkpt lat="48.86482" lon="2.3586">
        <ele>87.74</ele>
        <time>2020-03-15T15:57:59.000Z</time>
      </trkpt>
      <trkpt lat="48.86479" lon="2.3587">
        <ele>87.75</ele>
        <time>2020-03-15T15:58:00.000Z</time>
      </trkpt>
      <trkpt lat="48.86477" lon="2.35878">
        <ele>87.75</ele>
        <time>2020-03-15T15:58:01.000Z</time>
      </trkpt>
      <trkpt lat="48.86475" lon="2.35885">
        <ele>87.76</ele>
        <time>2020-03-15T15:58:02.000Z</time>
      </trkpt>
      <trkpt lat="48.86472" lon="2.35892">
        <ele>87.76</ele>
        <time>2020-03-15T15:58:03.000Z</time>
      </trkpt>
      <trkpt lat="48.8647" lon="2.35899">
        <ele>87.75</ele>
        <time>2020-03-15T15:58:04.000Z</time>
      </trkpt>
      <trkpt lat="48.86468" lon="2.35906">
        <ele>87.76</ele>
        <time>2020-03-15T15:58:05.000Z</time>
      </trkpt>
      <trkpt lat="48.86466" lon="2.35912">
        <ele>87.77</ele>
        <time>2020-03-15T15:58:06.000Z</time>
      </trkpt>
      <trkpt lat="48.86463" lon="2.35918">
        <ele>87.78</ele>
        <time>2020-03-15T15:58:07.000Z</time>
      </trkpt>
      <trkpt lat="48.86462" lon="2.35923">
        <ele>87.78</ele>
        <time>2020-03-15T15:58:08.000Z</time>
      </trkpt>
      <trkpt lat="48.8646" lon="2.35929">
        <ele>87.78</ele>
        <time>2020-03-15T15:58:09.000Z</time>
      </trkpt>
      <trkpt lat="48.86458" lon="2.35933">
        <ele>87.78</ele>
        <time>2020-03-15T15:58:10.000Z</time>
      </trkpt>
      <trkpt lat="48.86457" lon="2.35938">
        <ele>87.78</ele>
        <time>2020-03-15T15:58:11.000Z</time>
      </trkpt>
      <trkpt lat="48.86457" lon="2.35943">
        <ele>87.78</ele>
        <time>2020-03-15T15:58:12.000Z</time>
      </trkpt>
      <trkpt lat="48.86456" lon="2.35948">
        <ele>87.71</ele>
        <time>2020-03-15T15:58:13.000Z</time>
      </trkpt>
      <trkpt lat="48.86456" lon="2.35955">
        <ele>87.71</ele>
        <time>2020-03-15T15:58:14.000Z</time>
      </trkpt>
      <trkpt lat="48.86455" lon="2.35959">
        <ele>87.69</ele>
        <time>2020-03-15T15:58:15.000Z</time>
      </trkpt>
      <trkpt lat="48.86454" lon="2.35962">
        <ele>87.68</ele>
        <time>2020-03-15T15:58:16.000Z</time>
      </trkpt>
      <trkpt lat="48.86453" lon="2.35964">
        <ele>87.67</ele>
        <time>2020-03-15T15:58:17.000Z</time>
      </trkpt>
      <trkpt lat="48.86452" lon="2.35967">
        <ele>87.65</ele>
        <time>2020-03-15T15:58:18.000Z</time>
      </trkpt>
      <trkpt lat="48.8645" lon="2.3597">
        <ele>87.63</ele>
        <time>2020-03-15T15:58:19.000Z</time>
      </trkpt>
      <trkpt lat="48.86448" lon="2.35973">
        <ele>87.61</ele>
        <time>2020-03-15T15:58:20.000Z</time>
      </trkpt>
      <trkpt lat="48.86445" lon="2.35976">
        <ele>87.58</ele>
        <time>2020-03-15T15:58:21.000Z</time>
      </trkpt>
      <trkpt lat="48.86442" lon="2.35978">
        <ele>87.55</ele>
        <time>2020-03-15T15:58:22.000Z</time>
      </trkpt>
      <trkpt lat="48.86441" lon="2.35988">
        <ele>87.5</ele>
        <time>2020-03-15T15:58:23.000Z</time>
      </trkpt>
      <trkpt lat="48.86438" lon="2.35994">
        <ele>87.44</ele>
        <time>2020-03-15T15:58:24.000Z</time>
      </trkpt>
      <trkpt lat="48.86436" lon="2.35998">
        <ele>87.38</ele>
        <time>2020-03-15T15:58:25.000Z</time>
      </trkpt>
      <trkpt lat="48.86432" lon="2.36002">
        <ele>87.3</ele>
        <time>2020-03-15T15:58:26.000Z</time>
      </trkpt>
      <trkpt lat="48.86429" lon="2.36006">
        <ele>87.22</ele>
        <time>2020-03-15T15:58:27.000Z</time>
      </trkpt>
      <trkpt lat="48.86425" lon="2.3601">
        <ele>86.35</ele>
        <time>2020-03-15T15:58:28.000Z</time>
      </trkpt>
      <trkpt lat="48.86421" lon="2.36015">
        <ele>85.57</ele>
        <time>2020-03-15T15:58:29.000Z</time>
      </trkpt>
      <trkpt lat="48.86417" lon="2.3602">
        <ele>84.82</ele>
        <time>2020-03-15T15:58:30.000Z</time>
      </trkpt>
      <trkpt lat="48.86413" lon="2.36026">
        <ele>84.15</ele>
        <time>2020-03-15T15:58:31.000Z</time>
      </trkpt>
      <trkpt lat="48.8641" lon="2.36031">
        <ele>83.56</ele>
        <time>2020-03-15T15:58:32.000Z</time>
      </trkpt>
      <trkpt lat="48.86406" lon="2.36038">
        <ele>82.96</ele>
        <time>2020-03-15T15:58:33.000Z</time>
      </trkpt>
      <trkpt lat="48.86402" lon="2.36043">
        <ele>82.9</ele>
        <time>2020-03-15T15:58:34.000Z</time>
      </trkpt>
      <trkpt lat="48.864" lon="2.36047">
        <ele>82.85</ele>
        <time>2020-03-15T15:58:35.000Z</time>
      </trkpt>
      <trkpt lat="48.86397" lon="2.36051">
        <ele>82.79</ele>
        <time>2020-03-15T15:58:36.000Z</time>
      </trkpt>
      <trkpt lat="48.86394" lon="2.36056">
        <ele>82.13</ele>
        <time>2020-03-15T15:58:37.000Z</time>
      </trkpt>
      <trkpt lat="48.86391" lon="2.36061">
        <ele>81.39</ele>
        <time>2020-03-15T15:58:38.000Z</time>
      </trkpt>
      <trkpt lat="48.86388" lon="2.36069">
        <ele>80.5</ele>
        <time>2020-03-15T15:58:39.000Z</time>
      </trkpt>
      <trkpt lat="48.86386" lon="2.36075">
        <ele>80.41</ele>
        <time>2020-03-15T15:58:40.000Z</time>
      </trkpt>
      <trkpt lat="48.86383" lon="2.36083">
        <ele>80.29</ele>
        <time>2020-03-15T15:58:41.000Z</time>
      </trkpt>
      <trkpt lat="48.86381" lon="2.36087">
        <ele>80.18</ele>
        <time>2020-03-15T15:58:42.000Z</time>
      </trkpt>
      <trkpt lat="48.86378" lon="2.3609">
        <ele>80.07</ele>
        <time>2020-03-15T15:58:43.000Z</time>
      </trkpt>
      <trkpt lat="48.86377" lon="2.36096">
        <ele>79.94</ele>
        <time>2020-03-15T15:58:44.000Z</time>
      </trkpt>
      <trkpt lat="48.86374" lon="2.36101">
        <ele>78.7</ele>
        <time>2020-03-15T15:58:45.000Z</time>
      </trkpt>
      <trkpt lat="48.86371" lon="2.36108">
        <ele>78.59</ele>
        <time>2020-03-15T15:58:46.000Z</time>
      </trkpt>
      <trkpt lat="48.86368" lon="2.36115">
        <ele>78.48</ele>
        <time>2020-03-15T15:58:47.000Z</time>
      </trkpt>
      <trkpt lat="48.86366" lon="2.36122">
        <ele>78.34</ele>
        <time>2020-03-15T15:58:48.000Z</time>
      </trkpt>
      <trkpt lat="48.86363" lon="2.36128">
        <ele>78.22</ele>
        <time>2020-03-15T15:58:49.000Z</time>
      </trkpt>
      <trkpt lat="48.86359" lon="2.36132">
        <ele>78.11</ele>
        <time>2020-03-15T15:58:50.000Z</time>
      </trkpt>
      <trkpt lat="48.86357" lon="2.36135">
        <ele>78.02</ele>
        <time>2020-03-15T15:58:51.000Z</time>
      </trkpt>
      <trkpt lat="48.86355" lon="2.3614">
        <ele>77.95</ele>
        <time>2020-03-15T15:58:52.000Z</time>
      </trkpt>
      <trkpt lat="48.86352" lon="2.36142">
        <ele>77.9</ele>
        <time>2020-03-15T15:58:53.000Z</time>
      </trkpt>
      <trkpt lat="48.8635" lon="2.36143">
        <ele>77.87</ele>
        <time>2020-03-15T15:58:54.000Z</time>
      </trkpt>
      <trkpt lat="48.86349" lon="2.36145">
        <ele>77.84</ele>
        <time>2020-03-15T15:58:55.000Z</time>
      </trkpt>
      <trkpt lat="48.86348" lon="2.36149">
        <ele>77.82</ele>
        <time>2020-03-15T15:58:56.000Z</time>
      </trkpt>
      <trkpt lat="48.86348" lon="2.36153">
        <ele>77.82</ele>
        <time>2020-03-15T15:58:57.000Z</time>
      </trkpt>
      <trkpt lat="48.86348" lon="2.36164">
        <ele>77.83</ele>
        <time>2020-03-15T15:58:58.000Z</time>
      </trkpt>
      <trkpt lat="48.86347" lon="2.36171">
        <ele>77.85</ele>
        <time>2020-03-15T15:58:59.000Z</time>
      </trkpt>
      <trkpt lat="48.86346" lon="2.36179">
        <ele>77.86</ele>
        <time>2020-03-15T15:59:00.000Z</time>
      </trkpt>
      <trkpt lat="48.86346" lon="2.36185">
        <ele>77.88</ele>
        <time>2020-03-15T15:59:01.000Z</time>
      </trkpt>
      <trkpt lat="48.86341" lon="2.36189">
        <ele>77.89</ele>
        <time>2020-03-15T15:59:02.000Z</time>
      </trkpt>
      <trkpt lat="48.86339" lon="2.36191">
        <ele>77.89</ele>
        <time>2020-03-15T15:59:03.000Z</time>
      </trkpt>
      <trkpt lat="48.86335" lon="2.36195">
        <ele>77.87</ele>
        <time>2020-03-15T15:59:04.000Z</time>
      </trkpt>
      <trkpt lat="48.86332" lon="2.36199">
        <ele>77.86</ele>
        <time>2020-03-15T15:59:05.000Z</time>
      </trkpt>
      <trkpt lat="48.8633" lon="2.36205">
        <ele>77.84</ele>
        <time>2020-03-15T15:59:06.000Z</time>
      </trkpt>
      <trkpt lat="48.86328" lon="2.36213">
        <ele>77.82</ele>
        <time>2020-03-15T15:59:07.000Z</time>
      </trkpt>
      <trkpt lat="48.86328" lon="2.3622">
        <ele>77.77</ele>
        <time>2020-03-15T15:59:08.000Z</time>
      </trkpt>
      <trkpt lat="48.86327" lon="2.36224">
        <ele>77.72</ele>
        <time>2020-03-15T15:59:09.000Z</time>
      </trkpt>
      <trkpt lat="48.86325" lon="2.36231">
        <ele>77.66</ele>
        <time>2020-03-15T15:59:10.000Z</time>
      </trkpt>
      <trkpt lat="48.86322" lon="2.3624">
        <ele>77.54</ele>
        <time>2020-03-15T15:59:11.000Z</time>
      </trkpt>
      <trkpt lat="48.86319" lon="2.36248">
        <ele>77.35</ele>
        <time>2020-03-15T15:59:12.000Z</time>
      </trkpt>
      <trkpt lat="48.86316" lon="2.36251">
        <ele>77.2</ele>
        <time>2020-03-15T15:59:13.000Z</time>
      </trkpt>
      <trkpt lat="48.86311" lon="2.3626">
        <ele>77.01</ele>
        <time>2020-03-15T15:59:14.000Z</time>
      </trkpt>
      <trkpt lat="48.86309" lon="2.36264">
        <ele>76.81</ele>
        <time>2020-03-15T15:59:15.000Z</time>
      </trkpt>
      <trkpt lat="48.86307" lon="2.36271">
        <ele>76.63</ele>
        <time>2020-03-15T15:59:16.000Z</time>
      </trkpt>
      <trkpt lat="48.86305" lon="2.36276">
        <ele>76.49</ele>
        <time>2020-03-15T15:59:17.000Z</time>
      </trkpt>
      <trkpt lat="48.86303" lon="2.36282">
        <ele>76.35</ele>
        <time>2020-03-15T15:59:18.000Z</time>
      </trkpt>
      <trkpt lat="48.86301" lon="2.36288">
        <ele>76.21</ele>
        <time>2020-03-15T15:59:19.000Z</time>
      </trkpt>
      <trkpt lat="48.86298" lon="2.36293">
        <ele>76.09</ele>
        <time>2020-03-15T15:59:20.000Z</time>
      </trkpt>
      <trkpt lat="48.86295" lon="2.36299">
        <ele>75.98</ele>
        <time>2020-03-15T15:59:21.000Z</time>
      </trkpt>
      <trkpt lat="48.86291" lon="2.36308">
        <ele>75.86</ele>
        <time>2020-03-15T15:59:22.000Z</time>
      </trkpt>
      <trkpt lat="48.86288" lon="2.36315">
        <ele>75.72</ele>
        <time>2020-03-15T15:59:23.000Z</time>
      </trkpt>
      <trkpt lat="48.86288" lon="2.3632">
        <ele>75.55</ele>
        <time>2020-03-15T15:59:24.000Z</time>
      </trkpt>
      <trkpt lat="48.86287" lon="2.36327">
        <ele>75.41</ele>
        <time>2020-03-15T15:59:25.000Z</time>
      </trkpt>
      <trkpt lat="48.86284" lon="2.36332">
        <ele>75.32</ele>
        <time>2020-03-15T15:59:26.000Z</time>
      </trkpt>
      <trkpt lat="48.86281" lon="2.36337">
        <ele>75.21</ele>
        <time>2020-03-15T15:59:27.000Z</time>
      </trkpt>
      <trkpt lat="48.86277" lon="2.36343">
        <ele>75.14</ele>
        <time>2020-03-15T15:59:28.000Z</time>
      </trkpt>
      <trkpt lat="48.86271" lon="2.3635">
        <ele>75.06</ele>
        <time>2020-03-15T15:59:29.000Z</time>
      </trkpt>
      <trkpt lat="48.86266" lon="2.36359">
        <ele>74.92</ele>
        <time>2020-03-15T15:59:30.000Z</time>
      </trkpt>
      <trkpt lat="48.86263" lon="2.36362">
        <ele>74.86</ele>
        <time>2020-03-15T15:59:31.000Z</time>
      </trkpt>
      <trkpt lat="48.8626" lon="2.36367">
        <ele>74.81</ele>
        <time>2020-03-15T15:59:32.000Z</time>
      </trkpt>
      <trkpt lat="48.86258" lon="2.36372">
        <ele>74.82</ele>
        <time>2020-03-15T15:59:33.000Z</time>
      </trkpt>
      <trkpt lat="48.86253" lon="2.36378">
        <ele>74.76</ele>
        <time>2020-03-15T15:59:34.000Z</time>
      </trkpt>
      <trkpt lat="48.86248" lon="2.36382">
        <ele>74.68</ele>
        <time>2020-03-15T15:59:35.000Z</time>
      </trkpt>
      <trkpt lat="48.86244" lon="2.36389">
        <ele>74.56</ele>
        <time>2020-03-15T15:59:36.000Z</time>
      </trkpt>
      <trkpt lat="48.8624" lon="2.36396">
        <ele>74.42</ele>
        <time>2020-03-15T15:59:37.000Z</time>
      </trkpt>
      <trkpt lat="48.86239" lon="2.364">
        <ele>74.27</ele>
        <time>2020-03-15T15:59:38.000Z</time>
      </trkpt>
      <trkpt lat="48.86237" lon="2.36407">
        <ele>74.18</ele>
        <time>2020-03-15T15:59:39.000Z</time>
      </trkpt>
      <trkpt lat="48.86235" lon="2.36412">
        <ele>74.08</ele>
        <time>2020-03-15T15:59:40.000Z</time>
      </trkpt>
      <trkpt lat="48.86233" lon="2.36417">
        <ele>73.96</ele>
        <time>2020-03-15T15:59:41.000Z</time>
      </trkpt>
      <trkpt lat="48.8623" lon="2.3642">
        <ele>73.85</ele>
        <time>2020-03-15T15:59:42.000Z</time>
      </trkpt>
      <trkpt lat="48.86229" lon="2.36424">
        <ele>73.72</ele>
        <time>2020-03-15T15:59:43.000Z</time>
      </trkpt>
      <trkpt lat="48.86226" lon="2.36429">
        <ele>73.59</ele>
        <time>2020-03-15T15:59:44.000Z</time>
      </trkpt>
      <trkpt lat="48.86224" lon="2.36433">
        <ele>73.45</ele>
        <time>2020-03-15T15:59:45.000Z</time>
      </trkpt>
      <trkpt lat="48.86223" lon="2.36439">
        <ele>73.3</ele>
        <time>2020-03-15T15:59:46.000Z</time>
      </trkpt>
      <trkpt lat="48.86218" lon="2.36444">
        <ele>73.22</ele>
        <time>2020-03-15T15:59:47.000Z</time>
      </trkpt>
      <trkpt lat="48.86215" lon="2.36452">
        <ele>73.13</ele>
        <time>2020-03-15T15:59:48.000Z</time>
      </trkpt>
      <trkpt lat="48.86212" lon="2.3646">
        <ele>73.11</ele>
        <time>2020-03-15T15:59:49.000Z</time>
      </trkpt>
      <trkpt lat="48.86209" lon="2.36468">
        <ele>73.13</ele>
        <time>2020-03-15T15:59:50.000Z</time>
      </trkpt>
      <trkpt lat="48.86208" lon="2.36476">
        <ele>73.2</ele>
        <time>2020-03-15T15:59:51.000Z</time>
      </trkpt>
      <trkpt lat="48.86206" lon="2.36481">
        <ele>73.29</ele>
        <time>2020-03-15T15:59:52.000Z</time>
      </trkpt>
      <trkpt lat="48.86204" lon="2.36485">
        <ele>73.37</ele>
        <time>2020-03-15T15:59:53.000Z</time>
      </trkpt>
      <trkpt lat="48.86203" lon="2.3649">
        <ele>73.45</ele>
        <time>2020-03-15T15:59:54.000Z</time>
      </trkpt>
      <trkpt lat="48.862" lon="2.36495">
        <ele>73.52</ele>
        <time>2020-03-15T15:59:55.000Z</time>
      </trkpt>
      <trkpt lat="48.86198" lon="2.36501">
        <ele>73.59</ele>
        <time>2020-03-15T15:59:56.000Z</time>
      </trkpt>
      <trkpt lat="48.86196" lon="2.36505">
        <ele>73.65</ele>
        <time>2020-03-15T15:59:57.000Z</time>
      </trkpt>
      <trkpt lat="48.86195" lon="2.36509">
        <ele>73.71</ele>
        <time>2020-03-15T15:59:58.000Z</time>
      </trkpt>
      <trkpt lat="48.86195" lon="2.36512">
        <ele>73.78</ele>
        <time>2020-03-15T15:59:59.000Z</time>
      </trkpt>
      <trkpt lat="48.86193" lon="2.36517">
        <ele>73.82</ele>
        <time>2020-03-15T16:00:00.000Z</time>
      </trkpt>
      <trkpt lat="48.86191" lon="2.3652">
        <ele>73.84</ele>
        <time>2020-03-15T16:00:01.000Z</time>
      </trkpt>
      <trkpt lat="48.86188" lon="2.36524">
        <ele>73.87</ele>
        <time>2020-03-15T16:00:02.000Z</time>
      </trkpt>
      <trkpt lat="48.86188" lon="2.36527">
        <ele>73.89</ele>
        <time>2020-03-15T16:00:03.000Z</time>
      </trkpt>
      <trkpt lat="48.86187" lon="2.36531">
        <ele>73.92</ele>
        <time>2020-03-15T16:00:04.000Z</time>
      </trkpt>
      <trkpt lat="48.86186" lon="2.36536">
        <ele>73.94</ele>
        <time>2020-03-15T16:00:05.000Z</time>
      </trkpt>
      <trkpt lat="48.86185" lon="2.36539">
        <ele>73.98</ele>
        <time>2020-03-15T16:00:06.000Z</time>
      </trkpt>
      <trkpt lat="48.86183" lon="2.36543">
        <ele>74.01</ele>
        <time>2020-03-15T16:00:07.000Z</time>
      </trkpt>
      <trkpt lat="48.8618" lon="2.36545">
        <ele>74.05</ele>
        <time>2020-03-15T16:00:08.000Z</time>
      </trkpt>
      <trkpt lat="48.86178" lon="2.36548">
        <ele>74.09</ele>
        <time>2020-03-15T16:00:09.000Z</time>
      </trkpt>
      <trkpt lat="48.86178" lon="2.36553">
        <ele>74.13</ele>
        <time>2020-03-15T16:00:10.000Z</time>
      </trkpt>
      <trkpt lat="48.86176" lon="2.3656">
        <ele>74.18</ele>
        <time>2020-03-15T16:00:11.000Z</time>
      </trkpt>
      <trkpt lat="48.86175" lon="2.36564">
        <ele>74.23</ele>
        <time>2020-03-15T16:00:12.000Z</time>
      </trkpt>
      <trkpt lat="48.86173" lon="2.36568">
        <ele>74.28</ele>
        <time>2020-03-15T16:00:13.000Z</time>
      </trkpt>
      <trkpt lat="48.8617" lon="2.36572">
        <ele>74.33</ele>
        <time>2020-03-15T16:00:14.000Z</time>
      </trkpt>
      <trkpt lat="48.86168" lon="2.36576">
        <ele>74.38</ele>
        <time>2020-03-15T16:00:15.000Z</time>
      </trkpt>
      <trkpt lat="48.86167" lon="2.3658">
        <ele>74.43</ele>
        <time>2020-03-15T16:00:16.000Z</time>
      </trkpt>
      <trkpt lat="48.86166" lon="2.36584">
        <ele>74.48</ele>
        <time>2020-03-15T16:00:17.000Z</time>
      </trkpt>
      <trkpt lat="48.86164" lon="2.36589">
        <ele>74.54</ele>
        <time>2020-03-15T16:00:18.000Z</time>
      </trkpt>
      <trkpt lat="48.86162" lon="2.36595">
        <ele>74.59</ele>
        <time>2020-03-15T16:00:19.000Z</time>
      </trkpt>
      <trkpt lat="48.86159" lon="2.366">
        <ele>74.65</ele>
        <time>2020-03-15T16:00:20.000Z</time>
      </trkpt>
      <trkpt lat="48.86156" lon="2.36604">
        <ele>74.72</ele>
        <time>2020-03-15T16:00:21.000Z</time>
      </trkpt>
      <trkpt lat="48.86153" lon="2.36608">
        <ele>74.78</ele>
        <time>2020-03-15T16:00:22.000Z</time>
      </trkpt>
      <trkpt lat="48.86151" lon="2.36612">
        <ele>74.86</ele>
        <time>2020-03-15T16:00:23.000Z</time>
      </trkpt>
      <trkpt lat="48.86149" lon="2.36617">
        <ele>74.92</ele>
        <time>2020-03-15T16:00:24.000Z</time>
      </trkpt>
      <trkpt lat="48.86147" lon="2.36621">
        <ele>74.99</ele>
        <time>2020-03-15T16:00:25.000Z</time>
      </trkpt>
      <trkpt lat="48.86144" lon="2.36624">
        <ele>75.09</ele>
        <time>2020-03-15T16:00:26.000Z</time>
      </trkpt>
      <trkpt lat="48.86141" lon="2.36628">
        <ele>75.2</ele>
        <time>2020-03-15T16:00:27.000Z</time>
      </trkpt>
      <trkpt lat="48.86138" lon="2.36633">
        <ele>75.33</ele>
        <time>2020-03-15T16:00:28.000Z</time>
      </trkpt>
      <trkpt lat="48.86135" lon="2.36637">
        <ele>75.47</ele>
        <time>2020-03-15T16:00:29.000Z</time>
      </trkpt>
      <trkpt lat="48.86132" lon="2.36643">
        <ele>75.63</ele>
        <time>2020-03-15T16:00:30.000Z</time>
      </trkpt>
      <trkpt lat="48.86129" lon="2.36647">
        <ele>75.79</ele>
        <time>2020-03-15T16:00:31.000Z</time>
      </trkpt>
      <trkpt lat="48.86126" lon="2.36651">
        <ele>77.35</ele>
        <time>2020-03-15T16:00:32.000Z</time>
      </trkpt>
      <trkpt lat="48.86124" lon="2.36658">
        <ele>77.48</ele>
        <time>2020-03-15T16:00:33.000Z</time>
      </trkpt>
      <trkpt lat="48.86122" lon="2.36661">
        <ele>77.61</ele>
        <time>2020-03-15T16:00:34.000Z</time>
      </trkpt>
      <trkpt lat="48.8612" lon="2.36668">
        <ele>77.74</ele>
        <time>2020-03-15T16:00:35.000Z</time>
      </trkpt>
      <trkpt lat="48.86122" lon="2.36673">
        <ele>77.86</ele>
        <time>2020-03-15T16:00:36.000Z</time>
      </trkpt>
      <trkpt lat="48.86124" lon="2.36679">
        <ele>77.97</ele>
        <time>2020-03-15T16:00:37.000Z</time>
      </trkpt>
      <trkpt lat="48.86125" lon="2.3668">
        <ele>78.08</ele>
        <time>2020-03-15T16:00:38.000Z</time>
      </trkpt>
      <trkpt lat="48.86126" lon="2.36682">
        <ele>78.18</ele>
        <time>2020-03-15T16:00:39.000Z</time>
      </trkpt>
      <trkpt lat="48.86128" lon="2.36684">
        <ele>78.28</ele>
        <time>2020-03-15T16:00:40.000Z</time>
      </trkpt>
      <trkpt lat="48.86128" lon="2.36685">
        <ele>78.39</ele>
        <time>2020-03-15T16:00:41.000Z</time>
      </trkpt>
      <trkpt lat="48.86129" lon="2.36686">
        <ele>78.49</ele>
        <time>2020-03-15T16:00:42.000Z</time>
      </trkpt>
      <trkpt lat="48.86128" lon="2.36688">
        <ele>78.59</ele>
        <time>2020-03-15T16:00:43.000Z</time>
      </trkpt>
      <trkpt lat="48.86128" lon="2.3669">
        <ele>78.7</ele>
        <time>2020-03-15T16:00:44.000Z</time>
      </trkpt>
      <trkpt lat="48.86126" lon="2.36693">
        <ele>78.8</ele>
        <time>2020-03-15T16:00:45.000Z</time>
      </trkpt>
      <trkpt lat="48.86125" lon="2.36697">
        <ele>78.9</ele>
        <time>2020-03-15T16:00:46.000Z</time>
      </trkpt>
      <trkpt lat="48.86123" lon="2.36697">
        <ele>79</ele>
        <time>2020-03-15T16:00:47.000Z</time>
      </trkpt>
      <trkpt lat="48.8612" lon="2.36701">
        <ele>79.1</ele>
        <time>2020-03-15T16:00:48.000Z</time>
      </trkpt>
      <trkpt lat="48.86118" lon="2.36705">
        <ele>79.18</ele>
        <time>2020-03-15T16:00:49.000Z</time>
      </trkpt>
      <trkpt lat="48.86116" lon="2.36707">
        <ele>79.26</ele>
        <time>2020-03-15T16:00:50.000Z</time>
      </trkpt>
      <trkpt lat="48.86113" lon="2.36708">
        <ele>79.34</ele>
        <time>2020-03-15T16:00:51.000Z</time>
      </trkpt>
      <trkpt lat="48.86111" lon="2.36709">
        <ele>79.41</ele>
        <time>2020-03-15T16:00:52.000Z</time>
      </trkpt>
      <trkpt lat="48.86109" lon="2.36709">
        <ele>79.45</ele>
        <time>2020-03-15T16:00:53.000Z</time>
      </trkpt>
      <trkpt lat="48.86108" lon="2.36709">
        <ele>79.49</ele>
        <time>2020-03-15T16:00:54.000Z</time>
      </trkpt>
      <trkpt lat="48.86107" lon="2.36708">
        <ele>79.52</ele>
        <time>2020-03-15T16:00:55.000Z</time>
      </trkpt>
      <trkpt lat="48.86106" lon="2.36708">
        <ele>79.56</ele>
        <time>2020-03-15T16:00:56.000Z</time>
      </trkpt>
      <trkpt lat="48.86105" lon="2.36708">
        <ele>79.8</ele>
        <time>2020-03-15T16:01:01.000Z</time>
      </trkpt>
      <trkpt lat="48.86104" lon="2.36707">
        <ele>80.42</ele>
        <time>2020-03-15T16:01:07.000Z</time>
      </trkpt>
      <trkpt lat="48.86103" lon="2.36706">
        <ele>80.53</ele>
        <time>2020-03-15T16:01:08.000Z</time>
      </trkpt>
      <trkpt lat="48.86102" lon="2.36705">
        <ele>80.76</ele>
        <time>2020-03-15T16:01:10.000Z</time>
      </trkpt>
      <trkpt lat="48.86101" lon="2.36703">
        <ele>81</ele>
        <time>2020-03-15T16:01:13.000Z</time>
      </trkpt>
      <trkpt lat="48.86101" lon="2.36704">
        <ele>81.41</ele>
        <time>2020-03-15T16:01:19.000Z</time>
      </trkpt>
      <trkpt lat="48.86102" lon="2.36706">
        <ele>81.67</ele>
        <time>2020-03-15T16:01:21.000Z</time>
      </trkpt>
      <trkpt lat="48.86103" lon="2.36707">
        <ele>81.8</ele>
        <time>2020-03-15T16:01:23.000Z</time>
      </trkpt>
      <trkpt lat="48.86103" lon="2.36709">
        <ele>81.94</ele>
        <time>2020-03-15T16:01:25.000Z</time>
      </trkpt>
      <trkpt lat="48.86102" lon="2.3671">
        <ele>82.61</ele>
        <time>2020-03-15T16:01:38.000Z</time>
      </trkpt>
      <trkpt lat="48.86101" lon="2.3671">
        <ele>82.69</ele>
        <time>2020-03-15T16:01:39.000Z</time>
      </trkpt>
      <trkpt lat="48.861" lon="2.36711">
        <ele>82.77</ele>
        <time>2020-03-15T16:01:40.000Z</time>
      </trkpt>
      <trkpt lat="48.86099" lon="2.36711">
        <ele>82.85</ele>
        <time>2020-03-15T16:01:41.000Z</time>
      </trkpt>
      <trkpt lat="48.86098" lon="2.36712">
        <ele>82.92</ele>
        <time>2020-03-15T16:01:42.000Z</time>
      </trkpt>
      <trkpt lat="48.86098" lon="2.36713">
        <ele>82.99</ele>
        <time>2020-03-15T16:01:43.000Z</time>
      </trkpt>
      <trkpt lat="48.86097" lon="2.36714">
        <ele>83.11</ele>
        <time>2020-03-15T16:01:45.000Z</time>
      </trkpt>
      <trkpt lat="48.86095" lon="2.36715">
        <ele>83.23</ele>
        <time>2020-03-15T16:01:47.000Z</time>
      </trkpt>
      <trkpt lat="48.86093" lon="2.36716">
        <ele>83.29</ele>
        <time>2020-03-15T16:01:48.000Z</time>
      </trkpt>
      <trkpt lat="48.86091" lon="2.36716">
        <ele>83.35</ele>
        <time>2020-03-15T16:01:49.000Z</time>
      </trkpt>
      <trkpt lat="48.8609" lon="2.36717">
        <ele>83.4</ele>
        <time>2020-03-15T16:01:50.000Z</time>
      </trkpt>
      <trkpt lat="48.86087" lon="2.36718">
        <ele>83.46</ele>
        <time>2020-03-15T16:01:51.000Z</time>
      </trkpt>
      <trkpt lat="48.86085" lon="2.36719">
        <ele>83.49</ele>
        <time>2020-03-15T16:01:52.000Z</time>
      </trkpt>
      <trkpt lat="48.86082" lon="2.3672">
        <ele>83.52</ele>
        <time>2020-03-15T16:01:53.000Z</time>
      </trkpt>
      <trkpt lat="48.86079" lon="2.36721">
        <ele>83.53</ele>
        <time>2020-03-15T16:01:54.000Z</time>
      </trkpt>
      <trkpt lat="48.86076" lon="2.36722">
        <ele>83.53</ele>
        <time>2020-03-15T16:01:55.000Z</time>
      </trkpt>
      <trkpt lat="48.86073" lon="2.36723">
        <ele>83.52</ele>
        <time>2020-03-15T16:01:56.000Z</time>
      </trkpt>
      <trkpt lat="48.86069" lon="2.36724">
        <ele>83.51</ele>
        <time>2020-03-15T16:01:57.000Z</time>
      </trkpt>
      <trkpt lat="48.86067" lon="2.36725">
        <ele>83.5</ele>
        <time>2020-03-15T16:01:58.000Z</time>
      </trkpt>
      <trkpt lat="48.86064" lon="2.36725">
        <ele>83.47</ele>
        <time>2020-03-15T16:01:59.000Z</time>
      </trkpt>
      <trkpt lat="48.86061" lon="2.36726">
        <ele>83.46</ele>
        <time>2020-03-15T16:02:00.000Z</time>
      </trkpt>
      <trkpt lat="48.86058" lon="2.36727">
        <ele>83.44</ele>
        <time>2020-03-15T16:02:01.000Z</time>
      </trkpt>
      <trkpt lat="48.86055" lon="2.36728">
        <ele>83.43</ele>
        <time>2020-03-15T16:02:02.000Z</time>
      </trkpt>
      <trkpt lat="48.86052" lon="2.3673">
        <ele>83.39</ele>
        <time>2020-03-15T16:02:03.000Z</time>
      </trkpt>
      <trkpt lat="48.86049" lon="2.36732">
        <ele>83.36</ele>
        <time>2020-03-15T16:02:04.000Z</time>
      </trkpt>
      <trkpt lat="48.86045" lon="2.36734">
        <ele>83.29</ele>
        <time>2020-03-15T16:02:05.000Z</time>
      </trkpt>
      <trkpt lat="48.86042" lon="2.36736">
        <ele>83.22</ele>
        <time>2020-03-15T16:02:06.000Z</time>
      </trkpt>
      <trkpt lat="48.86038" lon="2.36738">
        <ele>83.2</ele>
        <time>2020-03-15T16:02:07.000Z</time>
      </trkpt>
      <trkpt lat="48.86035" lon="2.36739">
        <ele>83.16</ele>
        <time>2020-03-15T16:02:08.000Z</time>
      </trkpt>
      <trkpt lat="48.86033" lon="2.36741">
        <ele>83.11</ele>
        <time>2020-03-15T16:02:09.000Z</time>
      </trkpt>
      <trkpt lat="48.86029" lon="2.36741">
        <ele>83.06</ele>
        <time>2020-03-15T16:02:10.000Z</time>
      </trkpt>
      <trkpt lat="48.86024" lon="2.36741">
        <ele>83.01</ele>
        <time>2020-03-15T16:02:11.000Z</time>
      </trkpt>
      <trkpt lat="48.86021" lon="2.36741">
        <ele>82.96</ele>
        <time>2020-03-15T16:02:12.000Z</time>
      </trkpt>
      <trkpt lat="48.86017" lon="2.36741">
        <ele>82.92</ele>
        <time>2020-03-15T16:02:13.000Z</time>
      </trkpt>
      <trkpt lat="48.86013" lon="2.36741">
        <ele>82.88</ele>
        <time>2020-03-15T16:02:14.000Z</time>
      </trkpt>
      <trkpt lat="48.8601" lon="2.36741">
        <ele>82.83</ele>
        <time>2020-03-15T16:02:15.000Z</time>
      </trkpt>
      <trkpt lat="48.86006" lon="2.36741">
        <ele>82.4</ele>
        <time>2020-03-15T16:02:16.000Z</time>
      </trkpt>
      <trkpt lat="48.86002" lon="2.36742">
        <ele>82.35</ele>
        <time>2020-03-15T16:02:17.000Z</time>
      </trkpt>
      <trkpt lat="48.85998" lon="2.36743">
        <ele>82.29</ele>
        <time>2020-03-15T16:02:18.000Z</time>
      </trkpt>
      <trkpt lat="48.85994" lon="2.36743">
        <ele>81.65</ele>
        <time>2020-03-15T16:02:19.000Z</time>
      </trkpt>
      <trkpt lat="48.8599" lon="2.36744">
        <ele>81.07</ele>
        <time>2020-03-15T16:02:20.000Z</time>
      </trkpt>
      <trkpt lat="48.85985" lon="2.36744">
        <ele>80.61</ele>
        <time>2020-03-15T16:02:21.000Z</time>
      </trkpt>
      <trkpt lat="48.8598" lon="2.36747">
        <ele>80.18</ele>
        <time>2020-03-15T16:02:22.000Z</time>
      </trkpt>
      <trkpt lat="48.85976" lon="2.36749">
        <ele>80.13</ele>
        <time>2020-03-15T16:02:23.000Z</time>
      </trkpt>
      <trkpt lat="48.85972" lon="2.36749">
        <ele>80.09</ele>
        <time>2020-03-15T16:02:24.000Z</time>
      </trkpt>
      <trkpt lat="48.85968" lon="2.3675">
        <ele>80.03</ele>
        <time>2020-03-15T16:02:25.000Z</time>
      </trkpt>
      <trkpt lat="48.85964" lon="2.3675">
        <ele>80.04</ele>
        <time>2020-03-15T16:02:26.000Z</time>
      </trkpt>
      <trkpt lat="48.8596" lon="2.36751">
        <ele>80.01</ele>
        <time>2020-03-15T16:02:27.000Z</time>
      </trkpt>
      <trkpt lat="48.85956" lon="2.36751">
        <ele>80.01</ele>
        <time>2020-03-15T16:02:28.000Z</time>
      </trkpt>
      <trkpt lat="48.85953" lon="2.36752">
        <ele>79.97</ele>
        <time>2020-03-15T16:02:29.000Z</time>
      </trkpt>
      <trkpt lat="48.85949" lon="2.36752">
        <ele>79.91</ele>
        <time>2020-03-15T16:02:30.000Z</time>
      </trkpt>
      <trkpt lat="48.85945" lon="2.36753">
        <ele>79.84</ele>
        <time>2020-03-15T16:02:31.000Z</time>
      </trkpt>
      <trkpt lat="48.85941" lon="2.36754">
        <ele>79.72</ele>
        <time>2020-03-15T16:02:32.000Z</time>
      </trkpt>
      <trkpt lat="48.85937" lon="2.36755">
        <ele>78.76</ele>
        <time>2020-03-15T16:02:33.000Z</time>
      </trkpt>
      <trkpt lat="48.85933" lon="2.36758">
        <ele>77.73</ele>
        <time>2020-03-15T16:02:34.000Z</time>
      </trkpt>
      <trkpt lat="48.85929" lon="2.36759">
        <ele>77.12</ele>
        <time>2020-03-15T16:02:35.000Z</time>
      </trkpt>
      <trkpt lat="48.85925" lon="2.3676">
        <ele>77.04</ele>
        <time>2020-03-15T16:02:36.000Z</time>
      </trkpt>
      <trkpt lat="48.85921" lon="2.36762">
        <ele>76.9</ele>
        <time>2020-03-15T16:02:37.000Z</time>
      </trkpt>
      <trkpt lat="48.85917" lon="2.36763">
        <ele>76.73</ele>
        <time>2020-03-15T16:02:38.000Z</time>
      </trkpt>
      <trkpt lat="48.85913" lon="2.36764">
        <ele>76.67</ele>
        <time>2020-03-15T16:02:39.000Z</time>
      </trkpt>
      <trkpt lat="48.85908" lon="2.36765">
        <ele>76.15</ele>
        <time>2020-03-15T16:02:40.000Z</time>
      </trkpt>
      <trkpt lat="48.85903" lon="2.36765">
        <ele>75.94</ele>
        <time>2020-03-15T16:02:41.000Z</time>
      </trkpt>
      <trkpt lat="48.85899" lon="2.36765">
        <ele>75.92</ele>
        <time>2020-03-15T16:02:42.000Z</time>
      </trkpt>
      <trkpt lat="48.85894" lon="2.36766">
        <ele>75.65</ele>
        <time>2020-03-15T16:02:43.000Z</time>
      </trkpt>
      <trkpt lat="48.8589" lon="2.36767">
        <ele>75.39</ele>
        <time>2020-03-15T16:02:44.000Z</time>
      </trkpt>
      <trkpt lat="48.85886" lon="2.36769">
        <ele>75.17</ele>
        <time>2020-03-15T16:02:45.000Z</time>
      </trkpt>
      <trkpt lat="48.85881" lon="2.36772">
        <ele>74.52</ele>
        <time>2020-03-15T16:02:46.000Z</time>
      </trkpt>
      <trkpt lat="48.85876" lon="2.36773">
        <ele>73.73</ele>
        <time>2020-03-15T16:02:47.000Z</time>
      </trkpt>
      <trkpt lat="48.85872" lon="2.36774">
        <ele>73.47</ele>
        <time>2020-03-15T16:02:48.000Z</time>
      </trkpt>
      <trkpt lat="48.85867" lon="2.36774">
        <ele>73.46</ele>
        <time>2020-03-15T16:02:49.000Z</time>
      </trkpt>
      <trkpt lat="48.85862" lon="2.36775">
        <ele>73.21</ele>
        <time>2020-03-15T16:02:50.000Z</time>
      </trkpt>
      <trkpt lat="48.85857" lon="2.36775">
        <ele>72.97</ele>
        <time>2020-03-15T16:02:51.000Z</time>
      </trkpt>
      <trkpt lat="48.85853" lon="2.36776">
        <ele>73.34</ele>
        <time>2020-03-15T16:02:52.000Z</time>
      </trkpt>
      <trkpt lat="48.85849" lon="2.36777">
        <ele>73.67</ele>
        <time>2020-03-15T16:02:53.000Z</time>
      </trkpt>
      <trkpt lat="48.85844" lon="2.36778">
        <ele>73.77</ele>
        <time>2020-03-15T16:02:54.000Z</time>
      </trkpt>
      <trkpt lat="48.85841" lon="2.36779">
        <ele>73.8</ele>
        <time>2020-03-15T16:02:55.000Z</time>
      </trkpt>
      <trkpt lat="48.85837" lon="2.3678">
        <ele>73.84</ele>
        <time>2020-03-15T16:02:56.000Z</time>
      </trkpt>
      <trkpt lat="48.85833" lon="2.3678">
        <ele>73.88</ele>
        <time>2020-03-15T16:02:57.000Z</time>
      </trkpt>
      <trkpt lat="48.85829" lon="2.3678">
        <ele>73.92</ele>
        <time>2020-03-15T16:02:58.000Z</time>
      </trkpt>
      <trkpt lat="48.85825" lon="2.36781">
        <ele>73.91</ele>
        <time>2020-03-15T16:02:59.000Z</time>
      </trkpt>
      <trkpt lat="48.8582" lon="2.36782">
        <ele>73.38</ele>
        <time>2020-03-15T16:03:00.000Z</time>
      </trkpt>
      <trkpt lat="48.85815" lon="2.36783">
        <ele>72.52</ele>
        <time>2020-03-15T16:03:01.000Z</time>
      </trkpt>
      <trkpt lat="48.85811" lon="2.36784">
        <ele>72.26</ele>
        <time>2020-03-15T16:03:02.000Z</time>
      </trkpt>
      <trkpt lat="48.85806" lon="2.36784">
        <ele>71.97</ele>
        <time>2020-03-15T16:03:03.000Z</time>
      </trkpt>
      <trkpt lat="48.85801" lon="2.36785">
        <ele>71.48</ele>
        <time>2020-03-15T16:03:04.000Z</time>
      </trkpt>
      <trkpt lat="48.85796" lon="2.36787">
        <ele>70.44</ele>
        <time>2020-03-15T16:03:05.000Z</time>
      </trkpt>
      <trkpt lat="48.85791" lon="2.36788">
        <ele>70.28</ele>
        <time>2020-03-15T16:03:06.000Z</time>
      </trkpt>
      <trkpt lat="48.85787" lon="2.36789">
        <ele>69.78</ele>
        <time>2020-03-15T16:03:07.000Z</time>
      </trkpt>
      <trkpt lat="48.85782" lon="2.3679">
        <ele>70.41</ele>
        <time>2020-03-15T16:03:08.000Z</time>
      </trkpt>
      <trkpt lat="48.85777" lon="2.36791">
        <ele>71.23</ele>
        <time>2020-03-15T16:03:09.000Z</time>
      </trkpt>
      <trkpt lat="48.8577" lon="2.36792">
        <ele>71.18</ele>
        <time>2020-03-15T16:03:10.000Z</time>
      </trkpt>
      <trkpt lat="48.85764" lon="2.36794">
        <ele>70.77</ele>
        <time>2020-03-15T16:03:11.000Z</time>
      </trkpt>
      <trkpt lat="48.8576" lon="2.36796">
        <ele>71.31</ele>
        <time>2020-03-15T16:03:12.000Z</time>
      </trkpt>
      <trkpt lat="48.85755" lon="2.36798">
        <ele>71.53</ele>
        <time>2020-03-15T16:03:13.000Z</time>
      </trkpt>
      <trkpt lat="48.85751" lon="2.36799">
        <ele>71.71</ele>
        <time>2020-03-15T16:03:14.000Z</time>
      </trkpt>
      <trkpt lat="48.85745" lon="2.368">
        <ele>71.39</ele>
        <time>2020-03-15T16:03:15.000Z</time>
      </trkpt>
      <trkpt lat="48.85741" lon="2.36801">
        <ele>71.35</ele>
        <time>2020-03-15T16:03:16.000Z</time>
      </trkpt>
      <trkpt lat="48.85737" lon="2.36801">
        <ele>71.3</ele>
        <time>2020-03-15T16:03:17.000Z</time>
      </trkpt>
      <trkpt lat="48.85733" lon="2.36801">
        <ele>71.24</ele>
        <time>2020-03-15T16:03:18.000Z</time>
      </trkpt>
      <trkpt lat="48.8573" lon="2.36802">
        <ele>71.19</ele>
        <time>2020-03-15T16:03:19.000Z</time>
      </trkpt>
      <trkpt lat="48.85725" lon="2.36803">
        <ele>71.11</ele>
        <time>2020-03-15T16:03:20.000Z</time>
      </trkpt>
      <trkpt lat="48.85722" lon="2.36804">
        <ele>70.54</ele>
        <time>2020-03-15T16:03:21.000Z</time>
      </trkpt>
      <trkpt lat="48.85717" lon="2.36805">
        <ele>70.98</ele>
        <time>2020-03-15T16:03:22.000Z</time>
      </trkpt>
      <trkpt lat="48.85713" lon="2.36805">
        <ele>71.69</ele>
        <time>2020-03-15T16:03:23.000Z</time>
      </trkpt>
      <trkpt lat="48.8571" lon="2.36807">
        <ele>71.75</ele>
        <time>2020-03-15T16:03:24.000Z</time>
      </trkpt>
      <trkpt lat="48.85707" lon="2.36808">
        <ele>71.8</ele>
        <time>2020-03-15T16:03:25.000Z</time>
      </trkpt>
      <trkpt lat="48.85702" lon="2.36809">
        <ele>71.75</ele>
        <time>2020-03-15T16:03:26.000Z</time>
      </trkpt>
      <trkpt lat="48.85698" lon="2.3681">
        <ele>71.83</ele>
        <time>2020-03-15T16:03:27.000Z</time>
      </trkpt>
      <trkpt lat="48.85694" lon="2.3681">
        <ele>72.39</ele>
        <time>2020-03-15T16:03:28.000Z</time>
      </trkpt>
      <trkpt lat="48.85689" lon="2.36812">
        <ele>72.29</ele>
        <time>2020-03-15T16:03:29.000Z</time>
      </trkpt>
      <trkpt lat="48.85684" lon="2.36814">
        <ele>72.46</ele>
        <time>2020-03-15T16:03:30.000Z</time>
      </trkpt>
      <trkpt lat="48.8568" lon="2.36815">
        <ele>72.96</ele>
        <time>2020-03-15T16:03:31.000Z</time>
      </trkpt>
      <trkpt lat="48.85676" lon="2.36818">
        <ele>72.89</ele>
        <time>2020-03-15T16:03:32.000Z</time>
      </trkpt>
      <trkpt lat="48.8567" lon="2.3682">
        <ele>72.81</ele>
        <time>2020-03-15T16:03:33.000Z</time>
      </trkpt>
      <trkpt lat="48.85666" lon="2.36821">
        <ele>72.74</ele>
        <time>2020-03-15T16:03:34.000Z</time>
      </trkpt>
      <trkpt lat="48.85662" lon="2.36821">
        <ele>72.77</ele>
        <time>2020-03-15T16:03:35.000Z</time>
      </trkpt>
      <trkpt lat="48.85658" lon="2.3682">
        <ele>72.84</ele>
        <time>2020-03-15T16:03:36.000Z</time>
      </trkpt>
      <trkpt lat="48.85654" lon="2.36821">
        <ele>72.87</ele>
        <time>2020-03-15T16:03:37.000Z</time>
      </trkpt>
      <trkpt lat="48.8565" lon="2.36822">
        <ele>72.89</ele>
        <time>2020-03-15T16:03:38.000Z</time>
      </trkpt>
      <trkpt lat="48.85648" lon="2.36821">
        <ele>72.93</ele>
        <time>2020-03-15T16:03:39.000Z</time>
      </trkpt>
      <trkpt lat="48.85644" lon="2.36822">
        <ele>72.96</ele>
        <time>2020-03-15T16:03:40.000Z</time>
      </trkpt>
      <trkpt lat="48.8564" lon="2.36823">
        <ele>72.98</ele>
        <time>2020-03-15T16:03:41.000Z</time>
      </trkpt>
      <trkpt lat="48.85634" lon="2.36824">
        <ele>72.7</ele>
        <time>2020-03-15T16:03:42.000Z</time>
      </trkpt>
      <trkpt lat="48.8563" lon="2.36826">
        <ele>72.29</ele>
        <time>2020-03-15T16:03:43.000Z</time>
      </trkpt>
      <trkpt lat="48.85627" lon="2.36827">
        <ele>72.29</ele>
        <time>2020-03-15T16:03:44.000Z</time>
      </trkpt>
      <trkpt lat="48.85623" lon="2.36829">
        <ele>72.22</ele>
        <time>2020-03-15T16:03:45.000Z</time>
      </trkpt>
      <trkpt lat="48.85619" lon="2.36829">
        <ele>72.28</ele>
        <time>2020-03-15T16:03:46.000Z</time>
      </trkpt>
      <trkpt lat="48.85615" lon="2.3683">
        <ele>72.33</ele>
        <time>2020-03-15T16:03:47.000Z</time>
      </trkpt>
      <trkpt lat="48.85611" lon="2.36831">
        <ele>72.48</ele>
        <time>2020-03-15T16:03:48.000Z</time>
      </trkpt>
      <trkpt lat="48.85606" lon="2.36833">
        <ele>72.45</ele>
        <time>2020-03-15T16:03:49.000Z</time>
      </trkpt>
      <trkpt lat="48.85601" lon="2.36834">
        <ele>72.49</ele>
        <time>2020-03-15T16:03:50.000Z</time>
      </trkpt>
      <trkpt lat="48.85596" lon="2.36834">
        <ele>72.5</ele>
        <time>2020-03-15T16:03:51.000Z</time>
      </trkpt>
      <trkpt lat="48.85592" lon="2.36836">
        <ele>72.48</ele>
        <time>2020-03-15T16:03:52.000Z</time>
      </trkpt>
      <trkpt lat="48.85587" lon="2.36837">
        <ele>72.5</ele>
        <time>2020-03-15T16:03:53.000Z</time>
      </trkpt>
      <trkpt lat="48.85583" lon="2.36837">
        <ele>72.57</ele>
        <time>2020-03-15T16:03:54.000Z</time>
      </trkpt>
      <trkpt lat="48.8558" lon="2.36838">
        <ele>72.66</ele>
        <time>2020-03-15T16:03:55.000Z</time>
      </trkpt>
      <trkpt lat="48.85576" lon="2.36839">
        <ele>72.78</ele>
        <time>2020-03-15T16:03:56.000Z</time>
      </trkpt>
      <trkpt lat="48.85571" lon="2.36841">
        <ele>72.86</ele>
        <time>2020-03-15T16:03:57.000Z</time>
      </trkpt>
      <trkpt lat="48.85566" lon="2.36841">
        <ele>72.9</ele>
        <time>2020-03-15T16:03:58.000Z</time>
      </trkpt>
      <trkpt lat="48.85561" lon="2.36842">
        <ele>72.97</ele>
        <time>2020-03-15T16:03:59.000Z</time>
      </trkpt>
      <trkpt lat="48.85557" lon="2.36842">
        <ele>73.07</ele>
        <time>2020-03-15T16:04:00.000Z</time>
      </trkpt>
      <trkpt lat="48.85553" lon="2.36843">
        <ele>73.17</ele>
        <time>2020-03-15T16:04:01.000Z</time>
      </trkpt>
      <trkpt lat="48.85548" lon="2.36846">
        <ele>73.26</ele>
        <time>2020-03-15T16:04:02.000Z</time>
      </trkpt>
      <trkpt lat="48.85544" lon="2.36847">
        <ele>73.37</ele>
        <time>2020-03-15T16:04:03.000Z</time>
      </trkpt>
      <trkpt lat="48.85539" lon="2.3685">
        <ele>73.48</ele>
        <time>2020-03-15T16:04:04.000Z</time>
      </trkpt>
      <trkpt lat="48.85533" lon="2.36851">
        <ele>74.69</ele>
        <time>2020-03-15T16:04:05.000Z</time>
      </trkpt>
      <trkpt lat="48.85528" lon="2.36854">
        <ele>74.78</ele>
        <time>2020-03-15T16:04:06.000Z</time>
      </trkpt>
      <trkpt lat="48.85523" lon="2.36856">
        <ele>75.84</ele>
        <time>2020-03-15T16:04:07.000Z</time>
      </trkpt>
      <trkpt lat="48.85518" lon="2.36856">
        <ele>76.77</ele>
        <time>2020-03-15T16:04:08.000Z</time>
      </trkpt>
      <trkpt lat="48.85513" lon="2.36859">
        <ele>76.83</ele>
        <time>2020-03-15T16:04:09.000Z</time>
      </trkpt>
      <trkpt lat="48.85507" lon="2.36861">
        <ele>76.91</ele>
        <time>2020-03-15T16:04:10.000Z</time>
      </trkpt>
      <trkpt lat="48.85502" lon="2.36862">
        <ele>77.01</ele>
        <time>2020-03-15T16:04:11.000Z</time>
      </trkpt>
      <trkpt lat="48.85497" lon="2.36864">
        <ele>77.11</ele>
        <time>2020-03-15T16:04:12.000Z</time>
      </trkpt>
      <trkpt lat="48.85492" lon="2.36861">
        <ele>77.16</ele>
        <time>2020-03-15T16:04:13.000Z</time>
      </trkpt>
      <trkpt lat="48.85488" lon="2.36861">
        <ele>77.21</ele>
        <time>2020-03-15T16:04:14.000Z</time>
      </trkpt>
      <trkpt lat="48.85485" lon="2.36861">
        <ele>77.28</ele>
        <time>2020-03-15T16:04:15.000Z</time>
      </trkpt>
      <trkpt lat="48.85481" lon="2.36863">
        <ele>77.35</ele>
        <time>2020-03-15T16:04:16.000Z</time>
      </trkpt>
      <trkpt lat="48.85476" lon="2.36862">
        <ele>77.44</ele>
        <time>2020-03-15T16:04:17.000Z</time>
      </trkpt>
      <trkpt lat="48.85471" lon="2.36863">
        <ele>77.51</ele>
        <time>2020-03-15T16:04:18.000Z</time>
      </trkpt>
      <trkpt lat="48.85465" lon="2.36862">
        <ele>77.58</ele>
        <time>2020-03-15T16:04:19.000Z</time>
      </trkpt>
      <trkpt lat="48.8546" lon="2.36862">
        <ele>77.67</ele>
        <time>2020-03-15T16:04:20.000Z</time>
      </trkpt>
      <trkpt lat="48.85454" lon="2.36863">
        <ele>77.75</ele>
        <time>2020-03-15T16:04:21.000Z</time>
      </trkpt>
      <trkpt lat="48.8545" lon="2.36867">
        <ele>77.76</ele>
        <time>2020-03-15T16:04:22.000Z</time>
      </trkpt>
      <trkpt lat="48.85445" lon="2.36868">
        <ele>77.79</ele>
        <time>2020-03-15T16:04:23.000Z</time>
      </trkpt>
      <trkpt lat="48.85441" lon="2.3687">
        <ele>77.84</ele>
        <time>2020-03-15T16:04:24.000Z</time>
      </trkpt>
      <trkpt lat="48.85437" lon="2.36872">
        <ele>77.9</ele>
        <time>2020-03-15T16:04:25.000Z</time>
      </trkpt>
      <trkpt lat="48.85432" lon="2.36873">
        <ele>77.95</ele>
        <time>2020-03-15T16:04:26.000Z</time>
      </trkpt>
      <trkpt lat="48.85428" lon="2.36874">
        <ele>77.94</ele>
        <time>2020-03-15T16:04:27.000Z</time>
      </trkpt>
      <trkpt lat="48.85423" lon="2.36876">
        <ele>77.85</ele>
        <time>2020-03-15T16:04:28.000Z</time>
      </trkpt>
      <trkpt lat="48.85418" lon="2.36879">
        <ele>77.72</ele>
        <time>2020-03-15T16:04:29.000Z</time>
      </trkpt>
      <trkpt lat="48.85412" lon="2.36879">
        <ele>77.43</ele>
        <time>2020-03-15T16:04:30.000Z</time>
      </trkpt>
      <trkpt lat="48.85407" lon="2.36881">
        <ele>78.13</ele>
        <time>2020-03-15T16:04:31.000Z</time>
      </trkpt>
      <trkpt lat="48.85403" lon="2.36882">
        <ele>78.4</ele>
        <time>2020-03-15T16:04:32.000Z</time>
      </trkpt>
      <trkpt lat="48.85398" lon="2.36882">
        <ele>78.73</ele>
        <time>2020-03-15T16:04:33.000Z</time>
      </trkpt>
      <trkpt lat="48.85394" lon="2.36883">
        <ele>78.72</ele>
        <time>2020-03-15T16:04:34.000Z</time>
      </trkpt>
      <trkpt lat="48.8539" lon="2.36884">
        <ele>78.69</ele>
        <time>2020-03-15T16:04:35.000Z</time>
      </trkpt>
      <trkpt lat="48.85386" lon="2.36885">
        <ele>78.63</ele>
        <time>2020-03-15T16:04:36.000Z</time>
      </trkpt>
      <trkpt lat="48.85382" lon="2.36882">
        <ele>78.59</ele>
        <time>2020-03-15T16:04:37.000Z</time>
      </trkpt>
      <trkpt lat="48.85378" lon="2.36881">
        <ele>78.47</ele>
        <time>2020-03-15T16:04:38.000Z</time>
      </trkpt>
      <trkpt lat="48.85374" lon="2.36877">
        <ele>78.35</ele>
        <time>2020-03-15T16:04:39.000Z</time>
      </trkpt>
      <trkpt lat="48.85372" lon="2.36875">
        <ele>78.31</ele>
        <time>2020-03-15T16:04:40.000Z</time>
      </trkpt>
      <trkpt lat="48.8537" lon="2.36872">
        <ele>78.29</ele>
        <time>2020-03-15T16:04:41.000Z</time>
      </trkpt>
      <trkpt lat="48.85368" lon="2.36869">
        <ele>78.27</ele>
        <time>2020-03-15T16:04:42.000Z</time>
      </trkpt>
      <trkpt lat="48.85367" lon="2.36869">
        <ele>78.36</ele>
        <time>2020-03-15T16:04:45.000Z</time>
      </trkpt>
      <trkpt lat="48.85366" lon="2.3687">
        <ele>78.48</ele>
        <time>2020-03-15T16:04:47.000Z</time>
      </trkpt>
      <trkpt lat="48.85365" lon="2.3687">
        <ele>78.55</ele>
        <time>2020-03-15T16:04:48.000Z</time>
      </trkpt>
      <trkpt lat="48.85364" lon="2.36872">
        <ele>78.62</ele>
        <time>2020-03-15T16:04:50.000Z</time>
      </trkpt>
      <trkpt lat="48.85365" lon="2.36873">
        <ele>79.05</ele>
        <time>2020-03-15T16:05:05.000Z</time>
      </trkpt>
      <trkpt lat="48.85364" lon="2.36873">
        <ele>79.49</ele>
        <time>2020-03-15T16:05:22.000Z</time>
      </trkpt>
      <trkpt lat="48.85363" lon="2.36873">
        <ele>79.64</ele>
        <time>2020-03-15T16:05:33.000Z</time>
      </trkpt>
      <trkpt lat="48.85362" lon="2.36874">
        <ele>80.03</ele>
        <time>2020-03-15T16:05:43.000Z</time>
      </trkpt>
      <trkpt lat="48.85363" lon="2.36876">
        <ele>80.75</ele>
        <time>2020-03-15T16:05:52.000Z</time>
      </trkpt>
      <trkpt lat="48.85364" lon="2.36877">
        <ele>81.08</ele>
        <time>2020-03-15T16:05:56.000Z</time>
      </trkpt>
      <trkpt lat="48.85365" lon="2.36876">
        <ele>81.95</ele>
        <time>2020-03-15T16:06:32.000Z</time>
      </trkpt>
      <trkpt lat="48.85366" lon="2.36875">
        <ele>82.09</ele>
        <time>2020-03-15T16:06:34.000Z</time>
      </trkpt>
      <trkpt lat="48.85366" lon="2.36873">
        <ele>82.29</ele>
        <time>2020-03-15T16:06:38.000Z</time>
      </trkpt>
      <trkpt lat="48.85364" lon="2.3687">
        <ele>82.44</ele>
        <time>2020-03-15T16:06:39.000Z</time>
      </trkpt>
      <trkpt lat="48.85364" lon="2.36869">
        <ele>82.59</ele>
        <time>2020-03-15T16:06:40.000Z</time>
      </trkpt>
      <trkpt lat="48.85364" lon="2.3687">
        <ele>83.45</ele>
        <time>2020-03-15T16:06:57.000Z</time>
      </trkpt>
      <trkpt lat="48.85365" lon="2.36868">
        <ele>83.9</ele>
        <time>2020-03-15T16:07:01.000Z</time>
      </trkpt>
      <trkpt lat="48.85364" lon="2.36869">
        <ele>84.44</ele>
        <time>2020-03-15T16:07:08.000Z</time>
      </trkpt>
      <trkpt lat="48.85365" lon="2.36868">
        <ele>84.81</ele>
        <time>2020-03-15T16:07:14.000Z</time>
      </trkpt>
      <trkpt lat="48.85364" lon="2.36866">
        <ele>84.9</ele>
        <time>2020-03-15T16:07:16.000Z</time>
      </trkpt>
      <trkpt lat="48.85363" lon="2.36863">
        <ele>84.98</ele>
        <time>2020-03-15T16:07:18.000Z</time>
      </trkpt>
      <trkpt lat="48.85362" lon="2.36861">
        <ele>85.01</ele>
        <time>2020-03-15T16:07:19.000Z</time>
      </trkpt>
      <trkpt lat="48.85361" lon="2.36858">
        <ele>85.03</ele>
        <time>2020-03-15T16:07:20.000Z</time>
      </trkpt>
      <trkpt lat="48.8536" lon="2.36856">
        <ele>85.04</ele>
        <time>2020-03-15T16:07:21.000Z</time>
      </trkpt>
      <trkpt lat="48.85359" lon="2.36854">
        <ele>85.04</ele>
        <time>2020-03-15T16:07:22.000Z</time>
      </trkpt>
      <trkpt lat="48.85358" lon="2.36851">
        <ele>85.04</ele>
        <time>2020-03-15T16:07:23.000Z</time>
      </trkpt>
      <trkpt lat="48.85357" lon="2.36849">
        <ele>85.03</ele>
        <time>2020-03-15T16:07:24.000Z</time>
      </trkpt>
      <trkpt lat="48.85357" lon="2.36846">
        <ele>85.01</ele>
        <time>2020-03-15T16:07:25.000Z</time>
      </trkpt>
      <trkpt lat="48.85357" lon="2.36843">
        <ele>85.01</ele>
        <time>2020-03-15T16:07:26.000Z</time>
      </trkpt>
      <trkpt lat="48.85357" lon="2.36841">
        <ele>85.02</ele>
        <time>2020-03-15T16:07:27.000Z</time>
      </trkpt>
      <trkpt lat="48.85357" lon="2.36838">
        <ele>85.02</ele>
        <time>2020-03-15T16:07:28.000Z</time>
      </trkpt>
      <trkpt lat="48.85357" lon="2.36835">
        <ele>85.02</ele>
        <time>2020-03-15T16:07:29.000Z</time>
      </trkpt>
      <trkpt lat="48.85356" lon="2.36832">
        <ele>85.02</ele>
        <time>2020-03-15T16:07:30.000Z</time>
      </trkpt>
      <trkpt lat="48.85354" lon="2.3683">
        <ele>85</ele>
        <time>2020-03-15T16:07:31.000Z</time>
      </trkpt>
      <trkpt lat="48.85352" lon="2.36828">
        <ele>84.97</ele>
        <time>2020-03-15T16:07:32.000Z</time>
      </trkpt>
      <trkpt lat="48.8535" lon="2.36827">
        <ele>84.93</ele>
        <time>2020-03-15T16:07:33.000Z</time>
      </trkpt>
      <trkpt lat="48.85349" lon="2.36825">
        <ele>84.87</ele>
        <time>2020-03-15T16:07:34.000Z</time>
      </trkpt>
      <trkpt lat="48.85347" lon="2.36824">
        <ele>84.81</ele>
        <time>2020-03-15T16:07:35.000Z</time>
      </trkpt>
      <trkpt lat="48.85346" lon="2.36823">
        <ele>84.73</ele>
        <time>2020-03-15T16:07:36.000Z</time>
      </trkpt>
      <trkpt lat="48.85345" lon="2.36823">
        <ele>84.65</ele>
        <time>2020-03-15T16:07:37.000Z</time>
      </trkpt>
      <trkpt lat="48.85342" lon="2.36822">
        <ele>84.54</ele>
        <time>2020-03-15T16:07:38.000Z</time>
      </trkpt>
      <trkpt lat="48.8534" lon="2.36822">
        <ele>84.42</ele>
        <time>2020-03-15T16:07:39.000Z</time>
      </trkpt>
      <trkpt lat="48.85338" lon="2.36821">
        <ele>84.29</ele>
        <time>2020-03-15T16:07:40.000Z</time>
      </trkpt>
      <trkpt lat="48.85336" lon="2.36821">
        <ele>84.17</ele>
        <time>2020-03-15T16:07:41.000Z</time>
      </trkpt>
      <trkpt lat="48.85334" lon="2.36822">
        <ele>84.05</ele>
        <time>2020-03-15T16:07:42.000Z</time>
      </trkpt>
      <trkpt lat="48.85331" lon="2.36825">
        <ele>83.93</ele>
        <time>2020-03-15T16:07:43.000Z</time>
      </trkpt>
      <trkpt lat="48.85328" lon="2.36825">
        <ele>83.81</ele>
        <time>2020-03-15T16:07:44.000Z</time>
      </trkpt>
      <trkpt lat="48.85326" lon="2.36825">
        <ele>83.69</ele>
        <time>2020-03-15T16:07:45.000Z</time>
      </trkpt>
      <trkpt lat="48.85325" lon="2.36825">
        <ele>83.57</ele>
        <time>2020-03-15T16:07:46.000Z</time>
      </trkpt>
      <trkpt lat="48.85323" lon="2.36825">
        <ele>83.46</ele>
        <time>2020-03-15T16:07:47.000Z</time>
      </trkpt>
      <trkpt lat="48.85321" lon="2.36827">
        <ele>83.35</ele>
        <time>2020-03-15T16:07:48.000Z</time>
      </trkpt>
      <trkpt lat="48.8532" lon="2.3683">
        <ele>83.25</ele>
        <time>2020-03-15T16:07:49.000Z</time>
      </trkpt>
      <trkpt lat="48.85319" lon="2.36833">
        <ele>83.15</ele>
        <time>2020-03-15T16:07:50.000Z</time>
      </trkpt>
      <trkpt lat="48.85318" lon="2.36835">
        <ele>83.06</ele>
        <time>2020-03-15T16:07:51.000Z</time>
      </trkpt>
      <trkpt lat="48.85316" lon="2.36838">
        <ele>82.97</ele>
        <time>2020-03-15T16:07:52.000Z</time>
      </trkpt>
      <trkpt lat="48.85315" lon="2.36842">
        <ele>82.9</ele>
        <time>2020-03-15T16:07:53.000Z</time>
      </trkpt>
      <trkpt lat="48.85315" lon="2.36845">
        <ele>82.82</ele>
        <time>2020-03-15T16:07:54.000Z</time>
      </trkpt>
      <trkpt lat="48.85314" lon="2.36847">
        <ele>82.74</ele>
        <time>2020-03-15T16:07:55.000Z</time>
      </trkpt>
      <trkpt lat="48.85314" lon="2.36852">
        <ele>82.57</ele>
        <time>2020-03-15T16:07:57.000Z</time>
      </trkpt>
      <trkpt lat="48.85314" lon="2.36853">
        <ele>82.39</ele>
        <time>2020-03-15T16:08:00.000Z</time>
      </trkpt>
      <trkpt lat="48.85312" lon="2.36853">
        <ele>82.12</ele>
        <time>2020-03-15T16:08:07.000Z</time>
      </trkpt>
      <trkpt lat="48.85311" lon="2.36852">
        <ele>82.01</ele>
        <time>2020-03-15T16:08:08.000Z</time>
      </trkpt>
      <trkpt lat="48.8531" lon="2.36851">
        <ele>81.91</ele>
        <time>2020-03-15T16:08:09.000Z</time>
      </trkpt>
      <trkpt lat="48.85308" lon="2.36847">
        <ele>81.81</ele>
        <time>2020-03-15T16:08:10.000Z</time>
      </trkpt>
      <trkpt lat="48.85307" lon="2.36844">
        <ele>81.71</ele>
        <time>2020-03-15T16:08:11.000Z</time>
      </trkpt>
      <trkpt lat="48.85305" lon="2.36842">
        <ele>81.61</ele>
        <time>2020-03-15T16:08:12.000Z</time>
      </trkpt>
      <trkpt lat="48.85303" lon="2.3684">
        <ele>81.51</ele>
        <time>2020-03-15T16:08:13.000Z</time>
      </trkpt>
      <trkpt lat="48.85301" lon="2.36838">
        <ele>81.41</ele>
        <time>2020-03-15T16:08:14.000Z</time>
      </trkpt>
      <trkpt lat="48.85299" lon="2.36836">
        <ele>81.3</ele>
        <time>2020-03-15T16:08:15.000Z</time>
      </trkpt>
      <trkpt lat="48.85296" lon="2.36836">
        <ele>81.19</ele>
        <time>2020-03-15T16:08:16.000Z</time>
      </trkpt>
      <trkpt lat="48.85294" lon="2.36836">
        <ele>81.08</ele>
        <time>2020-03-15T16:08:17.000Z</time>
      </trkpt>
      <trkpt lat="48.8529" lon="2.36834">
        <ele>80.97</ele>
        <time>2020-03-15T16:08:18.000Z</time>
      </trkpt>
      <trkpt lat="48.85287" lon="2.36834">
        <ele>80.86</ele>
        <time>2020-03-15T16:08:19.000Z</time>
      </trkpt>
      <trkpt lat="48.85284" lon="2.36833">
        <ele>80.75</ele>
        <time>2020-03-15T16:08:20.000Z</time>
      </trkpt>
      <trkpt lat="48.85281" lon="2.36832">
        <ele>80.62</ele>
        <time>2020-03-15T16:08:21.000Z</time>
      </trkpt>
      <trkpt lat="48.85279" lon="2.36829">
        <ele>80.48</ele>
        <time>2020-03-15T16:08:22.000Z</time>
      </trkpt>
      <trkpt lat="48.85276" lon="2.36827">
        <ele>80.32</ele>
        <time>2020-03-15T16:08:23.000Z</time>
      </trkpt>
      <trkpt lat="48.85274" lon="2.36825">
        <ele>80.17</ele>
        <time>2020-03-15T16:08:24.000Z</time>
      </trkpt>
      <trkpt lat="48.85271" lon="2.36824">
        <ele>80.06</ele>
        <time>2020-03-15T16:08:25.000Z</time>
      </trkpt>
      <trkpt lat="48.85269" lon="2.36822">
        <ele>79.93</ele>
        <time>2020-03-15T16:08:26.000Z</time>
      </trkpt>
      <trkpt lat="48.85267" lon="2.3682">
        <ele>79.79</ele>
        <time>2020-03-15T16:08:27.000Z</time>
      </trkpt>
      <trkpt lat="48.85267" lon="2.36821">
        <ele>79.69</ele>
        <time>2020-03-15T16:08:28.000Z</time>
      </trkpt>
      <trkpt lat="48.85265" lon="2.36821">
        <ele>79.6</ele>
        <time>2020-03-15T16:08:29.000Z</time>
      </trkpt>
      <trkpt lat="48.85263" lon="2.36819">
        <ele>79.49</ele>
        <time>2020-03-15T16:08:30.000Z</time>
      </trkpt>
      <trkpt lat="48.85261" lon="2.36816">
        <ele>79.37</ele>
        <time>2020-03-15T16:08:31.000Z</time>
      </trkpt>
      <trkpt lat="48.8526" lon="2.36814">
        <ele>79.24</ele>
        <time>2020-03-15T16:08:32.000Z</time>
      </trkpt>
      <trkpt lat="48.85258" lon="2.36812">
        <ele>79.12</ele>
        <time>2020-03-15T16:08:33.000Z</time>
      </trkpt>
      <trkpt lat="48.85257" lon="2.3681">
        <ele>79</ele>
        <time>2020-03-15T16:08:34.000Z</time>
      </trkpt>
      <trkpt lat="48.85255" lon="2.36809">
        <ele>78.89</ele>
        <time>2020-03-15T16:08:35.000Z</time>
      </trkpt>
      <trkpt lat="48.85253" lon="2.36807">
        <ele>78.8</ele>
        <time>2020-03-15T16:08:36.000Z</time>
      </trkpt>
      <trkpt lat="48.8525" lon="2.36805">
        <ele>78.7</ele>
        <time>2020-03-15T16:08:37.000Z</time>
      </trkpt>
      <trkpt lat="48.85247" lon="2.36803">
        <ele>78.59</ele>
        <time>2020-03-15T16:08:38.000Z</time>
      </trkpt>
      <trkpt lat="48.85245" lon="2.36802">
        <ele>78.51</ele>
        <time>2020-03-15T16:08:39.000Z</time>
      </trkpt>
      <trkpt lat="48.85242" lon="2.36799">
        <ele>78.39</ele>
        <time>2020-03-15T16:08:40.000Z</time>
      </trkpt>
      <trkpt lat="48.85239" lon="2.36797">
        <ele>78.27</ele>
        <time>2020-03-15T16:08:41.000Z</time>
      </trkpt>
      <trkpt lat="48.85237" lon="2.36796">
        <ele>78.12</ele>
        <time>2020-03-15T16:08:42.000Z</time>
      </trkpt>
      <trkpt lat="48.85234" lon="2.36794">
        <ele>77.96</ele>
        <time>2020-03-15T16:08:43.000Z</time>
      </trkpt>
      <trkpt lat="48.85232" lon="2.36792">
        <ele>77.81</ele>
        <time>2020-03-15T16:08:44.000Z</time>
      </trkpt>
      <trkpt lat="48.85229" lon="2.36791">
        <ele>77.63</ele>
        <time>2020-03-15T16:08:45.000Z</time>
      </trkpt>
      <trkpt lat="48.85226" lon="2.36789">
        <ele>77.47</ele>
        <time>2020-03-15T16:08:46.000Z</time>
      </trkpt>
      <trkpt lat="48.85222" lon="2.36788">
        <ele>77.27</ele>
        <time>2020-03-15T16:08:47.000Z</time>
      </trkpt>
      <trkpt lat="48.85218" lon="2.36787">
        <ele>77.09</ele>
        <time>2020-03-15T16:08:48.000Z</time>
      </trkpt>
      <trkpt lat="48.85214" lon="2.36786">
        <ele>76.94</ele>
        <time>2020-03-15T16:08:49.000Z</time>
      </trkpt>
      <trkpt lat="48.85212" lon="2.36785">
        <ele>76.82</ele>
        <time>2020-03-15T16:08:50.000Z</time>
      </trkpt>
      <trkpt lat="48.85208" lon="2.36783">
        <ele>76.69</ele>
        <time>2020-03-15T16:08:51.000Z</time>
      </trkpt>
      <trkpt lat="48.85205" lon="2.36781">
        <ele>76.59</ele>
        <time>2020-03-15T16:08:52.000Z</time>
      </trkpt>
      <trkpt lat="48.85202" lon="2.3678">
        <ele>76.46</ele>
        <time>2020-03-15T16:08:53.000Z</time>
      </trkpt>
      <trkpt lat="48.85198" lon="2.36778">
        <ele>76.3</ele>
        <time>2020-03-15T16:08:54.000Z</time>
      </trkpt>
      <trkpt lat="48.85193" lon="2.36776">
        <ele>76.12</ele>
        <time>2020-03-15T16:08:55.000Z</time>
      </trkpt>
      <trkpt lat="48.8519" lon="2.36775">
        <ele>75.96</ele>
        <time>2020-03-15T16:08:56.000Z</time>
      </trkpt>
      <trkpt lat="48.85186" lon="2.36774">
        <ele>75.81</ele>
        <time>2020-03-15T16:08:57.000Z</time>
      </trkpt>
      <trkpt lat="48.85183" lon="2.36772">
        <ele>75.66</ele>
        <time>2020-03-15T16:08:58.000Z</time>
      </trkpt>
      <trkpt lat="48.8518" lon="2.36771">
        <ele>75.5</ele>
        <time>2020-03-15T16:08:59.000Z</time>
      </trkpt>
      <trkpt lat="48.85175" lon="2.36769">
        <ele>75.35</ele>
        <time>2020-03-15T16:09:00.000Z</time>
      </trkpt>
      <trkpt lat="48.85172" lon="2.36768">
        <ele>75.21</ele>
        <time>2020-03-15T16:09:01.000Z</time>
      </trkpt>
      <trkpt lat="48.85169" lon="2.36767">
        <ele>75.09</ele>
        <time>2020-03-15T16:09:02.000Z</time>
      </trkpt>
      <trkpt lat="48.85166" lon="2.36766">
        <ele>74.94</ele>
        <time>2020-03-15T16:09:03.000Z</time>
      </trkpt>
      <trkpt lat="48.85162" lon="2.36765">
        <ele>74.78</ele>
        <time>2020-03-15T16:09:04.000Z</time>
      </trkpt>
      <trkpt lat="48.85158" lon="2.36763">
        <ele>73.39</ele>
        <time>2020-03-15T16:09:05.000Z</time>
      </trkpt>
      <trkpt lat="48.85153" lon="2.36761">
        <ele>72.12</ele>
        <time>2020-03-15T16:09:06.000Z</time>
      </trkpt>
      <trkpt lat="48.85149" lon="2.3676">
        <ele>72.03</ele>
        <time>2020-03-15T16:09:07.000Z</time>
      </trkpt>
      <trkpt lat="48.85146" lon="2.36759">
        <ele>71.95</ele>
        <time>2020-03-15T16:09:08.000Z</time>
      </trkpt>
      <trkpt lat="48.85143" lon="2.36758">
        <ele>71.84</ele>
        <time>2020-03-15T16:09:09.000Z</time>
      </trkpt>
      <trkpt lat="48.85139" lon="2.36756">
        <ele>71.75</ele>
        <time>2020-03-15T16:09:10.000Z</time>
      </trkpt>
      <trkpt lat="48.85135" lon="2.36753">
        <ele>71.68</ele>
        <time>2020-03-15T16:09:11.000Z</time>
      </trkpt>
      <trkpt lat="48.85132" lon="2.36751">
        <ele>71.58</ele>
        <time>2020-03-15T16:09:12.000Z</time>
      </trkpt>
      <trkpt lat="48.85129" lon="2.3675">
        <ele>71.46</ele>
        <time>2020-03-15T16:09:13.000Z</time>
      </trkpt>
      <trkpt lat="48.85125" lon="2.36748">
        <ele>71.34</ele>
        <time>2020-03-15T16:09:14.000Z</time>
      </trkpt>
      <trkpt lat="48.85122" lon="2.36747">
        <ele>71.23</ele>
        <time>2020-03-15T16:09:15.000Z</time>
      </trkpt>
      <trkpt lat="48.85119" lon="2.36746">
        <ele>71.09</ele>
        <time>2020-03-15T16:09:16.000Z</time>
      </trkpt>
      <trkpt lat="48.85117" lon="2.36744">
        <ele>70.98</ele>
        <time>2020-03-15T16:09:17.000Z</time>
      </trkpt>
      <trkpt lat="48.85114" lon="2.36743">
        <ele>70.84</ele>
        <time>2020-03-15T16:09:18.000Z</time>
      </trkpt>
      <trkpt lat="48.85112" lon="2.36742">
        <ele>70.72</ele>
        <time>2020-03-15T16:09:19.000Z</time>
      </trkpt>
      <trkpt lat="48.85108" lon="2.3674">
        <ele>70.56</ele>
        <time>2020-03-15T16:09:20.000Z</time>
      </trkpt>
      <trkpt lat="48.85103" lon="2.36737">
        <ele>70.33</ele>
        <time>2020-03-15T16:09:21.000Z</time>
      </trkpt>
      <trkpt lat="48.85101" lon="2.36736">
        <ele>70.16</ele>
        <time>2020-03-15T16:09:22.000Z</time>
      </trkpt>
      <trkpt lat="48.85098" lon="2.36736">
        <ele>70.13</ele>
        <time>2020-03-15T16:09:23.000Z</time>
      </trkpt>
      <trkpt lat="48.85095" lon="2.36733">
        <ele>70.06</ele>
        <time>2020-03-15T16:09:24.000Z</time>
      </trkpt>
      <trkpt lat="48.85092" lon="2.36731">
        <ele>70</ele>
        <time>2020-03-15T16:09:25.000Z</time>
      </trkpt>
      <trkpt lat="48.85088" lon="2.36728">
        <ele>69.9</ele>
        <time>2020-03-15T16:09:26.000Z</time>
      </trkpt>
      <trkpt lat="48.85085" lon="2.36727">
        <ele>69.78</ele>
        <time>2020-03-15T16:09:27.000Z</time>
      </trkpt>
      <trkpt lat="48.85081" lon="2.36725">
        <ele>69.8</ele>
        <time>2020-03-15T16:09:28.000Z</time>
      </trkpt>
      <trkpt lat="48.85077" lon="2.36723">
        <ele>69.8</ele>
        <time>2020-03-15T16:09:29.000Z</time>
      </trkpt>
      <trkpt lat="48.85073" lon="2.36721">
        <ele>69.78</ele>
        <time>2020-03-15T16:09:30.000Z</time>
      </trkpt>
      <trkpt lat="48.85069" lon="2.36719">
        <ele>69.77</ele>
        <time>2020-03-15T16:09:31.000Z</time>
      </trkpt>
      <trkpt lat="48.85063" lon="2.36717">
        <ele>69.75</ele>
        <time>2020-03-15T16:09:32.000Z</time>
      </trkpt>
      <trkpt lat="48.85059" lon="2.36715">
        <ele>69.73</ele>
        <time>2020-03-15T16:09:33.000Z</time>
      </trkpt>
      <trkpt lat="48.85055" lon="2.36712">
        <ele>69.71</ele>
        <time>2020-03-15T16:09:34.000Z</time>
      </trkpt>
      <trkpt lat="48.85051" lon="2.3671">
        <ele>69.68</ele>
        <time>2020-03-15T16:09:35.000Z</time>
      </trkpt>
      <trkpt lat="48.85048" lon="2.36709">
        <ele>69.55</ele>
        <time>2020-03-15T16:09:36.000Z</time>
      </trkpt>
      <trkpt lat="48.85043" lon="2.36708">
        <ele>69.45</ele>
        <time>2020-03-15T16:09:37.000Z</time>
      </trkpt>
      <trkpt lat="48.85038" lon="2.36705">
        <ele>69.4</ele>
        <time>2020-03-15T16:09:38.000Z</time>
      </trkpt>
      <trkpt lat="48.85034" lon="2.36703">
        <ele>69.34</ele>
        <time>2020-03-15T16:09:39.000Z</time>
      </trkpt>
      <trkpt lat="48.85031" lon="2.36702">
        <ele>69.24</ele>
        <time>2020-03-15T16:09:40.000Z</time>
      </trkpt>
      <trkpt lat="48.85027" lon="2.367">
        <ele>68.57</ele>
        <time>2020-03-15T16:09:41.000Z</time>
      </trkpt>
      <trkpt lat="48.85023" lon="2.36697">
        <ele>68.07</ele>
        <time>2020-03-15T16:09:42.000Z</time>
      </trkpt>
      <trkpt lat="48.85019" lon="2.36695">
        <ele>68.05</ele>
        <time>2020-03-15T16:09:43.000Z</time>
      </trkpt>
      <trkpt lat="48.85014" lon="2.36693">
        <ele>68.02</ele>
        <time>2020-03-15T16:09:44.000Z</time>
      </trkpt>
      <trkpt lat="48.8501" lon="2.36691">
        <ele>67.99</ele>
        <time>2020-03-15T16:09:45.000Z</time>
      </trkpt>
      <trkpt lat="48.85006" lon="2.36689">
        <ele>67.97</ele>
        <time>2020-03-15T16:09:46.000Z</time>
      </trkpt>
      <trkpt lat="48.85003" lon="2.36687">
        <ele>67.95</ele>
        <time>2020-03-15T16:09:47.000Z</time>
      </trkpt>
      <trkpt lat="48.84999" lon="2.36685">
        <ele>67.93</ele>
        <time>2020-03-15T16:09:48.000Z</time>
      </trkpt>
      <trkpt lat="48.84996" lon="2.36684">
        <ele>67.91</ele>
        <time>2020-03-15T16:09:49.000Z</time>
      </trkpt>
      <trkpt lat="48.84993" lon="2.36682">
        <ele>67.88</ele>
        <time>2020-03-15T16:09:50.000Z</time>
      </trkpt>
      <trkpt lat="48.8499" lon="2.36681">
        <ele>67.86</ele>
        <time>2020-03-15T16:09:51.000Z</time>
      </trkpt>
      <trkpt lat="48.84987" lon="2.36679">
        <ele>67.82</ele>
        <time>2020-03-15T16:09:52.000Z</time>
      </trkpt>
      <trkpt lat="48.84983" lon="2.36677">
        <ele>67.77</ele>
        <time>2020-03-15T16:09:53.000Z</time>
      </trkpt>
      <trkpt lat="48.84978" lon="2.36676">
        <ele>67.69</ele>
        <time>2020-03-15T16:09:54.000Z</time>
      </trkpt>
      <trkpt lat="48.84975" lon="2.36674">
        <ele>67.61</ele>
        <time>2020-03-15T16:09:55.000Z</time>
      </trkpt>
      <trkpt lat="48.84971" lon="2.36672">
        <ele>67.53</ele>
        <time>2020-03-15T16:09:56.000Z</time>
      </trkpt>
      <trkpt lat="48.84966" lon="2.3667">
        <ele>67.43</ele>
        <time>2020-03-15T16:09:57.000Z</time>
      </trkpt>
      <trkpt lat="48.84963" lon="2.36668">
        <ele>67.36</ele>
        <time>2020-03-15T16:09:58.000Z</time>
      </trkpt>
      <trkpt lat="48.84958" lon="2.36665">
        <ele>67.26</ele>
        <time>2020-03-15T16:09:59.000Z</time>
      </trkpt>
      <trkpt lat="48.84955" lon="2.36663">
        <ele>67.16</ele>
        <time>2020-03-15T16:10:00.000Z</time>
      </trkpt>
      <trkpt lat="48.84951" lon="2.36661">
        <ele>67.1</ele>
        <time>2020-03-15T16:10:01.000Z</time>
      </trkpt>
      <trkpt lat="48.84948" lon="2.36659">
        <ele>67.06</ele>
        <time>2020-03-15T16:10:02.000Z</time>
      </trkpt>
      <trkpt lat="48.84943" lon="2.36657">
        <ele>67.01</ele>
        <time>2020-03-15T16:10:03.000Z</time>
      </trkpt>
      <trkpt lat="48.8494" lon="2.36656">
        <ele>66.96</ele>
        <time>2020-03-15T16:10:04.000Z</time>
      </trkpt>
      <trkpt lat="48.84936" lon="2.36654">
        <ele>66.94</ele>
        <time>2020-03-15T16:10:05.000Z</time>
      </trkpt>
      <trkpt lat="48.84933" lon="2.36652">
        <ele>66.91</ele>
        <time>2020-03-15T16:10:06.000Z</time>
      </trkpt>
      <trkpt lat="48.8493" lon="2.36651">
        <ele>66.89</ele>
        <time>2020-03-15T16:10:07.000Z</time>
      </trkpt>
      <trkpt lat="48.84926" lon="2.3665">
        <ele>66.88</ele>
        <time>2020-03-15T16:10:08.000Z</time>
      </trkpt>
      <trkpt lat="48.84923" lon="2.36648">
        <ele>66.87</ele>
        <time>2020-03-15T16:10:09.000Z</time>
      </trkpt>
      <trkpt lat="48.84919" lon="2.36646">
        <ele>66.85</ele>
        <time>2020-03-15T16:10:10.000Z</time>
      </trkpt>
      <trkpt lat="48.84915" lon="2.36644">
        <ele>66.85</ele>
        <time>2020-03-15T16:10:11.000Z</time>
      </trkpt>
      <trkpt lat="48.84911" lon="2.36642">
        <ele>66.84</ele>
        <time>2020-03-15T16:10:12.000Z</time>
      </trkpt>
      <trkpt lat="48.84909" lon="2.36641">
        <ele>66.85</ele>
        <time>2020-03-15T16:10:13.000Z</time>
      </trkpt>
      <trkpt lat="48.84905" lon="2.36639">
        <ele>66.81</ele>
        <time>2020-03-15T16:10:14.000Z</time>
      </trkpt>
      <trkpt lat="48.84902" lon="2.36637">
        <ele>66.76</ele>
        <time>2020-03-15T16:10:15.000Z</time>
      </trkpt>
      <trkpt lat="48.84899" lon="2.36636">
        <ele>66.73</ele>
        <time>2020-03-15T16:10:16.000Z</time>
      </trkpt>
      <trkpt lat="48.84895" lon="2.36634">
        <ele>66.66</ele>
        <time>2020-03-15T16:10:17.000Z</time>
      </trkpt>
      <trkpt lat="48.84891" lon="2.36634">
        <ele>66.71</ele>
        <time>2020-03-15T16:10:18.000Z</time>
      </trkpt>
      <trkpt lat="48.84888" lon="2.36633">
        <ele>66.75</ele>
        <time>2020-03-15T16:10:19.000Z</time>
      </trkpt>
      <trkpt lat="48.84884" lon="2.36631">
        <ele>66.72</ele>
        <time>2020-03-15T16:10:20.000Z</time>
      </trkpt>
      <trkpt lat="48.8488" lon="2.3663">
        <ele>66.7</ele>
        <time>2020-03-15T16:10:21.000Z</time>
      </trkpt>
      <trkpt lat="48.84876" lon="2.36629">
        <ele>66.76</ele>
        <time>2020-03-15T16:10:22.000Z</time>
      </trkpt>
      <trkpt lat="48.84872" lon="2.36628">
        <ele>66.79</ele>
        <time>2020-03-15T16:10:23.000Z</time>
      </trkpt>
      <trkpt lat="48.84868" lon="2.36627">
        <ele>66.81</ele>
        <time>2020-03-15T16:10:24.000Z</time>
      </trkpt>
      <trkpt lat="48.84864" lon="2.36626">
        <ele>66.8</ele>
        <time>2020-03-15T16:10:25.000Z</time>
      </trkpt>
      <trkpt lat="48.8486" lon="2.36623">
        <ele>66.75</ele>
        <time>2020-03-15T16:10:26.000Z</time>
      </trkpt>
      <trkpt lat="48.84856" lon="2.36622">
        <ele>66.73</ele>
        <time>2020-03-15T16:10:27.000Z</time>
      </trkpt>
      <trkpt lat="48.84852" lon="2.3662">
        <ele>66.64</ele>
        <time>2020-03-15T16:10:28.000Z</time>
      </trkpt>
      <trkpt lat="48.84847" lon="2.36618">
        <ele>66.4</ele>
        <time>2020-03-15T16:10:29.000Z</time>
      </trkpt>
      <trkpt lat="48.84843" lon="2.36617">
        <ele>66.37</ele>
        <time>2020-03-15T16:10:30.000Z</time>
      </trkpt>
      <trkpt lat="48.84839" lon="2.36615">
        <ele>66.34</ele>
        <time>2020-03-15T16:10:31.000Z</time>
      </trkpt>
      <trkpt lat="48.84835" lon="2.36613">
        <ele>65.9</ele>
        <time>2020-03-15T16:10:32.000Z</time>
      </trkpt>
      <trkpt lat="48.8483" lon="2.36612">
        <ele>65.47</ele>
        <time>2020-03-15T16:10:33.000Z</time>
      </trkpt>
      <trkpt lat="48.84825" lon="2.3661">
        <ele>64.72</ele>
        <time>2020-03-15T16:10:34.000Z</time>
      </trkpt>
      <trkpt lat="48.84822" lon="2.36609">
        <ele>64.66</ele>
        <time>2020-03-15T16:10:35.000Z</time>
      </trkpt>
      <trkpt lat="48.84818" lon="2.36607">
        <ele>64.6</ele>
        <time>2020-03-15T16:10:36.000Z</time>
      </trkpt>
      <trkpt lat="48.84815" lon="2.36605">
        <ele>64.54</ele>
        <time>2020-03-15T16:10:37.000Z</time>
      </trkpt>
      <trkpt lat="48.84812" lon="2.36603">
        <ele>64.47</ele>
        <time>2020-03-15T16:10:38.000Z</time>
      </trkpt>
      <trkpt lat="48.84808" lon="2.366">
        <ele>64.36</ele>
        <time>2020-03-15T16:10:39.000Z</time>
      </trkpt>
      <trkpt lat="48.84805" lon="2.36598">
        <ele>64.27</ele>
        <time>2020-03-15T16:10:40.000Z</time>
      </trkpt>
      <trkpt lat="48.84802" lon="2.36596">
        <ele>64.19</ele>
        <time>2020-03-15T16:10:41.000Z</time>
      </trkpt>
      <trkpt lat="48.84797" lon="2.36593">
        <ele>64.08</ele>
        <time>2020-03-15T16:10:42.000Z</time>
      </trkpt>
      <trkpt lat="48.84793" lon="2.36592">
        <ele>63.97</ele>
        <time>2020-03-15T16:10:43.000Z</time>
      </trkpt>
      <trkpt lat="48.84789" lon="2.3659">
        <ele>63.89</ele>
        <time>2020-03-15T16:10:44.000Z</time>
      </trkpt>
      <trkpt lat="48.84785" lon="2.36588">
        <ele>63.79</ele>
        <time>2020-03-15T16:10:45.000Z</time>
      </trkpt>
      <trkpt lat="48.84782" lon="2.36587">
        <ele>63.69</ele>
        <time>2020-03-15T16:10:46.000Z</time>
      </trkpt>
      <trkpt lat="48.84778" lon="2.36585">
        <ele>63.6</ele>
        <time>2020-03-15T16:10:47.000Z</time>
      </trkpt>
      <trkpt lat="48.84775" lon="2.36583">
        <ele>63.5</ele>
        <time>2020-03-15T16:10:48.000Z</time>
      </trkpt>
      <trkpt lat="48.84771" lon="2.3658">
        <ele>63.39</ele>
        <time>2020-03-15T16:10:49.000Z</time>
      </trkpt>
      <trkpt lat="48.84769" lon="2.36578">
        <ele>63.28</ele>
        <time>2020-03-15T16:10:50.000Z</time>
      </trkpt>
      <trkpt lat="48.84765" lon="2.36574">
        <ele>63.17</ele>
        <time>2020-03-15T16:10:51.000Z</time>
      </trkpt>
      <trkpt lat="48.84763" lon="2.36571">
        <ele>63.04</ele>
        <time>2020-03-15T16:10:52.000Z</time>
      </trkpt>
      <trkpt lat="48.8476" lon="2.36569">
        <ele>62.9</ele>
        <time>2020-03-15T16:10:53.000Z</time>
      </trkpt>
      <trkpt lat="48.84759" lon="2.36567">
        <ele>62.8</ele>
        <time>2020-03-15T16:10:54.000Z</time>
      </trkpt>
      <trkpt lat="48.84757" lon="2.36565">
        <ele>62.71</ele>
        <time>2020-03-15T16:10:55.000Z</time>
      </trkpt>
      <trkpt lat="48.84755" lon="2.36563">
        <ele>62.64</ele>
        <time>2020-03-15T16:10:56.000Z</time>
      </trkpt>
      <trkpt lat="48.84752" lon="2.36564">
        <ele>62.56</ele>
        <time>2020-03-15T16:10:57.000Z</time>
      </trkpt>
      <trkpt lat="48.8475" lon="2.36564">
        <ele>62.53</ele>
        <time>2020-03-15T16:10:58.000Z</time>
      </trkpt>
      <trkpt lat="48.84748" lon="2.36566">
        <ele>62.49</ele>
        <time>2020-03-15T16:10:59.000Z</time>
      </trkpt>
      <trkpt lat="48.84745" lon="2.36568">
        <ele>62.5</ele>
        <time>2020-03-15T16:11:00.000Z</time>
      </trkpt>
      <trkpt lat="48.84743" lon="2.3657">
        <ele>62.5</ele>
        <time>2020-03-15T16:11:01.000Z</time>
      </trkpt>
      <trkpt lat="48.8474" lon="2.36573">
        <ele>62.5</ele>
        <time>2020-03-15T16:11:02.000Z</time>
      </trkpt>
      <trkpt lat="48.84738" lon="2.36575">
        <ele>62.55</ele>
        <time>2020-03-15T16:11:03.000Z</time>
      </trkpt>
      <trkpt lat="48.84736" lon="2.36578">
        <ele>62.6</ele>
        <time>2020-03-15T16:11:04.000Z</time>
      </trkpt>
      <trkpt lat="48.84734" lon="2.36581">
        <ele>62.69</ele>
        <time>2020-03-15T16:11:05.000Z</time>
      </trkpt>
      <trkpt lat="48.84731" lon="2.36585">
        <ele>62.79</ele>
        <time>2020-03-15T16:11:06.000Z</time>
      </trkpt>
      <trkpt lat="48.84729" lon="2.36588">
        <ele>62.89</ele>
        <time>2020-03-15T16:11:07.000Z</time>
      </trkpt>
      <trkpt lat="48.84727" lon="2.36592">
        <ele>63</ele>
        <time>2020-03-15T16:11:08.000Z</time>
      </trkpt>
      <trkpt lat="48.84724" lon="2.36595">
        <ele>63.11</ele>
        <time>2020-03-15T16:11:09.000Z</time>
      </trkpt>
      <trkpt lat="48.84723" lon="2.36598">
        <ele>63.23</ele>
        <time>2020-03-15T16:11:10.000Z</time>
      </trkpt>
      <trkpt lat="48.84721" lon="2.36601">
        <ele>63.36</ele>
        <time>2020-03-15T16:11:11.000Z</time>
      </trkpt>
      <trkpt lat="48.84719" lon="2.36604">
        <ele>63.48</ele>
        <time>2020-03-15T16:11:12.000Z</time>
      </trkpt>
      <trkpt lat="48.84717" lon="2.36608">
        <ele>63.61</ele>
        <time>2020-03-15T16:11:13.000Z</time>
      </trkpt>
      <trkpt lat="48.84714" lon="2.36611">
        <ele>63.72</ele>
        <time>2020-03-15T16:11:14.000Z</time>
      </trkpt>
      <trkpt lat="48.84711" lon="2.36613">
        <ele>63.83</ele>
        <time>2020-03-15T16:11:15.000Z</time>
      </trkpt>
      <trkpt lat="48.84708" lon="2.36615">
        <ele>63.94</ele>
        <time>2020-03-15T16:11:16.000Z</time>
      </trkpt>
      <trkpt lat="48.84704" lon="2.36615">
        <ele>64.05</ele>
        <time>2020-03-15T16:11:17.000Z</time>
      </trkpt>
      <trkpt lat="48.84701" lon="2.36616">
        <ele>64.15</ele>
        <time>2020-03-15T16:11:18.000Z</time>
      </trkpt>
      <trkpt lat="48.84699" lon="2.36617">
        <ele>64.32</ele>
        <time>2020-03-15T16:11:19.000Z</time>
      </trkpt>
      <trkpt lat="48.84695" lon="2.36618">
        <ele>64.48</ele>
        <time>2020-03-15T16:11:20.000Z</time>
      </trkpt>
      <trkpt lat="48.84692" lon="2.36619">
        <ele>64.59</ele>
        <time>2020-03-15T16:11:21.000Z</time>
      </trkpt>
      <trkpt lat="48.84687" lon="2.3662">
        <ele>64.68</ele>
        <time>2020-03-15T16:11:22.000Z</time>
      </trkpt>
      <trkpt lat="48.84684" lon="2.36623">
        <ele>64.85</ele>
        <time>2020-03-15T16:11:23.000Z</time>
      </trkpt>
      <trkpt lat="48.8468" lon="2.36626">
        <ele>65.05</ele>
        <time>2020-03-15T16:11:24.000Z</time>
      </trkpt>
      <trkpt lat="48.84676" lon="2.36627">
        <ele>65.21</ele>
        <time>2020-03-15T16:11:25.000Z</time>
      </trkpt>
      <trkpt lat="48.84672" lon="2.3663">
        <ele>65.32</ele>
        <time>2020-03-15T16:11:26.000Z</time>
      </trkpt>
      <trkpt lat="48.84669" lon="2.3663">
        <ele>65.47</ele>
        <time>2020-03-15T16:11:27.000Z</time>
      </trkpt>
      <trkpt lat="48.84665" lon="2.36633">
        <ele>65.62</ele>
        <time>2020-03-15T16:11:28.000Z</time>
      </trkpt>
      <trkpt lat="48.84662" lon="2.36636">
        <ele>65.78</ele>
        <time>2020-03-15T16:11:29.000Z</time>
      </trkpt>
      <trkpt lat="48.84657" lon="2.36641">
        <ele>65.92</ele>
        <time>2020-03-15T16:11:30.000Z</time>
      </trkpt>
      <trkpt lat="48.84654" lon="2.36646">
        <ele>66.06</ele>
        <time>2020-03-15T16:11:31.000Z</time>
      </trkpt>
      <trkpt lat="48.84651" lon="2.36649">
        <ele>66.2</ele>
        <time>2020-03-15T16:11:32.000Z</time>
      </trkpt>
      <trkpt lat="48.8465" lon="2.36651">
        <ele>66.37</ele>
        <time>2020-03-15T16:11:33.000Z</time>
      </trkpt>
      <trkpt lat="48.84646" lon="2.36654">
        <ele>66.51</ele>
        <time>2020-03-15T16:11:34.000Z</time>
      </trkpt>
      <trkpt lat="48.84643" lon="2.36656">
        <ele>66.68</ele>
        <time>2020-03-15T16:11:35.000Z</time>
      </trkpt>
      <trkpt lat="48.84641" lon="2.36657">
        <ele>66.81</ele>
        <time>2020-03-15T16:11:36.000Z</time>
      </trkpt>
      <trkpt lat="48.84638" lon="2.36659">
        <ele>66.97</ele>
        <time>2020-03-15T16:11:37.000Z</time>
      </trkpt>
      <trkpt lat="48.84634" lon="2.36661">
        <ele>67.14</ele>
        <time>2020-03-15T16:11:38.000Z</time>
      </trkpt>
      <trkpt lat="48.84631" lon="2.36662">
        <ele>67.35</ele>
        <time>2020-03-15T16:11:39.000Z</time>
      </trkpt>
      <trkpt lat="48.84629" lon="2.36663">
        <ele>67.56</ele>
        <time>2020-03-15T16:11:40.000Z</time>
      </trkpt>
    </trkseg>
  </trk>
</gpx>